<?xml version='1.0' encoding='UTF-8'?><gpx version="1.1" creator="JPX - https://github.com/jenetics/jpx" xmlns="http://www.topografix.com/GPX/1/1"><trk><trkseg><trkpt lat="36.5027154" lon="8.7790328"><ele>142.0</ele><time>2026-05-02T08:15:16.639Z</time></trkpt><trkpt lat="36.502762" lon="8.7789202"><ele>142.0</ele><time>2026-05-02T08:15:18.629Z</time></trkpt><trkpt lat="36.5027804" lon="8.7788391"><ele>142.0</ele><time>2026-05-02T08:15:20.627Z</time></trkpt><trkpt lat="36.5028185" lon="8.778721"><ele>142.0</ele><time>2026-05-02T08:15:23.646Z</time></trkpt><trkpt lat="36.5028516" lon="8.7786199"><ele>142.0</ele><time>2026-05-02T08:15:25.653Z</time></trkpt><trkpt lat="36.5028755" lon="8.7785382"><ele>142.0</ele><time>2026-05-02T08:15:27.653Z</time></trkpt><trkpt lat="36.5029199" lon="8.7784491"><ele>142.0</ele><time>2026-05-02T08:15:30.656Z</time></trkpt><trkpt lat="36.5029563" lon="8.7783416"><ele>142.0</ele><time>2026-05-02T08:15:33.634Z</time></trkpt><trkpt lat="36.5029954" lon="8.7782638"><ele>142.0</ele><time>2026-05-02T08:15:36.655Z</time></trkpt><trkpt lat="36.5030384" lon="8.7781907"><ele>142.0</ele><time>2026-05-02T08:15:38.635Z</time></trkpt><trkpt lat="36.5030999" lon="8.7781088"><ele>142.0</ele><time>2026-05-02T08:15:40.648Z</time></trkpt><trkpt lat="36.5031752" lon="8.7780426"><ele>142.0</ele><time>2026-05-02T08:15:42.649Z</time></trkpt><trkpt lat="36.5032624" lon="8.7779623"><ele>142.0</ele><time>2026-05-02T08:15:44.66Z</time></trkpt><trkpt lat="36.5033166" lon="8.7779185"><ele>142.0</ele><time>2026-05-02T08:15:45.644Z</time></trkpt><trkpt lat="36.5034232" lon="8.7778266"><ele>142.0</ele><time>2026-05-02T08:15:47.656Z</time></trkpt><trkpt lat="36.5034843" lon="8.7777746"><ele>142.0</ele><time>2026-05-02T08:15:48.64Z</time></trkpt><trkpt lat="36.5035525" lon="8.7777251"><ele>142.0</ele><time>2026-05-02T08:15:49.622Z</time></trkpt><trkpt lat="36.5036174" lon="8.7776757"><ele>142.0</ele><time>2026-05-02T08:15:50.644Z</time></trkpt><trkpt lat="36.5036805" lon="8.7776313"><ele>142.5</ele><time>2026-05-02T08:15:51.637Z</time></trkpt><trkpt lat="36.5037989" lon="8.7775579"><ele>143.0</ele><time>2026-05-02T08:15:53.637Z</time></trkpt><trkpt lat="36.5038662" lon="8.7775222"><ele>143.5</ele><time>2026-05-02T08:15:54.639Z</time></trkpt><trkpt lat="36.5039444" lon="8.7774898"><ele>144.0</ele><time>2026-05-02T08:15:55.656Z</time></trkpt><trkpt lat="36.5040207" lon="8.7774601"><ele>144.5</ele><time>2026-05-02T08:15:56.649Z</time></trkpt><trkpt lat="36.5040917" lon="8.777422"><ele>145.0</ele><time>2026-05-02T08:15:57.651Z</time></trkpt><trkpt lat="36.5041568" lon="8.7773846"><ele>145.0</ele><time>2026-05-02T08:15:58.65Z</time></trkpt><trkpt lat="36.5042185" lon="8.77735"><ele>145.0</ele><time>2026-05-02T08:15:59.629Z</time></trkpt><trkpt lat="36.5043145" lon="8.7772857"><ele>145.0</ele><time>2026-05-02T08:16:01.641Z</time></trkpt><trkpt lat="36.5043996" lon="8.7772108"><ele>145.0</ele><time>2026-05-02T08:16:03.649Z</time></trkpt><trkpt lat="36.5044767" lon="8.7771107"><ele>145.0</ele><time>2026-05-02T08:16:05.657Z</time></trkpt><trkpt lat="36.504537" lon="8.7769998"><ele>143.4</ele><time>2026-05-02T08:16:07.64Z</time></trkpt><trkpt lat="36.5045939" lon="8.7768853"><ele>141.8</ele><time>2026-05-02T08:16:09.65Z</time></trkpt><trkpt lat="36.5046211" lon="8.7767649"><ele>140.2</ele><time>2026-05-02T08:16:11.641Z</time></trkpt><trkpt lat="36.5046257" lon="8.7766451"><ele>138.6</ele><time>2026-05-02T08:16:13.633Z</time></trkpt><trkpt lat="36.5046211" lon="8.7765112"><ele>137.0</ele><time>2026-05-02T08:16:15.646Z</time></trkpt><trkpt lat="36.504631" lon="8.7763787"><ele>137.0</ele><time>2026-05-02T08:16:17.65Z</time></trkpt><trkpt lat="36.5046407" lon="8.7762387"><ele>137.0</ele><time>2026-05-02T08:16:19.659Z</time></trkpt><trkpt lat="36.504657" lon="8.7760825"><ele>137.0</ele><time>2026-05-02T08:16:21.651Z</time></trkpt><trkpt lat="36.5046733" lon="8.7759345"><ele>137.0</ele><time>2026-05-02T08:16:23.65Z</time></trkpt><trkpt lat="36.504684" lon="8.7757862"><ele>137.33333333333331</ele><time>2026-05-02T08:16:25.647Z</time></trkpt><trkpt lat="36.5046948" lon="8.7756367"><ele>137.66666666666666</ele><time>2026-05-02T08:16:27.668Z</time></trkpt><trkpt lat="36.5046946" lon="8.7755238"><ele>138.0</ele><time>2026-05-02T08:16:29.641Z</time></trkpt><trkpt lat="36.504697" lon="8.7754288"><ele>138.33333333333334</ele><time>2026-05-02T08:16:31.642Z</time></trkpt><trkpt lat="36.5047009" lon="8.7753413"><ele>138.66666666666669</ele><time>2026-05-02T08:16:33.65Z</time></trkpt><trkpt lat="36.5047031" lon="8.7752355"><ele>139.0</ele><time>2026-05-02T08:16:36.652Z</time></trkpt><trkpt lat="36.5047048" lon="8.7751479"><ele>139.16666666666669</ele><time>2026-05-02T08:16:40.665Z</time></trkpt><trkpt lat="36.5047118" lon="8.7750659"><ele>139.33333333333334</ele><time>2026-05-02T08:16:43.644Z</time></trkpt><trkpt lat="36.5047195" lon="8.7749448"><ele>139.5</ele><time>2026-05-02T08:16:46.648Z</time></trkpt><trkpt lat="36.5047224" lon="8.774853"><ele>139.66666666666666</ele><time>2026-05-02T08:16:48.66Z</time></trkpt><trkpt lat="36.5047233" lon="8.7747734"><ele>139.83333333333331</ele><time>2026-05-02T08:16:50.642Z</time></trkpt><trkpt lat="36.5047273" lon="8.7746802"><ele>140.0</ele><time>2026-05-02T08:16:53.647Z</time></trkpt><trkpt lat="36.5047315" lon="8.7745611"><ele>140.0</ele><time>2026-05-02T08:16:56.639Z</time></trkpt><trkpt lat="36.5047403" lon="8.774446"><ele>140.0</ele><time>2026-05-02T08:16:59.646Z</time></trkpt><trkpt lat="36.5047801" lon="8.774357"><ele>140.0</ele><time>2026-05-02T08:17:02.648Z</time></trkpt><trkpt lat="36.5048464" lon="8.7742852"><ele>140.0</ele><time>2026-05-02T08:17:04.627Z</time></trkpt><trkpt lat="36.5049426" lon="8.7742002"><ele>140.0</ele><time>2026-05-02T08:17:06.642Z</time></trkpt><trkpt lat="36.5050066" lon="8.7741555"><ele>140.16666666666666</ele><time>2026-05-02T08:17:07.642Z</time></trkpt><trkpt lat="36.505076" lon="8.7740956"><ele>140.33333333333331</ele><time>2026-05-02T08:17:08.646Z</time></trkpt><trkpt lat="36.5051479" lon="8.774043"><ele>140.5</ele><time>2026-05-02T08:17:09.65Z</time></trkpt><trkpt lat="36.5052136" lon="8.7739888"><ele>140.66666666666666</ele><time>2026-05-02T08:17:10.654Z</time></trkpt><trkpt lat="36.5052664" lon="8.7739412"><ele>140.83333333333334</ele><time>2026-05-02T08:17:11.649Z</time></trkpt><trkpt lat="36.5053556" lon="8.7738628"><ele>141.0</ele><time>2026-05-02T08:17:13.637Z</time></trkpt><trkpt lat="36.5054397" lon="8.7737878"><ele>141.2</ele><time>2026-05-02T08:17:15.652Z</time></trkpt><trkpt lat="36.5055344" lon="8.7736914"><ele>141.39999999999998</ele><time>2026-05-02T08:17:17.641Z</time></trkpt><trkpt lat="36.5055872" lon="8.7736463"><ele>141.6</ele><time>2026-05-02T08:17:18.634Z</time></trkpt><trkpt lat="36.5056969" lon="8.773575"><ele>141.79999999999998</ele><time>2026-05-02T08:17:20.634Z</time></trkpt><trkpt lat="36.505756" lon="8.7735344"><ele>142.0</ele><time>2026-05-02T08:17:21.627Z</time></trkpt><trkpt lat="36.5058588" lon="8.773445"><ele>142.4</ele><time>2026-05-02T08:17:23.654Z</time></trkpt><trkpt lat="36.5059147" lon="8.773394"><ele>142.79999999999998</ele><time>2026-05-02T08:17:24.652Z</time></trkpt><trkpt lat="36.5060005" lon="8.7733163"><ele>143.2</ele><time>2026-05-02T08:17:26.64Z</time></trkpt><trkpt lat="36.5060866" lon="8.7732522"><ele>143.6</ele><time>2026-05-02T08:17:28.642Z</time></trkpt><trkpt lat="36.5061712" lon="8.7731847"><ele>144.0</ele><time>2026-05-02T08:17:30.657Z</time></trkpt><trkpt lat="36.5062432" lon="8.7731123"><ele>144.2</ele><time>2026-05-02T08:17:32.663Z</time></trkpt><trkpt lat="36.5063274" lon="8.7730313"><ele>144.4</ele><time>2026-05-02T08:17:34.637Z</time></trkpt><trkpt lat="36.506412" lon="8.7729718"><ele>144.6</ele><time>2026-05-02T08:17:36.682Z</time></trkpt><trkpt lat="36.5064882" lon="8.7729107"><ele>144.8</ele><time>2026-05-02T08:17:38.666Z</time></trkpt><trkpt lat="36.5065793" lon="8.7728542"><ele>145.0</ele><time>2026-05-02T08:17:40.66Z</time></trkpt><trkpt lat="36.5066662" lon="8.7727887"><ele>145.0</ele><time>2026-05-02T08:17:42.665Z</time></trkpt><trkpt lat="36.5067539" lon="8.7727377"><ele>145.0</ele><time>2026-05-02T08:17:44.654Z</time></trkpt><trkpt lat="36.5068085" lon="8.7726973"><ele>145.0</ele><time>2026-05-02T08:17:46.67Z</time></trkpt><trkpt lat="36.5067896" lon="8.7726039"><ele>145.0</ele><time>2026-05-02T08:17:48.663Z</time></trkpt><trkpt lat="36.5067412" lon="8.7724818"><ele>145.0</ele><time>2026-05-02T08:17:50.67Z</time></trkpt><trkpt lat="36.506694" lon="8.772374"><ele>145.0</ele><time>2026-05-02T08:17:52.672Z</time></trkpt><trkpt lat="36.5066712" lon="8.7722891"><ele>145.0</ele><time>2026-05-02T08:17:55.635Z</time></trkpt><trkpt lat="36.5066391" lon="8.7722126"><ele>145.0</ele><time>2026-05-02T08:17:59.666Z</time></trkpt><trkpt lat="36.5067058" lon="8.7721148"><ele>145.0</ele><time>2026-05-02T08:18:02.669Z</time></trkpt><trkpt lat="36.5067662" lon="8.7720776"><ele>145.0</ele><time>2026-05-02T08:18:03.68Z</time></trkpt><trkpt lat="36.5068465" lon="8.7720316"><ele>145.0</ele><time>2026-05-02T08:18:04.655Z</time></trkpt><trkpt lat="36.5069263" lon="8.7719761"><ele>145.0</ele><time>2026-05-02T08:18:05.643Z</time></trkpt><trkpt lat="36.5070031" lon="8.7719208"><ele>145.0</ele><time>2026-05-02T08:18:06.671Z</time></trkpt><trkpt lat="36.5070819" lon="8.7718605"><ele>145.0</ele><time>2026-05-02T08:18:07.669Z</time></trkpt><trkpt lat="36.5071623" lon="8.7718143"><ele>145.0</ele><time>2026-05-02T08:18:08.633Z</time></trkpt><trkpt lat="36.5072446" lon="8.771761"><ele>145.0</ele><time>2026-05-02T08:18:09.668Z</time></trkpt><trkpt lat="36.507326" lon="8.7717099"><ele>145.0</ele><time>2026-05-02T08:18:10.659Z</time></trkpt><trkpt lat="36.507398" lon="8.7716567"><ele>145.0</ele><time>2026-05-02T08:18:11.65Z</time></trkpt><trkpt lat="36.5074751" lon="8.771601"><ele>145.0</ele><time>2026-05-02T08:18:12.654Z</time></trkpt><trkpt lat="36.5075576" lon="8.7715442"><ele>145.0</ele><time>2026-05-02T08:18:13.665Z</time></trkpt><trkpt lat="36.5076349" lon="8.771486"><ele>145.0</ele><time>2026-05-02T08:18:14.639Z</time></trkpt><trkpt lat="36.5077175" lon="8.7714267"><ele>145.0</ele><time>2026-05-02T08:18:15.671Z</time></trkpt><trkpt lat="36.5077984" lon="8.7713604"><ele>145.0</ele><time>2026-05-02T08:18:16.64Z</time></trkpt><trkpt lat="36.5078777" lon="8.771292"><ele>145.0</ele><time>2026-05-02T08:18:17.628Z</time></trkpt><trkpt lat="36.5079548" lon="8.7712323"><ele>145.0</ele><time>2026-05-02T08:18:18.661Z</time></trkpt><trkpt lat="36.508024" lon="8.7711718"><ele>145.0</ele><time>2026-05-02T08:18:19.674Z</time></trkpt><trkpt lat="36.508096" lon="8.7711141"><ele>145.0</ele><time>2026-05-02T08:18:20.667Z</time></trkpt><trkpt lat="36.5081587" lon="8.7710619"><ele>145.0</ele><time>2026-05-02T08:18:21.666Z</time></trkpt><trkpt lat="36.5082223" lon="8.7710145"><ele>145.0</ele><time>2026-05-02T08:18:22.667Z</time></trkpt><trkpt lat="36.5082832" lon="8.7709628"><ele>145.0</ele><time>2026-05-02T08:18:23.658Z</time></trkpt><trkpt lat="36.5083382" lon="8.77091"><ele>145.0</ele><time>2026-05-02T08:18:24.682Z</time></trkpt><trkpt lat="36.5083905" lon="8.7708631"><ele>145.0</ele><time>2026-05-02T08:18:25.673Z</time></trkpt><trkpt lat="36.5084464" lon="8.7708234"><ele>145.0</ele><time>2026-05-02T08:18:26.675Z</time></trkpt><trkpt lat="36.5085041" lon="8.7707747"><ele>145.0</ele><time>2026-05-02T08:18:27.668Z</time></trkpt><trkpt lat="36.5085718" lon="8.7707131"><ele>145.0</ele><time>2026-05-02T08:18:28.648Z</time></trkpt><trkpt lat="36.5086451" lon="8.7706453"><ele>145.0</ele><time>2026-05-02T08:18:29.655Z</time></trkpt><trkpt lat="36.5087228" lon="8.7705693"><ele>145.0</ele><time>2026-05-02T08:18:30.677Z</time></trkpt><trkpt lat="36.5087938" lon="8.7704918"><ele>145.0</ele><time>2026-05-02T08:18:31.675Z</time></trkpt><trkpt lat="36.5088673" lon="8.770423"><ele>145.0</ele><time>2026-05-02T08:18:32.663Z</time></trkpt><trkpt lat="36.508936" lon="8.7703566"><ele>145.0</ele><time>2026-05-02T08:18:33.679Z</time></trkpt><trkpt lat="36.5090042" lon="8.7702918"><ele>145.0</ele><time>2026-05-02T08:18:34.672Z</time></trkpt><trkpt lat="36.509074" lon="8.7702318"><ele>145.0</ele><time>2026-05-02T08:18:35.696Z</time></trkpt><trkpt lat="36.509135" lon="8.7701817"><ele>145.0</ele><time>2026-05-02T08:18:36.666Z</time></trkpt><trkpt lat="36.5091902" lon="8.7701368"><ele>145.0</ele><time>2026-05-02T08:18:37.65Z</time></trkpt><trkpt lat="36.5092437" lon="8.7700859"><ele>145.0</ele><time>2026-05-02T08:18:38.672Z</time></trkpt><trkpt lat="36.5093319" lon="8.7700048"><ele>145.0</ele><time>2026-05-02T08:18:40.662Z</time></trkpt><trkpt lat="36.5094163" lon="8.7699207"><ele>145.0</ele><time>2026-05-02T08:18:42.672Z</time></trkpt><trkpt lat="36.5095032" lon="8.7698256"><ele>145.0</ele><time>2026-05-02T08:18:44.673Z</time></trkpt><trkpt lat="36.509556" lon="8.7697692"><ele>145.0</ele><time>2026-05-02T08:18:45.679Z</time></trkpt><trkpt lat="36.5096103" lon="8.7697188"><ele>145.0</ele><time>2026-05-02T08:18:46.676Z</time></trkpt><trkpt lat="36.5096685" lon="8.7696662"><ele>145.0</ele><time>2026-05-02T08:18:47.679Z</time></trkpt><trkpt lat="36.5097265" lon="8.769608"><ele>145.0</ele><time>2026-05-02T08:18:48.668Z</time></trkpt><trkpt lat="36.5097856" lon="8.769551"><ele>145.0</ele><time>2026-05-02T08:18:49.685Z</time></trkpt><trkpt lat="36.5098499" lon="8.7695032"><ele>145.0</ele><time>2026-05-02T08:18:50.677Z</time></trkpt><trkpt lat="36.5099167" lon="8.7694553"><ele>144.66666666666669</ele><time>2026-05-02T08:18:51.689Z</time></trkpt><trkpt lat="36.509983" lon="8.7693979"><ele>144.33333333333334</ele><time>2026-05-02T08:18:52.673Z</time></trkpt><trkpt lat="36.510049" lon="8.7693323"><ele>144.0</ele><time>2026-05-02T08:18:53.682Z</time></trkpt><trkpt lat="36.5101185" lon="8.7692582"><ele>143.66666666666666</ele><time>2026-05-02T08:18:54.673Z</time></trkpt><trkpt lat="36.5101854" lon="8.7691779"><ele>143.33333333333331</ele><time>2026-05-02T08:18:55.666Z</time></trkpt><trkpt lat="36.510246" lon="8.7690943"><ele>143.0</ele><time>2026-05-02T08:18:56.677Z</time></trkpt><trkpt lat="36.5103073" lon="8.7690018"><ele>142.6</ele><time>2026-05-02T08:18:57.667Z</time></trkpt><trkpt lat="36.5103684" lon="8.768901"><ele>142.20000000000002</ele><time>2026-05-02T08:18:58.673Z</time></trkpt><trkpt lat="36.5104234" lon="8.7688018"><ele>141.8</ele><time>2026-05-02T08:18:59.684Z</time></trkpt><trkpt lat="36.5104716" lon="8.7687003"><ele>141.4</ele><time>2026-05-02T08:19:00.662Z</time></trkpt><trkpt lat="36.5105134" lon="8.768597"><ele>141.0</ele><time>2026-05-02T08:19:01.652Z</time></trkpt><trkpt lat="36.5105525" lon="8.7684926"><ele>140.83333333333334</ele><time>2026-05-02T08:19:02.651Z</time></trkpt><trkpt lat="36.510585" lon="8.7683878"><ele>140.66666666666666</ele><time>2026-05-02T08:19:03.671Z</time></trkpt><trkpt lat="36.5106137" lon="8.7682859"><ele>140.5</ele><time>2026-05-02T08:19:04.659Z</time></trkpt><trkpt lat="36.510634" lon="8.7681845"><ele>140.33333333333331</ele><time>2026-05-02T08:19:05.68Z</time></trkpt><trkpt lat="36.5106516" lon="8.7680741"><ele>140.16666666666666</ele><time>2026-05-02T08:19:06.676Z</time></trkpt><trkpt lat="36.510667" lon="8.767964"><ele>140.0</ele><time>2026-05-02T08:19:07.679Z</time></trkpt><trkpt lat="36.5106813" lon="8.7678481"><ele>140.0</ele><time>2026-05-02T08:19:08.676Z</time></trkpt><trkpt lat="36.5106932" lon="8.767735"><ele>140.0</ele><time>2026-05-02T08:19:09.669Z</time></trkpt><trkpt lat="36.5106966" lon="8.7676254"><ele>140.0</ele><time>2026-05-02T08:19:10.669Z</time></trkpt><trkpt lat="36.5106998" lon="8.7675135"><ele>140.0</ele><time>2026-05-02T08:19:11.673Z</time></trkpt><trkpt lat="36.5107081" lon="8.767396"><ele>140.0</ele><time>2026-05-02T08:19:12.645Z</time></trkpt><trkpt lat="36.5107151" lon="8.7672796"><ele>140.0</ele><time>2026-05-02T08:19:13.659Z</time></trkpt><trkpt lat="36.5107235" lon="8.7671617"><ele>140.0</ele><time>2026-05-02T08:19:14.662Z</time></trkpt><trkpt lat="36.5107281" lon="8.7670484"><ele>140.0</ele><time>2026-05-02T08:19:15.637Z</time></trkpt><trkpt lat="36.5107272" lon="8.7669304"><ele>140.0</ele><time>2026-05-02T08:19:16.671Z</time></trkpt><trkpt lat="36.5107313" lon="8.7668089"><ele>140.0</ele><time>2026-05-02T08:19:17.622Z</time></trkpt><trkpt lat="36.5107406" lon="8.7666929"><ele>140.0</ele><time>2026-05-02T08:19:18.663Z</time></trkpt><trkpt lat="36.5107498" lon="8.7665712"><ele>140.0</ele><time>2026-05-02T08:19:19.654Z</time></trkpt><trkpt lat="36.5107521" lon="8.7664574"><ele>140.0</ele><time>2026-05-02T08:19:20.661Z</time></trkpt><trkpt lat="36.5107555" lon="8.7663374"><ele>140.0</ele><time>2026-05-02T08:19:21.633Z</time></trkpt><trkpt lat="36.5107627" lon="8.7662132"><ele>140.0</ele><time>2026-05-02T08:19:22.682Z</time></trkpt><trkpt lat="36.51077" lon="8.766093"><ele>140.83333333333331</ele><time>2026-05-02T08:19:23.671Z</time></trkpt><trkpt lat="36.5107776" lon="8.7659808"><ele>141.66666666666666</ele><time>2026-05-02T08:19:24.657Z</time></trkpt><trkpt lat="36.5107904" lon="8.7658647"><ele>142.5</ele><time>2026-05-02T08:19:25.619Z</time></trkpt><trkpt lat="36.5108066" lon="8.7657604"><ele>143.33333333333334</ele><time>2026-05-02T08:19:26.656Z</time></trkpt><trkpt lat="36.5108217" lon="8.765658"><ele>144.16666666666669</ele><time>2026-05-02T08:19:27.676Z</time></trkpt><trkpt lat="36.5108376" lon="8.7655667"><ele>145.0</ele><time>2026-05-02T08:19:28.68Z</time></trkpt><trkpt lat="36.510853" lon="8.7654772"><ele>145.0</ele><time>2026-05-02T08:19:29.641Z</time></trkpt><trkpt lat="36.5108685" lon="8.7653911"><ele>145.0</ele><time>2026-05-02T08:19:30.664Z</time></trkpt><trkpt lat="36.5108819" lon="8.7653141"><ele>145.0</ele><time>2026-05-02T08:19:31.65Z</time></trkpt><trkpt lat="36.5109014" lon="8.7651431"><ele>145.0</ele><time>2026-05-02T08:19:33.677Z</time></trkpt><trkpt lat="36.5109166" lon="8.7650498"><ele>145.0</ele><time>2026-05-02T08:19:34.659Z</time></trkpt><trkpt lat="36.5109362" lon="8.764953"><ele>145.0</ele><time>2026-05-02T08:19:35.678Z</time></trkpt><trkpt lat="36.5109523" lon="8.7648473"><ele>144.66666666666669</ele><time>2026-05-02T08:19:36.679Z</time></trkpt><trkpt lat="36.5109659" lon="8.7647487"><ele>144.33333333333334</ele><time>2026-05-02T08:19:37.676Z</time></trkpt><trkpt lat="36.5109818" lon="8.7646431"><ele>144.0</ele><time>2026-05-02T08:19:38.678Z</time></trkpt><trkpt lat="36.5109961" lon="8.7645379"><ele>143.66666666666666</ele><time>2026-05-02T08:19:39.674Z</time></trkpt><trkpt lat="36.5110156" lon="8.7644246"><ele>143.33333333333331</ele><time>2026-05-02T08:19:40.666Z</time></trkpt><trkpt lat="36.5110424" lon="8.7643132"><ele>143.0</ele><time>2026-05-02T08:19:41.671Z</time></trkpt><trkpt lat="36.511069" lon="8.7642009"><ele>142.66666666666666</ele><time>2026-05-02T08:19:42.668Z</time></trkpt><trkpt lat="36.5110929" lon="8.7640912"><ele>142.33333333333331</ele><time>2026-05-02T08:19:43.645Z</time></trkpt><trkpt lat="36.5111172" lon="8.7639843"><ele>142.0</ele><time>2026-05-02T08:19:44.665Z</time></trkpt><trkpt lat="36.5111422" lon="8.7638855"><ele>141.66666666666666</ele><time>2026-05-02T08:19:45.659Z</time></trkpt><trkpt lat="36.5111674" lon="8.7637909"><ele>141.33333333333334</ele><time>2026-05-02T08:19:46.669Z</time></trkpt><trkpt lat="36.5111947" lon="8.7636991"><ele>141.0</ele><time>2026-05-02T08:19:47.65Z</time></trkpt><trkpt lat="36.5112294" lon="8.7636034"><ele>141.33333333333334</ele><time>2026-05-02T08:19:48.65Z</time></trkpt><trkpt lat="36.5112697" lon="8.7635153"><ele>141.66666666666666</ele><time>2026-05-02T08:19:49.663Z</time></trkpt><trkpt lat="36.5113087" lon="8.7634323"><ele>142.0</ele><time>2026-05-02T08:19:50.668Z</time></trkpt><trkpt lat="36.5113468" lon="8.763355"><ele>142.33333333333331</ele><time>2026-05-02T08:19:51.652Z</time></trkpt><trkpt lat="36.5113807" lon="8.7632773"><ele>142.66666666666666</ele><time>2026-05-02T08:19:52.616Z</time></trkpt><trkpt lat="36.5114161" lon="8.7632073"><ele>143.0</ele><time>2026-05-02T08:19:53.649Z</time></trkpt><trkpt lat="36.511493" lon="8.7630662"><ele>143.0</ele><time>2026-05-02T08:19:55.668Z</time></trkpt><trkpt lat="36.5115471" lon="8.7629818"><ele>143.0</ele><time>2026-05-02T08:19:56.672Z</time></trkpt><trkpt lat="36.5116094" lon="8.7629073"><ele>143.0</ele><time>2026-05-02T08:19:57.668Z</time></trkpt><trkpt lat="36.5116763" lon="8.7628379"><ele>143.0</ele><time>2026-05-02T08:19:58.673Z</time></trkpt><trkpt lat="36.5117446" lon="8.7627661"><ele>143.0</ele><time>2026-05-02T08:19:59.664Z</time></trkpt><trkpt lat="36.511815" lon="8.7626947"><ele>143.0</ele><time>2026-05-02T08:20:00.667Z</time></trkpt><trkpt lat="36.5118797" lon="8.7626359"><ele>142.99999999999997</ele><time>2026-05-02T08:20:01.665Z</time></trkpt><trkpt lat="36.511935" lon="8.7625727"><ele>143.0</ele><time>2026-05-02T08:20:02.635Z</time></trkpt><trkpt lat="36.5119907" lon="8.7625126"><ele>143.0</ele><time>2026-05-02T08:20:03.664Z</time></trkpt><trkpt lat="36.5120421" lon="8.7624523"><ele>143.0</ele><time>2026-05-02T08:20:04.652Z</time></trkpt><trkpt lat="36.5120928" lon="8.7623971"><ele>143.0</ele><time>2026-05-02T08:20:05.682Z</time></trkpt><trkpt lat="36.5121439" lon="8.762343"><ele>142.99999999999997</ele><time>2026-05-02T08:20:06.672Z</time></trkpt><trkpt lat="36.5121957" lon="8.7622899"><ele>143.0</ele><time>2026-05-02T08:20:07.649Z</time></trkpt><trkpt lat="36.512254" lon="8.7622341"><ele>143.0</ele><time>2026-05-02T08:20:08.681Z</time></trkpt><trkpt lat="36.5123137" lon="8.762176"><ele>143.0</ele><time>2026-05-02T08:20:09.679Z</time></trkpt><trkpt lat="36.512368" lon="8.7621122"><ele>143.0</ele><time>2026-05-02T08:20:10.681Z</time></trkpt><trkpt lat="36.5124192" lon="8.7620441"><ele>143.0</ele><time>2026-05-02T08:20:11.64Z</time></trkpt><trkpt lat="36.5124705" lon="8.7619916"><ele>143.0</ele><time>2026-05-02T08:20:12.663Z</time></trkpt><trkpt lat="36.5125263" lon="8.761946"><ele>143.0</ele><time>2026-05-02T08:20:13.68Z</time></trkpt><trkpt lat="36.5126198" lon="8.7618463"><ele>143.0</ele><time>2026-05-02T08:20:15.673Z</time></trkpt><trkpt lat="36.5127123" lon="8.7617575"><ele>143.0</ele><time>2026-05-02T08:20:17.676Z</time></trkpt><trkpt lat="36.512814" lon="8.7616696"><ele>143.0</ele><time>2026-05-02T08:20:19.664Z</time></trkpt><trkpt lat="36.5128654" lon="8.7616176"><ele>143.0</ele><time>2026-05-02T08:20:20.674Z</time></trkpt><trkpt lat="36.5129529" lon="8.7615321"><ele>143.0</ele><time>2026-05-02T08:20:22.684Z</time></trkpt><trkpt lat="36.5130187" lon="8.7614648"><ele>143.20000000000002</ele><time>2026-05-02T08:20:24.654Z</time></trkpt><trkpt lat="36.5130854" lon="8.7613739"><ele>143.4</ele><time>2026-05-02T08:20:27.675Z</time></trkpt><trkpt lat="36.513145" lon="8.7612949"><ele>143.60000000000002</ele><time>2026-05-02T08:20:29.641Z</time></trkpt><trkpt lat="36.5132266" lon="8.7612178"><ele>143.8</ele><time>2026-05-02T08:20:31.666Z</time></trkpt><trkpt lat="36.5133163" lon="8.7611384"><ele>144.0</ele><time>2026-05-02T08:20:33.654Z</time></trkpt><trkpt lat="36.5134132" lon="8.7610465"><ele>144.0</ele><time>2026-05-02T08:20:35.663Z</time></trkpt><trkpt lat="36.5134991" lon="8.7609711"><ele>144.0</ele><time>2026-05-02T08:20:37.675Z</time></trkpt><trkpt lat="36.5135702" lon="8.7609001"><ele>144.0</ele><time>2026-05-02T08:20:39.627Z</time></trkpt><trkpt lat="36.5136456" lon="8.7608255"><ele>144.0</ele><time>2026-05-02T08:20:41.636Z</time></trkpt><trkpt lat="36.5137338" lon="8.7607286"><ele>144.0</ele><time>2026-05-02T08:20:43.682Z</time></trkpt><trkpt lat="36.5138145" lon="8.7606195"><ele>143.71428571428572</ele><time>2026-05-02T08:20:45.671Z</time></trkpt><trkpt lat="36.5138587" lon="8.760561"><ele>143.42857142857144</ele><time>2026-05-02T08:20:46.658Z</time></trkpt><trkpt lat="36.5139054" lon="8.7605044"><ele>143.14285714285714</ele><time>2026-05-02T08:20:47.648Z</time></trkpt><trkpt lat="36.5139587" lon="8.7604446"><ele>142.85714285714286</ele><time>2026-05-02T08:20:48.664Z</time></trkpt><trkpt lat="36.5140084" lon="8.7603886"><ele>142.57142857142856</ele><time>2026-05-02T08:20:49.645Z</time></trkpt><trkpt lat="36.5140671" lon="8.7603291"><ele>142.28571428571428</ele><time>2026-05-02T08:20:50.669Z</time></trkpt><trkpt lat="36.5141309" lon="8.7602707"><ele>142.0</ele><time>2026-05-02T08:20:51.667Z</time></trkpt><trkpt lat="36.5141968" lon="8.7602097"><ele>142.14285714285714</ele><time>2026-05-02T08:20:52.674Z</time></trkpt><trkpt lat="36.514262" lon="8.7601495"><ele>142.28571428571428</ele><time>2026-05-02T08:20:53.656Z</time></trkpt><trkpt lat="36.5143199" lon="8.7601005"><ele>142.42857142857142</ele><time>2026-05-02T08:20:54.669Z</time></trkpt><trkpt lat="36.5143743" lon="8.7600561"><ele>142.57142857142856</ele><time>2026-05-02T08:20:55.665Z</time></trkpt><trkpt lat="36.5144351" lon="8.7600072"><ele>142.71428571428572</ele><time>2026-05-02T08:20:56.668Z</time></trkpt><trkpt lat="36.5144954" lon="8.7599496"><ele>142.85714285714283</ele><time>2026-05-02T08:20:57.685Z</time></trkpt><trkpt lat="36.5145649" lon="8.759891"><ele>143.0</ele><time>2026-05-02T08:20:58.668Z</time></trkpt><trkpt lat="36.5146316" lon="8.7598226"><ele>143.0</ele><time>2026-05-02T08:20:59.668Z</time></trkpt><trkpt lat="36.5146975" lon="8.7597554"><ele>143.0</ele><time>2026-05-02T08:21:00.643Z</time></trkpt><trkpt lat="36.5147744" lon="8.7596888"><ele>143.0</ele><time>2026-05-02T08:21:01.668Z</time></trkpt><trkpt lat="36.5148452" lon="8.7596218"><ele>143.0</ele><time>2026-05-02T08:21:02.661Z</time></trkpt><trkpt lat="36.5149108" lon="8.7595551"><ele>143.0</ele><time>2026-05-02T08:21:03.683Z</time></trkpt><trkpt lat="36.5149853" lon="8.7594885"><ele>143.0</ele><time>2026-05-02T08:21:04.647Z</time></trkpt><trkpt lat="36.5150497" lon="8.7594147"><ele>142.8</ele><time>2026-05-02T08:21:05.667Z</time></trkpt><trkpt lat="36.5151188" lon="8.7593404"><ele>142.60000000000002</ele><time>2026-05-02T08:21:06.676Z</time></trkpt><trkpt lat="36.5151896" lon="8.7592667"><ele>142.39999999999998</ele><time>2026-05-02T08:21:07.674Z</time></trkpt><trkpt lat="36.5152605" lon="8.759192"><ele>142.2</ele><time>2026-05-02T08:21:08.675Z</time></trkpt><trkpt lat="36.5153313" lon="8.7591218"><ele>142.0</ele><time>2026-05-02T08:21:09.679Z</time></trkpt><trkpt lat="36.5154049" lon="8.7590529"><ele>141.6</ele><time>2026-05-02T08:21:10.658Z</time></trkpt><trkpt lat="36.515478" lon="8.7589767"><ele>141.2</ele><time>2026-05-02T08:21:11.66Z</time></trkpt><trkpt lat="36.5155442" lon="8.7589058"><ele>140.8</ele><time>2026-05-02T08:21:12.668Z</time></trkpt><trkpt lat="36.5156097" lon="8.7588312"><ele>140.4</ele><time>2026-05-02T08:21:13.669Z</time></trkpt><trkpt lat="36.5156819" lon="8.7587591"><ele>140.0</ele><time>2026-05-02T08:21:14.673Z</time></trkpt><trkpt lat="36.5157536" lon="8.7586857"><ele>140.0</ele><time>2026-05-02T08:21:15.675Z</time></trkpt><trkpt lat="36.5158277" lon="8.7586102"><ele>140.0</ele><time>2026-05-02T08:21:16.669Z</time></trkpt><trkpt lat="36.5159058" lon="8.7585385"><ele>140.0</ele><time>2026-05-02T08:21:17.678Z</time></trkpt><trkpt lat="36.5159802" lon="8.7584643"><ele>140.0</ele><time>2026-05-02T08:21:18.679Z</time></trkpt><trkpt lat="36.5160486" lon="8.7583936"><ele>140.0</ele><time>2026-05-02T08:21:19.675Z</time></trkpt><trkpt lat="36.5161174" lon="8.7583169"><ele>140.4</ele><time>2026-05-02T08:21:20.67Z</time></trkpt><trkpt lat="36.5161858" lon="8.7582414"><ele>140.8</ele><time>2026-05-02T08:21:21.674Z</time></trkpt><trkpt lat="36.5162531" lon="8.7581626"><ele>141.2</ele><time>2026-05-02T08:21:22.667Z</time></trkpt><trkpt lat="36.5163236" lon="8.7580904"><ele>141.6</ele><time>2026-05-02T08:21:23.675Z</time></trkpt><trkpt lat="36.5163921" lon="8.7580196"><ele>142.0</ele><time>2026-05-02T08:21:24.708Z</time></trkpt><trkpt lat="36.5164624" lon="8.7579452"><ele>142.4</ele><time>2026-05-02T08:21:25.668Z</time></trkpt><trkpt lat="36.5165344" lon="8.7578681"><ele>142.79999999999998</ele><time>2026-05-02T08:21:26.651Z</time></trkpt><trkpt lat="36.5166035" lon="8.7577931"><ele>143.2</ele><time>2026-05-02T08:21:27.666Z</time></trkpt><trkpt lat="36.5166778" lon="8.7577253"><ele>143.6</ele><time>2026-05-02T08:21:28.671Z</time></trkpt><trkpt lat="36.5167543" lon="8.7576528"><ele>144.0</ele><time>2026-05-02T08:21:29.654Z</time></trkpt><trkpt lat="36.516822" lon="8.7575804"><ele>144.16666666666666</ele><time>2026-05-02T08:21:30.659Z</time></trkpt><trkpt lat="36.5168909" lon="8.7575122"><ele>144.33333333333334</ele><time>2026-05-02T08:21:31.673Z</time></trkpt><trkpt lat="36.5169563" lon="8.7574519"><ele>144.5</ele><time>2026-05-02T08:21:32.646Z</time></trkpt><trkpt lat="36.5170193" lon="8.7573885"><ele>144.66666666666669</ele><time>2026-05-02T08:21:33.669Z</time></trkpt><trkpt lat="36.5170831" lon="8.7573217"><ele>144.83333333333334</ele><time>2026-05-02T08:21:34.678Z</time></trkpt><trkpt lat="36.5171428" lon="8.7572522"><ele>145.0</ele><time>2026-05-02T08:21:35.673Z</time></trkpt><trkpt lat="36.5172081" lon="8.7571854"><ele>145.0</ele><time>2026-05-02T08:21:36.685Z</time></trkpt><trkpt lat="36.5172758" lon="8.7571258"><ele>145.0</ele><time>2026-05-02T08:21:37.674Z</time></trkpt><trkpt lat="36.5173419" lon="8.7570614"><ele>145.0</ele><time>2026-05-02T08:21:38.671Z</time></trkpt><trkpt lat="36.5174076" lon="8.7569927"><ele>145.0</ele><time>2026-05-02T08:21:39.682Z</time></trkpt><trkpt lat="36.5174648" lon="8.7569245"><ele>145.0</ele><time>2026-05-02T08:21:40.65Z</time></trkpt><trkpt lat="36.5175289" lon="8.7568543"><ele>145.0</ele><time>2026-05-02T08:21:41.672Z</time></trkpt><trkpt lat="36.5175966" lon="8.7567866"><ele>144.83333333333334</ele><time>2026-05-02T08:21:42.677Z</time></trkpt><trkpt lat="36.5176583" lon="8.756717"><ele>144.66666666666669</ele><time>2026-05-02T08:21:43.684Z</time></trkpt><trkpt lat="36.5177227" lon="8.7566521"><ele>144.5</ele><time>2026-05-02T08:21:44.684Z</time></trkpt><trkpt lat="36.5177869" lon="8.7565808"><ele>144.33333333333334</ele><time>2026-05-02T08:21:45.679Z</time></trkpt><trkpt lat="36.5178584" lon="8.7565117"><ele>144.16666666666666</ele><time>2026-05-02T08:21:46.667Z</time></trkpt><trkpt lat="36.5179239" lon="8.7564414"><ele>144.0</ele><time>2026-05-02T08:21:47.669Z</time></trkpt><trkpt lat="36.5179917" lon="8.7563714"><ele>143.83333333333334</ele><time>2026-05-02T08:21:48.644Z</time></trkpt><trkpt lat="36.5180578" lon="8.7562962"><ele>143.66666666666666</ele><time>2026-05-02T08:21:49.682Z</time></trkpt><trkpt lat="36.5181214" lon="8.7562304"><ele>143.5</ele><time>2026-05-02T08:21:50.631Z</time></trkpt><trkpt lat="36.518191" lon="8.7561631"><ele>143.33333333333331</ele><time>2026-05-02T08:21:51.65Z</time></trkpt><trkpt lat="36.5182568" lon="8.7560934"><ele>143.16666666666666</ele><time>2026-05-02T08:21:52.66Z</time></trkpt><trkpt lat="36.5183189" lon="8.7560232"><ele>143.0</ele><time>2026-05-02T08:21:53.676Z</time></trkpt><trkpt lat="36.5183736" lon="8.7559548"><ele>143.0</ele><time>2026-05-02T08:21:54.676Z</time></trkpt><trkpt lat="36.5184324" lon="8.7558961"><ele>143.0</ele><time>2026-05-02T08:21:55.669Z</time></trkpt><trkpt lat="36.5185268" lon="8.7558039"><ele>143.0</ele><time>2026-05-02T08:21:57.685Z</time></trkpt><trkpt lat="36.518596" lon="8.7557288"><ele>143.0</ele><time>2026-05-02T08:21:59.675Z</time></trkpt><trkpt lat="36.5186483" lon="8.755655"><ele>143.0</ele><time>2026-05-02T08:22:02.661Z</time></trkpt><trkpt lat="36.5186523" lon="8.7555574"><ele>143.0</ele><time>2026-05-02T08:22:11.636Z</time></trkpt><trkpt lat="36.518616" lon="8.7554816"><ele>143.0</ele><time>2026-05-02T08:22:14.659Z</time></trkpt><trkpt lat="36.5185696" lon="8.755419"><ele>143.0</ele><time>2026-05-02T08:22:17.651Z</time></trkpt><trkpt lat="36.5185159" lon="8.7553472"><ele>143.0</ele><time>2026-05-02T08:22:21.668Z</time></trkpt><trkpt lat="36.5184812" lon="8.755275"><ele>143.0</ele><time>2026-05-02T08:22:25.682Z</time></trkpt><trkpt lat="36.5184939" lon="8.7551718"><ele>143.0</ele><time>2026-05-02T08:22:47.645Z</time></trkpt><trkpt lat="36.5185057" lon="8.7550939"><ele>143.0</ele><time>2026-05-02T08:26:52.676Z</time></trkpt><trkpt lat="36.5186116" lon="8.7550926"><ele>142.75</ele><time>2026-05-02T08:40:17.614Z</time></trkpt><trkpt lat="36.5186901" lon="8.7551818"><ele>142.5</ele><time>2026-05-02T08:40:19.645Z</time></trkpt><trkpt lat="36.5187446" lon="8.7552481"><ele>142.25</ele><time>2026-05-02T08:40:21.67Z</time></trkpt><trkpt lat="36.5187962" lon="8.7552938"><ele>142.0</ele><time>2026-05-02T08:40:24.649Z</time></trkpt><trkpt lat="36.5191207" lon="8.7551453"><ele>142.0</ele><time>2026-05-02T08:40:38.608Z</time></trkpt><trkpt lat="36.5192104" lon="8.7550931"><ele>142.0</ele><time>2026-05-02T08:40:40.619Z</time></trkpt><trkpt lat="36.5194135" lon="8.7549116"><ele>142.0</ele><time>2026-05-02T08:40:43.604Z</time></trkpt><trkpt lat="36.5194802" lon="8.7548506"><ele>142.0</ele><time>2026-05-02T08:40:44.657Z</time></trkpt><trkpt lat="36.5195464" lon="8.7547852"><ele>141.79999999999998</ele><time>2026-05-02T08:40:45.617Z</time></trkpt><trkpt lat="36.5196184" lon="8.7547104"><ele>141.6</ele><time>2026-05-02T08:40:46.613Z</time></trkpt><trkpt lat="36.5196936" lon="8.7546308"><ele>141.39999999999998</ele><time>2026-05-02T08:40:47.611Z</time></trkpt><trkpt lat="36.5197656" lon="8.7545536"><ele>141.2</ele><time>2026-05-02T08:40:48.618Z</time></trkpt><trkpt lat="36.5198388" lon="8.7544762"><ele>141.0</ele><time>2026-05-02T08:40:49.64Z</time></trkpt><trkpt lat="36.5199086" lon="8.7543991"><ele>141.2</ele><time>2026-05-02T08:40:50.61Z</time></trkpt><trkpt lat="36.5199805" lon="8.7543242"><ele>141.39999999999998</ele><time>2026-05-02T08:40:51.647Z</time></trkpt><trkpt lat="36.5200517" lon="8.7542484"><ele>141.6</ele><time>2026-05-02T08:40:52.618Z</time></trkpt><trkpt lat="36.520127" lon="8.7541646"><ele>141.79999999999998</ele><time>2026-05-02T08:40:53.641Z</time></trkpt><trkpt lat="36.5202054" lon="8.7540878"><ele>142.0</ele><time>2026-05-02T08:40:54.616Z</time></trkpt><trkpt lat="36.5202842" lon="8.7540058"><ele>142.0</ele><time>2026-05-02T08:40:55.611Z</time></trkpt><trkpt lat="36.5203599" lon="8.7539227"><ele>142.0</ele><time>2026-05-02T08:40:56.619Z</time></trkpt><trkpt lat="36.5204404" lon="8.7538417"><ele>142.0</ele><time>2026-05-02T08:40:57.635Z</time></trkpt><trkpt lat="36.5205239" lon="8.7537547"><ele>142.0</ele><time>2026-05-02T08:40:58.618Z</time></trkpt><trkpt lat="36.5206074" lon="8.7536681"><ele>142.0</ele><time>2026-05-02T08:40:59.609Z</time></trkpt><trkpt lat="36.5206886" lon="8.7535848"><ele>142.6</ele><time>2026-05-02T08:41:00.66Z</time></trkpt><trkpt lat="36.5207681" lon="8.7534982"><ele>143.2</ele><time>2026-05-02T08:41:01.61Z</time></trkpt><trkpt lat="36.5208527" lon="8.7534149"><ele>143.8</ele><time>2026-05-02T08:41:02.612Z</time></trkpt><trkpt lat="36.5209378" lon="8.7533276"><ele>144.4</ele><time>2026-05-02T08:41:03.613Z</time></trkpt><trkpt lat="36.5210177" lon="8.753246"><ele>145.0</ele><time>2026-05-02T08:41:04.615Z</time></trkpt><trkpt lat="36.5210978" lon="8.753165"><ele>145.0</ele><time>2026-05-02T08:41:05.633Z</time></trkpt><trkpt lat="36.5211791" lon="8.7530789"><ele>145.0</ele><time>2026-05-02T08:41:06.637Z</time></trkpt><trkpt lat="36.5212618" lon="8.7529932"><ele>145.0</ele><time>2026-05-02T08:41:07.633Z</time></trkpt><trkpt lat="36.5213419" lon="8.7529051"><ele>145.0</ele><time>2026-05-02T08:41:08.626Z</time></trkpt><trkpt lat="36.5214307" lon="8.7528154"><ele>145.0</ele><time>2026-05-02T08:41:09.636Z</time></trkpt><trkpt lat="36.5215174" lon="8.7527243"><ele>145.5</ele><time>2026-05-02T08:41:10.641Z</time></trkpt><trkpt lat="36.5216066" lon="8.7526316"><ele>146.0</ele><time>2026-05-02T08:41:11.649Z</time></trkpt><trkpt lat="36.5216974" lon="8.7525352"><ele>146.5</ele><time>2026-05-02T08:41:12.644Z</time></trkpt><trkpt lat="36.5217913" lon="8.7524357"><ele>147.0</ele><time>2026-05-02T08:41:13.64Z</time></trkpt><trkpt lat="36.5218874" lon="8.7523378"><ele>147.0</ele><time>2026-05-02T08:41:14.628Z</time></trkpt><trkpt lat="36.521985" lon="8.7522332"><ele>147.0</ele><time>2026-05-02T08:41:15.651Z</time></trkpt><trkpt lat="36.5220797" lon="8.7521274"><ele>147.0</ele><time>2026-05-02T08:41:16.638Z</time></trkpt><trkpt lat="36.5221757" lon="8.7520262"><ele>147.0</ele><time>2026-05-02T08:41:17.649Z</time></trkpt><trkpt lat="36.52227" lon="8.7519315"><ele>146.5</ele><time>2026-05-02T08:41:18.648Z</time></trkpt><trkpt lat="36.5223652" lon="8.7518337"><ele>146.0</ele><time>2026-05-02T08:41:19.629Z</time></trkpt><trkpt lat="36.5224638" lon="8.7517324"><ele>145.5</ele><time>2026-05-02T08:41:20.64Z</time></trkpt><trkpt lat="36.5225561" lon="8.7516303"><ele>145.0</ele><time>2026-05-02T08:41:21.638Z</time></trkpt><trkpt lat="36.5226493" lon="8.751533"><ele>145.0</ele><time>2026-05-02T08:41:22.632Z</time></trkpt><trkpt lat="36.5227409" lon="8.7514352"><ele>145.0</ele><time>2026-05-02T08:41:23.629Z</time></trkpt><trkpt lat="36.5228379" lon="8.7513427"><ele>145.0</ele><time>2026-05-02T08:41:24.638Z</time></trkpt><trkpt lat="36.522937" lon="8.7512435"><ele>145.0</ele><time>2026-05-02T08:41:25.632Z</time></trkpt><trkpt lat="36.5230329" lon="8.751153"><ele>145.25</ele><time>2026-05-02T08:41:26.617Z</time></trkpt><trkpt lat="36.5231317" lon="8.7510481"><ele>145.5</ele><time>2026-05-02T08:41:27.635Z</time></trkpt><trkpt lat="36.5232295" lon="8.7509458"><ele>145.75</ele><time>2026-05-02T08:41:28.633Z</time></trkpt><trkpt lat="36.5233311" lon="8.7508383"><ele>146.0</ele><time>2026-05-02T08:41:29.647Z</time></trkpt><trkpt lat="36.5234311" lon="8.750729"><ele>145.5</ele><time>2026-05-02T08:41:30.641Z</time></trkpt><trkpt lat="36.5235368" lon="8.7506275"><ele>145.0</ele><time>2026-05-02T08:41:31.644Z</time></trkpt><trkpt lat="36.5236476" lon="8.7505244"><ele>144.5</ele><time>2026-05-02T08:41:32.634Z</time></trkpt><trkpt lat="36.5237541" lon="8.7504156"><ele>144.0</ele><time>2026-05-02T08:41:33.638Z</time></trkpt><trkpt lat="36.5238642" lon="8.7503016"><ele>143.75</ele><time>2026-05-02T08:41:34.635Z</time></trkpt><trkpt lat="36.5239761" lon="8.7501958"><ele>143.5</ele><time>2026-05-02T08:41:35.645Z</time></trkpt><trkpt lat="36.5240874" lon="8.7500822"><ele>143.25</ele><time>2026-05-02T08:41:36.616Z</time></trkpt><trkpt lat="36.5242024" lon="8.7499693"><ele>143.0</ele><time>2026-05-02T08:41:37.623Z</time></trkpt><trkpt lat="36.5243083" lon="8.7498507"><ele>143.0</ele><time>2026-05-02T08:41:38.665Z</time></trkpt><trkpt lat="36.5244151" lon="8.7497372"><ele>143.0</ele><time>2026-05-02T08:41:39.625Z</time></trkpt><trkpt lat="36.5245206" lon="8.749623"><ele>143.0</ele><time>2026-05-02T08:41:40.624Z</time></trkpt><trkpt lat="36.524628" lon="8.7495123"><ele>143.0</ele><time>2026-05-02T08:41:41.639Z</time></trkpt><trkpt lat="36.5248345" lon="8.7492913"><ele>142.75</ele><time>2026-05-02T08:41:43.627Z</time></trkpt><trkpt lat="36.524939" lon="8.7491827"><ele>142.5</ele><time>2026-05-02T08:41:44.635Z</time></trkpt><trkpt lat="36.5250408" lon="8.7490776"><ele>142.25</ele><time>2026-05-02T08:41:45.647Z</time></trkpt><trkpt lat="36.5251472" lon="8.7489698"><ele>142.0</ele><time>2026-05-02T08:41:46.642Z</time></trkpt><trkpt lat="36.5252502" lon="8.7488609"><ele>142.0</ele><time>2026-05-02T08:41:47.64Z</time></trkpt><trkpt lat="36.525349" lon="8.7487573"><ele>142.0</ele><time>2026-05-02T08:41:48.638Z</time></trkpt><trkpt lat="36.5254481" lon="8.7486522"><ele>142.0</ele><time>2026-05-02T08:41:49.647Z</time></trkpt><trkpt lat="36.5255515" lon="8.7485461"><ele>142.0</ele><time>2026-05-02T08:41:50.638Z</time></trkpt><trkpt lat="36.5256498" lon="8.7484394"><ele>142.25</ele><time>2026-05-02T08:41:51.653Z</time></trkpt><trkpt lat="36.5257508" lon="8.7483362"><ele>142.5</ele><time>2026-05-02T08:41:52.634Z</time></trkpt><trkpt lat="36.52585" lon="8.7482353"><ele>142.75</ele><time>2026-05-02T08:41:53.649Z</time></trkpt><trkpt lat="36.5259464" lon="8.7481376"><ele>143.0</ele><time>2026-05-02T08:41:54.641Z</time></trkpt><trkpt lat="36.5260462" lon="8.7480367"><ele>143.0</ele><time>2026-05-02T08:41:55.648Z</time></trkpt><trkpt lat="36.5261444" lon="8.7479359"><ele>143.0</ele><time>2026-05-02T08:41:56.631Z</time></trkpt><trkpt lat="36.5262457" lon="8.7478339"><ele>143.0</ele><time>2026-05-02T08:41:57.648Z</time></trkpt><trkpt lat="36.5263483" lon="8.7477318"><ele>143.0</ele><time>2026-05-02T08:41:58.642Z</time></trkpt><trkpt lat="36.5264512" lon="8.7476236"><ele>143.25</ele><time>2026-05-02T08:41:59.632Z</time></trkpt><trkpt lat="36.5265474" lon="8.7475191"><ele>143.5</ele><time>2026-05-02T08:42:00.634Z</time></trkpt><trkpt lat="36.5266495" lon="8.7474148"><ele>143.75</ele><time>2026-05-02T08:42:01.659Z</time></trkpt><trkpt lat="36.5267515" lon="8.7473054"><ele>144.0</ele><time>2026-05-02T08:42:02.63Z</time></trkpt><trkpt lat="36.5268517" lon="8.7471907"><ele>144.0</ele><time>2026-05-02T08:42:03.635Z</time></trkpt><trkpt lat="36.5269461" lon="8.7470769"><ele>144.0</ele><time>2026-05-02T08:42:04.642Z</time></trkpt><trkpt lat="36.5270435" lon="8.7469645"><ele>144.0</ele><time>2026-05-02T08:42:05.633Z</time></trkpt><trkpt lat="36.5271408" lon="8.7468527"><ele>144.0</ele><time>2026-05-02T08:42:06.64Z</time></trkpt><trkpt lat="36.5272411" lon="8.7467486"><ele>144.5</ele><time>2026-05-02T08:42:07.657Z</time></trkpt><trkpt lat="36.5273376" lon="8.7466487"><ele>145.0</ele><time>2026-05-02T08:42:08.631Z</time></trkpt><trkpt lat="36.5274317" lon="8.7465486"><ele>145.5</ele><time>2026-05-02T08:42:09.648Z</time></trkpt><trkpt lat="36.5275167" lon="8.7464528"><ele>146.0</ele><time>2026-05-02T08:42:10.641Z</time></trkpt><trkpt lat="36.5275986" lon="8.7463627"><ele>146.0</ele><time>2026-05-02T08:42:11.639Z</time></trkpt><trkpt lat="36.5276683" lon="8.7462839"><ele>146.0</ele><time>2026-05-02T08:42:12.636Z</time></trkpt><trkpt lat="36.527726" lon="8.7462278"><ele>146.0</ele><time>2026-05-02T08:42:13.636Z</time></trkpt><trkpt lat="36.5278182" lon="8.746163"><ele>146.0</ele><time>2026-05-02T08:42:15.634Z</time></trkpt><trkpt lat="36.5278994" lon="8.7461334"><ele>146.0</ele><time>2026-05-02T08:42:17.632Z</time></trkpt><trkpt lat="36.5279695" lon="8.7461043"><ele>146.0</ele><time>2026-05-02T08:42:19.636Z</time></trkpt><trkpt lat="36.5280213" lon="8.7460469"><ele>146.25</ele><time>2026-05-02T08:42:21.658Z</time></trkpt><trkpt lat="36.5280807" lon="8.7459485"><ele>146.5</ele><time>2026-05-02T08:42:23.649Z</time></trkpt><trkpt lat="36.5281609" lon="8.745808"><ele>146.75</ele><time>2026-05-02T08:42:25.638Z</time></trkpt><trkpt lat="36.5282344" lon="8.7457168"><ele>147.0</ele><time>2026-05-02T08:42:26.632Z</time></trkpt><trkpt lat="36.5283237" lon="8.7456089"><ele>147.0</ele><time>2026-05-02T08:42:27.645Z</time></trkpt><trkpt lat="36.5284276" lon="8.7454958"><ele>147.0</ele><time>2026-05-02T08:42:28.63Z</time></trkpt><trkpt lat="36.5285371" lon="8.7453813"><ele>147.0</ele><time>2026-05-02T08:42:29.64Z</time></trkpt><trkpt lat="36.5286646" lon="8.7452578"><ele>147.0</ele><time>2026-05-02T08:42:30.67Z</time></trkpt><trkpt lat="36.5287939" lon="8.745118"><ele>146.33333333333334</ele><time>2026-05-02T08:42:31.636Z</time></trkpt><trkpt lat="36.5289273" lon="8.7449735"><ele>145.66666666666669</ele><time>2026-05-02T08:42:32.633Z</time></trkpt><trkpt lat="36.5290657" lon="8.7448254"><ele>145.0</ele><time>2026-05-02T08:42:33.634Z</time></trkpt><trkpt lat="36.5292025" lon="8.7446862"><ele>145.0</ele><time>2026-05-02T08:42:34.648Z</time></trkpt><trkpt lat="36.5294671" lon="8.7444163"><ele>145.0</ele><time>2026-05-02T08:42:36.645Z</time></trkpt><trkpt lat="36.5295983" lon="8.7442803"><ele>145.66666666666669</ele><time>2026-05-02T08:42:37.631Z</time></trkpt><trkpt lat="36.5297225" lon="8.7441459"><ele>146.33333333333334</ele><time>2026-05-02T08:42:38.622Z</time></trkpt><trkpt lat="36.5298548" lon="8.7440056"><ele>147.0</ele><time>2026-05-02T08:42:39.629Z</time></trkpt><trkpt lat="36.5299882" lon="8.743869"><ele>147.0</ele><time>2026-05-02T08:42:40.637Z</time></trkpt><trkpt lat="36.5301189" lon="8.7437435"><ele>147.0</ele><time>2026-05-02T08:42:41.639Z</time></trkpt><trkpt lat="36.5302435" lon="8.7436209"><ele>147.0</ele><time>2026-05-02T08:42:42.646Z</time></trkpt><trkpt lat="36.5303629" lon="8.7434985"><ele>147.33333333333334</ele><time>2026-05-02T08:42:43.639Z</time></trkpt><trkpt lat="36.53049" lon="8.743379"><ele>147.66666666666669</ele><time>2026-05-02T08:42:44.643Z</time></trkpt><trkpt lat="36.5306156" lon="8.7432588"><ele>148.0</ele><time>2026-05-02T08:42:45.644Z</time></trkpt><trkpt lat="36.5307423" lon="8.7431456"><ele>148.0</ele><time>2026-05-02T08:42:46.65Z</time></trkpt><trkpt lat="36.5308749" lon="8.7430345"><ele>148.0</ele><time>2026-05-02T08:42:47.646Z</time></trkpt><trkpt lat="36.5310063" lon="8.7429268"><ele>148.0</ele><time>2026-05-02T08:42:48.642Z</time></trkpt><trkpt lat="36.531143" lon="8.7428206"><ele>148.33333333333334</ele><time>2026-05-02T08:42:49.669Z</time></trkpt><trkpt lat="36.5312814" lon="8.7427216"><ele>148.66666666666666</ele><time>2026-05-02T08:42:50.649Z</time></trkpt><trkpt lat="36.5314249" lon="8.7426221"><ele>149.0</ele><time>2026-05-02T08:42:51.646Z</time></trkpt><trkpt lat="36.5315752" lon="8.7425263"><ele>149.0</ele><time>2026-05-02T08:42:52.644Z</time></trkpt><trkpt lat="36.5317187" lon="8.7424319"><ele>149.0</ele><time>2026-05-02T08:42:53.634Z</time></trkpt><trkpt lat="36.5318639" lon="8.7423398"><ele>149.0</ele><time>2026-05-02T08:42:54.633Z</time></trkpt><trkpt lat="36.5320055" lon="8.742251"><ele>149.0</ele><time>2026-05-02T08:42:55.632Z</time></trkpt><trkpt lat="36.5321446" lon="8.7421678"><ele>149.0</ele><time>2026-05-02T08:42:56.659Z</time></trkpt><trkpt lat="36.5322783" lon="8.7420902"><ele>149.0</ele><time>2026-05-02T08:42:57.675Z</time></trkpt><trkpt lat="36.532414" lon="8.7420224"><ele>149.0</ele><time>2026-05-02T08:42:58.658Z</time></trkpt><trkpt lat="36.5325481" lon="8.7419616"><ele>149.0</ele><time>2026-05-02T08:42:59.666Z</time></trkpt><trkpt lat="36.5326791" lon="8.7419033"><ele>149.0</ele><time>2026-05-02T08:43:00.657Z</time></trkpt><trkpt lat="36.532808" lon="8.7418465"><ele>149.0</ele><time>2026-05-02T08:43:01.644Z</time></trkpt><trkpt lat="36.5329353" lon="8.7417939"><ele>149.0</ele><time>2026-05-02T08:43:02.646Z</time></trkpt><trkpt lat="36.533063" lon="8.7417447"><ele>150.0</ele><time>2026-05-02T08:43:03.682Z</time></trkpt><trkpt lat="36.5331891" lon="8.7416933"><ele>151.0</ele><time>2026-05-02T08:43:04.647Z</time></trkpt><trkpt lat="36.5333218" lon="8.7416379"><ele>152.0</ele><time>2026-05-02T08:43:05.659Z</time></trkpt><trkpt lat="36.5334578" lon="8.7415834"><ele>153.0</ele><time>2026-05-02T08:43:06.628Z</time></trkpt><trkpt lat="36.5336015" lon="8.7415301"><ele>152.5</ele><time>2026-05-02T08:43:07.623Z</time></trkpt><trkpt lat="36.5337426" lon="8.7414768"><ele>152.0</ele><time>2026-05-02T08:43:08.626Z</time></trkpt><trkpt lat="36.5338813" lon="8.741428"><ele>151.5</ele><time>2026-05-02T08:43:09.645Z</time></trkpt><trkpt lat="36.5340232" lon="8.7413722"><ele>151.0</ele><time>2026-05-02T08:43:10.638Z</time></trkpt><trkpt lat="36.5341704" lon="8.7413218"><ele>151.0</ele><time>2026-05-02T08:43:11.643Z</time></trkpt><trkpt lat="36.5343139" lon="8.7412689"><ele>151.0</ele><time>2026-05-02T08:43:12.632Z</time></trkpt><trkpt lat="36.5344565" lon="8.741218"><ele>151.0</ele><time>2026-05-02T08:43:13.626Z</time></trkpt><trkpt lat="36.5346057" lon="8.741167"><ele>151.0</ele><time>2026-05-02T08:43:14.638Z</time></trkpt><trkpt lat="36.534751" lon="8.7411253"><ele>151.0</ele><time>2026-05-02T08:43:15.66Z</time></trkpt><trkpt lat="36.5348949" lon="8.7410877"><ele>151.0</ele><time>2026-05-02T08:43:16.635Z</time></trkpt><trkpt lat="36.5350361" lon="8.7410479"><ele>151.0</ele><time>2026-05-02T08:43:17.654Z</time></trkpt><trkpt lat="36.5351758" lon="8.7410026"><ele>151.0</ele><time>2026-05-02T08:43:18.634Z</time></trkpt><trkpt lat="36.5353243" lon="8.7409592"><ele>151.0</ele><time>2026-05-02T08:43:19.649Z</time></trkpt><trkpt lat="36.5354669" lon="8.7409144"><ele>151.0</ele><time>2026-05-02T08:43:20.647Z</time></trkpt><trkpt lat="36.5356199" lon="8.7408676"><ele>151.0</ele><time>2026-05-02T08:43:21.63Z</time></trkpt><trkpt lat="36.5357715" lon="8.7408233"><ele>151.0</ele><time>2026-05-02T08:43:22.645Z</time></trkpt><trkpt lat="36.5359318" lon="8.7407747"><ele>151.0</ele><time>2026-05-02T08:43:23.629Z</time></trkpt><trkpt lat="36.5360891" lon="8.740719"><ele>150.66666666666669</ele><time>2026-05-02T08:43:24.647Z</time></trkpt><trkpt lat="36.5362426" lon="8.7406626"><ele>150.33333333333334</ele><time>2026-05-02T08:43:25.647Z</time></trkpt><trkpt lat="36.5363938" lon="8.7406114"><ele>150.0</ele><time>2026-05-02T08:43:26.637Z</time></trkpt><trkpt lat="36.5365453" lon="8.7405625"><ele>150.0</ele><time>2026-05-02T08:43:27.652Z</time></trkpt><trkpt lat="36.536697" lon="8.7405063"><ele>150.0</ele><time>2026-05-02T08:43:28.639Z</time></trkpt><trkpt lat="36.5368497" lon="8.7404475"><ele>150.0</ele><time>2026-05-02T08:43:29.625Z</time></trkpt><trkpt lat="36.5370045" lon="8.7403887"><ele>150.0</ele><time>2026-05-02T08:43:30.63Z</time></trkpt><trkpt lat="36.537154" lon="8.7403178"><ele>150.0</ele><time>2026-05-02T08:43:31.644Z</time></trkpt><trkpt lat="36.5373019" lon="8.7402411"><ele>150.0</ele><time>2026-05-02T08:43:32.636Z</time></trkpt><trkpt lat="36.537449" lon="8.7401538"><ele>151.33333333333334</ele><time>2026-05-02T08:43:33.659Z</time></trkpt><trkpt lat="36.5375957" lon="8.7400605"><ele>152.66666666666669</ele><time>2026-05-02T08:43:34.643Z</time></trkpt><trkpt lat="36.5377388" lon="8.7399533"><ele>154.0</ele><time>2026-05-02T08:43:35.643Z</time></trkpt><trkpt lat="36.5378748" lon="8.7398478"><ele>154.0</ele><time>2026-05-02T08:43:36.631Z</time></trkpt><trkpt lat="36.5380049" lon="8.7397368"><ele>154.0</ele><time>2026-05-02T08:43:37.63Z</time></trkpt><trkpt lat="36.5381369" lon="8.7396236"><ele>154.0</ele><time>2026-05-02T08:43:38.623Z</time></trkpt><trkpt lat="36.5382714" lon="8.7395109"><ele>154.0</ele><time>2026-05-02T08:43:39.637Z</time></trkpt><trkpt lat="36.5384019" lon="8.739397"><ele>154.0</ele><time>2026-05-02T08:43:40.632Z</time></trkpt><trkpt lat="36.538533" lon="8.7392882"><ele>154.0</ele><time>2026-05-02T08:43:41.649Z</time></trkpt><trkpt lat="36.538664" lon="8.7391764"><ele>155.66666666666669</ele><time>2026-05-02T08:43:42.643Z</time></trkpt><trkpt lat="36.5387963" lon="8.7390667"><ele>157.33333333333334</ele><time>2026-05-02T08:43:43.65Z</time></trkpt><trkpt lat="36.5389217" lon="8.7389618"><ele>159.0</ele><time>2026-05-02T08:43:44.647Z</time></trkpt><trkpt lat="36.5390527" lon="8.7388505"><ele>159.0</ele><time>2026-05-02T08:43:45.637Z</time></trkpt><trkpt lat="36.5391771" lon="8.7387408"><ele>159.0</ele><time>2026-05-02T08:43:46.637Z</time></trkpt><trkpt lat="36.5392942" lon="8.7386334"><ele>159.0</ele><time>2026-05-02T08:43:47.634Z</time></trkpt><trkpt lat="36.5394093" lon="8.73853"><ele>159.0</ele><time>2026-05-02T08:43:48.642Z</time></trkpt><trkpt lat="36.5395098" lon="8.738433"><ele>158.8</ele><time>2026-05-02T08:43:49.635Z</time></trkpt><trkpt lat="36.5396028" lon="8.7383402"><ele>158.60000000000002</ele><time>2026-05-02T08:43:50.631Z</time></trkpt><trkpt lat="36.5396954" lon="8.7382582"><ele>158.4</ele><time>2026-05-02T08:43:51.632Z</time></trkpt><trkpt lat="36.539784" lon="8.7381858"><ele>158.20000000000002</ele><time>2026-05-02T08:43:52.648Z</time></trkpt><trkpt lat="36.5398718" lon="8.738118"><ele>158.0</ele><time>2026-05-02T08:43:53.646Z</time></trkpt><trkpt lat="36.5399483" lon="8.7380611"><ele>158.0</ele><time>2026-05-02T08:43:54.634Z</time></trkpt><trkpt lat="36.5400235" lon="8.7380142"><ele>158.0</ele><time>2026-05-02T08:43:55.636Z</time></trkpt><trkpt lat="36.5400983" lon="8.7379802"><ele>158.0</ele><time>2026-05-02T08:43:56.633Z</time></trkpt><trkpt lat="36.5401731" lon="8.7379692"><ele>158.0</ele><time>2026-05-02T08:43:57.638Z</time></trkpt><trkpt lat="36.5402878" lon="8.737923"><ele>158.0</ele><time>2026-05-02T08:43:59.635Z</time></trkpt><trkpt lat="36.5403388" lon="8.7378571"><ele>158.0</ele><time>2026-05-02T08:44:00.637Z</time></trkpt><trkpt lat="36.540382" lon="8.7377676"><ele>157.4</ele><time>2026-05-02T08:44:01.632Z</time></trkpt><trkpt lat="36.5404284" lon="8.7376699"><ele>156.8</ele><time>2026-05-02T08:44:02.646Z</time></trkpt><trkpt lat="36.5404957" lon="8.7375634"><ele>156.2</ele><time>2026-05-02T08:44:03.643Z</time></trkpt><trkpt lat="36.5405677" lon="8.737458"><ele>155.6</ele><time>2026-05-02T08:44:04.645Z</time></trkpt><trkpt lat="36.5406483" lon="8.7373474"><ele>155.0</ele><time>2026-05-02T08:44:05.65Z</time></trkpt><trkpt lat="36.5407224" lon="8.7372268"><ele>155.0</ele><time>2026-05-02T08:44:06.644Z</time></trkpt><trkpt lat="36.5407971" lon="8.7371047"><ele>155.0</ele><time>2026-05-02T08:44:07.63Z</time></trkpt><trkpt lat="36.54087" lon="8.7369856"><ele>155.0</ele><time>2026-05-02T08:44:08.644Z</time></trkpt><trkpt lat="36.5409433" lon="8.736862"><ele>155.0</ele><time>2026-05-02T08:44:09.649Z</time></trkpt><trkpt lat="36.541023" lon="8.7367177"><ele>155.0</ele><time>2026-05-02T08:44:10.644Z</time></trkpt><trkpt lat="36.5411077" lon="8.736562"><ele>155.0</ele><time>2026-05-02T08:44:11.642Z</time></trkpt><trkpt lat="36.5412045" lon="8.7363889"><ele>155.0</ele><time>2026-05-02T08:44:12.629Z</time></trkpt><trkpt lat="36.5413082" lon="8.7361985"><ele>155.66666666666666</ele><time>2026-05-02T08:44:13.649Z</time></trkpt><trkpt lat="36.5414114" lon="8.736001"><ele>156.33333333333334</ele><time>2026-05-02T08:44:14.638Z</time></trkpt><trkpt lat="36.5415108" lon="8.7358084"><ele>157.0</ele><time>2026-05-02T08:44:15.637Z</time></trkpt><trkpt lat="36.5416122" lon="8.7356103"><ele>157.0</ele><time>2026-05-02T08:44:16.656Z</time></trkpt><trkpt lat="36.541723" lon="8.7354076"><ele>157.0</ele><time>2026-05-02T08:44:17.638Z</time></trkpt><trkpt lat="36.5418312" lon="8.7352069"><ele>157.0</ele><time>2026-05-02T08:44:18.645Z</time></trkpt><trkpt lat="36.5419395" lon="8.7349996"><ele>158.0</ele><time>2026-05-02T08:44:19.646Z</time></trkpt><trkpt lat="36.5420483" lon="8.7347883"><ele>159.0</ele><time>2026-05-02T08:44:20.649Z</time></trkpt><trkpt lat="36.5421539" lon="8.7345857"><ele>160.0</ele><time>2026-05-02T08:44:21.655Z</time></trkpt><trkpt lat="36.5422619" lon="8.7343946"><ele>161.0</ele><time>2026-05-02T08:44:22.637Z</time></trkpt><trkpt lat="36.5423641" lon="8.7342128"><ele>162.0</ele><time>2026-05-02T08:44:23.642Z</time></trkpt><trkpt lat="36.5424614" lon="8.7340239"><ele>163.0</ele><time>2026-05-02T08:44:24.644Z</time></trkpt><trkpt lat="36.5425557" lon="8.7338346"><ele>163.0</ele><time>2026-05-02T08:44:25.646Z</time></trkpt><trkpt lat="36.542654" lon="8.7336427"><ele>163.0</ele><time>2026-05-02T08:44:26.643Z</time></trkpt><trkpt lat="36.5427547" lon="8.7334454"><ele>163.0</ele><time>2026-05-02T08:44:27.634Z</time></trkpt><trkpt lat="36.5428557" lon="8.7332465"><ele>162.66666666666669</ele><time>2026-05-02T08:44:28.64Z</time></trkpt><trkpt lat="36.5429552" lon="8.733049"><ele>162.33333333333334</ele><time>2026-05-02T08:44:29.633Z</time></trkpt><trkpt lat="36.5430544" lon="8.7328599"><ele>162.0</ele><time>2026-05-02T08:44:30.651Z</time></trkpt><trkpt lat="36.5431604" lon="8.7326721"><ele>162.0</ele><time>2026-05-02T08:44:31.636Z</time></trkpt><trkpt lat="36.5432638" lon="8.732484"><ele>162.0</ele><time>2026-05-02T08:44:32.625Z</time></trkpt><trkpt lat="36.5433769" lon="8.7322849"><ele>162.0</ele><time>2026-05-02T08:44:33.64Z</time></trkpt><trkpt lat="36.5435077" lon="8.7320511"><ele>162.5</ele><time>2026-05-02T08:44:34.643Z</time></trkpt><trkpt lat="36.5436444" lon="8.73179"><ele>163.0</ele><time>2026-05-02T08:44:35.654Z</time></trkpt><trkpt lat="36.5437711" lon="8.7315408"><ele>163.0</ele><time>2026-05-02T08:44:36.654Z</time></trkpt><trkpt lat="36.54389" lon="8.7313238"><ele>163.0</ele><time>2026-05-02T08:44:37.641Z</time></trkpt><trkpt lat="36.5440054" lon="8.7311195"><ele>163.0</ele><time>2026-05-02T08:44:38.641Z</time></trkpt><trkpt lat="36.5441191" lon="8.7309073"><ele>162.66666666666669</ele><time>2026-05-02T08:44:39.65Z</time></trkpt><trkpt lat="36.5442328" lon="8.7306851"><ele>162.33333333333334</ele><time>2026-05-02T08:44:40.644Z</time></trkpt><trkpt lat="36.5443486" lon="8.7304755"><ele>162.0</ele><time>2026-05-02T08:44:41.652Z</time></trkpt><trkpt lat="36.5444583" lon="8.7302601"><ele>163.0</ele><time>2026-05-02T08:44:42.646Z</time></trkpt><trkpt lat="36.5445691" lon="8.7300513"><ele>164.0</ele><time>2026-05-02T08:44:43.661Z</time></trkpt><trkpt lat="36.5446805" lon="8.7298412"><ele>165.0</ele><time>2026-05-02T08:44:44.641Z</time></trkpt><trkpt lat="36.5447896" lon="8.7296347"><ele>165.0</ele><time>2026-05-02T08:44:45.641Z</time></trkpt><trkpt lat="36.5448965" lon="8.7294342"><ele>165.0</ele><time>2026-05-02T08:44:46.636Z</time></trkpt><trkpt lat="36.5450063" lon="8.7292253"><ele>165.0</ele><time>2026-05-02T08:44:47.644Z</time></trkpt><trkpt lat="36.5451159" lon="8.7290232"><ele>165.33333333333334</ele><time>2026-05-02T08:44:48.639Z</time></trkpt><trkpt lat="36.5452248" lon="8.7288145"><ele>165.66666666666669</ele><time>2026-05-02T08:44:49.644Z</time></trkpt><trkpt lat="36.54533" lon="8.7286056"><ele>166.0</ele><time>2026-05-02T08:44:50.64Z</time></trkpt><trkpt lat="36.5454338" lon="8.7284028"><ele>166.66666666666669</ele><time>2026-05-02T08:44:51.64Z</time></trkpt><trkpt lat="36.5455354" lon="8.728205"><ele>167.33333333333334</ele><time>2026-05-02T08:44:52.629Z</time></trkpt><trkpt lat="36.5456421" lon="8.7280017"><ele>168.0</ele><time>2026-05-02T08:44:53.643Z</time></trkpt><trkpt lat="36.5457495" lon="8.7277981"><ele>168.33333333333334</ele><time>2026-05-02T08:44:54.644Z</time></trkpt><trkpt lat="36.5458504" lon="8.7276014"><ele>168.66666666666669</ele><time>2026-05-02T08:44:55.635Z</time></trkpt><trkpt lat="36.5459575" lon="8.7274014"><ele>169.0</ele><time>2026-05-02T08:44:56.637Z</time></trkpt><trkpt lat="36.5460656" lon="8.7272051"><ele>169.0</ele><time>2026-05-02T08:44:57.633Z</time></trkpt><trkpt lat="36.5461687" lon="8.7270072"><ele>169.0</ele><time>2026-05-02T08:44:58.634Z</time></trkpt><trkpt lat="36.5462719" lon="8.7268079"><ele>169.0</ele><time>2026-05-02T08:44:59.641Z</time></trkpt><trkpt lat="36.5463757" lon="8.7266167"><ele>169.0</ele><time>2026-05-02T08:45:00.64Z</time></trkpt><trkpt lat="36.5464792" lon="8.7264183"><ele>169.0</ele><time>2026-05-02T08:45:01.634Z</time></trkpt><trkpt lat="36.5465823" lon="8.7262213"><ele>169.0</ele><time>2026-05-02T08:45:02.629Z</time></trkpt><trkpt lat="36.546682" lon="8.7260283"><ele>168.66666666666669</ele><time>2026-05-02T08:45:03.646Z</time></trkpt><trkpt lat="36.5467805" lon="8.72584"><ele>168.33333333333334</ele><time>2026-05-02T08:45:04.647Z</time></trkpt><trkpt lat="36.5468765" lon="8.7256631"><ele>168.0</ele><time>2026-05-02T08:45:05.634Z</time></trkpt><trkpt lat="36.5469715" lon="8.7254838"><ele>168.33333333333334</ele><time>2026-05-02T08:45:06.641Z</time></trkpt><trkpt lat="36.547067" lon="8.7253005"><ele>168.66666666666669</ele><time>2026-05-02T08:45:07.643Z</time></trkpt><trkpt lat="36.547164" lon="8.7251176"><ele>169.0</ele><time>2026-05-02T08:45:08.643Z</time></trkpt><trkpt lat="36.5472627" lon="8.7249291"><ele>169.33333333333334</ele><time>2026-05-02T08:45:09.644Z</time></trkpt><trkpt lat="36.5473654" lon="8.7247358"><ele>169.66666666666666</ele><time>2026-05-02T08:45:10.645Z</time></trkpt><trkpt lat="36.5474711" lon="8.7245443"><ele>170.0</ele><time>2026-05-02T08:45:11.645Z</time></trkpt><trkpt lat="36.5475782" lon="8.7243467"><ele>170.0</ele><time>2026-05-02T08:45:12.639Z</time></trkpt><trkpt lat="36.547685" lon="8.7241466"><ele>170.0</ele><time>2026-05-02T08:45:13.655Z</time></trkpt><trkpt lat="36.5477925" lon="8.7239457"><ele>170.0</ele><time>2026-05-02T08:45:14.645Z</time></trkpt><trkpt lat="36.5478986" lon="8.7237424"><ele>170.66666666666666</ele><time>2026-05-02T08:45:15.646Z</time></trkpt><trkpt lat="36.5480053" lon="8.7235364"><ele>171.33333333333334</ele><time>2026-05-02T08:45:16.639Z</time></trkpt><trkpt lat="36.5481105" lon="8.7233251"><ele>172.0</ele><time>2026-05-02T08:45:17.654Z</time></trkpt><trkpt lat="36.5482102" lon="8.7231035"><ele>172.0</ele><time>2026-05-02T08:45:18.634Z</time></trkpt><trkpt lat="36.5482942" lon="8.7228437"><ele>172.0</ele><time>2026-05-02T08:45:19.654Z</time></trkpt><trkpt lat="36.5483743" lon="8.7225765"><ele>172.0</ele><time>2026-05-02T08:45:20.629Z</time></trkpt><trkpt lat="36.5484436" lon="8.7223053"><ele>172.0</ele><time>2026-05-02T08:45:21.631Z</time></trkpt><trkpt lat="36.5485073" lon="8.7220431"><ele>172.0</ele><time>2026-05-02T08:45:22.633Z</time></trkpt><trkpt lat="36.5485664" lon="8.7217891"><ele>172.0</ele><time>2026-05-02T08:45:23.644Z</time></trkpt><trkpt lat="36.5486178" lon="8.7215397"><ele>172.0</ele><time>2026-05-02T08:45:24.644Z</time></trkpt><trkpt lat="36.548664" lon="8.7213019"><ele>172.0</ele><time>2026-05-02T08:45:25.633Z</time></trkpt><trkpt lat="36.5487014" lon="8.7210662"><ele>174.0</ele><time>2026-05-02T08:45:26.642Z</time></trkpt><trkpt lat="36.5487295" lon="8.7208273"><ele>176.0</ele><time>2026-05-02T08:45:27.643Z</time></trkpt><trkpt lat="36.5487467" lon="8.7205853"><ele>178.0</ele><time>2026-05-02T08:45:28.645Z</time></trkpt><trkpt lat="36.5487593" lon="8.7203504"><ele>179.0</ele><time>2026-05-02T08:45:29.654Z</time></trkpt><trkpt lat="36.5487729" lon="8.7201204"><ele>180.0</ele><time>2026-05-02T08:45:30.643Z</time></trkpt><trkpt lat="36.5487912" lon="8.7198805"><ele>181.0</ele><time>2026-05-02T08:45:31.633Z</time></trkpt><trkpt lat="36.5488254" lon="8.7196408"><ele>181.0</ele><time>2026-05-02T08:45:32.641Z</time></trkpt><trkpt lat="36.5488686" lon="8.7194034"><ele>181.0</ele><time>2026-05-02T08:45:33.627Z</time></trkpt><trkpt lat="36.5489313" lon="8.7191667"><ele>181.0</ele><time>2026-05-02T08:45:34.626Z</time></trkpt><trkpt lat="36.5490012" lon="8.7189385"><ele>181.0</ele><time>2026-05-02T08:45:35.635Z</time></trkpt><trkpt lat="36.5490808" lon="8.7187145"><ele>181.0</ele><time>2026-05-02T08:45:36.635Z</time></trkpt><trkpt lat="36.549259" lon="8.7182907"><ele>181.0</ele><time>2026-05-02T08:45:38.629Z</time></trkpt><trkpt lat="36.5493522" lon="8.7181021"><ele>181.0</ele><time>2026-05-02T08:45:39.626Z</time></trkpt><trkpt lat="36.549445" lon="8.7179337"><ele>181.0</ele><time>2026-05-02T08:45:40.647Z</time></trkpt><trkpt lat="36.5495298" lon="8.7177935"><ele>181.5</ele><time>2026-05-02T08:45:41.646Z</time></trkpt><trkpt lat="36.5496132" lon="8.7176675"><ele>182.0</ele><time>2026-05-02T08:45:42.634Z</time></trkpt><trkpt lat="36.5496951" lon="8.7175556"><ele>182.5</ele><time>2026-05-02T08:45:43.645Z</time></trkpt><trkpt lat="36.5497693" lon="8.7174568"><ele>183.0</ele><time>2026-05-02T08:45:44.627Z</time></trkpt><trkpt lat="36.5498375" lon="8.7173751"><ele>183.0</ele><time>2026-05-02T08:45:45.644Z</time></trkpt><trkpt lat="36.549897" lon="8.7172943"><ele>183.0</ele><time>2026-05-02T08:45:46.645Z</time></trkpt><trkpt lat="36.5499593" lon="8.7172117"><ele>183.0</ele><time>2026-05-02T08:45:47.642Z</time></trkpt><trkpt lat="36.5500222" lon="8.7171257"><ele>183.0</ele><time>2026-05-02T08:45:48.628Z</time></trkpt><trkpt lat="36.5500882" lon="8.7170426"><ele>183.0</ele><time>2026-05-02T08:45:49.631Z</time></trkpt><trkpt lat="36.5501577" lon="8.7169503"><ele>183.0</ele><time>2026-05-02T08:45:50.634Z</time></trkpt><trkpt lat="36.5502311" lon="8.7168581"><ele>183.0</ele><time>2026-05-02T08:45:51.642Z</time></trkpt><trkpt lat="36.5503031" lon="8.7167642"><ele>183.0</ele><time>2026-05-02T08:45:52.641Z</time></trkpt><trkpt lat="36.5503861" lon="8.7166709"><ele>183.0</ele><time>2026-05-02T08:45:53.63Z</time></trkpt><trkpt lat="36.5504736" lon="8.7165567"><ele>183.0</ele><time>2026-05-02T08:45:54.64Z</time></trkpt><trkpt lat="36.5505645" lon="8.7164381"><ele>183.75</ele><time>2026-05-02T08:45:55.645Z</time></trkpt><trkpt lat="36.5506578" lon="8.7163047"><ele>184.5</ele><time>2026-05-02T08:45:56.646Z</time></trkpt><trkpt lat="36.5507523" lon="8.7161837"><ele>185.25</ele><time>2026-05-02T08:45:57.634Z</time></trkpt><trkpt lat="36.5508522" lon="8.7160592"><ele>186.0</ele><time>2026-05-02T08:45:58.627Z</time></trkpt><trkpt lat="36.550947" lon="8.7159152"><ele>186.0</ele><time>2026-05-02T08:45:59.647Z</time></trkpt><trkpt lat="36.551043" lon="8.7157737"><ele>186.0</ele><time>2026-05-02T08:46:00.631Z</time></trkpt><trkpt lat="36.5511365" lon="8.7156458"><ele>186.0</ele><time>2026-05-02T08:46:01.642Z</time></trkpt><trkpt lat="36.5512301" lon="8.7155202"><ele>186.0</ele><time>2026-05-02T08:46:02.637Z</time></trkpt><trkpt lat="36.551325" lon="8.7153981"><ele>186.66666666666666</ele><time>2026-05-02T08:46:03.646Z</time></trkpt><trkpt lat="36.5514454" lon="8.715243"><ele>187.33333333333331</ele><time>2026-05-02T08:46:04.636Z</time></trkpt><trkpt lat="36.5515961" lon="8.7150536"><ele>188.0</ele><time>2026-05-02T08:46:05.644Z</time></trkpt><trkpt lat="36.551768" lon="8.7148433"><ele>188.0</ele><time>2026-05-02T08:46:06.655Z</time></trkpt><trkpt lat="36.5519522" lon="8.7146418"><ele>188.0</ele><time>2026-05-02T08:46:07.638Z</time></trkpt><trkpt lat="36.5520999" lon="8.7144597"><ele>189.0</ele><time>2026-05-02T08:46:08.644Z</time></trkpt><trkpt lat="36.5522435" lon="8.7142837"><ele>190.0</ele><time>2026-05-02T08:46:09.635Z</time></trkpt><trkpt lat="36.5523708" lon="8.7141106"><ele>191.0</ele><time>2026-05-02T08:46:10.63Z</time></trkpt><trkpt lat="36.5525054" lon="8.7139372"><ele>191.0</ele><time>2026-05-02T08:46:11.65Z</time></trkpt><trkpt lat="36.5526267" lon="8.7137861"><ele>191.0</ele><time>2026-05-02T08:46:12.642Z</time></trkpt><trkpt lat="36.5527381" lon="8.7136441"><ele>191.0</ele><time>2026-05-02T08:46:13.643Z</time></trkpt><trkpt lat="36.5528346" lon="8.7135179"><ele>192.25</ele><time>2026-05-02T08:46:14.645Z</time></trkpt><trkpt lat="36.5529279" lon="8.7134052"><ele>193.5</ele><time>2026-05-02T08:46:15.644Z</time></trkpt><trkpt lat="36.5530187" lon="8.7132857"><ele>194.75</ele><time>2026-05-02T08:46:16.64Z</time></trkpt><trkpt lat="36.5531134" lon="8.7131504"><ele>196.0</ele><time>2026-05-02T08:46:17.639Z</time></trkpt><trkpt lat="36.5532284" lon="8.7129978"><ele>196.0</ele><time>2026-05-02T08:46:18.655Z</time></trkpt><trkpt lat="36.5533539" lon="8.7128167"><ele>196.0</ele><time>2026-05-02T08:46:19.641Z</time></trkpt><trkpt lat="36.5534964" lon="8.7126291"><ele>196.0</ele><time>2026-05-02T08:46:20.636Z</time></trkpt><trkpt lat="36.5536372" lon="8.7124582"><ele>198.33333333333331</ele><time>2026-05-02T08:46:21.633Z</time></trkpt><trkpt lat="36.5537645" lon="8.7122987"><ele>200.66666666666669</ele><time>2026-05-02T08:46:22.647Z</time></trkpt><trkpt lat="36.5538766" lon="8.7121589"><ele>203.0</ele><time>2026-05-02T08:46:23.637Z</time></trkpt><trkpt lat="36.5539751" lon="8.7120362"><ele>203.0</ele><time>2026-05-02T08:46:24.632Z</time></trkpt><trkpt lat="36.5540573" lon="8.7119257"><ele>203.0</ele><time>2026-05-02T08:46:25.64Z</time></trkpt><trkpt lat="36.5541228" lon="8.7118474"><ele>203.0</ele><time>2026-05-02T08:46:26.638Z</time></trkpt><trkpt lat="36.5541805" lon="8.7117681"><ele>203.0</ele><time>2026-05-02T08:46:27.648Z</time></trkpt><trkpt lat="36.5542374" lon="8.7116969"><ele>203.0</ele><time>2026-05-02T08:46:28.64Z</time></trkpt><trkpt lat="36.5542929" lon="8.7116306"><ele>203.16666666666669</ele><time>2026-05-02T08:46:30.633Z</time></trkpt><trkpt lat="36.5543379" lon="8.7115694"><ele>203.33333333333334</ele><time>2026-05-02T08:46:32.636Z</time></trkpt><trkpt lat="36.5544085" lon="8.7114901"><ele>203.5</ele><time>2026-05-02T08:46:34.64Z</time></trkpt><trkpt lat="36.5544667" lon="8.7114166"><ele>203.66666666666669</ele><time>2026-05-02T08:46:36.643Z</time></trkpt><trkpt lat="36.5545284" lon="8.7113313"><ele>203.83333333333334</ele><time>2026-05-02T08:46:38.631Z</time></trkpt><trkpt lat="36.5545991" lon="8.7112505"><ele>204.0</ele><time>2026-05-02T08:46:40.642Z</time></trkpt><trkpt lat="36.5546446" lon="8.7111905"><ele>204.2</ele><time>2026-05-02T08:46:41.642Z</time></trkpt><trkpt lat="36.5547372" lon="8.7111069"><ele>204.39999999999998</ele><time>2026-05-02T08:46:43.636Z</time></trkpt><trkpt lat="36.5547948" lon="8.7110483"><ele>204.6</ele><time>2026-05-02T08:46:45.634Z</time></trkpt><trkpt lat="36.5547183" lon="8.7110586"><ele>204.8</ele><time>2026-05-02T08:46:57.642Z</time></trkpt><trkpt lat="36.5546705" lon="8.7111359"><ele>205.0</ele><time>2026-05-02T08:46:58.625Z</time></trkpt><trkpt lat="36.5545936" lon="8.711246"><ele>204.66666666666666</ele><time>2026-05-02T08:46:59.636Z</time></trkpt><trkpt lat="36.5545004" lon="8.7113777"><ele>204.33333333333331</ele><time>2026-05-02T08:47:00.643Z</time></trkpt><trkpt lat="36.5543878" lon="8.7115161"><ele>204.0</ele><time>2026-05-02T08:47:01.638Z</time></trkpt><trkpt lat="36.5542823" lon="8.7116497"><ele>204.0</ele><time>2026-05-02T08:47:02.636Z</time></trkpt><trkpt lat="36.5541815" lon="8.7117687"><ele>204.0</ele><time>2026-05-02T08:47:03.634Z</time></trkpt><trkpt lat="36.5540823" lon="8.7118896"><ele>204.0</ele><time>2026-05-02T08:47:04.636Z</time></trkpt><trkpt lat="36.5539853" lon="8.712001"><ele>204.0</ele><time>2026-05-02T08:47:05.635Z</time></trkpt><trkpt lat="36.5538809" lon="8.7121341"><ele>203.66666666666669</ele><time>2026-05-02T08:47:06.645Z</time></trkpt><trkpt lat="36.5537738" lon="8.7122764"><ele>203.33333333333334</ele><time>2026-05-02T08:47:07.644Z</time></trkpt><trkpt lat="36.5536599" lon="8.7124199"><ele>203.0</ele><time>2026-05-02T08:47:08.639Z</time></trkpt><trkpt lat="36.5535444" lon="8.7125717"><ele>201.66666666666669</ele><time>2026-05-02T08:47:09.636Z</time></trkpt><trkpt lat="36.5534255" lon="8.7127157"><ele>200.33333333333331</ele><time>2026-05-02T08:47:10.64Z</time></trkpt><trkpt lat="36.5533035" lon="8.7128623"><ele>199.0</ele><time>2026-05-02T08:47:11.638Z</time></trkpt><trkpt lat="36.5531877" lon="8.7130002"><ele>198.0</ele><time>2026-05-02T08:47:12.662Z</time></trkpt><trkpt lat="36.5530791" lon="8.713143"><ele>197.0</ele><time>2026-05-02T08:47:13.636Z</time></trkpt><trkpt lat="36.5529656" lon="8.7132841"><ele>196.0</ele><time>2026-05-02T08:47:14.642Z</time></trkpt><trkpt lat="36.5528606" lon="8.7134258"><ele>195.5</ele><time>2026-05-02T08:47:15.649Z</time></trkpt><trkpt lat="36.5527597" lon="8.7135544"><ele>195.0</ele><time>2026-05-02T08:47:16.634Z</time></trkpt><trkpt lat="36.552662" lon="8.7136796"><ele>194.5</ele><time>2026-05-02T08:47:17.637Z</time></trkpt><trkpt lat="36.5525716" lon="8.7137951"><ele>194.0</ele><time>2026-05-02T08:47:18.645Z</time></trkpt><trkpt lat="36.5524909" lon="8.7139012"><ele>193.25</ele><time>2026-05-02T08:47:19.646Z</time></trkpt><trkpt lat="36.5524079" lon="8.7140078"><ele>192.5</ele><time>2026-05-02T08:47:20.633Z</time></trkpt><trkpt lat="36.5523164" lon="8.71413"><ele>191.75</ele><time>2026-05-02T08:47:21.615Z</time></trkpt><trkpt lat="36.5522138" lon="8.7142636"><ele>191.0</ele><time>2026-05-02T08:47:22.629Z</time></trkpt><trkpt lat="36.5521063" lon="8.7144137"><ele>190.0</ele><time>2026-05-02T08:47:23.632Z</time></trkpt><trkpt lat="36.5519876" lon="8.7145687"><ele>189.0</ele><time>2026-05-02T08:47:24.62Z</time></trkpt><trkpt lat="36.5518682" lon="8.7147251"><ele>188.0</ele><time>2026-05-02T08:47:25.632Z</time></trkpt><trkpt lat="36.5517355" lon="8.7148849"><ele>188.0</ele><time>2026-05-02T08:47:26.647Z</time></trkpt><trkpt lat="36.551606" lon="8.7150422"><ele>188.0</ele><time>2026-05-02T08:47:27.634Z</time></trkpt><trkpt lat="36.5514803" lon="8.7152013"><ele>188.0</ele><time>2026-05-02T08:47:28.64Z</time></trkpt><trkpt lat="36.5513607" lon="8.715359"><ele>188.0</ele><time>2026-05-02T08:47:29.642Z</time></trkpt><trkpt lat="36.5512445" lon="8.7155066"><ele>188.0</ele><time>2026-05-02T08:47:30.638Z</time></trkpt><trkpt lat="36.5511256" lon="8.7156566"><ele>188.0</ele><time>2026-05-02T08:47:31.642Z</time></trkpt><trkpt lat="36.5510088" lon="8.7158025"><ele>187.33333333333331</ele><time>2026-05-02T08:47:32.644Z</time></trkpt><trkpt lat="36.5508978" lon="8.7159439"><ele>186.66666666666666</ele><time>2026-05-02T08:47:33.643Z</time></trkpt><trkpt lat="36.550785" lon="8.7160932"><ele>186.0</ele><time>2026-05-02T08:47:34.632Z</time></trkpt><trkpt lat="36.5506756" lon="8.7162289"><ele>186.0</ele><time>2026-05-02T08:47:35.638Z</time></trkpt><trkpt lat="36.5505798" lon="8.7163606"><ele>186.0</ele><time>2026-05-02T08:47:36.64Z</time></trkpt><trkpt lat="36.550484" lon="8.716488"><ele>186.0</ele><time>2026-05-02T08:47:37.641Z</time></trkpt><trkpt lat="36.5503934" lon="8.71661"><ele>186.0</ele><time>2026-05-02T08:47:38.638Z</time></trkpt><trkpt lat="36.5503055" lon="8.7167209"><ele>185.4</ele><time>2026-05-02T08:47:39.639Z</time></trkpt><trkpt lat="36.5502175" lon="8.7168231"><ele>184.8</ele><time>2026-05-02T08:47:40.651Z</time></trkpt><trkpt lat="36.5501355" lon="8.7169197"><ele>184.20000000000002</ele><time>2026-05-02T08:47:41.657Z</time></trkpt><trkpt lat="36.5500696" lon="8.7170062"><ele>183.60000000000002</ele><time>2026-05-02T08:47:42.652Z</time></trkpt><trkpt lat="36.5500131" lon="8.7170816"><ele>183.0</ele><time>2026-05-02T08:47:43.642Z</time></trkpt><trkpt lat="36.5499675" lon="8.7171417"><ele>183.0</ele><time>2026-05-02T08:47:44.646Z</time></trkpt><trkpt lat="36.5498978" lon="8.7172398"><ele>183.0</ele><time>2026-05-02T08:47:46.642Z</time></trkpt><trkpt lat="36.5498501" lon="8.7172969"><ele>183.0</ele><time>2026-05-02T08:47:49.629Z</time></trkpt><trkpt lat="36.5498543" lon="8.717383"><ele>183.0</ele><time>2026-05-02T08:47:54.643Z</time></trkpt><trkpt lat="36.5499178" lon="8.7174099"><ele>183.0</ele><time>2026-05-02T08:56:11.634Z</time></trkpt><trkpt lat="36.5499287" lon="8.7173137"><ele>183.0</ele><time>2026-05-02T08:56:15.643Z</time></trkpt><trkpt lat="36.5499576" lon="8.7172226"><ele>183.0</ele><time>2026-05-02T08:56:17.628Z</time></trkpt><trkpt lat="36.5500557" lon="8.7170849"><ele>183.0</ele><time>2026-05-02T08:56:19.635Z</time></trkpt><trkpt lat="36.5501496" lon="8.7169682"><ele>183.0</ele><time>2026-05-02T08:56:20.628Z</time></trkpt><trkpt lat="36.5502592" lon="8.7168308"><ele>183.0</ele><time>2026-05-02T08:56:21.666Z</time></trkpt><trkpt lat="36.5503674" lon="8.7166962"><ele>183.60000000000002</ele><time>2026-05-02T08:56:22.623Z</time></trkpt><trkpt lat="36.5504498" lon="8.7165866"><ele>184.20000000000002</ele><time>2026-05-02T08:56:23.626Z</time></trkpt><trkpt lat="36.5505187" lon="8.7164937"><ele>184.8</ele><time>2026-05-02T08:56:24.632Z</time></trkpt><trkpt lat="36.5505859" lon="8.716407"><ele>185.4</ele><time>2026-05-02T08:56:25.635Z</time></trkpt><trkpt lat="36.5506619" lon="8.7163176"><ele>186.0</ele><time>2026-05-02T08:56:26.655Z</time></trkpt><trkpt lat="36.5507352" lon="8.716231"><ele>186.0</ele><time>2026-05-02T08:56:27.632Z</time></trkpt><trkpt lat="36.5508076" lon="8.7161432"><ele>186.0</ele><time>2026-05-02T08:56:28.627Z</time></trkpt><trkpt lat="36.5508798" lon="8.7160499"><ele>186.0</ele><time>2026-05-02T08:56:29.63Z</time></trkpt><trkpt lat="36.5509585" lon="8.7159438"><ele>186.0</ele><time>2026-05-02T08:56:30.631Z</time></trkpt><trkpt lat="36.5510405" lon="8.7158345"><ele>186.0</ele><time>2026-05-02T08:56:31.633Z</time></trkpt><trkpt lat="36.5511279" lon="8.7157211"><ele>186.5</ele><time>2026-05-02T08:56:32.627Z</time></trkpt><trkpt lat="36.5512141" lon="8.7156126"><ele>187.0</ele><time>2026-05-02T08:56:33.627Z</time></trkpt><trkpt lat="36.5513033" lon="8.7155043"><ele>187.5</ele><time>2026-05-02T08:56:34.641Z</time></trkpt><trkpt lat="36.5513913" lon="8.715389"><ele>188.0</ele><time>2026-05-02T08:56:35.641Z</time></trkpt><trkpt lat="36.5514762" lon="8.7152774"><ele>188.0</ele><time>2026-05-02T08:56:36.636Z</time></trkpt><trkpt lat="36.5515627" lon="8.7151754"><ele>188.0</ele><time>2026-05-02T08:56:37.658Z</time></trkpt><trkpt lat="36.5516422" lon="8.7150654"><ele>188.0</ele><time>2026-05-02T08:56:38.64Z</time></trkpt><trkpt lat="36.5517215" lon="8.714963"><ele>188.0</ele><time>2026-05-02T08:56:39.64Z</time></trkpt><trkpt lat="36.5517971" lon="8.7148634"><ele>188.0</ele><time>2026-05-02T08:56:40.639Z</time></trkpt><trkpt lat="36.551872" lon="8.7147652"><ele>188.0</ele><time>2026-05-02T08:56:41.642Z</time></trkpt><trkpt lat="36.5519527" lon="8.714668"><ele>188.0</ele><time>2026-05-02T08:56:42.645Z</time></trkpt><trkpt lat="36.5520305" lon="8.7145719"><ele>188.0</ele><time>2026-05-02T08:56:43.646Z</time></trkpt><trkpt lat="36.5521087" lon="8.7144758"><ele>188.0</ele><time>2026-05-02T08:56:44.642Z</time></trkpt><trkpt lat="36.5521879" lon="8.7143756"><ele>188.75</ele><time>2026-05-02T08:56:45.64Z</time></trkpt><trkpt lat="36.552271" lon="8.7142682"><ele>189.5</ele><time>2026-05-02T08:56:46.634Z</time></trkpt><trkpt lat="36.5523576" lon="8.7141659"><ele>190.25</ele><time>2026-05-02T08:56:47.63Z</time></trkpt><trkpt lat="36.5524408" lon="8.7140566"><ele>191.0</ele><time>2026-05-02T08:56:48.643Z</time></trkpt><trkpt lat="36.5525162" lon="8.7139536"><ele>191.0</ele><time>2026-05-02T08:56:49.631Z</time></trkpt><trkpt lat="36.5525989" lon="8.7138596"><ele>191.0</ele><time>2026-05-02T08:56:50.628Z</time></trkpt><trkpt lat="36.5526824" lon="8.7137628"><ele>191.0</ele><time>2026-05-02T08:56:51.647Z</time></trkpt><trkpt lat="36.5527666" lon="8.7136552"><ele>191.0</ele><time>2026-05-02T08:56:52.643Z</time></trkpt><trkpt lat="36.5528456" lon="8.713539"><ele>192.25</ele><time>2026-05-02T08:56:53.646Z</time></trkpt><trkpt lat="36.5529383" lon="8.7134141"><ele>193.5</ele><time>2026-05-02T08:56:54.638Z</time></trkpt><trkpt lat="36.5530377" lon="8.7132907"><ele>194.75</ele><time>2026-05-02T08:56:55.642Z</time></trkpt><trkpt lat="36.5531377" lon="8.7131708"><ele>196.0</ele><time>2026-05-02T08:56:56.649Z</time></trkpt><trkpt lat="36.5532327" lon="8.7130484"><ele>196.0</ele><time>2026-05-02T08:56:57.639Z</time></trkpt><trkpt lat="36.5533281" lon="8.7129204"><ele>196.0</ele><time>2026-05-02T08:56:58.639Z</time></trkpt><trkpt lat="36.5534263" lon="8.7127955"><ele>196.0</ele><time>2026-05-02T08:56:59.635Z</time></trkpt><trkpt lat="36.5535245" lon="8.7126684"><ele>196.0</ele><time>2026-05-02T08:57:00.64Z</time></trkpt><trkpt lat="36.5536215" lon="8.7125395"><ele>197.75</ele><time>2026-05-02T08:57:01.644Z</time></trkpt><trkpt lat="36.553719" lon="8.7124121"><ele>199.5</ele><time>2026-05-02T08:57:02.627Z</time></trkpt><trkpt lat="36.5538174" lon="8.7122808"><ele>201.25</ele><time>2026-05-02T08:57:03.641Z</time></trkpt><trkpt lat="36.5539202" lon="8.7121524"><ele>203.0</ele><time>2026-05-02T08:57:04.644Z</time></trkpt><trkpt lat="36.5540226" lon="8.7120327"><ele>203.0</ele><time>2026-05-02T08:57:05.651Z</time></trkpt><trkpt lat="36.5541212" lon="8.7119241"><ele>203.0</ele><time>2026-05-02T08:57:06.633Z</time></trkpt><trkpt lat="36.5542118" lon="8.7118167"><ele>203.0</ele><time>2026-05-02T08:57:07.641Z</time></trkpt><trkpt lat="36.5543054" lon="8.7117002"><ele>203.0</ele><time>2026-05-02T08:57:08.636Z</time></trkpt><trkpt lat="36.5544011" lon="8.7115809"><ele>203.25</ele><time>2026-05-02T08:57:09.648Z</time></trkpt><trkpt lat="36.5544936" lon="8.7114448"><ele>203.5</ele><time>2026-05-02T08:57:10.633Z</time></trkpt><trkpt lat="36.5545924" lon="8.7113063"><ele>203.75</ele><time>2026-05-02T08:57:11.637Z</time></trkpt><trkpt lat="36.5546928" lon="8.711167"><ele>204.0</ele><time>2026-05-02T08:57:12.643Z</time></trkpt><trkpt lat="36.5547952" lon="8.7110281"><ele>205.33333333333331</ele><time>2026-05-02T08:57:13.645Z</time></trkpt><trkpt lat="36.5549026" lon="8.7108898"><ele>206.66666666666666</ele><time>2026-05-02T08:57:14.637Z</time></trkpt><trkpt lat="36.5550088" lon="8.7107575"><ele>208.0</ele><time>2026-05-02T08:57:15.653Z</time></trkpt><trkpt lat="36.555116" lon="8.7106219"><ele>208.0</ele><time>2026-05-02T08:57:16.641Z</time></trkpt><trkpt lat="36.5552272" lon="8.7104842"><ele>208.0</ele><time>2026-05-02T08:57:17.633Z</time></trkpt><trkpt lat="36.5553374" lon="8.7103394"><ele>208.0</ele><time>2026-05-02T08:57:18.635Z</time></trkpt><trkpt lat="36.5554459" lon="8.7101982"><ele>210.0</ele><time>2026-05-02T08:57:19.632Z</time></trkpt><trkpt lat="36.5555532" lon="8.7100548"><ele>212.0</ele><time>2026-05-02T08:57:20.636Z</time></trkpt><trkpt lat="36.5556615" lon="8.709919"><ele>214.0</ele><time>2026-05-02T08:57:21.635Z</time></trkpt><trkpt lat="36.5557653" lon="8.7097892"><ele>214.0</ele><time>2026-05-02T08:57:22.632Z</time></trkpt><trkpt lat="36.5558777" lon="8.7096474"><ele>214.0</ele><time>2026-05-02T08:57:23.646Z</time></trkpt><trkpt lat="36.5559916" lon="8.7094983"><ele>214.0</ele><time>2026-05-02T08:57:24.638Z</time></trkpt><trkpt lat="36.5561047" lon="8.7093477"><ele>214.66666666666666</ele><time>2026-05-02T08:57:25.635Z</time></trkpt><trkpt lat="36.5562213" lon="8.7091991"><ele>215.33333333333331</ele><time>2026-05-02T08:57:26.634Z</time></trkpt><trkpt lat="36.5563393" lon="8.7090529"><ele>216.0</ele><time>2026-05-02T08:57:27.642Z</time></trkpt><trkpt lat="36.556453" lon="8.7089069"><ele>216.0</ele><time>2026-05-02T08:57:28.642Z</time></trkpt><trkpt lat="36.5565627" lon="8.7087667"><ele>216.0</ele><time>2026-05-02T08:57:29.653Z</time></trkpt><trkpt lat="36.5566765" lon="8.7086267"><ele>216.0</ele><time>2026-05-02T08:57:30.635Z</time></trkpt><trkpt lat="36.5567846" lon="8.7084903"><ele>216.33333333333331</ele><time>2026-05-02T08:57:31.636Z</time></trkpt><trkpt lat="36.5568965" lon="8.7083466"><ele>216.66666666666666</ele><time>2026-05-02T08:57:32.647Z</time></trkpt><trkpt lat="36.5570047" lon="8.7082071"><ele>217.0</ele><time>2026-05-02T08:57:33.621Z</time></trkpt><trkpt lat="36.5571125" lon="8.7080709"><ele>217.33333333333331</ele><time>2026-05-02T08:57:34.651Z</time></trkpt><trkpt lat="36.5572185" lon="8.7079319"><ele>217.66666666666669</ele><time>2026-05-02T08:57:35.649Z</time></trkpt><trkpt lat="36.5573273" lon="8.7077943"><ele>218.0</ele><time>2026-05-02T08:57:36.638Z</time></trkpt><trkpt lat="36.5574371" lon="8.7076595"><ele>218.0</ele><time>2026-05-02T08:57:37.642Z</time></trkpt><trkpt lat="36.5575432" lon="8.7075199"><ele>218.0</ele><time>2026-05-02T08:57:38.643Z</time></trkpt><trkpt lat="36.5576509" lon="8.7073795"><ele>218.0</ele><time>2026-05-02T08:57:39.653Z</time></trkpt><trkpt lat="36.5577552" lon="8.707236"><ele>218.0</ele><time>2026-05-02T08:57:40.639Z</time></trkpt><trkpt lat="36.557863" lon="8.7070945"><ele>218.0</ele><time>2026-05-02T08:57:41.633Z</time></trkpt><trkpt lat="36.5579734" lon="8.7069528"><ele>218.0</ele><time>2026-05-02T08:57:42.637Z</time></trkpt><trkpt lat="36.558086" lon="8.7068074"><ele>217.0</ele><time>2026-05-02T08:57:43.63Z</time></trkpt><trkpt lat="36.5582041" lon="8.7066688"><ele>216.0</ele><time>2026-05-02T08:57:44.635Z</time></trkpt><trkpt lat="36.558316" lon="8.7065464"><ele>215.0</ele><time>2026-05-02T08:57:45.651Z</time></trkpt><trkpt lat="36.5584419" lon="8.7064478"><ele>215.0</ele><time>2026-05-02T08:57:46.65Z</time></trkpt><trkpt lat="36.5585796" lon="8.7063691"><ele>215.0</ele><time>2026-05-02T08:57:47.637Z</time></trkpt><trkpt lat="36.5587327" lon="8.7063163"><ele>215.0</ele><time>2026-05-02T08:57:48.634Z</time></trkpt><trkpt lat="36.5588856" lon="8.7062734"><ele>215.66666666666669</ele><time>2026-05-02T08:57:49.641Z</time></trkpt><trkpt lat="36.5590391" lon="8.7062182"><ele>216.33333333333331</ele><time>2026-05-02T08:57:50.631Z</time></trkpt><trkpt lat="36.5591701" lon="8.7061296"><ele>217.0</ele><time>2026-05-02T08:57:51.637Z</time></trkpt><trkpt lat="36.559294" lon="8.7060035"><ele>215.33333333333331</ele><time>2026-05-02T08:57:52.639Z</time></trkpt><trkpt lat="36.5594035" lon="8.7058294"><ele>213.66666666666669</ele><time>2026-05-02T08:57:53.634Z</time></trkpt><trkpt lat="36.5595057" lon="8.7056362"><ele>212.0</ele><time>2026-05-02T08:57:54.648Z</time></trkpt><trkpt lat="36.5596068" lon="8.7054384"><ele>211.66666666666669</ele><time>2026-05-02T08:57:55.63Z</time></trkpt><trkpt lat="36.5597083" lon="8.7052379"><ele>211.33333333333331</ele><time>2026-05-02T08:57:56.635Z</time></trkpt><trkpt lat="36.559798" lon="8.7050281"><ele>211.0</ele><time>2026-05-02T08:57:57.638Z</time></trkpt><trkpt lat="36.5598726" lon="8.7048155"><ele>211.0</ele><time>2026-05-02T08:57:58.644Z</time></trkpt><trkpt lat="36.5599383" lon="8.7046056"><ele>211.0</ele><time>2026-05-02T08:57:59.654Z</time></trkpt><trkpt lat="36.56" lon="8.7043978"><ele>211.0</ele><time>2026-05-02T08:58:00.634Z</time></trkpt><trkpt lat="36.5600758" lon="8.7041943"><ele>210.66666666666666</ele><time>2026-05-02T08:58:01.643Z</time></trkpt><trkpt lat="36.5601549" lon="8.7040059"><ele>210.33333333333331</ele><time>2026-05-02T08:58:02.65Z</time></trkpt><trkpt lat="36.5602434" lon="8.7038281"><ele>210.0</ele><time>2026-05-02T08:58:03.66Z</time></trkpt><trkpt lat="36.5603469" lon="8.7036616"><ele>208.66666666666669</ele><time>2026-05-02T08:58:04.647Z</time></trkpt><trkpt lat="36.5604658" lon="8.7035146"><ele>207.33333333333334</ele><time>2026-05-02T08:58:05.643Z</time></trkpt><trkpt lat="36.5605903" lon="8.7033896"><ele>206.0</ele><time>2026-05-02T08:58:06.65Z</time></trkpt><trkpt lat="36.5607216" lon="8.7032725"><ele>206.0</ele><time>2026-05-02T08:58:07.627Z</time></trkpt><trkpt lat="36.5608445" lon="8.7031571"><ele>206.0</ele><time>2026-05-02T08:58:08.628Z</time></trkpt><trkpt lat="36.5609678" lon="8.7030436"><ele>206.0</ele><time>2026-05-02T08:58:09.65Z</time></trkpt><trkpt lat="36.5610932" lon="8.7029296"><ele>206.25</ele><time>2026-05-02T08:58:10.645Z</time></trkpt><trkpt lat="36.5612086" lon="8.7028229"><ele>206.5</ele><time>2026-05-02T08:58:11.634Z</time></trkpt><trkpt lat="36.5613301" lon="8.7027098"><ele>206.75</ele><time>2026-05-02T08:58:12.639Z</time></trkpt><trkpt lat="36.5614459" lon="8.7025939"><ele>207.0</ele><time>2026-05-02T08:58:13.645Z</time></trkpt><trkpt lat="36.5615576" lon="8.7024779"><ele>204.0</ele><time>2026-05-02T08:58:14.649Z</time></trkpt><trkpt lat="36.5616569" lon="8.7023401"><ele>201.0</ele><time>2026-05-02T08:58:15.638Z</time></trkpt><trkpt lat="36.561756" lon="8.7021797"><ele>198.0</ele><time>2026-05-02T08:58:16.626Z</time></trkpt><trkpt lat="36.5618465" lon="8.7020122"><ele>198.33333333333331</ele><time>2026-05-02T08:58:17.621Z</time></trkpt><trkpt lat="36.5619375" lon="8.7018423"><ele>198.66666666666666</ele><time>2026-05-02T08:58:18.639Z</time></trkpt><trkpt lat="36.5620183" lon="8.7016715"><ele>199.0</ele><time>2026-05-02T08:58:19.628Z</time></trkpt><trkpt lat="36.5620928" lon="8.7014943"><ele>199.0</ele><time>2026-05-02T08:58:20.621Z</time></trkpt><trkpt lat="36.5621783" lon="8.7013199"><ele>199.0</ele><time>2026-05-02T08:58:21.644Z</time></trkpt><trkpt lat="36.5622833" lon="8.7011501"><ele>199.0</ele><time>2026-05-02T08:58:22.643Z</time></trkpt><trkpt lat="36.5624119" lon="8.700982"><ele>197.66666666666666</ele><time>2026-05-02T08:58:23.637Z</time></trkpt><trkpt lat="36.5625629" lon="8.7008106"><ele>196.33333333333331</ele><time>2026-05-02T08:58:24.633Z</time></trkpt><trkpt lat="36.5627381" lon="8.7006452"><ele>195.0</ele><time>2026-05-02T08:58:25.636Z</time></trkpt><trkpt lat="36.5629189" lon="8.7004899"><ele>195.0</ele><time>2026-05-02T08:58:26.649Z</time></trkpt><trkpt lat="36.5630967" lon="8.7003419"><ele>195.0</ele><time>2026-05-02T08:58:27.64Z</time></trkpt><trkpt lat="36.5632678" lon="8.7001974"><ele>195.0</ele><time>2026-05-02T08:58:28.627Z</time></trkpt><trkpt lat="36.5634283" lon="8.7000601"><ele>195.0</ele><time>2026-05-02T08:58:29.635Z</time></trkpt><trkpt lat="36.5635842" lon="8.699921"><ele>195.0</ele><time>2026-05-02T08:58:30.637Z</time></trkpt><trkpt lat="36.5637345" lon="8.699792"><ele>195.0</ele><time>2026-05-02T08:58:31.65Z</time></trkpt><trkpt lat="36.563886" lon="8.6996582"><ele>194.33333333333331</ele><time>2026-05-02T08:58:32.629Z</time></trkpt><trkpt lat="36.5640334" lon="8.6995294"><ele>193.66666666666666</ele><time>2026-05-02T08:58:33.627Z</time></trkpt><trkpt lat="36.5641787" lon="8.6994069"><ele>193.0</ele><time>2026-05-02T08:58:34.637Z</time></trkpt><trkpt lat="36.5643253" lon="8.6992776"><ele>193.0</ele><time>2026-05-02T08:58:35.659Z</time></trkpt><trkpt lat="36.5644681" lon="8.6991524"><ele>193.0</ele><time>2026-05-02T08:58:36.634Z</time></trkpt><trkpt lat="36.5646074" lon="8.6990295"><ele>193.0</ele><time>2026-05-02T08:58:37.629Z</time></trkpt><trkpt lat="36.5647513" lon="8.6989202"><ele>196.0</ele><time>2026-05-02T08:58:38.612Z</time></trkpt><trkpt lat="36.5649077" lon="8.6988241"><ele>199.0</ele><time>2026-05-02T08:58:39.64Z</time></trkpt><trkpt lat="36.5650667" lon="8.6987504"><ele>202.0</ele><time>2026-05-02T08:58:40.644Z</time></trkpt><trkpt lat="36.5652429" lon="8.6986956"><ele>201.33333333333331</ele><time>2026-05-02T08:58:41.63Z</time></trkpt><trkpt lat="36.5654259" lon="8.6986545"><ele>200.66666666666669</ele><time>2026-05-02T08:58:42.644Z</time></trkpt><trkpt lat="36.5656152" lon="8.6986372"><ele>200.0</ele><time>2026-05-02T08:58:43.625Z</time></trkpt><trkpt lat="36.5658128" lon="8.6986227"><ele>200.0</ele><time>2026-05-02T08:58:44.635Z</time></trkpt><trkpt lat="36.5660084" lon="8.6986205"><ele>200.0</ele><time>2026-05-02T08:58:45.634Z</time></trkpt><trkpt lat="36.5662087" lon="8.6986149"><ele>200.0</ele><time>2026-05-02T08:58:46.633Z</time></trkpt><trkpt lat="36.5664028" lon="8.6986072"><ele>201.0</ele><time>2026-05-02T08:58:47.638Z</time></trkpt><trkpt lat="36.5665907" lon="8.6985928"><ele>202.0</ele><time>2026-05-02T08:58:48.641Z</time></trkpt><trkpt lat="36.5667776" lon="8.6985766"><ele>203.0</ele><time>2026-05-02T08:58:49.631Z</time></trkpt><trkpt lat="36.5669643" lon="8.6985552"><ele>200.33333333333334</ele><time>2026-05-02T08:58:50.64Z</time></trkpt><trkpt lat="36.567151" lon="8.6985257"><ele>197.66666666666669</ele><time>2026-05-02T08:58:51.634Z</time></trkpt><trkpt lat="36.5673413" lon="8.6984889"><ele>195.0</ele><time>2026-05-02T08:58:52.641Z</time></trkpt><trkpt lat="36.5675273" lon="8.6984509"><ele>195.0</ele><time>2026-05-02T08:58:53.613Z</time></trkpt><trkpt lat="36.5677097" lon="8.6984068"><ele>195.0</ele><time>2026-05-02T08:58:54.634Z</time></trkpt><trkpt lat="36.5678967" lon="8.6983561"><ele>195.0</ele><time>2026-05-02T08:58:55.624Z</time></trkpt><trkpt lat="36.5680807" lon="8.6983031"><ele>197.0</ele><time>2026-05-02T08:58:56.639Z</time></trkpt><trkpt lat="36.5682635" lon="8.6982513"><ele>199.0</ele><time>2026-05-02T08:58:57.64Z</time></trkpt><trkpt lat="36.5684491" lon="8.6982065"><ele>201.0</ele><time>2026-05-02T08:58:58.627Z</time></trkpt><trkpt lat="36.5686379" lon="8.6981618"><ele>201.66666666666669</ele><time>2026-05-02T08:58:59.647Z</time></trkpt><trkpt lat="36.5688229" lon="8.6981118"><ele>202.33333333333334</ele><time>2026-05-02T08:59:00.626Z</time></trkpt><trkpt lat="36.5690047" lon="8.6980608"><ele>203.0</ele><time>2026-05-02T08:59:01.64Z</time></trkpt><trkpt lat="36.5691849" lon="8.6980123"><ele>203.0</ele><time>2026-05-02T08:59:02.631Z</time></trkpt><trkpt lat="36.5693664" lon="8.6979643"><ele>203.0</ele><time>2026-05-02T08:59:03.648Z</time></trkpt><trkpt lat="36.5695457" lon="8.6979268"><ele>203.0</ele><time>2026-05-02T08:59:04.635Z</time></trkpt><trkpt lat="36.5697224" lon="8.697897"><ele>204.33333333333334</ele><time>2026-05-02T08:59:05.638Z</time></trkpt><trkpt lat="36.5698986" lon="8.6978633"><ele>205.66666666666669</ele><time>2026-05-02T08:59:06.635Z</time></trkpt><trkpt lat="36.5700785" lon="8.6978324"><ele>207.0</ele><time>2026-05-02T08:59:07.632Z</time></trkpt><trkpt lat="36.5702592" lon="8.6978019"><ele>207.66666666666669</ele><time>2026-05-02T08:59:08.618Z</time></trkpt><trkpt lat="36.5704387" lon="8.6977718"><ele>208.33333333333334</ele><time>2026-05-02T08:59:09.641Z</time></trkpt><trkpt lat="36.5706216" lon="8.6977463"><ele>209.0</ele><time>2026-05-02T08:59:10.646Z</time></trkpt><trkpt lat="36.5708133" lon="8.6977268"><ele>206.0</ele><time>2026-05-02T08:59:11.636Z</time></trkpt><trkpt lat="36.5710069" lon="8.6977001"><ele>203.0</ele><time>2026-05-02T08:59:12.64Z</time></trkpt><trkpt lat="36.5712004" lon="8.6976648"><ele>200.0</ele><time>2026-05-02T08:59:13.654Z</time></trkpt><trkpt lat="36.5713887" lon="8.6976308"><ele>200.0</ele><time>2026-05-02T08:59:14.646Z</time></trkpt><trkpt lat="36.5715781" lon="8.6976002"><ele>200.0</ele><time>2026-05-02T08:59:15.635Z</time></trkpt><trkpt lat="36.5717639" lon="8.6975683"><ele>200.0</ele><time>2026-05-02T08:59:16.628Z</time></trkpt><trkpt lat="36.5719438" lon="8.697537"><ele>199.66666666666669</ele><time>2026-05-02T08:59:17.637Z</time></trkpt><trkpt lat="36.5721326" lon="8.6975023"><ele>199.33333333333331</ele><time>2026-05-02T08:59:18.632Z</time></trkpt><trkpt lat="36.5723225" lon="8.6974688"><ele>199.0</ele><time>2026-05-02T08:59:19.645Z</time></trkpt><trkpt lat="36.5725123" lon="8.6974294"><ele>199.0</ele><time>2026-05-02T08:59:20.628Z</time></trkpt><trkpt lat="36.5727066" lon="8.697383"><ele>199.0</ele><time>2026-05-02T08:59:21.628Z</time></trkpt><trkpt lat="36.5729004" lon="8.6973418"><ele>199.0</ele><time>2026-05-02T08:59:22.635Z</time></trkpt><trkpt lat="36.5730946" lon="8.6972955"><ele>198.33333333333331</ele><time>2026-05-02T08:59:23.64Z</time></trkpt><trkpt lat="36.5732883" lon="8.6972465"><ele>197.66666666666669</ele><time>2026-05-02T08:59:24.642Z</time></trkpt><trkpt lat="36.5734806" lon="8.6971896"><ele>197.0</ele><time>2026-05-02T08:59:25.631Z</time></trkpt><trkpt lat="36.573674" lon="8.6971299"><ele>196.0</ele><time>2026-05-02T08:59:26.651Z</time></trkpt><trkpt lat="36.5738673" lon="8.6970746"><ele>195.0</ele><time>2026-05-02T08:59:27.631Z</time></trkpt><trkpt lat="36.5740566" lon="8.6970212"><ele>194.0</ele><time>2026-05-02T08:59:28.643Z</time></trkpt><trkpt lat="36.5742438" lon="8.696972"><ele>194.0</ele><time>2026-05-02T08:59:29.642Z</time></trkpt><trkpt lat="36.5744317" lon="8.6969263"><ele>194.0</ele><time>2026-05-02T08:59:30.637Z</time></trkpt><trkpt lat="36.5746158" lon="8.6968856"><ele>194.0</ele><time>2026-05-02T08:59:31.649Z</time></trkpt><trkpt lat="36.574806" lon="8.6968393"><ele>195.0</ele><time>2026-05-02T08:59:32.625Z</time></trkpt><trkpt lat="36.5749927" lon="8.6967927"><ele>196.0</ele><time>2026-05-02T08:59:33.645Z</time></trkpt><trkpt lat="36.5751834" lon="8.6967476"><ele>197.0</ele><time>2026-05-02T08:59:34.637Z</time></trkpt><trkpt lat="36.575372" lon="8.6967014"><ele>197.0</ele><time>2026-05-02T08:59:35.635Z</time></trkpt><trkpt lat="36.5755572" lon="8.6966548"><ele>197.0</ele><time>2026-05-02T08:59:36.64Z</time></trkpt><trkpt lat="36.5757456" lon="8.6966057"><ele>197.0</ele><time>2026-05-02T08:59:37.643Z</time></trkpt><trkpt lat="36.575932" lon="8.6965572"><ele>197.0</ele><time>2026-05-02T08:59:38.623Z</time></trkpt><trkpt lat="36.5761219" lon="8.6965083"><ele>197.0</ele><time>2026-05-02T08:59:39.639Z</time></trkpt><trkpt lat="36.5763119" lon="8.6964596"><ele>197.0</ele><time>2026-05-02T08:59:40.635Z</time></trkpt><trkpt lat="36.5765081" lon="8.6964094"><ele>198.0</ele><time>2026-05-02T08:59:41.635Z</time></trkpt><trkpt lat="36.5767065" lon="8.6963609"><ele>199.0</ele><time>2026-05-02T08:59:42.639Z</time></trkpt><trkpt lat="36.5769072" lon="8.6963088"><ele>200.0</ele><time>2026-05-02T08:59:43.632Z</time></trkpt><trkpt lat="36.5771059" lon="8.6962571"><ele>200.0</ele><time>2026-05-02T08:59:44.639Z</time></trkpt><trkpt lat="36.5773047" lon="8.6962073"><ele>200.0</ele><time>2026-05-02T08:59:45.629Z</time></trkpt><trkpt lat="36.5775056" lon="8.6961585"><ele>200.0</ele><time>2026-05-02T08:59:46.632Z</time></trkpt><trkpt lat="36.5777" lon="8.6961075"><ele>199.66666666666669</ele><time>2026-05-02T08:59:47.653Z</time></trkpt><trkpt lat="36.5778967" lon="8.6960597"><ele>199.33333333333331</ele><time>2026-05-02T08:59:48.635Z</time></trkpt><trkpt lat="36.5780865" lon="8.6960074"><ele>199.0</ele><time>2026-05-02T08:59:49.641Z</time></trkpt><trkpt lat="36.5782734" lon="8.6959532"><ele>199.0</ele><time>2026-05-02T08:59:50.632Z</time></trkpt><trkpt lat="36.5784609" lon="8.6958993"><ele>199.0</ele><time>2026-05-02T08:59:51.641Z</time></trkpt><trkpt lat="36.5786474" lon="8.6958535"><ele>199.0</ele><time>2026-05-02T08:59:52.64Z</time></trkpt><trkpt lat="36.5788323" lon="8.6958069"><ele>199.66666666666666</ele><time>2026-05-02T08:59:53.641Z</time></trkpt><trkpt lat="36.5790171" lon="8.695763"><ele>200.33333333333331</ele><time>2026-05-02T08:59:54.652Z</time></trkpt><trkpt lat="36.5792018" lon="8.6957203"><ele>201.0</ele><time>2026-05-02T08:59:55.646Z</time></trkpt><trkpt lat="36.5793897" lon="8.6956735"><ele>200.66666666666669</ele><time>2026-05-02T08:59:56.642Z</time></trkpt><trkpt lat="36.5795726" lon="8.6956256"><ele>200.33333333333334</ele><time>2026-05-02T08:59:57.623Z</time></trkpt><trkpt lat="36.5797547" lon="8.6955741"><ele>200.0</ele><time>2026-05-02T08:59:58.627Z</time></trkpt><trkpt lat="36.5799393" lon="8.6955259"><ele>200.0</ele><time>2026-05-02T08:59:59.645Z</time></trkpt><trkpt lat="36.5801243" lon="8.6954753"><ele>200.0</ele><time>2026-05-02T09:00:00.637Z</time></trkpt><trkpt lat="36.5803108" lon="8.6954273"><ele>200.0</ele><time>2026-05-02T09:00:01.652Z</time></trkpt><trkpt lat="36.5804969" lon="8.6953791"><ele>200.66666666666669</ele><time>2026-05-02T09:00:02.677Z</time></trkpt><trkpt lat="36.5806844" lon="8.6953387"><ele>201.33333333333331</ele><time>2026-05-02T09:00:03.633Z</time></trkpt><trkpt lat="36.5808725" lon="8.6952833"><ele>202.0</ele><time>2026-05-02T09:00:04.643Z</time></trkpt><trkpt lat="36.5810626" lon="8.6952377"><ele>203.66666666666666</ele><time>2026-05-02T09:00:05.645Z</time></trkpt><trkpt lat="36.5812523" lon="8.6951905"><ele>205.33333333333331</ele><time>2026-05-02T09:00:06.636Z</time></trkpt><trkpt lat="36.5814495" lon="8.6951369"><ele>207.0</ele><time>2026-05-02T09:00:07.638Z</time></trkpt><trkpt lat="36.5816372" lon="8.6950881"><ele>207.0</ele><time>2026-05-02T09:00:08.63Z</time></trkpt><trkpt lat="36.5818308" lon="8.6950439"><ele>207.0</ele><time>2026-05-02T09:00:09.639Z</time></trkpt><trkpt lat="36.5820168" lon="8.6950011"><ele>207.0</ele><time>2026-05-02T09:00:10.635Z</time></trkpt><trkpt lat="36.5822004" lon="8.6949512"><ele>206.0</ele><time>2026-05-02T09:00:11.631Z</time></trkpt><trkpt lat="36.5823895" lon="8.6949029"><ele>205.0</ele><time>2026-05-02T09:00:12.64Z</time></trkpt><trkpt lat="36.5825713" lon="8.6948544"><ele>204.0</ele><time>2026-05-02T09:00:13.642Z</time></trkpt><trkpt lat="36.582751" lon="8.6948002"><ele>204.33333333333331</ele><time>2026-05-02T09:00:14.638Z</time></trkpt><trkpt lat="36.5829257" lon="8.6947498"><ele>204.66666666666666</ele><time>2026-05-02T09:00:15.656Z</time></trkpt><trkpt lat="36.5831034" lon="8.6947114"><ele>205.0</ele><time>2026-05-02T09:00:16.628Z</time></trkpt><trkpt lat="36.5832864" lon="8.6946689"><ele>205.0</ele><time>2026-05-02T09:00:17.644Z</time></trkpt><trkpt lat="36.5834618" lon="8.6946259"><ele>205.0</ele><time>2026-05-02T09:00:18.642Z</time></trkpt><trkpt lat="36.5836421" lon="8.6945773"><ele>205.0</ele><time>2026-05-02T09:00:19.631Z</time></trkpt><trkpt lat="36.5838187" lon="8.6945242"><ele>205.0</ele><time>2026-05-02T09:00:20.64Z</time></trkpt><trkpt lat="36.5839912" lon="8.6944519"><ele>205.0</ele><time>2026-05-02T09:00:21.635Z</time></trkpt><trkpt lat="36.5841578" lon="8.6943769"><ele>205.0</ele><time>2026-05-02T09:00:22.633Z</time></trkpt><trkpt lat="36.5843347" lon="8.6942824"><ele>205.66666666666666</ele><time>2026-05-02T09:00:23.648Z</time></trkpt><trkpt lat="36.5845028" lon="8.6941718"><ele>206.33333333333331</ele><time>2026-05-02T09:00:24.621Z</time></trkpt><trkpt lat="36.5846648" lon="8.6940464"><ele>207.0</ele><time>2026-05-02T09:00:25.641Z</time></trkpt><trkpt lat="36.5848258" lon="8.6939145"><ele>207.0</ele><time>2026-05-02T09:00:26.634Z</time></trkpt><trkpt lat="36.5849888" lon="8.6937833"><ele>207.0</ele><time>2026-05-02T09:00:27.625Z</time></trkpt><trkpt lat="36.5851549" lon="8.6936514"><ele>207.0</ele><time>2026-05-02T09:00:28.638Z</time></trkpt><trkpt lat="36.5853135" lon="8.6935168"><ele>207.66666666666669</ele><time>2026-05-02T09:00:29.647Z</time></trkpt><trkpt lat="36.5854641" lon="8.6933809"><ele>208.33333333333334</ele><time>2026-05-02T09:00:30.657Z</time></trkpt><trkpt lat="36.5856135" lon="8.6932465"><ele>209.0</ele><time>2026-05-02T09:00:31.634Z</time></trkpt><trkpt lat="36.5857652" lon="8.6931094"><ele>209.0</ele><time>2026-05-02T09:00:32.628Z</time></trkpt><trkpt lat="36.5859151" lon="8.6929719"><ele>209.0</ele><time>2026-05-02T09:00:33.633Z</time></trkpt><trkpt lat="36.5860648" lon="8.6928342"><ele>209.0</ele><time>2026-05-02T09:00:34.645Z</time></trkpt><trkpt lat="36.5862117" lon="8.6927003"><ele>210.0</ele><time>2026-05-02T09:00:35.642Z</time></trkpt><trkpt lat="36.5863604" lon="8.6925697"><ele>211.0</ele><time>2026-05-02T09:00:36.644Z</time></trkpt><trkpt lat="36.5865057" lon="8.692431"><ele>212.0</ele><time>2026-05-02T09:00:37.65Z</time></trkpt><trkpt lat="36.5866479" lon="8.6922964"><ele>212.0</ele><time>2026-05-02T09:00:38.657Z</time></trkpt><trkpt lat="36.5867828" lon="8.6921634"><ele>212.0</ele><time>2026-05-02T09:00:39.621Z</time></trkpt><trkpt lat="36.5869182" lon="8.6920421"><ele>212.0</ele><time>2026-05-02T09:00:40.635Z</time></trkpt><trkpt lat="36.5870492" lon="8.6919246"><ele>212.66666666666669</ele><time>2026-05-02T09:00:41.63Z</time></trkpt><trkpt lat="36.5871761" lon="8.6918089"><ele>213.33333333333331</ele><time>2026-05-02T09:00:42.684Z</time></trkpt><trkpt lat="36.5873066" lon="8.6916955"><ele>214.0</ele><time>2026-05-02T09:00:43.633Z</time></trkpt><trkpt lat="36.5874443" lon="8.6915817"><ele>214.0</ele><time>2026-05-02T09:00:44.628Z</time></trkpt><trkpt lat="36.5875986" lon="8.6914817"><ele>214.0</ele><time>2026-05-02T09:00:45.632Z</time></trkpt><trkpt lat="36.5877583" lon="8.6913968"><ele>214.0</ele><time>2026-05-02T09:00:46.63Z</time></trkpt><trkpt lat="36.5879199" lon="8.6913333"><ele>214.0</ele><time>2026-05-02T09:00:47.635Z</time></trkpt><trkpt lat="36.5880799" lon="8.6912795"><ele>214.0</ele><time>2026-05-02T09:00:48.625Z</time></trkpt><trkpt lat="36.5882477" lon="8.6912247"><ele>214.0</ele><time>2026-05-02T09:00:49.629Z</time></trkpt><trkpt lat="36.5884112" lon="8.6911719"><ele>214.0</ele><time>2026-05-02T09:00:50.634Z</time></trkpt><trkpt lat="36.5885749" lon="8.691119"><ele>214.0</ele><time>2026-05-02T09:00:51.638Z</time></trkpt><trkpt lat="36.5887357" lon="8.6910641"><ele>214.0</ele><time>2026-05-02T09:00:52.636Z</time></trkpt><trkpt lat="36.5889022" lon="8.6910141"><ele>215.66666666666666</ele><time>2026-05-02T09:00:53.647Z</time></trkpt><trkpt lat="36.5890633" lon="8.6909623"><ele>217.33333333333331</ele><time>2026-05-02T09:00:54.634Z</time></trkpt><trkpt lat="36.5892275" lon="8.6909139"><ele>219.0</ele><time>2026-05-02T09:00:55.634Z</time></trkpt><trkpt lat="36.589389" lon="8.6908668"><ele>219.33333333333331</ele><time>2026-05-02T09:00:56.622Z</time></trkpt><trkpt lat="36.5895487" lon="8.6908211"><ele>219.66666666666666</ele><time>2026-05-02T09:00:57.638Z</time></trkpt><trkpt lat="36.5897002" lon="8.690774"><ele>220.0</ele><time>2026-05-02T09:00:58.627Z</time></trkpt><trkpt lat="36.5898616" lon="8.690729"><ele>220.0</ele><time>2026-05-02T09:00:59.638Z</time></trkpt><trkpt lat="36.590015" lon="8.6906813"><ele>220.0</ele><time>2026-05-02T09:01:00.644Z</time></trkpt><trkpt lat="36.5901749" lon="8.6906366"><ele>220.0</ele><time>2026-05-02T09:01:01.643Z</time></trkpt><trkpt lat="36.590342" lon="8.690589"><ele>221.0</ele><time>2026-05-02T09:01:02.644Z</time></trkpt><trkpt lat="36.5905066" lon="8.6905373"><ele>222.0</ele><time>2026-05-02T09:01:03.636Z</time></trkpt><trkpt lat="36.5906696" lon="8.6904859"><ele>223.0</ele><time>2026-05-02T09:01:04.631Z</time></trkpt><trkpt lat="36.5908346" lon="8.6904373"><ele>223.0</ele><time>2026-05-02T09:01:05.625Z</time></trkpt><trkpt lat="36.5909991" lon="8.6903877"><ele>223.0</ele><time>2026-05-02T09:01:06.633Z</time></trkpt><trkpt lat="36.5911656" lon="8.6903438"><ele>223.0</ele><time>2026-05-02T09:01:07.652Z</time></trkpt><trkpt lat="36.5913306" lon="8.6903049"><ele>224.0</ele><time>2026-05-02T09:01:08.634Z</time></trkpt><trkpt lat="36.5915024" lon="8.6902684"><ele>225.0</ele><time>2026-05-02T09:01:09.637Z</time></trkpt><trkpt lat="36.5916803" lon="8.6902344"><ele>226.0</ele><time>2026-05-02T09:01:10.637Z</time></trkpt><trkpt lat="36.591853" lon="8.6901974"><ele>229.0</ele><time>2026-05-02T09:01:11.646Z</time></trkpt><trkpt lat="36.5920255" lon="8.690161"><ele>232.0</ele><time>2026-05-02T09:01:12.639Z</time></trkpt><trkpt lat="36.5922004" lon="8.6901234"><ele>235.0</ele><time>2026-05-02T09:01:13.629Z</time></trkpt><trkpt lat="36.5923709" lon="8.6900932"><ele>235.0</ele><time>2026-05-02T09:01:14.634Z</time></trkpt><trkpt lat="36.5925446" lon="8.6900653"><ele>235.0</ele><time>2026-05-02T09:01:15.641Z</time></trkpt><trkpt lat="36.5927116" lon="8.6900411"><ele>235.0</ele><time>2026-05-02T09:01:16.626Z</time></trkpt><trkpt lat="36.592877" lon="8.6900334"><ele>236.0</ele><time>2026-05-02T09:01:17.657Z</time></trkpt><trkpt lat="36.5930331" lon="8.6900666"><ele>237.0</ele><time>2026-05-02T09:01:18.64Z</time></trkpt><trkpt lat="36.5931849" lon="8.6901224"><ele>238.0</ele><time>2026-05-02T09:01:19.636Z</time></trkpt><trkpt lat="36.5933276" lon="8.690199"><ele>237.25</ele><time>2026-05-02T09:01:20.633Z</time></trkpt><trkpt lat="36.5934484" lon="8.690296"><ele>236.5</ele><time>2026-05-02T09:01:21.657Z</time></trkpt><trkpt lat="36.593573" lon="8.6903967"><ele>235.75</ele><time>2026-05-02T09:01:22.656Z</time></trkpt><trkpt lat="36.5937046" lon="8.6904744"><ele>235.0</ele><time>2026-05-02T09:01:23.656Z</time></trkpt><trkpt lat="36.5938463" lon="8.6905238"><ele>235.0</ele><time>2026-05-02T09:01:24.653Z</time></trkpt><trkpt lat="36.594" lon="8.6905497"><ele>235.0</ele><time>2026-05-02T09:01:25.664Z</time></trkpt><trkpt lat="36.5941642" lon="8.6905673"><ele>235.0</ele><time>2026-05-02T09:01:26.664Z</time></trkpt><trkpt lat="36.5943351" lon="8.6905854"><ele>237.66666666666666</ele><time>2026-05-02T09:01:27.616Z</time></trkpt><trkpt lat="36.5945148" lon="8.6905998"><ele>240.33333333333331</ele><time>2026-05-02T09:01:28.65Z</time></trkpt><trkpt lat="36.5946969" lon="8.6906103"><ele>243.0</ele><time>2026-05-02T09:01:29.655Z</time></trkpt><trkpt lat="36.5948873" lon="8.6906279"><ele>243.0</ele><time>2026-05-02T09:01:30.66Z</time></trkpt><trkpt lat="36.5950631" lon="8.6906407"><ele>243.0</ele><time>2026-05-02T09:01:31.638Z</time></trkpt><trkpt lat="36.5952254" lon="8.6906528"><ele>243.0</ele><time>2026-05-02T09:01:32.63Z</time></trkpt><trkpt lat="36.5953805" lon="8.6906616"><ele>244.0</ele><time>2026-05-02T09:01:33.65Z</time></trkpt><trkpt lat="36.5955343" lon="8.6906728"><ele>245.0</ele><time>2026-05-02T09:01:34.649Z</time></trkpt><trkpt lat="36.5956901" lon="8.6906856"><ele>246.0</ele><time>2026-05-02T09:01:35.668Z</time></trkpt><trkpt lat="36.5958472" lon="8.6906879"><ele>246.0</ele><time>2026-05-02T09:01:36.653Z</time></trkpt><trkpt lat="36.5960028" lon="8.6906649"><ele>246.0</ele><time>2026-05-02T09:01:37.676Z</time></trkpt><trkpt lat="36.5961491" lon="8.6906196"><ele>246.0</ele><time>2026-05-02T09:01:38.66Z</time></trkpt><trkpt lat="36.5962878" lon="8.6905426"><ele>247.66666666666669</ele><time>2026-05-02T09:01:39.658Z</time></trkpt><trkpt lat="36.5964103" lon="8.6904407"><ele>249.33333333333334</ele><time>2026-05-02T09:01:40.656Z</time></trkpt><trkpt lat="36.596498" lon="8.6903"><ele>251.0</ele><time>2026-05-02T09:01:41.637Z</time></trkpt><trkpt lat="36.5965755" lon="8.6901248"><ele>251.0</ele><time>2026-05-02T09:01:42.674Z</time></trkpt><trkpt lat="36.5966306" lon="8.6899188"><ele>251.0</ele><time>2026-05-02T09:01:43.67Z</time></trkpt><trkpt lat="36.5966932" lon="8.68968"><ele>251.0</ele><time>2026-05-02T09:01:44.653Z</time></trkpt><trkpt lat="36.5967428" lon="8.6894455"><ele>254.66666666666669</ele><time>2026-05-02T09:01:45.656Z</time></trkpt><trkpt lat="36.5967882" lon="8.689226"><ele>258.3333333333333</ele><time>2026-05-02T09:01:46.662Z</time></trkpt><trkpt lat="36.5968293" lon="8.6890071"><ele>262.0</ele><time>2026-05-02T09:01:47.66Z</time></trkpt><trkpt lat="36.5968598" lon="8.6887807"><ele>264.3333333333333</ele><time>2026-05-02T09:01:48.661Z</time></trkpt><trkpt lat="36.5968832" lon="8.6885645"><ele>266.6666666666667</ele><time>2026-05-02T09:01:49.635Z</time></trkpt><trkpt lat="36.5968926" lon="8.6883699"><ele>269.0</ele><time>2026-05-02T09:01:50.643Z</time></trkpt><trkpt lat="36.5969074" lon="8.6881724"><ele>269.0</ele><time>2026-05-02T09:01:51.642Z</time></trkpt><trkpt lat="36.5969236" lon="8.6879762"><ele>269.0</ele><time>2026-05-02T09:01:52.661Z</time></trkpt><trkpt lat="36.5969363" lon="8.6877767"><ele>269.0</ele><time>2026-05-02T09:01:53.658Z</time></trkpt><trkpt lat="36.5969486" lon="8.6875867"><ele>269.6666666666667</ele><time>2026-05-02T09:01:54.636Z</time></trkpt><trkpt lat="36.5969566" lon="8.6873944"><ele>270.3333333333333</ele><time>2026-05-02T09:01:55.658Z</time></trkpt><trkpt lat="36.5969669" lon="8.6872028"><ele>271.0</ele><time>2026-05-02T09:01:56.662Z</time></trkpt><trkpt lat="36.5969764" lon="8.6870084"><ele>271.3333333333333</ele><time>2026-05-02T09:01:57.666Z</time></trkpt><trkpt lat="36.5969829" lon="8.6868076"><ele>271.6666666666667</ele><time>2026-05-02T09:01:58.66Z</time></trkpt><trkpt lat="36.5969754" lon="8.6866035"><ele>272.0</ele><time>2026-05-02T09:01:59.633Z</time></trkpt><trkpt lat="36.5969548" lon="8.6864006"><ele>272.0</ele><time>2026-05-02T09:02:00.648Z</time></trkpt><trkpt lat="36.5969279" lon="8.6861942"><ele>272.0</ele><time>2026-05-02T09:02:01.656Z</time></trkpt><trkpt lat="36.5969044" lon="8.6859913"><ele>272.0</ele><time>2026-05-02T09:02:02.646Z</time></trkpt><trkpt lat="36.5968897" lon="8.6857848"><ele>272.33333333333337</ele><time>2026-05-02T09:02:03.65Z</time></trkpt><trkpt lat="36.596878" lon="8.6855806"><ele>272.6666666666667</ele><time>2026-05-02T09:02:04.656Z</time></trkpt><trkpt lat="36.5968745" lon="8.6853864"><ele>273.0</ele><time>2026-05-02T09:02:05.659Z</time></trkpt><trkpt lat="36.5968757" lon="8.6852147"><ele>272.25</ele><time>2026-05-02T09:02:06.652Z</time></trkpt><trkpt lat="36.5968939" lon="8.6850708"><ele>271.5</ele><time>2026-05-02T09:02:07.655Z</time></trkpt><trkpt lat="36.5969218" lon="8.6849309"><ele>270.75</ele><time>2026-05-02T09:02:08.676Z</time></trkpt><trkpt lat="36.5969698" lon="8.6848015"><ele>270.0</ele><time>2026-05-02T09:02:09.667Z</time></trkpt><trkpt lat="36.5970411" lon="8.6846955"><ele>270.0</ele><time>2026-05-02T09:02:10.662Z</time></trkpt><trkpt lat="36.5971361" lon="8.6846261"><ele>270.0</ele><time>2026-05-02T09:02:11.671Z</time></trkpt><trkpt lat="36.5972385" lon="8.6845786"><ele>270.0</ele><time>2026-05-02T09:02:12.642Z</time></trkpt><trkpt lat="36.5973543" lon="8.6845955"><ele>270.0</ele><time>2026-05-02T09:02:13.654Z</time></trkpt><trkpt lat="36.5974613" lon="8.6846397"><ele>270.0</ele><time>2026-05-02T09:02:14.662Z</time></trkpt><trkpt lat="36.5975723" lon="8.684708"><ele>270.0</ele><time>2026-05-02T09:02:15.638Z</time></trkpt><trkpt lat="36.5976772" lon="8.6847987"><ele>270.0</ele><time>2026-05-02T09:02:16.637Z</time></trkpt><trkpt lat="36.5977846" lon="8.6848948"><ele>270.0</ele><time>2026-05-02T09:02:17.649Z</time></trkpt><trkpt lat="36.5978937" lon="8.6849878"><ele>270.0</ele><time>2026-05-02T09:02:18.642Z</time></trkpt><trkpt lat="36.5980196" lon="8.6850801"><ele>269.5</ele><time>2026-05-02T09:02:19.619Z</time></trkpt><trkpt lat="36.5981522" lon="8.6851665"><ele>269.0</ele><time>2026-05-02T09:02:20.659Z</time></trkpt><trkpt lat="36.5982857" lon="8.68525"><ele>268.5</ele><time>2026-05-02T09:02:21.607Z</time></trkpt><trkpt lat="36.5984205" lon="8.6853232"><ele>268.0</ele><time>2026-05-02T09:02:22.659Z</time></trkpt><trkpt lat="36.5985591" lon="8.6853851"><ele>270.0</ele><time>2026-05-02T09:02:23.668Z</time></trkpt><trkpt lat="36.5986984" lon="8.6854393"><ele>272.0</ele><time>2026-05-02T09:02:24.65Z</time></trkpt><trkpt lat="36.5988311" lon="8.6854926"><ele>274.0</ele><time>2026-05-02T09:02:25.657Z</time></trkpt><trkpt lat="36.5989687" lon="8.6855547"><ele>276.0</ele><time>2026-05-02T09:02:26.629Z</time></trkpt><trkpt lat="36.5991013" lon="8.6856149"><ele>276.0</ele><time>2026-05-02T09:02:27.641Z</time></trkpt><trkpt lat="36.5992273" lon="8.685681"><ele>276.0</ele><time>2026-05-02T09:02:28.664Z</time></trkpt><trkpt lat="36.5993357" lon="8.6857709"><ele>276.0</ele><time>2026-05-02T09:02:29.629Z</time></trkpt><trkpt lat="36.5994316" lon="8.6858821"><ele>276.0</ele><time>2026-05-02T09:02:30.669Z</time></trkpt><trkpt lat="36.5995206" lon="8.6860147"><ele>277.0</ele><time>2026-05-02T09:02:31.65Z</time></trkpt><trkpt lat="36.5995794" lon="8.6861543"><ele>278.0</ele><time>2026-05-02T09:02:32.645Z</time></trkpt><trkpt lat="36.5996347" lon="8.6862943"><ele>279.0</ele><time>2026-05-02T09:02:33.67Z</time></trkpt><trkpt lat="36.5997036" lon="8.6864277"><ele>280.0</ele><time>2026-05-02T09:02:34.658Z</time></trkpt><trkpt lat="36.5998045" lon="8.686541"><ele>280.0</ele><time>2026-05-02T09:02:35.659Z</time></trkpt><trkpt lat="36.5999229" lon="8.6866422"><ele>280.0</ele><time>2026-05-02T09:02:36.63Z</time></trkpt><trkpt lat="36.6000502" lon="8.6867208"><ele>280.0</ele><time>2026-05-02T09:02:37.651Z</time></trkpt><trkpt lat="36.6001791" lon="8.6867739"><ele>280.0</ele><time>2026-05-02T09:02:38.667Z</time></trkpt><trkpt lat="36.6003136" lon="8.6868296"><ele>280.5</ele><time>2026-05-02T09:02:39.623Z</time></trkpt><trkpt lat="36.6004419" lon="8.6868867"><ele>281.0</ele><time>2026-05-02T09:02:40.638Z</time></trkpt><trkpt lat="36.6005635" lon="8.6869552"><ele>281.5</ele><time>2026-05-02T09:02:41.652Z</time></trkpt><trkpt lat="36.6006642" lon="8.6870303"><ele>282.0</ele><time>2026-05-02T09:02:42.647Z</time></trkpt><trkpt lat="36.6007592" lon="8.687119"><ele>282.0</ele><time>2026-05-02T09:02:43.661Z</time></trkpt><trkpt lat="36.6008474" lon="8.6872372"><ele>282.0</ele><time>2026-05-02T09:02:44.668Z</time></trkpt><trkpt lat="36.6009221" lon="8.6873611"><ele>282.0</ele><time>2026-05-02T09:02:45.652Z</time></trkpt><trkpt lat="36.6009954" lon="8.6874953"><ele>282.0</ele><time>2026-05-02T09:02:46.659Z</time></trkpt><trkpt lat="36.6010481" lon="8.6876513"><ele>281.5</ele><time>2026-05-02T09:02:47.681Z</time></trkpt><trkpt lat="36.6010841" lon="8.6878106"><ele>281.0</ele><time>2026-05-02T09:02:48.654Z</time></trkpt><trkpt lat="36.6011121" lon="8.6879692"><ele>280.5</ele><time>2026-05-02T09:02:49.649Z</time></trkpt><trkpt lat="36.6011513" lon="8.6881258"><ele>280.0</ele><time>2026-05-02T09:02:50.659Z</time></trkpt><trkpt lat="36.601207" lon="8.6882684"><ele>280.75</ele><time>2026-05-02T09:02:51.667Z</time></trkpt><trkpt lat="36.6012877" lon="8.6883998"><ele>281.5</ele><time>2026-05-02T09:02:52.66Z</time></trkpt><trkpt lat="36.6013911" lon="8.6885245"><ele>282.25</ele><time>2026-05-02T09:02:53.647Z</time></trkpt><trkpt lat="36.6015148" lon="8.6886257"><ele>283.0</ele><time>2026-05-02T09:02:54.664Z</time></trkpt><trkpt lat="36.6016694" lon="8.6887159"><ele>283.0</ele><time>2026-05-02T09:02:55.638Z</time></trkpt><trkpt lat="36.6018279" lon="8.6887873"><ele>283.0</ele><time>2026-05-02T09:02:56.658Z</time></trkpt><trkpt lat="36.6020035" lon="8.6888475"><ele>283.0</ele><time>2026-05-02T09:02:57.666Z</time></trkpt><trkpt lat="36.6021846" lon="8.6888916"><ele>282.0</ele><time>2026-05-02T09:02:58.642Z</time></trkpt><trkpt lat="36.6023655" lon="8.6889107"><ele>281.0</ele><time>2026-05-02T09:02:59.651Z</time></trkpt><trkpt lat="36.602538" lon="8.6889195"><ele>280.0</ele><time>2026-05-02T09:03:00.667Z</time></trkpt><trkpt lat="36.6027198" lon="8.6889247"><ele>279.3333333333333</ele><time>2026-05-02T09:03:01.657Z</time></trkpt><trkpt lat="36.6028994" lon="8.688921"><ele>278.6666666666667</ele><time>2026-05-02T09:03:02.671Z</time></trkpt><trkpt lat="36.6030686" lon="8.6889163"><ele>278.0</ele><time>2026-05-02T09:03:03.659Z</time></trkpt><trkpt lat="36.6032333" lon="8.6888977"><ele>278.0</ele><time>2026-05-02T09:03:04.663Z</time></trkpt><trkpt lat="36.6034026" lon="8.6888711"><ele>278.0</ele><time>2026-05-02T09:03:05.668Z</time></trkpt><trkpt lat="36.6035755" lon="8.6888496"><ele>278.0</ele><time>2026-05-02T09:03:06.654Z</time></trkpt><trkpt lat="36.6037396" lon="8.6888248"><ele>276.33333333333337</ele><time>2026-05-02T09:03:07.665Z</time></trkpt><trkpt lat="36.6039047" lon="8.6887995"><ele>274.6666666666667</ele><time>2026-05-02T09:03:08.668Z</time></trkpt><trkpt lat="36.6040695" lon="8.6887703"><ele>273.0</ele><time>2026-05-02T09:03:09.624Z</time></trkpt><trkpt lat="36.6042407" lon="8.6887433"><ele>273.0</ele><time>2026-05-02T09:03:10.658Z</time></trkpt><trkpt lat="36.6044108" lon="8.6887174"><ele>273.0</ele><time>2026-05-02T09:03:11.652Z</time></trkpt><trkpt lat="36.6045813" lon="8.6886873"><ele>273.0</ele><time>2026-05-02T09:03:12.645Z</time></trkpt><trkpt lat="36.6047586" lon="8.6886587"><ele>273.0</ele><time>2026-05-02T09:03:13.659Z</time></trkpt><trkpt lat="36.6049336" lon="8.68863"><ele>273.0</ele><time>2026-05-02T09:03:14.655Z</time></trkpt><trkpt lat="36.6051109" lon="8.6886053"><ele>273.0</ele><time>2026-05-02T09:03:15.639Z</time></trkpt><trkpt lat="36.6052869" lon="8.688579"><ele>273.0</ele><time>2026-05-02T09:03:16.652Z</time></trkpt><trkpt lat="36.6054629" lon="8.6885541"><ele>273.0</ele><time>2026-05-02T09:03:17.666Z</time></trkpt><trkpt lat="36.6056373" lon="8.6885258"><ele>273.0</ele><time>2026-05-02T09:03:18.661Z</time></trkpt><trkpt lat="36.6058124" lon="8.6884956"><ele>273.0</ele><time>2026-05-02T09:03:19.671Z</time></trkpt><trkpt lat="36.6059877" lon="8.6884594"><ele>273.0</ele><time>2026-05-02T09:03:20.609Z</time></trkpt><trkpt lat="36.6061653" lon="8.6884248"><ele>273.0</ele><time>2026-05-02T09:03:21.661Z</time></trkpt><trkpt lat="36.6063448" lon="8.6883863"><ele>272.0</ele><time>2026-05-02T09:03:22.618Z</time></trkpt><trkpt lat="36.6065273" lon="8.6883409"><ele>271.0</ele><time>2026-05-02T09:03:23.645Z</time></trkpt><trkpt lat="36.6067115" lon="8.6882974"><ele>270.0</ele><time>2026-05-02T09:03:24.661Z</time></trkpt><trkpt lat="36.6068961" lon="8.6882575"><ele>269.3333333333333</ele><time>2026-05-02T09:03:25.64Z</time></trkpt><trkpt lat="36.6070763" lon="8.6882127"><ele>268.66666666666663</ele><time>2026-05-02T09:03:26.641Z</time></trkpt><trkpt lat="36.6072586" lon="8.6881659"><ele>268.0</ele><time>2026-05-02T09:03:27.638Z</time></trkpt><trkpt lat="36.6074512" lon="8.6881237"><ele>268.0</ele><time>2026-05-02T09:03:28.637Z</time></trkpt><trkpt lat="36.6076344" lon="8.6880784"><ele>268.0</ele><time>2026-05-02T09:03:29.628Z</time></trkpt><trkpt lat="36.6078176" lon="8.6880351"><ele>268.0</ele><time>2026-05-02T09:03:30.653Z</time></trkpt><trkpt lat="36.6079973" lon="8.6879962"><ele>267.3333333333333</ele><time>2026-05-02T09:03:31.668Z</time></trkpt><trkpt lat="36.6081746" lon="8.6879585"><ele>266.6666666666667</ele><time>2026-05-02T09:03:32.639Z</time></trkpt><trkpt lat="36.6083515" lon="8.6879182"><ele>266.0</ele><time>2026-05-02T09:03:33.621Z</time></trkpt><trkpt lat="36.6085265" lon="8.6878793"><ele>266.0</ele><time>2026-05-02T09:03:34.643Z</time></trkpt><trkpt lat="36.6086987" lon="8.6878397"><ele>266.0</ele><time>2026-05-02T09:03:35.64Z</time></trkpt><trkpt lat="36.6088715" lon="8.6878014"><ele>266.0</ele><time>2026-05-02T09:03:36.63Z</time></trkpt><trkpt lat="36.609045" lon="8.6877583"><ele>266.0</ele><time>2026-05-02T09:03:37.65Z</time></trkpt><trkpt lat="36.6092238" lon="8.6877146"><ele>266.0</ele><time>2026-05-02T09:03:38.66Z</time></trkpt><trkpt lat="36.6094006" lon="8.6876693"><ele>266.0</ele><time>2026-05-02T09:03:39.635Z</time></trkpt><trkpt lat="36.6095677" lon="8.6876302"><ele>266.0</ele><time>2026-05-02T09:03:40.662Z</time></trkpt><trkpt lat="36.609729" lon="8.6875918"><ele>266.0</ele><time>2026-05-02T09:03:41.632Z</time></trkpt><trkpt lat="36.6098828" lon="8.6875518"><ele>266.0</ele><time>2026-05-02T09:03:42.656Z</time></trkpt><trkpt lat="36.6100306" lon="8.6875178"><ele>266.0</ele><time>2026-05-02T09:03:43.654Z</time></trkpt><trkpt lat="36.6101793" lon="8.6874836"><ele>266.0</ele><time>2026-05-02T09:03:44.659Z</time></trkpt><trkpt lat="36.6103138" lon="8.6874421"><ele>266.0</ele><time>2026-05-02T09:03:45.64Z</time></trkpt><trkpt lat="36.6104481" lon="8.6874034"><ele>266.0</ele><time>2026-05-02T09:03:46.664Z</time></trkpt><trkpt lat="36.6105736" lon="8.6873718"><ele>266.25</ele><time>2026-05-02T09:03:47.667Z</time></trkpt><trkpt lat="36.6106982" lon="8.6873387"><ele>266.5</ele><time>2026-05-02T09:03:48.654Z</time></trkpt><trkpt lat="36.6108143" lon="8.6873041"><ele>266.75</ele><time>2026-05-02T09:03:49.656Z</time></trkpt><trkpt lat="36.6109317" lon="8.6872723"><ele>267.0</ele><time>2026-05-02T09:03:50.665Z</time></trkpt><trkpt lat="36.6110469" lon="8.6872381"><ele>266.4</ele><time>2026-05-02T09:03:51.654Z</time></trkpt><trkpt lat="36.6111634" lon="8.6872037"><ele>265.79999999999995</ele><time>2026-05-02T09:03:52.666Z</time></trkpt><trkpt lat="36.6112717" lon="8.6871747"><ele>265.2</ele><time>2026-05-02T09:03:53.639Z</time></trkpt><trkpt lat="36.6113608" lon="8.6871437"><ele>264.59999999999997</ele><time>2026-05-02T09:03:54.655Z</time></trkpt><trkpt lat="36.6114323" lon="8.6871269"><ele>264.0</ele><time>2026-05-02T09:03:55.669Z</time></trkpt><trkpt lat="36.611548" lon="8.6871012"><ele>264.0</ele><time>2026-05-02T09:03:57.665Z</time></trkpt><trkpt lat="36.6116115" lon="8.6870743"><ele>264.0</ele><time>2026-05-02T09:03:59.67Z</time></trkpt><trkpt lat="36.6116906" lon="8.6870548"><ele>264.0</ele><time>2026-05-02T09:04:02.663Z</time></trkpt><trkpt lat="36.6117586" lon="8.6870368"><ele>264.0</ele><time>2026-05-02T09:04:05.661Z</time></trkpt><trkpt lat="36.6118351" lon="8.6870079"><ele>264.0</ele><time>2026-05-02T09:04:07.651Z</time></trkpt><trkpt lat="36.6119519" lon="8.6869552"><ele>264.0</ele><time>2026-05-02T09:04:09.654Z</time></trkpt><trkpt lat="36.6120161" lon="8.6869271"><ele>263.59999999999997</ele><time>2026-05-02T09:04:10.648Z</time></trkpt><trkpt lat="36.6120822" lon="8.6869034"><ele>263.2</ele><time>2026-05-02T09:04:11.655Z</time></trkpt><trkpt lat="36.6121943" lon="8.6868723"><ele>262.79999999999995</ele><time>2026-05-02T09:04:13.66Z</time></trkpt><trkpt lat="36.6122563" lon="8.6868565"><ele>262.4</ele><time>2026-05-02T09:04:14.659Z</time></trkpt><trkpt lat="36.6123825" lon="8.6868189"><ele>262.0</ele><time>2026-05-02T09:04:16.66Z</time></trkpt><trkpt lat="36.6124572" lon="8.6867949"><ele>262.0</ele><time>2026-05-02T09:04:17.67Z</time></trkpt><trkpt lat="36.6125456" lon="8.686781"><ele>262.0</ele><time>2026-05-02T09:04:18.662Z</time></trkpt><trkpt lat="36.6126383" lon="8.6867602"><ele>262.0</ele><time>2026-05-02T09:04:19.664Z</time></trkpt><trkpt lat="36.6127387" lon="8.6867379"><ele>262.0</ele><time>2026-05-02T09:04:20.621Z</time></trkpt><trkpt lat="36.6128323" lon="8.6867128"><ele>262.0</ele><time>2026-05-02T09:04:21.667Z</time></trkpt><trkpt lat="36.6129217" lon="8.6866905"><ele>261.4</ele><time>2026-05-02T09:04:22.645Z</time></trkpt><trkpt lat="36.6130075" lon="8.6866625"><ele>260.79999999999995</ele><time>2026-05-02T09:04:23.618Z</time></trkpt><trkpt lat="36.6130942" lon="8.6866384"><ele>260.2</ele><time>2026-05-02T09:04:24.665Z</time></trkpt><trkpt lat="36.6131855" lon="8.6866087"><ele>259.59999999999997</ele><time>2026-05-02T09:04:25.654Z</time></trkpt><trkpt lat="36.613287" lon="8.6865736"><ele>259.0</ele><time>2026-05-02T09:04:26.642Z</time></trkpt><trkpt lat="36.6134072" lon="8.6865436"><ele>259.0</ele><time>2026-05-02T09:04:27.635Z</time></trkpt><trkpt lat="36.6135364" lon="8.6865149"><ele>259.0</ele><time>2026-05-02T09:04:28.642Z</time></trkpt><trkpt lat="36.6136741" lon="8.686474"><ele>259.0</ele><time>2026-05-02T09:04:29.652Z</time></trkpt><trkpt lat="36.6138149" lon="8.6864269"><ele>259.0</ele><time>2026-05-02T09:04:30.644Z</time></trkpt><trkpt lat="36.6139645" lon="8.6863792"><ele>258.0</ele><time>2026-05-02T09:04:31.659Z</time></trkpt><trkpt lat="36.6141209" lon="8.6863365"><ele>257.0</ele><time>2026-05-02T09:04:32.621Z</time></trkpt><trkpt lat="36.6142804" lon="8.6862887"><ele>256.0</ele><time>2026-05-02T09:04:33.651Z</time></trkpt><trkpt lat="36.6144355" lon="8.6862448"><ele>256.0</ele><time>2026-05-02T09:04:34.647Z</time></trkpt><trkpt lat="36.6145868" lon="8.6861953"><ele>256.0</ele><time>2026-05-02T09:04:35.645Z</time></trkpt><trkpt lat="36.6147359" lon="8.686149"><ele>256.0</ele><time>2026-05-02T09:04:36.668Z</time></trkpt><trkpt lat="36.6148848" lon="8.6861042"><ele>256.0</ele><time>2026-05-02T09:04:37.647Z</time></trkpt><trkpt lat="36.6150386" lon="8.6860637"><ele>256.0</ele><time>2026-05-02T09:04:38.645Z</time></trkpt><trkpt lat="36.6151911" lon="8.6860231"><ele>256.0</ele><time>2026-05-02T09:04:39.657Z</time></trkpt><trkpt lat="36.6153461" lon="8.685981"><ele>256.0</ele><time>2026-05-02T09:04:40.634Z</time></trkpt><trkpt lat="36.6154984" lon="8.6859404"><ele>256.0</ele><time>2026-05-02T09:04:41.663Z</time></trkpt><trkpt lat="36.6156496" lon="8.6858948"><ele>256.0</ele><time>2026-05-02T09:04:42.663Z</time></trkpt><trkpt lat="36.6158045" lon="8.685854"><ele>256.0</ele><time>2026-05-02T09:04:43.662Z</time></trkpt><trkpt lat="36.6159596" lon="8.685813"><ele>256.0</ele><time>2026-05-02T09:04:44.671Z</time></trkpt><trkpt lat="36.6161116" lon="8.6857656"><ele>256.0</ele><time>2026-05-02T09:04:45.662Z</time></trkpt><trkpt lat="36.6162635" lon="8.6857212"><ele>256.66666666666663</ele><time>2026-05-02T09:04:46.644Z</time></trkpt><trkpt lat="36.6164232" lon="8.6856828"><ele>257.3333333333333</ele><time>2026-05-02T09:04:47.648Z</time></trkpt><trkpt lat="36.6165809" lon="8.6856456"><ele>258.0</ele><time>2026-05-02T09:04:48.672Z</time></trkpt><trkpt lat="36.6167422" lon="8.6856155"><ele>258.0</ele><time>2026-05-02T09:04:49.67Z</time></trkpt><trkpt lat="36.6169" lon="8.6855941"><ele>258.0</ele><time>2026-05-02T09:04:50.638Z</time></trkpt><trkpt lat="36.6170683" lon="8.6855907"><ele>258.0</ele><time>2026-05-02T09:04:51.675Z</time></trkpt><trkpt lat="36.6172327" lon="8.6855901"><ele>258.3333333333333</ele><time>2026-05-02T09:04:52.667Z</time></trkpt><trkpt lat="36.6174029" lon="8.6855794"><ele>258.66666666666663</ele><time>2026-05-02T09:04:53.664Z</time></trkpt><trkpt lat="36.617572" lon="8.6855757"><ele>259.0</ele><time>2026-05-02T09:04:54.642Z</time></trkpt><trkpt lat="36.6177416" lon="8.6855656"><ele>259.3333333333333</ele><time>2026-05-02T09:04:55.664Z</time></trkpt><trkpt lat="36.6179107" lon="8.6855573"><ele>259.6666666666667</ele><time>2026-05-02T09:04:56.652Z</time></trkpt><trkpt lat="36.6180742" lon="8.685555"><ele>260.0</ele><time>2026-05-02T09:04:57.668Z</time></trkpt><trkpt lat="36.6182392" lon="8.6855511"><ele>260.0</ele><time>2026-05-02T09:04:58.672Z</time></trkpt><trkpt lat="36.6183989" lon="8.6855468"><ele>260.0</ele><time>2026-05-02T09:04:59.668Z</time></trkpt><trkpt lat="36.6185516" lon="8.6855426"><ele>260.0</ele><time>2026-05-02T09:05:00.622Z</time></trkpt><trkpt lat="36.618711" lon="8.6855488"><ele>260.0</ele><time>2026-05-02T09:05:01.652Z</time></trkpt><trkpt lat="36.6188741" lon="8.6855635"><ele>260.0</ele><time>2026-05-02T09:05:02.667Z</time></trkpt><trkpt lat="36.6190398" lon="8.6855872"><ele>260.0</ele><time>2026-05-02T09:05:03.66Z</time></trkpt><trkpt lat="36.6192047" lon="8.6856175"><ele>260.0</ele><time>2026-05-02T09:05:04.658Z</time></trkpt><trkpt lat="36.6193711" lon="8.685649"><ele>260.0</ele><time>2026-05-02T09:05:05.632Z</time></trkpt><trkpt lat="36.619533" lon="8.6856944"><ele>260.0</ele><time>2026-05-02T09:05:06.62Z</time></trkpt><trkpt lat="36.6196987" lon="8.6857526"><ele>260.6666666666667</ele><time>2026-05-02T09:05:07.626Z</time></trkpt><trkpt lat="36.619863" lon="8.6858099"><ele>261.3333333333333</ele><time>2026-05-02T09:05:08.618Z</time></trkpt><trkpt lat="36.6200262" lon="8.6858676"><ele>262.0</ele><time>2026-05-02T09:05:09.634Z</time></trkpt><trkpt lat="36.6201879" lon="8.6859249"><ele>262.0</ele><time>2026-05-02T09:05:10.644Z</time></trkpt><trkpt lat="36.6203452" lon="8.6859807"><ele>262.0</ele><time>2026-05-02T09:05:11.624Z</time></trkpt><trkpt lat="36.6205057" lon="8.6860402"><ele>262.0</ele><time>2026-05-02T09:05:12.628Z</time></trkpt><trkpt lat="36.6206634" lon="8.6860943"><ele>261.0</ele><time>2026-05-02T09:05:13.635Z</time></trkpt><trkpt lat="36.6208254" lon="8.686151"><ele>260.0</ele><time>2026-05-02T09:05:14.615Z</time></trkpt><trkpt lat="36.6209854" lon="8.6862103"><ele>259.0</ele><time>2026-05-02T09:05:15.631Z</time></trkpt><trkpt lat="36.6211437" lon="8.6862632"><ele>258.66666666666663</ele><time>2026-05-02T09:05:16.639Z</time></trkpt><trkpt lat="36.6213036" lon="8.6863217"><ele>258.3333333333333</ele><time>2026-05-02T09:05:17.602Z</time></trkpt><trkpt lat="36.6214594" lon="8.6863768"><ele>258.0</ele><time>2026-05-02T09:05:18.629Z</time></trkpt><trkpt lat="36.621616" lon="8.6864311"><ele>258.0</ele><time>2026-05-02T09:05:19.649Z</time></trkpt><trkpt lat="36.6217735" lon="8.6864885"><ele>258.0</ele><time>2026-05-02T09:05:20.643Z</time></trkpt><trkpt lat="36.6219352" lon="8.6865507"><ele>258.0</ele><time>2026-05-02T09:05:21.629Z</time></trkpt><trkpt lat="36.6220952" lon="8.6866078"><ele>258.3333333333333</ele><time>2026-05-02T09:05:22.636Z</time></trkpt><trkpt lat="36.6222602" lon="8.6866641"><ele>258.66666666666663</ele><time>2026-05-02T09:05:23.653Z</time></trkpt><trkpt lat="36.6224303" lon="8.6867245"><ele>259.0</ele><time>2026-05-02T09:05:24.635Z</time></trkpt><trkpt lat="36.6225994" lon="8.6867839"><ele>259.0</ele><time>2026-05-02T09:05:25.644Z</time></trkpt><trkpt lat="36.6227694" lon="8.6868451"><ele>259.0</ele><time>2026-05-02T09:05:26.631Z</time></trkpt><trkpt lat="36.6229488" lon="8.6869093"><ele>259.0</ele><time>2026-05-02T09:05:27.654Z</time></trkpt><trkpt lat="36.6231272" lon="8.6869693"><ele>258.66666666666663</ele><time>2026-05-02T09:05:28.648Z</time></trkpt><trkpt lat="36.6233075" lon="8.6870272"><ele>258.3333333333333</ele><time>2026-05-02T09:05:29.628Z</time></trkpt><trkpt lat="36.6234894" lon="8.6870946"><ele>258.0</ele><time>2026-05-02T09:05:30.615Z</time></trkpt><trkpt lat="36.6236736" lon="8.6871594"><ele>258.6666666666667</ele><time>2026-05-02T09:05:31.646Z</time></trkpt><trkpt lat="36.6238545" lon="8.6872249"><ele>259.33333333333337</ele><time>2026-05-02T09:05:32.635Z</time></trkpt><trkpt lat="36.6240323" lon="8.6872899"><ele>260.0</ele><time>2026-05-02T09:05:33.648Z</time></trkpt><trkpt lat="36.6242092" lon="8.6873585"><ele>260.0</ele><time>2026-05-02T09:05:34.639Z</time></trkpt><trkpt lat="36.6243877" lon="8.6874235"><ele>260.0</ele><time>2026-05-02T09:05:35.632Z</time></trkpt><trkpt lat="36.6245625" lon="8.6874852"><ele>260.0</ele><time>2026-05-02T09:05:36.648Z</time></trkpt><trkpt lat="36.6247381" lon="8.6875526"><ele>262.0</ele><time>2026-05-02T09:05:37.632Z</time></trkpt><trkpt lat="36.6249166" lon="8.6876161"><ele>264.0</ele><time>2026-05-02T09:05:38.644Z</time></trkpt><trkpt lat="36.625095" lon="8.6876747"><ele>266.0</ele><time>2026-05-02T09:05:39.642Z</time></trkpt><trkpt lat="36.6252766" lon="8.6877328"><ele>265.6666666666667</ele><time>2026-05-02T09:05:40.64Z</time></trkpt><trkpt lat="36.6254603" lon="8.6878007"><ele>265.3333333333333</ele><time>2026-05-02T09:05:41.638Z</time></trkpt><trkpt lat="36.6256467" lon="8.687864"><ele>265.0</ele><time>2026-05-02T09:05:42.623Z</time></trkpt><trkpt lat="36.6258318" lon="8.6879257"><ele>265.0</ele><time>2026-05-02T09:05:43.606Z</time></trkpt><trkpt lat="36.6260183" lon="8.6879896"><ele>265.0</ele><time>2026-05-02T09:05:44.645Z</time></trkpt><trkpt lat="36.626205" lon="8.6880541"><ele>265.0</ele><time>2026-05-02T09:05:45.661Z</time></trkpt><trkpt lat="36.6263933" lon="8.6881228"><ele>264.3333333333333</ele><time>2026-05-02T09:05:46.646Z</time></trkpt><trkpt lat="36.6265851" lon="8.6881915"><ele>263.6666666666667</ele><time>2026-05-02T09:05:47.642Z</time></trkpt><trkpt lat="36.6267779" lon="8.6882606"><ele>263.0</ele><time>2026-05-02T09:05:48.647Z</time></trkpt><trkpt lat="36.6269689" lon="8.6883267"><ele>263.33333333333337</ele><time>2026-05-02T09:05:49.625Z</time></trkpt><trkpt lat="36.62716" lon="8.688393"><ele>263.6666666666667</ele><time>2026-05-02T09:05:50.658Z</time></trkpt><trkpt lat="36.6273463" lon="8.6884606"><ele>264.0</ele><time>2026-05-02T09:05:51.65Z</time></trkpt><trkpt lat="36.6275377" lon="8.6885258"><ele>264.0</ele><time>2026-05-02T09:05:52.651Z</time></trkpt><trkpt lat="36.6277276" lon="8.6885904"><ele>264.0</ele><time>2026-05-02T09:05:53.652Z</time></trkpt><trkpt lat="36.6279145" lon="8.688657"><ele>264.0</ele><time>2026-05-02T09:05:54.645Z</time></trkpt><trkpt lat="36.6281034" lon="8.6887232"><ele>263.6666666666667</ele><time>2026-05-02T09:05:55.613Z</time></trkpt><trkpt lat="36.6282918" lon="8.6887871"><ele>263.33333333333337</ele><time>2026-05-02T09:05:56.651Z</time></trkpt><trkpt lat="36.6284803" lon="8.6888473"><ele>263.0</ele><time>2026-05-02T09:05:57.643Z</time></trkpt><trkpt lat="36.6286683" lon="8.6889135"><ele>263.0</ele><time>2026-05-02T09:05:58.649Z</time></trkpt><trkpt lat="36.628855" lon="8.6889847"><ele>263.0</ele><time>2026-05-02T09:05:59.664Z</time></trkpt><trkpt lat="36.6290416" lon="8.6890517"><ele>263.0</ele><time>2026-05-02T09:06:00.655Z</time></trkpt><trkpt lat="36.6292297" lon="8.6891236"><ele>263.0</ele><time>2026-05-02T09:06:01.655Z</time></trkpt><trkpt lat="36.6294199" lon="8.6891956"><ele>263.0</ele><time>2026-05-02T09:06:02.65Z</time></trkpt><trkpt lat="36.6296058" lon="8.6892622"><ele>263.0</ele><time>2026-05-02T09:06:03.646Z</time></trkpt><trkpt lat="36.6297941" lon="8.6893314"><ele>263.33333333333337</ele><time>2026-05-02T09:06:04.658Z</time></trkpt><trkpt lat="36.6299774" lon="8.6893963"><ele>263.6666666666667</ele><time>2026-05-02T09:06:05.649Z</time></trkpt><trkpt lat="36.6301597" lon="8.6894557"><ele>264.0</ele><time>2026-05-02T09:06:06.652Z</time></trkpt><trkpt lat="36.6303388" lon="8.6895152"><ele>263.3333333333333</ele><time>2026-05-02T09:06:07.639Z</time></trkpt><trkpt lat="36.6305195" lon="8.6895786"><ele>262.66666666666663</ele><time>2026-05-02T09:06:08.619Z</time></trkpt><trkpt lat="36.6306874" lon="8.6896358"><ele>262.0</ele><time>2026-05-02T09:06:09.641Z</time></trkpt><trkpt lat="36.6308573" lon="8.6896958"><ele>262.0</ele><time>2026-05-02T09:06:10.618Z</time></trkpt><trkpt lat="36.6310294" lon="8.6897494"><ele>262.0</ele><time>2026-05-02T09:06:11.654Z</time></trkpt><trkpt lat="36.6312016" lon="8.6898057"><ele>262.0</ele><time>2026-05-02T09:06:12.649Z</time></trkpt><trkpt lat="36.6313801" lon="8.689869"><ele>263.66666666666663</ele><time>2026-05-02T09:06:13.634Z</time></trkpt><trkpt lat="36.6315552" lon="8.6899334"><ele>265.3333333333333</ele><time>2026-05-02T09:06:14.644Z</time></trkpt><trkpt lat="36.6317231" lon="8.6900043"><ele>267.0</ele><time>2026-05-02T09:06:15.657Z</time></trkpt><trkpt lat="36.6318865" lon="8.6900815"><ele>266.3333333333333</ele><time>2026-05-02T09:06:16.671Z</time></trkpt><trkpt lat="36.6320507" lon="8.6901738"><ele>265.66666666666663</ele><time>2026-05-02T09:06:17.647Z</time></trkpt><trkpt lat="36.6322096" lon="8.6902743"><ele>265.0</ele><time>2026-05-02T09:06:18.652Z</time></trkpt><trkpt lat="36.6323566" lon="8.6903855"><ele>265.0</ele><time>2026-05-02T09:06:19.654Z</time></trkpt><trkpt lat="36.6325064" lon="8.6905057"><ele>265.0</ele><time>2026-05-02T09:06:20.65Z</time></trkpt><trkpt lat="36.632646" lon="8.6906348"><ele>265.0</ele><time>2026-05-02T09:06:21.662Z</time></trkpt><trkpt lat="36.6327828" lon="8.6907803"><ele>265.3333333333333</ele><time>2026-05-02T09:06:22.667Z</time></trkpt><trkpt lat="36.6329218" lon="8.6909278"><ele>265.6666666666667</ele><time>2026-05-02T09:06:23.642Z</time></trkpt><trkpt lat="36.6330602" lon="8.6910902"><ele>266.0</ele><time>2026-05-02T09:06:24.66Z</time></trkpt><trkpt lat="36.6332021" lon="8.6912536"><ele>264.0</ele><time>2026-05-02T09:06:25.669Z</time></trkpt><trkpt lat="36.6333414" lon="8.6914155"><ele>262.0</ele><time>2026-05-02T09:06:26.665Z</time></trkpt><trkpt lat="36.6334913" lon="8.6915755"><ele>260.0</ele><time>2026-05-02T09:06:27.615Z</time></trkpt><trkpt lat="36.6336383" lon="8.6917355"><ele>260.0</ele><time>2026-05-02T09:06:28.642Z</time></trkpt><trkpt lat="36.6337838" lon="8.6918919"><ele>260.0</ele><time>2026-05-02T09:06:29.667Z</time></trkpt><trkpt lat="36.6339232" lon="8.6920465"><ele>260.0</ele><time>2026-05-02T09:06:30.651Z</time></trkpt><trkpt lat="36.6340632" lon="8.6922007"><ele>259.33333333333337</ele><time>2026-05-02T09:06:31.652Z</time></trkpt><trkpt lat="36.6341975" lon="8.6923523"><ele>258.6666666666667</ele><time>2026-05-02T09:06:32.652Z</time></trkpt><trkpt lat="36.6343286" lon="8.6925066"><ele>258.0</ele><time>2026-05-02T09:06:33.654Z</time></trkpt><trkpt lat="36.6344709" lon="8.6926574"><ele>258.0</ele><time>2026-05-02T09:06:34.67Z</time></trkpt><trkpt lat="36.6346133" lon="8.6928144"><ele>258.0</ele><time>2026-05-02T09:06:35.674Z</time></trkpt><trkpt lat="36.6347526" lon="8.6929709"><ele>258.0</ele><time>2026-05-02T09:06:36.667Z</time></trkpt><trkpt lat="36.6348924" lon="8.6931243"><ele>258.0</ele><time>2026-05-02T09:06:37.666Z</time></trkpt><trkpt lat="36.6350291" lon="8.6932745"><ele>258.0</ele><time>2026-05-02T09:06:38.666Z</time></trkpt><trkpt lat="36.6351736" lon="8.6934201"><ele>258.0</ele><time>2026-05-02T09:06:39.655Z</time></trkpt><trkpt lat="36.6353238" lon="8.6935491"><ele>257.3333333333333</ele><time>2026-05-02T09:06:40.66Z</time></trkpt><trkpt lat="36.6354842" lon="8.6936565"><ele>256.66666666666663</ele><time>2026-05-02T09:06:41.657Z</time></trkpt><trkpt lat="36.6356558" lon="8.6937412"><ele>256.0</ele><time>2026-05-02T09:06:42.66Z</time></trkpt><trkpt lat="36.6358339" lon="8.693823"><ele>256.0</ele><time>2026-05-02T09:06:43.658Z</time></trkpt><trkpt lat="36.636018" lon="8.69389"><ele>256.0</ele><time>2026-05-02T09:06:44.636Z</time></trkpt><trkpt lat="36.6362056" lon="8.6939392"><ele>256.0</ele><time>2026-05-02T09:06:45.672Z</time></trkpt><trkpt lat="36.636398" lon="8.6939668"><ele>254.66666666666666</ele><time>2026-05-02T09:06:46.648Z</time></trkpt><trkpt lat="36.6365933" lon="8.6939931"><ele>253.33333333333331</ele><time>2026-05-02T09:06:47.654Z</time></trkpt><trkpt lat="36.6367888" lon="8.6940161"><ele>252.0</ele><time>2026-05-02T09:06:48.666Z</time></trkpt><trkpt lat="36.6369777" lon="8.6940481"><ele>251.0</ele><time>2026-05-02T09:06:49.661Z</time></trkpt><trkpt lat="36.6371608" lon="8.6940782"><ele>250.0</ele><time>2026-05-02T09:06:50.657Z</time></trkpt><trkpt lat="36.6373382" lon="8.694105"><ele>249.0</ele><time>2026-05-02T09:06:51.66Z</time></trkpt><trkpt lat="36.6375157" lon="8.6941295"><ele>249.0</ele><time>2026-05-02T09:06:52.66Z</time></trkpt><trkpt lat="36.6376904" lon="8.6941392"><ele>249.0</ele><time>2026-05-02T09:06:53.665Z</time></trkpt><trkpt lat="36.6378695" lon="8.6941219"><ele>249.0</ele><time>2026-05-02T09:06:54.668Z</time></trkpt><trkpt lat="36.6380387" lon="8.6940816"><ele>248.33333333333331</ele><time>2026-05-02T09:06:55.629Z</time></trkpt><trkpt lat="36.6382104" lon="8.6940428"><ele>247.66666666666666</ele><time>2026-05-02T09:06:56.646Z</time></trkpt><trkpt lat="36.638373" lon="8.6940037"><ele>247.0</ele><time>2026-05-02T09:06:57.67Z</time></trkpt><trkpt lat="36.6385377" lon="8.693982"><ele>245.33333333333331</ele><time>2026-05-02T09:06:58.652Z</time></trkpt><trkpt lat="36.6386981" lon="8.6939884"><ele>243.66666666666669</ele><time>2026-05-02T09:06:59.646Z</time></trkpt><trkpt lat="36.638856" lon="8.6940323"><ele>242.0</ele><time>2026-05-02T09:07:00.661Z</time></trkpt><trkpt lat="36.6389996" lon="8.6941117"><ele>242.0</ele><time>2026-05-02T09:07:01.639Z</time></trkpt><trkpt lat="36.63914" lon="8.6942154"><ele>242.0</ele><time>2026-05-02T09:07:02.67Z</time></trkpt><trkpt lat="36.6392714" lon="8.6943403"><ele>242.0</ele><time>2026-05-02T09:07:03.66Z</time></trkpt><trkpt lat="36.6393817" lon="8.6944778"><ele>240.66666666666669</ele><time>2026-05-02T09:07:04.659Z</time></trkpt><trkpt lat="36.6394822" lon="8.6946332"><ele>239.33333333333331</ele><time>2026-05-02T09:07:05.638Z</time></trkpt><trkpt lat="36.6395742" lon="8.6947906"><ele>238.0</ele><time>2026-05-02T09:07:06.653Z</time></trkpt><trkpt lat="36.6396645" lon="8.694964"><ele>238.0</ele><time>2026-05-02T09:07:07.605Z</time></trkpt><trkpt lat="36.6397492" lon="8.695146"><ele>238.0</ele><time>2026-05-02T09:07:08.636Z</time></trkpt><trkpt lat="36.6398391" lon="8.6953328"><ele>238.0</ele><time>2026-05-02T09:07:09.66Z</time></trkpt><trkpt lat="36.6399228" lon="8.6955227"><ele>237.66666666666666</ele><time>2026-05-02T09:07:10.66Z</time></trkpt><trkpt lat="36.6400101" lon="8.6957146"><ele>237.33333333333331</ele><time>2026-05-02T09:07:11.66Z</time></trkpt><trkpt lat="36.6400949" lon="8.6959063"><ele>237.0</ele><time>2026-05-02T09:07:12.637Z</time></trkpt><trkpt lat="36.6401875" lon="8.6960875"><ele>236.33333333333331</ele><time>2026-05-02T09:07:13.638Z</time></trkpt><trkpt lat="36.6402932" lon="8.6962587"><ele>235.66666666666666</ele><time>2026-05-02T09:07:14.617Z</time></trkpt><trkpt lat="36.6404006" lon="8.6964177"><ele>235.0</ele><time>2026-05-02T09:07:15.644Z</time></trkpt><trkpt lat="36.6405124" lon="8.6965672"><ele>235.0</ele><time>2026-05-02T09:07:16.652Z</time></trkpt><trkpt lat="36.6406229" lon="8.6967161"><ele>235.0</ele><time>2026-05-02T09:07:17.632Z</time></trkpt><trkpt lat="36.6407329" lon="8.6968615"><ele>235.0</ele><time>2026-05-02T09:07:18.661Z</time></trkpt><trkpt lat="36.6408451" lon="8.697008"><ele>234.66666666666666</ele><time>2026-05-02T09:07:19.661Z</time></trkpt><trkpt lat="36.6409491" lon="8.6971518"><ele>234.33333333333331</ele><time>2026-05-02T09:07:20.656Z</time></trkpt><trkpt lat="36.6410502" lon="8.697287"><ele>234.0</ele><time>2026-05-02T09:07:21.635Z</time></trkpt><trkpt lat="36.6411504" lon="8.6974205"><ele>233.75</ele><time>2026-05-02T09:07:22.669Z</time></trkpt><trkpt lat="36.6412512" lon="8.6975536"><ele>233.5</ele><time>2026-05-02T09:07:23.661Z</time></trkpt><trkpt lat="36.6413544" lon="8.6976907"><ele>233.25</ele><time>2026-05-02T09:07:24.656Z</time></trkpt><trkpt lat="36.6414574" lon="8.6978289"><ele>233.0</ele><time>2026-05-02T09:07:25.631Z</time></trkpt><trkpt lat="36.6415576" lon="8.6979597"><ele>232.5</ele><time>2026-05-02T09:07:26.641Z</time></trkpt><trkpt lat="36.6416603" lon="8.6980909"><ele>232.0</ele><time>2026-05-02T09:07:27.644Z</time></trkpt><trkpt lat="36.6417621" lon="8.6982193"><ele>231.5</ele><time>2026-05-02T09:07:28.651Z</time></trkpt><trkpt lat="36.6418685" lon="8.6983494"><ele>231.0</ele><time>2026-05-02T09:07:29.642Z</time></trkpt><trkpt lat="36.6419739" lon="8.6984711"><ele>230.33333333333331</ele><time>2026-05-02T09:07:30.651Z</time></trkpt><trkpt lat="36.6420943" lon="8.6985761"><ele>229.66666666666666</ele><time>2026-05-02T09:07:31.636Z</time></trkpt><trkpt lat="36.6422212" lon="8.6986797"><ele>229.0</ele><time>2026-05-02T09:07:32.638Z</time></trkpt><trkpt lat="36.6423576" lon="8.6987741"><ele>228.66666666666666</ele><time>2026-05-02T09:07:33.667Z</time></trkpt><trkpt lat="36.6425068" lon="8.698857"><ele>228.33333333333331</ele><time>2026-05-02T09:07:34.658Z</time></trkpt><trkpt lat="36.6426648" lon="8.6989273"><ele>228.0</ele><time>2026-05-02T09:07:35.671Z</time></trkpt><trkpt lat="36.6428223" lon="8.6989837"><ele>228.66666666666669</ele><time>2026-05-02T09:07:36.655Z</time></trkpt><trkpt lat="36.6429807" lon="8.6990329"><ele>229.33333333333334</ele><time>2026-05-02T09:07:37.628Z</time></trkpt><trkpt lat="36.6431382" lon="8.6990744"><ele>230.0</ele><time>2026-05-02T09:07:38.62Z</time></trkpt><trkpt lat="36.6432924" lon="8.6991095"><ele>230.0</ele><time>2026-05-02T09:07:39.651Z</time></trkpt><trkpt lat="36.6434406" lon="8.6991468"><ele>230.0</ele><time>2026-05-02T09:07:40.636Z</time></trkpt><trkpt lat="36.6435932" lon="8.6991785"><ele>230.0</ele><time>2026-05-02T09:07:41.628Z</time></trkpt><trkpt lat="36.6437437" lon="8.6991944"><ele>231.75</ele><time>2026-05-02T09:07:42.648Z</time></trkpt><trkpt lat="36.6438944" lon="8.6992096"><ele>233.5</ele><time>2026-05-02T09:07:43.64Z</time></trkpt><trkpt lat="36.6440395" lon="8.6992162"><ele>235.25</ele><time>2026-05-02T09:07:44.649Z</time></trkpt><trkpt lat="36.6441889" lon="8.6992159"><ele>237.0</ele><time>2026-05-02T09:07:45.665Z</time></trkpt><trkpt lat="36.64434" lon="8.6992099"><ele>238.25</ele><time>2026-05-02T09:07:46.645Z</time></trkpt><trkpt lat="36.6444904" lon="8.6991977"><ele>239.5</ele><time>2026-05-02T09:07:47.668Z</time></trkpt><trkpt lat="36.6446357" lon="8.699174"><ele>240.75</ele><time>2026-05-02T09:07:48.617Z</time></trkpt><trkpt lat="36.6447776" lon="8.6991419"><ele>242.0</ele><time>2026-05-02T09:07:49.664Z</time></trkpt><trkpt lat="36.644917" lon="8.6991099"><ele>242.0</ele><time>2026-05-02T09:07:50.664Z</time></trkpt><trkpt lat="36.6450567" lon="8.6990698"><ele>242.0</ele><time>2026-05-02T09:07:51.642Z</time></trkpt><trkpt lat="36.6451932" lon="8.6990233"><ele>242.0</ele><time>2026-05-02T09:07:52.661Z</time></trkpt><trkpt lat="36.6453286" lon="8.6989753"><ele>242.0</ele><time>2026-05-02T09:07:53.65Z</time></trkpt><trkpt lat="36.6454635" lon="8.6989264"><ele>242.5</ele><time>2026-05-02T09:07:54.657Z</time></trkpt><trkpt lat="36.6456015" lon="8.6988622"><ele>243.0</ele><time>2026-05-02T09:07:55.633Z</time></trkpt><trkpt lat="36.6457361" lon="8.6988"><ele>243.5</ele><time>2026-05-02T09:07:56.633Z</time></trkpt><trkpt lat="36.6458659" lon="8.6987394"><ele>244.0</ele><time>2026-05-02T09:07:57.651Z</time></trkpt><trkpt lat="36.6459986" lon="8.6986813"><ele>244.25</ele><time>2026-05-02T09:07:58.66Z</time></trkpt><trkpt lat="36.6461284" lon="8.6986143"><ele>244.5</ele><time>2026-05-02T09:07:59.658Z</time></trkpt><trkpt lat="36.6462435" lon="8.6985511"><ele>244.75</ele><time>2026-05-02T09:08:00.643Z</time></trkpt><trkpt lat="36.6463603" lon="8.6984908"><ele>245.0</ele><time>2026-05-02T09:08:01.638Z</time></trkpt><trkpt lat="36.6464796" lon="8.6984308"><ele>245.0</ele><time>2026-05-02T09:08:02.614Z</time></trkpt><trkpt lat="36.6466112" lon="8.6983777"><ele>245.0</ele><time>2026-05-02T09:08:03.655Z</time></trkpt><trkpt lat="36.6467432" lon="8.6983354"><ele>245.0</ele><time>2026-05-02T09:08:04.622Z</time></trkpt><trkpt lat="36.6468714" lon="8.6983033"><ele>245.0</ele><time>2026-05-02T09:08:05.656Z</time></trkpt><trkpt lat="36.6469936" lon="8.698289"><ele>245.25</ele><time>2026-05-02T09:08:06.651Z</time></trkpt><trkpt lat="36.6471234" lon="8.6982911"><ele>245.5</ele><time>2026-05-02T09:08:07.66Z</time></trkpt><trkpt lat="36.6472471" lon="8.6982846"><ele>245.75</ele><time>2026-05-02T09:08:08.647Z</time></trkpt><trkpt lat="36.6473715" lon="8.6982862"><ele>246.0</ele><time>2026-05-02T09:08:09.658Z</time></trkpt><trkpt lat="36.647496" lon="8.6982896"><ele>246.0</ele><time>2026-05-02T09:08:10.657Z</time></trkpt><trkpt lat="36.6476217" lon="8.6982967"><ele>246.0</ele><time>2026-05-02T09:08:11.623Z</time></trkpt><trkpt lat="36.647739" lon="8.6982977"><ele>246.0</ele><time>2026-05-02T09:08:12.662Z</time></trkpt><trkpt lat="36.6478599" lon="8.6982986"><ele>246.0</ele><time>2026-05-02T09:08:13.666Z</time></trkpt><trkpt lat="36.6479766" lon="8.6983031"><ele>246.20000000000002</ele><time>2026-05-02T09:08:14.651Z</time></trkpt><trkpt lat="36.648086" lon="8.6983102"><ele>246.40000000000003</ele><time>2026-05-02T09:08:15.645Z</time></trkpt><trkpt lat="36.6481934" lon="8.6983129"><ele>246.6</ele><time>2026-05-02T09:08:16.65Z</time></trkpt><trkpt lat="36.648299" lon="8.6983156"><ele>246.8</ele><time>2026-05-02T09:08:17.66Z</time></trkpt><trkpt lat="36.6484001" lon="8.6983228"><ele>247.0</ele><time>2026-05-02T09:08:18.653Z</time></trkpt><trkpt lat="36.6485" lon="8.6983257"><ele>247.0</ele><time>2026-05-02T09:08:19.677Z</time></trkpt><trkpt lat="36.6485979" lon="8.6983352"><ele>247.0</ele><time>2026-05-02T09:08:20.652Z</time></trkpt><trkpt lat="36.6486959" lon="8.6983424"><ele>247.0</ele><time>2026-05-02T09:08:21.629Z</time></trkpt><trkpt lat="36.6487883" lon="8.6983449"><ele>247.0</ele><time>2026-05-02T09:08:22.665Z</time></trkpt><trkpt lat="36.648887" lon="8.6983494"><ele>247.0</ele><time>2026-05-02T09:08:23.651Z</time></trkpt><trkpt lat="36.648991" lon="8.6983545"><ele>248.39999999999998</ele><time>2026-05-02T09:08:24.64Z</time></trkpt><trkpt lat="36.6490958" lon="8.6983639"><ele>249.79999999999998</ele><time>2026-05-02T09:08:25.646Z</time></trkpt><trkpt lat="36.6491954" lon="8.6983623"><ele>251.2</ele><time>2026-05-02T09:08:26.64Z</time></trkpt><trkpt lat="36.6492835" lon="8.6983691"><ele>252.6</ele><time>2026-05-02T09:08:27.659Z</time></trkpt><trkpt lat="36.6493687" lon="8.6983739"><ele>254.0</ele><time>2026-05-02T09:08:28.631Z</time></trkpt><trkpt lat="36.6494419" lon="8.6983732"><ele>254.83333333333334</ele><time>2026-05-02T09:08:29.666Z</time></trkpt><trkpt lat="36.6495184" lon="8.6983771"><ele>255.66666666666669</ele><time>2026-05-02T09:08:30.659Z</time></trkpt><trkpt lat="36.6496015" lon="8.6983808"><ele>256.5</ele><time>2026-05-02T09:08:31.663Z</time></trkpt><trkpt lat="36.6496909" lon="8.6983846"><ele>257.3333333333333</ele><time>2026-05-02T09:08:32.649Z</time></trkpt><trkpt lat="36.6497825" lon="8.6983849"><ele>258.16666666666663</ele><time>2026-05-02T09:08:33.653Z</time></trkpt><trkpt lat="36.649878" lon="8.6983798"><ele>259.0</ele><time>2026-05-02T09:08:34.655Z</time></trkpt><trkpt lat="36.6499776" lon="8.698371"><ele>259.0</ele><time>2026-05-02T09:08:35.67Z</time></trkpt><trkpt lat="36.650076" lon="8.6983637"><ele>259.0</ele><time>2026-05-02T09:08:36.634Z</time></trkpt><trkpt lat="36.6501845" lon="8.698363"><ele>259.0</ele><time>2026-05-02T09:08:37.655Z</time></trkpt><trkpt lat="36.6502957" lon="8.6983607"><ele>259.0</ele><time>2026-05-02T09:08:38.641Z</time></trkpt><trkpt lat="36.6504045" lon="8.698352"><ele>259.0</ele><time>2026-05-02T09:08:39.657Z</time></trkpt><trkpt lat="36.6505135" lon="8.6983493"><ele>259.59999999999997</ele><time>2026-05-02T09:08:40.656Z</time></trkpt><trkpt lat="36.6506265" lon="8.698348"><ele>260.2</ele><time>2026-05-02T09:08:41.643Z</time></trkpt><trkpt lat="36.6507374" lon="8.6983458"><ele>260.79999999999995</ele><time>2026-05-02T09:08:42.654Z</time></trkpt><trkpt lat="36.6508433" lon="8.6983392"><ele>261.4</ele><time>2026-05-02T09:08:43.664Z</time></trkpt><trkpt lat="36.6509402" lon="8.6983262"><ele>262.0</ele><time>2026-05-02T09:08:44.666Z</time></trkpt><trkpt lat="36.6510344" lon="8.6983202"><ele>262.8</ele><time>2026-05-02T09:08:45.646Z</time></trkpt><trkpt lat="36.6511311" lon="8.6983183"><ele>263.6</ele><time>2026-05-02T09:08:46.658Z</time></trkpt><trkpt lat="36.6512218" lon="8.6983187"><ele>264.40000000000003</ele><time>2026-05-02T09:08:47.631Z</time></trkpt><trkpt lat="36.6513146" lon="8.6983172"><ele>265.2</ele><time>2026-05-02T09:08:48.656Z</time></trkpt><trkpt lat="36.6514097" lon="8.6983133"><ele>266.0</ele><time>2026-05-02T09:08:49.652Z</time></trkpt><trkpt lat="36.6515017" lon="8.6983105"><ele>266.0</ele><time>2026-05-02T09:08:50.668Z</time></trkpt><trkpt lat="36.6515908" lon="8.69831"><ele>266.0</ele><time>2026-05-02T09:08:51.662Z</time></trkpt><trkpt lat="36.6516832" lon="8.6983082"><ele>266.0</ele><time>2026-05-02T09:08:52.654Z</time></trkpt><trkpt lat="36.6517803" lon="8.6983083"><ele>266.0</ele><time>2026-05-02T09:08:53.666Z</time></trkpt><trkpt lat="36.651878" lon="8.6983003"><ele>266.0</ele><time>2026-05-02T09:08:54.657Z</time></trkpt><trkpt lat="36.6519771" lon="8.6982943"><ele>267.0</ele><time>2026-05-02T09:08:55.655Z</time></trkpt><trkpt lat="36.6520737" lon="8.6982886"><ele>268.0</ele><time>2026-05-02T09:08:56.662Z</time></trkpt><trkpt lat="36.6521805" lon="8.6982859"><ele>269.0</ele><time>2026-05-02T09:08:57.662Z</time></trkpt><trkpt lat="36.6522796" lon="8.6982819"><ele>270.0</ele><time>2026-05-02T09:08:58.654Z</time></trkpt><trkpt lat="36.6523808" lon="8.6982758"><ele>271.0</ele><time>2026-05-02T09:08:59.66Z</time></trkpt><trkpt lat="36.6524772" lon="8.6982647"><ele>271.0</ele><time>2026-05-02T09:09:00.652Z</time></trkpt><trkpt lat="36.6525734" lon="8.6982634"><ele>271.0</ele><time>2026-05-02T09:09:01.667Z</time></trkpt><trkpt lat="36.6526684" lon="8.6982579"><ele>271.0</ele><time>2026-05-02T09:09:02.652Z</time></trkpt><trkpt lat="36.6527553" lon="8.6982562"><ele>271.0</ele><time>2026-05-02T09:09:03.665Z</time></trkpt><trkpt lat="36.6528352" lon="8.6982506"><ele>271.0</ele><time>2026-05-02T09:09:04.654Z</time></trkpt><trkpt lat="36.6529123" lon="8.6982431"><ele>271.0</ele><time>2026-05-02T09:09:05.658Z</time></trkpt><trkpt lat="36.6529893" lon="8.6982434"><ele>271.42857142857144</ele><time>2026-05-02T09:09:06.661Z</time></trkpt><trkpt lat="36.6530632" lon="8.6982423"><ele>271.8571428571429</ele><time>2026-05-02T09:09:07.66Z</time></trkpt><trkpt lat="36.6531357" lon="8.6982458"><ele>272.28571428571433</ele><time>2026-05-02T09:09:08.628Z</time></trkpt><trkpt lat="36.6532077" lon="8.6982411"><ele>272.7142857142857</ele><time>2026-05-02T09:09:09.629Z</time></trkpt><trkpt lat="36.6532771" lon="8.6982332"><ele>273.14285714285717</ele><time>2026-05-02T09:09:10.656Z</time></trkpt><trkpt lat="36.6533538" lon="8.6982326"><ele>273.5714285714286</ele><time>2026-05-02T09:09:11.658Z</time></trkpt><trkpt lat="36.653426" lon="8.69823"><ele>274.0</ele><time>2026-05-02T09:09:12.643Z</time></trkpt><trkpt lat="36.6535018" lon="8.6982235"><ele>274.0</ele><time>2026-05-02T09:09:13.66Z</time></trkpt><trkpt lat="36.6535817" lon="8.6982169"><ele>274.0</ele><time>2026-05-02T09:09:14.655Z</time></trkpt><trkpt lat="36.6536598" lon="8.6982143"><ele>274.0</ele><time>2026-05-02T09:09:15.66Z</time></trkpt><trkpt lat="36.6537397" lon="8.6982074"><ele>274.0</ele><time>2026-05-02T09:09:16.64Z</time></trkpt><trkpt lat="36.6538236" lon="8.6982041"><ele>274.0</ele><time>2026-05-02T09:09:17.642Z</time></trkpt><trkpt lat="36.6538985" lon="8.698194"><ele>274.0</ele><time>2026-05-02T09:09:18.653Z</time></trkpt><trkpt lat="36.6539715" lon="8.6981862"><ele>275.0</ele><time>2026-05-02T09:09:19.655Z</time></trkpt><trkpt lat="36.6540479" lon="8.6981821"><ele>276.0</ele><time>2026-05-02T09:09:20.642Z</time></trkpt><trkpt lat="36.6541261" lon="8.6981738"><ele>277.0</ele><time>2026-05-02T09:09:21.659Z</time></trkpt><trkpt lat="36.6542015" lon="8.6981643"><ele>278.0</ele><time>2026-05-02T09:09:22.632Z</time></trkpt><trkpt lat="36.6542764" lon="8.6981568"><ele>279.0</ele><time>2026-05-02T09:09:23.66Z</time></trkpt><trkpt lat="36.654345" lon="8.6981522"><ele>280.0</ele><time>2026-05-02T09:09:24.651Z</time></trkpt><trkpt lat="36.6544565" lon="8.6981426"><ele>281.2</ele><time>2026-05-02T09:09:26.643Z</time></trkpt><trkpt lat="36.6545412" lon="8.6981331"><ele>282.4</ele><time>2026-05-02T09:09:29.653Z</time></trkpt><trkpt lat="36.6546067" lon="8.6981235"><ele>283.6</ele><time>2026-05-02T09:09:31.657Z</time></trkpt><trkpt lat="36.6546897" lon="8.6980869"><ele>284.8</ele><time>2026-05-02T09:09:33.657Z</time></trkpt><trkpt lat="36.6547946" lon="8.6980563"><ele>286.0</ele><time>2026-05-02T09:09:35.651Z</time></trkpt><trkpt lat="36.6549045" lon="8.698019"><ele>285.99999999999994</ele><time>2026-05-02T09:09:37.649Z</time></trkpt><trkpt lat="36.6549681" lon="8.6980065"><ele>286.0</ele><time>2026-05-02T09:09:38.652Z</time></trkpt><trkpt lat="36.6550373" lon="8.6979862"><ele>286.0</ele><time>2026-05-02T09:09:39.667Z</time></trkpt><trkpt lat="36.655105" lon="8.6979673"><ele>286.0</ele><time>2026-05-02T09:09:40.658Z</time></trkpt><trkpt lat="36.6551704" lon="8.6979406"><ele>286.0</ele><time>2026-05-02T09:09:41.65Z</time></trkpt><trkpt lat="36.6552353" lon="8.6979139"><ele>285.99999999999994</ele><time>2026-05-02T09:09:42.641Z</time></trkpt><trkpt lat="36.6553028" lon="8.6978811"><ele>286.0</ele><time>2026-05-02T09:09:43.656Z</time></trkpt><trkpt lat="36.6553716" lon="8.6978438"><ele>286.2857142857143</ele><time>2026-05-02T09:09:44.656Z</time></trkpt><trkpt lat="36.6554313" lon="8.6978083"><ele>286.57142857142856</ele><time>2026-05-02T09:09:45.653Z</time></trkpt><trkpt lat="36.6554922" lon="8.6977755"><ele>286.8571428571429</ele><time>2026-05-02T09:09:46.648Z</time></trkpt><trkpt lat="36.6555516" lon="8.6977352"><ele>287.1428571428571</ele><time>2026-05-02T09:09:47.639Z</time></trkpt><trkpt lat="36.6556193" lon="8.6977"><ele>287.42857142857144</ele><time>2026-05-02T09:09:48.659Z</time></trkpt><trkpt lat="36.6556814" lon="8.6976649"><ele>287.7142857142857</ele><time>2026-05-02T09:09:49.662Z</time></trkpt><trkpt lat="36.6557478" lon="8.6976196"><ele>288.0</ele><time>2026-05-02T09:09:50.657Z</time></trkpt><trkpt lat="36.6558064" lon="8.697561"><ele>288.0</ele><time>2026-05-02T09:09:51.645Z</time></trkpt><trkpt lat="36.6558691" lon="8.6975025"><ele>288.0</ele><time>2026-05-02T09:09:52.645Z</time></trkpt><trkpt lat="36.6559183" lon="8.6974429"><ele>288.0</ele><time>2026-05-02T09:09:53.656Z</time></trkpt><trkpt lat="36.6559981" lon="8.6973345"><ele>288.0</ele><time>2026-05-02T09:09:55.647Z</time></trkpt><trkpt lat="36.6560516" lon="8.6972382"><ele>288.0</ele><time>2026-05-02T09:09:57.655Z</time></trkpt><trkpt lat="36.6560904" lon="8.6971674"><ele>288.0</ele><time>2026-05-02T09:09:59.65Z</time></trkpt><trkpt lat="36.6561246" lon="8.697098"><ele>287.2</ele><time>2026-05-02T09:10:01.652Z</time></trkpt><trkpt lat="36.6561611" lon="8.6970124"><ele>286.4</ele><time>2026-05-02T09:10:03.648Z</time></trkpt><trkpt lat="36.656201" lon="8.6969139"><ele>285.59999999999997</ele><time>2026-05-02T09:10:05.656Z</time></trkpt><trkpt lat="36.6562569" lon="8.6968117"><ele>284.8</ele><time>2026-05-02T09:10:07.658Z</time></trkpt><trkpt lat="36.656315" lon="8.6966915"><ele>284.0</ele><time>2026-05-02T09:10:09.679Z</time></trkpt><trkpt lat="36.6563644" lon="8.6965887"><ele>285.33333333333337</ele><time>2026-05-02T09:10:11.642Z</time></trkpt><trkpt lat="36.6564023" lon="8.696518"><ele>286.6666666666667</ele><time>2026-05-02T09:10:13.666Z</time></trkpt><trkpt lat="36.6564502" lon="8.6964283"><ele>288.0</ele><time>2026-05-02T09:10:16.668Z</time></trkpt><trkpt lat="36.6564853" lon="8.6963612"><ele>289.3333333333333</ele><time>2026-05-02T09:10:18.65Z</time></trkpt><trkpt lat="36.6565327" lon="8.6962654"><ele>290.66666666666663</ele><time>2026-05-02T09:10:21.662Z</time></trkpt><trkpt lat="36.6565613" lon="8.6961846"><ele>292.0</ele><time>2026-05-02T09:10:24.669Z</time></trkpt><trkpt lat="36.6565989" lon="8.6961064"><ele>291.8</ele><time>2026-05-02T09:10:27.663Z</time></trkpt><trkpt lat="36.656642" lon="8.6960364"><ele>291.6</ele><time>2026-05-02T09:10:30.652Z</time></trkpt><trkpt lat="36.6566695" lon="8.6959422"><ele>291.40000000000003</ele><time>2026-05-02T09:10:33.66Z</time></trkpt><trkpt lat="36.6567102" lon="8.6958541"><ele>291.2</ele><time>2026-05-02T09:10:35.655Z</time></trkpt><trkpt lat="36.6567888" lon="8.6957334"><ele>291.0</ele><time>2026-05-02T09:10:37.666Z</time></trkpt><trkpt lat="36.6568608" lon="8.695598"><ele>291.0</ele><time>2026-05-02T09:10:39.608Z</time></trkpt><trkpt lat="36.6568967" lon="8.6955194"><ele>291.0</ele><time>2026-05-02T09:10:40.658Z</time></trkpt><trkpt lat="36.6569344" lon="8.6954411"><ele>291.0</ele><time>2026-05-02T09:10:41.657Z</time></trkpt><trkpt lat="36.6569713" lon="8.6953662"><ele>291.0</ele><time>2026-05-02T09:10:42.622Z</time></trkpt><trkpt lat="36.6570112" lon="8.6952905"><ele>291.0</ele><time>2026-05-02T09:10:43.663Z</time></trkpt><trkpt lat="36.6570525" lon="8.6952116"><ele>291.0</ele><time>2026-05-02T09:10:44.627Z</time></trkpt><trkpt lat="36.6570976" lon="8.6951308"><ele>291.0</ele><time>2026-05-02T09:10:45.657Z</time></trkpt><trkpt lat="36.6571386" lon="8.6950631"><ele>290.6666666666667</ele><time>2026-05-02T09:10:46.645Z</time></trkpt><trkpt lat="36.6571814" lon="8.6949824"><ele>290.3333333333333</ele><time>2026-05-02T09:10:47.629Z</time></trkpt><trkpt lat="36.657228" lon="8.6949036"><ele>290.0</ele><time>2026-05-02T09:10:48.65Z</time></trkpt><trkpt lat="36.6572754" lon="8.6948287"><ele>289.66666666666663</ele><time>2026-05-02T09:10:49.644Z</time></trkpt><trkpt lat="36.6573258" lon="8.6947455"><ele>289.3333333333333</ele><time>2026-05-02T09:10:50.65Z</time></trkpt><trkpt lat="36.6573761" lon="8.6946615"><ele>289.0</ele><time>2026-05-02T09:10:51.658Z</time></trkpt><trkpt lat="36.6574354" lon="8.694573"><ele>289.0</ele><time>2026-05-02T09:10:52.611Z</time></trkpt><trkpt lat="36.6574867" lon="8.6944857"><ele>289.0</ele><time>2026-05-02T09:10:53.65Z</time></trkpt><trkpt lat="36.6575391" lon="8.6944001"><ele>289.0</ele><time>2026-05-02T09:10:54.63Z</time></trkpt><trkpt lat="36.6575862" lon="8.6943226"><ele>289.0</ele><time>2026-05-02T09:10:55.663Z</time></trkpt><trkpt lat="36.6576374" lon="8.6942458"><ele>289.0</ele><time>2026-05-02T09:10:56.659Z</time></trkpt><trkpt lat="36.6576902" lon="8.6941623"><ele>289.0</ele><time>2026-05-02T09:10:57.656Z</time></trkpt><trkpt lat="36.6577429" lon="8.6940779"><ele>289.0</ele><time>2026-05-02T09:10:58.608Z</time></trkpt><trkpt lat="36.657796" lon="8.6939924"><ele>289.0</ele><time>2026-05-02T09:10:59.622Z</time></trkpt><trkpt lat="36.6578471" lon="8.6939033"><ele>289.0</ele><time>2026-05-02T09:11:00.638Z</time></trkpt><trkpt lat="36.6578968" lon="8.6938138"><ele>289.0</ele><time>2026-05-02T09:11:01.646Z</time></trkpt><trkpt lat="36.6579472" lon="8.6937235"><ele>289.0</ele><time>2026-05-02T09:11:02.65Z</time></trkpt><trkpt lat="36.6580007" lon="8.6936369"><ele>289.0</ele><time>2026-05-02T09:11:03.625Z</time></trkpt><trkpt lat="36.6580602" lon="8.6935446"><ele>289.8</ele><time>2026-05-02T09:11:04.652Z</time></trkpt><trkpt lat="36.6581213" lon="8.6934415"><ele>290.59999999999997</ele><time>2026-05-02T09:11:05.654Z</time></trkpt><trkpt lat="36.6581795" lon="8.6933444"><ele>291.4</ele><time>2026-05-02T09:11:06.654Z</time></trkpt><trkpt lat="36.6582363" lon="8.6932484"><ele>292.2</ele><time>2026-05-02T09:11:07.656Z</time></trkpt><trkpt lat="36.6582951" lon="8.6931556"><ele>293.0</ele><time>2026-05-02T09:11:08.665Z</time></trkpt><trkpt lat="36.6583549" lon="8.6930631"><ele>293.0</ele><time>2026-05-02T09:11:09.654Z</time></trkpt><trkpt lat="36.658415" lon="8.6929668"><ele>293.0</ele><time>2026-05-02T09:11:10.647Z</time></trkpt><trkpt lat="36.6584725" lon="8.6928695"><ele>293.0</ele><time>2026-05-02T09:11:11.658Z</time></trkpt><trkpt lat="36.6585339" lon="8.6927699"><ele>293.0</ele><time>2026-05-02T09:11:12.652Z</time></trkpt><trkpt lat="36.658594" lon="8.6926745"><ele>293.0</ele><time>2026-05-02T09:11:13.651Z</time></trkpt><trkpt lat="36.6586578" lon="8.6925725"><ele>292.0</ele><time>2026-05-02T09:11:14.652Z</time></trkpt><trkpt lat="36.6587219" lon="8.6924735"><ele>291.0</ele><time>2026-05-02T09:11:15.682Z</time></trkpt><trkpt lat="36.6587864" lon="8.692381"><ele>290.0</ele><time>2026-05-02T09:11:16.673Z</time></trkpt><trkpt lat="36.658847" lon="8.6922877"><ele>289.0</ele><time>2026-05-02T09:11:17.607Z</time></trkpt><trkpt lat="36.6589055" lon="8.6921889"><ele>288.0</ele><time>2026-05-02T09:11:18.61Z</time></trkpt><trkpt lat="36.6589646" lon="8.6920946"><ele>288.0</ele><time>2026-05-02T09:11:19.608Z</time></trkpt><trkpt lat="36.6590206" lon="8.692"><ele>288.0</ele><time>2026-05-02T09:11:20.633Z</time></trkpt><trkpt lat="36.6590762" lon="8.6919068"><ele>288.0</ele><time>2026-05-02T09:11:21.631Z</time></trkpt><trkpt lat="36.6591294" lon="8.6918229"><ele>288.0</ele><time>2026-05-02T09:11:22.647Z</time></trkpt><trkpt lat="36.6591866" lon="8.6917428"><ele>288.0</ele><time>2026-05-02T09:11:23.63Z</time></trkpt><trkpt lat="36.6592452" lon="8.691669"><ele>288.0</ele><time>2026-05-02T09:11:24.666Z</time></trkpt><trkpt lat="36.6592993" lon="8.6915822"><ele>288.8</ele><time>2026-05-02T09:11:25.643Z</time></trkpt><trkpt lat="36.6593568" lon="8.6914911"><ele>289.6</ele><time>2026-05-02T09:11:26.637Z</time></trkpt><trkpt lat="36.6594144" lon="8.691399"><ele>290.4</ele><time>2026-05-02T09:11:27.617Z</time></trkpt><trkpt lat="36.6594748" lon="8.6913035"><ele>291.2</ele><time>2026-05-02T09:11:28.635Z</time></trkpt><trkpt lat="36.6595326" lon="8.6912077"><ele>292.0</ele><time>2026-05-02T09:11:29.651Z</time></trkpt><trkpt lat="36.6595909" lon="8.691109"><ele>291.6</ele><time>2026-05-02T09:11:30.635Z</time></trkpt><trkpt lat="36.6596542" lon="8.6910102"><ele>291.2</ele><time>2026-05-02T09:11:31.656Z</time></trkpt><trkpt lat="36.6597175" lon="8.6909155"><ele>290.8</ele><time>2026-05-02T09:11:32.635Z</time></trkpt><trkpt lat="36.6597831" lon="8.690818"><ele>290.4</ele><time>2026-05-02T09:11:33.644Z</time></trkpt><trkpt lat="36.659837" lon="8.690722"><ele>290.0</ele><time>2026-05-02T09:11:34.646Z</time></trkpt><trkpt lat="36.6598993" lon="8.6906257"><ele>290.0</ele><time>2026-05-02T09:11:35.661Z</time></trkpt><trkpt lat="36.6599683" lon="8.6905129"><ele>290.0</ele><time>2026-05-02T09:11:36.668Z</time></trkpt><trkpt lat="36.6600348" lon="8.6904051"><ele>290.0</ele><time>2026-05-02T09:11:37.641Z</time></trkpt><trkpt lat="36.6600969" lon="8.6902982"><ele>290.0</ele><time>2026-05-02T09:11:38.656Z</time></trkpt><trkpt lat="36.6601604" lon="8.6901928"><ele>290.0</ele><time>2026-05-02T09:11:39.663Z</time></trkpt><trkpt lat="36.6602274" lon="8.6900927"><ele>289.4</ele><time>2026-05-02T09:11:40.649Z</time></trkpt><trkpt lat="36.6602871" lon="8.6899835"><ele>288.8</ele><time>2026-05-02T09:11:41.647Z</time></trkpt><trkpt lat="36.6603463" lon="8.6898897"><ele>288.2</ele><time>2026-05-02T09:11:42.661Z</time></trkpt><trkpt lat="36.6604106" lon="8.6897797"><ele>287.6</ele><time>2026-05-02T09:11:43.65Z</time></trkpt><trkpt lat="36.6604862" lon="8.6896595"><ele>287.0</ele><time>2026-05-02T09:11:44.654Z</time></trkpt><trkpt lat="36.6605596" lon="8.6895317"><ele>288.75</ele><time>2026-05-02T09:11:45.666Z</time></trkpt><trkpt lat="36.6606309" lon="8.6894028"><ele>290.5</ele><time>2026-05-02T09:11:46.664Z</time></trkpt><trkpt lat="36.6607027" lon="8.6892837"><ele>292.25</ele><time>2026-05-02T09:11:47.623Z</time></trkpt><trkpt lat="36.6607673" lon="8.6891702"><ele>294.0</ele><time>2026-05-02T09:11:48.626Z</time></trkpt><trkpt lat="36.6608322" lon="8.6890576"><ele>294.0</ele><time>2026-05-02T09:11:49.617Z</time></trkpt><trkpt lat="36.6609077" lon="8.6889444"><ele>294.0</ele><time>2026-05-02T09:11:50.655Z</time></trkpt><trkpt lat="36.6609802" lon="8.6888282"><ele>294.0</ele><time>2026-05-02T09:11:51.628Z</time></trkpt><trkpt lat="36.6610529" lon="8.6887187"><ele>294.0</ele><time>2026-05-02T09:11:52.604Z</time></trkpt><trkpt lat="36.6611256" lon="8.6886006"><ele>292.0</ele><time>2026-05-02T09:11:53.644Z</time></trkpt><trkpt lat="36.6611886" lon="8.6884777"><ele>290.0</ele><time>2026-05-02T09:11:54.705Z</time></trkpt><trkpt lat="36.6612653" lon="8.6883555"><ele>288.0</ele><time>2026-05-02T09:11:55.608Z</time></trkpt><trkpt lat="36.6614194" lon="8.6881523"><ele>288.0</ele><time>2026-05-02T09:11:57.643Z</time></trkpt><trkpt lat="36.6615028" lon="8.6880724"><ele>288.0</ele><time>2026-05-02T09:11:58.623Z</time></trkpt><trkpt lat="36.6616" lon="8.6880152"><ele>288.0</ele><time>2026-05-02T09:11:59.604Z</time></trkpt><trkpt lat="36.6617008" lon="8.6879664"><ele>288.0</ele><time>2026-05-02T09:12:00.601Z</time></trkpt><trkpt lat="36.6617917" lon="8.6879249"><ele>288.0</ele><time>2026-05-02T09:12:01.606Z</time></trkpt><trkpt lat="36.6618868" lon="8.6878727"><ele>287.4</ele><time>2026-05-02T09:12:02.673Z</time></trkpt><trkpt lat="36.6619815" lon="8.6878265"><ele>286.8</ele><time>2026-05-02T09:12:03.665Z</time></trkpt><trkpt lat="36.6620861" lon="8.687783"><ele>286.2</ele><time>2026-05-02T09:12:04.603Z</time></trkpt><trkpt lat="36.6621957" lon="8.6877475"><ele>285.6</ele><time>2026-05-02T09:12:05.614Z</time></trkpt><trkpt lat="36.6623136" lon="8.6877263"><ele>285.0</ele><time>2026-05-02T09:12:06.671Z</time></trkpt><trkpt lat="36.6624376" lon="8.6877177"><ele>287.0</ele><time>2026-05-02T09:12:07.653Z</time></trkpt><trkpt lat="36.6625591" lon="8.687712"><ele>289.0</ele><time>2026-05-02T09:12:08.612Z</time></trkpt><trkpt lat="36.6626858" lon="8.6877167"><ele>291.0</ele><time>2026-05-02T09:12:09.62Z</time></trkpt><trkpt lat="36.6628173" lon="8.6877204"><ele>293.0</ele><time>2026-05-02T09:12:10.681Z</time></trkpt><trkpt lat="36.6629552" lon="8.6877292"><ele>293.25</ele><time>2026-05-02T09:12:11.618Z</time></trkpt><trkpt lat="36.6630887" lon="8.6877246"><ele>293.5</ele><time>2026-05-02T09:12:12.634Z</time></trkpt><trkpt lat="36.6632187" lon="8.6877167"><ele>293.75</ele><time>2026-05-02T09:12:13.623Z</time></trkpt><trkpt lat="36.663348" lon="8.6876918"><ele>294.0</ele><time>2026-05-02T09:12:14.605Z</time></trkpt><trkpt lat="36.663483" lon="8.6876561"><ele>291.25</ele><time>2026-05-02T09:12:15.638Z</time></trkpt><trkpt lat="36.6636237" lon="8.6876074"><ele>288.5</ele><time>2026-05-02T09:12:16.655Z</time></trkpt><trkpt lat="36.6637598" lon="8.6875287"><ele>285.75</ele><time>2026-05-02T09:12:17.659Z</time></trkpt><trkpt lat="36.6638875" lon="8.6874277"><ele>283.0</ele><time>2026-05-02T09:12:18.621Z</time></trkpt><trkpt lat="36.664005" lon="8.6872906"><ele>283.0</ele><time>2026-05-02T09:12:19.673Z</time></trkpt><trkpt lat="36.6641105" lon="8.6871382"><ele>283.0</ele><time>2026-05-02T09:12:20.618Z</time></trkpt><trkpt lat="36.6642101" lon="8.6869877"><ele>283.0</ele><time>2026-05-02T09:12:21.617Z</time></trkpt><trkpt lat="36.6643243" lon="8.6868509"><ele>284.3333333333333</ele><time>2026-05-02T09:12:22.669Z</time></trkpt><trkpt lat="36.6644594" lon="8.6867413"><ele>285.6666666666667</ele><time>2026-05-02T09:12:23.625Z</time></trkpt><trkpt lat="36.664611" lon="8.686641"><ele>287.0</ele><time>2026-05-02T09:12:24.661Z</time></trkpt><trkpt lat="36.6647561" lon="8.6865511"><ele>287.0</ele><time>2026-05-02T09:12:25.662Z</time></trkpt><trkpt lat="36.6648893" lon="8.6864666"><ele>287.0</ele><time>2026-05-02T09:12:26.639Z</time></trkpt><trkpt lat="36.6650119" lon="8.6863876"><ele>287.0</ele><time>2026-05-02T09:12:27.641Z</time></trkpt><trkpt lat="36.6651315" lon="8.6863088"><ele>287.0</ele><time>2026-05-02T09:12:28.676Z</time></trkpt><trkpt lat="36.6652498" lon="8.6862244"><ele>287.5</ele><time>2026-05-02T09:12:29.629Z</time></trkpt><trkpt lat="36.6653704" lon="8.6861325"><ele>288.0</ele><time>2026-05-02T09:12:30.617Z</time></trkpt><trkpt lat="36.6654926" lon="8.6860404"><ele>288.5</ele><time>2026-05-02T09:12:31.641Z</time></trkpt><trkpt lat="36.6656164" lon="8.6859482"><ele>289.0</ele><time>2026-05-02T09:12:32.639Z</time></trkpt><trkpt lat="36.6657477" lon="8.685853"><ele>289.0</ele><time>2026-05-02T09:12:33.632Z</time></trkpt><trkpt lat="36.665881" lon="8.6857581"><ele>289.0</ele><time>2026-05-02T09:12:34.66Z</time></trkpt><trkpt lat="36.6660196" lon="8.6856617"><ele>289.0</ele><time>2026-05-02T09:12:35.65Z</time></trkpt><trkpt lat="36.6661551" lon="8.685571"><ele>288.25</ele><time>2026-05-02T09:12:36.642Z</time></trkpt><trkpt lat="36.6662798" lon="8.6854784"><ele>287.5</ele><time>2026-05-02T09:12:37.655Z</time></trkpt><trkpt lat="36.666403" lon="8.6853913"><ele>286.75</ele><time>2026-05-02T09:12:38.657Z</time></trkpt><trkpt lat="36.6665286" lon="8.6852992"><ele>286.0</ele><time>2026-05-02T09:12:39.65Z</time></trkpt><trkpt lat="36.6666428" lon="8.685187"><ele>286.0</ele><time>2026-05-02T09:12:40.641Z</time></trkpt><trkpt lat="36.6667469" lon="8.6850541"><ele>286.0</ele><time>2026-05-02T09:12:41.654Z</time></trkpt><trkpt lat="36.6668438" lon="8.6848954"><ele>286.0</ele><time>2026-05-02T09:12:42.615Z</time></trkpt><trkpt lat="36.666948" lon="8.6847179"><ele>284.0</ele><time>2026-05-02T09:12:43.64Z</time></trkpt><trkpt lat="36.6670504" lon="8.6845446"><ele>282.0</ele><time>2026-05-02T09:12:44.638Z</time></trkpt><trkpt lat="36.6671535" lon="8.684371"><ele>280.0</ele><time>2026-05-02T09:12:45.638Z</time></trkpt><trkpt lat="36.667257" lon="8.6841953"><ele>280.0</ele><time>2026-05-02T09:12:46.642Z</time></trkpt><trkpt lat="36.6673599" lon="8.6840244"><ele>280.0</ele><time>2026-05-02T09:12:47.651Z</time></trkpt><trkpt lat="36.6674615" lon="8.6838534"><ele>280.0</ele><time>2026-05-02T09:12:48.657Z</time></trkpt><trkpt lat="36.6675586" lon="8.6836883"><ele>281.0</ele><time>2026-05-02T09:12:49.639Z</time></trkpt><trkpt lat="36.6676529" lon="8.6835265"><ele>282.0</ele><time>2026-05-02T09:12:50.635Z</time></trkpt><trkpt lat="36.6677473" lon="8.6833566"><ele>283.0</ele><time>2026-05-02T09:12:51.646Z</time></trkpt><trkpt lat="36.6678499" lon="8.6831898"><ele>281.3333333333333</ele><time>2026-05-02T09:12:52.664Z</time></trkpt><trkpt lat="36.6679534" lon="8.6830246"><ele>279.6666666666667</ele><time>2026-05-02T09:12:53.646Z</time></trkpt><trkpt lat="36.6680459" lon="8.6828585"><ele>278.0</ele><time>2026-05-02T09:12:54.624Z</time></trkpt><trkpt lat="36.6681428" lon="8.6826925"><ele>278.0</ele><time>2026-05-02T09:12:55.659Z</time></trkpt><trkpt lat="36.6682357" lon="8.6825319"><ele>278.0</ele><time>2026-05-02T09:12:56.668Z</time></trkpt><trkpt lat="36.6683282" lon="8.682372"><ele>278.0</ele><time>2026-05-02T09:12:57.617Z</time></trkpt><trkpt lat="36.6684185" lon="8.6822159"><ele>278.0</ele><time>2026-05-02T09:12:58.642Z</time></trkpt><trkpt lat="36.6685125" lon="8.6820644"><ele>278.0</ele><time>2026-05-02T09:12:59.632Z</time></trkpt><trkpt lat="36.6686023" lon="8.6819197"><ele>278.0</ele><time>2026-05-02T09:13:00.643Z</time></trkpt><trkpt lat="36.6686916" lon="8.6817775"><ele>278.0</ele><time>2026-05-02T09:13:01.661Z</time></trkpt><trkpt lat="36.6687827" lon="8.6816355"><ele>278.0</ele><time>2026-05-02T09:13:02.658Z</time></trkpt><trkpt lat="36.6688781" lon="8.6814989"><ele>278.0</ele><time>2026-05-02T09:13:03.623Z</time></trkpt><trkpt lat="36.6689837" lon="8.6813733"><ele>278.0</ele><time>2026-05-02T09:13:04.658Z</time></trkpt><trkpt lat="36.6691052" lon="8.6812607"><ele>278.0</ele><time>2026-05-02T09:13:05.633Z</time></trkpt><trkpt lat="36.669238" lon="8.6811727"><ele>278.0</ele><time>2026-05-02T09:13:06.649Z</time></trkpt><trkpt lat="36.6693742" lon="8.6811014"><ele>278.0</ele><time>2026-05-02T09:13:07.65Z</time></trkpt><trkpt lat="36.6695113" lon="8.6810307"><ele>278.0</ele><time>2026-05-02T09:13:08.633Z</time></trkpt><trkpt lat="36.669645" lon="8.6809681"><ele>278.0</ele><time>2026-05-02T09:13:09.665Z</time></trkpt><trkpt lat="36.669766" lon="8.6809075"><ele>278.5</ele><time>2026-05-02T09:13:10.647Z</time></trkpt><trkpt lat="36.6698868" lon="8.6808438"><ele>279.0</ele><time>2026-05-02T09:13:11.668Z</time></trkpt><trkpt lat="36.6700062" lon="8.6807825"><ele>279.5</ele><time>2026-05-02T09:13:12.661Z</time></trkpt><trkpt lat="36.6701332" lon="8.6807233"><ele>280.0</ele><time>2026-05-02T09:13:13.654Z</time></trkpt><trkpt lat="36.6702593" lon="8.6806567"><ele>283.25</ele><time>2026-05-02T09:13:14.667Z</time></trkpt><trkpt lat="36.6703899" lon="8.68059"><ele>286.5</ele><time>2026-05-02T09:13:15.662Z</time></trkpt><trkpt lat="36.6705162" lon="8.680526"><ele>289.75</ele><time>2026-05-02T09:13:16.655Z</time></trkpt><trkpt lat="36.6706424" lon="8.6804612"><ele>293.0</ele><time>2026-05-02T09:13:17.659Z</time></trkpt><trkpt lat="36.6707684" lon="8.6803946"><ele>293.0</ele><time>2026-05-02T09:13:18.655Z</time></trkpt><trkpt lat="36.670898" lon="8.6803273"><ele>293.0</ele><time>2026-05-02T09:13:19.636Z</time></trkpt><trkpt lat="36.6710256" lon="8.6802591"><ele>293.0</ele><time>2026-05-02T09:13:20.63Z</time></trkpt><trkpt lat="36.6711495" lon="8.6801908"><ele>293.0</ele><time>2026-05-02T09:13:21.658Z</time></trkpt><trkpt lat="36.6712737" lon="8.6801224"><ele>291.5</ele><time>2026-05-02T09:13:22.627Z</time></trkpt><trkpt lat="36.6713956" lon="8.6800618"><ele>290.0</ele><time>2026-05-02T09:13:23.629Z</time></trkpt><trkpt lat="36.6715164" lon="8.6799963"><ele>288.5</ele><time>2026-05-02T09:13:24.65Z</time></trkpt><trkpt lat="36.671637" lon="8.6799246"><ele>287.0</ele><time>2026-05-02T09:13:25.654Z</time></trkpt><trkpt lat="36.6717522" lon="8.6798597"><ele>287.0</ele><time>2026-05-02T09:13:26.637Z</time></trkpt><trkpt lat="36.6718711" lon="8.6797969"><ele>287.0</ele><time>2026-05-02T09:13:27.627Z</time></trkpt><trkpt lat="36.6719898" lon="8.6797321"><ele>287.0</ele><time>2026-05-02T09:13:28.636Z</time></trkpt><trkpt lat="36.6721104" lon="8.6796684"><ele>287.0</ele><time>2026-05-02T09:13:29.658Z</time></trkpt><trkpt lat="36.6722283" lon="8.6796057"><ele>290.0</ele><time>2026-05-02T09:13:30.665Z</time></trkpt><trkpt lat="36.6723486" lon="8.6795461"><ele>293.0</ele><time>2026-05-02T09:13:31.625Z</time></trkpt><trkpt lat="36.6724732" lon="8.6794945"><ele>296.0</ele><time>2026-05-02T09:13:32.67Z</time></trkpt><trkpt lat="36.6725919" lon="8.6794578"><ele>299.0</ele><time>2026-05-02T09:13:33.63Z</time></trkpt><trkpt lat="36.6727123" lon="8.6794451"><ele>299.5</ele><time>2026-05-02T09:13:34.655Z</time></trkpt><trkpt lat="36.6728423" lon="8.6794721"><ele>300.0</ele><time>2026-05-02T09:13:35.647Z</time></trkpt><trkpt lat="36.6729607" lon="8.6795281"><ele>300.5</ele><time>2026-05-02T09:13:36.651Z</time></trkpt><trkpt lat="36.6730836" lon="8.6796076"><ele>301.0</ele><time>2026-05-02T09:13:37.648Z</time></trkpt><trkpt lat="36.6732323" lon="8.6797005"><ele>301.0</ele><time>2026-05-02T09:13:38.643Z</time></trkpt><trkpt lat="36.6733862" lon="8.6797938"><ele>301.0</ele><time>2026-05-02T09:13:39.653Z</time></trkpt><trkpt lat="36.6735404" lon="8.6798753"><ele>301.0</ele><time>2026-05-02T09:13:40.648Z</time></trkpt><trkpt lat="36.673698" lon="8.6799517"><ele>298.0</ele><time>2026-05-02T09:13:41.656Z</time></trkpt><trkpt lat="36.6738666" lon="8.6800196"><ele>295.0</ele><time>2026-05-02T09:13:42.644Z</time></trkpt><trkpt lat="36.6740308" lon="8.6800876"><ele>292.0</ele><time>2026-05-02T09:13:43.644Z</time></trkpt><trkpt lat="36.6741892" lon="8.6801356"><ele>292.0</ele><time>2026-05-02T09:13:44.629Z</time></trkpt><trkpt lat="36.6743377" lon="8.6801693"><ele>292.0</ele><time>2026-05-02T09:13:45.67Z</time></trkpt><trkpt lat="36.6744712" lon="8.6802002"><ele>292.0</ele><time>2026-05-02T09:13:46.626Z</time></trkpt><trkpt lat="36.6745916" lon="8.6802469"><ele>292.0</ele><time>2026-05-02T09:13:47.65Z</time></trkpt><trkpt lat="36.6747001" lon="8.6803309"><ele>293.5</ele><time>2026-05-02T09:13:48.66Z</time></trkpt><trkpt lat="36.6748041" lon="8.6804304"><ele>295.0</ele><time>2026-05-02T09:13:49.648Z</time></trkpt><trkpt lat="36.6748948" lon="8.680555"><ele>296.5</ele><time>2026-05-02T09:13:50.654Z</time></trkpt><trkpt lat="36.6749851" lon="8.6807008"><ele>298.0</ele><time>2026-05-02T09:13:51.656Z</time></trkpt><trkpt lat="36.6750924" lon="8.6808787"><ele>298.0</ele><time>2026-05-02T09:13:52.623Z</time></trkpt><trkpt lat="36.6752007" lon="8.6810748"><ele>298.0</ele><time>2026-05-02T09:13:53.632Z</time></trkpt><trkpt lat="36.6753244" lon="8.6812633"><ele>298.0</ele><time>2026-05-02T09:13:54.648Z</time></trkpt><trkpt lat="36.6754615" lon="8.68145"><ele>297.0</ele><time>2026-05-02T09:13:55.647Z</time></trkpt><trkpt lat="36.6755912" lon="8.681626"><ele>296.0</ele><time>2026-05-02T09:13:56.665Z</time></trkpt><trkpt lat="36.6757174" lon="8.6817787"><ele>295.0</ele><time>2026-05-02T09:13:57.65Z</time></trkpt><trkpt lat="36.6758241" lon="8.6819079"><ele>296.66666666666663</ele><time>2026-05-02T09:13:58.639Z</time></trkpt><trkpt lat="36.6759353" lon="8.6820306"><ele>298.3333333333333</ele><time>2026-05-02T09:13:59.618Z</time></trkpt><trkpt lat="36.6760703" lon="8.6821266"><ele>300.0</ele><time>2026-05-02T09:14:00.632Z</time></trkpt><trkpt lat="36.6762112" lon="8.6821898"><ele>300.0</ele><time>2026-05-02T09:14:01.637Z</time></trkpt><trkpt lat="36.6763752" lon="8.6822214"><ele>300.0</ele><time>2026-05-02T09:14:02.652Z</time></trkpt><trkpt lat="36.6765654" lon="8.6822322"><ele>300.0</ele><time>2026-05-02T09:14:03.657Z</time></trkpt><trkpt lat="36.6767695" lon="8.6822216"><ele>300.0</ele><time>2026-05-02T09:14:04.654Z</time></trkpt><trkpt lat="36.6769587" lon="8.6821963"><ele>300.0</ele><time>2026-05-02T09:14:05.659Z</time></trkpt><trkpt lat="36.6771364" lon="8.682173"><ele>300.0</ele><time>2026-05-02T09:14:06.646Z</time></trkpt><trkpt lat="36.6772863" lon="8.682153"><ele>300.0</ele><time>2026-05-02T09:14:07.656Z</time></trkpt><trkpt lat="36.6774273" lon="8.6821377"><ele>300.0</ele><time>2026-05-02T09:14:08.638Z</time></trkpt><trkpt lat="36.67756" lon="8.6821118"><ele>300.0</ele><time>2026-05-02T09:14:09.662Z</time></trkpt><trkpt lat="36.6776935" lon="8.6820828"><ele>300.0</ele><time>2026-05-02T09:14:10.665Z</time></trkpt><trkpt lat="36.6778274" lon="8.6820544"><ele>300.75</ele><time>2026-05-02T09:14:11.617Z</time></trkpt><trkpt lat="36.6779645" lon="8.6820264"><ele>301.5</ele><time>2026-05-02T09:14:12.609Z</time></trkpt><trkpt lat="36.6780849" lon="8.6819931"><ele>302.25</ele><time>2026-05-02T09:14:13.654Z</time></trkpt><trkpt lat="36.6782066" lon="8.6819342"><ele>303.0</ele><time>2026-05-02T09:14:14.634Z</time></trkpt><trkpt lat="36.6783174" lon="8.6818704"><ele>303.75</ele><time>2026-05-02T09:14:15.66Z</time></trkpt><trkpt lat="36.6784177" lon="8.681792"><ele>304.5</ele><time>2026-05-02T09:14:16.615Z</time></trkpt><trkpt lat="36.6785223" lon="8.6817051"><ele>305.25</ele><time>2026-05-02T09:14:17.603Z</time></trkpt><trkpt lat="36.6786254" lon="8.6816154"><ele>306.0</ele><time>2026-05-02T09:14:18.66Z</time></trkpt><trkpt lat="36.6787313" lon="8.6815166"><ele>306.0</ele><time>2026-05-02T09:14:19.656Z</time></trkpt><trkpt lat="36.6788389" lon="8.6814232"><ele>306.0</ele><time>2026-05-02T09:14:20.644Z</time></trkpt><trkpt lat="36.6789432" lon="8.6813374"><ele>306.0</ele><time>2026-05-02T09:14:21.671Z</time></trkpt><trkpt lat="36.6790422" lon="8.6812684"><ele>306.0</ele><time>2026-05-02T09:14:22.628Z</time></trkpt><trkpt lat="36.6791318" lon="8.6812075"><ele>306.0</ele><time>2026-05-02T09:14:23.661Z</time></trkpt><trkpt lat="36.6792302" lon="8.6811478"><ele>306.0</ele><time>2026-05-02T09:14:24.634Z</time></trkpt><trkpt lat="36.6793285" lon="8.6810924"><ele>306.0</ele><time>2026-05-02T09:14:25.649Z</time></trkpt><trkpt lat="36.6794361" lon="8.6810461"><ele>306.0</ele><time>2026-05-02T09:14:26.652Z</time></trkpt><trkpt lat="36.6795409" lon="8.681004"><ele>306.0</ele><time>2026-05-02T09:14:27.65Z</time></trkpt><trkpt lat="36.6796514" lon="8.6809653"><ele>305.75</ele><time>2026-05-02T09:14:28.657Z</time></trkpt><trkpt lat="36.679776" lon="8.6809178"><ele>305.5</ele><time>2026-05-02T09:14:29.654Z</time></trkpt><trkpt lat="36.6799054" lon="8.6808721"><ele>305.25</ele><time>2026-05-02T09:14:30.634Z</time></trkpt><trkpt lat="36.6800404" lon="8.6808164"><ele>305.0</ele><time>2026-05-02T09:14:31.644Z</time></trkpt><trkpt lat="36.6801775" lon="8.6807652"><ele>305.25</ele><time>2026-05-02T09:14:32.61Z</time></trkpt><trkpt lat="36.6803176" lon="8.6807119"><ele>305.5</ele><time>2026-05-02T09:14:33.661Z</time></trkpt><trkpt lat="36.6804612" lon="8.6806709"><ele>305.75</ele><time>2026-05-02T09:14:34.629Z</time></trkpt><trkpt lat="36.6805985" lon="8.6806279"><ele>306.0</ele><time>2026-05-02T09:14:35.651Z</time></trkpt><trkpt lat="36.6807521" lon="8.6805796"><ele>306.0</ele><time>2026-05-02T09:14:36.644Z</time></trkpt><trkpt lat="36.6809003" lon="8.6805267"><ele>306.0</ele><time>2026-05-02T09:14:37.661Z</time></trkpt><trkpt lat="36.6810418" lon="8.6804745"><ele>306.0</ele><time>2026-05-02T09:14:38.652Z</time></trkpt><trkpt lat="36.6811818" lon="8.6804222"><ele>306.0</ele><time>2026-05-02T09:14:39.647Z</time></trkpt><trkpt lat="36.6813141" lon="8.6803734"><ele>306.0</ele><time>2026-05-02T09:14:40.664Z</time></trkpt><trkpt lat="36.681449" lon="8.6803273"><ele>306.0</ele><time>2026-05-02T09:14:41.657Z</time></trkpt><trkpt lat="36.6815837" lon="8.6802804"><ele>306.0</ele><time>2026-05-02T09:14:42.651Z</time></trkpt><trkpt lat="36.681719" lon="8.6802344"><ele>306.0</ele><time>2026-05-02T09:14:43.64Z</time></trkpt><trkpt lat="36.6818516" lon="8.6801912"><ele>306.5</ele><time>2026-05-02T09:14:44.644Z</time></trkpt><trkpt lat="36.6819852" lon="8.6801439"><ele>307.0</ele><time>2026-05-02T09:14:45.644Z</time></trkpt><trkpt lat="36.682118" lon="8.6801003"><ele>307.5</ele><time>2026-05-02T09:14:46.653Z</time></trkpt><trkpt lat="36.6822427" lon="8.6800611"><ele>308.0</ele><time>2026-05-02T09:14:47.66Z</time></trkpt><trkpt lat="36.6823673" lon="8.6800308"><ele>308.0</ele><time>2026-05-02T09:14:48.661Z</time></trkpt><trkpt lat="36.6824974" lon="8.6800251"><ele>308.0</ele><time>2026-05-02T09:14:49.656Z</time></trkpt><trkpt lat="36.6826294" lon="8.6800536"><ele>308.0</ele><time>2026-05-02T09:14:50.635Z</time></trkpt><trkpt lat="36.6827554" lon="8.6801092"><ele>308.0</ele><time>2026-05-02T09:14:51.614Z</time></trkpt><trkpt lat="36.6828863" lon="8.6801756"><ele>307.6666666666667</ele><time>2026-05-02T09:14:52.648Z</time></trkpt><trkpt lat="36.6830201" lon="8.6802475"><ele>307.3333333333333</ele><time>2026-05-02T09:14:53.643Z</time></trkpt><trkpt lat="36.6831583" lon="8.680326"><ele>307.0</ele><time>2026-05-02T09:14:54.624Z</time></trkpt><trkpt lat="36.6832932" lon="8.6804189"><ele>309.5</ele><time>2026-05-02T09:14:55.641Z</time></trkpt><trkpt lat="36.6834227" lon="8.6805144"><ele>312.0</ele><time>2026-05-02T09:14:56.658Z</time></trkpt><trkpt lat="36.6835495" lon="8.6806153"><ele>314.5</ele><time>2026-05-02T09:14:57.649Z</time></trkpt><trkpt lat="36.6836763" lon="8.680697"><ele>317.0</ele><time>2026-05-02T09:14:58.639Z</time></trkpt><trkpt lat="36.6838122" lon="8.6807742"><ele>317.0</ele><time>2026-05-02T09:14:59.642Z</time></trkpt><trkpt lat="36.6839509" lon="8.6808464"><ele>317.0</ele><time>2026-05-02T09:15:00.633Z</time></trkpt><trkpt lat="36.6840887" lon="8.6809301"><ele>317.0</ele><time>2026-05-02T09:15:01.632Z</time></trkpt><trkpt lat="36.68423" lon="8.6810131"><ele>317.0</ele><time>2026-05-02T09:15:02.647Z</time></trkpt><trkpt lat="36.684363" lon="8.6810986"><ele>317.0</ele><time>2026-05-02T09:15:03.642Z</time></trkpt><trkpt lat="36.6844986" lon="8.6811801"><ele>317.0</ele><time>2026-05-02T09:15:04.658Z</time></trkpt><trkpt lat="36.6846366" lon="8.6812656"><ele>318.33333333333337</ele><time>2026-05-02T09:15:05.651Z</time></trkpt><trkpt lat="36.6847787" lon="8.6813471"><ele>319.6666666666667</ele><time>2026-05-02T09:15:06.625Z</time></trkpt><trkpt lat="36.6849197" lon="8.6814204"><ele>321.0</ele><time>2026-05-02T09:15:07.64Z</time></trkpt><trkpt lat="36.6850753" lon="8.6814757"><ele>321.0</ele><time>2026-05-02T09:15:08.657Z</time></trkpt><trkpt lat="36.685229" lon="8.6815165"><ele>321.0</ele><time>2026-05-02T09:15:09.651Z</time></trkpt><trkpt lat="36.6853866" lon="8.6815423"><ele>321.0</ele><time>2026-05-02T09:15:10.672Z</time></trkpt><trkpt lat="36.6855454" lon="8.6815592"><ele>319.6666666666667</ele><time>2026-05-02T09:15:11.645Z</time></trkpt><trkpt lat="36.6857119" lon="8.6815822"><ele>318.33333333333337</ele><time>2026-05-02T09:15:12.644Z</time></trkpt><trkpt lat="36.6858731" lon="8.681602"><ele>317.0</ele><time>2026-05-02T09:15:13.61Z</time></trkpt><trkpt lat="36.6860236" lon="8.6816224"><ele>319.0</ele><time>2026-05-02T09:15:14.611Z</time></trkpt><trkpt lat="36.6861765" lon="8.681642"><ele>321.0</ele><time>2026-05-02T09:15:15.658Z</time></trkpt><trkpt lat="36.6863267" lon="8.6816593"><ele>323.0</ele><time>2026-05-02T09:15:16.644Z</time></trkpt><trkpt lat="36.6864759" lon="8.6816778"><ele>323.0</ele><time>2026-05-02T09:15:17.657Z</time></trkpt><trkpt lat="36.6866212" lon="8.6817008"><ele>323.0</ele><time>2026-05-02T09:15:18.63Z</time></trkpt><trkpt lat="36.6867646" lon="8.6817195"><ele>323.0</ele><time>2026-05-02T09:15:19.656Z</time></trkpt><trkpt lat="36.6869072" lon="8.6817423"><ele>323.0</ele><time>2026-05-02T09:15:20.663Z</time></trkpt><trkpt lat="36.6870467" lon="8.6817609"><ele>323.5</ele><time>2026-05-02T09:15:21.617Z</time></trkpt><trkpt lat="36.6871856" lon="8.6817716"><ele>324.0</ele><time>2026-05-02T09:15:22.617Z</time></trkpt><trkpt lat="36.6873257" lon="8.6817598"><ele>324.5</ele><time>2026-05-02T09:15:23.642Z</time></trkpt><trkpt lat="36.6874624" lon="8.6817124"><ele>325.0</ele><time>2026-05-02T09:15:24.643Z</time></trkpt><trkpt lat="36.6875978" lon="8.681632"><ele>325.0</ele><time>2026-05-02T09:15:25.663Z</time></trkpt><trkpt lat="36.6877351" lon="8.681531"><ele>325.0</ele><time>2026-05-02T09:15:26.626Z</time></trkpt><trkpt lat="36.6878677" lon="8.6814292"><ele>325.0</ele><time>2026-05-02T09:15:27.639Z</time></trkpt><trkpt lat="36.6879967" lon="8.6813256"><ele>325.0</ele><time>2026-05-02T09:15:28.643Z</time></trkpt><trkpt lat="36.6881249" lon="8.6812159"><ele>325.0</ele><time>2026-05-02T09:15:29.651Z</time></trkpt><trkpt lat="36.6882497" lon="8.6811079"><ele>325.0</ele><time>2026-05-02T09:15:30.645Z</time></trkpt><trkpt lat="36.6883741" lon="8.6810002"><ele>327.0</ele><time>2026-05-02T09:15:31.631Z</time></trkpt><trkpt lat="36.6884926" lon="8.6808861"><ele>329.0</ele><time>2026-05-02T09:15:32.639Z</time></trkpt><trkpt lat="36.6886064" lon="8.6807554"><ele>331.0</ele><time>2026-05-02T09:15:33.648Z</time></trkpt><trkpt lat="36.688702" lon="8.6806059"><ele>331.0</ele><time>2026-05-02T09:15:34.643Z</time></trkpt><trkpt lat="36.6887816" lon="8.6804536"><ele>331.0</ele><time>2026-05-02T09:15:35.667Z</time></trkpt><trkpt lat="36.6888353" lon="8.6802702"><ele>331.0</ele><time>2026-05-02T09:15:36.646Z</time></trkpt><trkpt lat="36.6888782" lon="8.6800705"><ele>334.0</ele><time>2026-05-02T09:15:37.618Z</time></trkpt><trkpt lat="36.68892" lon="8.6798509"><ele>337.0</ele><time>2026-05-02T09:15:38.642Z</time></trkpt><trkpt lat="36.6889589" lon="8.6796436"><ele>340.0</ele><time>2026-05-02T09:15:39.656Z</time></trkpt><trkpt lat="36.6889961" lon="8.6794689"><ele>343.0</ele><time>2026-05-02T09:15:40.634Z</time></trkpt><trkpt lat="36.6890364" lon="8.6793223"><ele>346.0</ele><time>2026-05-02T09:15:41.657Z</time></trkpt><trkpt lat="36.6890941" lon="8.6791985"><ele>349.0</ele><time>2026-05-02T09:15:42.637Z</time></trkpt><trkpt lat="36.6891798" lon="8.6791172"><ele>352.0</ele><time>2026-05-02T09:15:43.649Z</time></trkpt><trkpt lat="36.6892959" lon="8.6790684"><ele>349.3333333333333</ele><time>2026-05-02T09:15:44.641Z</time></trkpt><trkpt lat="36.6894342" lon="8.6790122"><ele>346.6666666666667</ele><time>2026-05-02T09:15:45.646Z</time></trkpt><trkpt lat="36.6895927" lon="8.6789474"><ele>344.0</ele><time>2026-05-02T09:15:46.646Z</time></trkpt><trkpt lat="36.68975" lon="8.6788765"><ele>344.0</ele><time>2026-05-02T09:15:47.638Z</time></trkpt><trkpt lat="36.689907" lon="8.6787998"><ele>344.0</ele><time>2026-05-02T09:15:48.654Z</time></trkpt><trkpt lat="36.6900543" lon="8.6787256"><ele>344.0</ele><time>2026-05-02T09:15:49.653Z</time></trkpt><trkpt lat="36.6902003" lon="8.6786591"><ele>347.75</ele><time>2026-05-02T09:15:50.661Z</time></trkpt><trkpt lat="36.6903406" lon="8.6785996"><ele>351.5</ele><time>2026-05-02T09:15:51.61Z</time></trkpt><trkpt lat="36.6904837" lon="8.678549"><ele>355.25</ele><time>2026-05-02T09:15:52.607Z</time></trkpt><trkpt lat="36.6906252" lon="8.6785032"><ele>359.0</ele><time>2026-05-02T09:15:53.663Z</time></trkpt><trkpt lat="36.690759" lon="8.6784599"><ele>359.0</ele><time>2026-05-02T09:15:54.644Z</time></trkpt><trkpt lat="36.6908838" lon="8.6784173"><ele>359.0</ele><time>2026-05-02T09:15:55.664Z</time></trkpt><trkpt lat="36.6909909" lon="8.6783692"><ele>359.0</ele><time>2026-05-02T09:15:56.648Z</time></trkpt><trkpt lat="36.69109" lon="8.6782981"><ele>359.0</ele><time>2026-05-02T09:15:57.63Z</time></trkpt><trkpt lat="36.6911761" lon="8.6781954"><ele>359.25</ele><time>2026-05-02T09:15:58.661Z</time></trkpt><trkpt lat="36.6912435" lon="8.6780633"><ele>359.5</ele><time>2026-05-02T09:15:59.661Z</time></trkpt><trkpt lat="36.6912931" lon="8.6779119"><ele>359.75</ele><time>2026-05-02T09:16:00.66Z</time></trkpt><trkpt lat="36.6913228" lon="8.6777467"><ele>360.0</ele><time>2026-05-02T09:16:01.651Z</time></trkpt><trkpt lat="36.6913389" lon="8.6775699"><ele>360.0</ele><time>2026-05-02T09:16:02.637Z</time></trkpt><trkpt lat="36.6913506" lon="8.6773899"><ele>360.0</ele><time>2026-05-02T09:16:03.658Z</time></trkpt><trkpt lat="36.6913565" lon="8.6772144"><ele>360.0</ele><time>2026-05-02T09:16:04.62Z</time></trkpt><trkpt lat="36.691358" lon="8.6770358"><ele>360.0</ele><time>2026-05-02T09:16:05.639Z</time></trkpt><trkpt lat="36.6913499" lon="8.6768532"><ele>362.6666666666667</ele><time>2026-05-02T09:16:06.655Z</time></trkpt><trkpt lat="36.6913296" lon="8.6766696"><ele>365.33333333333337</ele><time>2026-05-02T09:16:07.62Z</time></trkpt><trkpt lat="36.6913023" lon="8.6764807"><ele>368.0</ele><time>2026-05-02T09:16:08.662Z</time></trkpt><trkpt lat="36.6912764" lon="8.6762979"><ele>368.0</ele><time>2026-05-02T09:16:09.644Z</time></trkpt><trkpt lat="36.691247" lon="8.6761209"><ele>368.0</ele><time>2026-05-02T09:16:10.653Z</time></trkpt><trkpt lat="36.6912123" lon="8.6759478"><ele>368.0</ele><time>2026-05-02T09:16:11.633Z</time></trkpt><trkpt lat="36.691181" lon="8.675779"><ele>368.0</ele><time>2026-05-02T09:16:12.618Z</time></trkpt><trkpt lat="36.6911482" lon="8.6756069"><ele>369.0</ele><time>2026-05-02T09:16:13.619Z</time></trkpt><trkpt lat="36.6911117" lon="8.6754407"><ele>370.0</ele><time>2026-05-02T09:16:14.605Z</time></trkpt><trkpt lat="36.6910799" lon="8.6752757"><ele>371.0</ele><time>2026-05-02T09:16:15.633Z</time></trkpt><trkpt lat="36.6910491" lon="8.6751063"><ele>372.0</ele><time>2026-05-02T09:16:16.626Z</time></trkpt><trkpt lat="36.6910181" lon="8.6749358"><ele>372.75</ele><time>2026-05-02T09:16:17.61Z</time></trkpt><trkpt lat="36.6910006" lon="8.6747724"><ele>373.5</ele><time>2026-05-02T09:16:18.62Z</time></trkpt><trkpt lat="36.6909955" lon="8.6746101"><ele>374.25</ele><time>2026-05-02T09:16:19.637Z</time></trkpt><trkpt lat="36.691009" lon="8.6744453"><ele>375.0</ele><time>2026-05-02T09:16:20.664Z</time></trkpt><trkpt lat="36.6910368" lon="8.6742926"><ele>375.25</ele><time>2026-05-02T09:16:21.642Z</time></trkpt><trkpt lat="36.6910807" lon="8.6741404"><ele>375.5</ele><time>2026-05-02T09:16:22.635Z</time></trkpt><trkpt lat="36.6911382" lon="8.6739928"><ele>375.75</ele><time>2026-05-02T09:16:23.636Z</time></trkpt><trkpt lat="36.6912053" lon="8.6738585"><ele>376.0</ele><time>2026-05-02T09:16:24.668Z</time></trkpt><trkpt lat="36.6912885" lon="8.6737309"><ele>380.0</ele><time>2026-05-02T09:16:25.662Z</time></trkpt><trkpt lat="36.691378" lon="8.6736216"><ele>384.0</ele><time>2026-05-02T09:16:26.639Z</time></trkpt><trkpt lat="36.6914785" lon="8.6735197"><ele>388.0</ele><time>2026-05-02T09:16:27.637Z</time></trkpt><trkpt lat="36.6915909" lon="8.6734506"><ele>392.0</ele><time>2026-05-02T09:16:28.668Z</time></trkpt><trkpt lat="36.6917186" lon="8.6733849"><ele>392.3333333333333</ele><time>2026-05-02T09:16:29.662Z</time></trkpt><trkpt lat="36.6918519" lon="8.6733198"><ele>392.66666666666663</ele><time>2026-05-02T09:16:30.624Z</time></trkpt><trkpt lat="36.691995" lon="8.6732808"><ele>393.0</ele><time>2026-05-02T09:16:31.645Z</time></trkpt><trkpt lat="36.6921511" lon="8.673228"><ele>399.0</ele><time>2026-05-02T09:16:32.632Z</time></trkpt><trkpt lat="36.6923156" lon="8.6731616"><ele>405.0</ele><time>2026-05-02T09:16:33.656Z</time></trkpt><trkpt lat="36.6924823" lon="8.673071"><ele>411.0</ele><time>2026-05-02T09:16:34.658Z</time></trkpt><trkpt lat="36.6926418" lon="8.6729687"><ele>413.33333333333337</ele><time>2026-05-02T09:16:35.635Z</time></trkpt><trkpt lat="36.6927868" lon="8.6728766"><ele>415.6666666666667</ele><time>2026-05-02T09:16:36.644Z</time></trkpt><trkpt lat="36.692927" lon="8.6727917"><ele>418.0</ele><time>2026-05-02T09:16:37.621Z</time></trkpt><trkpt lat="36.6930629" lon="8.6727115"><ele>418.0</ele><time>2026-05-02T09:16:38.643Z</time></trkpt><trkpt lat="36.6931915" lon="8.6726317"><ele>418.0</ele><time>2026-05-02T09:16:39.64Z</time></trkpt><trkpt lat="36.6933208" lon="8.6725518"><ele>418.0</ele><time>2026-05-02T09:16:40.638Z</time></trkpt><trkpt lat="36.6934565" lon="8.6724779"><ele>418.0</ele><time>2026-05-02T09:16:41.635Z</time></trkpt><trkpt lat="36.6935916" lon="8.6724125"><ele>419.5</ele><time>2026-05-02T09:16:42.647Z</time></trkpt><trkpt lat="36.6937336" lon="8.6723592"><ele>421.0</ele><time>2026-05-02T09:16:43.632Z</time></trkpt><trkpt lat="36.6938761" lon="8.6723094"><ele>422.5</ele><time>2026-05-02T09:16:44.618Z</time></trkpt><trkpt lat="36.6940219" lon="8.6722761"><ele>424.0</ele><time>2026-05-02T09:16:45.638Z</time></trkpt><trkpt lat="36.6941669" lon="8.6722478"><ele>424.0</ele><time>2026-05-02T09:16:46.644Z</time></trkpt><trkpt lat="36.6943218" lon="8.6722217"><ele>424.0</ele><time>2026-05-02T09:16:47.62Z</time></trkpt><trkpt lat="36.6944849" lon="8.6722017"><ele>424.0</ele><time>2026-05-02T09:16:48.628Z</time></trkpt><trkpt lat="36.6946618" lon="8.6721813"><ele>425.33333333333337</ele><time>2026-05-02T09:16:49.651Z</time></trkpt><trkpt lat="36.694843" lon="8.6721453"><ele>426.66666666666663</ele><time>2026-05-02T09:16:50.641Z</time></trkpt><trkpt lat="36.6950163" lon="8.6720976"><ele>428.0</ele><time>2026-05-02T09:16:51.647Z</time></trkpt><trkpt lat="36.6951838" lon="8.6720339"><ele>428.66666666666663</ele><time>2026-05-02T09:16:52.637Z</time></trkpt><trkpt lat="36.6953485" lon="8.6719603"><ele>429.33333333333337</ele><time>2026-05-02T09:16:53.643Z</time></trkpt><trkpt lat="36.6955101" lon="8.6718793"><ele>430.0</ele><time>2026-05-02T09:16:54.647Z</time></trkpt><trkpt lat="36.6956725" lon="8.6717924"><ele>430.0</ele><time>2026-05-02T09:16:55.638Z</time></trkpt><trkpt lat="36.6958298" lon="8.6717034"><ele>430.0</ele><time>2026-05-02T09:16:56.634Z</time></trkpt><trkpt lat="36.6959686" lon="8.6716172"><ele>430.0</ele><time>2026-05-02T09:16:57.639Z</time></trkpt><trkpt lat="36.6961024" lon="8.6715414"><ele>431.75</ele><time>2026-05-02T09:16:58.63Z</time></trkpt><trkpt lat="36.6962282" lon="8.6714636"><ele>433.5</ele><time>2026-05-02T09:16:59.634Z</time></trkpt><trkpt lat="36.6963513" lon="8.6713869"><ele>435.25</ele><time>2026-05-02T09:17:00.65Z</time></trkpt><trkpt lat="36.6964654" lon="8.6713115"><ele>437.0</ele><time>2026-05-02T09:17:01.643Z</time></trkpt><trkpt lat="36.6965711" lon="8.6712559"><ele>437.0</ele><time>2026-05-02T09:17:02.628Z</time></trkpt><trkpt lat="36.6966606" lon="8.6712147"><ele>437.00000000000006</ele><time>2026-05-02T09:17:03.644Z</time></trkpt><trkpt lat="36.6967431" lon="8.6712064"><ele>437.00000000000006</ele><time>2026-05-02T09:17:04.629Z</time></trkpt><trkpt lat="36.6968346" lon="8.67123"><ele>437.0</ele><time>2026-05-02T09:17:05.631Z</time></trkpt><trkpt lat="36.6969228" lon="8.6712864"><ele>437.0</ele><time>2026-05-02T09:17:06.649Z</time></trkpt><trkpt lat="36.6970025" lon="8.6713713"><ele>436.5</ele><time>2026-05-02T09:17:07.665Z</time></trkpt><trkpt lat="36.6970761" lon="8.6714831"><ele>436.0</ele><time>2026-05-02T09:17:08.616Z</time></trkpt><trkpt lat="36.6971568" lon="8.6716074"><ele>435.5</ele><time>2026-05-02T09:17:09.607Z</time></trkpt><trkpt lat="36.6972499" lon="8.671747"><ele>435.0</ele><time>2026-05-02T09:17:10.633Z</time></trkpt><trkpt lat="36.6973572" lon="8.6718945"><ele>435.33333333333337</ele><time>2026-05-02T09:17:11.648Z</time></trkpt><trkpt lat="36.6974731" lon="8.6720469"><ele>435.6666666666667</ele><time>2026-05-02T09:17:12.641Z</time></trkpt><trkpt lat="36.6976119" lon="8.6722023"><ele>436.0</ele><time>2026-05-02T09:17:13.641Z</time></trkpt><trkpt lat="36.6977635" lon="8.6723597"><ele>434.0</ele><time>2026-05-02T09:17:14.643Z</time></trkpt><trkpt lat="36.697931" lon="8.6724999"><ele>432.0</ele><time>2026-05-02T09:17:15.647Z</time></trkpt><trkpt lat="36.6981039" lon="8.6726011"><ele>430.0</ele><time>2026-05-02T09:17:16.671Z</time></trkpt><trkpt lat="36.6982825" lon="8.6726846"><ele>430.0</ele><time>2026-05-02T09:17:17.643Z</time></trkpt><trkpt lat="36.6984662" lon="8.6727602"><ele>430.0</ele><time>2026-05-02T09:17:18.656Z</time></trkpt><trkpt lat="36.6986624" lon="8.6728165"><ele>430.0</ele><time>2026-05-02T09:17:19.659Z</time></trkpt><trkpt lat="36.6988551" lon="8.672869"><ele>429.33333333333337</ele><time>2026-05-02T09:17:20.656Z</time></trkpt><trkpt lat="36.6990372" lon="8.6729144"><ele>428.66666666666663</ele><time>2026-05-02T09:17:21.669Z</time></trkpt><trkpt lat="36.6992023" lon="8.6729615"><ele>428.0</ele><time>2026-05-02T09:17:22.64Z</time></trkpt><trkpt lat="36.6993614" lon="8.6730092"><ele>433.0</ele><time>2026-05-02T09:17:23.662Z</time></trkpt><trkpt lat="36.6995116" lon="8.6730705"><ele>438.0</ele><time>2026-05-02T09:17:24.655Z</time></trkpt><trkpt lat="36.6996545" lon="8.673142"><ele>443.0</ele><time>2026-05-02T09:17:25.624Z</time></trkpt><trkpt lat="36.6997885" lon="8.6732362"><ele>443.0</ele><time>2026-05-02T09:17:26.654Z</time></trkpt><trkpt lat="36.6999222" lon="8.673344"><ele>443.0</ele><time>2026-05-02T09:17:27.649Z</time></trkpt><trkpt lat="36.7000499" lon="8.6734746"><ele>443.0</ele><time>2026-05-02T09:17:28.636Z</time></trkpt><trkpt lat="36.7001606" lon="8.6736293"><ele>446.66666666666663</ele><time>2026-05-02T09:17:29.645Z</time></trkpt><trkpt lat="36.7002647" lon="8.6738003"><ele>450.33333333333337</ele><time>2026-05-02T09:17:30.649Z</time></trkpt><trkpt lat="36.700347" lon="8.6739695"><ele>454.0</ele><time>2026-05-02T09:17:31.661Z</time></trkpt><trkpt lat="36.7004277" lon="8.674134"><ele>454.0</ele><time>2026-05-02T09:17:32.62Z</time></trkpt><trkpt lat="36.7005017" lon="8.6743005"><ele>454.0</ele><time>2026-05-02T09:17:33.664Z</time></trkpt><trkpt lat="36.7005673" lon="8.6744854"><ele>454.0</ele><time>2026-05-02T09:17:34.654Z</time></trkpt><trkpt lat="36.7006193" lon="8.6746765"><ele>453.33333333333337</ele><time>2026-05-02T09:17:35.646Z</time></trkpt><trkpt lat="36.7006735" lon="8.674864"><ele>452.66666666666663</ele><time>2026-05-02T09:17:36.608Z</time></trkpt><trkpt lat="36.7007297" lon="8.6750525"><ele>452.0</ele><time>2026-05-02T09:17:37.604Z</time></trkpt><trkpt lat="36.7007847" lon="8.675237"><ele>451.66666666666663</ele><time>2026-05-02T09:17:38.64Z</time></trkpt><trkpt lat="36.7008426" lon="8.6754166"><ele>451.33333333333337</ele><time>2026-05-02T09:17:39.649Z</time></trkpt><trkpt lat="36.7009036" lon="8.6755928"><ele>451.0</ele><time>2026-05-02T09:17:40.656Z</time></trkpt><trkpt lat="36.7009593" lon="8.6757634"><ele>451.0</ele><time>2026-05-02T09:17:41.661Z</time></trkpt><trkpt lat="36.7010019" lon="8.6759309"><ele>451.0</ele><time>2026-05-02T09:17:42.631Z</time></trkpt><trkpt lat="36.7010329" lon="8.6760936"><ele>451.0</ele><time>2026-05-02T09:17:43.629Z</time></trkpt><trkpt lat="36.7010366" lon="8.6762671"><ele>451.0</ele><time>2026-05-02T09:17:44.628Z</time></trkpt><trkpt lat="36.701015" lon="8.6764548"><ele>450.75</ele><time>2026-05-02T09:17:45.639Z</time></trkpt><trkpt lat="36.7009765" lon="8.6766396"><ele>450.5</ele><time>2026-05-02T09:17:46.656Z</time></trkpt><trkpt lat="36.7009439" lon="8.6767884"><ele>450.25</ele><time>2026-05-02T09:17:47.634Z</time></trkpt><trkpt lat="36.700927" lon="8.6769369"><ele>450.0</ele><time>2026-05-02T09:17:48.648Z</time></trkpt><trkpt lat="36.7009214" lon="8.6770742"><ele>450.0</ele><time>2026-05-02T09:17:49.651Z</time></trkpt><trkpt lat="36.7009498" lon="8.6771836"><ele>450.0</ele><time>2026-05-02T09:17:50.663Z</time></trkpt><trkpt lat="36.7010052" lon="8.6772742"><ele>450.0</ele><time>2026-05-02T09:17:51.669Z</time></trkpt><trkpt lat="36.7010944" lon="8.6773311"><ele>450.0</ele><time>2026-05-02T09:17:52.637Z</time></trkpt><trkpt lat="36.7011979" lon="8.6773528"><ele>450.0</ele><time>2026-05-02T09:17:53.64Z</time></trkpt><trkpt lat="36.7013085" lon="8.6773294"><ele>453.0</ele><time>2026-05-02T09:17:54.656Z</time></trkpt><trkpt lat="36.70142" lon="8.6772679"><ele>456.0</ele><time>2026-05-02T09:17:55.613Z</time></trkpt><trkpt lat="36.7015353" lon="8.6771776"><ele>459.0</ele><time>2026-05-02T09:17:56.623Z</time></trkpt><trkpt lat="36.7016418" lon="8.6770771"><ele>462.0</ele><time>2026-05-02T09:17:57.651Z</time></trkpt><trkpt lat="36.7017334" lon="8.6769654"><ele>463.25</ele><time>2026-05-02T09:17:58.647Z</time></trkpt><trkpt lat="36.7018048" lon="8.6768528"><ele>464.5</ele><time>2026-05-02T09:17:59.638Z</time></trkpt><trkpt lat="36.7018504" lon="8.6767167"><ele>465.75</ele><time>2026-05-02T09:18:00.652Z</time></trkpt><trkpt lat="36.7018651" lon="8.6765604"><ele>467.0</ele><time>2026-05-02T09:18:01.661Z</time></trkpt><trkpt lat="36.7018749" lon="8.6763806"><ele>467.0</ele><time>2026-05-02T09:18:02.637Z</time></trkpt><trkpt lat="36.701883" lon="8.6761936"><ele>467.0</ele><time>2026-05-02T09:18:03.669Z</time></trkpt><trkpt lat="36.7019067" lon="8.6760291"><ele>467.0</ele><time>2026-05-02T09:18:04.621Z</time></trkpt><trkpt lat="36.7019555" lon="8.6758962"><ele>467.0</ele><time>2026-05-02T09:18:05.655Z</time></trkpt><trkpt lat="36.7020273" lon="8.6757998"><ele>469.75</ele><time>2026-05-02T09:18:06.634Z</time></trkpt><trkpt lat="36.7021216" lon="8.6757445"><ele>472.5</ele><time>2026-05-02T09:18:07.653Z</time></trkpt><trkpt lat="36.7022317" lon="8.6757247"><ele>475.25</ele><time>2026-05-02T09:18:08.648Z</time></trkpt><trkpt lat="36.7023672" lon="8.6757489"><ele>478.0</ele><time>2026-05-02T09:18:09.669Z</time></trkpt><trkpt lat="36.7025056" lon="8.6758003"><ele>478.0</ele><time>2026-05-02T09:18:10.646Z</time></trkpt><trkpt lat="36.7026277" lon="8.6758754"><ele>478.0</ele><time>2026-05-02T09:18:11.634Z</time></trkpt><trkpt lat="36.702742" lon="8.6759726"><ele>478.0</ele><time>2026-05-02T09:18:12.643Z</time></trkpt><trkpt lat="36.7028184" lon="8.6760921"><ele>478.0</ele><time>2026-05-02T09:18:13.643Z</time></trkpt><trkpt lat="36.7028721" lon="8.6762422"><ele>481.6666666666667</ele><time>2026-05-02T09:18:14.65Z</time></trkpt><trkpt lat="36.7029182" lon="8.6764288"><ele>485.33333333333337</ele><time>2026-05-02T09:18:15.621Z</time></trkpt><trkpt lat="36.7029521" lon="8.6766194"><ele>489.0</ele><time>2026-05-02T09:18:16.634Z</time></trkpt><trkpt lat="36.7029843" lon="8.6768043"><ele>489.75</ele><time>2026-05-02T09:18:17.657Z</time></trkpt><trkpt lat="36.7029986" lon="8.6769741"><ele>490.5</ele><time>2026-05-02T09:18:18.662Z</time></trkpt><trkpt lat="36.7030031" lon="8.6771449"><ele>491.25</ele><time>2026-05-02T09:18:19.649Z</time></trkpt><trkpt lat="36.7029969" lon="8.6773156"><ele>492.0</ele><time>2026-05-02T09:18:20.656Z</time></trkpt><trkpt lat="36.7029916" lon="8.6774706"><ele>492.0</ele><time>2026-05-02T09:18:21.66Z</time></trkpt><trkpt lat="36.7029932" lon="8.6776186"><ele>492.00000000000006</ele><time>2026-05-02T09:18:22.642Z</time></trkpt><trkpt lat="36.7030134" lon="8.6777486"><ele>492.00000000000006</ele><time>2026-05-02T09:18:23.661Z</time></trkpt><trkpt lat="36.703068" lon="8.677859"><ele>492.0</ele><time>2026-05-02T09:18:24.63Z</time></trkpt><trkpt lat="36.7031423" lon="8.6779455"><ele>492.0</ele><time>2026-05-02T09:18:25.649Z</time></trkpt><trkpt lat="36.703242" lon="8.6779969"><ele>491.0</ele><time>2026-05-02T09:18:26.614Z</time></trkpt><trkpt lat="36.7033591" lon="8.6780267"><ele>490.0</ele><time>2026-05-02T09:18:27.66Z</time></trkpt><trkpt lat="36.7034824" lon="8.6780159"><ele>489.0</ele><time>2026-05-02T09:18:28.667Z</time></trkpt><trkpt lat="36.7035942" lon="8.6779833"><ele>488.0</ele><time>2026-05-02T09:18:29.684Z</time></trkpt><trkpt lat="36.7036899" lon="8.677934"><ele>488.0</ele><time>2026-05-02T09:18:30.652Z</time></trkpt><trkpt lat="36.7037806" lon="8.6778277"><ele>488.0</ele><time>2026-05-02T09:18:31.644Z</time></trkpt><trkpt lat="36.7038478" lon="8.6776891"><ele>488.0</ele><time>2026-05-02T09:18:32.619Z</time></trkpt><trkpt lat="36.7038874" lon="8.6775181"><ele>488.0</ele><time>2026-05-02T09:18:33.641Z</time></trkpt><trkpt lat="36.7039193" lon="8.6773131"><ele>491.25</ele><time>2026-05-02T09:18:34.646Z</time></trkpt><trkpt lat="36.7039421" lon="8.6771058"><ele>494.5</ele><time>2026-05-02T09:18:35.643Z</time></trkpt><trkpt lat="36.7039817" lon="8.6769407"><ele>497.75</ele><time>2026-05-02T09:18:36.632Z</time></trkpt><trkpt lat="36.7040255" lon="8.6768013"><ele>501.0</ele><time>2026-05-02T09:18:37.658Z</time></trkpt><trkpt lat="36.704067" lon="8.6766738"><ele>502.5</ele><time>2026-05-02T09:18:38.654Z</time></trkpt><trkpt lat="36.7041062" lon="8.6765318"><ele>504.0</ele><time>2026-05-02T09:18:39.655Z</time></trkpt><trkpt lat="36.7041218" lon="8.6763681"><ele>505.5</ele><time>2026-05-02T09:18:40.653Z</time></trkpt><trkpt lat="36.7041106" lon="8.6761928"><ele>507.0</ele><time>2026-05-02T09:18:41.66Z</time></trkpt><trkpt lat="36.7040695" lon="8.6759966"><ele>509.0</ele><time>2026-05-02T09:18:42.651Z</time></trkpt><trkpt lat="36.7040192" lon="8.6757965"><ele>511.0</ele><time>2026-05-02T09:18:43.653Z</time></trkpt><trkpt lat="36.7039583" lon="8.6756154"><ele>513.0</ele><time>2026-05-02T09:18:44.664Z</time></trkpt><trkpt lat="36.7039019" lon="8.6754566"><ele>513.0</ele><time>2026-05-02T09:18:45.631Z</time></trkpt><trkpt lat="36.7038482" lon="8.6753067"><ele>513.0</ele><time>2026-05-02T09:18:46.653Z</time></trkpt><trkpt lat="36.7037911" lon="8.6751622"><ele>513.0</ele><time>2026-05-02T09:18:47.654Z</time></trkpt><trkpt lat="36.7037231" lon="8.6750251"><ele>513.0</ele><time>2026-05-02T09:18:48.654Z</time></trkpt><trkpt lat="36.7036582" lon="8.6748859"><ele>511.0</ele><time>2026-05-02T09:18:49.653Z</time></trkpt><trkpt lat="36.7036031" lon="8.6747469"><ele>509.0</ele><time>2026-05-02T09:18:50.653Z</time></trkpt><trkpt lat="36.7035818" lon="8.6745999"><ele>507.0</ele><time>2026-05-02T09:18:51.663Z</time></trkpt><trkpt lat="36.7035742" lon="8.6744465"><ele>505.0</ele><time>2026-05-02T09:18:52.651Z</time></trkpt><trkpt lat="36.7035706" lon="8.674309"><ele>505.0</ele><time>2026-05-02T09:18:53.657Z</time></trkpt><trkpt lat="36.7035607" lon="8.6741726"><ele>505.0</ele><time>2026-05-02T09:18:54.656Z</time></trkpt><trkpt lat="36.7035516" lon="8.6740385"><ele>505.0</ele><time>2026-05-02T09:18:55.624Z</time></trkpt><trkpt lat="36.7035603" lon="8.6738933"><ele>505.0</ele><time>2026-05-02T09:18:56.646Z</time></trkpt><trkpt lat="36.703603" lon="8.6737435"><ele>509.5</ele><time>2026-05-02T09:18:57.665Z</time></trkpt><trkpt lat="36.7036708" lon="8.6735945"><ele>514.0</ele><time>2026-05-02T09:18:58.661Z</time></trkpt><trkpt lat="36.7037581" lon="8.6734626"><ele>518.5</ele><time>2026-05-02T09:18:59.664Z</time></trkpt><trkpt lat="36.7038531" lon="8.6733369"><ele>523.0</ele><time>2026-05-02T09:19:00.666Z</time></trkpt><trkpt lat="36.7039559" lon="8.6732182"><ele>523.0</ele><time>2026-05-02T09:19:01.659Z</time></trkpt><trkpt lat="36.7040562" lon="8.6731151"><ele>523.0</ele><time>2026-05-02T09:19:02.662Z</time></trkpt><trkpt lat="36.7041609" lon="8.6730296"><ele>523.0</ele><time>2026-05-02T09:19:03.677Z</time></trkpt><trkpt lat="36.7042775" lon="8.6729451"><ele>523.0</ele><time>2026-05-02T09:19:04.66Z</time></trkpt><trkpt lat="36.7044016" lon="8.6728655"><ele>525.0</ele><time>2026-05-02T09:19:05.663Z</time></trkpt><trkpt lat="36.7045298" lon="8.6727833"><ele>527.0</ele><time>2026-05-02T09:19:06.659Z</time></trkpt><trkpt lat="36.7046754" lon="8.6726882"><ele>529.0</ele><time>2026-05-02T09:19:07.636Z</time></trkpt><trkpt lat="36.7048688" lon="8.6725637"><ele>529.0</ele><time>2026-05-02T09:19:08.678Z</time></trkpt><trkpt lat="36.7050963" lon="8.6724308"><ele>529.0</ele><time>2026-05-02T09:19:09.657Z</time></trkpt><trkpt lat="36.7053231" lon="8.6722889"><ele>531.0</ele><time>2026-05-02T09:19:10.644Z</time></trkpt><trkpt lat="36.7055477" lon="8.6721078"><ele>533.0</ele><time>2026-05-02T09:19:11.671Z</time></trkpt><trkpt lat="36.7057435" lon="8.6719293"><ele>533.0</ele><time>2026-05-02T09:19:12.654Z</time></trkpt><trkpt lat="36.7059197" lon="8.6717602"><ele>533.0</ele><time>2026-05-02T09:19:13.669Z</time></trkpt><trkpt lat="36.7060931" lon="8.6716094"><ele>533.0</ele><time>2026-05-02T09:19:14.662Z</time></trkpt><trkpt lat="36.706252" lon="8.6714903"><ele>538.0</ele><time>2026-05-02T09:19:15.663Z</time></trkpt><trkpt lat="36.7063982" lon="8.6713854"><ele>543.0</ele><time>2026-05-02T09:19:16.643Z</time></trkpt><trkpt lat="36.706546" lon="8.671321"><ele>548.0</ele><time>2026-05-02T09:19:17.65Z</time></trkpt><trkpt lat="36.7067179" lon="8.6712896"><ele>548.0</ele><time>2026-05-02T09:19:18.652Z</time></trkpt><trkpt lat="36.7069002" lon="8.6712837"><ele>548.0</ele><time>2026-05-02T09:19:19.66Z</time></trkpt><trkpt lat="36.7070717" lon="8.6712771"><ele>548.0</ele><time>2026-05-02T09:19:20.661Z</time></trkpt><trkpt lat="36.7072293" lon="8.671264"><ele>547.25</ele><time>2026-05-02T09:19:21.638Z</time></trkpt><trkpt lat="36.7073787" lon="8.6712476"><ele>546.5</ele><time>2026-05-02T09:19:22.652Z</time></trkpt><trkpt lat="36.707511" lon="8.6712162"><ele>545.75</ele><time>2026-05-02T09:19:23.635Z</time></trkpt><trkpt lat="36.7076252" lon="8.6711398"><ele>545.0</ele><time>2026-05-02T09:19:24.65Z</time></trkpt><trkpt lat="36.707723" lon="8.6710328"><ele>549.75</ele><time>2026-05-02T09:19:25.636Z</time></trkpt><trkpt lat="36.7078003" lon="8.6709139"><ele>554.5</ele><time>2026-05-02T09:19:26.639Z</time></trkpt><trkpt lat="36.7078762" lon="8.6707956"><ele>559.25</ele><time>2026-05-02T09:19:27.66Z</time></trkpt><trkpt lat="36.7079648" lon="8.6706872"><ele>564.0</ele><time>2026-05-02T09:19:28.649Z</time></trkpt><trkpt lat="36.7080611" lon="8.6705851"><ele>564.0</ele><time>2026-05-02T09:19:29.675Z</time></trkpt><trkpt lat="36.7081494" lon="8.6704988"><ele>564.0</ele><time>2026-05-02T09:19:30.65Z</time></trkpt><trkpt lat="36.7082205" lon="8.6704137"><ele>564.0</ele><time>2026-05-02T09:19:31.667Z</time></trkpt><trkpt lat="36.7082817" lon="8.670333"><ele>564.0</ele><time>2026-05-02T09:19:32.619Z</time></trkpt><trkpt lat="36.7083353" lon="8.6702588"><ele>564.0</ele><time>2026-05-02T09:19:33.661Z</time></trkpt><trkpt lat="36.7083753" lon="8.6701763"><ele>562.8333333333334</ele><time>2026-05-02T09:19:34.64Z</time></trkpt><trkpt lat="36.7084087" lon="8.6700999"><ele>561.6666666666666</ele><time>2026-05-02T09:19:35.653Z</time></trkpt><trkpt lat="36.7084596" lon="8.6699855"><ele>560.5</ele><time>2026-05-02T09:19:37.645Z</time></trkpt><trkpt lat="36.7085006" lon="8.6699164"><ele>559.3333333333333</ele><time>2026-05-02T09:19:39.65Z</time></trkpt><trkpt lat="36.7084267" lon="8.6699553"><ele>558.1666666666666</ele><time>2026-05-02T09:20:07.652Z</time></trkpt><trkpt lat="36.7083824" lon="8.6700522"><ele>557.0</ele><time>2026-05-02T09:20:08.647Z</time></trkpt><trkpt lat="36.7083295" lon="8.6701758"><ele>558.75</ele><time>2026-05-02T09:20:09.662Z</time></trkpt><trkpt lat="36.7082412" lon="8.6703064"><ele>560.5</ele><time>2026-05-02T09:20:10.65Z</time></trkpt><trkpt lat="36.7081563" lon="8.670423"><ele>562.25</ele><time>2026-05-02T09:20:11.618Z</time></trkpt><trkpt lat="36.708074" lon="8.6705101"><ele>564.0</ele><time>2026-05-02T09:20:12.643Z</time></trkpt><trkpt lat="36.7080044" lon="8.6705823"><ele>564.0</ele><time>2026-05-02T09:20:13.658Z</time></trkpt><trkpt lat="36.707924" lon="8.6706527"><ele>564.0</ele><time>2026-05-02T09:20:14.657Z</time></trkpt><trkpt lat="36.7078586" lon="8.6707284"><ele>564.0</ele><time>2026-05-02T09:20:15.658Z</time></trkpt><trkpt lat="36.7077906" lon="8.670812"><ele>564.0</ele><time>2026-05-02T09:20:16.634Z</time></trkpt><trkpt lat="36.7077217" lon="8.6708882"><ele>564.0</ele><time>2026-05-02T09:20:17.658Z</time></trkpt><trkpt lat="36.7076586" lon="8.6709652"><ele>563.2</ele><time>2026-05-02T09:20:18.652Z</time></trkpt><trkpt lat="36.7075929" lon="8.6710487"><ele>562.4</ele><time>2026-05-02T09:20:19.651Z</time></trkpt><trkpt lat="36.7075037" lon="8.6711285"><ele>561.6</ele><time>2026-05-02T09:20:20.654Z</time></trkpt><trkpt lat="36.7074024" lon="8.6711796"><ele>560.8</ele><time>2026-05-02T09:20:21.657Z</time></trkpt><trkpt lat="36.7072904" lon="8.6712125"><ele>560.0</ele><time>2026-05-02T09:20:22.645Z</time></trkpt><trkpt lat="36.7071703" lon="8.6712366"><ele>560.0</ele><time>2026-05-02T09:20:23.651Z</time></trkpt><trkpt lat="36.7070361" lon="8.6712463"><ele>560.0</ele><time>2026-05-02T09:20:24.661Z</time></trkpt><trkpt lat="36.7069054" lon="8.6712554"><ele>560.0</ele><time>2026-05-02T09:20:25.629Z</time></trkpt><trkpt lat="36.7067799" lon="8.6712652"><ele>560.0</ele><time>2026-05-02T09:20:26.651Z</time></trkpt><trkpt lat="36.7066591" lon="8.6712784"><ele>557.0</ele><time>2026-05-02T09:20:27.661Z</time></trkpt><trkpt lat="36.706535" lon="8.6713013"><ele>554.0</ele><time>2026-05-02T09:20:28.654Z</time></trkpt><trkpt lat="36.7064239" lon="8.6713395"><ele>551.0</ele><time>2026-05-02T09:20:29.658Z</time></trkpt><trkpt lat="36.7063209" lon="8.6713928"><ele>548.0</ele><time>2026-05-02T09:20:30.633Z</time></trkpt><trkpt lat="36.7062296" lon="8.6714585"><ele>548.0</ele><time>2026-05-02T09:20:31.656Z</time></trkpt><trkpt lat="36.7061452" lon="8.6715216"><ele>548.0</ele><time>2026-05-02T09:20:32.636Z</time></trkpt><trkpt lat="36.7060649" lon="8.6715775"><ele>548.0</ele><time>2026-05-02T09:20:33.652Z</time></trkpt><trkpt lat="36.7060046" lon="8.6716242"><ele>548.0</ele><time>2026-05-02T09:20:34.647Z</time></trkpt><trkpt lat="36.7059386" lon="8.6716698"><ele>548.0</ele><time>2026-05-02T09:20:36.637Z</time></trkpt><trkpt lat="36.7059499" lon="8.6717497"><ele>548.0</ele><time>2026-05-02T09:20:40.644Z</time></trkpt><trkpt lat="36.706072" lon="8.6716841"><ele>548.0</ele><time>2026-05-02T09:20:43.653Z</time></trkpt><trkpt lat="36.7061687" lon="8.6716079"><ele>548.0</ele><time>2026-05-02T09:20:44.653Z</time></trkpt><trkpt lat="36.7062893" lon="8.6715051"><ele>548.0</ele><time>2026-05-02T09:20:45.63Z</time></trkpt><trkpt lat="36.7064329" lon="8.6714023"><ele>548.0</ele><time>2026-05-02T09:20:46.657Z</time></trkpt><trkpt lat="36.7065806" lon="8.6713204"><ele>548.0</ele><time>2026-05-02T09:20:47.659Z</time></trkpt><trkpt lat="36.7067425" lon="8.6712893"><ele>548.0</ele><time>2026-05-02T09:20:48.645Z</time></trkpt><trkpt lat="36.7069286" lon="8.6712771"><ele>548.0</ele><time>2026-05-02T09:20:49.652Z</time></trkpt><trkpt lat="36.7071249" lon="8.6712673"><ele>551.0</ele><time>2026-05-02T09:20:50.647Z</time></trkpt><trkpt lat="36.7072929" lon="8.6712622"><ele>554.0</ele><time>2026-05-02T09:20:51.645Z</time></trkpt><trkpt lat="36.7074285" lon="8.6712331"><ele>557.0</ele><time>2026-05-02T09:20:52.623Z</time></trkpt><trkpt lat="36.7075407" lon="8.6711782"><ele>560.0</ele><time>2026-05-02T09:20:53.648Z</time></trkpt><trkpt lat="36.7076075" lon="8.6711194"><ele>560.6666666666666</ele><time>2026-05-02T09:20:54.629Z</time></trkpt><trkpt lat="36.7076642" lon="8.6710445"><ele>561.3333333333333</ele><time>2026-05-02T09:20:55.641Z</time></trkpt><trkpt lat="36.7076971" lon="8.6709699"><ele>562.0</ele><time>2026-05-02T09:20:56.635Z</time></trkpt><trkpt lat="36.7077332" lon="8.6708493"><ele>562.6666666666666</ele><time>2026-05-02T09:20:58.646Z</time></trkpt><trkpt lat="36.7077773" lon="8.6707758"><ele>563.3333333333334</ele><time>2026-05-02T09:21:00.66Z</time></trkpt><trkpt lat="36.7078749" lon="8.6707117"><ele>564.0</ele><time>2026-05-02T09:21:59.659Z</time></trkpt><trkpt lat="36.7079766" lon="8.670649"><ele>564.0</ele><time>2026-05-02T09:22:01.649Z</time></trkpt><trkpt lat="36.708029" lon="8.670598"><ele>564.0</ele><time>2026-05-02T09:22:02.66Z</time></trkpt><trkpt lat="36.7080922" lon="8.670532"><ele>564.0</ele><time>2026-05-02T09:22:03.651Z</time></trkpt><trkpt lat="36.7081638" lon="8.6704545"><ele>564.0</ele><time>2026-05-02T09:22:04.663Z</time></trkpt><trkpt lat="36.7082255" lon="8.6703796"><ele>564.0</ele><time>2026-05-02T09:22:05.658Z</time></trkpt><trkpt lat="36.7082904" lon="8.6702842"><ele>564.0</ele><time>2026-05-02T09:22:06.662Z</time></trkpt><trkpt lat="36.7083441" lon="8.6701868"><ele>562.6</ele><time>2026-05-02T09:22:07.654Z</time></trkpt><trkpt lat="36.7083965" lon="8.6700822"><ele>561.2</ele><time>2026-05-02T09:22:08.614Z</time></trkpt><trkpt lat="36.7084514" lon="8.6699753"><ele>559.8000000000001</ele><time>2026-05-02T09:22:09.619Z</time></trkpt><trkpt lat="36.708512" lon="8.6698562"><ele>558.4</ele><time>2026-05-02T09:22:10.65Z</time></trkpt><trkpt lat="36.7085696" lon="8.669729"><ele>557.0</ele><time>2026-05-02T09:22:11.613Z</time></trkpt><trkpt lat="36.708639" lon="8.6695972"><ele>562.25</ele><time>2026-05-02T09:22:12.662Z</time></trkpt><trkpt lat="36.708706" lon="8.6694694"><ele>567.5</ele><time>2026-05-02T09:22:13.636Z</time></trkpt><trkpt lat="36.7087646" lon="8.6693503"><ele>572.75</ele><time>2026-05-02T09:22:14.658Z</time></trkpt><trkpt lat="36.7088086" lon="8.6692244"><ele>578.0</ele><time>2026-05-02T09:22:15.669Z</time></trkpt><trkpt lat="36.7088288" lon="8.6690867"><ele>578.75</ele><time>2026-05-02T09:22:16.642Z</time></trkpt><trkpt lat="36.7088318" lon="8.6689375"><ele>579.5</ele><time>2026-05-02T09:22:17.664Z</time></trkpt><trkpt lat="36.708813" lon="8.6687832"><ele>580.25</ele><time>2026-05-02T09:22:18.637Z</time></trkpt><trkpt lat="36.7087715" lon="8.668629"><ele>581.0</ele><time>2026-05-02T09:22:19.663Z</time></trkpt><trkpt lat="36.7087242" lon="8.6684666"><ele>582.25</ele><time>2026-05-02T09:22:20.659Z</time></trkpt><trkpt lat="36.708681" lon="8.6682944"><ele>583.5</ele><time>2026-05-02T09:22:21.649Z</time></trkpt><trkpt lat="36.7086409" lon="8.6681413"><ele>584.75</ele><time>2026-05-02T09:22:22.657Z</time></trkpt><trkpt lat="36.7086167" lon="8.6679883"><ele>586.0</ele><time>2026-05-02T09:22:23.664Z</time></trkpt><trkpt lat="36.7086073" lon="8.6678381"><ele>585.5</ele><time>2026-05-02T09:22:24.665Z</time></trkpt><trkpt lat="36.7086386" lon="8.6676927"><ele>585.0</ele><time>2026-05-02T09:22:25.647Z</time></trkpt><trkpt lat="36.7087185" lon="8.667553"><ele>584.5</ele><time>2026-05-02T09:22:26.635Z</time></trkpt><trkpt lat="36.7088129" lon="8.667417"><ele>584.0</ele><time>2026-05-02T09:22:27.659Z</time></trkpt><trkpt lat="36.7089069" lon="8.6672764"><ele>584.0</ele><time>2026-05-02T09:22:28.624Z</time></trkpt><trkpt lat="36.7089755" lon="8.6671496"><ele>584.0</ele><time>2026-05-02T09:22:29.617Z</time></trkpt><trkpt lat="36.7090463" lon="8.6670531"><ele>584.0</ele><time>2026-05-02T09:22:30.645Z</time></trkpt><trkpt lat="36.7091397" lon="8.6670069"><ele>584.0</ele><time>2026-05-02T09:22:31.615Z</time></trkpt><trkpt lat="36.7092521" lon="8.6669857"><ele>584.0</ele><time>2026-05-02T09:22:32.639Z</time></trkpt><trkpt lat="36.7093629" lon="8.6669958"><ele>582.75</ele><time>2026-05-02T09:22:33.643Z</time></trkpt><trkpt lat="36.7094816" lon="8.6670248"><ele>581.5</ele><time>2026-05-02T09:22:34.652Z</time></trkpt><trkpt lat="36.7096005" lon="8.6670936"><ele>580.25</ele><time>2026-05-02T09:22:35.66Z</time></trkpt><trkpt lat="36.7097048" lon="8.6671803"><ele>579.0</ele><time>2026-05-02T09:22:36.66Z</time></trkpt><trkpt lat="36.709775" lon="8.6672826"><ele>579.0</ele><time>2026-05-02T09:22:37.663Z</time></trkpt><trkpt lat="36.7098153" lon="8.6674025"><ele>579.0</ele><time>2026-05-02T09:22:38.654Z</time></trkpt><trkpt lat="36.7098372" lon="8.6675511"><ele>579.0</ele><time>2026-05-02T09:22:39.649Z</time></trkpt><trkpt lat="36.7098153" lon="8.667721"><ele>579.0</ele><time>2026-05-02T09:22:40.655Z</time></trkpt><trkpt lat="36.7097731" lon="8.667896"><ele>581.75</ele><time>2026-05-02T09:22:41.654Z</time></trkpt><trkpt lat="36.7097529" lon="8.6680724"><ele>584.5</ele><time>2026-05-02T09:22:42.67Z</time></trkpt><trkpt lat="36.7097695" lon="8.6682285"><ele>587.25</ele><time>2026-05-02T09:22:43.647Z</time></trkpt><trkpt lat="36.7098257" lon="8.668378"><ele>590.0</ele><time>2026-05-02T09:22:44.634Z</time></trkpt><trkpt lat="36.7099138" lon="8.6684768"><ele>590.0</ele><time>2026-05-02T09:22:45.644Z</time></trkpt><trkpt lat="36.710043" lon="8.6685565"><ele>590.0</ele><time>2026-05-02T09:22:46.639Z</time></trkpt><trkpt lat="36.7101791" lon="8.668622"><ele>590.0</ele><time>2026-05-02T09:22:47.648Z</time></trkpt><trkpt lat="36.7103051" lon="8.6686972"><ele>590.0</ele><time>2026-05-02T09:22:48.654Z</time></trkpt><trkpt lat="36.7104052" lon="8.6687862"><ele>591.5</ele><time>2026-05-02T09:22:49.655Z</time></trkpt><trkpt lat="36.710492" lon="8.6689018"><ele>593.0</ele><time>2026-05-02T09:22:50.65Z</time></trkpt><trkpt lat="36.7105633" lon="8.6690149"><ele>594.5</ele><time>2026-05-02T09:22:51.664Z</time></trkpt><trkpt lat="36.7106242" lon="8.6691249"><ele>596.0</ele><time>2026-05-02T09:22:52.64Z</time></trkpt><trkpt lat="36.7106814" lon="8.6692355"><ele>596.0</ele><time>2026-05-02T09:22:53.664Z</time></trkpt><trkpt lat="36.7107309" lon="8.6693457"><ele>596.0</ele><time>2026-05-02T09:22:54.656Z</time></trkpt><trkpt lat="36.7107773" lon="8.6694449"><ele>596.0</ele><time>2026-05-02T09:22:55.623Z</time></trkpt><trkpt lat="36.7108306" lon="8.6695314"><ele>596.0</ele><time>2026-05-02T09:22:56.643Z</time></trkpt><trkpt lat="36.710893" lon="8.6696067"><ele>596.0</ele><time>2026-05-02T09:22:57.654Z</time></trkpt><trkpt lat="36.7109821" lon="8.6696484"><ele>598.0</ele><time>2026-05-02T09:22:58.652Z</time></trkpt><trkpt lat="36.7110778" lon="8.669675"><ele>600.0</ele><time>2026-05-02T09:22:59.662Z</time></trkpt><trkpt lat="36.7111857" lon="8.6696759"><ele>602.0</ele><time>2026-05-02T09:23:00.656Z</time></trkpt><trkpt lat="36.7112837" lon="8.6696818"><ele>604.0</ele><time>2026-05-02T09:23:01.651Z</time></trkpt><trkpt lat="36.7113779" lon="8.669711"><ele>606.0</ele><time>2026-05-02T09:23:02.671Z</time></trkpt><trkpt lat="36.7114756" lon="8.669792"><ele>606.0</ele><time>2026-05-02T09:23:03.631Z</time></trkpt><trkpt lat="36.7115649" lon="8.6699275"><ele>606.0</ele><time>2026-05-02T09:23:04.666Z</time></trkpt><trkpt lat="36.7116569" lon="8.6700765"><ele>606.0</ele><time>2026-05-02T09:23:05.653Z</time></trkpt><trkpt lat="36.7117726" lon="8.6702199"><ele>606.3333333333334</ele><time>2026-05-02T09:23:06.651Z</time></trkpt><trkpt lat="36.7118787" lon="8.6703493"><ele>606.6666666666667</ele><time>2026-05-02T09:23:07.631Z</time></trkpt><trkpt lat="36.7119727" lon="8.6704869"><ele>607.0</ele><time>2026-05-02T09:23:08.65Z</time></trkpt><trkpt lat="36.712042" lon="8.6706617"><ele>607.0</ele><time>2026-05-02T09:23:09.654Z</time></trkpt><trkpt lat="36.7121015" lon="8.6708535"><ele>607.0</ele><time>2026-05-02T09:23:10.651Z</time></trkpt><trkpt lat="36.7121695" lon="8.6710316"><ele>607.0</ele><time>2026-05-02T09:23:11.626Z</time></trkpt><trkpt lat="36.7122707" lon="8.6711733"><ele>615.0</ele><time>2026-05-02T09:23:12.622Z</time></trkpt><trkpt lat="36.7123856" lon="8.6712766"><ele>623.0</ele><time>2026-05-02T09:23:13.661Z</time></trkpt><trkpt lat="36.7125312" lon="8.6713744"><ele>631.0</ele><time>2026-05-02T09:23:14.663Z</time></trkpt><trkpt lat="36.7126956" lon="8.6714467"><ele>628.75</ele><time>2026-05-02T09:23:15.645Z</time></trkpt><trkpt lat="36.7128364" lon="8.6715203"><ele>626.5</ele><time>2026-05-02T09:23:16.654Z</time></trkpt><trkpt lat="36.7129358" lon="8.6716146"><ele>624.25</ele><time>2026-05-02T09:23:17.642Z</time></trkpt><trkpt lat="36.7130337" lon="8.6717254"><ele>622.0</ele><time>2026-05-02T09:23:18.657Z</time></trkpt><trkpt lat="36.7131463" lon="8.6717858"><ele>622.0</ele><time>2026-05-02T09:23:19.664Z</time></trkpt><trkpt lat="36.7132642" lon="8.6718002"><ele>622.0</ele><time>2026-05-02T09:23:20.627Z</time></trkpt><trkpt lat="36.7133842" lon="8.6717687"><ele>622.0</ele><time>2026-05-02T09:23:21.646Z</time></trkpt><trkpt lat="36.7135013" lon="8.6717393"><ele>622.0</ele><time>2026-05-02T09:23:22.626Z</time></trkpt><trkpt lat="36.7136165" lon="8.6717636"><ele>622.75</ele><time>2026-05-02T09:23:23.631Z</time></trkpt><trkpt lat="36.7137305" lon="8.671853"><ele>623.5</ele><time>2026-05-02T09:23:24.612Z</time></trkpt><trkpt lat="36.7138242" lon="8.6719711"><ele>624.25</ele><time>2026-05-02T09:23:25.611Z</time></trkpt><trkpt lat="36.7138852" lon="8.6721209"><ele>625.0</ele><time>2026-05-02T09:23:26.642Z</time></trkpt><trkpt lat="36.7139205" lon="8.672277"><ele>625.0</ele><time>2026-05-02T09:23:27.625Z</time></trkpt><trkpt lat="36.7139356" lon="8.6724865"><ele>625.0</ele><time>2026-05-02T09:23:28.659Z</time></trkpt><trkpt lat="36.7139151" lon="8.6727475"><ele>625.0</ele><time>2026-05-02T09:23:29.659Z</time></trkpt><trkpt lat="36.7139055" lon="8.6730226"><ele>626.3333333333334</ele><time>2026-05-02T09:23:30.639Z</time></trkpt><trkpt lat="36.7139205" lon="8.6732735"><ele>627.6666666666666</ele><time>2026-05-02T09:23:31.651Z</time></trkpt><trkpt lat="36.7139394" lon="8.6734865"><ele>629.0</ele><time>2026-05-02T09:23:32.632Z</time></trkpt><trkpt lat="36.7139509" lon="8.673678"><ele>629.6666666666666</ele><time>2026-05-02T09:23:33.651Z</time></trkpt><trkpt lat="36.7139447" lon="8.6738647"><ele>630.3333333333334</ele><time>2026-05-02T09:23:34.655Z</time></trkpt><trkpt lat="36.7139202" lon="8.6740553"><ele>631.0</ele><time>2026-05-02T09:23:35.655Z</time></trkpt><trkpt lat="36.7138784" lon="8.6742411"><ele>631.0</ele><time>2026-05-02T09:23:36.671Z</time></trkpt><trkpt lat="36.7137939" lon="8.6744146"><ele>631.0</ele><time>2026-05-02T09:23:37.658Z</time></trkpt><trkpt lat="36.7136929" lon="8.674582"><ele>631.0</ele><time>2026-05-02T09:23:38.646Z</time></trkpt><trkpt lat="36.7135935" lon="8.6747357"><ele>636.5</ele><time>2026-05-02T09:23:39.666Z</time></trkpt><trkpt lat="36.7135385" lon="8.6748795"><ele>642.0</ele><time>2026-05-02T09:23:40.656Z</time></trkpt><trkpt lat="36.7135197" lon="8.6750256"><ele>647.5</ele><time>2026-05-02T09:23:41.651Z</time></trkpt><trkpt lat="36.7135419" lon="8.6751596"><ele>653.0</ele><time>2026-05-02T09:23:42.644Z</time></trkpt><trkpt lat="36.7136007" lon="8.6753002"><ele>653.0</ele><time>2026-05-02T09:23:43.659Z</time></trkpt><trkpt lat="36.7136999" lon="8.6754115"><ele>653.0</ele><time>2026-05-02T09:23:44.644Z</time></trkpt><trkpt lat="36.7138192" lon="8.6755184"><ele>653.0</ele><time>2026-05-02T09:23:45.653Z</time></trkpt><trkpt lat="36.71394" lon="8.675632"><ele>653.0</ele><time>2026-05-02T09:23:46.632Z</time></trkpt><trkpt lat="36.7140373" lon="8.6757628"><ele>653.0</ele><time>2026-05-02T09:23:47.63Z</time></trkpt><trkpt lat="36.7141128" lon="8.675897"><ele>653.0</ele><time>2026-05-02T09:23:48.642Z</time></trkpt><trkpt lat="36.7141842" lon="8.67601"><ele>653.0</ele><time>2026-05-02T09:23:49.672Z</time></trkpt><trkpt lat="36.7142818" lon="8.6760884"><ele>653.0</ele><time>2026-05-02T09:23:50.66Z</time></trkpt><trkpt lat="36.714406" lon="8.6760976"><ele>652.25</ele><time>2026-05-02T09:23:51.62Z</time></trkpt><trkpt lat="36.714525" lon="8.6760713"><ele>651.5</ele><time>2026-05-02T09:23:52.607Z</time></trkpt><trkpt lat="36.7146435" lon="8.6760526"><ele>650.75</ele><time>2026-05-02T09:23:53.637Z</time></trkpt><trkpt lat="36.7147504" lon="8.676056"><ele>650.0</ele><time>2026-05-02T09:23:54.658Z</time></trkpt><trkpt lat="36.7148636" lon="8.676099"><ele>651.5</ele><time>2026-05-02T09:23:55.651Z</time></trkpt><trkpt lat="36.7149758" lon="8.6761851"><ele>653.0</ele><time>2026-05-02T09:23:56.662Z</time></trkpt><trkpt lat="36.7150777" lon="8.676292"><ele>654.5</ele><time>2026-05-02T09:23:57.633Z</time></trkpt><trkpt lat="36.7151886" lon="8.6764054"><ele>656.0</ele><time>2026-05-02T09:23:58.65Z</time></trkpt><trkpt lat="36.7152935" lon="8.6765112"><ele>656.0</ele><time>2026-05-02T09:23:59.664Z</time></trkpt><trkpt lat="36.715397" lon="8.676627"><ele>656.0</ele><time>2026-05-02T09:24:00.668Z</time></trkpt><trkpt lat="36.7155049" lon="8.6767376"><ele>656.0</ele><time>2026-05-02T09:24:01.657Z</time></trkpt><trkpt lat="36.715615" lon="8.6768564"><ele>656.0</ele><time>2026-05-02T09:24:02.649Z</time></trkpt><trkpt lat="36.7157312" lon="8.6769774"><ele>659.0</ele><time>2026-05-02T09:24:03.634Z</time></trkpt><trkpt lat="36.7158575" lon="8.6770887"><ele>662.0</ele><time>2026-05-02T09:24:04.648Z</time></trkpt><trkpt lat="36.7159863" lon="8.6772019"><ele>665.0</ele><time>2026-05-02T09:24:05.641Z</time></trkpt><trkpt lat="36.716117" lon="8.6773091"><ele>665.0</ele><time>2026-05-02T09:24:06.655Z</time></trkpt><trkpt lat="36.7162426" lon="8.6774084"><ele>665.0</ele><time>2026-05-02T09:24:07.664Z</time></trkpt><trkpt lat="36.716356" lon="8.6774975"><ele>665.0</ele><time>2026-05-02T09:24:08.667Z</time></trkpt><trkpt lat="36.7164345" lon="8.6776028"><ele>665.0</ele><time>2026-05-02T09:24:09.65Z</time></trkpt><trkpt lat="36.7164937" lon="8.6777347"><ele>667.25</ele><time>2026-05-02T09:24:10.655Z</time></trkpt><trkpt lat="36.7165206" lon="8.6778974"><ele>669.5</ele><time>2026-05-02T09:24:11.657Z</time></trkpt><trkpt lat="36.7165256" lon="8.6780815"><ele>671.75</ele><time>2026-05-02T09:24:12.659Z</time></trkpt><trkpt lat="36.7165424" lon="8.6782669"><ele>674.0</ele><time>2026-05-02T09:24:13.651Z</time></trkpt><trkpt lat="36.7165863" lon="8.6784356"><ele>674.0</ele><time>2026-05-02T09:24:14.664Z</time></trkpt><trkpt lat="36.7166532" lon="8.6785986"><ele>674.0</ele><time>2026-05-02T09:24:15.658Z</time></trkpt><trkpt lat="36.7167271" lon="8.6787479"><ele>674.0</ele><time>2026-05-02T09:24:16.638Z</time></trkpt><trkpt lat="36.7168141" lon="8.6788684"><ele>674.0</ele><time>2026-05-02T09:24:17.659Z</time></trkpt><trkpt lat="36.7169245" lon="8.6789463"><ele>676.0</ele><time>2026-05-02T09:24:18.652Z</time></trkpt><trkpt lat="36.7170426" lon="8.6789844"><ele>678.0</ele><time>2026-05-02T09:24:19.651Z</time></trkpt><trkpt lat="36.7171814" lon="8.6790004"><ele>680.0</ele><time>2026-05-02T09:24:20.645Z</time></trkpt><trkpt lat="36.7173295" lon="8.6790393"><ele>682.0</ele><time>2026-05-02T09:24:21.653Z</time></trkpt><trkpt lat="36.7174495" lon="8.6791203"><ele>682.0</ele><time>2026-05-02T09:24:22.656Z</time></trkpt><trkpt lat="36.7175614" lon="8.6792439"><ele>682.0</ele><time>2026-05-02T09:24:23.612Z</time></trkpt><trkpt lat="36.7176763" lon="8.6793528"><ele>682.0</ele><time>2026-05-02T09:24:24.636Z</time></trkpt><trkpt lat="36.7178116" lon="8.6794415"><ele>682.0</ele><time>2026-05-02T09:24:25.648Z</time></trkpt><trkpt lat="36.7179767" lon="8.6794996"><ele>683.6666666666667</ele><time>2026-05-02T09:24:26.657Z</time></trkpt><trkpt lat="36.7181443" lon="8.6795325"><ele>685.3333333333334</ele><time>2026-05-02T09:24:27.656Z</time></trkpt><trkpt lat="36.7183177" lon="8.6795563"><ele>687.0</ele><time>2026-05-02T09:24:28.648Z</time></trkpt><trkpt lat="36.7184874" lon="8.679556"><ele>686.3333333333334</ele><time>2026-05-02T09:24:29.647Z</time></trkpt><trkpt lat="36.7186571" lon="8.6795389"><ele>685.6666666666667</ele><time>2026-05-02T09:24:30.626Z</time></trkpt><trkpt lat="36.7188253" lon="8.6795126"><ele>685.0</ele><time>2026-05-02T09:24:31.654Z</time></trkpt><trkpt lat="36.7189831" lon="8.6794883"><ele>685.0</ele><time>2026-05-02T09:24:32.654Z</time></trkpt><trkpt lat="36.7191304" lon="8.6794549"><ele>685.0</ele><time>2026-05-02T09:24:33.629Z</time></trkpt><trkpt lat="36.719269" lon="8.6794113"><ele>685.0</ele><time>2026-05-02T09:24:34.632Z</time></trkpt><trkpt lat="36.7193968" lon="8.6793549"><ele>685.0</ele><time>2026-05-02T09:24:35.657Z</time></trkpt><trkpt lat="36.7195047" lon="8.6792628"><ele>687.25</ele><time>2026-05-02T09:24:36.657Z</time></trkpt><trkpt lat="36.7196038" lon="8.6791503"><ele>689.5</ele><time>2026-05-02T09:24:37.659Z</time></trkpt><trkpt lat="36.7196992" lon="8.6790368"><ele>691.75</ele><time>2026-05-02T09:24:38.652Z</time></trkpt><trkpt lat="36.7197987" lon="8.6789157"><ele>694.0</ele><time>2026-05-02T09:24:39.632Z</time></trkpt><trkpt lat="36.719891" lon="8.6787831"><ele>694.0</ele><time>2026-05-02T09:24:40.651Z</time></trkpt><trkpt lat="36.7199756" lon="8.6786437"><ele>694.0</ele><time>2026-05-02T09:24:41.656Z</time></trkpt><trkpt lat="36.720041" lon="8.678481"><ele>694.0</ele><time>2026-05-02T09:24:42.657Z</time></trkpt><trkpt lat="36.7200999" lon="8.6782884"><ele>696.6666666666667</ele><time>2026-05-02T09:24:43.664Z</time></trkpt><trkpt lat="36.7201597" lon="8.6780941"><ele>699.3333333333334</ele><time>2026-05-02T09:24:44.64Z</time></trkpt><trkpt lat="36.7202131" lon="8.677903"><ele>702.0</ele><time>2026-05-02T09:24:45.655Z</time></trkpt><trkpt lat="36.7202771" lon="8.6777474"><ele>702.0</ele><time>2026-05-02T09:24:46.615Z</time></trkpt><trkpt lat="36.7203469" lon="8.6776129"><ele>702.0</ele><time>2026-05-02T09:24:47.662Z</time></trkpt><trkpt lat="36.7204286" lon="8.6774965"><ele>702.0</ele><time>2026-05-02T09:24:48.657Z</time></trkpt><trkpt lat="36.7205307" lon="8.6774107"><ele>702.0</ele><time>2026-05-02T09:24:49.638Z</time></trkpt><trkpt lat="36.7206672" lon="8.6773787"><ele>702.0</ele><time>2026-05-02T09:24:50.652Z</time></trkpt><trkpt lat="36.720822" lon="8.6773839"><ele>702.0</ele><time>2026-05-02T09:24:51.661Z</time></trkpt><trkpt lat="36.7209781" lon="8.6774435"><ele>702.0</ele><time>2026-05-02T09:24:52.629Z</time></trkpt><trkpt lat="36.7211181" lon="8.6775448"><ele>706.0</ele><time>2026-05-02T09:24:53.655Z</time></trkpt><trkpt lat="36.721261" lon="8.6776573"><ele>710.0</ele><time>2026-05-02T09:24:54.65Z</time></trkpt><trkpt lat="36.7213931" lon="8.6778196"><ele>714.0</ele><time>2026-05-02T09:24:55.666Z</time></trkpt><trkpt lat="36.7215094" lon="8.6780273"><ele>714.0</ele><time>2026-05-02T09:24:56.644Z</time></trkpt><trkpt lat="36.7216053" lon="8.6782545"><ele>714.0</ele><time>2026-05-02T09:24:57.629Z</time></trkpt><trkpt lat="36.7216725" lon="8.6784953"><ele>714.0</ele><time>2026-05-02T09:24:58.661Z</time></trkpt><trkpt lat="36.7217296" lon="8.6787346"><ele>712.6666666666666</ele><time>2026-05-02T09:24:59.663Z</time></trkpt><trkpt lat="36.7218052" lon="8.6789597"><ele>711.3333333333333</ele><time>2026-05-02T09:25:00.657Z</time></trkpt><trkpt lat="36.7218995" lon="8.679183"><ele>710.0</ele><time>2026-05-02T09:25:01.644Z</time></trkpt><trkpt lat="36.7220111" lon="8.6793988"><ele>713.0</ele><time>2026-05-02T09:25:02.628Z</time></trkpt><trkpt lat="36.7221343" lon="8.6795861"><ele>716.0</ele><time>2026-05-02T09:25:03.673Z</time></trkpt><trkpt lat="36.7222802" lon="8.6797554"><ele>719.0</ele><time>2026-05-02T09:25:04.66Z</time></trkpt><trkpt lat="36.7224506" lon="8.6798883"><ele>719.0</ele><time>2026-05-02T09:25:05.671Z</time></trkpt><trkpt lat="36.722623" lon="8.6800015"><ele>719.0</ele><time>2026-05-02T09:25:06.673Z</time></trkpt><trkpt lat="36.7227785" lon="8.6801086"><ele>719.0</ele><time>2026-05-02T09:25:07.667Z</time></trkpt><trkpt lat="36.7229123" lon="8.6802029"><ele>717.3333333333333</ele><time>2026-05-02T09:25:08.661Z</time></trkpt><trkpt lat="36.7230542" lon="8.6802781"><ele>715.6666666666666</ele><time>2026-05-02T09:25:09.659Z</time></trkpt><trkpt lat="36.7232111" lon="8.6803184"><ele>714.0</ele><time>2026-05-02T09:25:10.669Z</time></trkpt><trkpt lat="36.7233784" lon="8.6803195"><ele>714.0</ele><time>2026-05-02T09:25:11.646Z</time></trkpt><trkpt lat="36.7235496" lon="8.6803125"><ele>714.0</ele><time>2026-05-02T09:25:12.643Z</time></trkpt><trkpt lat="36.7237124" lon="8.6803035"><ele>714.0</ele><time>2026-05-02T09:25:13.666Z</time></trkpt><trkpt lat="36.7238726" lon="8.6802838"><ele>720.0</ele><time>2026-05-02T09:25:14.67Z</time></trkpt><trkpt lat="36.7240302" lon="8.6802451"><ele>726.0</ele><time>2026-05-02T09:25:15.663Z</time></trkpt><trkpt lat="36.7241744" lon="8.680206"><ele>732.0</ele><time>2026-05-02T09:25:16.665Z</time></trkpt><trkpt lat="36.724309" lon="8.68019"><ele>738.0</ele><time>2026-05-02T09:25:17.664Z</time></trkpt><trkpt lat="36.7244229" lon="8.6802225"><ele>737.25</ele><time>2026-05-02T09:25:18.648Z</time></trkpt><trkpt lat="36.724525" lon="8.6802915"><ele>736.5</ele><time>2026-05-02T09:25:19.664Z</time></trkpt><trkpt lat="36.7246143" lon="8.6804115"><ele>735.75</ele><time>2026-05-02T09:25:20.638Z</time></trkpt><trkpt lat="36.724704" lon="8.6805704"><ele>735.0</ele><time>2026-05-02T09:25:21.662Z</time></trkpt><trkpt lat="36.724805" lon="8.6807265"><ele>735.0</ele><time>2026-05-02T09:25:22.64Z</time></trkpt><trkpt lat="36.7249307" lon="8.6808685"><ele>735.0</ele><time>2026-05-02T09:25:23.662Z</time></trkpt><trkpt lat="36.7250704" lon="8.6809707"><ele>735.0</ele><time>2026-05-02T09:25:24.674Z</time></trkpt><trkpt lat="36.7252218" lon="8.6810468"><ele>736.25</ele><time>2026-05-02T09:25:25.64Z</time></trkpt><trkpt lat="36.7253648" lon="8.6810916"><ele>737.5</ele><time>2026-05-02T09:25:26.644Z</time></trkpt><trkpt lat="36.7255107" lon="8.681079"><ele>738.75</ele><time>2026-05-02T09:25:27.645Z</time></trkpt><trkpt lat="36.7256501" lon="8.6810293"><ele>740.0</ele><time>2026-05-02T09:25:28.61Z</time></trkpt><trkpt lat="36.72578" lon="8.6809309"><ele>740.0</ele><time>2026-05-02T09:25:29.635Z</time></trkpt><trkpt lat="36.7258904" lon="8.6807871"><ele>740.0</ele><time>2026-05-02T09:25:30.613Z</time></trkpt><trkpt lat="36.7260018" lon="8.6806061"><ele>740.0</ele><time>2026-05-02T09:25:31.628Z</time></trkpt><trkpt lat="36.7261293" lon="8.6803637"><ele>744.6666666666666</ele><time>2026-05-02T09:25:32.644Z</time></trkpt><trkpt lat="36.726238" lon="8.6801615"><ele>749.3333333333334</ele><time>2026-05-02T09:25:33.661Z</time></trkpt><trkpt lat="36.7263055" lon="8.6799745"><ele>754.0</ele><time>2026-05-02T09:25:34.621Z</time></trkpt><trkpt lat="36.7263893" lon="8.6798476"><ele>754.0</ele><time>2026-05-02T09:25:35.641Z</time></trkpt><trkpt lat="36.7264932" lon="8.6797376"><ele>754.0</ele><time>2026-05-02T09:25:36.649Z</time></trkpt><trkpt lat="36.7266282" lon="8.6796928"><ele>754.0</ele><time>2026-05-02T09:25:37.625Z</time></trkpt><trkpt lat="36.7267632" lon="8.6796871"><ele>754.0</ele><time>2026-05-02T09:25:38.648Z</time></trkpt><trkpt lat="36.7269039" lon="8.6797329"><ele>755.6666666666667</ele><time>2026-05-02T09:25:39.641Z</time></trkpt><trkpt lat="36.7270743" lon="8.6798404"><ele>757.3333333333334</ele><time>2026-05-02T09:25:40.641Z</time></trkpt><trkpt lat="36.7272564" lon="8.6799613"><ele>759.0</ele><time>2026-05-02T09:25:41.647Z</time></trkpt><trkpt lat="36.7274398" lon="8.6800761"><ele>759.0</ele><time>2026-05-02T09:25:42.653Z</time></trkpt><trkpt lat="36.7276189" lon="8.680151"><ele>759.0</ele><time>2026-05-02T09:25:43.663Z</time></trkpt><trkpt lat="36.7277926" lon="8.6801906"><ele>759.0</ele><time>2026-05-02T09:25:44.637Z</time></trkpt><trkpt lat="36.7279674" lon="8.6801733"><ele>757.0</ele><time>2026-05-02T09:25:45.648Z</time></trkpt><trkpt lat="36.728145" lon="8.6801422"><ele>755.0</ele><time>2026-05-02T09:25:46.65Z</time></trkpt><trkpt lat="36.7282971" lon="8.6801092"><ele>753.0</ele><time>2026-05-02T09:25:47.617Z</time></trkpt><trkpt lat="36.7284252" lon="8.6800615"><ele>753.0</ele><time>2026-05-02T09:25:48.637Z</time></trkpt><trkpt lat="36.7285401" lon="8.679973"><ele>753.0</ele><time>2026-05-02T09:25:49.648Z</time></trkpt><trkpt lat="36.7286376" lon="8.6798386"><ele>753.0</ele><time>2026-05-02T09:25:50.652Z</time></trkpt><trkpt lat="36.7287131" lon="8.6796454"><ele>754.0</ele><time>2026-05-02T09:25:51.64Z</time></trkpt><trkpt lat="36.7287565" lon="8.6794327"><ele>755.0</ele><time>2026-05-02T09:25:52.622Z</time></trkpt><trkpt lat="36.7287893" lon="8.6792286"><ele>756.0</ele><time>2026-05-02T09:25:53.629Z</time></trkpt><trkpt lat="36.7288316" lon="8.6791001"><ele>756.0</ele><time>2026-05-02T09:25:54.62Z</time></trkpt><trkpt lat="36.7288896" lon="8.6789926"><ele>756.0</ele><time>2026-05-02T09:25:55.62Z</time></trkpt><trkpt lat="36.7289732" lon="8.6789484"><ele>756.0</ele><time>2026-05-02T09:25:56.659Z</time></trkpt><trkpt lat="36.7290807" lon="8.6789198"><ele>756.0</ele><time>2026-05-02T09:25:57.615Z</time></trkpt><trkpt lat="36.7292092" lon="8.6789356"><ele>756.0</ele><time>2026-05-02T09:25:58.648Z</time></trkpt><trkpt lat="36.7293353" lon="8.6789939"><ele>754.25</ele><time>2026-05-02T09:25:59.66Z</time></trkpt><trkpt lat="36.7294594" lon="8.6790716"><ele>752.5</ele><time>2026-05-02T09:26:00.659Z</time></trkpt><trkpt lat="36.7295876" lon="8.6791637"><ele>750.75</ele><time>2026-05-02T09:26:01.622Z</time></trkpt><trkpt lat="36.7297127" lon="8.6792816"><ele>749.0</ele><time>2026-05-02T09:26:02.631Z</time></trkpt><trkpt lat="36.7298303" lon="8.6793928"><ele>749.25</ele><time>2026-05-02T09:26:03.664Z</time></trkpt><trkpt lat="36.7299328" lon="8.6795191"><ele>749.5</ele><time>2026-05-02T09:26:04.649Z</time></trkpt><trkpt lat="36.7300186" lon="8.6796526"><ele>749.75</ele><time>2026-05-02T09:26:05.63Z</time></trkpt><trkpt lat="36.7300879" lon="8.679778"><ele>750.0</ele><time>2026-05-02T09:26:06.651Z</time></trkpt><trkpt lat="36.7301526" lon="8.6798958"><ele>750.0</ele><time>2026-05-02T09:26:07.658Z</time></trkpt><trkpt lat="36.7302208" lon="8.6800056"><ele>750.0</ele><time>2026-05-02T09:26:08.642Z</time></trkpt><trkpt lat="36.7303159" lon="8.6801007"><ele>750.0</ele><time>2026-05-02T09:26:09.667Z</time></trkpt><trkpt lat="36.7304479" lon="8.6801773"><ele>750.0</ele><time>2026-05-02T09:26:10.664Z</time></trkpt><trkpt lat="36.7306132" lon="8.680233"><ele>750.3333333333334</ele><time>2026-05-02T09:26:11.651Z</time></trkpt><trkpt lat="36.7307975" lon="8.6802773"><ele>750.6666666666667</ele><time>2026-05-02T09:26:12.605Z</time></trkpt><trkpt lat="36.7309767" lon="8.6803437"><ele>751.0</ele><time>2026-05-02T09:26:13.63Z</time></trkpt><trkpt lat="36.7311505" lon="8.6803977"><ele>750.5</ele><time>2026-05-02T09:26:14.675Z</time></trkpt><trkpt lat="36.7313143" lon="8.6804414"><ele>750.0</ele><time>2026-05-02T09:26:15.671Z</time></trkpt><trkpt lat="36.7314599" lon="8.6804761"><ele>749.5</ele><time>2026-05-02T09:26:16.664Z</time></trkpt><trkpt lat="36.7315866" lon="8.6804934"><ele>749.0</ele><time>2026-05-02T09:26:17.651Z</time></trkpt><trkpt lat="36.7316924" lon="8.6805163"><ele>749.0</ele><time>2026-05-02T09:26:18.629Z</time></trkpt><trkpt lat="36.7317994" lon="8.6805589"><ele>749.0</ele><time>2026-05-02T09:26:19.665Z</time></trkpt><trkpt lat="36.7319074" lon="8.6806167"><ele>749.0</ele><time>2026-05-02T09:26:20.667Z</time></trkpt><trkpt lat="36.7320219" lon="8.6806895"><ele>749.0</ele><time>2026-05-02T09:26:21.661Z</time></trkpt><trkpt lat="36.7321417" lon="8.6807781"><ele>750.5</ele><time>2026-05-02T09:26:22.654Z</time></trkpt><trkpt lat="36.7322487" lon="8.6808785"><ele>752.0</ele><time>2026-05-02T09:26:23.631Z</time></trkpt><trkpt lat="36.7323502" lon="8.680972"><ele>753.5</ele><time>2026-05-02T09:26:24.636Z</time></trkpt><trkpt lat="36.7324579" lon="8.6810454"><ele>755.0</ele><time>2026-05-02T09:26:25.649Z</time></trkpt><trkpt lat="36.7325684" lon="8.6811035"><ele>755.0</ele><time>2026-05-02T09:26:26.635Z</time></trkpt><trkpt lat="36.7326979" lon="8.6811185"><ele>755.0</ele><time>2026-05-02T09:26:27.642Z</time></trkpt><trkpt lat="36.7328304" lon="8.6811099"><ele>755.0</ele><time>2026-05-02T09:26:28.628Z</time></trkpt><trkpt lat="36.7329631" lon="8.6810671"><ele>755.0</ele><time>2026-05-02T09:26:29.669Z</time></trkpt><trkpt lat="36.7331081" lon="8.6809805"><ele>747.6666666666666</ele><time>2026-05-02T09:26:30.67Z</time></trkpt><trkpt lat="36.7332537" lon="8.6808626"><ele>740.3333333333334</ele><time>2026-05-02T09:26:31.657Z</time></trkpt><trkpt lat="36.7334072" lon="8.6807044"><ele>733.0</ele><time>2026-05-02T09:26:32.636Z</time></trkpt><trkpt lat="36.7335455" lon="8.6805634"><ele>736.0</ele><time>2026-05-02T09:26:33.664Z</time></trkpt><trkpt lat="36.7336684" lon="8.6804378"><ele>739.0</ele><time>2026-05-02T09:26:34.671Z</time></trkpt><trkpt lat="36.7338125" lon="8.6803579"><ele>742.0</ele><time>2026-05-02T09:26:35.633Z</time></trkpt><trkpt lat="36.7339743" lon="8.6803262"><ele>742.0</ele><time>2026-05-02T09:26:36.654Z</time></trkpt><trkpt lat="36.7341474" lon="8.680297"><ele>742.0</ele><time>2026-05-02T09:26:37.644Z</time></trkpt><trkpt lat="36.7343236" lon="8.6802474"><ele>742.0</ele><time>2026-05-02T09:26:38.614Z</time></trkpt><trkpt lat="36.7344975" lon="8.6801714"><ele>732.0</ele><time>2026-05-02T09:26:39.653Z</time></trkpt><trkpt lat="36.7346619" lon="8.6801058"><ele>722.0</ele><time>2026-05-02T09:26:40.613Z</time></trkpt><trkpt lat="36.7348173" lon="8.6800789"><ele>712.0</ele><time>2026-05-02T09:26:41.652Z</time></trkpt><trkpt lat="36.7349642" lon="8.6800685"><ele>712.0</ele><time>2026-05-02T09:26:42.646Z</time></trkpt><trkpt lat="36.735114" lon="8.6800968"><ele>712.0</ele><time>2026-05-02T09:26:43.647Z</time></trkpt><trkpt lat="36.7352639" lon="8.6801677"><ele>712.0</ele><time>2026-05-02T09:26:44.646Z</time></trkpt><trkpt lat="36.7354304" lon="8.6802775"><ele>716.0</ele><time>2026-05-02T09:26:45.662Z</time></trkpt><trkpt lat="36.735594" lon="8.6804021"><ele>720.0</ele><time>2026-05-02T09:26:46.621Z</time></trkpt><trkpt lat="36.7357326" lon="8.6805492"><ele>724.0</ele><time>2026-05-02T09:26:47.627Z</time></trkpt><trkpt lat="36.735861" lon="8.6806778"><ele>724.0</ele><time>2026-05-02T09:26:48.621Z</time></trkpt><trkpt lat="36.7359724" lon="8.6808406"><ele>724.0</ele><time>2026-05-02T09:26:49.65Z</time></trkpt><trkpt lat="36.7360731" lon="8.6810199"><ele>724.0</ele><time>2026-05-02T09:26:50.625Z</time></trkpt><trkpt lat="36.7361618" lon="8.6811817"><ele>724.75</ele><time>2026-05-02T09:26:51.634Z</time></trkpt><trkpt lat="36.7362504" lon="8.6813156"><ele>725.5</ele><time>2026-05-02T09:26:52.619Z</time></trkpt><trkpt lat="36.7363258" lon="8.6814326"><ele>726.25</ele><time>2026-05-02T09:26:53.633Z</time></trkpt><trkpt lat="36.7364143" lon="8.6815123"><ele>727.0</ele><time>2026-05-02T09:26:54.616Z</time></trkpt><trkpt lat="36.7364949" lon="8.6815492"><ele>727.0</ele><time>2026-05-02T09:26:55.627Z</time></trkpt><trkpt lat="36.736589" lon="8.6814967"><ele>727.0</ele><time>2026-05-02T09:26:56.641Z</time></trkpt><trkpt lat="36.7366729" lon="8.6814157"><ele>727.0</ele><time>2026-05-02T09:26:57.632Z</time></trkpt><trkpt lat="36.7367562" lon="8.6813053"><ele>727.0</ele><time>2026-05-02T09:26:58.607Z</time></trkpt><trkpt lat="36.7368467" lon="8.6811786"><ele>720.75</ele><time>2026-05-02T09:26:59.631Z</time></trkpt><trkpt lat="36.7369515" lon="8.6810773"><ele>714.5</ele><time>2026-05-02T09:27:00.644Z</time></trkpt><trkpt lat="36.7370577" lon="8.6810157"><ele>708.25</ele><time>2026-05-02T09:27:01.633Z</time></trkpt><trkpt lat="36.7371686" lon="8.6809826"><ele>702.0</ele><time>2026-05-02T09:27:02.626Z</time></trkpt><trkpt lat="36.7372884" lon="8.6809718"><ele>702.0</ele><time>2026-05-02T09:27:03.643Z</time></trkpt><trkpt lat="36.7374086" lon="8.6809952"><ele>702.0</ele><time>2026-05-02T09:27:04.637Z</time></trkpt><trkpt lat="36.7375148" lon="8.6810691"><ele>702.0</ele><time>2026-05-02T09:27:05.646Z</time></trkpt><trkpt lat="36.7376271" lon="8.6811693"><ele>702.0</ele><time>2026-05-02T09:27:06.611Z</time></trkpt><trkpt lat="36.737758" lon="8.6812985"><ele>700.0</ele><time>2026-05-02T09:27:07.644Z</time></trkpt><trkpt lat="36.7378972" lon="8.6814393"><ele>698.0</ele><time>2026-05-02T09:27:08.64Z</time></trkpt><trkpt lat="36.7380426" lon="8.6816087"><ele>696.0</ele><time>2026-05-02T09:27:09.645Z</time></trkpt><trkpt lat="36.7382053" lon="8.6818172"><ele>704.0</ele><time>2026-05-02T09:27:10.617Z</time></trkpt><trkpt lat="36.73836" lon="8.6820342"><ele>712.0</ele><time>2026-05-02T09:27:11.65Z</time></trkpt><trkpt lat="36.7385136" lon="8.6822393"><ele>706.6666666666667</ele><time>2026-05-02T09:27:12.628Z</time></trkpt><trkpt lat="36.7386633" lon="8.6824279"><ele>701.3333333333334</ele><time>2026-05-02T09:27:13.65Z</time></trkpt><trkpt lat="36.7388003" lon="8.6826073"><ele>696.0</ele><time>2026-05-02T09:27:14.656Z</time></trkpt><trkpt lat="36.7389292" lon="8.6827711"><ele>696.0</ele><time>2026-05-02T09:27:15.639Z</time></trkpt><trkpt lat="36.7390504" lon="8.6829395"><ele>696.0</ele><time>2026-05-02T09:27:16.677Z</time></trkpt><trkpt lat="36.7391623" lon="8.6830997"><ele>696.0</ele><time>2026-05-02T09:27:17.668Z</time></trkpt><trkpt lat="36.7392699" lon="8.6832615"><ele>696.0</ele><time>2026-05-02T09:27:18.656Z</time></trkpt><trkpt lat="36.7393605" lon="8.6834245"><ele>696.0</ele><time>2026-05-02T09:27:19.622Z</time></trkpt><trkpt lat="36.7394271" lon="8.6835961"><ele>696.0</ele><time>2026-05-02T09:27:20.615Z</time></trkpt><trkpt lat="36.7394763" lon="8.6837731"><ele>693.8</ele><time>2026-05-02T09:27:21.651Z</time></trkpt><trkpt lat="36.7395138" lon="8.683929"><ele>691.5999999999999</ele><time>2026-05-02T09:27:22.635Z</time></trkpt><trkpt lat="36.7395649" lon="8.6840461"><ele>689.4</ele><time>2026-05-02T09:27:23.642Z</time></trkpt><trkpt lat="36.7396335" lon="8.684128"><ele>687.2</ele><time>2026-05-02T09:27:24.654Z</time></trkpt><trkpt lat="36.7397128" lon="8.6841676"><ele>685.0</ele><time>2026-05-02T09:27:25.654Z</time></trkpt><trkpt lat="36.7398221" lon="8.6841518"><ele>685.0</ele><time>2026-05-02T09:27:26.639Z</time></trkpt><trkpt lat="36.7399436" lon="8.684104"><ele>685.0</ele><time>2026-05-02T09:27:27.641Z</time></trkpt><trkpt lat="36.7400644" lon="8.6840327"><ele>685.0</ele><time>2026-05-02T09:27:28.623Z</time></trkpt><trkpt lat="36.7402004" lon="8.6839508"><ele>685.0</ele><time>2026-05-02T09:27:29.632Z</time></trkpt><trkpt lat="36.7403401" lon="8.6838795"><ele>684.0</ele><time>2026-05-02T09:27:30.637Z</time></trkpt><trkpt lat="36.7404999" lon="8.6838435"><ele>683.0</ele><time>2026-05-02T09:27:31.602Z</time></trkpt><trkpt lat="36.7406805" lon="8.6838456"><ele>682.0</ele><time>2026-05-02T09:27:32.651Z</time></trkpt><trkpt lat="36.7408708" lon="8.6838724"><ele>680.0</ele><time>2026-05-02T09:27:33.656Z</time></trkpt><trkpt lat="36.7410779" lon="8.6838881"><ele>678.0</ele><time>2026-05-02T09:27:34.638Z</time></trkpt><trkpt lat="36.7412907" lon="8.683901"><ele>676.0</ele><time>2026-05-02T09:27:35.627Z</time></trkpt><trkpt lat="36.7414903" lon="8.6839031"><ele>676.0</ele><time>2026-05-02T09:27:36.651Z</time></trkpt><trkpt lat="36.7416719" lon="8.6838987"><ele>676.0</ele><time>2026-05-02T09:27:37.656Z</time></trkpt><trkpt lat="36.7418444" lon="8.6838934"><ele>676.0</ele><time>2026-05-02T09:27:38.644Z</time></trkpt><trkpt lat="36.742006" lon="8.6838791"><ele>675.0</ele><time>2026-05-02T09:27:39.636Z</time></trkpt><trkpt lat="36.7421477" lon="8.683834"><ele>674.0</ele><time>2026-05-02T09:27:40.65Z</time></trkpt><trkpt lat="36.7422694" lon="8.6837783"><ele>673.0</ele><time>2026-05-02T09:27:41.599Z</time></trkpt><trkpt lat="36.7423675" lon="8.6836788"><ele>672.0</ele><time>2026-05-02T09:27:42.64Z</time></trkpt><trkpt lat="36.7424348" lon="8.6835546"><ele>669.2</ele><time>2026-05-02T09:27:43.641Z</time></trkpt><trkpt lat="36.7424761" lon="8.6834052"><ele>666.4000000000001</ele><time>2026-05-02T09:27:44.639Z</time></trkpt><trkpt lat="36.7424832" lon="8.6832525"><ele>663.5999999999999</ele><time>2026-05-02T09:27:45.629Z</time></trkpt><trkpt lat="36.7424756" lon="8.6831241"><ele>660.8</ele><time>2026-05-02T09:27:46.616Z</time></trkpt><trkpt lat="36.7424328" lon="8.6830185"><ele>658.0</ele><time>2026-05-02T09:27:47.643Z</time></trkpt><trkpt lat="36.742374" lon="8.6829486"><ele>658.0</ele><time>2026-05-02T09:27:48.659Z</time></trkpt><trkpt lat="36.7422843" lon="8.6829427"><ele>658.0</ele><time>2026-05-02T09:27:49.639Z</time></trkpt><trkpt lat="36.7422047" lon="8.682963"><ele>658.0</ele><time>2026-05-02T09:27:50.645Z</time></trkpt><trkpt lat="36.7421373" lon="8.6830311"><ele>658.0</ele><time>2026-05-02T09:27:51.664Z</time></trkpt><trkpt lat="36.7420599" lon="8.6831385"><ele>658.0</ele><time>2026-05-02T09:27:52.649Z</time></trkpt><trkpt lat="36.7419773" lon="8.6832459"><ele>658.0</ele><time>2026-05-02T09:27:53.63Z</time></trkpt><trkpt lat="36.741881" lon="8.683299"><ele>658.0</ele><time>2026-05-02T09:27:54.655Z</time></trkpt><trkpt lat="36.7417435" lon="8.6832861"><ele>658.0</ele><time>2026-05-02T09:27:55.652Z</time></trkpt><trkpt lat="36.7415789" lon="8.6832566"><ele>658.0</ele><time>2026-05-02T09:27:56.643Z</time></trkpt><trkpt lat="36.7414104" lon="8.6832002"><ele>658.0</ele><time>2026-05-02T09:27:57.651Z</time></trkpt><trkpt lat="36.7412463" lon="8.683146"><ele>658.0</ele><time>2026-05-02T09:27:58.659Z</time></trkpt><trkpt lat="36.7410874" lon="8.6830923"><ele>658.0</ele><time>2026-05-02T09:27:59.622Z</time></trkpt><trkpt lat="36.7409525" lon="8.6830235"><ele>658.3333333333334</ele><time>2026-05-02T09:28:00.649Z</time></trkpt><trkpt lat="36.740821" lon="8.6829303"><ele>658.6666666666666</ele><time>2026-05-02T09:28:01.648Z</time></trkpt><trkpt lat="36.7406892" lon="8.6828132"><ele>659.0</ele><time>2026-05-02T09:28:02.632Z</time></trkpt><trkpt lat="36.7405741" lon="8.68267"><ele>655.75</ele><time>2026-05-02T09:28:03.656Z</time></trkpt><trkpt lat="36.7404798" lon="8.6825398"><ele>652.5</ele><time>2026-05-02T09:28:04.628Z</time></trkpt><trkpt lat="36.740405" lon="8.6823988"><ele>649.25</ele><time>2026-05-02T09:28:05.616Z</time></trkpt><trkpt lat="36.7403563" lon="8.6822516"><ele>646.0</ele><time>2026-05-02T09:28:06.649Z</time></trkpt><trkpt lat="36.7403428" lon="8.6820811"><ele>642.0</ele><time>2026-05-02T09:28:07.659Z</time></trkpt><trkpt lat="36.7403416" lon="8.6818645"><ele>638.0</ele><time>2026-05-02T09:28:08.651Z</time></trkpt><trkpt lat="36.7403577" lon="8.6816233"><ele>634.0</ele><time>2026-05-02T09:28:09.632Z</time></trkpt><trkpt lat="36.7403826" lon="8.6813773"><ele>634.0</ele><time>2026-05-02T09:28:10.641Z</time></trkpt><trkpt lat="36.7404057" lon="8.6811597"><ele>634.0</ele><time>2026-05-02T09:28:11.648Z</time></trkpt><trkpt lat="36.7404286" lon="8.6809804"><ele>634.0</ele><time>2026-05-02T09:28:12.656Z</time></trkpt><trkpt lat="36.7404558" lon="8.680826"><ele>634.0</ele><time>2026-05-02T09:28:13.65Z</time></trkpt><trkpt lat="36.7404778" lon="8.6806989"><ele>633.0</ele><time>2026-05-02T09:28:14.607Z</time></trkpt><trkpt lat="36.7404972" lon="8.6806049"><ele>632.0</ele><time>2026-05-02T09:28:15.686Z</time></trkpt><trkpt lat="36.7405328" lon="8.6805226"><ele>631.0</ele><time>2026-05-02T09:28:16.627Z</time></trkpt><trkpt lat="36.7405903" lon="8.6804731"><ele>630.0</ele><time>2026-05-02T09:28:17.658Z</time></trkpt><trkpt lat="36.7406522" lon="8.680441"><ele>629.0</ele><time>2026-05-02T09:28:18.643Z</time></trkpt><trkpt lat="36.740717" lon="8.6804501"><ele>628.0</ele><time>2026-05-02T09:28:19.668Z</time></trkpt><trkpt lat="36.7407859" lon="8.6804972"><ele>627.0</ele><time>2026-05-02T09:28:20.649Z</time></trkpt><trkpt lat="36.7408249" lon="8.68058"><ele>627.0</ele><time>2026-05-02T09:28:21.662Z</time></trkpt><trkpt lat="36.7408562" lon="8.6806916"><ele>627.0</ele><time>2026-05-02T09:28:22.664Z</time></trkpt><trkpt lat="36.7408819" lon="8.6808273"><ele>627.0</ele><time>2026-05-02T09:28:23.668Z</time></trkpt><trkpt lat="36.7409276" lon="8.6809485"><ele>627.0</ele><time>2026-05-02T09:28:24.656Z</time></trkpt><trkpt lat="36.7410022" lon="8.6810402"><ele>627.0</ele><time>2026-05-02T09:28:25.669Z</time></trkpt><trkpt lat="36.7410933" lon="8.6811255"><ele>626.0</ele><time>2026-05-02T09:28:26.664Z</time></trkpt><trkpt lat="36.7411997" lon="8.6811879"><ele>625.0</ele><time>2026-05-02T09:28:27.628Z</time></trkpt><trkpt lat="36.7413225" lon="8.6812256"><ele>624.0</ele><time>2026-05-02T09:28:28.651Z</time></trkpt><trkpt lat="36.7414406" lon="8.6812344"><ele>623.0</ele><time>2026-05-02T09:28:29.642Z</time></trkpt><trkpt lat="36.7415565" lon="8.681248"><ele>623.0</ele><time>2026-05-02T09:28:30.628Z</time></trkpt><trkpt lat="36.7416735" lon="8.6812571"><ele>623.0</ele><time>2026-05-02T09:28:31.622Z</time></trkpt><trkpt lat="36.7417932" lon="8.6812474"><ele>623.0</ele><time>2026-05-02T09:28:32.63Z</time></trkpt><trkpt lat="36.7419117" lon="8.6812238"><ele>623.0</ele><time>2026-05-02T09:28:33.649Z</time></trkpt><trkpt lat="36.7420207" lon="8.6811669"><ele>620.25</ele><time>2026-05-02T09:28:34.642Z</time></trkpt><trkpt lat="36.742127" lon="8.6810717"><ele>617.5</ele><time>2026-05-02T09:28:35.625Z</time></trkpt><trkpt lat="36.742224" lon="8.6809657"><ele>614.75</ele><time>2026-05-02T09:28:36.66Z</time></trkpt><trkpt lat="36.7423138" lon="8.6808324"><ele>612.0</ele><time>2026-05-02T09:28:37.653Z</time></trkpt><trkpt lat="36.7424023" lon="8.6807032"><ele>612.0</ele><time>2026-05-02T09:28:38.648Z</time></trkpt><trkpt lat="36.7424873" lon="8.6805799"><ele>612.0</ele><time>2026-05-02T09:28:39.633Z</time></trkpt><trkpt lat="36.7425775" lon="8.6804562"><ele>612.0</ele><time>2026-05-02T09:28:40.652Z</time></trkpt><trkpt lat="36.7426641" lon="8.6803311"><ele>612.0</ele><time>2026-05-02T09:28:41.649Z</time></trkpt><trkpt lat="36.7427561" lon="8.6802029"><ele>609.0</ele><time>2026-05-02T09:28:42.652Z</time></trkpt><trkpt lat="36.7428496" lon="8.6800818"><ele>606.0</ele><time>2026-05-02T09:28:43.652Z</time></trkpt><trkpt lat="36.7429456" lon="8.6799548"><ele>603.0</ele><time>2026-05-02T09:28:44.649Z</time></trkpt><trkpt lat="36.7430392" lon="8.6798312"><ele>600.0</ele><time>2026-05-02T09:28:45.625Z</time></trkpt><trkpt lat="36.7431379" lon="8.6797036"><ele>600.0</ele><time>2026-05-02T09:28:46.643Z</time></trkpt><trkpt lat="36.7432422" lon="8.6795881"><ele>600.0</ele><time>2026-05-02T09:28:47.651Z</time></trkpt><trkpt lat="36.7433467" lon="8.6794865"><ele>600.0</ele><time>2026-05-02T09:28:48.634Z</time></trkpt><trkpt lat="36.7434567" lon="8.6793914"><ele>600.0</ele><time>2026-05-02T09:28:49.647Z</time></trkpt><trkpt lat="36.7435758" lon="8.679311"><ele>600.5</ele><time>2026-05-02T09:28:50.632Z</time></trkpt><trkpt lat="36.7436947" lon="8.6792425"><ele>601.0</ele><time>2026-05-02T09:28:51.658Z</time></trkpt><trkpt lat="36.7438245" lon="8.6791822"><ele>601.5</ele><time>2026-05-02T09:28:52.66Z</time></trkpt><trkpt lat="36.7439577" lon="8.679136"><ele>602.0</ele><time>2026-05-02T09:28:53.661Z</time></trkpt><trkpt lat="36.7440951" lon="8.6791048"><ele>602.0</ele><time>2026-05-02T09:28:54.65Z</time></trkpt><trkpt lat="36.7442359" lon="8.6791026"><ele>602.0</ele><time>2026-05-02T09:28:55.639Z</time></trkpt><trkpt lat="36.7443812" lon="8.6791154"><ele>602.0</ele><time>2026-05-02T09:28:56.651Z</time></trkpt><trkpt lat="36.7445496" lon="8.6791647"><ele>604.0</ele><time>2026-05-02T09:28:57.661Z</time></trkpt><trkpt lat="36.7447307" lon="8.6792337"><ele>606.0</ele><time>2026-05-02T09:28:58.661Z</time></trkpt><trkpt lat="36.7449094" lon="8.6793194"><ele>608.0</ele><time>2026-05-02T09:28:59.634Z</time></trkpt><trkpt lat="36.7450805" lon="8.679405"><ele>608.3333333333333</ele><time>2026-05-02T09:29:00.658Z</time></trkpt><trkpt lat="36.7452487" lon="8.6795011"><ele>608.6666666666666</ele><time>2026-05-02T09:29:01.642Z</time></trkpt><trkpt lat="36.745412" lon="8.6795959"><ele>609.0</ele><time>2026-05-02T09:29:02.662Z</time></trkpt><trkpt lat="36.7455688" lon="8.6796922"><ele>609.0</ele><time>2026-05-02T09:29:03.654Z</time></trkpt><trkpt lat="36.7457173" lon="8.679774"><ele>609.0</ele><time>2026-05-02T09:29:04.629Z</time></trkpt><trkpt lat="36.7458557" lon="8.6798561"><ele>609.0</ele><time>2026-05-02T09:29:05.647Z</time></trkpt><trkpt lat="36.7459892" lon="8.6799418"><ele>609.0</ele><time>2026-05-02T09:29:06.655Z</time></trkpt><trkpt lat="36.7461157" lon="8.6800362"><ele>609.0</ele><time>2026-05-02T09:29:07.665Z</time></trkpt><trkpt lat="36.7462169" lon="8.6801559"><ele>609.0</ele><time>2026-05-02T09:29:08.657Z</time></trkpt><trkpt lat="36.7463067" lon="8.680285"><ele>609.0</ele><time>2026-05-02T09:29:09.625Z</time></trkpt><trkpt lat="36.7464065" lon="8.6804143"><ele>609.0</ele><time>2026-05-02T09:29:10.663Z</time></trkpt><trkpt lat="36.7465327" lon="8.6805148"><ele>609.0</ele><time>2026-05-02T09:29:11.655Z</time></trkpt><trkpt lat="36.7466889" lon="8.6805931"><ele>609.0</ele><time>2026-05-02T09:29:12.631Z</time></trkpt><trkpt lat="36.746843" lon="8.6806625"><ele>611.0</ele><time>2026-05-02T09:29:13.634Z</time></trkpt><trkpt lat="36.7469946" lon="8.6807278"><ele>613.0</ele><time>2026-05-02T09:29:14.608Z</time></trkpt><trkpt lat="36.7471517" lon="8.6807901"><ele>615.0</ele><time>2026-05-02T09:29:15.606Z</time></trkpt><trkpt lat="36.7473001" lon="8.6808549"><ele>615.0</ele><time>2026-05-02T09:29:16.604Z</time></trkpt><trkpt lat="36.7474529" lon="8.6809242"><ele>615.0</ele><time>2026-05-02T09:29:17.65Z</time></trkpt><trkpt lat="36.7475987" lon="8.6809904"><ele>615.0</ele><time>2026-05-02T09:29:18.659Z</time></trkpt><trkpt lat="36.7477458" lon="8.6810655"><ele>616.3333333333334</ele><time>2026-05-02T09:29:19.638Z</time></trkpt><trkpt lat="36.7478925" lon="8.6811426"><ele>617.6666666666667</ele><time>2026-05-02T09:29:20.641Z</time></trkpt><trkpt lat="36.748039" lon="8.6812146"><ele>619.0</ele><time>2026-05-02T09:29:21.654Z</time></trkpt><trkpt lat="36.7481833" lon="8.681275"><ele>619.0</ele><time>2026-05-02T09:29:22.649Z</time></trkpt><trkpt lat="36.7483368" lon="8.681328"><ele>619.0</ele><time>2026-05-02T09:29:23.655Z</time></trkpt><trkpt lat="36.748488" lon="8.6813585"><ele>619.0</ele><time>2026-05-02T09:29:24.646Z</time></trkpt><trkpt lat="36.7486328" lon="8.6813773"><ele>622.75</ele><time>2026-05-02T09:29:25.659Z</time></trkpt><trkpt lat="36.7487745" lon="8.6813798"><ele>626.5</ele><time>2026-05-02T09:29:26.638Z</time></trkpt><trkpt lat="36.7489107" lon="8.6813473"><ele>630.25</ele><time>2026-05-02T09:29:27.651Z</time></trkpt><trkpt lat="36.7490399" lon="8.6812744"><ele>634.0</ele><time>2026-05-02T09:29:28.657Z</time></trkpt><trkpt lat="36.7491621" lon="8.68119"><ele>634.0</ele><time>2026-05-02T09:29:29.648Z</time></trkpt><trkpt lat="36.7492877" lon="8.6811165"><ele>634.0</ele><time>2026-05-02T09:29:30.656Z</time></trkpt><trkpt lat="36.7494101" lon="8.6810739"><ele>634.0</ele><time>2026-05-02T09:29:31.653Z</time></trkpt><trkpt lat="36.7495303" lon="8.6810768"><ele>634.0</ele><time>2026-05-02T09:29:32.659Z</time></trkpt><trkpt lat="36.7496425" lon="8.6811293"><ele>634.0</ele><time>2026-05-02T09:29:33.65Z</time></trkpt><trkpt lat="36.7497534" lon="8.6812198"><ele>634.0</ele><time>2026-05-02T09:29:34.651Z</time></trkpt><trkpt lat="36.7498462" lon="8.6813211"><ele>634.0</ele><time>2026-05-02T09:29:35.656Z</time></trkpt><trkpt lat="36.7499274" lon="8.6814276"><ele>634.0</ele><time>2026-05-02T09:29:36.616Z</time></trkpt><trkpt lat="36.750005" lon="8.6815405"><ele>634.0</ele><time>2026-05-02T09:29:37.637Z</time></trkpt><trkpt lat="36.7500753" lon="8.6816521"><ele>634.0</ele><time>2026-05-02T09:29:38.65Z</time></trkpt><trkpt lat="36.7501369" lon="8.681773"><ele>634.0</ele><time>2026-05-02T09:29:39.672Z</time></trkpt><trkpt lat="36.7501677" lon="8.6819015"><ele>634.0</ele><time>2026-05-02T09:29:40.667Z</time></trkpt><trkpt lat="36.7501778" lon="8.6820346"><ele>634.0</ele><time>2026-05-02T09:29:41.651Z</time></trkpt><trkpt lat="36.7501793" lon="8.6821791"><ele>632.8</ele><time>2026-05-02T09:29:42.654Z</time></trkpt><trkpt lat="36.7501752" lon="8.6823105"><ele>631.5999999999999</ele><time>2026-05-02T09:29:43.644Z</time></trkpt><trkpt lat="36.7501784" lon="8.6824527"><ele>630.4</ele><time>2026-05-02T09:29:44.657Z</time></trkpt><trkpt lat="36.750189" lon="8.6825838"><ele>629.1999999999999</ele><time>2026-05-02T09:29:45.656Z</time></trkpt><trkpt lat="36.7502361" lon="8.6827026"><ele>628.0</ele><time>2026-05-02T09:29:46.665Z</time></trkpt><trkpt lat="36.7503121" lon="8.6828092"><ele>631.4</ele><time>2026-05-02T09:29:47.65Z</time></trkpt><trkpt lat="36.7504031" lon="8.6828941"><ele>634.8</ele><time>2026-05-02T09:29:48.658Z</time></trkpt><trkpt lat="36.750504" lon="8.682968"><ele>638.2</ele><time>2026-05-02T09:29:49.656Z</time></trkpt><trkpt lat="36.7506012" lon="8.6830348"><ele>641.6</ele><time>2026-05-02T09:29:50.625Z</time></trkpt><trkpt lat="36.7506973" lon="8.6830831"><ele>645.0</ele><time>2026-05-02T09:29:51.632Z</time></trkpt><trkpt lat="36.7508019" lon="8.6831141"><ele>645.0</ele><time>2026-05-02T09:29:52.667Z</time></trkpt><trkpt lat="36.750914" lon="8.683136"><ele>645.0</ele><time>2026-05-02T09:29:53.653Z</time></trkpt><trkpt lat="36.7510238" lon="8.6831385"><ele>645.0</ele><time>2026-05-02T09:29:54.625Z</time></trkpt><trkpt lat="36.751144" lon="8.6831183"><ele>645.0</ele><time>2026-05-02T09:29:55.662Z</time></trkpt><trkpt lat="36.7512677" lon="8.6830921"><ele>646.75</ele><time>2026-05-02T09:29:56.663Z</time></trkpt><trkpt lat="36.7513906" lon="8.6830691"><ele>648.5</ele><time>2026-05-02T09:29:57.665Z</time></trkpt><trkpt lat="36.7515123" lon="8.6830571"><ele>650.25</ele><time>2026-05-02T09:29:58.661Z</time></trkpt><trkpt lat="36.7516384" lon="8.6830536"><ele>652.0</ele><time>2026-05-02T09:29:59.651Z</time></trkpt><trkpt lat="36.7517591" lon="8.6830581"><ele>652.75</ele><time>2026-05-02T09:30:00.657Z</time></trkpt><trkpt lat="36.7518835" lon="8.683075"><ele>653.5</ele><time>2026-05-02T09:30:01.648Z</time></trkpt><trkpt lat="36.752012" lon="8.6831127"><ele>654.25</ele><time>2026-05-02T09:30:02.676Z</time></trkpt><trkpt lat="36.752145" lon="8.6831562"><ele>655.0</ele><time>2026-05-02T09:30:03.661Z</time></trkpt><trkpt lat="36.7522773" lon="8.6831933"><ele>655.0</ele><time>2026-05-02T09:30:04.648Z</time></trkpt><trkpt lat="36.7524025" lon="8.6832214"><ele>655.0</ele><time>2026-05-02T09:30:05.654Z</time></trkpt><trkpt lat="36.7525219" lon="8.683235"><ele>655.0</ele><time>2026-05-02T09:30:06.647Z</time></trkpt><trkpt lat="36.7526299" lon="8.683244"><ele>655.0</ele><time>2026-05-02T09:30:07.628Z</time></trkpt><trkpt lat="36.7527396" lon="8.683252"><ele>655.0</ele><time>2026-05-02T09:30:08.664Z</time></trkpt><trkpt lat="36.7528461" lon="8.683268"><ele>655.0</ele><time>2026-05-02T09:30:09.655Z</time></trkpt><trkpt lat="36.752946" lon="8.6832831"><ele>655.0</ele><time>2026-05-02T09:30:10.649Z</time></trkpt><trkpt lat="36.7530344" lon="8.6833136"><ele>655.0</ele><time>2026-05-02T09:30:11.654Z</time></trkpt><trkpt lat="36.7531102" lon="8.6833571"><ele>655.0</ele><time>2026-05-02T09:30:12.642Z</time></trkpt><trkpt lat="36.7531783" lon="8.6834176"><ele>655.0</ele><time>2026-05-02T09:30:13.643Z</time></trkpt><trkpt lat="36.7532533" lon="8.6834823"><ele>655.0</ele><time>2026-05-02T09:30:14.648Z</time></trkpt><trkpt lat="36.75333" lon="8.6835453"><ele>655.0</ele><time>2026-05-02T09:30:15.628Z</time></trkpt><trkpt lat="36.7534067" lon="8.6836068"><ele>655.0</ele><time>2026-05-02T09:30:16.616Z</time></trkpt><trkpt lat="36.7534817" lon="8.683651"><ele>655.0</ele><time>2026-05-02T09:30:17.641Z</time></trkpt><trkpt lat="36.7535667" lon="8.6836949"><ele>655.0</ele><time>2026-05-02T09:30:18.645Z</time></trkpt><trkpt lat="36.7536648" lon="8.6837282"><ele>660.4</ele><time>2026-05-02T09:30:19.652Z</time></trkpt><trkpt lat="36.7537539" lon="8.68376"><ele>665.8</ele><time>2026-05-02T09:30:20.638Z</time></trkpt><trkpt lat="36.7538441" lon="8.6837875"><ele>671.2</ele><time>2026-05-02T09:30:21.659Z</time></trkpt><trkpt lat="36.7539399" lon="8.6838076"><ele>676.6</ele><time>2026-05-02T09:30:22.64Z</time></trkpt><trkpt lat="36.7540399" lon="8.6838006"><ele>682.0</ele><time>2026-05-02T09:30:23.651Z</time></trkpt><trkpt lat="36.754137" lon="8.6837817"><ele>682.0</ele><time>2026-05-02T09:30:24.654Z</time></trkpt><trkpt lat="36.7542276" lon="8.6837406"><ele>682.0</ele><time>2026-05-02T09:30:25.634Z</time></trkpt><trkpt lat="36.7543062" lon="8.6836845"><ele>682.0</ele><time>2026-05-02T09:30:26.641Z</time></trkpt><trkpt lat="36.7543812" lon="8.6835961"><ele>682.0</ele><time>2026-05-02T09:30:27.657Z</time></trkpt><trkpt lat="36.754457" lon="8.6835044"><ele>682.0</ele><time>2026-05-02T09:30:28.652Z</time></trkpt><trkpt lat="36.7545321" lon="8.6834154"><ele>680.0</ele><time>2026-05-02T09:30:29.652Z</time></trkpt><trkpt lat="36.7546148" lon="8.6833172"><ele>678.0</ele><time>2026-05-02T09:30:30.644Z</time></trkpt><trkpt lat="36.7547083" lon="8.6832096"><ele>676.0</ele><time>2026-05-02T09:30:31.641Z</time></trkpt><trkpt lat="36.7547997" lon="8.6831033"><ele>674.0</ele><time>2026-05-02T09:30:32.652Z</time></trkpt><trkpt lat="36.75489" lon="8.6829801"><ele>674.0</ele><time>2026-05-02T09:30:33.654Z</time></trkpt><trkpt lat="36.7549707" lon="8.682848"><ele>674.0</ele><time>2026-05-02T09:30:34.642Z</time></trkpt><trkpt lat="36.7550479" lon="8.682727"><ele>674.0</ele><time>2026-05-02T09:30:35.633Z</time></trkpt><trkpt lat="36.7551199" lon="8.6826052"><ele>674.0</ele><time>2026-05-02T09:30:36.638Z</time></trkpt><trkpt lat="36.7551857" lon="8.682478"><ele>675.25</ele><time>2026-05-02T09:30:37.65Z</time></trkpt><trkpt lat="36.7552506" lon="8.6823497"><ele>676.5</ele><time>2026-05-02T09:30:38.641Z</time></trkpt><trkpt lat="36.755323" lon="8.6822263"><ele>677.75</ele><time>2026-05-02T09:30:39.658Z</time></trkpt><trkpt lat="36.7554095" lon="8.6821149"><ele>679.0</ele><time>2026-05-02T09:30:40.636Z</time></trkpt><trkpt lat="36.7555118" lon="8.6820334"><ele>679.0</ele><time>2026-05-02T09:30:41.671Z</time></trkpt><trkpt lat="36.7556364" lon="8.6819683"><ele>679.0</ele><time>2026-05-02T09:30:42.641Z</time></trkpt><trkpt lat="36.7557567" lon="8.681942"><ele>679.0</ele><time>2026-05-02T09:30:43.638Z</time></trkpt><trkpt lat="36.7558773" lon="8.6819552"><ele>679.0</ele><time>2026-05-02T09:30:44.652Z</time></trkpt><trkpt lat="36.756001" lon="8.6819967"><ele>680.0</ele><time>2026-05-02T09:30:45.655Z</time></trkpt><trkpt lat="36.7561073" lon="8.6820512"><ele>681.0</ele><time>2026-05-02T09:30:46.635Z</time></trkpt><trkpt lat="36.7562155" lon="8.6821101"><ele>682.0</ele><time>2026-05-02T09:30:47.653Z</time></trkpt><trkpt lat="36.7563288" lon="8.6821727"><ele>683.0</ele><time>2026-05-02T09:30:48.672Z</time></trkpt><trkpt lat="36.7564351" lon="8.6822165"><ele>683.0</ele><time>2026-05-02T09:30:49.652Z</time></trkpt><trkpt lat="36.7565438" lon="8.6822401"><ele>683.0</ele><time>2026-05-02T09:30:50.64Z</time></trkpt><trkpt lat="36.7566574" lon="8.6822595"><ele>683.0</ele><time>2026-05-02T09:30:51.651Z</time></trkpt><trkpt lat="36.7567703" lon="8.6822725"><ele>683.0</ele><time>2026-05-02T09:30:52.658Z</time></trkpt><trkpt lat="36.7568723" lon="8.6823102"><ele>683.0</ele><time>2026-05-02T09:30:53.626Z</time></trkpt><trkpt lat="36.7569558" lon="8.6823816"><ele>681.2</ele><time>2026-05-02T09:30:54.629Z</time></trkpt><trkpt lat="36.7570407" lon="8.682449"><ele>679.4</ele><time>2026-05-02T09:30:55.643Z</time></trkpt><trkpt lat="36.7571247" lon="8.682521"><ele>677.6</ele><time>2026-05-02T09:30:56.656Z</time></trkpt><trkpt lat="36.7572043" lon="8.6825992"><ele>675.8000000000001</ele><time>2026-05-02T09:30:57.632Z</time></trkpt><trkpt lat="36.7572828" lon="8.6826732"><ele>674.0</ele><time>2026-05-02T09:30:58.644Z</time></trkpt><trkpt lat="36.7573691" lon="8.6827337"><ele>674.0</ele><time>2026-05-02T09:30:59.638Z</time></trkpt><trkpt lat="36.7574706" lon="8.6827579"><ele>674.0</ele><time>2026-05-02T09:31:00.66Z</time></trkpt><trkpt lat="36.7575834" lon="8.6827576"><ele>674.0</ele><time>2026-05-02T09:31:01.661Z</time></trkpt><trkpt lat="36.7576861" lon="8.6827479"><ele>674.0</ele><time>2026-05-02T09:31:02.643Z</time></trkpt><trkpt lat="36.7577885" lon="8.6827441"><ele>674.0</ele><time>2026-05-02T09:31:03.639Z</time></trkpt><trkpt lat="36.7578975" lon="8.6827343"><ele>673.2</ele><time>2026-05-02T09:31:04.654Z</time></trkpt><trkpt lat="36.7580034" lon="8.6827148"><ele>672.4000000000001</ele><time>2026-05-02T09:31:05.654Z</time></trkpt><trkpt lat="36.7581079" lon="8.6826958"><ele>671.6</ele><time>2026-05-02T09:31:06.647Z</time></trkpt><trkpt lat="36.7582138" lon="8.6826917"><ele>670.8</ele><time>2026-05-02T09:31:07.656Z</time></trkpt><trkpt lat="36.7583128" lon="8.6827129"><ele>670.0</ele><time>2026-05-02T09:31:08.627Z</time></trkpt><trkpt lat="36.7584147" lon="8.6827749"><ele>671.8</ele><time>2026-05-02T09:31:09.654Z</time></trkpt><trkpt lat="36.758499" lon="8.6828573"><ele>673.6</ele><time>2026-05-02T09:31:10.632Z</time></trkpt><trkpt lat="36.7585633" lon="8.6829594"><ele>675.4000000000001</ele><time>2026-05-02T09:31:11.655Z</time></trkpt><trkpt lat="36.75861" lon="8.6830767"><ele>677.2</ele><time>2026-05-02T09:31:12.655Z</time></trkpt><trkpt lat="36.75864" lon="8.6831989"><ele>679.0</ele><time>2026-05-02T09:31:13.664Z</time></trkpt><trkpt lat="36.7587112" lon="8.6833235"><ele>679.0</ele><time>2026-05-02T09:31:14.644Z</time></trkpt><trkpt lat="36.7588283" lon="8.6834478"><ele>679.0</ele><time>2026-05-02T09:31:15.651Z</time></trkpt><trkpt lat="36.7589758" lon="8.6835541"><ele>679.0</ele><time>2026-05-02T09:31:16.646Z</time></trkpt><trkpt lat="36.7591421" lon="8.683638"><ele>684.0</ele><time>2026-05-02T09:31:17.654Z</time></trkpt><trkpt lat="36.7593153" lon="8.6837183"><ele>689.0</ele><time>2026-05-02T09:31:18.648Z</time></trkpt><trkpt lat="36.7594666" lon="8.6838002"><ele>694.0</ele><time>2026-05-02T09:31:19.642Z</time></trkpt><trkpt lat="36.7596159" lon="8.6838837"><ele>694.0</ele><time>2026-05-02T09:31:20.629Z</time></trkpt><trkpt lat="36.7597442" lon="8.6839863"><ele>694.0</ele><time>2026-05-02T09:31:21.656Z</time></trkpt><trkpt lat="36.7598617" lon="8.6840976"><ele>694.0</ele><time>2026-05-02T09:31:22.653Z</time></trkpt><trkpt lat="36.7599689" lon="8.6842006"><ele>694.0</ele><time>2026-05-02T09:31:23.643Z</time></trkpt><trkpt lat="36.7600818" lon="8.6842941"><ele>694.0</ele><time>2026-05-02T09:31:24.632Z</time></trkpt><trkpt lat="36.7601869" lon="8.6843568"><ele>694.0</ele><time>2026-05-02T09:31:25.65Z</time></trkpt><trkpt lat="36.7602977" lon="8.6844074"><ele>694.0</ele><time>2026-05-02T09:31:26.637Z</time></trkpt><trkpt lat="36.7603894" lon="8.6844449"><ele>694.0</ele><time>2026-05-02T09:31:27.652Z</time></trkpt><trkpt lat="36.7604797" lon="8.6844774"><ele>694.0</ele><time>2026-05-02T09:31:28.612Z</time></trkpt><trkpt lat="36.7605623" lon="8.6845071"><ele>695.8571428571429</ele><time>2026-05-02T09:31:29.67Z</time></trkpt><trkpt lat="36.7606391" lon="8.6845286"><ele>697.7142857142857</ele><time>2026-05-02T09:31:30.643Z</time></trkpt><trkpt lat="36.7607127" lon="8.6845424"><ele>699.5714285714286</ele><time>2026-05-02T09:31:31.646Z</time></trkpt><trkpt lat="36.7607837" lon="8.6845574"><ele>701.4285714285714</ele><time>2026-05-02T09:31:32.629Z</time></trkpt><trkpt lat="36.7608522" lon="8.6845776"><ele>703.2857142857142</ele><time>2026-05-02T09:31:33.646Z</time></trkpt><trkpt lat="36.7609217" lon="8.6845933"><ele>705.1428571428571</ele><time>2026-05-02T09:31:34.654Z</time></trkpt><trkpt lat="36.7609884" lon="8.6845972"><ele>707.0</ele><time>2026-05-02T09:31:35.657Z</time></trkpt><trkpt lat="36.7610607" lon="8.6846012"><ele>707.0</ele><time>2026-05-02T09:31:36.66Z</time></trkpt><trkpt lat="36.7611273" lon="8.6846222"><ele>707.0</ele><time>2026-05-02T09:31:37.656Z</time></trkpt><trkpt lat="36.7611984" lon="8.6846482"><ele>707.0</ele><time>2026-05-02T09:31:38.675Z</time></trkpt><trkpt lat="36.7612632" lon="8.6846736"><ele>707.0</ele><time>2026-05-02T09:31:39.623Z</time></trkpt><trkpt lat="36.761332" lon="8.6847006"><ele>707.0</ele><time>2026-05-02T09:31:40.622Z</time></trkpt><trkpt lat="36.7614024" lon="8.6847229"><ele>707.0</ele><time>2026-05-02T09:31:41.646Z</time></trkpt><trkpt lat="36.7614731" lon="8.6847436"><ele>707.0</ele><time>2026-05-02T09:31:42.644Z</time></trkpt><trkpt lat="36.7615478" lon="8.6847724"><ele>707.0</ele><time>2026-05-02T09:31:43.645Z</time></trkpt><trkpt lat="36.7616341" lon="8.6847973"><ele>707.0</ele><time>2026-05-02T09:31:44.629Z</time></trkpt><trkpt lat="36.7617316" lon="8.6848082"><ele>707.0</ele><time>2026-05-02T09:31:45.637Z</time></trkpt><trkpt lat="36.761834" lon="8.6847982"><ele>707.0</ele><time>2026-05-02T09:31:46.653Z</time></trkpt><trkpt lat="36.7619313" lon="8.684767"><ele>707.0</ele><time>2026-05-02T09:31:47.644Z</time></trkpt><trkpt lat="36.762024" lon="8.6847221"><ele>708.2</ele><time>2026-05-02T09:31:48.644Z</time></trkpt><trkpt lat="36.7621191" lon="8.6846724"><ele>709.4000000000001</ele><time>2026-05-02T09:31:49.658Z</time></trkpt><trkpt lat="36.7622166" lon="8.6846317"><ele>710.5999999999999</ele><time>2026-05-02T09:31:50.639Z</time></trkpt><trkpt lat="36.7623163" lon="8.6846113"><ele>711.8</ele><time>2026-05-02T09:31:51.66Z</time></trkpt><trkpt lat="36.7624192" lon="8.6846034"><ele>713.0</ele><time>2026-05-02T09:31:52.649Z</time></trkpt><trkpt lat="36.7625301" lon="8.6846097"><ele>713.0</ele><time>2026-05-02T09:31:53.651Z</time></trkpt><trkpt lat="36.7626451" lon="8.6846209"><ele>713.0</ele><time>2026-05-02T09:31:54.657Z</time></trkpt><trkpt lat="36.7627568" lon="8.6846462"><ele>713.0</ele><time>2026-05-02T09:31:55.654Z</time></trkpt><trkpt lat="36.7628715" lon="8.6846803"><ele>713.0</ele><time>2026-05-02T09:31:56.653Z</time></trkpt><trkpt lat="36.7629846" lon="8.6847148"><ele>713.75</ele><time>2026-05-02T09:31:57.629Z</time></trkpt><trkpt lat="36.7631021" lon="8.6847437"><ele>714.5</ele><time>2026-05-02T09:31:58.645Z</time></trkpt><trkpt lat="36.7632189" lon="8.68475"><ele>715.25</ele><time>2026-05-02T09:31:59.653Z</time></trkpt><trkpt lat="36.763334" lon="8.6847463"><ele>716.0</ele><time>2026-05-02T09:32:00.608Z</time></trkpt><trkpt lat="36.7634472" lon="8.6847361"><ele>718.0</ele><time>2026-05-02T09:32:01.647Z</time></trkpt><trkpt lat="36.7635586" lon="8.684723"><ele>720.0</ele><time>2026-05-02T09:32:02.643Z</time></trkpt><trkpt lat="36.7636729" lon="8.6847161"><ele>722.0</ele><time>2026-05-02T09:32:03.649Z</time></trkpt><trkpt lat="36.7637874" lon="8.6847052"><ele>724.0</ele><time>2026-05-02T09:32:04.646Z</time></trkpt><trkpt lat="36.763902" lon="8.6847008"><ele>724.0</ele><time>2026-05-02T09:32:05.606Z</time></trkpt><trkpt lat="36.7640093" lon="8.6846888"><ele>724.0</ele><time>2026-05-02T09:32:06.6Z</time></trkpt><trkpt lat="36.7641226" lon="8.6846708"><ele>724.0</ele><time>2026-05-02T09:32:07.649Z</time></trkpt><trkpt lat="36.7642298" lon="8.6846517"><ele>724.0</ele><time>2026-05-02T09:32:08.637Z</time></trkpt><trkpt lat="36.7643307" lon="8.6846368"><ele>724.0</ele><time>2026-05-02T09:32:09.652Z</time></trkpt><trkpt lat="36.7644305" lon="8.6846286"><ele>723.0</ele><time>2026-05-02T09:32:10.636Z</time></trkpt><trkpt lat="36.7645321" lon="8.684623"><ele>722.0</ele><time>2026-05-02T09:32:11.625Z</time></trkpt><trkpt lat="36.7646314" lon="8.6846248"><ele>721.0</ele><time>2026-05-02T09:32:12.658Z</time></trkpt><trkpt lat="36.7647255" lon="8.6846524"><ele>720.0</ele><time>2026-05-02T09:32:13.649Z</time></trkpt><trkpt lat="36.7648087" lon="8.6847217"><ele>719.0</ele><time>2026-05-02T09:32:14.647Z</time></trkpt><trkpt lat="36.7648803" lon="8.6848173"><ele>719.0</ele><time>2026-05-02T09:32:15.654Z</time></trkpt><trkpt lat="36.7649338" lon="8.6849351"><ele>719.0</ele><time>2026-05-02T09:32:16.649Z</time></trkpt><trkpt lat="36.7649834" lon="8.6850801"><ele>719.0</ele><time>2026-05-02T09:32:17.643Z</time></trkpt><trkpt lat="36.7650287" lon="8.6852229"><ele>719.0</ele><time>2026-05-02T09:32:18.656Z</time></trkpt><trkpt lat="36.765087" lon="8.6853696"><ele>721.0</ele><time>2026-05-02T09:32:19.659Z</time></trkpt><trkpt lat="36.7651438" lon="8.6855238"><ele>723.0</ele><time>2026-05-02T09:32:20.663Z</time></trkpt><trkpt lat="36.7651986" lon="8.6856783"><ele>725.0</ele><time>2026-05-02T09:32:21.669Z</time></trkpt><trkpt lat="36.765248" lon="8.6858402"><ele>727.0</ele><time>2026-05-02T09:32:22.646Z</time></trkpt><trkpt lat="36.7652999" lon="8.6859934"><ele>725.0</ele><time>2026-05-02T09:32:23.635Z</time></trkpt><trkpt lat="36.7653492" lon="8.6861368"><ele>723.0</ele><time>2026-05-02T09:32:24.642Z</time></trkpt><trkpt lat="36.7653962" lon="8.6862821"><ele>721.0</ele><time>2026-05-02T09:32:25.632Z</time></trkpt><trkpt lat="36.7654427" lon="8.686417"><ele>719.0</ele><time>2026-05-02T09:32:26.639Z</time></trkpt><trkpt lat="36.7654912" lon="8.6865511"><ele>719.0</ele><time>2026-05-02T09:32:27.632Z</time></trkpt><trkpt lat="36.7655358" lon="8.6866776"><ele>719.0</ele><time>2026-05-02T09:32:28.66Z</time></trkpt><trkpt lat="36.7655818" lon="8.6867962"><ele>719.0</ele><time>2026-05-02T09:32:29.654Z</time></trkpt><trkpt lat="36.7656239" lon="8.6869112"><ele>719.0</ele><time>2026-05-02T09:32:30.644Z</time></trkpt><trkpt lat="36.765657" lon="8.6870081"><ele>719.0</ele><time>2026-05-02T09:32:31.656Z</time></trkpt><trkpt lat="36.7656868" lon="8.6870992"><ele>721.6</ele><time>2026-05-02T09:32:32.656Z</time></trkpt><trkpt lat="36.765721" lon="8.6871967"><ele>724.2</ele><time>2026-05-02T09:32:33.64Z</time></trkpt><trkpt lat="36.7657633" lon="8.6873003"><ele>726.8000000000001</ele><time>2026-05-02T09:32:34.661Z</time></trkpt><trkpt lat="36.7658268" lon="8.6874223"><ele>729.4000000000001</ele><time>2026-05-02T09:32:35.636Z</time></trkpt><trkpt lat="36.7659117" lon="8.6875696"><ele>732.0</ele><time>2026-05-02T09:32:36.662Z</time></trkpt><trkpt lat="36.7660134" lon="8.6877206"><ele>733.0</ele><time>2026-05-02T09:32:37.65Z</time></trkpt><trkpt lat="36.7661243" lon="8.6878721"><ele>734.0</ele><time>2026-05-02T09:32:38.653Z</time></trkpt><trkpt lat="36.766232" lon="8.6880149"><ele>735.0</ele><time>2026-05-02T09:32:39.652Z</time></trkpt><trkpt lat="36.7663513" lon="8.688171"><ele>735.0</ele><time>2026-05-02T09:32:40.651Z</time></trkpt><trkpt lat="36.7664845" lon="8.6883602"><ele>735.0</ele><time>2026-05-02T09:32:41.659Z</time></trkpt><trkpt lat="36.7666248" lon="8.6885583"><ele>735.0</ele><time>2026-05-02T09:32:42.657Z</time></trkpt><trkpt lat="36.7667563" lon="8.688717"><ele>739.25</ele><time>2026-05-02T09:32:43.668Z</time></trkpt><trkpt lat="36.7668764" lon="8.6888372"><ele>743.5</ele><time>2026-05-02T09:32:44.652Z</time></trkpt><trkpt lat="36.7669796" lon="8.6889154"><ele>747.75</ele><time>2026-05-02T09:32:45.619Z</time></trkpt><trkpt lat="36.7670811" lon="8.6889704"><ele>752.0</ele><time>2026-05-02T09:32:46.622Z</time></trkpt><trkpt lat="36.7671767" lon="8.6890052"><ele>752.0</ele><time>2026-05-02T09:32:47.611Z</time></trkpt><trkpt lat="36.7672876" lon="8.6890138"><ele>752.0</ele><time>2026-05-02T09:32:48.65Z</time></trkpt><trkpt lat="36.7674301" lon="8.6890076"><ele>752.0</ele><time>2026-05-02T09:32:49.657Z</time></trkpt><trkpt lat="36.7675845" lon="8.6889906"><ele>752.0</ele><time>2026-05-02T09:32:50.636Z</time></trkpt><trkpt lat="36.7677226" lon="8.6889646"><ele>752.25</ele><time>2026-05-02T09:32:51.651Z</time></trkpt><trkpt lat="36.7678552" lon="8.688931"><ele>752.5</ele><time>2026-05-02T09:32:52.644Z</time></trkpt><trkpt lat="36.7679826" lon="8.6888958"><ele>752.75</ele><time>2026-05-02T09:32:53.654Z</time></trkpt><trkpt lat="36.7681107" lon="8.6888727"><ele>753.0</ele><time>2026-05-02T09:32:54.647Z</time></trkpt><trkpt lat="36.7682403" lon="8.6888683"><ele>753.0</ele><time>2026-05-02T09:32:55.667Z</time></trkpt><trkpt lat="36.7683676" lon="8.6888796"><ele>753.0</ele><time>2026-05-02T09:32:56.641Z</time></trkpt><trkpt lat="36.7684898" lon="8.6889051"><ele>753.0</ele><time>2026-05-02T09:32:57.648Z</time></trkpt><trkpt lat="36.7686117" lon="8.6889448"><ele>753.0</ele><time>2026-05-02T09:32:58.628Z</time></trkpt><trkpt lat="36.7687252" lon="8.6890001"><ele>749.75</ele><time>2026-05-02T09:32:59.674Z</time></trkpt><trkpt lat="36.7688391" lon="8.6890764"><ele>746.5</ele><time>2026-05-02T09:33:00.646Z</time></trkpt><trkpt lat="36.7689506" lon="8.6891696"><ele>743.25</ele><time>2026-05-02T09:33:01.602Z</time></trkpt><trkpt lat="36.7690699" lon="8.6892447"><ele>740.0</ele><time>2026-05-02T09:33:02.632Z</time></trkpt><trkpt lat="36.7692079" lon="8.6893084"><ele>740.0</ele><time>2026-05-02T09:33:03.654Z</time></trkpt><trkpt lat="36.7693429" lon="8.6893476"><ele>740.0</ele><time>2026-05-02T09:33:04.65Z</time></trkpt><trkpt lat="36.7694796" lon="8.6893826"><ele>740.0</ele><time>2026-05-02T09:33:05.623Z</time></trkpt><trkpt lat="36.7696042" lon="8.6894063"><ele>740.0</ele><time>2026-05-02T09:33:06.623Z</time></trkpt><trkpt lat="36.7697247" lon="8.6894312"><ele>738.3333333333333</ele><time>2026-05-02T09:33:07.632Z</time></trkpt><trkpt lat="36.7699762" lon="8.6894061"><ele>736.6666666666666</ele><time>2026-05-02T09:33:09.626Z</time></trkpt><trkpt lat="36.7700983" lon="8.6893705"><ele>735.0</ele><time>2026-05-02T09:33:10.636Z</time></trkpt><trkpt lat="36.7702193" lon="8.6893205"><ele>735.0</ele><time>2026-05-02T09:33:11.629Z</time></trkpt><trkpt lat="36.7703401" lon="8.6892604"><ele>735.0</ele><time>2026-05-02T09:33:12.637Z</time></trkpt><trkpt lat="36.7704653" lon="8.6891917"><ele>735.0</ele><time>2026-05-02T09:33:13.636Z</time></trkpt><trkpt lat="36.7705825" lon="8.6891158"><ele>735.0</ele><time>2026-05-02T09:33:14.637Z</time></trkpt><trkpt lat="36.7706931" lon="8.6890429"><ele>735.0</ele><time>2026-05-02T09:33:15.616Z</time></trkpt><trkpt lat="36.7707963" lon="8.6889749"><ele>735.0</ele><time>2026-05-02T09:33:16.629Z</time></trkpt><trkpt lat="36.7709019" lon="8.6889149"><ele>735.0</ele><time>2026-05-02T09:33:17.625Z</time></trkpt><trkpt lat="36.7709997" lon="8.688862"><ele>735.0</ele><time>2026-05-02T09:33:18.641Z</time></trkpt><trkpt lat="36.7710947" lon="8.688836"><ele>735.0</ele><time>2026-05-02T09:33:19.642Z</time></trkpt><trkpt lat="36.7711881" lon="8.6888398"><ele>734.4</ele><time>2026-05-02T09:33:20.66Z</time></trkpt><trkpt lat="36.7712708" lon="8.6888503"><ele>733.8</ele><time>2026-05-02T09:33:21.652Z</time></trkpt><trkpt lat="36.7713595" lon="8.6888719"><ele>733.2</ele><time>2026-05-02T09:33:22.615Z</time></trkpt><trkpt lat="36.771454" lon="8.6888967"><ele>732.6</ele><time>2026-05-02T09:33:23.655Z</time></trkpt><trkpt lat="36.7715581" lon="8.6889317"><ele>732.0</ele><time>2026-05-02T09:33:24.641Z</time></trkpt><trkpt lat="36.7716691" lon="8.6889621"><ele>732.0</ele><time>2026-05-02T09:33:25.648Z</time></trkpt><trkpt lat="36.7717853" lon="8.6890068"><ele>732.0</ele><time>2026-05-02T09:33:26.656Z</time></trkpt><trkpt lat="36.7719089" lon="8.6890479"><ele>732.0</ele><time>2026-05-02T09:33:27.643Z</time></trkpt><trkpt lat="36.7720358" lon="8.689085"><ele>732.0</ele><time>2026-05-02T09:33:28.624Z</time></trkpt><trkpt lat="36.7721628" lon="8.6891174"><ele>728.75</ele><time>2026-05-02T09:33:29.656Z</time></trkpt><trkpt lat="36.7722909" lon="8.6891474"><ele>725.5</ele><time>2026-05-02T09:33:30.653Z</time></trkpt><trkpt lat="36.772419" lon="8.6891737"><ele>722.25</ele><time>2026-05-02T09:33:31.647Z</time></trkpt><trkpt lat="36.7725511" lon="8.6892074"><ele>719.0</ele><time>2026-05-02T09:33:32.63Z</time></trkpt><trkpt lat="36.772683" lon="8.6892362"><ele>718.75</ele><time>2026-05-02T09:33:33.656Z</time></trkpt><trkpt lat="36.7728161" lon="8.6892545"><ele>718.5</ele><time>2026-05-02T09:33:34.65Z</time></trkpt><trkpt lat="36.7729395" lon="8.6892684"><ele>718.25</ele><time>2026-05-02T09:33:35.66Z</time></trkpt><trkpt lat="36.7730563" lon="8.6892832"><ele>718.0</ele><time>2026-05-02T09:33:36.648Z</time></trkpt><trkpt lat="36.7731671" lon="8.6892976"><ele>718.0</ele><time>2026-05-02T09:33:37.672Z</time></trkpt><trkpt lat="36.7732723" lon="8.6893121"><ele>718.0</ele><time>2026-05-02T09:33:38.642Z</time></trkpt><trkpt lat="36.7733622" lon="8.6893225"><ele>718.0</ele><time>2026-05-02T09:33:39.654Z</time></trkpt><trkpt lat="36.7734373" lon="8.6893302"><ele>718.0</ele><time>2026-05-02T09:33:40.632Z</time></trkpt><trkpt lat="36.7735005" lon="8.6893371"><ele>718.0</ele><time>2026-05-02T09:33:41.66Z</time></trkpt><trkpt lat="36.7735961" lon="8.6893453"><ele>718.0</ele><time>2026-05-02T09:33:43.645Z</time></trkpt><trkpt lat="36.7736608" lon="8.6893518"><ele>716.8333333333334</ele><time>2026-05-02T09:33:45.651Z</time></trkpt><trkpt lat="36.7737327" lon="8.6893552"><ele>715.6666666666667</ele><time>2026-05-02T09:33:50.655Z</time></trkpt><trkpt lat="36.7738016" lon="8.6893568"><ele>714.5</ele><time>2026-05-02T09:33:58.654Z</time></trkpt><trkpt lat="36.7738703" lon="8.6893633"><ele>713.3333333333334</ele><time>2026-05-02T09:34:01.619Z</time></trkpt><trkpt lat="36.7739552" lon="8.6893751"><ele>712.1666666666666</ele><time>2026-05-02T09:34:03.648Z</time></trkpt><trkpt lat="36.7740447" lon="8.6893836"><ele>711.0</ele><time>2026-05-02T09:34:05.661Z</time></trkpt><trkpt lat="36.7741454" lon="8.6893845"><ele>711.0</ele><time>2026-05-02T09:34:07.666Z</time></trkpt><trkpt lat="36.774263" lon="8.689388"><ele>711.0</ele><time>2026-05-02T09:34:09.657Z</time></trkpt><trkpt lat="36.7743278" lon="8.689393"><ele>711.0</ele><time>2026-05-02T09:34:10.659Z</time></trkpt><trkpt lat="36.774393" lon="8.6893921"><ele>711.0</ele><time>2026-05-02T09:34:11.666Z</time></trkpt><trkpt lat="36.7744592" lon="8.6893997"><ele>711.0</ele><time>2026-05-02T09:34:12.655Z</time></trkpt><trkpt lat="36.7745269" lon="8.6893971"><ele>711.0</ele><time>2026-05-02T09:34:13.65Z</time></trkpt><trkpt lat="36.7745959" lon="8.6893898"><ele>710.0</ele><time>2026-05-02T09:34:14.624Z</time></trkpt><trkpt lat="36.7746644" lon="8.6893902"><ele>709.0</ele><time>2026-05-02T09:34:15.649Z</time></trkpt><trkpt lat="36.7747394" lon="8.6893817"><ele>708.0</ele><time>2026-05-02T09:34:16.652Z</time></trkpt><trkpt lat="36.7748128" lon="8.6893779"><ele>707.0</ele><time>2026-05-02T09:34:17.663Z</time></trkpt><trkpt lat="36.7748899" lon="8.6893767"><ele>706.0</ele><time>2026-05-02T09:34:18.628Z</time></trkpt><trkpt lat="36.7749677" lon="8.6893706"><ele>705.0</ele><time>2026-05-02T09:34:19.638Z</time></trkpt><trkpt lat="36.7750517" lon="8.6893563"><ele>705.0</ele><time>2026-05-02T09:34:20.647Z</time></trkpt><trkpt lat="36.7751295" lon="8.6893417"><ele>705.0</ele><time>2026-05-02T09:34:21.629Z</time></trkpt><trkpt lat="36.7752086" lon="8.6893222"><ele>705.0</ele><time>2026-05-02T09:34:22.65Z</time></trkpt><trkpt lat="36.7752856" lon="8.6892907"><ele>705.0</ele><time>2026-05-02T09:34:23.653Z</time></trkpt><trkpt lat="36.7753592" lon="8.689256"><ele>705.0</ele><time>2026-05-02T09:34:24.661Z</time></trkpt><trkpt lat="36.775431" lon="8.6892105"><ele>705.0</ele><time>2026-05-02T09:34:25.661Z</time></trkpt><trkpt lat="36.7754995" lon="8.6891689"><ele>704.0</ele><time>2026-05-02T09:34:26.63Z</time></trkpt><trkpt lat="36.7755677" lon="8.6891297"><ele>703.0</ele><time>2026-05-02T09:34:27.653Z</time></trkpt><trkpt lat="36.7756336" lon="8.6890947"><ele>702.0</ele><time>2026-05-02T09:34:28.66Z</time></trkpt><trkpt lat="36.7756946" lon="8.6890627"><ele>701.0</ele><time>2026-05-02T09:34:29.663Z</time></trkpt><trkpt lat="36.7757846" lon="8.6890089"><ele>700.0</ele><time>2026-05-02T09:34:31.631Z</time></trkpt><trkpt lat="36.7758448" lon="8.6889549"><ele>699.0</ele><time>2026-05-02T09:34:35.663Z</time></trkpt><trkpt lat="36.7759254" lon="8.6888848"><ele>699.0</ele><time>2026-05-02T09:34:43.661Z</time></trkpt><trkpt lat="36.7760166" lon="8.6888312"><ele>699.0</ele><time>2026-05-02T09:34:45.638Z</time></trkpt><trkpt lat="36.7761096" lon="8.6887693"><ele>699.0</ele><time>2026-05-02T09:34:47.649Z</time></trkpt><trkpt lat="36.7761913" lon="8.6887173"><ele>699.0</ele><time>2026-05-02T09:34:49.652Z</time></trkpt><trkpt lat="36.7762524" lon="8.6886604"><ele>699.0</ele><time>2026-05-02T09:34:53.653Z</time></trkpt><trkpt lat="36.7763394" lon="8.6886103"><ele>698.2</ele><time>2026-05-02T09:34:56.633Z</time></trkpt><trkpt lat="36.776457" lon="8.6885775"><ele>697.4000000000001</ele><time>2026-05-02T09:34:58.658Z</time></trkpt><trkpt lat="36.7765179" lon="8.6885533"><ele>696.6</ele><time>2026-05-02T09:34:59.645Z</time></trkpt><trkpt lat="36.7766291" lon="8.6885035"><ele>695.8</ele><time>2026-05-02T09:35:01.616Z</time></trkpt><trkpt lat="36.7767414" lon="8.6884578"><ele>695.0</ele><time>2026-05-02T09:35:03.656Z</time></trkpt><trkpt lat="36.7768529" lon="8.6884058"><ele>697.0</ele><time>2026-05-02T09:35:05.634Z</time></trkpt><trkpt lat="36.7769662" lon="8.6883545"><ele>699.0</ele><time>2026-05-02T09:35:07.639Z</time></trkpt><trkpt lat="36.7770781" lon="8.6883115"><ele>701.0</ele><time>2026-05-02T09:35:09.648Z</time></trkpt><trkpt lat="36.7771913" lon="8.6882605"><ele>703.0</ele><time>2026-05-02T09:35:11.664Z</time></trkpt><trkpt lat="36.7773007" lon="8.6882023"><ele>703.0</ele><time>2026-05-02T09:35:13.656Z</time></trkpt><trkpt lat="36.7773957" lon="8.6881537"><ele>703.0</ele><time>2026-05-02T09:35:15.647Z</time></trkpt><trkpt lat="36.7774945" lon="8.6880923"><ele>703.0</ele><time>2026-05-02T09:35:17.598Z</time></trkpt><trkpt lat="36.7775794" lon="8.6880239"><ele>703.0</ele><time>2026-05-02T09:35:19.648Z</time></trkpt><trkpt lat="36.7776449" lon="8.6879778"><ele>703.0</ele><time>2026-05-02T09:35:21.652Z</time></trkpt><trkpt lat="36.7777215" lon="8.6879431"><ele>703.5</ele><time>2026-05-02T09:35:25.638Z</time></trkpt><trkpt lat="36.7777821" lon="8.6879074"><ele>704.0</ele><time>2026-05-02T09:35:29.646Z</time></trkpt><trkpt lat="36.7778713" lon="8.6878674"><ele>704.5</ele><time>2026-05-02T09:35:32.64Z</time></trkpt><trkpt lat="36.7779486" lon="8.6878619"><ele>705.0</ele><time>2026-05-02T09:35:34.658Z</time></trkpt><trkpt lat="36.7780371" lon="8.6879027"><ele>705.5</ele><time>2026-05-02T09:35:36.667Z</time></trkpt><trkpt lat="36.7781261" lon="8.6879436"><ele>706.0</ele><time>2026-05-02T09:35:38.653Z</time></trkpt><trkpt lat="36.7782038" lon="8.6879865"><ele>706.0</ele><time>2026-05-02T09:35:40.657Z</time></trkpt><trkpt lat="36.7782862" lon="8.6880297"><ele>706.0</ele><time>2026-05-02T09:35:42.667Z</time></trkpt><trkpt lat="36.7783759" lon="8.6880841"><ele>706.0</ele><time>2026-05-02T09:35:44.65Z</time></trkpt><trkpt lat="36.7784716" lon="8.6881455"><ele>706.0</ele><time>2026-05-02T09:35:46.651Z</time></trkpt><trkpt lat="36.7785619" lon="8.6881994"><ele>706.0</ele><time>2026-05-02T09:35:48.65Z</time></trkpt><trkpt lat="36.7786465" lon="8.6882609"><ele>706.4</ele><time>2026-05-02T09:35:50.655Z</time></trkpt><trkpt lat="36.7787401" lon="8.6883117"><ele>706.8</ele><time>2026-05-02T09:35:52.648Z</time></trkpt><trkpt lat="36.7788393" lon="8.6883566"><ele>707.1999999999999</ele><time>2026-05-02T09:35:54.625Z</time></trkpt><trkpt lat="36.7789433" lon="8.6884089"><ele>707.5999999999999</ele><time>2026-05-02T09:35:56.656Z</time></trkpt><trkpt lat="36.7790479" lon="8.6884803"><ele>708.0</ele><time>2026-05-02T09:35:58.657Z</time></trkpt><trkpt lat="36.7791424" lon="8.6885334"><ele>708.0</ele><time>2026-05-02T09:36:00.622Z</time></trkpt><trkpt lat="36.7792059" lon="8.6885787"><ele>708.0</ele><time>2026-05-02T09:36:02.649Z</time></trkpt><trkpt lat="36.779268" lon="8.6886042"><ele>708.0</ele><time>2026-05-02T09:36:06.653Z</time></trkpt><trkpt lat="36.7793471" lon="8.6886322"><ele>708.0</ele><time>2026-05-02T09:36:09.652Z</time></trkpt><trkpt lat="36.7794089" lon="8.6886658"><ele>708.0</ele><time>2026-05-02T09:36:11.651Z</time></trkpt><trkpt lat="36.7794922" lon="8.6887131"><ele>708.0</ele><time>2026-05-02T09:36:13.638Z</time></trkpt><trkpt lat="36.7795558" lon="8.6887521"><ele>709.8</ele><time>2026-05-02T09:36:15.612Z</time></trkpt><trkpt lat="36.7796199" lon="8.6888016"><ele>711.5999999999999</ele><time>2026-05-02T09:36:18.642Z</time></trkpt><trkpt lat="36.7797084" lon="8.688827"><ele>713.4000000000001</ele><time>2026-05-02T09:36:22.64Z</time></trkpt><trkpt lat="36.7797993" lon="8.6887693"><ele>715.2</ele><time>2026-05-02T09:36:24.644Z</time></trkpt><trkpt lat="36.7798907" lon="8.6886739"><ele>717.0</ele><time>2026-05-02T09:36:26.636Z</time></trkpt><trkpt lat="36.7799498" lon="8.6886217"><ele>716.3333333333334</ele><time>2026-05-02T09:36:27.642Z</time></trkpt><trkpt lat="36.7800116" lon="8.6885662"><ele>715.6666666666666</ele><time>2026-05-02T09:36:28.647Z</time></trkpt><trkpt lat="36.7800775" lon="8.6885107"><ele>715.0</ele><time>2026-05-02T09:36:29.658Z</time></trkpt><trkpt lat="36.7801401" lon="8.688454"><ele>714.3333333333333</ele><time>2026-05-02T09:36:30.648Z</time></trkpt><trkpt lat="36.7801963" lon="8.6883953"><ele>713.6666666666666</ele><time>2026-05-02T09:36:31.647Z</time></trkpt><trkpt lat="36.780251" lon="8.6883393"><ele>713.0</ele><time>2026-05-02T09:36:32.64Z</time></trkpt><trkpt lat="36.780345" lon="8.6882314"><ele>712.6666666666666</ele><time>2026-05-02T09:36:34.651Z</time></trkpt><trkpt lat="36.7804003" lon="8.6881558"><ele>712.3333333333333</ele><time>2026-05-02T09:36:36.655Z</time></trkpt><trkpt lat="36.7804659" lon="8.6881058"><ele>712.0</ele><time>2026-05-02T09:36:43.635Z</time></trkpt><trkpt lat="36.7805395" lon="8.6880507"><ele>711.6666666666666</ele><time>2026-05-02T09:36:46.646Z</time></trkpt><trkpt lat="36.7805874" lon="8.6879981"><ele>711.3333333333334</ele><time>2026-05-02T09:36:48.661Z</time></trkpt><trkpt lat="36.7806385" lon="8.6879299"><ele>711.0</ele><time>2026-05-02T09:36:51.669Z</time></trkpt><trkpt lat="36.780692" lon="8.6878657"><ele>711.0</ele><time>2026-05-02T09:36:53.656Z</time></trkpt><trkpt lat="36.7807529" lon="8.6877701"><ele>711.0</ele><time>2026-05-02T09:36:55.656Z</time></trkpt><trkpt lat="36.7808156" lon="8.6876664"><ele>711.0</ele><time>2026-05-02T09:36:57.658Z</time></trkpt><trkpt lat="36.7808816" lon="8.6875589"><ele>711.0</ele><time>2026-05-02T09:36:59.656Z</time></trkpt><trkpt lat="36.780958" lon="8.6874612"><ele>711.0</ele><time>2026-05-02T09:37:01.641Z</time></trkpt><trkpt lat="36.7810359" lon="8.6873618"><ele>710.5</ele><time>2026-05-02T09:37:03.639Z</time></trkpt><trkpt lat="36.7811175" lon="8.687266"><ele>710.0</ele><time>2026-05-02T09:37:05.653Z</time></trkpt><trkpt lat="36.7811732" lon="8.6872217"><ele>709.5</ele><time>2026-05-02T09:37:06.67Z</time></trkpt><trkpt lat="36.781233" lon="8.6871712"><ele>709.0</ele><time>2026-05-02T09:37:07.658Z</time></trkpt><trkpt lat="36.7812942" lon="8.6871205"><ele>708.5</ele><time>2026-05-02T09:37:08.646Z</time></trkpt><trkpt lat="36.7813548" lon="8.687067"><ele>708.0</ele><time>2026-05-02T09:37:09.651Z</time></trkpt><trkpt lat="36.7814141" lon="8.6870108"><ele>708.0</ele><time>2026-05-02T09:37:10.646Z</time></trkpt><trkpt lat="36.7814752" lon="8.6869559"><ele>708.0</ele><time>2026-05-02T09:37:11.654Z</time></trkpt><trkpt lat="36.7815331" lon="8.6868972"><ele>708.0</ele><time>2026-05-02T09:37:12.654Z</time></trkpt><trkpt lat="36.7816001" lon="8.6868448"><ele>708.0</ele><time>2026-05-02T09:37:13.665Z</time></trkpt><trkpt lat="36.7816697" lon="8.6867869"><ele>708.0</ele><time>2026-05-02T09:37:14.645Z</time></trkpt><trkpt lat="36.7817369" lon="8.6867249"><ele>708.0</ele><time>2026-05-02T09:37:15.653Z</time></trkpt><trkpt lat="36.7818004" lon="8.6866511"><ele>709.5</ele><time>2026-05-02T09:37:16.648Z</time></trkpt><trkpt lat="36.7818728" lon="8.6865864"><ele>711.0</ele><time>2026-05-02T09:37:17.656Z</time></trkpt><trkpt lat="36.7819422" lon="8.686514"><ele>712.5</ele><time>2026-05-02T09:37:18.65Z</time></trkpt><trkpt lat="36.7820078" lon="8.686457"><ele>714.0</ele><time>2026-05-02T09:37:19.663Z</time></trkpt><trkpt lat="36.7820725" lon="8.6864089"><ele>715.5</ele><time>2026-05-02T09:37:20.651Z</time></trkpt><trkpt lat="36.7821343" lon="8.686374"><ele>717.0</ele><time>2026-05-02T09:37:21.647Z</time></trkpt><trkpt lat="36.7821987" lon="8.686355"><ele>717.0</ele><time>2026-05-02T09:37:22.639Z</time></trkpt><trkpt lat="36.7822673" lon="8.6863447"><ele>717.0</ele><time>2026-05-02T09:37:23.657Z</time></trkpt><trkpt lat="36.7823397" lon="8.6863425"><ele>717.0</ele><time>2026-05-02T09:37:24.653Z</time></trkpt><trkpt lat="36.7824136" lon="8.6863558"><ele>717.0</ele><time>2026-05-02T09:37:25.632Z</time></trkpt><trkpt lat="36.7824824" lon="8.6863769"><ele>717.0</ele><time>2026-05-02T09:37:26.635Z</time></trkpt><trkpt lat="36.7825506" lon="8.6864063"><ele>717.0</ele><time>2026-05-02T09:37:27.654Z</time></trkpt><trkpt lat="36.7826217" lon="8.6864357"><ele>717.0</ele><time>2026-05-02T09:37:28.661Z</time></trkpt><trkpt lat="36.7826928" lon="8.6864745"><ele>718.2</ele><time>2026-05-02T09:37:29.654Z</time></trkpt><trkpt lat="36.7827735" lon="8.6865166"><ele>719.4000000000001</ele><time>2026-05-02T09:37:30.651Z</time></trkpt><trkpt lat="36.7828594" lon="8.6865723"><ele>720.5999999999999</ele><time>2026-05-02T09:37:31.644Z</time></trkpt><trkpt lat="36.7829446" lon="8.6866309"><ele>721.8</ele><time>2026-05-02T09:37:32.65Z</time></trkpt><trkpt lat="36.7830339" lon="8.6866874"><ele>723.0</ele><time>2026-05-02T09:37:33.644Z</time></trkpt><trkpt lat="36.783128" lon="8.6867344"><ele>723.0</ele><time>2026-05-02T09:37:34.634Z</time></trkpt><trkpt lat="36.7832145" lon="8.6867775"><ele>723.0</ele><time>2026-05-02T09:37:35.651Z</time></trkpt><trkpt lat="36.7832986" lon="8.6868127"><ele>723.0</ele><time>2026-05-02T09:37:36.651Z</time></trkpt><trkpt lat="36.7833848" lon="8.6868418"><ele>723.0</ele><time>2026-05-02T09:37:37.626Z</time></trkpt><trkpt lat="36.7834699" lon="8.6868626"><ele>723.0</ele><time>2026-05-02T09:37:38.656Z</time></trkpt><trkpt lat="36.7835505" lon="8.6868821"><ele>723.0</ele><time>2026-05-02T09:37:39.654Z</time></trkpt><trkpt lat="36.7836291" lon="8.686901"><ele>723.1428571428572</ele><time>2026-05-02T09:37:40.657Z</time></trkpt><trkpt lat="36.783707" lon="8.6869182"><ele>723.2857142857143</ele><time>2026-05-02T09:37:41.652Z</time></trkpt><trkpt lat="36.7837796" lon="8.686934"><ele>723.4285714285714</ele><time>2026-05-02T09:37:42.673Z</time></trkpt><trkpt lat="36.7838478" lon="8.6869444"><ele>723.5714285714287</ele><time>2026-05-02T09:37:43.664Z</time></trkpt><trkpt lat="36.7839191" lon="8.6869506"><ele>723.7142857142857</ele><time>2026-05-02T09:37:44.654Z</time></trkpt><trkpt lat="36.7839898" lon="8.6869541"><ele>723.8571428571429</ele><time>2026-05-02T09:37:45.665Z</time></trkpt><trkpt lat="36.7840656" lon="8.6869645"><ele>724.0</ele><time>2026-05-02T09:37:46.616Z</time></trkpt><trkpt lat="36.7841464" lon="8.6869877"><ele>724.6</ele><time>2026-05-02T09:37:47.649Z</time></trkpt><trkpt lat="36.7842357" lon="8.6870361"><ele>725.2</ele><time>2026-05-02T09:37:48.627Z</time></trkpt><trkpt lat="36.7843278" lon="8.6870932"><ele>725.8000000000001</ele><time>2026-05-02T09:37:49.616Z</time></trkpt><trkpt lat="36.7844074" lon="8.687178"><ele>726.4000000000001</ele><time>2026-05-02T09:37:50.662Z</time></trkpt><trkpt lat="36.7844701" lon="8.6872882"><ele>727.0</ele><time>2026-05-02T09:37:51.649Z</time></trkpt><trkpt lat="36.7845295" lon="8.6873974"><ele>727.0</ele><time>2026-05-02T09:37:52.66Z</time></trkpt><trkpt lat="36.784582" lon="8.6875061"><ele>727.0</ele><time>2026-05-02T09:37:53.67Z</time></trkpt><trkpt lat="36.7846397" lon="8.6876083"><ele>727.0</ele><time>2026-05-02T09:37:54.654Z</time></trkpt><trkpt lat="36.7847087" lon="8.6877111"><ele>727.0</ele><time>2026-05-02T09:37:55.603Z</time></trkpt><trkpt lat="36.7847841" lon="8.6878167"><ele>727.0</ele><time>2026-05-02T09:37:56.653Z</time></trkpt><trkpt lat="36.7848726" lon="8.6879141"><ele>724.25</ele><time>2026-05-02T09:37:57.65Z</time></trkpt><trkpt lat="36.7849723" lon="8.6880035"><ele>721.5</ele><time>2026-05-02T09:37:58.646Z</time></trkpt><trkpt lat="36.7850795" lon="8.6880853"><ele>718.75</ele><time>2026-05-02T09:37:59.663Z</time></trkpt><trkpt lat="36.7851834" lon="8.6881574"><ele>716.0</ele><time>2026-05-02T09:38:00.629Z</time></trkpt><trkpt lat="36.785278" lon="8.6882188"><ele>716.0</ele><time>2026-05-02T09:38:01.653Z</time></trkpt><trkpt lat="36.7853782" lon="8.688271"><ele>716.0</ele><time>2026-05-02T09:38:02.636Z</time></trkpt><trkpt lat="36.7854694" lon="8.6882943"><ele>716.0</ele><time>2026-05-02T09:38:03.652Z</time></trkpt><trkpt lat="36.7855586" lon="8.6882888"><ele>716.0</ele><time>2026-05-02T09:38:04.659Z</time></trkpt><trkpt lat="36.7856476" lon="8.6882795"><ele>716.0</ele><time>2026-05-02T09:38:05.643Z</time></trkpt><trkpt lat="36.7857285" lon="8.6882502"><ele>716.0</ele><time>2026-05-02T09:38:06.659Z</time></trkpt><trkpt lat="36.7858087" lon="8.6882207"><ele>716.0</ele><time>2026-05-02T09:38:07.658Z</time></trkpt><trkpt lat="36.7858839" lon="8.6882078"><ele>716.0</ele><time>2026-05-02T09:38:08.631Z</time></trkpt><trkpt lat="36.7859596" lon="8.688217"><ele>716.0</ele><time>2026-05-02T09:38:09.66Z</time></trkpt><trkpt lat="36.7860286" lon="8.6882517"><ele>716.0</ele><time>2026-05-02T09:38:10.627Z</time></trkpt><trkpt lat="36.7861024" lon="8.6883036"><ele>716.0</ele><time>2026-05-02T09:38:11.651Z</time></trkpt><trkpt lat="36.7861692" lon="8.6883676"><ele>716.8333333333333</ele><time>2026-05-02T09:38:12.65Z</time></trkpt><trkpt lat="36.7862403" lon="8.6884228"><ele>717.6666666666666</ele><time>2026-05-02T09:38:13.671Z</time></trkpt><trkpt lat="36.7863209" lon="8.6884705"><ele>718.5</ele><time>2026-05-02T09:38:14.667Z</time></trkpt><trkpt lat="36.7864076" lon="8.6885082"><ele>719.3333333333334</ele><time>2026-05-02T09:38:15.643Z</time></trkpt><trkpt lat="36.7864957" lon="8.6885371"><ele>720.1666666666667</ele><time>2026-05-02T09:38:16.628Z</time></trkpt><trkpt lat="36.7865883" lon="8.6885429"><ele>721.0</ele><time>2026-05-02T09:38:17.658Z</time></trkpt><trkpt lat="36.7866789" lon="8.6885206"><ele>721.0</ele><time>2026-05-02T09:38:18.653Z</time></trkpt><trkpt lat="36.7867587" lon="8.6884711"><ele>721.0</ele><time>2026-05-02T09:38:19.64Z</time></trkpt><trkpt lat="36.7868236" lon="8.6884167"><ele>721.0</ele><time>2026-05-02T09:38:20.665Z</time></trkpt><trkpt lat="36.7868937" lon="8.688358"><ele>721.0</ele><time>2026-05-02T09:38:21.664Z</time></trkpt><trkpt lat="36.7869607" lon="8.68831"><ele>721.0</ele><time>2026-05-02T09:38:22.651Z</time></trkpt><trkpt lat="36.7870365" lon="8.6882681"><ele>721.0</ele><time>2026-05-02T09:38:23.642Z</time></trkpt><trkpt lat="36.7871161" lon="8.68824"><ele>721.1999999999999</ele><time>2026-05-02T09:38:24.659Z</time></trkpt><trkpt lat="36.7872009" lon="8.6882348"><ele>721.4</ele><time>2026-05-02T09:38:25.654Z</time></trkpt><trkpt lat="36.7872946" lon="8.6882482"><ele>721.6</ele><time>2026-05-02T09:38:26.655Z</time></trkpt><trkpt lat="36.7873918" lon="8.6882724"><ele>721.8</ele><time>2026-05-02T09:38:27.643Z</time></trkpt><trkpt lat="36.7874943" lon="8.6883171"><ele>722.0</ele><time>2026-05-02T09:38:28.633Z</time></trkpt><trkpt lat="36.7875901" lon="8.6883752"><ele>724.5</ele><time>2026-05-02T09:38:29.662Z</time></trkpt><trkpt lat="36.7876898" lon="8.6884404"><ele>727.0</ele><time>2026-05-02T09:38:30.661Z</time></trkpt><trkpt lat="36.7877913" lon="8.6885098"><ele>729.5</ele><time>2026-05-02T09:38:31.656Z</time></trkpt><trkpt lat="36.7878947" lon="8.6885766"><ele>732.0</ele><time>2026-05-02T09:38:32.644Z</time></trkpt><trkpt lat="36.787998" lon="8.6886534"><ele>728.0</ele><time>2026-05-02T09:38:33.64Z</time></trkpt><trkpt lat="36.788101" lon="8.6887263"><ele>724.0</ele><time>2026-05-02T09:38:34.652Z</time></trkpt><trkpt lat="36.7881938" lon="8.6888122"><ele>720.0</ele><time>2026-05-02T09:38:35.663Z</time></trkpt><trkpt lat="36.7882855" lon="8.6888898"><ele>716.0</ele><time>2026-05-02T09:38:36.635Z</time></trkpt><trkpt lat="36.7883728" lon="8.688956"><ele>712.0</ele><time>2026-05-02T09:38:37.651Z</time></trkpt><trkpt lat="36.7884767" lon="8.6890003"><ele>715.6666666666667</ele><time>2026-05-02T09:38:38.641Z</time></trkpt><trkpt lat="36.7886101" lon="8.6890371"><ele>719.3333333333334</ele><time>2026-05-02T09:38:39.647Z</time></trkpt><trkpt lat="36.7887853" lon="8.6890756"><ele>723.0</ele><time>2026-05-02T09:38:40.657Z</time></trkpt><trkpt lat="36.7889701" lon="8.689106"><ele>723.0</ele><time>2026-05-02T09:38:41.618Z</time></trkpt><trkpt lat="36.7891328" lon="8.6891526"><ele>723.0</ele><time>2026-05-02T09:38:42.668Z</time></trkpt><trkpt lat="36.7892878" lon="8.6892356"><ele>723.0</ele><time>2026-05-02T09:38:43.668Z</time></trkpt><trkpt lat="36.789426" lon="8.689332"><ele>723.3333333333334</ele><time>2026-05-02T09:38:44.633Z</time></trkpt><trkpt lat="36.7895566" lon="8.6894521"><ele>723.6666666666667</ele><time>2026-05-02T09:38:45.616Z</time></trkpt><trkpt lat="36.7896914" lon="8.6896088"><ele>724.0</ele><time>2026-05-02T09:38:46.646Z</time></trkpt><trkpt lat="36.789809" lon="8.6898032"><ele>724.0</ele><time>2026-05-02T09:38:47.656Z</time></trkpt><trkpt lat="36.7899125" lon="8.6899726"><ele>724.0</ele><time>2026-05-02T09:38:48.652Z</time></trkpt><trkpt lat="36.7900014" lon="8.6901275"><ele>724.0</ele><time>2026-05-02T09:38:49.641Z</time></trkpt><trkpt lat="36.7900612" lon="8.6902681"><ele>722.0</ele><time>2026-05-02T09:38:50.6Z</time></trkpt><trkpt lat="36.7900881" lon="8.6904177"><ele>720.0</ele><time>2026-05-02T09:38:51.657Z</time></trkpt><trkpt lat="36.7900926" lon="8.690581"><ele>718.0</ele><time>2026-05-02T09:38:52.614Z</time></trkpt><trkpt lat="36.7900827" lon="8.6907726"><ele>716.0</ele><time>2026-05-02T09:38:53.596Z</time></trkpt><trkpt lat="36.7900534" lon="8.6909598"><ele>714.0</ele><time>2026-05-02T09:38:54.641Z</time></trkpt><trkpt lat="36.7900175" lon="8.691132"><ele>712.0</ele><time>2026-05-02T09:38:55.654Z</time></trkpt><trkpt lat="36.7900049" lon="8.6912954"><ele>710.0</ele><time>2026-05-02T09:38:56.64Z</time></trkpt><trkpt lat="36.7900219" lon="8.6914364"><ele>708.0</ele><time>2026-05-02T09:38:57.65Z</time></trkpt><trkpt lat="36.7900576" lon="8.6915702"><ele>708.0</ele><time>2026-05-02T09:38:58.64Z</time></trkpt><trkpt lat="36.790128" lon="8.6917061"><ele>708.0</ele><time>2026-05-02T09:38:59.652Z</time></trkpt><trkpt lat="36.7902198" lon="8.6918227"><ele>708.0</ele><time>2026-05-02T09:39:00.614Z</time></trkpt><trkpt lat="36.7903343" lon="8.691911"><ele>708.0</ele><time>2026-05-02T09:39:01.666Z</time></trkpt><trkpt lat="36.7904607" lon="8.6919874"><ele>707.0</ele><time>2026-05-02T09:39:02.651Z</time></trkpt><trkpt lat="36.7906099" lon="8.6920517"><ele>706.0</ele><time>2026-05-02T09:39:03.641Z</time></trkpt><trkpt lat="36.7907797" lon="8.6921229"><ele>705.0</ele><time>2026-05-02T09:39:04.618Z</time></trkpt><trkpt lat="36.7909586" lon="8.6922054"><ele>710.3333333333334</ele><time>2026-05-02T09:39:05.653Z</time></trkpt><trkpt lat="36.7911304" lon="8.6922828"><ele>715.6666666666667</ele><time>2026-05-02T09:39:06.662Z</time></trkpt><trkpt lat="36.7912757" lon="8.6923389"><ele>721.0</ele><time>2026-05-02T09:39:07.638Z</time></trkpt><trkpt lat="36.7914182" lon="8.6923955"><ele>721.0</ele><time>2026-05-02T09:39:08.639Z</time></trkpt><trkpt lat="36.7915449" lon="8.6924435"><ele>721.0</ele><time>2026-05-02T09:39:09.649Z</time></trkpt><trkpt lat="36.7916681" lon="8.6925"><ele>721.0</ele><time>2026-05-02T09:39:10.652Z</time></trkpt><trkpt lat="36.7917916" lon="8.6925498"><ele>721.0</ele><time>2026-05-02T09:39:11.669Z</time></trkpt><trkpt lat="36.7919133" lon="8.6926002"><ele>720.8</ele><time>2026-05-02T09:39:12.611Z</time></trkpt><trkpt lat="36.7920323" lon="8.6926393"><ele>720.5999999999999</ele><time>2026-05-02T09:39:13.636Z</time></trkpt><trkpt lat="36.7921393" lon="8.6926756"><ele>720.4</ele><time>2026-05-02T09:39:14.661Z</time></trkpt><trkpt lat="36.7922442" lon="8.6926995"><ele>720.2</ele><time>2026-05-02T09:39:15.64Z</time></trkpt><trkpt lat="36.7923376" lon="8.692691"><ele>720.0</ele><time>2026-05-02T09:39:16.657Z</time></trkpt><trkpt lat="36.792432" lon="8.6926591"><ele>720.0</ele><time>2026-05-02T09:39:17.671Z</time></trkpt><trkpt lat="36.7925089" lon="8.6925957"><ele>720.0</ele><time>2026-05-02T09:39:18.653Z</time></trkpt><trkpt lat="36.7925723" lon="8.692508"><ele>720.0</ele><time>2026-05-02T09:39:19.628Z</time></trkpt><trkpt lat="36.7926295" lon="8.6923974"><ele>720.0</ele><time>2026-05-02T09:39:20.659Z</time></trkpt><trkpt lat="36.7926951" lon="8.6922762"><ele>720.0</ele><time>2026-05-02T09:39:21.669Z</time></trkpt><trkpt lat="36.7927648" lon="8.6921541"><ele>715.5</ele><time>2026-05-02T09:39:22.67Z</time></trkpt><trkpt lat="36.7928312" lon="8.6920289"><ele>711.0</ele><time>2026-05-02T09:39:23.65Z</time></trkpt><trkpt lat="36.7928896" lon="8.6919017"><ele>706.5</ele><time>2026-05-02T09:39:24.646Z</time></trkpt><trkpt lat="36.7929274" lon="8.6917559"><ele>702.0</ele><time>2026-05-02T09:39:25.664Z</time></trkpt><trkpt lat="36.7929393" lon="8.6916028"><ele>702.0</ele><time>2026-05-02T09:39:26.641Z</time></trkpt><trkpt lat="36.7929428" lon="8.6914505"><ele>702.0</ele><time>2026-05-02T09:39:27.621Z</time></trkpt><trkpt lat="36.7929463" lon="8.6912986"><ele>702.0</ele><time>2026-05-02T09:39:28.647Z</time></trkpt><trkpt lat="36.7929622" lon="8.6911556"><ele>702.0</ele><time>2026-05-02T09:39:29.67Z</time></trkpt><trkpt lat="36.7929999" lon="8.6910112"><ele>702.0</ele><time>2026-05-02T09:39:30.646Z</time></trkpt><trkpt lat="36.7930484" lon="8.6908854"><ele>702.0</ele><time>2026-05-02T09:39:31.637Z</time></trkpt><trkpt lat="36.7930963" lon="8.690751"><ele>702.0</ele><time>2026-05-02T09:39:32.64Z</time></trkpt><trkpt lat="36.7931505" lon="8.6906165"><ele>702.0</ele><time>2026-05-02T09:39:33.637Z</time></trkpt><trkpt lat="36.793212" lon="8.6904876"><ele>702.0</ele><time>2026-05-02T09:39:34.65Z</time></trkpt><trkpt lat="36.7932897" lon="8.6903825"><ele>702.0</ele><time>2026-05-02T09:39:35.623Z</time></trkpt><trkpt lat="36.7933746" lon="8.6902882"><ele>702.0</ele><time>2026-05-02T09:39:36.657Z</time></trkpt><trkpt lat="36.7934655" lon="8.6901969"><ele>702.0</ele><time>2026-05-02T09:39:37.649Z</time></trkpt><trkpt lat="36.7935557" lon="8.6900975"><ele>699.25</ele><time>2026-05-02T09:39:38.653Z</time></trkpt><trkpt lat="36.7936465" lon="8.6900075"><ele>696.5</ele><time>2026-05-02T09:39:39.656Z</time></trkpt><trkpt lat="36.7937446" lon="8.6899208"><ele>693.75</ele><time>2026-05-02T09:39:40.659Z</time></trkpt><trkpt lat="36.7938404" lon="8.6898435"><ele>691.0</ele><time>2026-05-02T09:39:41.66Z</time></trkpt><trkpt lat="36.7939385" lon="8.6897721"><ele>691.0</ele><time>2026-05-02T09:39:42.62Z</time></trkpt><trkpt lat="36.7940355" lon="8.6897042"><ele>691.0</ele><time>2026-05-02T09:39:43.643Z</time></trkpt><trkpt lat="36.7941406" lon="8.6896458"><ele>691.0</ele><time>2026-05-02T09:39:44.666Z</time></trkpt><trkpt lat="36.7942556" lon="8.6896014"><ele>691.0</ele><time>2026-05-02T09:39:45.647Z</time></trkpt><trkpt lat="36.7943712" lon="8.6895535"><ele>691.0</ele><time>2026-05-02T09:39:46.659Z</time></trkpt><trkpt lat="36.7944876" lon="8.6895146"><ele>691.0</ele><time>2026-05-02T09:39:47.673Z</time></trkpt><trkpt lat="36.7945981" lon="8.6894752"><ele>691.0</ele><time>2026-05-02T09:39:48.668Z</time></trkpt><trkpt lat="36.7947125" lon="8.6894336"><ele>691.0</ele><time>2026-05-02T09:39:49.66Z</time></trkpt><trkpt lat="36.7948201" lon="8.6893828"><ele>691.0</ele><time>2026-05-02T09:39:50.657Z</time></trkpt><trkpt lat="36.7949254" lon="8.6893231"><ele>691.0</ele><time>2026-05-02T09:39:51.649Z</time></trkpt><trkpt lat="36.7950191" lon="8.6892395"><ele>691.0</ele><time>2026-05-02T09:39:52.663Z</time></trkpt><trkpt lat="36.795089" lon="8.6891402"><ele>691.0</ele><time>2026-05-02T09:39:53.623Z</time></trkpt><trkpt lat="36.7951396" lon="8.6890238"><ele>691.0</ele><time>2026-05-02T09:39:54.658Z</time></trkpt><trkpt lat="36.7951785" lon="8.6888915"><ele>683.75</ele><time>2026-05-02T09:39:55.652Z</time></trkpt><trkpt lat="36.7952086" lon="8.6887592"><ele>676.5</ele><time>2026-05-02T09:39:56.652Z</time></trkpt><trkpt lat="36.7952372" lon="8.6886108"><ele>669.25</ele><time>2026-05-02T09:39:57.658Z</time></trkpt><trkpt lat="36.7952448" lon="8.6884671"><ele>662.0</ele><time>2026-05-02T09:39:58.663Z</time></trkpt><trkpt lat="36.7952477" lon="8.6883193"><ele>662.0</ele><time>2026-05-02T09:39:59.657Z</time></trkpt><trkpt lat="36.7952437" lon="8.6881744"><ele>662.0</ele><time>2026-05-02T09:40:00.656Z</time></trkpt><trkpt lat="36.7952282" lon="8.6880259"><ele>662.0</ele><time>2026-05-02T09:40:01.663Z</time></trkpt><trkpt lat="36.7952086" lon="8.6878826"><ele>662.0</ele><time>2026-05-02T09:40:02.652Z</time></trkpt><trkpt lat="36.7951764" lon="8.6877516"><ele>665.4000000000001</ele><time>2026-05-02T09:40:03.656Z</time></trkpt><trkpt lat="36.795123" lon="8.6876319"><ele>668.8000000000001</ele><time>2026-05-02T09:40:04.655Z</time></trkpt><trkpt lat="36.7950597" lon="8.6875319"><ele>672.2</ele><time>2026-05-02T09:40:05.652Z</time></trkpt><trkpt lat="36.7949858" lon="8.6874411"><ele>675.6</ele><time>2026-05-02T09:40:06.652Z</time></trkpt><trkpt lat="36.7949045" lon="8.6873551"><ele>679.0</ele><time>2026-05-02T09:40:07.621Z</time></trkpt><trkpt lat="36.7948179" lon="8.687266"><ele>679.0</ele><time>2026-05-02T09:40:08.656Z</time></trkpt><trkpt lat="36.794736" lon="8.6871825"><ele>679.0</ele><time>2026-05-02T09:40:09.657Z</time></trkpt><trkpt lat="36.7946766" lon="8.6870681"><ele>679.0</ele><time>2026-05-02T09:40:10.635Z</time></trkpt><trkpt lat="36.7946244" lon="8.686955"><ele>679.0</ele><time>2026-05-02T09:40:11.648Z</time></trkpt><trkpt lat="36.7945988" lon="8.686834"><ele>679.0</ele><time>2026-05-02T09:40:12.655Z</time></trkpt><trkpt lat="36.794594" lon="8.6867065"><ele>675.2</ele><time>2026-05-02T09:40:13.643Z</time></trkpt><trkpt lat="36.7946112" lon="8.686578"><ele>671.4000000000001</ele><time>2026-05-02T09:40:14.653Z</time></trkpt><trkpt lat="36.7946349" lon="8.6864425"><ele>667.6</ele><time>2026-05-02T09:40:15.644Z</time></trkpt><trkpt lat="36.7946728" lon="8.686317"><ele>663.8</ele><time>2026-05-02T09:40:16.63Z</time></trkpt><trkpt lat="36.7947046" lon="8.6861873"><ele>660.0</ele><time>2026-05-02T09:40:17.659Z</time></trkpt><trkpt lat="36.7947342" lon="8.6860581"><ele>659.0</ele><time>2026-05-02T09:40:18.658Z</time></trkpt><trkpt lat="36.7947508" lon="8.6859099"><ele>658.0</ele><time>2026-05-02T09:40:19.655Z</time></trkpt><trkpt lat="36.7947518" lon="8.6857611"><ele>657.0</ele><time>2026-05-02T09:40:20.653Z</time></trkpt><trkpt lat="36.7947247" lon="8.6856001"><ele>656.0</ele><time>2026-05-02T09:40:21.63Z</time></trkpt><trkpt lat="36.7946931" lon="8.6854173"><ele>654.3333333333333</ele><time>2026-05-02T09:40:22.653Z</time></trkpt><trkpt lat="36.7946742" lon="8.6852254"><ele>652.6666666666666</ele><time>2026-05-02T09:40:23.658Z</time></trkpt><trkpt lat="36.7946902" lon="8.6850232"><ele>651.0</ele><time>2026-05-02T09:40:24.656Z</time></trkpt><trkpt lat="36.7947265" lon="8.684794"><ele>651.0</ele><time>2026-05-02T09:40:25.65Z</time></trkpt><trkpt lat="36.7947646" lon="8.6845693"><ele>651.0</ele><time>2026-05-02T09:40:26.63Z</time></trkpt><trkpt lat="36.7948079" lon="8.68435"><ele>651.0</ele><time>2026-05-02T09:40:27.62Z</time></trkpt><trkpt lat="36.7948416" lon="8.6841605"><ele>650.25</ele><time>2026-05-02T09:40:28.629Z</time></trkpt><trkpt lat="36.7948785" lon="8.6839813"><ele>649.5</ele><time>2026-05-02T09:40:29.643Z</time></trkpt><trkpt lat="36.7949311" lon="8.6838122"><ele>648.75</ele><time>2026-05-02T09:40:30.622Z</time></trkpt><trkpt lat="36.7950117" lon="8.6836845"><ele>648.0</ele><time>2026-05-02T09:40:31.627Z</time></trkpt><trkpt lat="36.7951205" lon="8.6836004"><ele>645.25</ele><time>2026-05-02T09:40:32.662Z</time></trkpt><trkpt lat="36.7952304" lon="8.6835458"><ele>642.5</ele><time>2026-05-02T09:40:33.649Z</time></trkpt><trkpt lat="36.7953628" lon="8.6835033"><ele>639.75</ele><time>2026-05-02T09:40:34.642Z</time></trkpt><trkpt lat="36.7954963" lon="8.6834931"><ele>637.0</ele><time>2026-05-02T09:40:35.619Z</time></trkpt><trkpt lat="36.7956133" lon="8.6835006"><ele>637.0</ele><time>2026-05-02T09:40:36.645Z</time></trkpt><trkpt lat="36.7957252" lon="8.6835319"><ele>637.0</ele><time>2026-05-02T09:40:37.633Z</time></trkpt><trkpt lat="36.7958302" lon="8.6835767"><ele>637.0</ele><time>2026-05-02T09:40:38.645Z</time></trkpt><trkpt lat="36.7959272" lon="8.6836235"><ele>637.0</ele><time>2026-05-02T09:40:39.648Z</time></trkpt><trkpt lat="36.7960182" lon="8.6836727"><ele>637.0</ele><time>2026-05-02T09:40:40.645Z</time></trkpt><trkpt lat="36.7961034" lon="8.6837135"><ele>632.8571428571429</ele><time>2026-05-02T09:40:41.653Z</time></trkpt><trkpt lat="36.7961699" lon="8.6837492"><ele>628.7142857142858</ele><time>2026-05-02T09:40:42.675Z</time></trkpt><trkpt lat="36.7962307" lon="8.683778"><ele>624.5714285714286</ele><time>2026-05-02T09:40:43.628Z</time></trkpt><trkpt lat="36.7963312" lon="8.6838105"><ele>620.4285714285714</ele><time>2026-05-02T09:40:45.653Z</time></trkpt><trkpt lat="36.7964076" lon="8.6838166"><ele>616.2857142857143</ele><time>2026-05-02T09:40:47.643Z</time></trkpt><trkpt lat="36.7964678" lon="8.6837841"><ele>612.1428571428571</ele><time>2026-05-02T09:40:51.646Z</time></trkpt><trkpt lat="36.7965026" lon="8.6837182"><ele>608.0</ele><time>2026-05-02T09:41:00.646Z</time></trkpt><trkpt lat="36.7965328" lon="8.6836153"><ele>608.0</ele><time>2026-05-02T09:41:02.617Z</time></trkpt><trkpt lat="36.7965631" lon="8.6835286"><ele>618.0</ele><time>2026-05-02T09:41:04.62Z</time></trkpt><trkpt lat="36.7966344" lon="8.6835105"><ele>618.0</ele><time>2026-05-02T09:41:08.649Z</time></trkpt><trkpt lat="36.7966937" lon="8.6835497"><ele>618.0</ele><time>2026-05-02T09:41:13.66Z</time></trkpt></trkseg><trkseg><trkpt lat="36.7966175" lon="8.683469"><ele>618.0</ele><time>2026-05-02T09:55:19.638Z</time></trkpt><trkpt lat="36.7965453" lon="8.6834202"><ele>618.0</ele><time>2026-05-02T09:55:22.633Z</time></trkpt><trkpt lat="36.796476" lon="8.6833152"><ele>618.0</ele><time>2026-05-02T09:55:24.659Z</time></trkpt><trkpt lat="36.7964288" lon="8.6832445"><ele>618.0</ele><time>2026-05-02T09:55:25.656Z</time></trkpt><trkpt lat="36.7963815" lon="8.683187"><ele>618.0</ele><time>2026-05-02T09:55:26.607Z</time></trkpt><trkpt lat="36.7963238" lon="8.6831344"><ele>618.0</ele><time>2026-05-02T09:55:27.631Z</time></trkpt><trkpt lat="36.7962523" lon="8.6830819"><ele>618.0</ele><time>2026-05-02T09:55:28.628Z</time></trkpt><trkpt lat="36.796187" lon="8.6830225"><ele>618.0</ele><time>2026-05-02T09:55:29.62Z</time></trkpt><trkpt lat="36.7961207" lon="8.6829502"><ele>618.0</ele><time>2026-05-02T09:55:30.634Z</time></trkpt><trkpt lat="36.796064" lon="8.6828697"><ele>618.0</ele><time>2026-05-02T09:55:31.611Z</time></trkpt><trkpt lat="36.7960107" lon="8.6827761"><ele>618.0</ele><time>2026-05-02T09:55:32.608Z</time></trkpt><trkpt lat="36.7959151" lon="8.6824506"><ele>620.75</ele><time>2026-05-02T09:55:35.605Z</time></trkpt><trkpt lat="36.7958891" lon="8.6822164"><ele>623.5</ele><time>2026-05-02T09:55:37.604Z</time></trkpt><trkpt lat="36.7958708" lon="8.6821101"><ele>626.25</ele><time>2026-05-02T09:55:38.606Z</time></trkpt><trkpt lat="36.7958335" lon="8.6819933"><ele>629.0</ele><time>2026-05-02T09:55:39.649Z</time></trkpt><trkpt lat="36.7957782" lon="8.6818863"><ele>624.6</ele><time>2026-05-02T09:55:40.628Z</time></trkpt><trkpt lat="36.7957118" lon="8.6817936"><ele>620.2</ele><time>2026-05-02T09:55:41.628Z</time></trkpt><trkpt lat="36.7956306" lon="8.6817214"><ele>615.8000000000001</ele><time>2026-05-02T09:55:42.655Z</time></trkpt><trkpt lat="36.7955416" lon="8.6816578"><ele>611.4</ele><time>2026-05-02T09:55:43.616Z</time></trkpt><trkpt lat="36.7954569" lon="8.6815866"><ele>607.0</ele><time>2026-05-02T09:55:44.632Z</time></trkpt><trkpt lat="36.7953707" lon="8.6815101"><ele>607.0</ele><time>2026-05-02T09:55:45.637Z</time></trkpt><trkpt lat="36.7952839" lon="8.6814364"><ele>607.0</ele><time>2026-05-02T09:55:46.633Z</time></trkpt><trkpt lat="36.7951939" lon="8.6813696"><ele>607.0</ele><time>2026-05-02T09:55:47.628Z</time></trkpt><trkpt lat="36.7951144" lon="8.6813243"><ele>607.0</ele><time>2026-05-02T09:55:48.602Z</time></trkpt><trkpt lat="36.7950342" lon="8.6812761"><ele>607.0</ele><time>2026-05-02T09:55:49.614Z</time></trkpt><trkpt lat="36.7949561" lon="8.6812317"><ele>608.5</ele><time>2026-05-02T09:55:50.606Z</time></trkpt><trkpt lat="36.7948886" lon="8.6811793"><ele>610.0</ele><time>2026-05-02T09:55:51.593Z</time></trkpt><trkpt lat="36.7948495" lon="8.6811147"><ele>611.5</ele><time>2026-05-02T09:55:52.595Z</time></trkpt><trkpt lat="36.7948321" lon="8.6810351"><ele>613.0</ele><time>2026-05-02T09:55:53.608Z</time></trkpt><trkpt lat="36.7948505" lon="8.6809209"><ele>614.5</ele><time>2026-05-02T09:55:54.592Z</time></trkpt><trkpt lat="36.7949041" lon="8.6808257"><ele>616.0</ele><time>2026-05-02T09:55:55.6Z</time></trkpt><trkpt lat="36.7949673" lon="8.6807324"><ele>616.0</ele><time>2026-05-02T09:55:56.602Z</time></trkpt><trkpt lat="36.7950476" lon="8.6806442"><ele>616.0</ele><time>2026-05-02T09:55:57.604Z</time></trkpt><trkpt lat="36.7951201" lon="8.6805737"><ele>616.0</ele><time>2026-05-02T09:55:58.613Z</time></trkpt><trkpt lat="36.7952017" lon="8.6805106"><ele>616.0</ele><time>2026-05-02T09:55:59.615Z</time></trkpt><trkpt lat="36.7953503" lon="8.6803676"><ele>610.8</ele><time>2026-05-02T09:56:01.609Z</time></trkpt><trkpt lat="36.7954096" lon="8.6802856"><ele>605.6</ele><time>2026-05-02T09:56:02.618Z</time></trkpt><trkpt lat="36.7954609" lon="8.6801911"><ele>600.4</ele><time>2026-05-02T09:56:03.624Z</time></trkpt><trkpt lat="36.7955022" lon="8.6800767"><ele>595.2</ele><time>2026-05-02T09:56:04.638Z</time></trkpt><trkpt lat="36.7955252" lon="8.6799422"><ele>590.0</ele><time>2026-05-02T09:56:05.6Z</time></trkpt><trkpt lat="36.795548" lon="8.6797989"><ele>590.0</ele><time>2026-05-02T09:56:06.62Z</time></trkpt><trkpt lat="36.7955612" lon="8.679656"><ele>590.0</ele><time>2026-05-02T09:56:07.614Z</time></trkpt><trkpt lat="36.7955761" lon="8.6795089"><ele>590.0</ele><time>2026-05-02T09:56:08.643Z</time></trkpt><trkpt lat="36.7956001" lon="8.6793602"><ele>590.0</ele><time>2026-05-02T09:56:09.627Z</time></trkpt><trkpt lat="36.7956188" lon="8.6792036"><ele>589.25</ele><time>2026-05-02T09:56:10.629Z</time></trkpt><trkpt lat="36.7956468" lon="8.6790409"><ele>588.5</ele><time>2026-05-02T09:56:11.621Z</time></trkpt><trkpt lat="36.7956753" lon="8.6788809"><ele>587.75</ele><time>2026-05-02T09:56:12.627Z</time></trkpt><trkpt lat="36.7956959" lon="8.6787207"><ele>587.0</ele><time>2026-05-02T09:56:13.621Z</time></trkpt><trkpt lat="36.7957166" lon="8.6785591"><ele>587.0</ele><time>2026-05-02T09:56:14.619Z</time></trkpt><trkpt lat="36.7957347" lon="8.678392"><ele>587.0</ele><time>2026-05-02T09:56:15.63Z</time></trkpt><trkpt lat="36.7957578" lon="8.6782268"><ele>587.0</ele><time>2026-05-02T09:56:16.629Z</time></trkpt><trkpt lat="36.7957843" lon="8.6780682"><ele>587.0</ele><time>2026-05-02T09:56:17.62Z</time></trkpt><trkpt lat="36.7958128" lon="8.6779143"><ele>586.5</ele><time>2026-05-02T09:56:18.615Z</time></trkpt><trkpt lat="36.7958423" lon="8.6777625"><ele>586.0</ele><time>2026-05-02T09:56:19.626Z</time></trkpt><trkpt lat="36.7958541" lon="8.6776082"><ele>585.5</ele><time>2026-05-02T09:56:20.615Z</time></trkpt><trkpt lat="36.7958496" lon="8.6774632"><ele>585.0</ele><time>2026-05-02T09:56:21.608Z</time></trkpt><trkpt lat="36.7958278" lon="8.6772877"><ele>585.0</ele><time>2026-05-02T09:56:22.621Z</time></trkpt><trkpt lat="36.7957924" lon="8.6771082"><ele>585.0</ele><time>2026-05-02T09:56:23.63Z</time></trkpt><trkpt lat="36.795754" lon="8.6769422"><ele>585.0</ele><time>2026-05-02T09:56:24.614Z</time></trkpt><trkpt lat="36.79572" lon="8.6767787"><ele>585.0</ele><time>2026-05-02T09:56:25.63Z</time></trkpt><trkpt lat="36.795702" lon="8.6766243"><ele>583.75</ele><time>2026-05-02T09:56:26.618Z</time></trkpt><trkpt lat="36.7957042" lon="8.6764784"><ele>582.5</ele><time>2026-05-02T09:56:27.633Z</time></trkpt><trkpt lat="36.7957297" lon="8.6763216"><ele>581.25</ele><time>2026-05-02T09:56:28.623Z</time></trkpt><trkpt lat="36.79577" lon="8.676162"><ele>580.0</ele><time>2026-05-02T09:56:29.613Z</time></trkpt><trkpt lat="36.7958237" lon="8.6760133"><ele>579.25</ele><time>2026-05-02T09:56:30.63Z</time></trkpt><trkpt lat="36.7958656" lon="8.6758727"><ele>578.5</ele><time>2026-05-02T09:56:31.635Z</time></trkpt><trkpt lat="36.7958932" lon="8.6757183"><ele>577.75</ele><time>2026-05-02T09:56:32.626Z</time></trkpt><trkpt lat="36.7959068" lon="8.6755649"><ele>577.0</ele><time>2026-05-02T09:56:33.624Z</time></trkpt><trkpt lat="36.7959058" lon="8.675407"><ele>574.3333333333334</ele><time>2026-05-02T09:56:34.634Z</time></trkpt><trkpt lat="36.79587" lon="8.6752303"><ele>571.6666666666666</ele><time>2026-05-02T09:56:35.632Z</time></trkpt><trkpt lat="36.7958373" lon="8.6750634"><ele>569.0</ele><time>2026-05-02T09:56:36.62Z</time></trkpt><trkpt lat="36.795781" lon="8.6747604"><ele>569.0</ele><time>2026-05-02T09:56:38.629Z</time></trkpt><trkpt lat="36.7957619" lon="8.6746364"><ele>569.0</ele><time>2026-05-02T09:56:39.639Z</time></trkpt><trkpt lat="36.7957665" lon="8.674526"><ele>569.0</ele><time>2026-05-02T09:56:40.637Z</time></trkpt><trkpt lat="36.7958035" lon="8.6744323"><ele>569.0</ele><time>2026-05-02T09:56:41.643Z</time></trkpt><trkpt lat="36.7958603" lon="8.6743633"><ele>569.0</ele><time>2026-05-02T09:56:42.616Z</time></trkpt><trkpt lat="36.7959401" lon="8.6743414"><ele>569.0</ele><time>2026-05-02T09:56:43.633Z</time></trkpt><trkpt lat="36.796016" lon="8.6743554"><ele>565.1666666666666</ele><time>2026-05-02T09:56:44.633Z</time></trkpt><trkpt lat="36.7960856" lon="8.6743835"><ele>561.3333333333333</ele><time>2026-05-02T09:56:45.633Z</time></trkpt><trkpt lat="36.7961447" lon="8.6744452"><ele>557.5</ele><time>2026-05-02T09:56:46.631Z</time></trkpt><trkpt lat="36.7961837" lon="8.6745505"><ele>553.6666666666666</ele><time>2026-05-02T09:56:47.632Z</time></trkpt><trkpt lat="36.7962225" lon="8.674653"><ele>549.8333333333334</ele><time>2026-05-02T09:56:48.614Z</time></trkpt><trkpt lat="36.7962569" lon="8.67474"><ele>546.0</ele><time>2026-05-02T09:56:49.628Z</time></trkpt><trkpt lat="36.7962879" lon="8.6748229"><ele>546.0</ele><time>2026-05-02T09:56:53.624Z</time></trkpt><trkpt lat="36.7963193" lon="8.6749212"><ele>546.0</ele><time>2026-05-02T09:57:02.629Z</time></trkpt><trkpt lat="36.796386" lon="8.675052"><ele>546.0</ele><time>2026-05-02T09:57:04.628Z</time></trkpt><trkpt lat="36.7964206" lon="8.6751213"><ele>546.0</ele><time>2026-05-02T09:57:05.641Z</time></trkpt><trkpt lat="36.7964676" lon="8.6751962"><ele>546.0</ele><time>2026-05-02T09:57:06.627Z</time></trkpt><trkpt lat="36.7965219" lon="8.6752805"><ele>546.0</ele><time>2026-05-02T09:57:07.628Z</time></trkpt><trkpt lat="36.7965726" lon="8.6753663"><ele>546.8</ele><time>2026-05-02T09:57:08.621Z</time></trkpt><trkpt lat="36.7966175" lon="8.6754546"><ele>547.6</ele><time>2026-05-02T09:57:09.62Z</time></trkpt><trkpt lat="36.7966563" lon="8.675557"><ele>548.4</ele><time>2026-05-02T09:57:10.626Z</time></trkpt><trkpt lat="36.7966897" lon="8.6756693"><ele>549.2</ele><time>2026-05-02T09:57:11.615Z</time></trkpt><trkpt lat="36.7967238" lon="8.6757959"><ele>550.0</ele><time>2026-05-02T09:57:12.64Z</time></trkpt><trkpt lat="36.796762" lon="8.6759234"><ele>550.0</ele><time>2026-05-02T09:57:13.624Z</time></trkpt><trkpt lat="36.7968122" lon="8.6760487"><ele>550.0</ele><time>2026-05-02T09:57:14.625Z</time></trkpt><trkpt lat="36.7968783" lon="8.6761748"><ele>550.0</ele><time>2026-05-02T09:57:15.625Z</time></trkpt><trkpt lat="36.7969586" lon="8.6762878"><ele>550.0</ele><time>2026-05-02T09:57:16.619Z</time></trkpt><trkpt lat="36.7970435" lon="8.67641"><ele>546.75</ele><time>2026-05-02T09:57:17.625Z</time></trkpt><trkpt lat="36.7971447" lon="8.6765272"><ele>543.5</ele><time>2026-05-02T09:57:18.631Z</time></trkpt><trkpt lat="36.7972495" lon="8.6766357"><ele>540.25</ele><time>2026-05-02T09:57:19.626Z</time></trkpt><trkpt lat="36.7973603" lon="8.6767239"><ele>537.0</ele><time>2026-05-02T09:57:20.637Z</time></trkpt><trkpt lat="36.7974857" lon="8.6767875"><ele>537.0</ele><time>2026-05-02T09:57:21.626Z</time></trkpt><trkpt lat="36.7976104" lon="8.6768574"><ele>537.0</ele><time>2026-05-02T09:57:22.625Z</time></trkpt><trkpt lat="36.797726" lon="8.6769305"><ele>537.0</ele><time>2026-05-02T09:57:23.612Z</time></trkpt><trkpt lat="36.7978462" lon="8.6769987"><ele>537.0</ele><time>2026-05-02T09:57:24.64Z</time></trkpt><trkpt lat="36.7979565" lon="8.6770594"><ele>536.25</ele><time>2026-05-02T09:57:25.632Z</time></trkpt><trkpt lat="36.7980641" lon="8.6771064"><ele>535.5</ele><time>2026-05-02T09:57:26.627Z</time></trkpt><trkpt lat="36.7981786" lon="8.6771224"><ele>534.75</ele><time>2026-05-02T09:57:27.624Z</time></trkpt><trkpt lat="36.7982903" lon="8.6771146"><ele>534.0</ele><time>2026-05-02T09:57:28.62Z</time></trkpt><trkpt lat="36.7983979" lon="8.6770542"><ele>532.25</ele><time>2026-05-02T09:57:29.647Z</time></trkpt><trkpt lat="36.7985105" lon="8.676984"><ele>530.5</ele><time>2026-05-02T09:57:30.636Z</time></trkpt><trkpt lat="36.7986326" lon="8.6769153"><ele>528.75</ele><time>2026-05-02T09:57:31.62Z</time></trkpt><trkpt lat="36.7987581" lon="8.6768691"><ele>527.0</ele><time>2026-05-02T09:57:32.628Z</time></trkpt><trkpt lat="36.7988909" lon="8.6768483"><ele>525.5</ele><time>2026-05-02T09:57:33.611Z</time></trkpt><trkpt lat="36.7990232" lon="8.6768287"><ele>524.0</ele><time>2026-05-02T09:57:34.631Z</time></trkpt><trkpt lat="36.7991524" lon="8.6767713"><ele>522.5</ele><time>2026-05-02T09:57:35.647Z</time></trkpt><trkpt lat="36.7992845" lon="8.6767019"><ele>521.0</ele><time>2026-05-02T09:57:36.637Z</time></trkpt><trkpt lat="36.7994176" lon="8.6766238"><ele>520.25</ele><time>2026-05-02T09:57:37.638Z</time></trkpt><trkpt lat="36.799545" lon="8.6765426"><ele>519.5</ele><time>2026-05-02T09:57:38.624Z</time></trkpt><trkpt lat="36.7996639" lon="8.6764656"><ele>518.75</ele><time>2026-05-02T09:57:39.627Z</time></trkpt><trkpt lat="36.7997833" lon="8.6763863"><ele>518.0</ele><time>2026-05-02T09:57:40.629Z</time></trkpt><trkpt lat="36.7998941" lon="8.6763156"><ele>518.0</ele><time>2026-05-02T09:57:41.63Z</time></trkpt><trkpt lat="36.7999979" lon="8.6762564"><ele>518.0</ele><time>2026-05-02T09:57:42.634Z</time></trkpt><trkpt lat="36.8000933" lon="8.6762168"><ele>518.0</ele><time>2026-05-02T09:57:43.643Z</time></trkpt><trkpt lat="36.8002009" lon="8.676225"><ele>518.0</ele><time>2026-05-02T09:57:44.624Z</time></trkpt><trkpt lat="36.8003097" lon="8.6762764"><ele>518.0</ele><time>2026-05-02T09:57:45.62Z</time></trkpt><trkpt lat="36.8004099" lon="8.6763581"><ele>513.75</ele><time>2026-05-02T09:57:46.615Z</time></trkpt><trkpt lat="36.8005123" lon="8.676453"><ele>509.5</ele><time>2026-05-02T09:57:47.613Z</time></trkpt><trkpt lat="36.8006255" lon="8.6765573"><ele>505.25</ele><time>2026-05-02T09:57:48.628Z</time></trkpt><trkpt lat="36.8007292" lon="8.6766747"><ele>501.0</ele><time>2026-05-02T09:57:49.632Z</time></trkpt><trkpt lat="36.8008181" lon="8.676799"><ele>501.0</ele><time>2026-05-02T09:57:50.62Z</time></trkpt><trkpt lat="36.8008794" lon="8.6769323"><ele>501.0</ele><time>2026-05-02T09:57:51.633Z</time></trkpt><trkpt lat="36.8009341" lon="8.6770614"><ele>501.0</ele><time>2026-05-02T09:57:52.636Z</time></trkpt><trkpt lat="36.800993" lon="8.6771801"><ele>501.0</ele><time>2026-05-02T09:57:53.625Z</time></trkpt><trkpt lat="36.8010736" lon="8.6772851"><ele>499.20000000000005</ele><time>2026-05-02T09:57:54.613Z</time></trkpt><trkpt lat="36.8011619" lon="8.6773589"><ele>497.40000000000003</ele><time>2026-05-02T09:57:55.626Z</time></trkpt><trkpt lat="36.8012578" lon="8.6774202"><ele>495.6</ele><time>2026-05-02T09:57:56.622Z</time></trkpt><trkpt lat="36.8013549" lon="8.6774503"><ele>493.8</ele><time>2026-05-02T09:57:57.639Z</time></trkpt><trkpt lat="36.8014495" lon="8.6774716"><ele>492.0</ele><time>2026-05-02T09:57:58.618Z</time></trkpt><trkpt lat="36.801545" lon="8.6774873"><ele>492.0</ele><time>2026-05-02T09:57:59.607Z</time></trkpt><trkpt lat="36.8016411" lon="8.6775066"><ele>492.00000000000006</ele><time>2026-05-02T09:58:00.628Z</time></trkpt><trkpt lat="36.8017392" lon="8.6775291"><ele>492.00000000000006</ele><time>2026-05-02T09:58:01.632Z</time></trkpt><trkpt lat="36.8018349" lon="8.6775583"><ele>492.0</ele><time>2026-05-02T09:58:02.618Z</time></trkpt><trkpt lat="36.8019265" lon="8.6775882"><ele>492.0</ele><time>2026-05-02T09:58:03.631Z</time></trkpt><trkpt lat="36.8020193" lon="8.6776254"><ele>491.8</ele><time>2026-05-02T09:58:04.633Z</time></trkpt><trkpt lat="36.8021021" lon="8.6776861"><ele>491.6</ele><time>2026-05-02T09:58:05.632Z</time></trkpt><trkpt lat="36.8021778" lon="8.6777503"><ele>491.40000000000003</ele><time>2026-05-02T09:58:06.627Z</time></trkpt><trkpt lat="36.802253" lon="8.6778148"><ele>491.20000000000005</ele><time>2026-05-02T09:58:07.614Z</time></trkpt><trkpt lat="36.8023286" lon="8.6778819"><ele>491.0</ele><time>2026-05-02T09:58:08.631Z</time></trkpt><trkpt lat="36.802406" lon="8.6779615"><ele>490.6</ele><time>2026-05-02T09:58:09.636Z</time></trkpt><trkpt lat="36.8024719" lon="8.6780375"><ele>490.20000000000005</ele><time>2026-05-02T09:58:10.621Z</time></trkpt><trkpt lat="36.8025317" lon="8.6781346"><ele>489.79999999999995</ele><time>2026-05-02T09:58:11.611Z</time></trkpt><trkpt lat="36.8025762" lon="8.6782405"><ele>489.4</ele><time>2026-05-02T09:58:12.629Z</time></trkpt><trkpt lat="36.8026113" lon="8.6783608"><ele>489.0</ele><time>2026-05-02T09:58:13.615Z</time></trkpt><trkpt lat="36.8026521" lon="8.6784861"><ele>487.2</ele><time>2026-05-02T09:58:14.627Z</time></trkpt><trkpt lat="36.8027007" lon="8.6786079"><ele>485.4</ele><time>2026-05-02T09:58:15.62Z</time></trkpt><trkpt lat="36.8027726" lon="8.6787184"><ele>483.6</ele><time>2026-05-02T09:58:16.628Z</time></trkpt><trkpt lat="36.8028505" lon="8.6788111"><ele>481.8</ele><time>2026-05-02T09:58:17.636Z</time></trkpt><trkpt lat="36.8029367" lon="8.6788837"><ele>480.0</ele><time>2026-05-02T09:58:18.624Z</time></trkpt><trkpt lat="36.8030299" lon="8.678923"><ele>480.0</ele><time>2026-05-02T09:58:19.635Z</time></trkpt><trkpt lat="36.8031317" lon="8.6789369"><ele>480.0</ele><time>2026-05-02T09:58:20.62Z</time></trkpt><trkpt lat="36.8032476" lon="8.6789179"><ele>480.0</ele><time>2026-05-02T09:58:21.617Z</time></trkpt><trkpt lat="36.8033644" lon="8.6789119"><ele>480.0</ele><time>2026-05-02T09:58:22.62Z</time></trkpt><trkpt lat="36.8034832" lon="8.6789294"><ele>480.25</ele><time>2026-05-02T09:58:23.63Z</time></trkpt><trkpt lat="36.8035996" lon="8.6789677"><ele>480.5</ele><time>2026-05-02T09:58:24.63Z</time></trkpt><trkpt lat="36.8037046" lon="8.6790286"><ele>480.75</ele><time>2026-05-02T09:58:25.624Z</time></trkpt><trkpt lat="36.8038071" lon="8.6790867"><ele>481.0</ele><time>2026-05-02T09:58:26.615Z</time></trkpt><trkpt lat="36.8039155" lon="8.6791356"><ele>481.0</ele><time>2026-05-02T09:58:27.626Z</time></trkpt><trkpt lat="36.8040303" lon="8.6791615"><ele>481.0</ele><time>2026-05-02T09:58:28.631Z</time></trkpt><trkpt lat="36.8041423" lon="8.6791364"><ele>481.0</ele><time>2026-05-02T09:58:29.623Z</time></trkpt><trkpt lat="36.8042379" lon="8.6790818"><ele>481.0</ele><time>2026-05-02T09:58:30.622Z</time></trkpt><trkpt lat="36.804326" lon="8.6790039"><ele>481.0</ele><time>2026-05-02T09:58:31.619Z</time></trkpt><trkpt lat="36.804396" lon="8.6789131"><ele>479.8</ele><time>2026-05-02T09:58:32.615Z</time></trkpt><trkpt lat="36.8044771" lon="8.6788333"><ele>478.6</ele><time>2026-05-02T09:58:33.61Z</time></trkpt><trkpt lat="36.8045631" lon="8.6788038"><ele>477.4</ele><time>2026-05-02T09:58:34.629Z</time></trkpt><trkpt lat="36.8046381" lon="8.6788549"><ele>476.2</ele><time>2026-05-02T09:58:35.637Z</time></trkpt><trkpt lat="36.8047183" lon="8.6789006"><ele>475.0</ele><time>2026-05-02T09:58:36.627Z</time></trkpt><trkpt lat="36.8048143" lon="8.6789187"><ele>475.0</ele><time>2026-05-02T09:58:37.626Z</time></trkpt><trkpt lat="36.8049177" lon="8.6789146"><ele>475.0</ele><time>2026-05-02T09:58:38.62Z</time></trkpt><trkpt lat="36.8050161" lon="8.6789007"><ele>475.0</ele><time>2026-05-02T09:58:39.631Z</time></trkpt><trkpt lat="36.8051209" lon="8.6788745"><ele>475.0</ele><time>2026-05-02T09:58:40.626Z</time></trkpt><trkpt lat="36.8052216" lon="8.6788359"><ele>475.0</ele><time>2026-05-02T09:58:41.632Z</time></trkpt><trkpt lat="36.8053296" lon="8.6787974"><ele>476.2</ele><time>2026-05-02T09:58:42.63Z</time></trkpt><trkpt lat="36.8054319" lon="8.6787665"><ele>477.4</ele><time>2026-05-02T09:58:43.63Z</time></trkpt><trkpt lat="36.8055336" lon="8.6787321"><ele>478.6</ele><time>2026-05-02T09:58:44.616Z</time></trkpt><trkpt lat="36.8056283" lon="8.6787298"><ele>479.8</ele><time>2026-05-02T09:58:45.639Z</time></trkpt><trkpt lat="36.8057119" lon="8.6787762"><ele>481.0</ele><time>2026-05-02T09:58:46.628Z</time></trkpt><trkpt lat="36.8057823" lon="8.6788843"><ele>481.0</ele><time>2026-05-02T09:58:47.613Z</time></trkpt><trkpt lat="36.8058474" lon="8.6790178"><ele>481.0</ele><time>2026-05-02T09:58:48.628Z</time></trkpt><trkpt lat="36.8059202" lon="8.6791677"><ele>481.0</ele><time>2026-05-02T09:58:49.613Z</time></trkpt><trkpt lat="36.806001" lon="8.6793154"><ele>481.0</ele><time>2026-05-02T09:58:50.626Z</time></trkpt><trkpt lat="36.806091" lon="8.6794596"><ele>480.75</ele><time>2026-05-02T09:58:51.624Z</time></trkpt><trkpt lat="36.8061771" lon="8.6796075"><ele>480.5</ele><time>2026-05-02T09:58:52.629Z</time></trkpt><trkpt lat="36.8062605" lon="8.6797489"><ele>480.25</ele><time>2026-05-02T09:58:53.628Z</time></trkpt><trkpt lat="36.8063336" lon="8.679879"><ele>480.0</ele><time>2026-05-02T09:58:54.618Z</time></trkpt><trkpt lat="36.8064042" lon="8.6800083"><ele>480.0</ele><time>2026-05-02T09:58:55.663Z</time></trkpt><trkpt lat="36.8064767" lon="8.6801344"><ele>480.0</ele><time>2026-05-02T09:58:56.636Z</time></trkpt><trkpt lat="36.8065526" lon="8.6802565"><ele>480.0</ele><time>2026-05-02T09:58:57.638Z</time></trkpt><trkpt lat="36.8066317" lon="8.6803836"><ele>480.0</ele><time>2026-05-02T09:58:58.627Z</time></trkpt><trkpt lat="36.8067106" lon="8.6805043"><ele>477.4</ele><time>2026-05-02T09:58:59.612Z</time></trkpt><trkpt lat="36.8067885" lon="8.6806189"><ele>474.8</ele><time>2026-05-02T09:59:00.626Z</time></trkpt><trkpt lat="36.8068688" lon="8.6807318"><ele>472.20000000000005</ele><time>2026-05-02T09:59:01.639Z</time></trkpt><trkpt lat="36.8069454" lon="8.6808235"><ele>469.6</ele><time>2026-05-02T09:59:02.619Z</time></trkpt><trkpt lat="36.807026" lon="8.6808795"><ele>467.0</ele><time>2026-05-02T09:59:03.633Z</time></trkpt><trkpt lat="36.807114" lon="8.6809048"><ele>467.0</ele><time>2026-05-02T09:59:04.619Z</time></trkpt><trkpt lat="36.8072108" lon="8.6808916"><ele>467.00000000000006</ele><time>2026-05-02T09:59:05.618Z</time></trkpt><trkpt lat="36.8073025" lon="8.6808536"><ele>467.00000000000006</ele><time>2026-05-02T09:59:06.622Z</time></trkpt><trkpt lat="36.807395" lon="8.6808112"><ele>467.0</ele><time>2026-05-02T09:59:07.634Z</time></trkpt><trkpt lat="36.8074896" lon="8.6807883"><ele>467.0</ele><time>2026-05-02T09:59:08.637Z</time></trkpt><trkpt lat="36.8075832" lon="8.680785"><ele>466.8</ele><time>2026-05-02T09:59:09.632Z</time></trkpt><trkpt lat="36.8076749" lon="8.6808198"><ele>466.6</ele><time>2026-05-02T09:59:10.622Z</time></trkpt><trkpt lat="36.8077505" lon="8.6809224"><ele>466.40000000000003</ele><time>2026-05-02T09:59:11.618Z</time></trkpt><trkpt lat="36.8078101" lon="8.6810566"><ele>466.20000000000005</ele><time>2026-05-02T09:59:12.606Z</time></trkpt><trkpt lat="36.8078529" lon="8.6811939"><ele>466.0</ele><time>2026-05-02T09:59:13.602Z</time></trkpt><trkpt lat="36.8078847" lon="8.6813462"><ele>466.0</ele><time>2026-05-02T09:59:14.612Z</time></trkpt><trkpt lat="36.8079216" lon="8.681493"><ele>466.0</ele><time>2026-05-02T09:59:15.614Z</time></trkpt><trkpt lat="36.8079802" lon="8.6816236"><ele>466.0</ele><time>2026-05-02T09:59:16.622Z</time></trkpt><trkpt lat="36.8080514" lon="8.6817425"><ele>466.0</ele><time>2026-05-02T09:59:17.642Z</time></trkpt><trkpt lat="36.8081572" lon="8.6818559"><ele>465.0</ele><time>2026-05-02T09:59:18.62Z</time></trkpt><trkpt lat="36.8082662" lon="8.6819608"><ele>464.0</ele><time>2026-05-02T09:59:19.608Z</time></trkpt><trkpt lat="36.8083859" lon="8.6820572"><ele>463.0</ele><time>2026-05-02T09:59:20.616Z</time></trkpt><trkpt lat="36.8085016" lon="8.6821541"><ele>462.0</ele><time>2026-05-02T09:59:21.611Z</time></trkpt><trkpt lat="36.8086131" lon="8.6822454"><ele>462.0</ele><time>2026-05-02T09:59:22.612Z</time></trkpt><trkpt lat="36.8087218" lon="8.6823341"><ele>462.0</ele><time>2026-05-02T09:59:23.61Z</time></trkpt><trkpt lat="36.8088251" lon="8.6824279"><ele>462.0</ele><time>2026-05-02T09:59:24.626Z</time></trkpt><trkpt lat="36.8089299" lon="8.6825188"><ele>462.0</ele><time>2026-05-02T09:59:25.631Z</time></trkpt><trkpt lat="36.8090322" lon="8.6826053"><ele>462.0</ele><time>2026-05-02T09:59:26.62Z</time></trkpt><trkpt lat="36.8091271" lon="8.6826862"><ele>462.00000000000006</ele><time>2026-05-02T09:59:27.616Z</time></trkpt><trkpt lat="36.8092158" lon="8.682761"><ele>462.00000000000006</ele><time>2026-05-02T09:59:28.63Z</time></trkpt><trkpt lat="36.8092996" lon="8.6828222"><ele>462.0</ele><time>2026-05-02T09:59:29.624Z</time></trkpt><trkpt lat="36.8093924" lon="8.6828783"><ele>462.0</ele><time>2026-05-02T09:59:30.626Z</time></trkpt><trkpt lat="36.8094913" lon="8.6829182"><ele>456.6</ele><time>2026-05-02T09:59:31.619Z</time></trkpt><trkpt lat="36.8096003" lon="8.682936"><ele>451.20000000000005</ele><time>2026-05-02T09:59:32.625Z</time></trkpt><trkpt lat="36.8097125" lon="8.6829453"><ele>445.8</ele><time>2026-05-02T09:59:33.61Z</time></trkpt><trkpt lat="36.8098232" lon="8.6829439"><ele>440.4</ele><time>2026-05-02T09:59:34.626Z</time></trkpt><trkpt lat="36.8099251" lon="8.6829437"><ele>435.0</ele><time>2026-05-02T09:59:35.617Z</time></trkpt><trkpt lat="36.8100268" lon="8.6829657"><ele>435.0</ele><time>2026-05-02T09:59:36.621Z</time></trkpt><trkpt lat="36.8101177" lon="8.6830141"><ele>435.0</ele><time>2026-05-02T09:59:37.626Z</time></trkpt><trkpt lat="36.8102152" lon="8.6830692"><ele>435.0</ele><time>2026-05-02T09:59:38.627Z</time></trkpt><trkpt lat="36.810318" lon="8.6831019"><ele>435.0</ele><time>2026-05-02T09:59:39.609Z</time></trkpt><trkpt lat="36.8104243" lon="8.6831145"><ele>435.0</ele><time>2026-05-02T09:59:40.626Z</time></trkpt><trkpt lat="36.8105321" lon="8.6831022"><ele>435.2</ele><time>2026-05-02T09:59:41.61Z</time></trkpt><trkpt lat="36.8106408" lon="8.6830714"><ele>435.4</ele><time>2026-05-02T09:59:42.611Z</time></trkpt><trkpt lat="36.8107385" lon="8.6830635"><ele>435.6</ele><time>2026-05-02T09:59:43.619Z</time></trkpt><trkpt lat="36.8108463" lon="8.6831018"><ele>435.8</ele><time>2026-05-02T09:59:44.612Z</time></trkpt><trkpt lat="36.8109377" lon="8.6831871"><ele>436.0</ele><time>2026-05-02T09:59:45.625Z</time></trkpt><trkpt lat="36.8110206" lon="8.6832646"><ele>438.75</ele><time>2026-05-02T09:59:46.607Z</time></trkpt><trkpt lat="36.8111168" lon="8.6833539"><ele>441.5</ele><time>2026-05-02T09:59:47.626Z</time></trkpt><trkpt lat="36.8112103" lon="8.6834422"><ele>444.25</ele><time>2026-05-02T09:59:48.631Z</time></trkpt><trkpt lat="36.8113038" lon="8.6835374"><ele>447.0</ele><time>2026-05-02T09:59:49.63Z</time></trkpt><trkpt lat="36.8114054" lon="8.6836155"><ele>440.75</ele><time>2026-05-02T09:59:50.629Z</time></trkpt><trkpt lat="36.8115149" lon="8.6836648"><ele>434.5</ele><time>2026-05-02T09:59:51.621Z</time></trkpt><trkpt lat="36.8116283" lon="8.6837033"><ele>428.25</ele><time>2026-05-02T09:59:52.633Z</time></trkpt><trkpt lat="36.8117502" lon="8.6837209"><ele>422.0</ele><time>2026-05-02T09:59:53.605Z</time></trkpt><trkpt lat="36.8118716" lon="8.6837019"><ele>422.0</ele><time>2026-05-02T09:59:54.634Z</time></trkpt><trkpt lat="36.8119912" lon="8.6836761"><ele>422.0</ele><time>2026-05-02T09:59:55.617Z</time></trkpt><trkpt lat="36.8121165" lon="8.6836658"><ele>422.0</ele><time>2026-05-02T09:59:56.634Z</time></trkpt><trkpt lat="36.8122358" lon="8.6836679"><ele>422.0</ele><time>2026-05-02T09:59:57.632Z</time></trkpt><trkpt lat="36.8123655" lon="8.6837019"><ele>422.0</ele><time>2026-05-02T09:59:58.639Z</time></trkpt><trkpt lat="36.8124898" lon="8.683751"><ele>422.0</ele><time>2026-05-02T09:59:59.623Z</time></trkpt><trkpt lat="36.812615" lon="8.6838182"><ele>422.0</ele><time>2026-05-02T10:00:00.61Z</time></trkpt><trkpt lat="36.8127403" lon="8.6838826"><ele>422.0</ele><time>2026-05-02T10:00:01.619Z</time></trkpt><trkpt lat="36.8128603" lon="8.6839591"><ele>427.25</ele><time>2026-05-02T10:00:02.625Z</time></trkpt><trkpt lat="36.8129707" lon="8.684043"><ele>432.5</ele><time>2026-05-02T10:00:03.632Z</time></trkpt><trkpt lat="36.8130615" lon="8.6841305"><ele>437.75</ele><time>2026-05-02T10:00:04.639Z</time></trkpt><trkpt lat="36.8131304" lon="8.6842542"><ele>443.0</ele><time>2026-05-02T10:00:05.62Z</time></trkpt><trkpt lat="36.813169" lon="8.6843815"><ele>439.59999999999997</ele><time>2026-05-02T10:00:06.61Z</time></trkpt><trkpt lat="36.8131982" lon="8.6845215"><ele>436.19999999999993</ele><time>2026-05-02T10:00:07.627Z</time></trkpt><trkpt lat="36.8132243" lon="8.6846473"><ele>432.8</ele><time>2026-05-02T10:00:08.624Z</time></trkpt><trkpt lat="36.8132305" lon="8.684762"><ele>429.4</ele><time>2026-05-02T10:00:09.612Z</time></trkpt><trkpt lat="36.8132446" lon="8.6848642"><ele>426.0</ele><time>2026-05-02T10:00:10.619Z</time></trkpt><trkpt lat="36.8132889" lon="8.6849507"><ele>426.0</ele><time>2026-05-02T10:00:11.616Z</time></trkpt><trkpt lat="36.8133544" lon="8.6850018"><ele>426.0</ele><time>2026-05-02T10:00:12.621Z</time></trkpt><trkpt lat="36.8134366" lon="8.685015"><ele>426.0</ele><time>2026-05-02T10:00:13.621Z</time></trkpt><trkpt lat="36.8135301" lon="8.685004"><ele>426.0</ele><time>2026-05-02T10:00:14.632Z</time></trkpt><trkpt lat="36.8136191" lon="8.6849988"><ele>426.0</ele><time>2026-05-02T10:00:15.618Z</time></trkpt><trkpt lat="36.813718" lon="8.6850089"><ele>426.0</ele><time>2026-05-02T10:00:16.651Z</time></trkpt><trkpt lat="36.8138171" lon="8.6850484"><ele>427.20000000000005</ele><time>2026-05-02T10:00:17.636Z</time></trkpt><trkpt lat="36.8139087" lon="8.6851094"><ele>428.40000000000003</ele><time>2026-05-02T10:00:18.62Z</time></trkpt><trkpt lat="36.8140109" lon="8.6851697"><ele>429.6</ele><time>2026-05-02T10:00:19.619Z</time></trkpt><trkpt lat="36.8141078" lon="8.6852353"><ele>430.8</ele><time>2026-05-02T10:00:20.625Z</time></trkpt><trkpt lat="36.8142057" lon="8.6853095"><ele>432.0</ele><time>2026-05-02T10:00:21.631Z</time></trkpt><trkpt lat="36.8143046" lon="8.6853757"><ele>427.75</ele><time>2026-05-02T10:00:22.628Z</time></trkpt><trkpt lat="36.8144055" lon="8.6854494"><ele>423.5</ele><time>2026-05-02T10:00:23.62Z</time></trkpt><trkpt lat="36.8145122" lon="8.6855329"><ele>419.25</ele><time>2026-05-02T10:00:24.614Z</time></trkpt><trkpt lat="36.8146216" lon="8.6856182"><ele>415.0</ele><time>2026-05-02T10:00:25.626Z</time></trkpt><trkpt lat="36.8147329" lon="8.6857056"><ele>415.0</ele><time>2026-05-02T10:00:26.624Z</time></trkpt><trkpt lat="36.814838" lon="8.6857953"><ele>415.0</ele><time>2026-05-02T10:00:27.626Z</time></trkpt><trkpt lat="36.814932" lon="8.6858929"><ele>415.0</ele><time>2026-05-02T10:00:28.635Z</time></trkpt><trkpt lat="36.8150128" lon="8.6859968"><ele>415.0</ele><time>2026-05-02T10:00:29.61Z</time></trkpt><trkpt lat="36.8150852" lon="8.6861157"><ele>412.25</ele><time>2026-05-02T10:00:30.618Z</time></trkpt><trkpt lat="36.8151538" lon="8.6862313"><ele>409.5</ele><time>2026-05-02T10:00:31.626Z</time></trkpt><trkpt lat="36.8152342" lon="8.6863284"><ele>406.75</ele><time>2026-05-02T10:00:32.636Z</time></trkpt><trkpt lat="36.8153385" lon="8.6863915"><ele>404.0</ele><time>2026-05-02T10:00:33.617Z</time></trkpt><trkpt lat="36.815449" lon="8.6864326"><ele>404.0</ele><time>2026-05-02T10:00:34.618Z</time></trkpt><trkpt lat="36.8155646" lon="8.6864546"><ele>404.0</ele><time>2026-05-02T10:00:35.633Z</time></trkpt><trkpt lat="36.815683" lon="8.6864726"><ele>404.0</ele><time>2026-05-02T10:00:36.619Z</time></trkpt><trkpt lat="36.815788" lon="8.6865134"><ele>404.0</ele><time>2026-05-02T10:00:37.639Z</time></trkpt><trkpt lat="36.8158784" lon="8.6865869"><ele>404.0</ele><time>2026-05-02T10:00:38.626Z</time></trkpt><trkpt lat="36.815943" lon="8.6866838"><ele>404.0</ele><time>2026-05-02T10:00:39.624Z</time></trkpt><trkpt lat="36.8160133" lon="8.6868086"><ele>404.0</ele><time>2026-05-02T10:00:40.621Z</time></trkpt><trkpt lat="36.8160904" lon="8.6869308"><ele>404.0</ele><time>2026-05-02T10:00:41.62Z</time></trkpt><trkpt lat="36.8161753" lon="8.6870499"><ele>405.0</ele><time>2026-05-02T10:00:42.626Z</time></trkpt><trkpt lat="36.8162637" lon="8.6871738"><ele>406.0</ele><time>2026-05-02T10:00:43.631Z</time></trkpt><trkpt lat="36.8163552" lon="8.6873074"><ele>407.0</ele><time>2026-05-02T10:00:44.625Z</time></trkpt><trkpt lat="36.8164457" lon="8.6874461"><ele>408.0</ele><time>2026-05-02T10:00:45.624Z</time></trkpt><trkpt lat="36.8165374" lon="8.687581"><ele>408.0</ele><time>2026-05-02T10:00:46.624Z</time></trkpt><trkpt lat="36.8166159" lon="8.687716"><ele>408.0</ele><time>2026-05-02T10:00:47.632Z</time></trkpt><trkpt lat="36.8166849" lon="8.6878499"><ele>408.0</ele><time>2026-05-02T10:00:48.629Z</time></trkpt><trkpt lat="36.8167526" lon="8.6879826"><ele>408.0</ele><time>2026-05-02T10:00:49.612Z</time></trkpt><trkpt lat="36.8168083" lon="8.6881106"><ele>409.5</ele><time>2026-05-02T10:00:50.625Z</time></trkpt><trkpt lat="36.8168574" lon="8.6882451"><ele>411.0</ele><time>2026-05-02T10:00:51.617Z</time></trkpt><trkpt lat="36.8168888" lon="8.6883891"><ele>412.5</ele><time>2026-05-02T10:00:52.623Z</time></trkpt><trkpt lat="36.8169029" lon="8.6885465"><ele>414.0</ele><time>2026-05-02T10:00:53.629Z</time></trkpt><trkpt lat="36.8169132" lon="8.6887052"><ele>414.0</ele><time>2026-05-02T10:00:54.61Z</time></trkpt><trkpt lat="36.8169144" lon="8.688858"><ele>414.0</ele><time>2026-05-02T10:00:55.605Z</time></trkpt><trkpt lat="36.816918" lon="8.6890112"><ele>414.0</ele><time>2026-05-02T10:00:56.612Z</time></trkpt><trkpt lat="36.8169194" lon="8.6891526"><ele>414.0</ele><time>2026-05-02T10:00:57.611Z</time></trkpt><trkpt lat="36.81692" lon="8.6892823"><ele>414.0</ele><time>2026-05-02T10:00:58.617Z</time></trkpt><trkpt lat="36.8169206" lon="8.6894056"><ele>414.0</ele><time>2026-05-02T10:00:59.609Z</time></trkpt><trkpt lat="36.8169259" lon="8.6895139"><ele>414.0</ele><time>2026-05-02T10:01:00.613Z</time></trkpt><trkpt lat="36.8169453" lon="8.6896189"><ele>414.0</ele><time>2026-05-02T10:01:01.62Z</time></trkpt><trkpt lat="36.8169723" lon="8.6897173"><ele>414.0</ele><time>2026-05-02T10:01:02.614Z</time></trkpt><trkpt lat="36.8170147" lon="8.6898085"><ele>414.0</ele><time>2026-05-02T10:01:03.624Z</time></trkpt><trkpt lat="36.8170747" lon="8.6898772"><ele>409.0</ele><time>2026-05-02T10:01:04.627Z</time></trkpt><trkpt lat="36.8171565" lon="8.6899426"><ele>404.0</ele><time>2026-05-02T10:01:05.633Z</time></trkpt><trkpt lat="36.8172467" lon="8.6900018"><ele>399.0</ele><time>2026-05-02T10:01:06.617Z</time></trkpt><trkpt lat="36.8173517" lon="8.6900613"><ele>394.0</ele><time>2026-05-02T10:01:07.625Z</time></trkpt><trkpt lat="36.8174593" lon="8.6901239"><ele>389.0</ele><time>2026-05-02T10:01:08.626Z</time></trkpt><trkpt lat="36.8175722" lon="8.6902012"><ele>389.25</ele><time>2026-05-02T10:01:09.611Z</time></trkpt><trkpt lat="36.8176676" lon="8.6902852"><ele>389.5</ele><time>2026-05-02T10:01:10.626Z</time></trkpt><trkpt lat="36.8177631" lon="8.6904"><ele>389.75</ele><time>2026-05-02T10:01:11.636Z</time></trkpt><trkpt lat="36.8178499" lon="8.6905217"><ele>390.0</ele><time>2026-05-02T10:01:12.62Z</time></trkpt><trkpt lat="36.8179236" lon="8.6906512"><ele>390.0</ele><time>2026-05-02T10:01:13.643Z</time></trkpt><trkpt lat="36.8179778" lon="8.6907977"><ele>390.0</ele><time>2026-05-02T10:01:14.615Z</time></trkpt><trkpt lat="36.8180224" lon="8.6909361"><ele>390.0</ele><time>2026-05-02T10:01:15.631Z</time></trkpt><trkpt lat="36.8180594" lon="8.6910698"><ele>390.0</ele><time>2026-05-02T10:01:16.635Z</time></trkpt><trkpt lat="36.8181168" lon="8.6912032"><ele>386.2</ele><time>2026-05-02T10:01:17.625Z</time></trkpt><trkpt lat="36.8181976" lon="8.6913174"><ele>382.4</ele><time>2026-05-02T10:01:18.625Z</time></trkpt><trkpt lat="36.8182965" lon="8.6914045"><ele>378.6</ele><time>2026-05-02T10:01:19.632Z</time></trkpt><trkpt lat="36.8183972" lon="8.691469"><ele>374.8</ele><time>2026-05-02T10:01:20.611Z</time></trkpt><trkpt lat="36.8184829" lon="8.6915101"><ele>371.0</ele><time>2026-05-02T10:01:21.625Z</time></trkpt><trkpt lat="36.8185618" lon="8.6915449"><ele>371.0</ele><time>2026-05-02T10:01:22.639Z</time></trkpt><trkpt lat="36.8186359" lon="8.6915612"><ele>371.0</ele><time>2026-05-02T10:01:23.619Z</time></trkpt><trkpt lat="36.8187088" lon="8.6915794"><ele>371.0</ele><time>2026-05-02T10:01:24.618Z</time></trkpt><trkpt lat="36.8187843" lon="8.6915983"><ele>371.0</ele><time>2026-05-02T10:01:25.627Z</time></trkpt><trkpt lat="36.8188624" lon="8.6916224"><ele>371.0</ele><time>2026-05-02T10:01:26.624Z</time></trkpt><trkpt lat="36.8189403" lon="8.6916494"><ele>371.0</ele><time>2026-05-02T10:01:27.629Z</time></trkpt><trkpt lat="36.8190211" lon="8.6916801"><ele>371.0</ele><time>2026-05-02T10:01:28.615Z</time></trkpt><trkpt lat="36.8191092" lon="8.6917178"><ele>371.0</ele><time>2026-05-02T10:01:29.618Z</time></trkpt><trkpt lat="36.8192001" lon="8.6917622"><ele>371.0</ele><time>2026-05-02T10:01:30.627Z</time></trkpt><trkpt lat="36.8192933" lon="8.6918185"><ele>371.0</ele><time>2026-05-02T10:01:31.621Z</time></trkpt><trkpt lat="36.8193914" lon="8.6919045"><ele>371.0</ele><time>2026-05-02T10:01:32.629Z</time></trkpt><trkpt lat="36.8194848" lon="8.6920048"><ele>367.25</ele><time>2026-05-02T10:01:33.634Z</time></trkpt><trkpt lat="36.8195799" lon="8.6921092"><ele>363.5</ele><time>2026-05-02T10:01:34.626Z</time></trkpt><trkpt lat="36.8196793" lon="8.6922118"><ele>359.75</ele><time>2026-05-02T10:01:35.64Z</time></trkpt><trkpt lat="36.819782" lon="8.6923042"><ele>356.0</ele><time>2026-05-02T10:01:36.623Z</time></trkpt><trkpt lat="36.8198868" lon="8.6923891"><ele>356.0</ele><time>2026-05-02T10:01:37.634Z</time></trkpt><trkpt lat="36.8199972" lon="8.6924532"><ele>356.0</ele><time>2026-05-02T10:01:38.625Z</time></trkpt><trkpt lat="36.8201116" lon="8.6925073"><ele>356.0</ele><time>2026-05-02T10:01:39.622Z</time></trkpt><trkpt lat="36.8202305" lon="8.6925568"><ele>356.0</ele><time>2026-05-02T10:01:40.625Z</time></trkpt><trkpt lat="36.8203515" lon="8.6926006"><ele>357.4</ele><time>2026-05-02T10:01:41.616Z</time></trkpt><trkpt lat="36.8204727" lon="8.6926298"><ele>358.8</ele><time>2026-05-02T10:01:42.623Z</time></trkpt><trkpt lat="36.82059" lon="8.6926437"><ele>360.2</ele><time>2026-05-02T10:01:43.63Z</time></trkpt><trkpt lat="36.8206967" lon="8.6926503"><ele>361.59999999999997</ele><time>2026-05-02T10:01:44.638Z</time></trkpt><trkpt lat="36.820777" lon="8.692666"><ele>363.0</ele><time>2026-05-02T10:01:45.62Z</time></trkpt><trkpt lat="36.8208457" lon="8.6927134"><ele>362.1666666666667</ele><time>2026-05-02T10:01:46.622Z</time></trkpt><trkpt lat="36.8208953" lon="8.692786"><ele>361.3333333333333</ele><time>2026-05-02T10:01:47.627Z</time></trkpt><trkpt lat="36.8209286" lon="8.69288"><ele>360.5</ele><time>2026-05-02T10:01:48.631Z</time></trkpt><trkpt lat="36.8209697" lon="8.6929729"><ele>359.66666666666663</ele><time>2026-05-02T10:01:49.617Z</time></trkpt><trkpt lat="36.8210196" lon="8.6930662"><ele>358.8333333333333</ele><time>2026-05-02T10:01:50.625Z</time></trkpt><trkpt lat="36.8210963" lon="8.6931719"><ele>358.0</ele><time>2026-05-02T10:01:51.622Z</time></trkpt><trkpt lat="36.8211939" lon="8.6932938"><ele>358.0</ele><time>2026-05-02T10:01:52.623Z</time></trkpt><trkpt lat="36.8212987" lon="8.6934146"><ele>358.0</ele><time>2026-05-02T10:01:53.626Z</time></trkpt><trkpt lat="36.8214083" lon="8.6935255"><ele>358.0</ele><time>2026-05-02T10:01:54.623Z</time></trkpt><trkpt lat="36.8215201" lon="8.6936297"><ele>358.0</ele><time>2026-05-02T10:01:55.62Z</time></trkpt><trkpt lat="36.8216223" lon="8.6937369"><ele>356.75</ele><time>2026-05-02T10:01:56.637Z</time></trkpt><trkpt lat="36.8217142" lon="8.6938566"><ele>355.5</ele><time>2026-05-02T10:01:57.63Z</time></trkpt><trkpt lat="36.8217995" lon="8.6939693"><ele>354.25</ele><time>2026-05-02T10:01:58.626Z</time></trkpt><trkpt lat="36.8218856" lon="8.6940858"><ele>353.0</ele><time>2026-05-02T10:01:59.628Z</time></trkpt><trkpt lat="36.8219645" lon="8.6941949"><ele>353.0</ele><time>2026-05-02T10:02:00.641Z</time></trkpt><trkpt lat="36.8220438" lon="8.6943048"><ele>353.0</ele><time>2026-05-02T10:02:01.643Z</time></trkpt><trkpt lat="36.8221344" lon="8.6943927"><ele>353.0</ele><time>2026-05-02T10:02:02.635Z</time></trkpt><trkpt lat="36.8222292" lon="8.6944494"><ele>353.0</ele><time>2026-05-02T10:02:03.631Z</time></trkpt><trkpt lat="36.8223351" lon="8.6944775"><ele>353.0</ele><time>2026-05-02T10:02:04.63Z</time></trkpt><trkpt lat="36.8224357" lon="8.6944627"><ele>353.0</ele><time>2026-05-02T10:02:05.631Z</time></trkpt><trkpt lat="36.8225312" lon="8.6944252"><ele>353.0</ele><time>2026-05-02T10:02:06.647Z</time></trkpt><trkpt lat="36.8226319" lon="8.694406"><ele>353.0</ele><time>2026-05-02T10:02:07.636Z</time></trkpt><trkpt lat="36.8227314" lon="8.6944097"><ele>353.0</ele><time>2026-05-02T10:02:08.625Z</time></trkpt><trkpt lat="36.8228062" lon="8.6944554"><ele>353.0</ele><time>2026-05-02T10:02:09.618Z</time></trkpt><trkpt lat="36.8228673" lon="8.6945226"><ele>352.59999999999997</ele><time>2026-05-02T10:02:10.607Z</time></trkpt><trkpt lat="36.8229095" lon="8.6946178"><ele>352.2</ele><time>2026-05-02T10:02:11.62Z</time></trkpt><trkpt lat="36.8229272" lon="8.6947173"><ele>351.8</ele><time>2026-05-02T10:02:12.617Z</time></trkpt><trkpt lat="36.822924" lon="8.6948336"><ele>351.4</ele><time>2026-05-02T10:02:13.621Z</time></trkpt><trkpt lat="36.8229225" lon="8.6949678"><ele>351.0</ele><time>2026-05-02T10:02:14.621Z</time></trkpt><trkpt lat="36.8229026" lon="8.6950999"><ele>351.0</ele><time>2026-05-02T10:02:15.621Z</time></trkpt><trkpt lat="36.8228755" lon="8.695231"><ele>351.0</ele><time>2026-05-02T10:02:16.625Z</time></trkpt><trkpt lat="36.8228504" lon="8.6953548"><ele>351.0</ele><time>2026-05-02T10:02:17.623Z</time></trkpt><trkpt lat="36.8228334" lon="8.6954651"><ele>351.0</ele><time>2026-05-02T10:02:18.623Z</time></trkpt><trkpt lat="36.8228191" lon="8.6955723"><ele>351.0</ele><time>2026-05-02T10:02:19.62Z</time></trkpt><trkpt lat="36.8228197" lon="8.6956847"><ele>349.8</ele><time>2026-05-02T10:02:20.625Z</time></trkpt><trkpt lat="36.8228531" lon="8.6957884"><ele>348.6</ele><time>2026-05-02T10:02:21.616Z</time></trkpt><trkpt lat="36.8229208" lon="8.6958794"><ele>347.4</ele><time>2026-05-02T10:02:22.621Z</time></trkpt><trkpt lat="36.823013" lon="8.6959704"><ele>346.2</ele><time>2026-05-02T10:02:23.613Z</time></trkpt><trkpt lat="36.8231299" lon="8.6960582"><ele>345.0</ele><time>2026-05-02T10:02:24.627Z</time></trkpt><trkpt lat="36.8232561" lon="8.6961512"><ele>335.0</ele><time>2026-05-02T10:02:25.642Z</time></trkpt><trkpt lat="36.8233841" lon="8.6962391"><ele>325.0</ele><time>2026-05-02T10:02:26.628Z</time></trkpt><trkpt lat="36.8235256" lon="8.6963177"><ele>315.0</ele><time>2026-05-02T10:02:27.617Z</time></trkpt><trkpt lat="36.8236752" lon="8.6963701"><ele>315.0</ele><time>2026-05-02T10:02:28.641Z</time></trkpt><trkpt lat="36.8238336" lon="8.6964078"><ele>315.0</ele><time>2026-05-02T10:02:29.619Z</time></trkpt><trkpt lat="36.8239915" lon="8.6964426"><ele>315.0</ele><time>2026-05-02T10:02:30.621Z</time></trkpt><trkpt lat="36.82414" lon="8.6964917"><ele>315.0</ele><time>2026-05-02T10:02:31.612Z</time></trkpt><trkpt lat="36.8242793" lon="8.6965559"><ele>315.0</ele><time>2026-05-02T10:02:32.609Z</time></trkpt><trkpt lat="36.8244063" lon="8.6966585"><ele>315.0</ele><time>2026-05-02T10:02:33.614Z</time></trkpt><trkpt lat="36.8245184" lon="8.6967749"><ele>315.0</ele><time>2026-05-02T10:02:34.629Z</time></trkpt><trkpt lat="36.8246266" lon="8.69692"><ele>315.5</ele><time>2026-05-02T10:02:35.623Z</time></trkpt><trkpt lat="36.8247243" lon="8.6970473"><ele>316.0</ele><time>2026-05-02T10:02:36.629Z</time></trkpt><trkpt lat="36.8248131" lon="8.6971865"><ele>316.5</ele><time>2026-05-02T10:02:37.629Z</time></trkpt><trkpt lat="36.8248876" lon="8.6973271"><ele>317.0</ele><time>2026-05-02T10:02:38.628Z</time></trkpt><trkpt lat="36.8249591" lon="8.6974705"><ele>317.0</ele><time>2026-05-02T10:02:39.618Z</time></trkpt><trkpt lat="36.8250114" lon="8.6976084"><ele>317.0</ele><time>2026-05-02T10:02:40.623Z</time></trkpt><trkpt lat="36.8250429" lon="8.6977557"><ele>317.0</ele><time>2026-05-02T10:02:41.627Z</time></trkpt><trkpt lat="36.8250466" lon="8.6978968"><ele>317.0</ele><time>2026-05-02T10:02:42.618Z</time></trkpt><trkpt lat="36.8250242" lon="8.6980235"><ele>316.2</ele><time>2026-05-02T10:02:43.617Z</time></trkpt><trkpt lat="36.8249809" lon="8.6981502"><ele>315.4</ele><time>2026-05-02T10:02:44.634Z</time></trkpt><trkpt lat="36.8249117" lon="8.6982623"><ele>314.6</ele><time>2026-05-02T10:02:45.628Z</time></trkpt><trkpt lat="36.824842" lon="8.6983667"><ele>313.8</ele><time>2026-05-02T10:02:46.615Z</time></trkpt><trkpt lat="36.8248096" lon="8.6984785"><ele>313.0</ele><time>2026-05-02T10:02:47.621Z</time></trkpt><trkpt lat="36.824809" lon="8.6986178"><ele>310.25</ele><time>2026-05-02T10:02:48.618Z</time></trkpt><trkpt lat="36.8248268" lon="8.698756"><ele>307.5</ele><time>2026-05-02T10:02:49.619Z</time></trkpt><trkpt lat="36.8248586" lon="8.6988962"><ele>304.75</ele><time>2026-05-02T10:02:50.628Z</time></trkpt><trkpt lat="36.8248907" lon="8.6990476"><ele>302.0</ele><time>2026-05-02T10:02:51.612Z</time></trkpt><trkpt lat="36.8249245" lon="8.6991937"><ele>302.0</ele><time>2026-05-02T10:02:52.634Z</time></trkpt><trkpt lat="36.8249713" lon="8.6993302"><ele>302.0</ele><time>2026-05-02T10:02:53.646Z</time></trkpt><trkpt lat="36.8250474" lon="8.6994476"><ele>302.0</ele><time>2026-05-02T10:02:54.618Z</time></trkpt><trkpt lat="36.8251369" lon="8.6995369"><ele>302.0</ele><time>2026-05-02T10:02:55.621Z</time></trkpt><trkpt lat="36.8252497" lon="8.6996136"><ele>301.75</ele><time>2026-05-02T10:02:56.633Z</time></trkpt><trkpt lat="36.825357" lon="8.6996903"><ele>301.5</ele><time>2026-05-02T10:02:57.62Z</time></trkpt><trkpt lat="36.8254508" lon="8.699778"><ele>301.25</ele><time>2026-05-02T10:02:58.62Z</time></trkpt><trkpt lat="36.8255353" lon="8.6998956"><ele>301.0</ele><time>2026-05-02T10:02:59.627Z</time></trkpt><trkpt lat="36.8255934" lon="8.7000148"><ele>301.0</ele><time>2026-05-02T10:03:00.627Z</time></trkpt><trkpt lat="36.825613" lon="8.7001562"><ele>301.0</ele><time>2026-05-02T10:03:01.63Z</time></trkpt><trkpt lat="36.8256155" lon="8.7003105"><ele>301.0</ele><time>2026-05-02T10:03:02.627Z</time></trkpt><trkpt lat="36.8255881" lon="8.700463"><ele>301.0</ele><time>2026-05-02T10:03:03.623Z</time></trkpt><trkpt lat="36.8255355" lon="8.700586"><ele>299.8</ele><time>2026-05-02T10:03:04.626Z</time></trkpt><trkpt lat="36.8254523" lon="8.7006917"><ele>298.6</ele><time>2026-05-02T10:03:05.62Z</time></trkpt><trkpt lat="36.8253673" lon="8.7007881"><ele>297.4</ele><time>2026-05-02T10:03:06.614Z</time></trkpt><trkpt lat="36.8252967" lon="8.7008962"><ele>296.2</ele><time>2026-05-02T10:03:07.626Z</time></trkpt><trkpt lat="36.8252507" lon="8.7010117"><ele>295.0</ele><time>2026-05-02T10:03:08.621Z</time></trkpt><trkpt lat="36.8252226" lon="8.7011266"><ele>292.6</ele><time>2026-05-02T10:03:09.628Z</time></trkpt><trkpt lat="36.8252141" lon="8.7012279"><ele>290.2</ele><time>2026-05-02T10:03:10.614Z</time></trkpt><trkpt lat="36.8252379" lon="8.7013334"><ele>287.8</ele><time>2026-05-02T10:03:11.614Z</time></trkpt><trkpt lat="36.8252799" lon="8.7014416"><ele>285.4</ele><time>2026-05-02T10:03:12.633Z</time></trkpt><trkpt lat="36.825352" lon="8.7015582"><ele>283.0</ele><time>2026-05-02T10:03:13.625Z</time></trkpt><trkpt lat="36.8254477" lon="8.7016652"><ele>283.0</ele><time>2026-05-02T10:03:14.63Z</time></trkpt><trkpt lat="36.8255709" lon="8.701774"><ele>283.0</ele><time>2026-05-02T10:03:15.626Z</time></trkpt><trkpt lat="36.825692" lon="8.7018781"><ele>283.0</ele><time>2026-05-02T10:03:16.616Z</time></trkpt><trkpt lat="36.8258148" lon="8.7019739"><ele>283.0</ele><time>2026-05-02T10:03:17.623Z</time></trkpt><trkpt lat="36.8259287" lon="8.7020554"><ele>283.0</ele><time>2026-05-02T10:03:18.611Z</time></trkpt><trkpt lat="36.8260261" lon="8.7021256"><ele>283.0</ele><time>2026-05-02T10:03:19.633Z</time></trkpt><trkpt lat="36.8260859" lon="8.7021821"><ele>283.0</ele><time>2026-05-02T10:03:20.616Z</time></trkpt><trkpt lat="36.8261407" lon="8.7022483"><ele>283.0</ele><time>2026-05-02T10:03:21.613Z</time></trkpt><trkpt lat="36.826192" lon="8.7023336"><ele>283.0</ele><time>2026-05-02T10:03:22.612Z</time></trkpt><trkpt lat="36.8262201" lon="8.7024298"><ele>283.0</ele><time>2026-05-02T10:03:23.605Z</time></trkpt><trkpt lat="36.8262348" lon="8.7025484"><ele>283.0</ele><time>2026-05-02T10:03:24.627Z</time></trkpt><trkpt lat="36.8262616" lon="8.7026773"><ele>283.0</ele><time>2026-05-02T10:03:25.625Z</time></trkpt><trkpt lat="36.8263085" lon="8.702797"><ele>283.0</ele><time>2026-05-02T10:03:26.631Z</time></trkpt><trkpt lat="36.8263699" lon="8.7029124"><ele>283.0</ele><time>2026-05-02T10:03:27.626Z</time></trkpt><trkpt lat="36.826445" lon="8.7030116"><ele>283.0</ele><time>2026-05-02T10:03:28.614Z</time></trkpt><trkpt lat="36.8265403" lon="8.7030927"><ele>278.25</ele><time>2026-05-02T10:03:29.631Z</time></trkpt><trkpt lat="36.8266447" lon="8.7031548"><ele>273.5</ele><time>2026-05-02T10:03:30.623Z</time></trkpt><trkpt lat="36.8267579" lon="8.7031955"><ele>268.75</ele><time>2026-05-02T10:03:31.615Z</time></trkpt><trkpt lat="36.8268786" lon="8.7032165"><ele>264.0</ele><time>2026-05-02T10:03:32.628Z</time></trkpt><trkpt lat="36.8270055" lon="8.7032223"><ele>264.0</ele><time>2026-05-02T10:03:33.622Z</time></trkpt><trkpt lat="36.8271357" lon="8.7032287"><ele>264.0</ele><time>2026-05-02T10:03:34.617Z</time></trkpt><trkpt lat="36.8272546" lon="8.7032715"><ele>264.0</ele><time>2026-05-02T10:03:35.62Z</time></trkpt><trkpt lat="36.8273648" lon="8.7033218"><ele>264.0</ele><time>2026-05-02T10:03:36.61Z</time></trkpt><trkpt lat="36.8274727" lon="8.7034293"><ele>264.0</ele><time>2026-05-02T10:03:37.629Z</time></trkpt><trkpt lat="36.8275792" lon="8.7035461"><ele>264.0</ele><time>2026-05-02T10:03:38.605Z</time></trkpt><trkpt lat="36.8276821" lon="8.7036715"><ele>264.0</ele><time>2026-05-02T10:03:39.623Z</time></trkpt><trkpt lat="36.8277905" lon="8.7037854"><ele>264.0</ele><time>2026-05-02T10:03:40.629Z</time></trkpt><trkpt lat="36.827908" lon="8.7038952"><ele>262.0</ele><time>2026-05-02T10:03:41.615Z</time></trkpt><trkpt lat="36.8280291" lon="8.7040087"><ele>260.0</ele><time>2026-05-02T10:03:42.606Z</time></trkpt><trkpt lat="36.82814" lon="8.7041152"><ele>258.0</ele><time>2026-05-02T10:03:43.62Z</time></trkpt><trkpt lat="36.8282407" lon="8.7042189"><ele>256.0</ele><time>2026-05-02T10:03:44.638Z</time></trkpt><trkpt lat="36.8283124" lon="8.7043302"><ele>251.8</ele><time>2026-05-02T10:03:45.624Z</time></trkpt><trkpt lat="36.8283643" lon="8.7044396"><ele>247.60000000000002</ele><time>2026-05-02T10:03:46.618Z</time></trkpt><trkpt lat="36.8284187" lon="8.7045418"><ele>243.4</ele><time>2026-05-02T10:03:47.635Z</time></trkpt><trkpt lat="36.8284773" lon="8.7046111"><ele>239.2</ele><time>2026-05-02T10:03:48.616Z</time></trkpt><trkpt lat="36.8285638" lon="8.704652"><ele>235.0</ele><time>2026-05-02T10:03:49.607Z</time></trkpt><trkpt lat="36.8286693" lon="8.7046577"><ele>235.0</ele><time>2026-05-02T10:03:50.608Z</time></trkpt><trkpt lat="36.8287859" lon="8.7046599"><ele>235.0</ele><time>2026-05-02T10:03:51.618Z</time></trkpt><trkpt lat="36.8289014" lon="8.7046654"><ele>235.0</ele><time>2026-05-02T10:03:52.613Z</time></trkpt><trkpt lat="36.82902" lon="8.7046617"><ele>235.0</ele><time>2026-05-02T10:03:53.617Z</time></trkpt><trkpt lat="36.8291146" lon="8.7046727"><ele>235.0</ele><time>2026-05-02T10:03:54.621Z</time></trkpt><trkpt lat="36.8291906" lon="8.7046942"><ele>235.0</ele><time>2026-05-02T10:03:55.616Z</time></trkpt><trkpt lat="36.8292535" lon="8.7047627"><ele>235.0</ele><time>2026-05-02T10:03:56.62Z</time></trkpt><trkpt lat="36.8293141" lon="8.7048504"><ele>235.0</ele><time>2026-05-02T10:03:57.61Z</time></trkpt><trkpt lat="36.8293856" lon="8.7049344"><ele>235.0</ele><time>2026-05-02T10:03:58.634Z</time></trkpt><trkpt lat="36.8294904" lon="8.7050136"><ele>235.0</ele><time>2026-05-02T10:03:59.638Z</time></trkpt><trkpt lat="36.8296086" lon="8.7050858"><ele>237.0</ele><time>2026-05-02T10:04:00.622Z</time></trkpt><trkpt lat="36.8297354" lon="8.7051572"><ele>239.0</ele><time>2026-05-02T10:04:01.635Z</time></trkpt><trkpt lat="36.8298714" lon="8.7052298"><ele>241.0</ele><time>2026-05-02T10:04:02.612Z</time></trkpt><trkpt lat="36.8300159" lon="8.705285"><ele>243.0</ele><time>2026-05-02T10:04:03.618Z</time></trkpt><trkpt lat="36.8301785" lon="8.7053244"><ele>234.33333333333331</ele><time>2026-05-02T10:04:04.632Z</time></trkpt><trkpt lat="36.8303412" lon="8.7053527"><ele>225.66666666666666</ele><time>2026-05-02T10:04:05.63Z</time></trkpt><trkpt lat="36.8305012" lon="8.7053892"><ele>217.0</ele><time>2026-05-02T10:04:06.617Z</time></trkpt><trkpt lat="36.8306464" lon="8.7054276"><ele>217.0</ele><time>2026-05-02T10:04:07.611Z</time></trkpt><trkpt lat="36.8307734" lon="8.7054818"><ele>217.0</ele><time>2026-05-02T10:04:08.619Z</time></trkpt><trkpt lat="36.8308809" lon="8.7055492"><ele>217.0</ele><time>2026-05-02T10:04:09.626Z</time></trkpt><trkpt lat="36.8309915" lon="8.7056207"><ele>217.0</ele><time>2026-05-02T10:04:10.605Z</time></trkpt><trkpt lat="36.8310802" lon="8.7057298"><ele>216.0</ele><time>2026-05-02T10:04:11.595Z</time></trkpt><trkpt lat="36.8311525" lon="8.7058506"><ele>215.0</ele><time>2026-05-02T10:04:12.599Z</time></trkpt><trkpt lat="36.8312317" lon="8.7059759"><ele>214.0</ele><time>2026-05-02T10:04:13.615Z</time></trkpt><trkpt lat="36.8313098" lon="8.7060822"><ele>213.0</ele><time>2026-05-02T10:04:14.616Z</time></trkpt><trkpt lat="36.8313932" lon="8.7061754"><ele>213.0</ele><time>2026-05-02T10:04:15.619Z</time></trkpt><trkpt lat="36.8314786" lon="8.7062495"><ele>213.0</ele><time>2026-05-02T10:04:16.621Z</time></trkpt><trkpt lat="36.8315803" lon="8.7062934"><ele>213.0</ele><time>2026-05-02T10:04:17.606Z</time></trkpt><trkpt lat="36.8316964" lon="8.7063175"><ele>213.0</ele><time>2026-05-02T10:04:18.616Z</time></trkpt><trkpt lat="36.831823" lon="8.7063267"><ele>213.25</ele><time>2026-05-02T10:04:19.618Z</time></trkpt><trkpt lat="36.8319474" lon="8.7063183"><ele>213.5</ele><time>2026-05-02T10:04:20.616Z</time></trkpt><trkpt lat="36.8320828" lon="8.7063256"><ele>213.75</ele><time>2026-05-02T10:04:21.618Z</time></trkpt><trkpt lat="36.8322266" lon="8.7063236"><ele>214.0</ele><time>2026-05-02T10:04:22.607Z</time></trkpt><trkpt lat="36.8323725" lon="8.7063303"><ele>214.0</ele><time>2026-05-02T10:04:23.629Z</time></trkpt><trkpt lat="36.8325213" lon="8.7063463"><ele>214.0</ele><time>2026-05-02T10:04:24.619Z</time></trkpt><trkpt lat="36.8326612" lon="8.7063746"><ele>214.0</ele><time>2026-05-02T10:04:25.618Z</time></trkpt><trkpt lat="36.8327911" lon="8.7064081"><ele>214.0</ele><time>2026-05-02T10:04:26.621Z</time></trkpt><trkpt lat="36.8329055" lon="8.7064765"><ele>216.25</ele><time>2026-05-02T10:04:27.61Z</time></trkpt><trkpt lat="36.8330062" lon="8.7065597"><ele>218.5</ele><time>2026-05-02T10:04:28.621Z</time></trkpt><trkpt lat="36.8331025" lon="8.706649"><ele>220.75</ele><time>2026-05-02T10:04:29.625Z</time></trkpt><trkpt lat="36.8331939" lon="8.7067304"><ele>223.0</ele><time>2026-05-02T10:04:30.622Z</time></trkpt><trkpt lat="36.8333093" lon="8.7067617"><ele>223.0</ele><time>2026-05-02T10:04:31.622Z</time></trkpt><trkpt lat="36.8334311" lon="8.7067634"><ele>223.0</ele><time>2026-05-02T10:04:32.61Z</time></trkpt><trkpt lat="36.8335534" lon="8.7067485"><ele>223.0</ele><time>2026-05-02T10:04:33.632Z</time></trkpt><trkpt lat="36.8336668" lon="8.7067681"><ele>223.0</ele><time>2026-05-02T10:04:34.625Z</time></trkpt><trkpt lat="36.8337733" lon="8.7068228"><ele>225.0</ele><time>2026-05-02T10:04:35.619Z</time></trkpt><trkpt lat="36.8338743" lon="8.70691"><ele>227.0</ele><time>2026-05-02T10:04:36.636Z</time></trkpt><trkpt lat="36.833948" lon="8.7070364"><ele>229.0</ele><time>2026-05-02T10:04:37.621Z</time></trkpt><trkpt lat="36.8340365" lon="8.7071922"><ele>231.0</ele><time>2026-05-02T10:04:38.638Z</time></trkpt><trkpt lat="36.8341237" lon="8.7073386"><ele>228.0</ele><time>2026-05-02T10:04:39.627Z</time></trkpt><trkpt lat="36.8342149" lon="8.7074772"><ele>225.0</ele><time>2026-05-02T10:04:40.632Z</time></trkpt><trkpt lat="36.8343046" lon="8.7075921"><ele>222.0</ele><time>2026-05-02T10:04:41.599Z</time></trkpt><trkpt lat="36.8344048" lon="8.7076735"><ele>219.0</ele><time>2026-05-02T10:04:42.624Z</time></trkpt><trkpt lat="36.8345266" lon="8.7077019"><ele>219.0</ele><time>2026-05-02T10:04:43.618Z</time></trkpt><trkpt lat="36.8346493" lon="8.7077103"><ele>219.0</ele><time>2026-05-02T10:04:44.62Z</time></trkpt><trkpt lat="36.8347741" lon="8.7077195"><ele>219.0</ele><time>2026-05-02T10:04:45.634Z</time></trkpt><trkpt lat="36.8349108" lon="8.7077144"><ele>219.0</ele><time>2026-05-02T10:04:46.632Z</time></trkpt><trkpt lat="36.8350461" lon="8.7077253"><ele>216.0</ele><time>2026-05-02T10:04:47.634Z</time></trkpt><trkpt lat="36.8351655" lon="8.7077635"><ele>213.0</ele><time>2026-05-02T10:04:48.614Z</time></trkpt><trkpt lat="36.8352699" lon="8.7078516"><ele>210.0</ele><time>2026-05-02T10:04:49.63Z</time></trkpt><trkpt lat="36.8353423" lon="8.7079479"><ele>207.0</ele><time>2026-05-02T10:04:50.641Z</time></trkpt><trkpt lat="36.8354012" lon="8.7080784"><ele>207.0</ele><time>2026-05-02T10:04:51.633Z</time></trkpt><trkpt lat="36.8354412" lon="8.708221"><ele>207.0</ele><time>2026-05-02T10:04:52.633Z</time></trkpt><trkpt lat="36.8354911" lon="8.7083796"><ele>207.0</ele><time>2026-05-02T10:04:53.62Z</time></trkpt><trkpt lat="36.8355611" lon="8.7085179"><ele>207.0</ele><time>2026-05-02T10:04:54.629Z</time></trkpt><trkpt lat="36.8356455" lon="8.7086404"><ele>204.25</ele><time>2026-05-02T10:04:55.617Z</time></trkpt><trkpt lat="36.835736" lon="8.7087357"><ele>201.5</ele><time>2026-05-02T10:04:56.647Z</time></trkpt><trkpt lat="36.8358297" lon="8.7088133"><ele>198.75</ele><time>2026-05-02T10:04:57.634Z</time></trkpt><trkpt lat="36.8359333" lon="8.7088587"><ele>196.0</ele><time>2026-05-02T10:04:58.62Z</time></trkpt><trkpt lat="36.8360517" lon="8.7088553"><ele>194.75</ele><time>2026-05-02T10:04:59.63Z</time></trkpt><trkpt lat="36.8361497" lon="8.7087977"><ele>193.5</ele><time>2026-05-02T10:05:00.606Z</time></trkpt><trkpt lat="36.8362244" lon="8.7087004"><ele>192.25</ele><time>2026-05-02T10:05:01.63Z</time></trkpt><trkpt lat="36.8362994" lon="8.7085873"><ele>191.0</ele><time>2026-05-02T10:05:02.629Z</time></trkpt><trkpt lat="36.8363761" lon="8.7084767"><ele>193.4</ele><time>2026-05-02T10:05:03.625Z</time></trkpt><trkpt lat="36.8364713" lon="8.708418"><ele>195.8</ele><time>2026-05-02T10:05:04.614Z</time></trkpt><trkpt lat="36.8365701" lon="8.7083989"><ele>198.20000000000002</ele><time>2026-05-02T10:05:05.623Z</time></trkpt><trkpt lat="36.8366705" lon="8.7084338"><ele>200.60000000000002</ele><time>2026-05-02T10:05:06.623Z</time></trkpt><trkpt lat="36.8367709" lon="8.7084775"><ele>203.0</ele><time>2026-05-02T10:05:07.62Z</time></trkpt><trkpt lat="36.8368756" lon="8.7085297"><ele>201.0</ele><time>2026-05-02T10:05:08.625Z</time></trkpt><trkpt lat="36.8369878" lon="8.7085834"><ele>199.0</ele><time>2026-05-02T10:05:09.622Z</time></trkpt><trkpt lat="36.8370968" lon="8.7086365"><ele>197.0</ele><time>2026-05-02T10:05:10.625Z</time></trkpt><trkpt lat="36.8371953" lon="8.7087217"><ele>195.0</ele><time>2026-05-02T10:05:11.63Z</time></trkpt><trkpt lat="36.8372732" lon="8.7088289"><ele>195.0</ele><time>2026-05-02T10:05:12.61Z</time></trkpt><trkpt lat="36.8373353" lon="8.7089555"><ele>195.0</ele><time>2026-05-02T10:05:13.624Z</time></trkpt><trkpt lat="36.8373949" lon="8.7090753"><ele>195.0</ele><time>2026-05-02T10:05:14.621Z</time></trkpt><trkpt lat="36.8374621" lon="8.709188"><ele>195.0</ele><time>2026-05-02T10:05:15.643Z</time></trkpt><trkpt lat="36.8375466" lon="8.7092948"><ele>195.0</ele><time>2026-05-02T10:05:16.62Z</time></trkpt><trkpt lat="36.837634" lon="8.7093899"><ele>195.0</ele><time>2026-05-02T10:05:17.609Z</time></trkpt><trkpt lat="36.837723" lon="8.709454"><ele>195.0</ele><time>2026-05-02T10:05:18.618Z</time></trkpt><trkpt lat="36.8378174" lon="8.7094929"><ele>195.0</ele><time>2026-05-02T10:05:19.647Z</time></trkpt><trkpt lat="36.8379168" lon="8.7095047"><ele>195.0</ele><time>2026-05-02T10:05:20.6Z</time></trkpt><trkpt lat="36.8380218" lon="8.7094866"><ele>195.6</ele><time>2026-05-02T10:05:21.607Z</time></trkpt><trkpt lat="36.8381067" lon="8.7094519"><ele>196.2</ele><time>2026-05-02T10:05:22.611Z</time></trkpt><trkpt lat="36.8381894" lon="8.7094005"><ele>196.8</ele><time>2026-05-02T10:05:23.622Z</time></trkpt><trkpt lat="36.838262" lon="8.7093286"><ele>197.4</ele><time>2026-05-02T10:05:24.619Z</time></trkpt><trkpt lat="36.8383332" lon="8.7092613"><ele>198.0</ele><time>2026-05-02T10:05:25.619Z</time></trkpt><trkpt lat="36.8384152" lon="8.7092056"><ele>198.2</ele><time>2026-05-02T10:05:26.609Z</time></trkpt><trkpt lat="36.8385093" lon="8.7091578"><ele>198.4</ele><time>2026-05-02T10:05:27.628Z</time></trkpt><trkpt lat="36.8386114" lon="8.7091322"><ele>198.6</ele><time>2026-05-02T10:05:28.618Z</time></trkpt><trkpt lat="36.8387257" lon="8.7091478"><ele>198.79999999999998</ele><time>2026-05-02T10:05:29.631Z</time></trkpt><trkpt lat="36.8388428" lon="8.7091908"><ele>199.0</ele><time>2026-05-02T10:05:30.617Z</time></trkpt><trkpt lat="36.8389562" lon="8.7092442"><ele>199.0</ele><time>2026-05-02T10:05:31.618Z</time></trkpt><trkpt lat="36.8390544" lon="8.7093026"><ele>199.0</ele><time>2026-05-02T10:05:32.624Z</time></trkpt><trkpt lat="36.8391496" lon="8.7093908"><ele>199.0</ele><time>2026-05-02T10:05:33.631Z</time></trkpt><trkpt lat="36.8392348" lon="8.7094892"><ele>199.0</ele><time>2026-05-02T10:05:34.612Z</time></trkpt><trkpt lat="36.83933" lon="8.7095828"><ele>196.2</ele><time>2026-05-02T10:05:35.633Z</time></trkpt><trkpt lat="36.8394261" lon="8.7096655"><ele>193.39999999999998</ele><time>2026-05-02T10:05:36.633Z</time></trkpt><trkpt lat="36.8395264" lon="8.7097108"><ele>190.6</ele><time>2026-05-02T10:05:37.616Z</time></trkpt><trkpt lat="36.839619" lon="8.7097246"><ele>187.8</ele><time>2026-05-02T10:05:38.627Z</time></trkpt><trkpt lat="36.8397026" lon="8.7097262"><ele>185.0</ele><time>2026-05-02T10:05:39.621Z</time></trkpt><trkpt lat="36.8397855" lon="8.7097356"><ele>185.0</ele><time>2026-05-02T10:05:40.625Z</time></trkpt><trkpt lat="36.8398669" lon="8.7097584"><ele>185.0</ele><time>2026-05-02T10:05:41.637Z</time></trkpt><trkpt lat="36.839939" lon="8.7097891"><ele>185.0</ele><time>2026-05-02T10:05:42.632Z</time></trkpt><trkpt lat="36.8400085" lon="8.7098363"><ele>185.0</ele><time>2026-05-02T10:05:43.614Z</time></trkpt><trkpt lat="36.8400749" lon="8.7098963"><ele>185.0</ele><time>2026-05-02T10:05:44.617Z</time></trkpt><trkpt lat="36.8401338" lon="8.709973"><ele>185.0</ele><time>2026-05-02T10:05:45.631Z</time></trkpt><trkpt lat="36.8401853" lon="8.7100649"><ele>186.2</ele><time>2026-05-02T10:05:46.62Z</time></trkpt><trkpt lat="36.8402155" lon="8.7101764"><ele>187.4</ele><time>2026-05-02T10:05:47.621Z</time></trkpt><trkpt lat="36.8402168" lon="8.7102916"><ele>188.60000000000002</ele><time>2026-05-02T10:05:48.621Z</time></trkpt><trkpt lat="36.840206" lon="8.7104103"><ele>189.8</ele><time>2026-05-02T10:05:49.617Z</time></trkpt><trkpt lat="36.8401767" lon="8.7105191"><ele>191.0</ele><time>2026-05-02T10:05:50.635Z</time></trkpt><trkpt lat="36.8401514" lon="8.7106334"><ele>191.0</ele><time>2026-05-02T10:05:51.611Z</time></trkpt><trkpt lat="36.8401423" lon="8.710741"><ele>191.0</ele><time>2026-05-02T10:05:52.613Z</time></trkpt><trkpt lat="36.8401912" lon="8.7108556"><ele>191.0</ele><time>2026-05-02T10:05:53.638Z</time></trkpt><trkpt lat="36.8402634" lon="8.7109546"><ele>191.0</ele><time>2026-05-02T10:05:54.619Z</time></trkpt><trkpt lat="36.8403534" lon="8.7110497"><ele>191.0</ele><time>2026-05-02T10:05:55.617Z</time></trkpt><trkpt lat="36.840455" lon="8.7111663"><ele>185.5</ele><time>2026-05-02T10:05:56.622Z</time></trkpt><trkpt lat="36.8405749" lon="8.7112805"><ele>180.0</ele><time>2026-05-02T10:05:57.624Z</time></trkpt><trkpt lat="36.8406852" lon="8.7114024"><ele>174.5</ele><time>2026-05-02T10:05:58.622Z</time></trkpt><trkpt lat="36.8407987" lon="8.7115202"><ele>169.0</ele><time>2026-05-02T10:05:59.64Z</time></trkpt><trkpt lat="36.8409054" lon="8.7116326"><ele>172.66666666666669</ele><time>2026-05-02T10:06:00.636Z</time></trkpt><trkpt lat="36.8410151" lon="8.7117276"><ele>176.33333333333334</ele><time>2026-05-02T10:06:01.617Z</time></trkpt><trkpt lat="36.8411473" lon="8.7118056"><ele>180.0</ele><time>2026-05-02T10:06:02.617Z</time></trkpt><trkpt lat="36.841313" lon="8.7118686"><ele>173.66666666666666</ele><time>2026-05-02T10:06:03.618Z</time></trkpt><trkpt lat="36.8415126" lon="8.7119489"><ele>167.33333333333331</ele><time>2026-05-02T10:06:04.632Z</time></trkpt><trkpt lat="36.8417234" lon="8.712045"><ele>161.0</ele><time>2026-05-02T10:06:05.617Z</time></trkpt><trkpt lat="36.8419315" lon="8.7121381"><ele>161.0</ele><time>2026-05-02T10:06:06.633Z</time></trkpt><trkpt lat="36.8421386" lon="8.7122297"><ele>161.0</ele><time>2026-05-02T10:06:07.615Z</time></trkpt><trkpt lat="36.8423372" lon="8.7123145"><ele>161.0</ele><time>2026-05-02T10:06:08.635Z</time></trkpt><trkpt lat="36.8425192" lon="8.7123988"><ele>166.0</ele><time>2026-05-02T10:06:09.636Z</time></trkpt><trkpt lat="36.8426798" lon="8.7124682"><ele>171.0</ele><time>2026-05-02T10:06:10.622Z</time></trkpt><trkpt lat="36.8428276" lon="8.7125403"><ele>176.0</ele><time>2026-05-02T10:06:11.614Z</time></trkpt><trkpt lat="36.8429592" lon="8.71263"><ele>176.0</ele><time>2026-05-02T10:06:12.622Z</time></trkpt><trkpt lat="36.8430865" lon="8.7127357"><ele>176.0</ele><time>2026-05-02T10:06:13.608Z</time></trkpt><trkpt lat="36.8432167" lon="8.7128538"><ele>176.0</ele><time>2026-05-02T10:06:14.632Z</time></trkpt><trkpt lat="36.8433487" lon="8.7129726"><ele>172.0</ele><time>2026-05-02T10:06:15.614Z</time></trkpt><trkpt lat="36.843478" lon="8.7130873"><ele>168.0</ele><time>2026-05-02T10:06:16.621Z</time></trkpt><trkpt lat="36.843605" lon="8.7131924"><ele>164.0</ele><time>2026-05-02T10:06:17.633Z</time></trkpt><trkpt lat="36.8437216" lon="8.7132934"><ele>164.0</ele><time>2026-05-02T10:06:18.624Z</time></trkpt><trkpt lat="36.8438203" lon="8.7133977"><ele>164.0</ele><time>2026-05-02T10:06:19.628Z</time></trkpt><trkpt lat="36.8439107" lon="8.7135034"><ele>164.0</ele><time>2026-05-02T10:06:20.625Z</time></trkpt><trkpt lat="36.8439829" lon="8.7136071"><ele>164.0</ele><time>2026-05-02T10:06:21.616Z</time></trkpt><trkpt lat="36.844055" lon="8.713689"><ele>160.79999999999998</ele><time>2026-05-02T10:06:22.627Z</time></trkpt><trkpt lat="36.8441347" lon="8.7137451"><ele>157.6</ele><time>2026-05-02T10:06:23.623Z</time></trkpt><trkpt lat="36.8442231" lon="8.7137695"><ele>154.4</ele><time>2026-05-02T10:06:24.622Z</time></trkpt><trkpt lat="36.8443181" lon="8.7137576"><ele>151.2</ele><time>2026-05-02T10:06:25.624Z</time></trkpt><trkpt lat="36.8444206" lon="8.7137205"><ele>148.0</ele><time>2026-05-02T10:06:26.611Z</time></trkpt><trkpt lat="36.8445164" lon="8.7136821"><ele>148.0</ele><time>2026-05-02T10:06:27.632Z</time></trkpt><trkpt lat="36.844615" lon="8.713678"><ele>148.0</ele><time>2026-05-02T10:06:28.61Z</time></trkpt><trkpt lat="36.8447178" lon="8.7137071"><ele>148.0</ele><time>2026-05-02T10:06:29.63Z</time></trkpt><trkpt lat="36.844815" lon="8.713765"><ele>148.0</ele><time>2026-05-02T10:06:30.623Z</time></trkpt><trkpt lat="36.8449076" lon="8.7138386"><ele>148.0</ele><time>2026-05-02T10:06:31.62Z</time></trkpt><trkpt lat="36.8449865" lon="8.7139183"><ele>148.0</ele><time>2026-05-02T10:06:32.615Z</time></trkpt><trkpt lat="36.8450938" lon="8.7139811"><ele>148.0</ele><time>2026-05-02T10:06:33.63Z</time></trkpt><trkpt lat="36.8452224" lon="8.7140319"><ele>148.0</ele><time>2026-05-02T10:06:34.623Z</time></trkpt><trkpt lat="36.8453853" lon="8.7140926"><ele>148.0</ele><time>2026-05-02T10:06:35.635Z</time></trkpt><trkpt lat="36.8455703" lon="8.7141606"><ele>149.66666666666669</ele><time>2026-05-02T10:06:36.613Z</time></trkpt><trkpt lat="36.8457543" lon="8.7142267"><ele>151.33333333333334</ele><time>2026-05-02T10:06:37.619Z</time></trkpt><trkpt lat="36.8459255" lon="8.7143033"><ele>153.0</ele><time>2026-05-02T10:06:38.627Z</time></trkpt><trkpt lat="36.8460986" lon="8.7143507"><ele>153.0</ele><time>2026-05-02T10:06:39.63Z</time></trkpt><trkpt lat="36.8463056" lon="8.7143612"><ele>153.0</ele><time>2026-05-02T10:06:40.619Z</time></trkpt><trkpt lat="36.846513" lon="8.7143555"><ele>153.0</ele><time>2026-05-02T10:06:41.619Z</time></trkpt><trkpt lat="36.8467005" lon="8.7143607"><ele>154.0</ele><time>2026-05-02T10:06:42.618Z</time></trkpt><trkpt lat="36.846887" lon="8.714367"><ele>155.0</ele><time>2026-05-02T10:06:43.633Z</time></trkpt><trkpt lat="36.8470453" lon="8.7143754"><ele>156.0</ele><time>2026-05-02T10:06:44.62Z</time></trkpt><trkpt lat="36.8471835" lon="8.7143922"><ele>152.25</ele><time>2026-05-02T10:06:45.625Z</time></trkpt><trkpt lat="36.8473032" lon="8.7144199"><ele>148.5</ele><time>2026-05-02T10:06:46.611Z</time></trkpt><trkpt lat="36.8474079" lon="8.7144797"><ele>144.75</ele><time>2026-05-02T10:06:47.62Z</time></trkpt><trkpt lat="36.8474907" lon="8.7145729"><ele>141.0</ele><time>2026-05-02T10:06:48.637Z</time></trkpt><trkpt lat="36.8475542" lon="8.7147122"><ele>141.0</ele><time>2026-05-02T10:06:49.621Z</time></trkpt><trkpt lat="36.8475757" lon="8.7148946"><ele>141.0</ele><time>2026-05-02T10:06:50.626Z</time></trkpt><trkpt lat="36.8476021" lon="8.7150879"><ele>141.0</ele><time>2026-05-02T10:06:51.607Z</time></trkpt><trkpt lat="36.8476313" lon="8.715279"><ele>141.0</ele><time>2026-05-02T10:06:52.637Z</time></trkpt><trkpt lat="36.8476581" lon="8.7154616"><ele>141.0</ele><time>2026-05-02T10:06:53.63Z</time></trkpt><trkpt lat="36.847692" lon="8.7156291"><ele>141.0</ele><time>2026-05-02T10:06:54.614Z</time></trkpt><trkpt lat="36.8477432" lon="8.7157928"><ele>141.0</ele><time>2026-05-02T10:06:55.62Z</time></trkpt><trkpt lat="36.8478189" lon="8.7159417"><ele>137.75</ele><time>2026-05-02T10:06:56.626Z</time></trkpt><trkpt lat="36.8479227" lon="8.7160746"><ele>134.5</ele><time>2026-05-02T10:06:57.609Z</time></trkpt><trkpt lat="36.8480199" lon="8.7162076"><ele>131.25</ele><time>2026-05-02T10:06:58.62Z</time></trkpt><trkpt lat="36.8480952" lon="8.7163391"><ele>128.0</ele><time>2026-05-02T10:06:59.623Z</time></trkpt><trkpt lat="36.8481367" lon="8.7164859"><ele>128.0</ele><time>2026-05-02T10:07:00.629Z</time></trkpt><trkpt lat="36.8481644" lon="8.7166372"><ele>128.0</ele><time>2026-05-02T10:07:01.606Z</time></trkpt><trkpt lat="36.8482145" lon="8.7167729"><ele>128.0</ele><time>2026-05-02T10:07:02.61Z</time></trkpt><trkpt lat="36.8483071" lon="8.7168835"><ele>128.0</ele><time>2026-05-02T10:07:03.615Z</time></trkpt><trkpt lat="36.8484366" lon="8.7169739"><ele>126.0</ele><time>2026-05-02T10:07:04.618Z</time></trkpt><trkpt lat="36.8485817" lon="8.7170423"><ele>124.0</ele><time>2026-05-02T10:07:05.62Z</time></trkpt><trkpt lat="36.8487262" lon="8.7171159"><ele>122.0</ele><time>2026-05-02T10:07:06.62Z</time></trkpt><trkpt lat="36.8488578" lon="8.7172165"><ele>122.0</ele><time>2026-05-02T10:07:07.62Z</time></trkpt><trkpt lat="36.8489999" lon="8.7173304"><ele>122.0</ele><time>2026-05-02T10:07:08.622Z</time></trkpt><trkpt lat="36.8491391" lon="8.7174767"><ele>122.0</ele><time>2026-05-02T10:07:09.633Z</time></trkpt><trkpt lat="36.8492561" lon="8.7176432"><ele>118.66666666666666</ele><time>2026-05-02T10:07:10.633Z</time></trkpt><trkpt lat="36.8493673" lon="8.7178084"><ele>115.33333333333334</ele><time>2026-05-02T10:07:11.622Z</time></trkpt><trkpt lat="36.8494835" lon="8.7179471"><ele>112.0</ele><time>2026-05-02T10:07:12.636Z</time></trkpt><trkpt lat="36.8495999" lon="8.7180797"><ele>112.0</ele><time>2026-05-02T10:07:13.626Z</time></trkpt><trkpt lat="36.8497339" lon="8.7181755"><ele>112.0</ele><time>2026-05-02T10:07:14.623Z</time></trkpt><trkpt lat="36.8498754" lon="8.7182474"><ele>112.0</ele><time>2026-05-02T10:07:15.639Z</time></trkpt><trkpt lat="36.850037" lon="8.7183158"><ele>114.0</ele><time>2026-05-02T10:07:16.633Z</time></trkpt><trkpt lat="36.850198" lon="8.7183757"><ele>116.0</ele><time>2026-05-02T10:07:17.646Z</time></trkpt><trkpt lat="36.8503511" lon="8.7184366"><ele>118.0</ele><time>2026-05-02T10:07:18.632Z</time></trkpt><trkpt lat="36.8504965" lon="8.7184889"><ele>118.0</ele><time>2026-05-02T10:07:19.631Z</time></trkpt><trkpt lat="36.8506371" lon="8.7185452"><ele>118.0</ele><time>2026-05-02T10:07:20.62Z</time></trkpt><trkpt lat="36.8507683" lon="8.718596"><ele>118.0</ele><time>2026-05-02T10:07:21.622Z</time></trkpt><trkpt lat="36.8508887" lon="8.7186695"><ele>118.0</ele><time>2026-05-02T10:07:22.625Z</time></trkpt><trkpt lat="36.8510008" lon="8.7187533"><ele>113.75</ele><time>2026-05-02T10:07:23.623Z</time></trkpt><trkpt lat="36.8511099" lon="8.7188422"><ele>109.5</ele><time>2026-05-02T10:07:24.631Z</time></trkpt><trkpt lat="36.8512234" lon="8.7189229"><ele>105.25</ele><time>2026-05-02T10:07:25.621Z</time></trkpt><trkpt lat="36.8513313" lon="8.7189848"><ele>101.0</ele><time>2026-05-02T10:07:26.622Z</time></trkpt><trkpt lat="36.8514499" lon="8.7190259"><ele>101.0</ele><time>2026-05-02T10:07:27.62Z</time></trkpt><trkpt lat="36.8515845" lon="8.7190381"><ele>101.0</ele><time>2026-05-02T10:07:28.628Z</time></trkpt><trkpt lat="36.8517252" lon="8.7190376"><ele>101.0</ele><time>2026-05-02T10:07:29.648Z</time></trkpt><trkpt lat="36.8518652" lon="8.7190226"><ele>101.0</ele><time>2026-05-02T10:07:30.622Z</time></trkpt><trkpt lat="36.8520076" lon="8.7190192"><ele>99.5</ele><time>2026-05-02T10:07:31.637Z</time></trkpt><trkpt lat="36.852148" lon="8.7190143"><ele>98.0</ele><time>2026-05-02T10:07:32.632Z</time></trkpt><trkpt lat="36.8522786" lon="8.7190222"><ele>96.5</ele><time>2026-05-02T10:07:33.632Z</time></trkpt><trkpt lat="36.8524017" lon="8.7190599"><ele>95.0</ele><time>2026-05-02T10:07:34.618Z</time></trkpt><trkpt lat="36.8525277" lon="8.7191179"><ele>94.5</ele><time>2026-05-02T10:07:35.633Z</time></trkpt><trkpt lat="36.8526412" lon="8.7191734"><ele>94.0</ele><time>2026-05-02T10:07:36.628Z</time></trkpt><trkpt lat="36.8527593" lon="8.7192291"><ele>93.5</ele><time>2026-05-02T10:07:37.624Z</time></trkpt><trkpt lat="36.8528715" lon="8.7192773"><ele>93.0</ele><time>2026-05-02T10:07:38.617Z</time></trkpt><trkpt lat="36.8529758" lon="8.7193119"><ele>93.0</ele><time>2026-05-02T10:07:39.634Z</time></trkpt><trkpt lat="36.8530839" lon="8.7193185"><ele>93.0</ele><time>2026-05-02T10:07:40.613Z</time></trkpt><trkpt lat="36.8531894" lon="8.7192947"><ele>93.0</ele><time>2026-05-02T10:07:41.617Z</time></trkpt><trkpt lat="36.8533004" lon="8.7192588"><ele>93.0</ele><time>2026-05-02T10:07:42.634Z</time></trkpt><trkpt lat="36.8534138" lon="8.7192045"><ele>91.75</ele><time>2026-05-02T10:07:43.622Z</time></trkpt><trkpt lat="36.8535258" lon="8.7191356"><ele>90.5</ele><time>2026-05-02T10:07:44.624Z</time></trkpt><trkpt lat="36.8536345" lon="8.7190755"><ele>89.25</ele><time>2026-05-02T10:07:45.609Z</time></trkpt><trkpt lat="36.853746" lon="8.7190177"><ele>88.0</ele><time>2026-05-02T10:07:46.616Z</time></trkpt><trkpt lat="36.8538534" lon="8.7189703"><ele>88.0</ele><time>2026-05-02T10:07:47.637Z</time></trkpt><trkpt lat="36.8539634" lon="8.7189351"><ele>88.0</ele><time>2026-05-02T10:07:48.609Z</time></trkpt><trkpt lat="36.8540778" lon="8.7189112"><ele>88.0</ele><time>2026-05-02T10:07:49.616Z</time></trkpt><trkpt lat="36.8541913" lon="8.7188888"><ele>88.0</ele><time>2026-05-02T10:07:50.636Z</time></trkpt><trkpt lat="36.8543031" lon="8.7188817"><ele>88.25</ele><time>2026-05-02T10:07:51.629Z</time></trkpt><trkpt lat="36.8544199" lon="8.7188856"><ele>88.5</ele><time>2026-05-02T10:07:52.607Z</time></trkpt><trkpt lat="36.8545377" lon="8.7188817"><ele>88.75</ele><time>2026-05-02T10:07:53.63Z</time></trkpt><trkpt lat="36.8546478" lon="8.718882"><ele>89.0</ele><time>2026-05-02T10:07:54.624Z</time></trkpt><trkpt lat="36.8547632" lon="8.7188864"><ele>89.0</ele><time>2026-05-02T10:07:55.638Z</time></trkpt><trkpt lat="36.854878" lon="8.7188962"><ele>89.0</ele><time>2026-05-02T10:07:56.646Z</time></trkpt><trkpt lat="36.8549943" lon="8.7189044"><ele>89.0</ele><time>2026-05-02T10:07:57.641Z</time></trkpt><trkpt lat="36.8551122" lon="8.7189265"><ele>89.0</ele><time>2026-05-02T10:07:58.619Z</time></trkpt><trkpt lat="36.8552297" lon="8.7189511"><ele>89.5</ele><time>2026-05-02T10:07:59.638Z</time></trkpt><trkpt lat="36.8553488" lon="8.7189698"><ele>90.0</ele><time>2026-05-02T10:08:00.626Z</time></trkpt><trkpt lat="36.855471" lon="8.7189829"><ele>90.5</ele><time>2026-05-02T10:08:01.63Z</time></trkpt><trkpt lat="36.8555916" lon="8.7189877"><ele>91.0</ele><time>2026-05-02T10:08:02.616Z</time></trkpt><trkpt lat="36.8557142" lon="8.71899"><ele>91.0</ele><time>2026-05-02T10:08:03.635Z</time></trkpt><trkpt lat="36.8558431" lon="8.718984"><ele>91.0</ele><time>2026-05-02T10:08:04.622Z</time></trkpt><trkpt lat="36.8559728" lon="8.7189838"><ele>91.0</ele><time>2026-05-02T10:08:05.62Z</time></trkpt><trkpt lat="36.8561004" lon="8.7189775"><ele>91.0</ele><time>2026-05-02T10:08:06.65Z</time></trkpt><trkpt lat="36.856228" lon="8.7189618"><ele>90.75</ele><time>2026-05-02T10:08:07.639Z</time></trkpt><trkpt lat="36.8563586" lon="8.7189449"><ele>90.5</ele><time>2026-05-02T10:08:08.656Z</time></trkpt><trkpt lat="36.8564857" lon="8.7189224"><ele>90.25</ele><time>2026-05-02T10:08:09.62Z</time></trkpt><trkpt lat="36.8566077" lon="8.7188937"><ele>90.0</ele><time>2026-05-02T10:08:10.618Z</time></trkpt><trkpt lat="36.8567345" lon="8.71886"><ele>90.5</ele><time>2026-05-02T10:08:11.617Z</time></trkpt><trkpt lat="36.8568597" lon="8.7188124"><ele>91.0</ele><time>2026-05-02T10:08:12.599Z</time></trkpt><trkpt lat="36.8569887" lon="8.7187682"><ele>91.5</ele><time>2026-05-02T10:08:13.616Z</time></trkpt><trkpt lat="36.8571127" lon="8.7187208"><ele>92.0</ele><time>2026-05-02T10:08:14.614Z</time></trkpt><trkpt lat="36.8572353" lon="8.7186712"><ele>92.0</ele><time>2026-05-02T10:08:15.639Z</time></trkpt><trkpt lat="36.8573552" lon="8.7186222"><ele>92.0</ele><time>2026-05-02T10:08:16.613Z</time></trkpt><trkpt lat="36.8574714" lon="8.7185757"><ele>92.0</ele><time>2026-05-02T10:08:17.624Z</time></trkpt><trkpt lat="36.8575926" lon="8.7185333"><ele>92.0</ele><time>2026-05-02T10:08:18.625Z</time></trkpt><trkpt lat="36.8577082" lon="8.7184901"><ele>96.33333333333334</ele><time>2026-05-02T10:08:19.637Z</time></trkpt><trkpt lat="36.8578203" lon="8.718443"><ele>100.66666666666667</ele><time>2026-05-02T10:08:20.61Z</time></trkpt><trkpt lat="36.8579378" lon="8.718387"><ele>105.0</ele><time>2026-05-02T10:08:21.614Z</time></trkpt><trkpt lat="36.8581778" lon="8.7182894"><ele>103.0</ele><time>2026-05-02T10:08:23.629Z</time></trkpt><trkpt lat="36.8586848" lon="8.7180208"><ele>103.0</ele><time>2026-05-02T10:08:27.652Z</time></trkpt><trkpt lat="36.8590736" lon="8.717794"><ele>103.0</ele><time>2026-05-02T10:08:30.602Z</time></trkpt><trkpt lat="36.8592064" lon="8.7177078"><ele>109.33333333333334</ele><time>2026-05-02T10:08:31.618Z</time></trkpt><trkpt lat="36.8593458" lon="8.7176244"><ele>115.66666666666666</ele><time>2026-05-02T10:08:32.634Z</time></trkpt><trkpt lat="36.8594875" lon="8.7175511"><ele>122.0</ele><time>2026-05-02T10:08:33.605Z</time></trkpt><trkpt lat="36.8596386" lon="8.7174855"><ele>122.0</ele><time>2026-05-02T10:08:34.599Z</time></trkpt><trkpt lat="36.8597926" lon="8.7174258"><ele>122.0</ele><time>2026-05-02T10:08:35.611Z</time></trkpt><trkpt lat="36.8599454" lon="8.7173769"><ele>122.0</ele><time>2026-05-02T10:08:36.61Z</time></trkpt><trkpt lat="36.8600972" lon="8.7173375"><ele>124.66666666666666</ele><time>2026-05-02T10:08:37.633Z</time></trkpt><trkpt lat="36.8602493" lon="8.7173038"><ele>127.33333333333334</ele><time>2026-05-02T10:08:38.614Z</time></trkpt><trkpt lat="36.8604069" lon="8.7172743"><ele>130.0</ele><time>2026-05-02T10:08:39.593Z</time></trkpt><trkpt lat="36.8605741" lon="8.7172561"><ele>130.0</ele><time>2026-05-02T10:08:40.609Z</time></trkpt><trkpt lat="36.8607433" lon="8.7172422"><ele>130.0</ele><time>2026-05-02T10:08:41.608Z</time></trkpt><trkpt lat="36.8609115" lon="8.7172421"><ele>130.0</ele><time>2026-05-02T10:08:42.615Z</time></trkpt><trkpt lat="36.8610821" lon="8.717251"><ele>132.66666666666669</ele><time>2026-05-02T10:08:43.626Z</time></trkpt><trkpt lat="36.8612599" lon="8.7172621"><ele>135.33333333333334</ele><time>2026-05-02T10:08:44.614Z</time></trkpt><trkpt lat="36.8614288" lon="8.71728"><ele>138.0</ele><time>2026-05-02T10:08:45.615Z</time></trkpt><trkpt lat="36.8615909" lon="8.7173082"><ele>138.0</ele><time>2026-05-02T10:08:46.625Z</time></trkpt><trkpt lat="36.8617488" lon="8.717351"><ele>138.0</ele><time>2026-05-02T10:08:47.615Z</time></trkpt><trkpt lat="36.8619009" lon="8.7173948"><ele>138.0</ele><time>2026-05-02T10:08:48.618Z</time></trkpt><trkpt lat="36.8620455" lon="8.7174409"><ele>142.0</ele><time>2026-05-02T10:08:49.621Z</time></trkpt><trkpt lat="36.8621851" lon="8.7174949"><ele>146.0</ele><time>2026-05-02T10:08:50.629Z</time></trkpt><trkpt lat="36.86232" lon="8.717552"><ele>150.0</ele><time>2026-05-02T10:08:51.602Z</time></trkpt><trkpt lat="36.8624501" lon="8.7176019"><ele>154.0</ele><time>2026-05-02T10:08:52.629Z</time></trkpt><trkpt lat="36.8625824" lon="8.7176475"><ele>156.25</ele><time>2026-05-02T10:08:53.618Z</time></trkpt><trkpt lat="36.8627129" lon="8.7176816"><ele>158.5</ele><time>2026-05-02T10:08:54.619Z</time></trkpt><trkpt lat="36.8628298" lon="8.7177108"><ele>160.75</ele><time>2026-05-02T10:08:55.624Z</time></trkpt><trkpt lat="36.8629404" lon="8.7177353"><ele>163.0</ele><time>2026-05-02T10:08:56.61Z</time></trkpt><trkpt lat="36.86304" lon="8.7177499"><ele>157.4</ele><time>2026-05-02T10:08:57.602Z</time></trkpt><trkpt lat="36.863136" lon="8.7177612"><ele>151.8</ele><time>2026-05-02T10:08:58.614Z</time></trkpt><trkpt lat="36.8632366" lon="8.7177687"><ele>146.2</ele><time>2026-05-02T10:08:59.612Z</time></trkpt><trkpt lat="36.8633428" lon="8.7177768"><ele>140.6</ele><time>2026-05-02T10:09:00.62Z</time></trkpt><trkpt lat="36.8634485" lon="8.7177839"><ele>135.0</ele><time>2026-05-02T10:09:01.623Z</time></trkpt><trkpt lat="36.8635582" lon="8.7177861"><ele>135.0</ele><time>2026-05-02T10:09:02.62Z</time></trkpt><trkpt lat="36.8636746" lon="8.7177922"><ele>135.0</ele><time>2026-05-02T10:09:03.62Z</time></trkpt><trkpt lat="36.8637901" lon="8.7177954"><ele>135.0</ele><time>2026-05-02T10:09:04.626Z</time></trkpt><trkpt lat="36.8639057" lon="8.7177996"><ele>135.0</ele><time>2026-05-02T10:09:05.624Z</time></trkpt><trkpt lat="36.8640161" lon="8.7177868"><ele>135.0</ele><time>2026-05-02T10:09:06.63Z</time></trkpt><trkpt lat="36.8641279" lon="8.7177659"><ele>135.0</ele><time>2026-05-02T10:09:07.62Z</time></trkpt><trkpt lat="36.8642306" lon="8.7177257"><ele>135.0</ele><time>2026-05-02T10:09:08.629Z</time></trkpt><trkpt lat="36.8643239" lon="8.7176655"><ele>135.0</ele><time>2026-05-02T10:09:09.612Z</time></trkpt><trkpt lat="36.864408" lon="8.7175843"><ele>135.0</ele><time>2026-05-02T10:09:10.626Z</time></trkpt><trkpt lat="36.8644694" lon="8.717468"><ele>136.8</ele><time>2026-05-02T10:09:11.633Z</time></trkpt><trkpt lat="36.8645097" lon="8.7173486"><ele>138.6</ele><time>2026-05-02T10:09:12.61Z</time></trkpt><trkpt lat="36.8645247" lon="8.7172273"><ele>140.4</ele><time>2026-05-02T10:09:13.61Z</time></trkpt><trkpt lat="36.8645123" lon="8.7170954"><ele>142.2</ele><time>2026-05-02T10:09:14.62Z</time></trkpt><trkpt lat="36.8644646" lon="8.7169857"><ele>144.0</ele><time>2026-05-02T10:09:15.629Z</time></trkpt><trkpt lat="36.864394" lon="8.7168766"><ele>144.0</ele><time>2026-05-02T10:09:16.63Z</time></trkpt><trkpt lat="36.8643049" lon="8.7167827"><ele>144.0</ele><time>2026-05-02T10:09:17.614Z</time></trkpt><trkpt lat="36.8642026" lon="8.7166951"><ele>144.0</ele><time>2026-05-02T10:09:18.621Z</time></trkpt><trkpt lat="36.8640947" lon="8.7166259"><ele>144.0</ele><time>2026-05-02T10:09:19.639Z</time></trkpt><trkpt lat="36.8639836" lon="8.7165643"><ele>148.5</ele><time>2026-05-02T10:09:20.619Z</time></trkpt><trkpt lat="36.863867" lon="8.7164978"><ele>153.0</ele><time>2026-05-02T10:09:21.644Z</time></trkpt><trkpt lat="36.8637568" lon="8.7164295"><ele>157.5</ele><time>2026-05-02T10:09:22.632Z</time></trkpt><trkpt lat="36.8636784" lon="8.7163389"><ele>162.0</ele><time>2026-05-02T10:09:23.624Z</time></trkpt><trkpt lat="36.8636295" lon="8.7162237"><ele>162.0</ele><time>2026-05-02T10:09:24.625Z</time></trkpt><trkpt lat="36.8636058" lon="8.7160922"><ele>162.0</ele><time>2026-05-02T10:09:25.629Z</time></trkpt><trkpt lat="36.8636279" lon="8.7159644"><ele>162.0</ele><time>2026-05-02T10:09:26.62Z</time></trkpt><trkpt lat="36.8636749" lon="8.7158203"><ele>162.0</ele><time>2026-05-02T10:09:27.616Z</time></trkpt><trkpt lat="36.8637456" lon="8.7156819"><ele>160.75</ele><time>2026-05-02T10:09:28.629Z</time></trkpt><trkpt lat="36.863835" lon="8.7155525"><ele>159.5</ele><time>2026-05-02T10:09:29.617Z</time></trkpt><trkpt lat="36.8639427" lon="8.7154298"><ele>158.25</ele><time>2026-05-02T10:09:30.612Z</time></trkpt><trkpt lat="36.8640611" lon="8.7153197"><ele>157.0</ele><time>2026-05-02T10:09:31.621Z</time></trkpt><trkpt lat="36.8641976" lon="8.7152229"><ele>160.0</ele><time>2026-05-02T10:09:32.628Z</time></trkpt><trkpt lat="36.8643481" lon="8.7151295"><ele>163.0</ele><time>2026-05-02T10:09:33.596Z</time></trkpt><trkpt lat="36.8645174" lon="8.7150463"><ele>166.0</ele><time>2026-05-02T10:09:34.616Z</time></trkpt><trkpt lat="36.8647296" lon="8.714968"><ele>166.0</ele><time>2026-05-02T10:09:35.64Z</time></trkpt><trkpt lat="36.86495" lon="8.7149033"><ele>166.0</ele><time>2026-05-02T10:09:36.633Z</time></trkpt><trkpt lat="36.8651614" lon="8.7148349"><ele>166.0</ele><time>2026-05-02T10:09:37.621Z</time></trkpt><trkpt lat="36.8653507" lon="8.7147686"><ele>164.33333333333334</ele><time>2026-05-02T10:09:38.625Z</time></trkpt><trkpt lat="36.8655187" lon="8.7147066"><ele>162.66666666666666</ele><time>2026-05-02T10:09:39.626Z</time></trkpt><trkpt lat="36.865669" lon="8.7146467"><ele>161.0</ele><time>2026-05-02T10:09:40.614Z</time></trkpt><trkpt lat="36.8658082" lon="8.7145907"><ele>164.75</ele><time>2026-05-02T10:09:41.607Z</time></trkpt><trkpt lat="36.8659456" lon="8.7145292"><ele>168.5</ele><time>2026-05-02T10:09:42.617Z</time></trkpt><trkpt lat="36.8660651" lon="8.7144551"><ele>172.25</ele><time>2026-05-02T10:09:43.633Z</time></trkpt><trkpt lat="36.8661637" lon="8.7143828"><ele>176.0</ele><time>2026-05-02T10:09:44.626Z</time></trkpt><trkpt lat="36.8662336" lon="8.7142989"><ele>176.4</ele><time>2026-05-02T10:09:45.628Z</time></trkpt><trkpt lat="36.8662831" lon="8.7141948"><ele>176.8</ele><time>2026-05-02T10:09:46.624Z</time></trkpt><trkpt lat="36.8663178" lon="8.7140627"><ele>177.20000000000002</ele><time>2026-05-02T10:09:47.614Z</time></trkpt><trkpt lat="36.8663254" lon="8.7139123"><ele>177.60000000000002</ele><time>2026-05-02T10:09:48.621Z</time></trkpt><trkpt lat="36.866301" lon="8.7137747"><ele>178.0</ele><time>2026-05-02T10:09:49.623Z</time></trkpt><trkpt lat="36.8662535" lon="8.713635"><ele>178.25</ele><time>2026-05-02T10:09:50.636Z</time></trkpt><trkpt lat="36.8661898" lon="8.7135054"><ele>178.5</ele><time>2026-05-02T10:09:51.62Z</time></trkpt><trkpt lat="36.8660925" lon="8.7133927"><ele>178.75</ele><time>2026-05-02T10:09:52.632Z</time></trkpt><trkpt lat="36.865963" lon="8.7132851"><ele>179.0</ele><time>2026-05-02T10:09:53.629Z</time></trkpt><trkpt lat="36.8658013" lon="8.7131879"><ele>179.0</ele><time>2026-05-02T10:09:54.62Z</time></trkpt><trkpt lat="36.865611" lon="8.7131028"><ele>179.0</ele><time>2026-05-02T10:09:55.62Z</time></trkpt><trkpt lat="36.8654194" lon="8.7130122"><ele>179.0</ele><time>2026-05-02T10:09:56.628Z</time></trkpt><trkpt lat="36.8652408" lon="8.7129173"><ele>181.33333333333331</ele><time>2026-05-02T10:09:57.634Z</time></trkpt><trkpt lat="36.8650779" lon="8.712828"><ele>183.66666666666666</ele><time>2026-05-02T10:09:58.617Z</time></trkpt><trkpt lat="36.8649382" lon="8.7127441"><ele>186.0</ele><time>2026-05-02T10:09:59.632Z</time></trkpt><trkpt lat="36.8648101" lon="8.7126527"><ele>181.5</ele><time>2026-05-02T10:10:00.622Z</time></trkpt><trkpt lat="36.8646954" lon="8.712564"><ele>177.0</ele><time>2026-05-02T10:10:01.603Z</time></trkpt><trkpt lat="36.864581" lon="8.7124649"><ele>172.5</ele><time>2026-05-02T10:10:02.624Z</time></trkpt><trkpt lat="36.8644866" lon="8.7123659"><ele>168.0</ele><time>2026-05-02T10:10:03.614Z</time></trkpt><trkpt lat="36.8643903" lon="8.7122652"><ele>168.0</ele><time>2026-05-02T10:10:04.616Z</time></trkpt><trkpt lat="36.8642973" lon="8.7121668"><ele>168.0</ele><time>2026-05-02T10:10:05.62Z</time></trkpt><trkpt lat="36.8642172" lon="8.7120473"><ele>168.0</ele><time>2026-05-02T10:10:06.627Z</time></trkpt><trkpt lat="36.8641476" lon="8.7119249"><ele>168.0</ele><time>2026-05-02T10:10:07.617Z</time></trkpt><trkpt lat="36.864079" lon="8.7117828"><ele>167.75</ele><time>2026-05-02T10:10:08.623Z</time></trkpt><trkpt lat="36.8640151" lon="8.7116385"><ele>167.5</ele><time>2026-05-02T10:10:09.628Z</time></trkpt><trkpt lat="36.8639487" lon="8.7114892"><ele>167.25</ele><time>2026-05-02T10:10:10.641Z</time></trkpt><trkpt lat="36.8638847" lon="8.7113329"><ele>167.0</ele><time>2026-05-02T10:10:11.629Z</time></trkpt><trkpt lat="36.8638313" lon="8.7111736"><ele>161.33333333333331</ele><time>2026-05-02T10:10:12.622Z</time></trkpt><trkpt lat="36.8637923" lon="8.7110038"><ele>155.66666666666666</ele><time>2026-05-02T10:10:13.624Z</time></trkpt><trkpt lat="36.8637517" lon="8.7108222"><ele>150.0</ele><time>2026-05-02T10:10:14.63Z</time></trkpt><trkpt lat="36.8636981" lon="8.7106356"><ele>150.0</ele><time>2026-05-02T10:10:15.623Z</time></trkpt><trkpt lat="36.8636474" lon="8.7104523"><ele>150.0</ele><time>2026-05-02T10:10:16.616Z</time></trkpt><trkpt lat="36.8635927" lon="8.710272"><ele>150.0</ele><time>2026-05-02T10:10:17.606Z</time></trkpt><trkpt lat="36.8635307" lon="8.7100906"><ele>154.33333333333334</ele><time>2026-05-02T10:10:18.621Z</time></trkpt><trkpt lat="36.8634516" lon="8.7099224"><ele>158.66666666666669</ele><time>2026-05-02T10:10:19.608Z</time></trkpt><trkpt lat="36.8633655" lon="8.7097508"><ele>163.0</ele><time>2026-05-02T10:10:20.621Z</time></trkpt><trkpt lat="36.8632712" lon="8.7095913"><ele>163.0</ele><time>2026-05-02T10:10:21.626Z</time></trkpt><trkpt lat="36.8631767" lon="8.7094301"><ele>163.0</ele><time>2026-05-02T10:10:22.617Z</time></trkpt><trkpt lat="36.8630834" lon="8.7092685"><ele>163.0</ele><time>2026-05-02T10:10:23.622Z</time></trkpt><trkpt lat="36.8629922" lon="8.7091187"><ele>158.0</ele><time>2026-05-02T10:10:24.605Z</time></trkpt><trkpt lat="36.8629022" lon="8.7089816"><ele>153.0</ele><time>2026-05-02T10:10:25.627Z</time></trkpt><trkpt lat="36.8628111" lon="8.7088401"><ele>148.0</ele><time>2026-05-02T10:10:26.63Z</time></trkpt><trkpt lat="36.8627161" lon="8.7086983"><ele>143.0</ele><time>2026-05-02T10:10:27.624Z</time></trkpt><trkpt lat="36.8626159" lon="8.708556"><ele>144.75</ele><time>2026-05-02T10:10:28.613Z</time></trkpt><trkpt lat="36.8625153" lon="8.7084332"><ele>146.5</ele><time>2026-05-02T10:10:29.616Z</time></trkpt><trkpt lat="36.8624139" lon="8.7083298"><ele>148.25</ele><time>2026-05-02T10:10:30.618Z</time></trkpt><trkpt lat="36.8623029" lon="8.7082273"><ele>150.0</ele><time>2026-05-02T10:10:31.633Z</time></trkpt><trkpt lat="36.8621952" lon="8.7081392"><ele>150.0</ele><time>2026-05-02T10:10:32.625Z</time></trkpt><trkpt lat="36.8620918" lon="8.7080548"><ele>150.0</ele><time>2026-05-02T10:10:33.636Z</time></trkpt><trkpt lat="36.8619879" lon="8.707961"><ele>150.0</ele><time>2026-05-02T10:10:34.638Z</time></trkpt><trkpt lat="36.8618954" lon="8.7078678"><ele>150.0</ele><time>2026-05-02T10:10:35.618Z</time></trkpt><trkpt lat="36.8618237" lon="8.7077552"><ele>151.75</ele><time>2026-05-02T10:10:36.621Z</time></trkpt><trkpt lat="36.861769" lon="8.7076182"><ele>153.5</ele><time>2026-05-02T10:10:37.621Z</time></trkpt><trkpt lat="36.8617239" lon="8.7074733"><ele>155.25</ele><time>2026-05-02T10:10:38.625Z</time></trkpt><trkpt lat="36.8616946" lon="8.7073181"><ele>157.0</ele><time>2026-05-02T10:10:39.618Z</time></trkpt><trkpt lat="36.8616602" lon="8.7071559"><ele>157.0</ele><time>2026-05-02T10:10:40.634Z</time></trkpt><trkpt lat="36.8616148" lon="8.7070049"><ele>157.0</ele><time>2026-05-02T10:10:41.619Z</time></trkpt><trkpt lat="36.8615547" lon="8.7068617"><ele>157.0</ele><time>2026-05-02T10:10:42.623Z</time></trkpt><trkpt lat="36.8614717" lon="8.706727"><ele>157.0</ele><time>2026-05-02T10:10:43.626Z</time></trkpt><trkpt lat="36.861374" lon="8.7066021"><ele>158.75</ele><time>2026-05-02T10:10:44.619Z</time></trkpt><trkpt lat="36.8612688" lon="8.7064843"><ele>160.5</ele><time>2026-05-02T10:10:45.615Z</time></trkpt><trkpt lat="36.8611483" lon="8.7063708"><ele>162.25</ele><time>2026-05-02T10:10:46.63Z</time></trkpt><trkpt lat="36.8610202" lon="8.7062677"><ele>164.0</ele><time>2026-05-02T10:10:47.611Z</time></trkpt><trkpt lat="36.8608965" lon="8.7061687"><ele>158.75</ele><time>2026-05-02T10:10:48.629Z</time></trkpt><trkpt lat="36.8607696" lon="8.7060751"><ele>153.5</ele><time>2026-05-02T10:10:49.624Z</time></trkpt><trkpt lat="36.8606395" lon="8.7059925"><ele>148.25</ele><time>2026-05-02T10:10:50.618Z</time></trkpt><trkpt lat="36.8605105" lon="8.7059094"><ele>143.0</ele><time>2026-05-02T10:10:51.622Z</time></trkpt><trkpt lat="36.8603811" lon="8.7058338"><ele>143.0</ele><time>2026-05-02T10:10:52.618Z</time></trkpt><trkpt lat="36.8602565" lon="8.7057512"><ele>143.0</ele><time>2026-05-02T10:10:53.611Z</time></trkpt><trkpt lat="36.8601348" lon="8.7056714"><ele>143.0</ele><time>2026-05-02T10:10:54.613Z</time></trkpt><trkpt lat="36.8600219" lon="8.7055943"><ele>143.0</ele><time>2026-05-02T10:10:55.624Z</time></trkpt><trkpt lat="36.8599202" lon="8.7055184"><ele>144.20000000000002</ele><time>2026-05-02T10:10:56.619Z</time></trkpt><trkpt lat="36.8598308" lon="8.7054404"><ele>145.4</ele><time>2026-05-02T10:10:57.605Z</time></trkpt><trkpt lat="36.8597621" lon="8.705342"><ele>146.60000000000002</ele><time>2026-05-02T10:10:58.628Z</time></trkpt><trkpt lat="36.85973" lon="8.7052314"><ele>147.8</ele><time>2026-05-02T10:10:59.63Z</time></trkpt><trkpt lat="36.8597143" lon="8.7051148"><ele>149.0</ele><time>2026-05-02T10:11:00.613Z</time></trkpt><trkpt lat="36.859722" lon="8.704984"><ele>149.0</ele><time>2026-05-02T10:11:01.613Z</time></trkpt><trkpt lat="36.8597406" lon="8.7048503"><ele>149.0</ele><time>2026-05-02T10:11:02.617Z</time></trkpt><trkpt lat="36.8597657" lon="8.7047066"><ele>149.0</ele><time>2026-05-02T10:11:03.608Z</time></trkpt><trkpt lat="36.8597964" lon="8.7045567"><ele>149.0</ele><time>2026-05-02T10:11:04.633Z</time></trkpt><trkpt lat="36.8598429" lon="8.7044215"><ele>152.75</ele><time>2026-05-02T10:11:05.621Z</time></trkpt><trkpt lat="36.8599153" lon="8.7042811"><ele>156.5</ele><time>2026-05-02T10:11:06.621Z</time></trkpt><trkpt lat="36.8600021" lon="8.7041603"><ele>160.25</ele><time>2026-05-02T10:11:07.617Z</time></trkpt><trkpt lat="36.8601109" lon="8.7040727"><ele>164.0</ele><time>2026-05-02T10:11:08.624Z</time></trkpt><trkpt lat="36.8602323" lon="8.7040122"><ele>164.0</ele><time>2026-05-02T10:11:09.628Z</time></trkpt><trkpt lat="36.8603542" lon="8.7039865"><ele>164.0</ele><time>2026-05-02T10:11:10.617Z</time></trkpt><trkpt lat="36.8604888" lon="8.7039798"><ele>164.0</ele><time>2026-05-02T10:11:11.619Z</time></trkpt><trkpt lat="36.860622" lon="8.7039851"><ele>164.0</ele><time>2026-05-02T10:11:12.621Z</time></trkpt><trkpt lat="36.8607533" lon="8.70402"><ele>164.0</ele><time>2026-05-02T10:11:13.626Z</time></trkpt><trkpt lat="36.8608809" lon="8.7040893"><ele>164.0</ele><time>2026-05-02T10:11:14.621Z</time></trkpt><trkpt lat="36.8610052" lon="8.7041828"><ele>164.0</ele><time>2026-05-02T10:11:15.623Z</time></trkpt><trkpt lat="36.8611071" lon="8.7043215"><ele>164.0</ele><time>2026-05-02T10:11:16.605Z</time></trkpt><trkpt lat="36.8612056" lon="8.7044691"><ele>166.33333333333331</ele><time>2026-05-02T10:11:17.617Z</time></trkpt><trkpt lat="36.8612869" lon="8.704625"><ele>168.66666666666666</ele><time>2026-05-02T10:11:18.637Z</time></trkpt><trkpt lat="36.8613741" lon="8.7047874"><ele>171.0</ele><time>2026-05-02T10:11:19.62Z</time></trkpt><trkpt lat="36.8614756" lon="8.7049291"><ele>171.0</ele><time>2026-05-02T10:11:20.619Z</time></trkpt><trkpt lat="36.8615885" lon="8.7050574"><ele>171.0</ele><time>2026-05-02T10:11:21.632Z</time></trkpt><trkpt lat="36.861711" lon="8.7051622"><ele>171.0</ele><time>2026-05-02T10:11:22.616Z</time></trkpt><trkpt lat="36.8618528" lon="8.7052513"><ele>166.0</ele><time>2026-05-02T10:11:23.627Z</time></trkpt><trkpt lat="36.8620087" lon="8.70533"><ele>161.0</ele><time>2026-05-02T10:11:24.63Z</time></trkpt><trkpt lat="36.8621684" lon="8.7053856"><ele>156.0</ele><time>2026-05-02T10:11:25.636Z</time></trkpt><trkpt lat="36.8623252" lon="8.7054139"><ele>156.0</ele><time>2026-05-02T10:11:26.613Z</time></trkpt><trkpt lat="36.8624794" lon="8.7054251"><ele>156.0</ele><time>2026-05-02T10:11:27.63Z</time></trkpt><trkpt lat="36.8626371" lon="8.7054321"><ele>156.0</ele><time>2026-05-02T10:11:28.619Z</time></trkpt><trkpt lat="36.8627984" lon="8.705457"><ele>158.66666666666666</ele><time>2026-05-02T10:11:29.614Z</time></trkpt><trkpt lat="36.8629542" lon="8.7054984"><ele>161.33333333333331</ele><time>2026-05-02T10:11:30.633Z</time></trkpt><trkpt lat="36.8631121" lon="8.7055523"><ele>164.0</ele><time>2026-05-02T10:11:31.614Z</time></trkpt><trkpt lat="36.863269" lon="8.7056114"><ele>164.0</ele><time>2026-05-02T10:11:32.628Z</time></trkpt><trkpt lat="36.8634273" lon="8.7056893"><ele>164.0</ele><time>2026-05-02T10:11:33.617Z</time></trkpt><trkpt lat="36.8635892" lon="8.705789"><ele>164.0</ele><time>2026-05-02T10:11:34.614Z</time></trkpt><trkpt lat="36.8637477" lon="8.705919"><ele>161.33333333333331</ele><time>2026-05-02T10:11:35.624Z</time></trkpt><trkpt lat="36.8639055" lon="8.7060682"><ele>158.66666666666666</ele><time>2026-05-02T10:11:36.616Z</time></trkpt><trkpt lat="36.8640547" lon="8.7062128"><ele>156.0</ele><time>2026-05-02T10:11:37.622Z</time></trkpt><trkpt lat="36.8641999" lon="8.7063599"><ele>161.66666666666666</ele><time>2026-05-02T10:11:38.628Z</time></trkpt><trkpt lat="36.8643527" lon="8.7065042"><ele>167.33333333333331</ele><time>2026-05-02T10:11:39.634Z</time></trkpt><trkpt lat="36.8645026" lon="8.7066356"><ele>173.0</ele><time>2026-05-02T10:11:40.619Z</time></trkpt><trkpt lat="36.864654" lon="8.7067589"><ele>173.0</ele><time>2026-05-02T10:11:41.617Z</time></trkpt><trkpt lat="36.864812" lon="8.7068691"><ele>173.0</ele><time>2026-05-02T10:11:42.627Z</time></trkpt><trkpt lat="36.8649709" lon="8.7069675"><ele>173.0</ele><time>2026-05-02T10:11:43.615Z</time></trkpt><trkpt lat="36.8651318" lon="8.7070564"><ele>170.33333333333331</ele><time>2026-05-02T10:11:44.607Z</time></trkpt><trkpt lat="36.8652971" lon="8.7071405"><ele>167.66666666666666</ele><time>2026-05-02T10:11:45.615Z</time></trkpt><trkpt lat="36.8654685" lon="8.7072237"><ele>165.0</ele><time>2026-05-02T10:11:46.615Z</time></trkpt><trkpt lat="36.8656383" lon="8.7072975"><ele>165.0</ele><time>2026-05-02T10:11:47.611Z</time></trkpt><trkpt lat="36.8658045" lon="8.7073704"><ele>165.0</ele><time>2026-05-02T10:11:48.628Z</time></trkpt><trkpt lat="36.8659633" lon="8.707461"><ele>165.0</ele><time>2026-05-02T10:11:49.611Z</time></trkpt><trkpt lat="36.8661132" lon="8.7075767"><ele>166.0</ele><time>2026-05-02T10:11:50.605Z</time></trkpt><trkpt lat="36.8662523" lon="8.7077077"><ele>167.0</ele><time>2026-05-02T10:11:51.625Z</time></trkpt><trkpt lat="36.8663883" lon="8.7078502"><ele>168.0</ele><time>2026-05-02T10:11:52.617Z</time></trkpt><trkpt lat="36.8664955" lon="8.7080377"><ele>168.0</ele><time>2026-05-02T10:11:53.616Z</time></trkpt><trkpt lat="36.8665805" lon="8.7082283"><ele>168.0</ele><time>2026-05-02T10:11:54.627Z</time></trkpt><trkpt lat="36.8666654" lon="8.7084134"><ele>168.0</ele><time>2026-05-02T10:11:55.641Z</time></trkpt><trkpt lat="36.8667543" lon="8.7085876"><ele>165.25</ele><time>2026-05-02T10:11:56.624Z</time></trkpt><trkpt lat="36.8668482" lon="8.7087365"><ele>162.5</ele><time>2026-05-02T10:11:57.619Z</time></trkpt><trkpt lat="36.8669518" lon="8.7088589"><ele>159.75</ele><time>2026-05-02T10:11:58.611Z</time></trkpt><trkpt lat="36.8670572" lon="8.7089472"><ele>157.0</ele><time>2026-05-02T10:11:59.617Z</time></trkpt><trkpt lat="36.8671735" lon="8.7090068"><ele>157.0</ele><time>2026-05-02T10:12:00.626Z</time></trkpt><trkpt lat="36.8673013" lon="8.709018"><ele>157.0</ele><time>2026-05-02T10:12:01.624Z</time></trkpt><trkpt lat="36.8674282" lon="8.7089753"><ele>157.0</ele><time>2026-05-02T10:12:02.627Z</time></trkpt><trkpt lat="36.8675538" lon="8.7089111"><ele>157.0</ele><time>2026-05-02T10:12:03.629Z</time></trkpt><trkpt lat="36.8676604" lon="8.7087887"><ele>156.33333333333334</ele><time>2026-05-02T10:12:04.615Z</time></trkpt><trkpt lat="36.8677513" lon="8.7086539"><ele>155.66666666666666</ele><time>2026-05-02T10:12:05.627Z</time></trkpt><trkpt lat="36.8678395" lon="8.708486"><ele>155.0</ele><time>2026-05-02T10:12:06.618Z</time></trkpt><trkpt lat="36.867933" lon="8.7082792"><ele>155.0</ele><time>2026-05-02T10:12:07.634Z</time></trkpt><trkpt lat="36.8680205" lon="8.7080636"><ele>155.0</ele><time>2026-05-02T10:12:08.611Z</time></trkpt><trkpt lat="36.8681237" lon="8.7078641"><ele>155.0</ele><time>2026-05-02T10:12:09.63Z</time></trkpt><trkpt lat="36.8682353" lon="8.7076974"><ele>151.33333333333331</ele><time>2026-05-02T10:12:10.614Z</time></trkpt><trkpt lat="36.8683642" lon="8.7075487"><ele>147.66666666666666</ele><time>2026-05-02T10:12:11.619Z</time></trkpt><trkpt lat="36.8685061" lon="8.7074099"><ele>144.0</ele><time>2026-05-02T10:12:12.62Z</time></trkpt><trkpt lat="36.8686556" lon="8.7072943"><ele>144.0</ele><time>2026-05-02T10:12:13.615Z</time></trkpt><trkpt lat="36.8688159" lon="8.7071978"><ele>144.0</ele><time>2026-05-02T10:12:14.616Z</time></trkpt><trkpt lat="36.8689889" lon="8.7071245"><ele>144.0</ele><time>2026-05-02T10:12:15.623Z</time></trkpt><trkpt lat="36.8691782" lon="8.7070713"><ele>141.0</ele><time>2026-05-02T10:12:16.611Z</time></trkpt><trkpt lat="36.8693843" lon="8.7070333"><ele>138.0</ele><time>2026-05-02T10:12:17.619Z</time></trkpt><trkpt lat="36.8695932" lon="8.7069949"><ele>135.0</ele><time>2026-05-02T10:12:18.627Z</time></trkpt><trkpt lat="36.8698018" lon="8.7069765"><ele>135.0</ele><time>2026-05-02T10:12:19.618Z</time></trkpt><trkpt lat="36.8700117" lon="8.7069911"><ele>135.0</ele><time>2026-05-02T10:12:20.632Z</time></trkpt><trkpt lat="36.8702057" lon="8.7070114"><ele>135.0</ele><time>2026-05-02T10:12:21.625Z</time></trkpt><trkpt lat="36.8703841" lon="8.7070276"><ele>133.33333333333334</ele><time>2026-05-02T10:12:22.63Z</time></trkpt><trkpt lat="36.8705502" lon="8.7070302"><ele>131.66666666666669</ele><time>2026-05-02T10:12:23.632Z</time></trkpt><trkpt lat="36.8707117" lon="8.7070116"><ele>130.0</ele><time>2026-05-02T10:12:24.627Z</time></trkpt><trkpt lat="36.8708743" lon="8.7069666"><ele>133.0</ele><time>2026-05-02T10:12:25.626Z</time></trkpt><trkpt lat="36.8710304" lon="8.7069049"><ele>136.0</ele><time>2026-05-02T10:12:26.626Z</time></trkpt><trkpt lat="36.8711806" lon="8.7068182"><ele>139.0</ele><time>2026-05-02T10:12:27.631Z</time></trkpt><trkpt lat="36.8713262" lon="8.7067091"><ele>139.0</ele><time>2026-05-02T10:12:28.628Z</time></trkpt><trkpt lat="36.8714694" lon="8.7065731"><ele>139.0</ele><time>2026-05-02T10:12:29.619Z</time></trkpt><trkpt lat="36.8716086" lon="8.7064168"><ele>139.0</ele><time>2026-05-02T10:12:30.62Z</time></trkpt><trkpt lat="36.87174" lon="8.7062412"><ele>137.0</ele><time>2026-05-02T10:12:31.622Z</time></trkpt><trkpt lat="36.8718629" lon="8.7060645"><ele>135.0</ele><time>2026-05-02T10:12:32.631Z</time></trkpt><trkpt lat="36.8719905" lon="8.7058939"><ele>133.0</ele><time>2026-05-02T10:12:33.633Z</time></trkpt><trkpt lat="36.8721189" lon="8.7057213"><ele>133.0</ele><time>2026-05-02T10:12:34.618Z</time></trkpt><trkpt lat="36.8722527" lon="8.7055577"><ele>133.0</ele><time>2026-05-02T10:12:35.616Z</time></trkpt><trkpt lat="36.8723837" lon="8.7054017"><ele>133.0</ele><time>2026-05-02T10:12:36.618Z</time></trkpt><trkpt lat="36.8725105" lon="8.705252"><ele>133.66666666666669</ele><time>2026-05-02T10:12:37.619Z</time></trkpt><trkpt lat="36.8726481" lon="8.7051138"><ele>134.33333333333334</ele><time>2026-05-02T10:12:38.637Z</time></trkpt><trkpt lat="36.8727969" lon="8.7049934"><ele>135.0</ele><time>2026-05-02T10:12:39.617Z</time></trkpt><trkpt lat="36.872947" lon="8.7048815"><ele>135.0</ele><time>2026-05-02T10:12:40.615Z</time></trkpt><trkpt lat="36.8731017" lon="8.7047778"><ele>135.0</ele><time>2026-05-02T10:12:41.637Z</time></trkpt><trkpt lat="36.8732684" lon="8.7046971"><ele>135.0</ele><time>2026-05-02T10:12:42.618Z</time></trkpt><trkpt lat="36.8734371" lon="8.7046231"><ele>133.33333333333334</ele><time>2026-05-02T10:12:43.613Z</time></trkpt><trkpt lat="36.8736069" lon="8.7045655"><ele>131.66666666666669</ele><time>2026-05-02T10:12:44.615Z</time></trkpt><trkpt lat="36.873785" lon="8.7045159"><ele>130.0</ele><time>2026-05-02T10:12:45.613Z</time></trkpt><trkpt lat="36.8739748" lon="8.7044843"><ele>130.0</ele><time>2026-05-02T10:12:46.633Z</time></trkpt><trkpt lat="36.8741782" lon="8.7044687"><ele>130.0</ele><time>2026-05-02T10:12:47.634Z</time></trkpt><trkpt lat="36.8743855" lon="8.704473"><ele>130.0</ele><time>2026-05-02T10:12:48.631Z</time></trkpt><trkpt lat="36.8746019" lon="8.704478"><ele>129.0</ele><time>2026-05-02T10:12:49.622Z</time></trkpt><trkpt lat="36.8748107" lon="8.704477"><ele>128.0</ele><time>2026-05-02T10:12:50.625Z</time></trkpt><trkpt lat="36.8750125" lon="8.7044748"><ele>127.0</ele><time>2026-05-02T10:12:51.616Z</time></trkpt><trkpt lat="36.8751977" lon="8.7044721"><ele>129.66666666666669</ele><time>2026-05-02T10:12:52.629Z</time></trkpt><trkpt lat="36.8753754" lon="8.7044878"><ele>132.33333333333334</ele><time>2026-05-02T10:12:53.621Z</time></trkpt><trkpt lat="36.8755498" lon="8.7045274"><ele>135.0</ele><time>2026-05-02T10:12:54.624Z</time></trkpt><trkpt lat="36.8757241" lon="8.7045738"><ele>135.0</ele><time>2026-05-02T10:12:55.618Z</time></trkpt><trkpt lat="36.8758929" lon="8.7046256"><ele>135.0</ele><time>2026-05-02T10:12:56.611Z</time></trkpt><trkpt lat="36.8760578" lon="8.7046745"><ele>135.0</ele><time>2026-05-02T10:12:57.629Z</time></trkpt><trkpt lat="36.876217" lon="8.7047322"><ele>137.33333333333334</ele><time>2026-05-02T10:12:58.63Z</time></trkpt><trkpt lat="36.8763771" lon="8.7048096"><ele>139.66666666666669</ele><time>2026-05-02T10:12:59.632Z</time></trkpt><trkpt lat="36.8765288" lon="8.7049055"><ele>142.0</ele><time>2026-05-02T10:13:00.623Z</time></trkpt><trkpt lat="36.8766704" lon="8.7050255"><ele>142.33333333333334</ele><time>2026-05-02T10:13:01.614Z</time></trkpt><trkpt lat="36.8768028" lon="8.7051675"><ele>142.66666666666666</ele><time>2026-05-02T10:13:02.63Z</time></trkpt><trkpt lat="36.8769183" lon="8.7053331"><ele>143.0</ele><time>2026-05-02T10:13:03.63Z</time></trkpt><trkpt lat="36.8770338" lon="8.7055018"><ele>143.0</ele><time>2026-05-02T10:13:04.611Z</time></trkpt><trkpt lat="36.8771465" lon="8.7056751"><ele>143.0</ele><time>2026-05-02T10:13:05.616Z</time></trkpt><trkpt lat="36.8772574" lon="8.7058538"><ele>143.0</ele><time>2026-05-02T10:13:06.624Z</time></trkpt><trkpt lat="36.8773653" lon="8.7060295"><ele>141.66666666666666</ele><time>2026-05-02T10:13:07.621Z</time></trkpt><trkpt lat="36.8774705" lon="8.7062076"><ele>140.33333333333334</ele><time>2026-05-02T10:13:08.635Z</time></trkpt><trkpt lat="36.8775687" lon="8.7063783"><ele>139.0</ele><time>2026-05-02T10:13:09.628Z</time></trkpt><trkpt lat="36.8776703" lon="8.7065415"><ele>139.0</ele><time>2026-05-02T10:13:10.622Z</time></trkpt><trkpt lat="36.8777785" lon="8.7066834"><ele>139.0</ele><time>2026-05-02T10:13:11.623Z</time></trkpt><trkpt lat="36.8778977" lon="8.7068131"><ele>139.0</ele><time>2026-05-02T10:13:12.637Z</time></trkpt><trkpt lat="36.8780186" lon="8.7069263"><ele>136.75</ele><time>2026-05-02T10:13:13.624Z</time></trkpt><trkpt lat="36.8781485" lon="8.7070276"><ele>134.5</ele><time>2026-05-02T10:13:14.625Z</time></trkpt><trkpt lat="36.8782812" lon="8.7071016"><ele>132.25</ele><time>2026-05-02T10:13:15.617Z</time></trkpt><trkpt lat="36.8784177" lon="8.7071547"><ele>130.0</ele><time>2026-05-02T10:13:16.624Z</time></trkpt><trkpt lat="36.878562" lon="8.7071967"><ele>130.0</ele><time>2026-05-02T10:13:17.631Z</time></trkpt><trkpt lat="36.87871" lon="8.7072345"><ele>130.0</ele><time>2026-05-02T10:13:18.622Z</time></trkpt><trkpt lat="36.8788625" lon="8.7072557"><ele>130.0</ele><time>2026-05-02T10:13:19.643Z</time></trkpt><trkpt lat="36.8790111" lon="8.7072844"><ele>130.0</ele><time>2026-05-02T10:13:20.637Z</time></trkpt><trkpt lat="36.8791567" lon="8.7073214"><ele>130.0</ele><time>2026-05-02T10:13:21.639Z</time></trkpt><trkpt lat="36.8792968" lon="8.7073798"><ele>130.0</ele><time>2026-05-02T10:13:22.614Z</time></trkpt><trkpt lat="36.8794318" lon="8.7074542"><ele>130.0</ele><time>2026-05-02T10:13:23.632Z</time></trkpt><trkpt lat="36.8795657" lon="8.7075545"><ele>127.66666666666667</ele><time>2026-05-02T10:13:24.636Z</time></trkpt><trkpt lat="36.8797047" lon="8.7076907"><ele>125.33333333333334</ele><time>2026-05-02T10:13:25.639Z</time></trkpt><trkpt lat="36.8798336" lon="8.7078326"><ele>123.0</ele><time>2026-05-02T10:13:26.63Z</time></trkpt><trkpt lat="36.8799658" lon="8.707981"><ele>117.33333333333334</ele><time>2026-05-02T10:13:27.625Z</time></trkpt><trkpt lat="36.8801118" lon="8.7081356"><ele>111.66666666666667</ele><time>2026-05-02T10:13:28.633Z</time></trkpt><trkpt lat="36.8802703" lon="8.7082681"><ele>106.0</ele><time>2026-05-02T10:13:29.641Z</time></trkpt><trkpt lat="36.8804317" lon="8.7083669"><ele>106.0</ele><time>2026-05-02T10:13:30.621Z</time></trkpt><trkpt lat="36.8805966" lon="8.7084576"><ele>106.0</ele><time>2026-05-02T10:13:31.627Z</time></trkpt><trkpt lat="36.8807762" lon="8.7085266"><ele>106.0</ele><time>2026-05-02T10:13:32.641Z</time></trkpt><trkpt lat="36.8809522" lon="8.7085915"><ele>107.33333333333334</ele><time>2026-05-02T10:13:33.612Z</time></trkpt><trkpt lat="36.8811236" lon="8.7086502"><ele>108.66666666666666</ele><time>2026-05-02T10:13:34.615Z</time></trkpt><trkpt lat="36.8812932" lon="8.7087158"><ele>110.0</ele><time>2026-05-02T10:13:35.624Z</time></trkpt><trkpt lat="36.8814428" lon="8.7087752"><ele>110.0</ele><time>2026-05-02T10:13:36.623Z</time></trkpt><trkpt lat="36.8815877" lon="8.7088354"><ele>110.0</ele><time>2026-05-02T10:13:37.63Z</time></trkpt><trkpt lat="36.8817259" lon="8.7089053"><ele>110.0</ele><time>2026-05-02T10:13:38.627Z</time></trkpt><trkpt lat="36.8818576" lon="8.7089892"><ele>107.25</ele><time>2026-05-02T10:13:39.629Z</time></trkpt><trkpt lat="36.8819719" lon="8.7090905"><ele>104.5</ele><time>2026-05-02T10:13:40.639Z</time></trkpt><trkpt lat="36.8820788" lon="8.7092045"><ele>101.75</ele><time>2026-05-02T10:13:41.636Z</time></trkpt><trkpt lat="36.8821787" lon="8.7093341"><ele>99.0</ele><time>2026-05-02T10:13:42.634Z</time></trkpt><trkpt lat="36.8822741" lon="8.7094774"><ele>99.0</ele><time>2026-05-02T10:13:43.625Z</time></trkpt><trkpt lat="36.8823513" lon="8.7096418"><ele>99.0</ele><time>2026-05-02T10:13:44.635Z</time></trkpt><trkpt lat="36.8824116" lon="8.7098268"><ele>99.0</ele><time>2026-05-02T10:13:45.618Z</time></trkpt><trkpt lat="36.8824729" lon="8.7100243"><ele>99.0</ele><time>2026-05-02T10:13:46.63Z</time></trkpt><trkpt lat="36.8825196" lon="8.7102396"><ele>99.0</ele><time>2026-05-02T10:13:47.644Z</time></trkpt><trkpt lat="36.8825602" lon="8.7104639"><ele>99.0</ele><time>2026-05-02T10:13:48.64Z</time></trkpt><trkpt lat="36.8826093" lon="8.7106874"><ele>90.33333333333333</ele><time>2026-05-02T10:13:49.635Z</time></trkpt><trkpt lat="36.8826649" lon="8.7109201"><ele>81.66666666666666</ele><time>2026-05-02T10:13:50.641Z</time></trkpt><trkpt lat="36.8827308" lon="8.7111469"><ele>73.0</ele><time>2026-05-02T10:13:51.64Z</time></trkpt><trkpt lat="36.882805" lon="8.7113669"><ele>73.0</ele><time>2026-05-02T10:13:52.636Z</time></trkpt><trkpt lat="36.8828897" lon="8.7115804"><ele>73.0</ele><time>2026-05-02T10:13:53.625Z</time></trkpt><trkpt lat="36.8829816" lon="8.7117871"><ele>73.0</ele><time>2026-05-02T10:13:54.622Z</time></trkpt><trkpt lat="36.8830808" lon="8.7119857"><ele>80.0</ele><time>2026-05-02T10:13:55.619Z</time></trkpt><trkpt lat="36.8831863" lon="8.7121747"><ele>87.0</ele><time>2026-05-02T10:13:56.63Z</time></trkpt><trkpt lat="36.8833018" lon="8.7123497"><ele>94.0</ele><time>2026-05-02T10:13:57.62Z</time></trkpt><trkpt lat="36.8834241" lon="8.7125291"><ele>88.0</ele><time>2026-05-02T10:13:58.62Z</time></trkpt><trkpt lat="36.883546" lon="8.7127034"><ele>82.0</ele><time>2026-05-02T10:13:59.627Z</time></trkpt><trkpt lat="36.8836778" lon="8.7128661"><ele>76.0</ele><time>2026-05-02T10:14:00.624Z</time></trkpt><trkpt lat="36.8838156" lon="8.7130171"><ele>76.0</ele><time>2026-05-02T10:14:01.624Z</time></trkpt><trkpt lat="36.8839656" lon="8.713156"><ele>76.0</ele><time>2026-05-02T10:14:02.625Z</time></trkpt><trkpt lat="36.8841166" lon="8.7132857"><ele>76.0</ele><time>2026-05-02T10:14:03.621Z</time></trkpt><trkpt lat="36.8842736" lon="8.7134142"><ele>76.66666666666666</ele><time>2026-05-02T10:14:04.607Z</time></trkpt><trkpt lat="36.8844334" lon="8.7135309"><ele>77.33333333333333</ele><time>2026-05-02T10:14:05.611Z</time></trkpt><trkpt lat="36.8845953" lon="8.713636"><ele>78.0</ele><time>2026-05-02T10:14:06.624Z</time></trkpt><trkpt lat="36.8847608" lon="8.7137251"><ele>78.0</ele><time>2026-05-02T10:14:07.633Z</time></trkpt><trkpt lat="36.8849384" lon="8.7138034"><ele>78.0</ele><time>2026-05-02T10:14:08.621Z</time></trkpt><trkpt lat="36.8851208" lon="8.7138709"><ele>78.0</ele><time>2026-05-02T10:14:09.712Z</time></trkpt><trkpt lat="36.8854825" lon="8.713961"><ele>73.66666666666667</ele><time>2026-05-02T10:14:11.626Z</time></trkpt><trkpt lat="36.88567" lon="8.7139872"><ele>69.33333333333334</ele><time>2026-05-02T10:14:12.634Z</time></trkpt><trkpt lat="36.8858602" lon="8.7140028"><ele>65.0</ele><time>2026-05-02T10:14:13.613Z</time></trkpt><trkpt lat="36.8860527" lon="8.7140239"><ele>63.66666666666667</ele><time>2026-05-02T10:14:14.62Z</time></trkpt><trkpt lat="36.8862425" lon="8.7140337"><ele>62.33333333333333</ele><time>2026-05-02T10:14:15.621Z</time></trkpt><trkpt lat="36.8864203" lon="8.7140405"><ele>61.0</ele><time>2026-05-02T10:14:16.615Z</time></trkpt><trkpt lat="36.8865973" lon="8.7140538"><ele>58.33333333333333</ele><time>2026-05-02T10:14:17.642Z</time></trkpt><trkpt lat="36.8867798" lon="8.7140692"><ele>55.66666666666667</ele><time>2026-05-02T10:14:18.617Z</time></trkpt><trkpt lat="36.886966" lon="8.7140798"><ele>53.0</ele><time>2026-05-02T10:14:19.606Z</time></trkpt><trkpt lat="36.8871542" lon="8.7140954"><ele>53.0</ele><time>2026-05-02T10:14:20.642Z</time></trkpt><trkpt lat="36.8873375" lon="8.7141155"><ele>53.0</ele><time>2026-05-02T10:14:21.63Z</time></trkpt><trkpt lat="36.8875245" lon="8.7141377"><ele>53.0</ele><time>2026-05-02T10:14:22.617Z</time></trkpt><trkpt lat="36.8877041" lon="8.7141647"><ele>50.66666666666667</ele><time>2026-05-02T10:14:23.623Z</time></trkpt><trkpt lat="36.8878807" lon="8.7141876"><ele>48.333333333333336</ele><time>2026-05-02T10:14:24.627Z</time></trkpt><trkpt lat="36.8880612" lon="8.7142159"><ele>46.0</ele><time>2026-05-02T10:14:25.62Z</time></trkpt><trkpt lat="36.8882377" lon="8.7142463"><ele>46.0</ele><time>2026-05-02T10:14:26.624Z</time></trkpt><trkpt lat="36.8884107" lon="8.714272"><ele>46.0</ele><time>2026-05-02T10:14:27.621Z</time></trkpt><trkpt lat="36.8885751" lon="8.7142964"><ele>46.0</ele><time>2026-05-02T10:14:28.623Z</time></trkpt><trkpt lat="36.8887318" lon="8.7143197"><ele>44.0</ele><time>2026-05-02T10:14:29.623Z</time></trkpt><trkpt lat="36.8888895" lon="8.7143419"><ele>42.0</ele><time>2026-05-02T10:14:30.63Z</time></trkpt><trkpt lat="36.889048" lon="8.7143686"><ele>40.0</ele><time>2026-05-02T10:14:31.613Z</time></trkpt><trkpt lat="36.8892094" lon="8.7144051"><ele>40.333333333333336</ele><time>2026-05-02T10:14:32.606Z</time></trkpt><trkpt lat="36.8893674" lon="8.7144361"><ele>40.666666666666664</ele><time>2026-05-02T10:14:33.622Z</time></trkpt><trkpt lat="36.889514" lon="8.7144751"><ele>41.0</ele><time>2026-05-02T10:14:34.623Z</time></trkpt><trkpt lat="36.8896581" lon="8.7145182"><ele>41.0</ele><time>2026-05-02T10:14:35.632Z</time></trkpt><trkpt lat="36.8897934" lon="8.7145672"><ele>41.0</ele><time>2026-05-02T10:14:36.616Z</time></trkpt><trkpt lat="36.8899146" lon="8.7146192"><ele>41.0</ele><time>2026-05-02T10:14:37.618Z</time></trkpt><trkpt lat="36.890013" lon="8.7146989"><ele>41.0</ele><time>2026-05-02T10:14:38.623Z</time></trkpt><trkpt lat="36.8900978" lon="8.7148012"><ele>40.0</ele><time>2026-05-02T10:14:39.621Z</time></trkpt><trkpt lat="36.8901622" lon="8.7149243"><ele>39.0</ele><time>2026-05-02T10:14:40.622Z</time></trkpt><trkpt lat="36.8901947" lon="8.7150682"><ele>38.0</ele><time>2026-05-02T10:14:41.641Z</time></trkpt><trkpt lat="36.8901942" lon="8.7152194"><ele>37.0</ele><time>2026-05-02T10:14:42.619Z</time></trkpt><trkpt lat="36.8901769" lon="8.7153748"><ele>37.0</ele><time>2026-05-02T10:14:43.622Z</time></trkpt><trkpt lat="36.8901284" lon="8.7155331"><ele>37.0</ele><time>2026-05-02T10:14:44.625Z</time></trkpt><trkpt lat="36.8900553" lon="8.7156654"><ele>37.0</ele><time>2026-05-02T10:14:45.637Z</time></trkpt><trkpt lat="36.8899659" lon="8.7157916"><ele>37.0</ele><time>2026-05-02T10:14:46.629Z</time></trkpt><trkpt lat="36.8898866" lon="8.7159402"><ele>36.25</ele><time>2026-05-02T10:14:47.618Z</time></trkpt><trkpt lat="36.8898217" lon="8.7161008"><ele>35.5</ele><time>2026-05-02T10:14:48.619Z</time></trkpt><trkpt lat="36.8897873" lon="8.716259"><ele>34.75</ele><time>2026-05-02T10:14:49.634Z</time></trkpt><trkpt lat="36.8897821" lon="8.7164155"><ele>34.0</ele><time>2026-05-02T10:14:50.619Z</time></trkpt><trkpt lat="36.889806" lon="8.7165802"><ele>34.0</ele><time>2026-05-02T10:14:51.616Z</time></trkpt><trkpt lat="36.8898675" lon="8.7167171"><ele>34.0</ele><time>2026-05-02T10:14:52.625Z</time></trkpt><trkpt lat="36.889962" lon="8.7168584"><ele>34.0</ele><time>2026-05-02T10:14:53.611Z</time></trkpt><trkpt lat="36.8900615" lon="8.7169897"><ele>34.0</ele><time>2026-05-02T10:14:54.612Z</time></trkpt><trkpt lat="36.8901731" lon="8.7170994"><ele>33.0</ele><time>2026-05-02T10:14:55.629Z</time></trkpt><trkpt lat="36.8903029" lon="8.7172076"><ele>32.0</ele><time>2026-05-02T10:14:56.611Z</time></trkpt><trkpt lat="36.8904431" lon="8.7173106"><ele>31.0</ele><time>2026-05-02T10:14:57.617Z</time></trkpt><trkpt lat="36.8905859" lon="8.7174089"><ele>31.0</ele><time>2026-05-02T10:14:58.62Z</time></trkpt><trkpt lat="36.8907353" lon="8.7175173"><ele>31.0</ele><time>2026-05-02T10:14:59.619Z</time></trkpt><trkpt lat="36.8908852" lon="8.7176344"><ele>31.0</ele><time>2026-05-02T10:15:00.637Z</time></trkpt><trkpt lat="36.8910248" lon="8.7177588"><ele>31.666666666666668</ele><time>2026-05-02T10:15:01.622Z</time></trkpt><trkpt lat="36.8911553" lon="8.7178968"><ele>32.333333333333336</ele><time>2026-05-02T10:15:02.614Z</time></trkpt><trkpt lat="36.891278" lon="8.7180504"><ele>33.0</ele><time>2026-05-02T10:15:03.63Z</time></trkpt><trkpt lat="36.891389" lon="8.7182166"><ele>33.0</ele><time>2026-05-02T10:15:04.629Z</time></trkpt><trkpt lat="36.8914977" lon="8.7183967"><ele>33.0</ele><time>2026-05-02T10:15:05.627Z</time></trkpt><trkpt lat="36.8915963" lon="8.7185772"><ele>33.0</ele><time>2026-05-02T10:15:06.622Z</time></trkpt><trkpt lat="36.8916831" lon="8.7187716"><ele>35.0</ele><time>2026-05-02T10:15:07.648Z</time></trkpt><trkpt lat="36.8917627" lon="8.7189668"><ele>37.0</ele><time>2026-05-02T10:15:08.627Z</time></trkpt><trkpt lat="36.8918404" lon="8.7191681"><ele>39.0</ele><time>2026-05-02T10:15:09.627Z</time></trkpt><trkpt lat="36.8919144" lon="8.7193768"><ele>36.333333333333336</ele><time>2026-05-02T10:15:10.621Z</time></trkpt><trkpt lat="36.8919908" lon="8.7195842"><ele>33.66666666666667</ele><time>2026-05-02T10:15:11.63Z</time></trkpt><trkpt lat="36.892064" lon="8.719783"><ele>31.0</ele><time>2026-05-02T10:15:12.616Z</time></trkpt><trkpt lat="36.8921379" lon="8.7199817"><ele>31.0</ele><time>2026-05-02T10:15:13.624Z</time></trkpt><trkpt lat="36.8922148" lon="8.7201875"><ele>31.0</ele><time>2026-05-02T10:15:14.619Z</time></trkpt><trkpt lat="36.8922877" lon="8.7204012"><ele>31.0</ele><time>2026-05-02T10:15:15.637Z</time></trkpt><trkpt lat="36.8923659" lon="8.7206124"><ele>31.0</ele><time>2026-05-02T10:15:16.625Z</time></trkpt><trkpt lat="36.8924439" lon="8.7208169"><ele>31.0</ele><time>2026-05-02T10:15:17.638Z</time></trkpt><trkpt lat="36.8925219" lon="8.7210192"><ele>31.0</ele><time>2026-05-02T10:15:18.62Z</time></trkpt><trkpt lat="36.8925972" lon="8.72122"><ele>31.0</ele><time>2026-05-02T10:15:19.629Z</time></trkpt><trkpt lat="36.892671" lon="8.7214188"><ele>31.0</ele><time>2026-05-02T10:15:20.629Z</time></trkpt><trkpt lat="36.8927489" lon="8.7216195"><ele>31.0</ele><time>2026-05-02T10:15:21.632Z</time></trkpt><trkpt lat="36.8928252" lon="8.721823"><ele>29.666666666666668</ele><time>2026-05-02T10:15:22.622Z</time></trkpt><trkpt lat="36.8929004" lon="8.7220204"><ele>28.333333333333336</ele><time>2026-05-02T10:15:23.622Z</time></trkpt><trkpt lat="36.8929789" lon="8.7222236"><ele>27.0</ele><time>2026-05-02T10:15:24.615Z</time></trkpt><trkpt lat="36.8930551" lon="8.7224233"><ele>27.0</ele><time>2026-05-02T10:15:25.609Z</time></trkpt><trkpt lat="36.893133" lon="8.7226192"><ele>27.0</ele><time>2026-05-02T10:15:26.607Z</time></trkpt><trkpt lat="36.8932136" lon="8.722811"><ele>27.0</ele><time>2026-05-02T10:15:27.631Z</time></trkpt><trkpt lat="36.893302" lon="8.7230031"><ele>26.666666666666664</ele><time>2026-05-02T10:15:28.622Z</time></trkpt><trkpt lat="36.893392" lon="8.7231905"><ele>26.333333333333332</ele><time>2026-05-02T10:15:29.608Z</time></trkpt><trkpt lat="36.8934839" lon="8.7233828"><ele>26.0</ele><time>2026-05-02T10:15:30.618Z</time></trkpt><trkpt lat="36.893578" lon="8.7235736"><ele>26.0</ele><time>2026-05-02T10:15:31.636Z</time></trkpt><trkpt lat="36.8936762" lon="8.7237576"><ele>26.0</ele><time>2026-05-02T10:15:32.63Z</time></trkpt><trkpt lat="36.893775" lon="8.723936"><ele>26.0</ele><time>2026-05-02T10:15:33.612Z</time></trkpt><trkpt lat="36.8938777" lon="8.7241116"><ele>26.0</ele><time>2026-05-02T10:15:34.615Z</time></trkpt><trkpt lat="36.8939851" lon="8.7242834"><ele>26.0</ele><time>2026-05-02T10:15:35.631Z</time></trkpt><trkpt lat="36.8940884" lon="8.7244597"><ele>26.0</ele><time>2026-05-02T10:15:36.626Z</time></trkpt><trkpt lat="36.8941932" lon="8.7246337"><ele>30.666666666666664</ele><time>2026-05-02T10:15:37.642Z</time></trkpt><trkpt lat="36.8942991" lon="8.7248045"><ele>35.333333333333336</ele><time>2026-05-02T10:15:38.623Z</time></trkpt><trkpt lat="36.894404" lon="8.7249797"><ele>40.0</ele><time>2026-05-02T10:15:39.614Z</time></trkpt><trkpt lat="36.8945069" lon="8.7251497"><ele>37.0</ele><time>2026-05-02T10:15:40.623Z</time></trkpt><trkpt lat="36.8946098" lon="8.7253223"><ele>34.0</ele><time>2026-05-02T10:15:41.643Z</time></trkpt><trkpt lat="36.8947104" lon="8.725496"><ele>31.0</ele><time>2026-05-02T10:15:42.619Z</time></trkpt><trkpt lat="36.8948167" lon="8.7256683"><ele>31.0</ele><time>2026-05-02T10:15:43.63Z</time></trkpt><trkpt lat="36.8949201" lon="8.7258414"><ele>31.0</ele><time>2026-05-02T10:15:44.63Z</time></trkpt><trkpt lat="36.8950145" lon="8.7260243"><ele>31.0</ele><time>2026-05-02T10:15:45.624Z</time></trkpt><trkpt lat="36.8951087" lon="8.7262065"><ele>34.333333333333336</ele><time>2026-05-02T10:15:46.634Z</time></trkpt><trkpt lat="36.8951932" lon="8.7263921"><ele>37.666666666666664</ele><time>2026-05-02T10:15:47.621Z</time></trkpt><trkpt lat="36.8952729" lon="8.7265836"><ele>41.0</ele><time>2026-05-02T10:15:48.634Z</time></trkpt><trkpt lat="36.8953481" lon="8.7267731"><ele>38.666666666666664</ele><time>2026-05-02T10:15:49.621Z</time></trkpt><trkpt lat="36.8954136" lon="8.7269643"><ele>36.333333333333336</ele><time>2026-05-02T10:15:50.631Z</time></trkpt><trkpt lat="36.8954766" lon="8.7271673"><ele>34.0</ele><time>2026-05-02T10:15:51.611Z</time></trkpt><trkpt lat="36.8955367" lon="8.7273752"><ele>34.0</ele><time>2026-05-02T10:15:52.618Z</time></trkpt><trkpt lat="36.8955927" lon="8.7275799"><ele>34.0</ele><time>2026-05-02T10:15:53.615Z</time></trkpt><trkpt lat="36.8956465" lon="8.7277857"><ele>34.0</ele><time>2026-05-02T10:15:54.646Z</time></trkpt><trkpt lat="36.8956865" lon="8.727992"><ele>32.66666666666667</ele><time>2026-05-02T10:15:55.623Z</time></trkpt><trkpt lat="36.8957181" lon="8.7282033"><ele>31.333333333333336</ele><time>2026-05-02T10:15:56.614Z</time></trkpt><trkpt lat="36.8957464" lon="8.7284157"><ele>30.0</ele><time>2026-05-02T10:15:57.621Z</time></trkpt><trkpt lat="36.895773" lon="8.7286283"><ele>28.333333333333336</ele><time>2026-05-02T10:15:58.615Z</time></trkpt><trkpt lat="36.8957895" lon="8.7288511"><ele>26.666666666666668</ele><time>2026-05-02T10:15:59.626Z</time></trkpt><trkpt lat="36.8957953" lon="8.7290736"><ele>25.0</ele><time>2026-05-02T10:16:00.622Z</time></trkpt><trkpt lat="36.8957995" lon="8.7292886"><ele>22.666666666666668</ele><time>2026-05-02T10:16:01.623Z</time></trkpt><trkpt lat="36.8957957" lon="8.7295035"><ele>20.333333333333336</ele><time>2026-05-02T10:16:02.623Z</time></trkpt><trkpt lat="36.8957868" lon="8.7297227"><ele>18.0</ele><time>2026-05-02T10:16:03.634Z</time></trkpt><trkpt lat="36.8957698" lon="8.7299423"><ele>18.0</ele><time>2026-05-02T10:16:04.626Z</time></trkpt><trkpt lat="36.8957511" lon="8.7301694"><ele>18.0</ele><time>2026-05-02T10:16:05.621Z</time></trkpt><trkpt lat="36.8957249" lon="8.7303917"><ele>18.0</ele><time>2026-05-02T10:16:06.632Z</time></trkpt><trkpt lat="36.8956949" lon="8.7306109"><ele>17.666666666666668</ele><time>2026-05-02T10:16:07.618Z</time></trkpt><trkpt lat="36.8956602" lon="8.73083"><ele>17.333333333333336</ele><time>2026-05-02T10:16:08.625Z</time></trkpt><trkpt lat="36.8956179" lon="8.7310537"><ele>17.0</ele><time>2026-05-02T10:16:09.628Z</time></trkpt><trkpt lat="36.8955745" lon="8.7312797"><ele>17.0</ele><time>2026-05-02T10:16:10.631Z</time></trkpt><trkpt lat="36.895527" lon="8.7314986"><ele>17.0</ele><time>2026-05-02T10:16:11.625Z</time></trkpt><trkpt lat="36.8954786" lon="8.7317232"><ele>17.0</ele><time>2026-05-02T10:16:12.628Z</time></trkpt><trkpt lat="36.8954267" lon="8.7319503"><ele>16.666666666666668</ele><time>2026-05-02T10:16:13.627Z</time></trkpt><trkpt lat="36.8953788" lon="8.7321775"><ele>16.333333333333332</ele><time>2026-05-02T10:16:14.625Z</time></trkpt><trkpt lat="36.8953277" lon="8.7324069"><ele>16.0</ele><time>2026-05-02T10:16:15.625Z</time></trkpt><trkpt lat="36.8952764" lon="8.7326383"><ele>15.666666666666666</ele><time>2026-05-02T10:16:16.624Z</time></trkpt><trkpt lat="36.8952288" lon="8.7328683"><ele>15.333333333333332</ele><time>2026-05-02T10:16:17.62Z</time></trkpt><trkpt lat="36.89518" lon="8.7330993"><ele>15.0</ele><time>2026-05-02T10:16:18.609Z</time></trkpt><trkpt lat="36.8951346" lon="8.7333262"><ele>16.0</ele><time>2026-05-02T10:16:19.623Z</time></trkpt><trkpt lat="36.8950851" lon="8.733552"><ele>17.0</ele><time>2026-05-02T10:16:20.629Z</time></trkpt><trkpt lat="36.895044" lon="8.7337766"><ele>18.0</ele><time>2026-05-02T10:16:21.624Z</time></trkpt><trkpt lat="36.8950093" lon="8.7340047"><ele>19.666666666666668</ele><time>2026-05-02T10:16:22.63Z</time></trkpt><trkpt lat="36.8949814" lon="8.734231"><ele>21.333333333333336</ele><time>2026-05-02T10:16:23.631Z</time></trkpt><trkpt lat="36.8949611" lon="8.7344521"><ele>23.0</ele><time>2026-05-02T10:16:24.619Z</time></trkpt><trkpt lat="36.8949584" lon="8.7346707"><ele>23.666666666666668</ele><time>2026-05-02T10:16:25.626Z</time></trkpt><trkpt lat="36.8949664" lon="8.7349008"><ele>24.333333333333336</ele><time>2026-05-02T10:16:26.622Z</time></trkpt><trkpt lat="36.8949796" lon="8.7351289"><ele>25.0</ele><time>2026-05-02T10:16:27.629Z</time></trkpt><trkpt lat="36.8950107" lon="8.7353481"><ele>28.0</ele><time>2026-05-02T10:16:28.621Z</time></trkpt><trkpt lat="36.8950472" lon="8.7355587"><ele>31.0</ele><time>2026-05-02T10:16:29.624Z</time></trkpt><trkpt lat="36.8950888" lon="8.7357726"><ele>34.0</ele><time>2026-05-02T10:16:30.625Z</time></trkpt><trkpt lat="36.8951366" lon="8.7359829"><ele>28.0</ele><time>2026-05-02T10:16:31.622Z</time></trkpt><trkpt lat="36.8951866" lon="8.7361828"><ele>22.0</ele><time>2026-05-02T10:16:32.623Z</time></trkpt><trkpt lat="36.8952291" lon="8.7363863"><ele>16.0</ele><time>2026-05-02T10:16:33.617Z</time></trkpt><trkpt lat="36.8952679" lon="8.7365942"><ele>16.0</ele><time>2026-05-02T10:16:34.629Z</time></trkpt><trkpt lat="36.8952969" lon="8.7368123"><ele>16.0</ele><time>2026-05-02T10:16:35.617Z</time></trkpt><trkpt lat="36.8953117" lon="8.7370395"><ele>16.0</ele><time>2026-05-02T10:16:36.632Z</time></trkpt><trkpt lat="36.8953082" lon="8.737278"><ele>16.333333333333332</ele><time>2026-05-02T10:16:37.624Z</time></trkpt><trkpt lat="36.8952984" lon="8.737513"><ele>16.666666666666668</ele><time>2026-05-02T10:16:38.621Z</time></trkpt><trkpt lat="36.8952798" lon="8.7377444"><ele>17.0</ele><time>2026-05-02T10:16:39.623Z</time></trkpt><trkpt lat="36.8952624" lon="8.737982"><ele>17.0</ele><time>2026-05-02T10:16:40.627Z</time></trkpt><trkpt lat="36.8952429" lon="8.7382165"><ele>17.0</ele><time>2026-05-02T10:16:41.641Z</time></trkpt><trkpt lat="36.8952278" lon="8.7384539"><ele>17.0</ele><time>2026-05-02T10:16:42.619Z</time></trkpt><trkpt lat="36.8952157" lon="8.7386782"><ele>17.0</ele><time>2026-05-02T10:16:43.623Z</time></trkpt><trkpt lat="36.895202" lon="8.7388999"><ele>17.0</ele><time>2026-05-02T10:16:44.625Z</time></trkpt><trkpt lat="36.8951849" lon="8.7391016"><ele>17.0</ele><time>2026-05-02T10:16:45.62Z</time></trkpt><trkpt lat="36.8951474" lon="8.7392944"><ele>16.75</ele><time>2026-05-02T10:16:46.626Z</time></trkpt><trkpt lat="36.895096" lon="8.7394635"><ele>16.5</ele><time>2026-05-02T10:16:47.638Z</time></trkpt><trkpt lat="36.8950128" lon="8.7396164"><ele>16.25</ele><time>2026-05-02T10:16:48.613Z</time></trkpt><trkpt lat="36.8949241" lon="8.739756"><ele>16.0</ele><time>2026-05-02T10:16:49.619Z</time></trkpt><trkpt lat="36.8948228" lon="8.7398878"><ele>17.0</ele><time>2026-05-02T10:16:50.619Z</time></trkpt><trkpt lat="36.8947073" lon="8.7400033"><ele>18.0</ele><time>2026-05-02T10:16:51.619Z</time></trkpt><trkpt lat="36.8945803" lon="8.7401072"><ele>19.0</ele><time>2026-05-02T10:16:52.619Z</time></trkpt><trkpt lat="36.8944341" lon="8.7401844"><ele>19.333333333333332</ele><time>2026-05-02T10:16:53.627Z</time></trkpt><trkpt lat="36.8942885" lon="8.7402356"><ele>19.666666666666668</ele><time>2026-05-02T10:16:54.624Z</time></trkpt><trkpt lat="36.894138" lon="8.7402491"><ele>20.0</ele><time>2026-05-02T10:16:55.628Z</time></trkpt><trkpt lat="36.8939816" lon="8.7402346"><ele>21.333333333333336</ele><time>2026-05-02T10:16:56.635Z</time></trkpt><trkpt lat="36.8938251" lon="8.7402074"><ele>22.666666666666668</ele><time>2026-05-02T10:16:57.628Z</time></trkpt><trkpt lat="36.893671" lon="8.7401692"><ele>24.0</ele><time>2026-05-02T10:16:58.633Z</time></trkpt><trkpt lat="36.8935202" lon="8.7401176"><ele>24.666666666666664</ele><time>2026-05-02T10:16:59.629Z</time></trkpt><trkpt lat="36.8933676" lon="8.7400678"><ele>25.333333333333332</ele><time>2026-05-02T10:17:00.628Z</time></trkpt><trkpt lat="36.893216" lon="8.740017"><ele>26.0</ele><time>2026-05-02T10:17:01.639Z</time></trkpt><trkpt lat="36.8930593" lon="8.7399743"><ele>26.0</ele><time>2026-05-02T10:17:02.605Z</time></trkpt><trkpt lat="36.8929048" lon="8.7399393"><ele>26.0</ele><time>2026-05-02T10:17:03.602Z</time></trkpt><trkpt lat="36.8927507" lon="8.7399106"><ele>26.0</ele><time>2026-05-02T10:17:04.605Z</time></trkpt><trkpt lat="36.8925936" lon="8.7398878"><ele>26.0</ele><time>2026-05-02T10:17:05.618Z</time></trkpt><trkpt lat="36.892434" lon="8.7398712"><ele>26.0</ele><time>2026-05-02T10:17:06.611Z</time></trkpt><trkpt lat="36.8922768" lon="8.7398649"><ele>26.0</ele><time>2026-05-02T10:17:07.623Z</time></trkpt><trkpt lat="36.8921217" lon="8.7398653"><ele>26.0</ele><time>2026-05-02T10:17:08.602Z</time></trkpt><trkpt lat="36.8919613" lon="8.7398791"><ele>26.0</ele><time>2026-05-02T10:17:09.644Z</time></trkpt><trkpt lat="36.891804" lon="8.7398983"><ele>26.0</ele><time>2026-05-02T10:17:10.609Z</time></trkpt><trkpt lat="36.8916371" lon="8.7399264"><ele>26.333333333333332</ele><time>2026-05-02T10:17:11.6Z</time></trkpt><trkpt lat="36.8914705" lon="8.7399435"><ele>26.666666666666664</ele><time>2026-05-02T10:17:12.601Z</time></trkpt><trkpt lat="36.8913012" lon="8.7399652"><ele>27.0</ele><time>2026-05-02T10:17:13.609Z</time></trkpt><trkpt lat="36.891135" lon="8.7399894"><ele>27.0</ele><time>2026-05-02T10:17:14.697Z</time></trkpt><trkpt lat="36.8909716" lon="8.7400238"><ele>27.0</ele><time>2026-05-02T10:17:15.605Z</time></trkpt><trkpt lat="36.8908109" lon="8.7400695"><ele>27.0</ele><time>2026-05-02T10:17:16.644Z</time></trkpt><trkpt lat="36.890654" lon="8.7401324"><ele>27.0</ele><time>2026-05-02T10:17:17.611Z</time></trkpt><trkpt lat="36.8905055" lon="8.7402056"><ele>27.0</ele><time>2026-05-02T10:17:18.611Z</time></trkpt><trkpt lat="36.8903728" lon="8.740295"><ele>27.0</ele><time>2026-05-02T10:17:19.605Z</time></trkpt><trkpt lat="36.8902391" lon="8.740403"><ele>26.333333333333336</ele><time>2026-05-02T10:17:20.638Z</time></trkpt><trkpt lat="36.8901211" lon="8.7405333"><ele>25.666666666666668</ele><time>2026-05-02T10:17:21.608Z</time></trkpt><trkpt lat="36.8900275" lon="8.7406914"><ele>25.0</ele><time>2026-05-02T10:17:22.609Z</time></trkpt><trkpt lat="36.8899488" lon="8.7408531"><ele>25.0</ele><time>2026-05-02T10:17:23.607Z</time></trkpt><trkpt lat="36.8898781" lon="8.7410187"><ele>25.0</ele><time>2026-05-02T10:17:24.603Z</time></trkpt><trkpt lat="36.8898155" lon="8.7411985"><ele>25.0</ele><time>2026-05-02T10:17:25.609Z</time></trkpt><trkpt lat="36.8897588" lon="8.7413919"><ele>25.333333333333336</ele><time>2026-05-02T10:17:26.633Z</time></trkpt><trkpt lat="36.8897021" lon="8.7415821"><ele>25.666666666666664</ele><time>2026-05-02T10:17:27.655Z</time></trkpt><trkpt lat="36.8896521" lon="8.7417675"><ele>26.0</ele><time>2026-05-02T10:17:28.594Z</time></trkpt><trkpt lat="36.8896064" lon="8.7419459"><ele>26.5</ele><time>2026-05-02T10:17:29.593Z</time></trkpt><trkpt lat="36.8895819" lon="8.7421238"><ele>27.0</ele><time>2026-05-02T10:17:30.604Z</time></trkpt><trkpt lat="36.889584" lon="8.7423036"><ele>27.5</ele><time>2026-05-02T10:17:31.611Z</time></trkpt><trkpt lat="36.8896106" lon="8.7424814"><ele>28.0</ele><time>2026-05-02T10:17:32.607Z</time></trkpt><trkpt lat="36.8896592" lon="8.7426493"><ele>29.5</ele><time>2026-05-02T10:17:33.603Z</time></trkpt><trkpt lat="36.8897351" lon="8.7427904"><ele>31.0</ele><time>2026-05-02T10:17:34.602Z</time></trkpt><trkpt lat="36.8898277" lon="8.7429249"><ele>32.5</ele><time>2026-05-02T10:17:35.629Z</time></trkpt><trkpt lat="36.8899355" lon="8.7430355"><ele>34.0</ele><time>2026-05-02T10:17:36.606Z</time></trkpt><trkpt lat="36.8900617" lon="8.7431236"><ele>33.5</ele><time>2026-05-02T10:17:37.603Z</time></trkpt><trkpt lat="36.8901872" lon="8.7431875"><ele>33.0</ele><time>2026-05-02T10:17:38.616Z</time></trkpt><trkpt lat="36.8903127" lon="8.7432449"><ele>32.5</ele><time>2026-05-02T10:17:39.6Z</time></trkpt><trkpt lat="36.8904458" lon="8.7433033"><ele>32.0</ele><time>2026-05-02T10:17:40.615Z</time></trkpt><trkpt lat="36.8905867" lon="8.7433533"><ele>32.0</ele><time>2026-05-02T10:17:41.615Z</time></trkpt><trkpt lat="36.8907322" lon="8.7434086"><ele>32.0</ele><time>2026-05-02T10:17:42.612Z</time></trkpt><trkpt lat="36.8908808" lon="8.7434607"><ele>32.0</ele><time>2026-05-02T10:17:43.607Z</time></trkpt><trkpt lat="36.8910303" lon="8.7435081"><ele>32.5</ele><time>2026-05-02T10:17:44.609Z</time></trkpt><trkpt lat="36.891176" lon="8.7435589"><ele>33.0</ele><time>2026-05-02T10:17:45.595Z</time></trkpt><trkpt lat="36.891317" lon="8.743604"><ele>33.5</ele><time>2026-05-02T10:17:46.605Z</time></trkpt><trkpt lat="36.8914577" lon="8.7436538"><ele>34.0</ele><time>2026-05-02T10:17:47.608Z</time></trkpt><trkpt lat="36.8915989" lon="8.7437072"><ele>34.0</ele><time>2026-05-02T10:17:48.602Z</time></trkpt><trkpt lat="36.8917364" lon="8.7437561"><ele>34.0</ele><time>2026-05-02T10:17:49.605Z</time></trkpt><trkpt lat="36.8918755" lon="8.7438123"><ele>34.0</ele><time>2026-05-02T10:17:50.596Z</time></trkpt><trkpt lat="36.8920164" lon="8.7438633"><ele>34.0</ele><time>2026-05-02T10:17:51.638Z</time></trkpt><trkpt lat="36.8921508" lon="8.7439161"><ele>33.25</ele><time>2026-05-02T10:17:52.609Z</time></trkpt><trkpt lat="36.892286" lon="8.743965"><ele>32.5</ele><time>2026-05-02T10:17:53.609Z</time></trkpt><trkpt lat="36.8924184" lon="8.7440148"><ele>31.75</ele><time>2026-05-02T10:17:54.611Z</time></trkpt><trkpt lat="36.8925542" lon="8.7440631"><ele>31.0</ele><time>2026-05-02T10:17:55.612Z</time></trkpt><trkpt lat="36.8926875" lon="8.7441152"><ele>30.0</ele><time>2026-05-02T10:17:56.61Z</time></trkpt><trkpt lat="36.8928184" lon="8.7441617"><ele>29.0</ele><time>2026-05-02T10:17:57.6Z</time></trkpt><trkpt lat="36.8929514" lon="8.7442087"><ele>28.0</ele><time>2026-05-02T10:17:58.616Z</time></trkpt><trkpt lat="36.8930843" lon="8.7442605"><ele>27.0</ele><time>2026-05-02T10:17:59.61Z</time></trkpt><trkpt lat="36.8932182" lon="8.7443067"><ele>27.0</ele><time>2026-05-02T10:18:00.609Z</time></trkpt><trkpt lat="36.893353" lon="8.7443536"><ele>27.0</ele><time>2026-05-02T10:18:01.602Z</time></trkpt><trkpt lat="36.8934858" lon="8.7444041"><ele>27.0</ele><time>2026-05-02T10:18:02.598Z</time></trkpt><trkpt lat="36.8936216" lon="8.7444537"><ele>27.0</ele><time>2026-05-02T10:18:03.616Z</time></trkpt><trkpt lat="36.8937579" lon="8.7445043"><ele>26.25</ele><time>2026-05-02T10:18:04.617Z</time></trkpt><trkpt lat="36.8938938" lon="8.7445512"><ele>25.5</ele><time>2026-05-02T10:18:05.609Z</time></trkpt><trkpt lat="36.8940248" lon="8.7445952"><ele>24.75</ele><time>2026-05-02T10:18:06.623Z</time></trkpt><trkpt lat="36.8941525" lon="8.7446397"><ele>24.0</ele><time>2026-05-02T10:18:07.615Z</time></trkpt><trkpt lat="36.8942768" lon="8.7446895"><ele>23.25</ele><time>2026-05-02T10:18:08.597Z</time></trkpt><trkpt lat="36.8943969" lon="8.7447344"><ele>22.5</ele><time>2026-05-02T10:18:09.621Z</time></trkpt><trkpt lat="36.8945146" lon="8.7447803"><ele>21.75</ele><time>2026-05-02T10:18:10.602Z</time></trkpt><trkpt lat="36.8946302" lon="8.7448252"><ele>21.0</ele><time>2026-05-02T10:18:11.618Z</time></trkpt><trkpt lat="36.8947408" lon="8.7448708"><ele>21.0</ele><time>2026-05-02T10:18:12.613Z</time></trkpt><trkpt lat="36.8948334" lon="8.7449067"><ele>21.0</ele><time>2026-05-02T10:18:13.602Z</time></trkpt><trkpt lat="36.8949109" lon="8.7449382"><ele>21.0</ele><time>2026-05-02T10:18:14.601Z</time></trkpt><trkpt lat="36.8950043" lon="8.7449808"><ele>21.0</ele><time>2026-05-02T10:18:16.61Z</time></trkpt><trkpt lat="36.8950767" lon="8.7450057"><ele>21.0</ele><time>2026-05-02T10:18:18.614Z</time></trkpt><trkpt lat="36.8951809" lon="8.7450324"><ele>20.5</ele><time>2026-05-02T10:18:20.617Z</time></trkpt><trkpt lat="36.8952515" lon="8.7450552"><ele>20.0</ele><time>2026-05-02T10:18:21.611Z</time></trkpt><trkpt lat="36.8953219" lon="8.7450775"><ele>19.5</ele><time>2026-05-02T10:18:22.616Z</time></trkpt><trkpt lat="36.8953865" lon="8.7451025"><ele>19.0</ele><time>2026-05-02T10:18:23.61Z</time></trkpt><trkpt lat="36.8954734" lon="8.7451232"><ele>18.5</ele><time>2026-05-02T10:18:25.628Z</time></trkpt><trkpt lat="36.8955641" lon="8.7451407"><ele>18.0</ele><time>2026-05-02T10:18:27.607Z</time></trkpt><trkpt lat="36.8956809" lon="8.7451963"><ele>18.166666666666668</ele><time>2026-05-02T10:18:29.596Z</time></trkpt><trkpt lat="36.8957463" lon="8.7452237"><ele>18.333333333333332</ele><time>2026-05-02T10:18:30.604Z</time></trkpt><trkpt lat="36.8958153" lon="8.7452504"><ele>18.5</ele><time>2026-05-02T10:18:31.633Z</time></trkpt><trkpt lat="36.8958923" lon="8.7452784"><ele>18.666666666666664</ele><time>2026-05-02T10:18:32.616Z</time></trkpt><trkpt lat="36.8959807" lon="8.7453096"><ele>18.833333333333332</ele><time>2026-05-02T10:18:33.611Z</time></trkpt><trkpt lat="36.8960767" lon="8.7453444"><ele>19.0</ele><time>2026-05-02T10:18:34.61Z</time></trkpt><trkpt lat="36.896176" lon="8.7453829"><ele>19.0</ele><time>2026-05-02T10:18:35.606Z</time></trkpt><trkpt lat="36.8962813" lon="8.7454284"><ele>19.0</ele><time>2026-05-02T10:18:36.604Z</time></trkpt><trkpt lat="36.8963927" lon="8.7454758"><ele>19.0</ele><time>2026-05-02T10:18:37.595Z</time></trkpt><trkpt lat="36.8965169" lon="8.7455186"><ele>19.0</ele><time>2026-05-02T10:18:38.606Z</time></trkpt><trkpt lat="36.8966442" lon="8.7455606"><ele>18.75</ele><time>2026-05-02T10:18:39.607Z</time></trkpt><trkpt lat="36.8967724" lon="8.7456079"><ele>18.5</ele><time>2026-05-02T10:18:40.606Z</time></trkpt><trkpt lat="36.8969009" lon="8.7456571"><ele>18.25</ele><time>2026-05-02T10:18:41.596Z</time></trkpt><trkpt lat="36.8970399" lon="8.745704"><ele>18.0</ele><time>2026-05-02T10:18:42.616Z</time></trkpt><trkpt lat="36.8971664" lon="8.7457483"><ele>18.0</ele><time>2026-05-02T10:18:43.603Z</time></trkpt><trkpt lat="36.8972875" lon="8.7457887"><ele>18.0</ele><time>2026-05-02T10:18:44.61Z</time></trkpt><trkpt lat="36.8974031" lon="8.7458276"><ele>18.0</ele><time>2026-05-02T10:18:45.597Z</time></trkpt><trkpt lat="36.8975121" lon="8.7458609"><ele>18.0</ele><time>2026-05-02T10:18:46.6Z</time></trkpt><trkpt lat="36.8976296" lon="8.7458977"><ele>17.8</ele><time>2026-05-02T10:18:47.608Z</time></trkpt><trkpt lat="36.897743" lon="8.7459396"><ele>17.6</ele><time>2026-05-02T10:18:48.625Z</time></trkpt><trkpt lat="36.8978564" lon="8.7459794"><ele>17.4</ele><time>2026-05-02T10:18:49.604Z</time></trkpt><trkpt lat="36.8979627" lon="8.7460182"><ele>17.2</ele><time>2026-05-02T10:18:50.608Z</time></trkpt><trkpt lat="36.8980503" lon="8.7460522"><ele>17.0</ele><time>2026-05-02T10:18:51.608Z</time></trkpt><trkpt lat="36.8981284" lon="8.746081"><ele>17.0</ele><time>2026-05-02T10:18:52.633Z</time></trkpt><trkpt lat="36.8982065" lon="8.7461127"><ele>17.0</ele><time>2026-05-02T10:18:53.599Z</time></trkpt><trkpt lat="36.8982933" lon="8.7461467"><ele>17.0</ele><time>2026-05-02T10:18:54.606Z</time></trkpt><trkpt lat="36.8983918" lon="8.7461847"><ele>17.0</ele><time>2026-05-02T10:18:55.605Z</time></trkpt><trkpt lat="36.8985038" lon="8.7462245"><ele>17.0</ele><time>2026-05-02T10:18:56.607Z</time></trkpt><trkpt lat="36.8986339" lon="8.7462784"><ele>17.0</ele><time>2026-05-02T10:18:57.609Z</time></trkpt><trkpt lat="36.89877" lon="8.7463297"><ele>17.0</ele><time>2026-05-02T10:18:58.597Z</time></trkpt><trkpt lat="36.8989045" lon="8.746383"><ele>17.0</ele><time>2026-05-02T10:18:59.604Z</time></trkpt><trkpt lat="36.8990408" lon="8.7464366"><ele>17.0</ele><time>2026-05-02T10:19:00.602Z</time></trkpt><trkpt lat="36.8991764" lon="8.7464859"><ele>16.75</ele><time>2026-05-02T10:19:01.607Z</time></trkpt><trkpt lat="36.8993157" lon="8.7465351"><ele>16.5</ele><time>2026-05-02T10:19:02.612Z</time></trkpt><trkpt lat="36.8994634" lon="8.7465845"><ele>16.25</ele><time>2026-05-02T10:19:03.605Z</time></trkpt><trkpt lat="36.8996085" lon="8.7466331"><ele>16.0</ele><time>2026-05-02T10:19:04.599Z</time></trkpt><trkpt lat="36.8997683" lon="8.7466837"><ele>16.0</ele><time>2026-05-02T10:19:05.623Z</time></trkpt><trkpt lat="36.8999421" lon="8.746738"><ele>16.0</ele><time>2026-05-02T10:19:06.612Z</time></trkpt><trkpt lat="36.9001348" lon="8.7468043"><ele>16.0</ele><time>2026-05-02T10:19:07.611Z</time></trkpt><trkpt lat="36.9003441" lon="8.7468885"><ele>15.666666666666666</ele><time>2026-05-02T10:19:08.629Z</time></trkpt><trkpt lat="36.9005478" lon="8.7469713"><ele>15.333333333333332</ele><time>2026-05-02T10:19:09.612Z</time></trkpt><trkpt lat="36.9007366" lon="8.7470467"><ele>15.0</ele><time>2026-05-02T10:19:10.612Z</time></trkpt><trkpt lat="36.900911" lon="8.7471156"><ele>15.0</ele><time>2026-05-02T10:19:11.609Z</time></trkpt><trkpt lat="36.9010751" lon="8.7471713"><ele>15.0</ele><time>2026-05-02T10:19:12.602Z</time></trkpt><trkpt lat="36.9012342" lon="8.747226"><ele>15.0</ele><time>2026-05-02T10:19:13.634Z</time></trkpt><trkpt lat="36.9013888" lon="8.7472719"><ele>15.0</ele><time>2026-05-02T10:19:14.613Z</time></trkpt><trkpt lat="36.9015377" lon="8.747331"><ele>15.0</ele><time>2026-05-02T10:19:15.608Z</time></trkpt><trkpt lat="36.9016898" lon="8.747388"><ele>15.0</ele><time>2026-05-02T10:19:16.605Z</time></trkpt><trkpt lat="36.9018402" lon="8.7474454"><ele>14.666666666666668</ele><time>2026-05-02T10:19:17.603Z</time></trkpt><trkpt lat="36.9019931" lon="8.747502"><ele>14.333333333333334</ele><time>2026-05-02T10:19:18.612Z</time></trkpt><trkpt lat="36.9021484" lon="8.7475614"><ele>14.0</ele><time>2026-05-02T10:19:19.608Z</time></trkpt><trkpt lat="36.9023075" lon="8.7476233"><ele>14.0</ele><time>2026-05-02T10:19:20.602Z</time></trkpt><trkpt lat="36.9024701" lon="8.7476792"><ele>14.0</ele><time>2026-05-02T10:19:21.603Z</time></trkpt><trkpt lat="36.9026311" lon="8.7477319"><ele>14.0</ele><time>2026-05-02T10:19:22.604Z</time></trkpt><trkpt lat="36.9027929" lon="8.7477881"><ele>13.333333333333334</ele><time>2026-05-02T10:19:23.608Z</time></trkpt><trkpt lat="36.902958" lon="8.7478499"><ele>12.666666666666668</ele><time>2026-05-02T10:19:24.603Z</time></trkpt><trkpt lat="36.9031194" lon="8.7479097"><ele>12.0</ele><time>2026-05-02T10:19:25.63Z</time></trkpt><trkpt lat="36.9032822" lon="8.7479685"><ele>11.666666666666666</ele><time>2026-05-02T10:19:26.611Z</time></trkpt><trkpt lat="36.903439" lon="8.7480265"><ele>11.333333333333332</ele><time>2026-05-02T10:19:27.604Z</time></trkpt><trkpt lat="36.9035958" lon="8.7480852"><ele>11.0</ele><time>2026-05-02T10:19:28.609Z</time></trkpt><trkpt lat="36.9037595" lon="8.7481406"><ele>11.0</ele><time>2026-05-02T10:19:29.616Z</time></trkpt><trkpt lat="36.9039191" lon="8.7482007"><ele>11.0</ele><time>2026-05-02T10:19:30.606Z</time></trkpt><trkpt lat="36.9040777" lon="8.7482558"><ele>11.0</ele><time>2026-05-02T10:19:31.611Z</time></trkpt><trkpt lat="36.9042314" lon="8.7483121"><ele>11.666666666666666</ele><time>2026-05-02T10:19:32.615Z</time></trkpt><trkpt lat="36.9043877" lon="8.7483706"><ele>12.333333333333332</ele><time>2026-05-02T10:19:33.612Z</time></trkpt><trkpt lat="36.9045456" lon="8.748428"><ele>13.0</ele><time>2026-05-02T10:19:34.607Z</time></trkpt><trkpt lat="36.9047027" lon="8.7484824"><ele>13.0</ele><time>2026-05-02T10:19:35.628Z</time></trkpt><trkpt lat="36.904861" lon="8.7485428"><ele>13.0</ele><time>2026-05-02T10:19:36.612Z</time></trkpt><trkpt lat="36.9050193" lon="8.7486008"><ele>13.0</ele><time>2026-05-02T10:19:37.605Z</time></trkpt><trkpt lat="36.9051777" lon="8.7486578"><ele>13.333333333333332</ele><time>2026-05-02T10:19:38.611Z</time></trkpt><trkpt lat="36.9053353" lon="8.748715"><ele>13.666666666666668</ele><time>2026-05-02T10:19:39.608Z</time></trkpt><trkpt lat="36.9054931" lon="8.748772"><ele>14.0</ele><time>2026-05-02T10:19:40.607Z</time></trkpt><trkpt lat="36.9056509" lon="8.7488277"><ele>14.0</ele><time>2026-05-02T10:19:41.611Z</time></trkpt><trkpt lat="36.9058055" lon="8.7488864"><ele>14.0</ele><time>2026-05-02T10:19:42.621Z</time></trkpt><trkpt lat="36.9059607" lon="8.7489411"><ele>14.0</ele><time>2026-05-02T10:19:43.612Z</time></trkpt><trkpt lat="36.9061157" lon="8.7489942"><ele>14.0</ele><time>2026-05-02T10:19:44.627Z</time></trkpt><trkpt lat="36.9062708" lon="8.7490475"><ele>14.0</ele><time>2026-05-02T10:19:45.613Z</time></trkpt><trkpt lat="36.9064282" lon="8.749104"><ele>14.0</ele><time>2026-05-02T10:19:46.608Z</time></trkpt><trkpt lat="36.9065899" lon="8.7491604"><ele>13.333333333333334</ele><time>2026-05-02T10:19:47.612Z</time></trkpt><trkpt lat="36.9067544" lon="8.7492212"><ele>12.666666666666668</ele><time>2026-05-02T10:19:48.603Z</time></trkpt><trkpt lat="36.9069303" lon="8.7492817"><ele>12.0</ele><time>2026-05-02T10:19:49.609Z</time></trkpt><trkpt lat="36.9071128" lon="8.7493504"><ele>12.0</ele><time>2026-05-02T10:19:50.604Z</time></trkpt><trkpt lat="36.9072897" lon="8.7494132"><ele>12.0</ele><time>2026-05-02T10:19:51.611Z</time></trkpt><trkpt lat="36.9074703" lon="8.7494793"><ele>12.0</ele><time>2026-05-02T10:19:52.61Z</time></trkpt><trkpt lat="36.9076546" lon="8.7495446"><ele>12.0</ele><time>2026-05-02T10:19:53.604Z</time></trkpt><trkpt lat="36.9078484" lon="8.7496099"><ele>12.0</ele><time>2026-05-02T10:19:54.606Z</time></trkpt><trkpt lat="36.9080475" lon="8.7496855"><ele>12.0</ele><time>2026-05-02T10:19:55.606Z</time></trkpt><trkpt lat="36.908245" lon="8.7497584"><ele>11.333333333333334</ele><time>2026-05-02T10:19:56.601Z</time></trkpt><trkpt lat="36.9084452" lon="8.7498331"><ele>10.666666666666668</ele><time>2026-05-02T10:19:57.6Z</time></trkpt><trkpt lat="36.9086392" lon="8.7499092"><ele>10.0</ele><time>2026-05-02T10:19:58.602Z</time></trkpt><trkpt lat="36.9088298" lon="8.7499783"><ele>10.0</ele><time>2026-05-02T10:19:59.615Z</time></trkpt><trkpt lat="36.9090196" lon="8.7500412"><ele>10.0</ele><time>2026-05-02T10:20:00.605Z</time></trkpt><trkpt lat="36.9092092" lon="8.7501119"><ele>10.0</ele><time>2026-05-02T10:20:01.605Z</time></trkpt><trkpt lat="36.9093919" lon="8.7501792"><ele>10.0</ele><time>2026-05-02T10:20:02.605Z</time></trkpt><trkpt lat="36.9095782" lon="8.7502482"><ele>10.0</ele><time>2026-05-02T10:20:03.606Z</time></trkpt><trkpt lat="36.9097616" lon="8.7503109"><ele>10.0</ele><time>2026-05-02T10:20:04.608Z</time></trkpt><trkpt lat="36.90994" lon="8.7503728"><ele>9.666666666666668</ele><time>2026-05-02T10:20:05.606Z</time></trkpt><trkpt lat="36.9101175" lon="8.7504394"><ele>9.333333333333334</ele><time>2026-05-02T10:20:06.605Z</time></trkpt><trkpt lat="36.9102916" lon="8.7505016"><ele>9.0</ele><time>2026-05-02T10:20:07.602Z</time></trkpt><trkpt lat="36.9104641" lon="8.7505674"><ele>9.0</ele><time>2026-05-02T10:20:08.607Z</time></trkpt><trkpt lat="36.9106354" lon="8.7506294"><ele>9.0</ele><time>2026-05-02T10:20:09.603Z</time></trkpt><trkpt lat="36.9108079" lon="8.7506921"><ele>9.0</ele><time>2026-05-02T10:20:10.608Z</time></trkpt><trkpt lat="36.9109741" lon="8.7507529"><ele>9.666666666666666</ele><time>2026-05-02T10:20:11.601Z</time></trkpt><trkpt lat="36.9111372" lon="8.7508117"><ele>10.333333333333332</ele><time>2026-05-02T10:20:12.606Z</time></trkpt><trkpt lat="36.9112958" lon="8.7508723"><ele>11.0</ele><time>2026-05-02T10:20:13.602Z</time></trkpt><trkpt lat="36.9114488" lon="8.7509274"><ele>11.0</ele><time>2026-05-02T10:20:14.601Z</time></trkpt><trkpt lat="36.911602" lon="8.7509807"><ele>11.0</ele><time>2026-05-02T10:20:15.596Z</time></trkpt><trkpt lat="36.911753" lon="8.751032"><ele>11.0</ele><time>2026-05-02T10:20:16.598Z</time></trkpt><trkpt lat="36.9119083" lon="8.7510832"><ele>11.0</ele><time>2026-05-02T10:20:17.605Z</time></trkpt><trkpt lat="36.912061" lon="8.751135"><ele>11.0</ele><time>2026-05-02T10:20:18.601Z</time></trkpt><trkpt lat="36.9122056" lon="8.751191"><ele>11.0</ele><time>2026-05-02T10:20:19.631Z</time></trkpt><trkpt lat="36.9123518" lon="8.7512469"><ele>11.0</ele><time>2026-05-02T10:20:20.6Z</time></trkpt><trkpt lat="36.9124958" lon="8.751304"><ele>11.0</ele><time>2026-05-02T10:20:21.604Z</time></trkpt><trkpt lat="36.9126385" lon="8.7513587"><ele>11.0</ele><time>2026-05-02T10:20:22.603Z</time></trkpt><trkpt lat="36.9127744" lon="8.7514077"><ele>11.0</ele><time>2026-05-02T10:20:23.6Z</time></trkpt><trkpt lat="36.912908" lon="8.7514596"><ele>11.25</ele><time>2026-05-02T10:20:24.608Z</time></trkpt><trkpt lat="36.9130374" lon="8.7515112"><ele>11.5</ele><time>2026-05-02T10:20:25.614Z</time></trkpt><trkpt lat="36.9131708" lon="8.751555"><ele>11.75</ele><time>2026-05-02T10:20:26.604Z</time></trkpt><trkpt lat="36.913308" lon="8.7516021"><ele>12.0</ele><time>2026-05-02T10:20:27.612Z</time></trkpt><trkpt lat="36.9134442" lon="8.7516536"><ele>11.5</ele><time>2026-05-02T10:20:28.609Z</time></trkpt><trkpt lat="36.9135782" lon="8.7517079"><ele>11.0</ele><time>2026-05-02T10:20:29.608Z</time></trkpt><trkpt lat="36.9137079" lon="8.7517536"><ele>10.5</ele><time>2026-05-02T10:20:30.609Z</time></trkpt><trkpt lat="36.9138405" lon="8.7517958"><ele>10.0</ele><time>2026-05-02T10:20:31.606Z</time></trkpt><trkpt lat="36.913974" lon="8.7518398"><ele>10.0</ele><time>2026-05-02T10:20:32.604Z</time></trkpt><trkpt lat="36.9141023" lon="8.7518917"><ele>10.0</ele><time>2026-05-02T10:20:33.606Z</time></trkpt><trkpt lat="36.9142349" lon="8.751935"><ele>10.0</ele><time>2026-05-02T10:20:34.601Z</time></trkpt><trkpt lat="36.9143678" lon="8.7519844"><ele>10.0</ele><time>2026-05-02T10:20:35.609Z</time></trkpt><trkpt lat="36.9145045" lon="8.7520395"><ele>10.0</ele><time>2026-05-02T10:20:36.6Z</time></trkpt><trkpt lat="36.9146391" lon="8.752092"><ele>10.0</ele><time>2026-05-02T10:20:37.598Z</time></trkpt><trkpt lat="36.9149082" lon="8.7521899"><ele>10.0</ele><time>2026-05-02T10:20:39.631Z</time></trkpt><trkpt lat="36.9150421" lon="8.7522394"><ele>10.0</ele><time>2026-05-02T10:20:40.607Z</time></trkpt><trkpt lat="36.9151769" lon="8.7522834"><ele>10.0</ele><time>2026-05-02T10:20:41.605Z</time></trkpt><trkpt lat="36.9153114" lon="8.7523328"><ele>10.0</ele><time>2026-05-02T10:20:42.604Z</time></trkpt><trkpt lat="36.9154466" lon="8.7523823"><ele>10.0</ele><time>2026-05-02T10:20:43.603Z</time></trkpt><trkpt lat="36.9155813" lon="8.7524344"><ele>10.0</ele><time>2026-05-02T10:20:44.603Z</time></trkpt><trkpt lat="36.9157192" lon="8.7524856"><ele>10.0</ele><time>2026-05-02T10:20:45.608Z</time></trkpt><trkpt lat="36.9158592" lon="8.7525336"><ele>10.0</ele><time>2026-05-02T10:20:46.59Z</time></trkpt><trkpt lat="36.9159981" lon="8.7525798"><ele>10.0</ele><time>2026-05-02T10:20:47.597Z</time></trkpt><trkpt lat="36.9161346" lon="8.7526324"><ele>9.75</ele><time>2026-05-02T10:20:48.596Z</time></trkpt><trkpt lat="36.9162733" lon="8.752684"><ele>9.5</ele><time>2026-05-02T10:20:49.595Z</time></trkpt><trkpt lat="36.9164082" lon="8.7527284"><ele>9.25</ele><time>2026-05-02T10:20:50.606Z</time></trkpt><trkpt lat="36.9165495" lon="8.7527801"><ele>9.0</ele><time>2026-05-02T10:20:51.606Z</time></trkpt><trkpt lat="36.9166892" lon="8.7528315"><ele>9.0</ele><time>2026-05-02T10:20:52.603Z</time></trkpt><trkpt lat="36.9168206" lon="8.7528849"><ele>9.0</ele><time>2026-05-02T10:20:53.604Z</time></trkpt><trkpt lat="36.9169533" lon="8.7529306"><ele>9.0</ele><time>2026-05-02T10:20:54.602Z</time></trkpt><trkpt lat="36.9170851" lon="8.7529803"><ele>9.0</ele><time>2026-05-02T10:20:55.605Z</time></trkpt><trkpt lat="36.9172169" lon="8.7530321"><ele>9.0</ele><time>2026-05-02T10:20:56.608Z</time></trkpt><trkpt lat="36.9173463" lon="8.7530864"><ele>9.0</ele><time>2026-05-02T10:20:57.602Z</time></trkpt><trkpt lat="36.9174757" lon="8.7531363"><ele>9.0</ele><time>2026-05-02T10:20:58.603Z</time></trkpt><trkpt lat="36.9176089" lon="8.7531915"><ele>9.0</ele><time>2026-05-02T10:20:59.594Z</time></trkpt><trkpt lat="36.9177435" lon="8.7532451"><ele>9.5</ele><time>2026-05-02T10:21:00.608Z</time></trkpt><trkpt lat="36.9178774" lon="8.7532982"><ele>10.0</ele><time>2026-05-02T10:21:01.632Z</time></trkpt><trkpt lat="36.9180127" lon="8.753351"><ele>10.5</ele><time>2026-05-02T10:21:02.603Z</time></trkpt><trkpt lat="36.9181525" lon="8.753398"><ele>11.0</ele><time>2026-05-02T10:21:03.609Z</time></trkpt><trkpt lat="36.918296" lon="8.7534474"><ele>10.0</ele><time>2026-05-02T10:21:04.606Z</time></trkpt><trkpt lat="36.9184381" lon="8.7534986"><ele>9.0</ele><time>2026-05-02T10:21:05.608Z</time></trkpt><trkpt lat="36.9185822" lon="8.7535502"><ele>8.0</ele><time>2026-05-02T10:21:06.608Z</time></trkpt><trkpt lat="36.918726" lon="8.7536055"><ele>7.0</ele><time>2026-05-02T10:21:07.608Z</time></trkpt><trkpt lat="36.9188708" lon="8.7536607"><ele>7.0</ele><time>2026-05-02T10:21:08.598Z</time></trkpt><trkpt lat="36.9190187" lon="8.7537135"><ele>7.0</ele><time>2026-05-02T10:21:09.604Z</time></trkpt><trkpt lat="36.9191655" lon="8.7537652"><ele>7.0</ele><time>2026-05-02T10:21:10.612Z</time></trkpt><trkpt lat="36.9193137" lon="8.7538158"><ele>8.666666666666668</ele><time>2026-05-02T10:21:11.609Z</time></trkpt><trkpt lat="36.9194588" lon="8.7538721"><ele>10.333333333333334</ele><time>2026-05-02T10:21:12.607Z</time></trkpt><trkpt lat="36.9196099" lon="8.7539198"><ele>12.0</ele><time>2026-05-02T10:21:13.606Z</time></trkpt><trkpt lat="36.9197576" lon="8.7539636"><ele>12.0</ele><time>2026-05-02T10:21:14.608Z</time></trkpt><trkpt lat="36.9199032" lon="8.7540042"><ele>12.0</ele><time>2026-05-02T10:21:15.598Z</time></trkpt><trkpt lat="36.9200551" lon="8.7540437"><ele>12.0</ele><time>2026-05-02T10:21:16.608Z</time></trkpt><trkpt lat="36.9202325" lon="8.7540795"><ele>11.666666666666666</ele><time>2026-05-02T10:21:17.609Z</time></trkpt><trkpt lat="36.9204224" lon="8.7540956"><ele>11.333333333333332</ele><time>2026-05-02T10:21:18.616Z</time></trkpt><trkpt lat="36.9206183" lon="8.7541213"><ele>11.0</ele><time>2026-05-02T10:21:19.595Z</time></trkpt><trkpt lat="36.9208127" lon="8.7541535"><ele>10.333333333333332</ele><time>2026-05-02T10:21:20.604Z</time></trkpt><trkpt lat="36.9210136" lon="8.7541893"><ele>9.666666666666666</ele><time>2026-05-02T10:21:21.609Z</time></trkpt><trkpt lat="36.9212014" lon="8.7542292"><ele>9.0</ele><time>2026-05-02T10:21:22.603Z</time></trkpt><trkpt lat="36.9213816" lon="8.7542649"><ele>9.0</ele><time>2026-05-02T10:21:23.599Z</time></trkpt><trkpt lat="36.9215575" lon="8.754298"><ele>9.0</ele><time>2026-05-02T10:21:24.609Z</time></trkpt><trkpt lat="36.9217225" lon="8.7543212"><ele>9.0</ele><time>2026-05-02T10:21:25.607Z</time></trkpt><trkpt lat="36.9218878" lon="8.7543518"><ele>8.333333333333334</ele><time>2026-05-02T10:21:26.604Z</time></trkpt><trkpt lat="36.9220476" lon="8.7543807"><ele>7.666666666666667</ele><time>2026-05-02T10:21:27.596Z</time></trkpt><trkpt lat="36.9222068" lon="8.7544092"><ele>7.0</ele><time>2026-05-02T10:21:28.618Z</time></trkpt><trkpt lat="36.9223609" lon="8.754437"><ele>7.0</ele><time>2026-05-02T10:21:29.619Z</time></trkpt><trkpt lat="36.9225174" lon="8.7544647"><ele>7.0</ele><time>2026-05-02T10:21:30.608Z</time></trkpt><trkpt lat="36.9226729" lon="8.7544916"><ele>7.0</ele><time>2026-05-02T10:21:31.594Z</time></trkpt><trkpt lat="36.9228294" lon="8.7545224"><ele>7.0</ele><time>2026-05-02T10:21:32.604Z</time></trkpt><trkpt lat="36.9229886" lon="8.7545505"><ele>7.0</ele><time>2026-05-02T10:21:33.595Z</time></trkpt><trkpt lat="36.9231509" lon="8.7545786"><ele>7.0</ele><time>2026-05-02T10:21:34.605Z</time></trkpt><trkpt lat="36.9233122" lon="8.7546099"><ele>7.0</ele><time>2026-05-02T10:21:35.612Z</time></trkpt><trkpt lat="36.9234762" lon="8.7546441"><ele>7.0</ele><time>2026-05-02T10:21:36.608Z</time></trkpt><trkpt lat="36.9236377" lon="8.7546736"><ele>7.0</ele><time>2026-05-02T10:21:37.612Z</time></trkpt><trkpt lat="36.9238006" lon="8.7547054"><ele>7.0</ele><time>2026-05-02T10:21:38.607Z</time></trkpt><trkpt lat="36.9239636" lon="8.7547379"><ele>7.0</ele><time>2026-05-02T10:21:39.606Z</time></trkpt><trkpt lat="36.9241229" lon="8.7547702"><ele>7.0</ele><time>2026-05-02T10:21:40.609Z</time></trkpt><trkpt lat="36.9242837" lon="8.7548033"><ele>7.0</ele><time>2026-05-02T10:21:41.603Z</time></trkpt><trkpt lat="36.9244466" lon="8.7548302"><ele>7.0</ele><time>2026-05-02T10:21:42.603Z</time></trkpt><trkpt lat="36.9246036" lon="8.7548565"><ele>7.0</ele><time>2026-05-02T10:21:43.599Z</time></trkpt><trkpt lat="36.9247655" lon="8.7548819"><ele>7.0</ele><time>2026-05-02T10:21:44.603Z</time></trkpt><trkpt lat="36.9249226" lon="8.7549093"><ele>7.0</ele><time>2026-05-02T10:21:45.607Z</time></trkpt><trkpt lat="36.925083" lon="8.754936"><ele>7.0</ele><time>2026-05-02T10:21:46.6Z</time></trkpt><trkpt lat="36.9252458" lon="8.7549696"><ele>6.333333333333334</ele><time>2026-05-02T10:21:47.62Z</time></trkpt><trkpt lat="36.9254079" lon="8.7550026"><ele>5.666666666666667</ele><time>2026-05-02T10:21:48.605Z</time></trkpt><trkpt lat="36.925569" lon="8.7550369"><ele>5.0</ele><time>2026-05-02T10:21:49.593Z</time></trkpt><trkpt lat="36.9257314" lon="8.755069"><ele>5.0</ele><time>2026-05-02T10:21:50.597Z</time></trkpt><trkpt lat="36.9258909" lon="8.7550993"><ele>5.0</ele><time>2026-05-02T10:21:51.596Z</time></trkpt><trkpt lat="36.9260472" lon="8.7551248"><ele>5.0</ele><time>2026-05-02T10:21:52.595Z</time></trkpt><trkpt lat="36.9262042" lon="8.7551514"><ele>4.666666666666667</ele><time>2026-05-02T10:21:53.618Z</time></trkpt><trkpt lat="36.9263649" lon="8.7551798"><ele>4.333333333333333</ele><time>2026-05-02T10:21:54.605Z</time></trkpt><trkpt lat="36.9265291" lon="8.7552139"><ele>4.0</ele><time>2026-05-02T10:21:55.612Z</time></trkpt><trkpt lat="36.9267067" lon="8.7552491"><ele>4.333333333333333</ele><time>2026-05-02T10:21:56.599Z</time></trkpt><trkpt lat="36.926882" lon="8.755282"><ele>4.666666666666667</ele><time>2026-05-02T10:21:57.599Z</time></trkpt><trkpt lat="36.9270577" lon="8.7553113"><ele>5.0</ele><time>2026-05-02T10:21:58.599Z</time></trkpt><trkpt lat="36.9272312" lon="8.755346"><ele>5.0</ele><time>2026-05-02T10:21:59.603Z</time></trkpt><trkpt lat="36.9274025" lon="8.7553806"><ele>5.0</ele><time>2026-05-02T10:22:00.603Z</time></trkpt><trkpt lat="36.9275767" lon="8.7554165"><ele>5.0</ele><time>2026-05-02T10:22:01.602Z</time></trkpt><trkpt lat="36.9277561" lon="8.7554473"><ele>4.666666666666667</ele><time>2026-05-02T10:22:02.604Z</time></trkpt><trkpt lat="36.9279307" lon="8.7554843"><ele>4.333333333333333</ele><time>2026-05-02T10:22:03.603Z</time></trkpt><trkpt lat="36.9281003" lon="8.7555124"><ele>4.0</ele><time>2026-05-02T10:22:04.614Z</time></trkpt><trkpt lat="36.9282631" lon="8.7555469"><ele>4.333333333333333</ele><time>2026-05-02T10:22:05.604Z</time></trkpt><trkpt lat="36.9284267" lon="8.7555809"><ele>4.666666666666667</ele><time>2026-05-02T10:22:06.604Z</time></trkpt><trkpt lat="36.9285919" lon="8.7556098"><ele>5.0</ele><time>2026-05-02T10:22:07.614Z</time></trkpt><trkpt lat="36.9287453" lon="8.7556363"><ele>5.0</ele><time>2026-05-02T10:22:08.605Z</time></trkpt><trkpt lat="36.9289032" lon="8.7556673"><ele>5.0</ele><time>2026-05-02T10:22:09.604Z</time></trkpt><trkpt lat="36.9290571" lon="8.7556946"><ele>5.0</ele><time>2026-05-02T10:22:10.605Z</time></trkpt><trkpt lat="36.9292189" lon="8.7557227"><ele>5.0</ele><time>2026-05-02T10:22:11.606Z</time></trkpt><trkpt lat="36.9293769" lon="8.7557516"><ele>5.0</ele><time>2026-05-02T10:22:12.606Z</time></trkpt><trkpt lat="36.9295368" lon="8.7557786"><ele>5.0</ele><time>2026-05-02T10:22:13.605Z</time></trkpt><trkpt lat="36.9296948" lon="8.7558105"><ele>5.0</ele><time>2026-05-02T10:22:14.616Z</time></trkpt><trkpt lat="36.9298547" lon="8.755837"><ele>5.0</ele><time>2026-05-02T10:22:15.596Z</time></trkpt><trkpt lat="36.9300078" lon="8.7558626"><ele>5.0</ele><time>2026-05-02T10:22:16.621Z</time></trkpt><trkpt lat="36.9301672" lon="8.755891"><ele>5.333333333333334</ele><time>2026-05-02T10:22:17.604Z</time></trkpt><trkpt lat="36.9303203" lon="8.7559136"><ele>5.666666666666667</ele><time>2026-05-02T10:22:18.61Z</time></trkpt><trkpt lat="36.9304751" lon="8.7559355"><ele>6.0</ele><time>2026-05-02T10:22:19.606Z</time></trkpt><trkpt lat="36.9306188" lon="8.7559605"><ele>6.0</ele><time>2026-05-02T10:22:20.602Z</time></trkpt><trkpt lat="36.9307616" lon="8.7559883"><ele>6.0</ele><time>2026-05-02T10:22:21.646Z</time></trkpt><trkpt lat="36.9308977" lon="8.7560142"><ele>6.0</ele><time>2026-05-02T10:22:22.624Z</time></trkpt><trkpt lat="36.9310207" lon="8.7560378"><ele>6.0</ele><time>2026-05-02T10:22:23.635Z</time></trkpt><trkpt lat="36.9311349" lon="8.7560586"><ele>5.6</ele><time>2026-05-02T10:22:24.631Z</time></trkpt><trkpt lat="36.9312384" lon="8.7560792"><ele>5.199999999999999</ele><time>2026-05-02T10:22:25.664Z</time></trkpt><trkpt lat="36.9313345" lon="8.7561062"><ele>4.800000000000001</ele><time>2026-05-02T10:22:26.595Z</time></trkpt><trkpt lat="36.9314216" lon="8.7561439"><ele>4.4</ele><time>2026-05-02T10:22:27.681Z</time></trkpt><trkpt lat="36.9314997" lon="8.7561844"><ele>4.0</ele><time>2026-05-02T10:22:28.623Z</time></trkpt><trkpt lat="36.9315746" lon="8.7562237"><ele>4.0</ele><time>2026-05-02T10:22:29.594Z</time></trkpt><trkpt lat="36.9316522" lon="8.7562473"><ele>4.0</ele><time>2026-05-02T10:22:30.635Z</time></trkpt><trkpt lat="36.9317469" lon="8.7562491"><ele>4.0</ele><time>2026-05-02T10:22:31.64Z</time></trkpt><trkpt lat="36.9318493" lon="8.7562406"><ele>4.0</ele><time>2026-05-02T10:22:32.637Z</time></trkpt><trkpt lat="36.9319454" lon="8.7562433"><ele>4.0</ele><time>2026-05-02T10:22:33.609Z</time></trkpt><trkpt lat="36.932047" lon="8.7562615"><ele>3.75</ele><time>2026-05-02T10:22:34.591Z</time></trkpt><trkpt lat="36.9321569" lon="8.7562926"><ele>3.5</ele><time>2026-05-02T10:22:35.593Z</time></trkpt><trkpt lat="36.9322711" lon="8.7563197"><ele>3.25</ele><time>2026-05-02T10:22:36.595Z</time></trkpt><trkpt lat="36.9323778" lon="8.7563484"><ele>3.0</ele><time>2026-05-02T10:22:37.594Z</time></trkpt><trkpt lat="36.932488" lon="8.7563735"><ele>3.25</ele><time>2026-05-02T10:22:38.603Z</time></trkpt><trkpt lat="36.9325996" lon="8.7563969"><ele>3.5</ele><time>2026-05-02T10:22:39.594Z</time></trkpt><trkpt lat="36.9327174" lon="8.7564228"><ele>3.75</ele><time>2026-05-02T10:22:40.599Z</time></trkpt><trkpt lat="36.9328399" lon="8.7564499"><ele>4.0</ele><time>2026-05-02T10:22:41.611Z</time></trkpt><trkpt lat="36.9329638" lon="8.7564716"><ele>4.0</ele><time>2026-05-02T10:22:42.611Z</time></trkpt><trkpt lat="36.9330943" lon="8.7564918"><ele>4.0</ele><time>2026-05-02T10:22:43.611Z</time></trkpt><trkpt lat="36.9332169" lon="8.7565147"><ele>4.0</ele><time>2026-05-02T10:22:44.612Z</time></trkpt><trkpt lat="36.9333362" lon="8.7565493"><ele>4.0</ele><time>2026-05-02T10:22:45.604Z</time></trkpt><trkpt lat="36.9334473" lon="8.7565704"><ele>4.25</ele><time>2026-05-02T10:22:46.6Z</time></trkpt><trkpt lat="36.9335631" lon="8.7565832"><ele>4.5</ele><time>2026-05-02T10:22:47.603Z</time></trkpt><trkpt lat="36.9336801" lon="8.7566085"><ele>4.75</ele><time>2026-05-02T10:22:48.606Z</time></trkpt><trkpt lat="36.9337976" lon="8.7566295"><ele>5.0</ele><time>2026-05-02T10:22:49.627Z</time></trkpt><trkpt lat="36.9339168" lon="8.7566535"><ele>5.0</ele><time>2026-05-02T10:22:50.595Z</time></trkpt><trkpt lat="36.9340363" lon="8.7566715"><ele>5.0</ele><time>2026-05-02T10:22:51.607Z</time></trkpt><trkpt lat="36.9341549" lon="8.7566919"><ele>5.0</ele><time>2026-05-02T10:22:52.623Z</time></trkpt><trkpt lat="36.9342815" lon="8.7567146"><ele>5.0</ele><time>2026-05-02T10:22:53.599Z</time></trkpt><trkpt lat="36.9344067" lon="8.7567407"><ele>4.75</ele><time>2026-05-02T10:22:54.608Z</time></trkpt><trkpt lat="36.9345316" lon="8.7567645"><ele>4.5</ele><time>2026-05-02T10:22:55.602Z</time></trkpt><trkpt lat="36.934657" lon="8.7567887"><ele>4.25</ele><time>2026-05-02T10:22:56.6Z</time></trkpt><trkpt lat="36.9347801" lon="8.7568163"><ele>4.0</ele><time>2026-05-02T10:22:57.611Z</time></trkpt><trkpt lat="36.9349064" lon="8.7568361"><ele>4.0</ele><time>2026-05-02T10:22:58.595Z</time></trkpt><trkpt lat="36.9350302" lon="8.7568557"><ele>4.0</ele><time>2026-05-02T10:22:59.602Z</time></trkpt><trkpt lat="36.9351594" lon="8.7568802"><ele>4.0</ele><time>2026-05-02T10:23:00.616Z</time></trkpt><trkpt lat="36.9352937" lon="8.7569028"><ele>4.0</ele><time>2026-05-02T10:23:01.606Z</time></trkpt><trkpt lat="36.9354267" lon="8.7569292"><ele>3.75</ele><time>2026-05-02T10:23:02.604Z</time></trkpt><trkpt lat="36.9355646" lon="8.7569443"><ele>3.5</ele><time>2026-05-02T10:23:03.606Z</time></trkpt><trkpt lat="36.9357021" lon="8.7569631"><ele>3.25</ele><time>2026-05-02T10:23:04.601Z</time></trkpt><trkpt lat="36.9358426" lon="8.7569808"><ele>3.0</ele><time>2026-05-02T10:23:05.597Z</time></trkpt><trkpt lat="36.9359871" lon="8.757006"><ele>3.0</ele><time>2026-05-02T10:23:06.599Z</time></trkpt><trkpt lat="36.9361324" lon="8.7570317"><ele>3.0</ele><time>2026-05-02T10:23:07.633Z</time></trkpt><trkpt lat="36.9362773" lon="8.757066"><ele>3.0</ele><time>2026-05-02T10:23:08.634Z</time></trkpt><trkpt lat="36.9364249" lon="8.7570975"><ele>3.0</ele><time>2026-05-02T10:23:09.611Z</time></trkpt><trkpt lat="36.9365721" lon="8.7571243"><ele>3.333333333333333</ele><time>2026-05-02T10:23:10.632Z</time></trkpt><trkpt lat="36.936721" lon="8.7571493"><ele>3.6666666666666665</ele><time>2026-05-02T10:23:11.598Z</time></trkpt><trkpt lat="36.9368764" lon="8.7571798"><ele>4.0</ele><time>2026-05-02T10:23:12.607Z</time></trkpt><trkpt lat="36.9370378" lon="8.7572119"><ele>4.0</ele><time>2026-05-02T10:23:13.611Z</time></trkpt><trkpt lat="36.9371972" lon="8.7572382"><ele>4.0</ele><time>2026-05-02T10:23:14.608Z</time></trkpt><trkpt lat="36.9373613" lon="8.7572606"><ele>4.0</ele><time>2026-05-02T10:23:15.606Z</time></trkpt><trkpt lat="36.937522" lon="8.7572891"><ele>3.6666666666666665</ele><time>2026-05-02T10:23:16.603Z</time></trkpt><trkpt lat="36.9376786" lon="8.7573196"><ele>3.333333333333333</ele><time>2026-05-02T10:23:17.597Z</time></trkpt><trkpt lat="36.9378376" lon="8.7573504"><ele>3.0</ele><time>2026-05-02T10:23:18.605Z</time></trkpt><trkpt lat="36.9379977" lon="8.7573824"><ele>3.0</ele><time>2026-05-02T10:23:19.604Z</time></trkpt><trkpt lat="36.938155" lon="8.7574099"><ele>3.0</ele><time>2026-05-02T10:23:20.596Z</time></trkpt><trkpt lat="36.9383117" lon="8.7574372"><ele>3.0</ele><time>2026-05-02T10:23:21.603Z</time></trkpt><trkpt lat="36.9384553" lon="8.7574589"><ele>2.5</ele><time>2026-05-02T10:23:22.62Z</time></trkpt><trkpt lat="36.9385918" lon="8.7574813"><ele>2.0</ele><time>2026-05-02T10:23:23.604Z</time></trkpt><trkpt lat="36.9387243" lon="8.7575023"><ele>1.5</ele><time>2026-05-02T10:23:24.604Z</time></trkpt><trkpt lat="36.9388517" lon="8.7575253"><ele>1.0</ele><time>2026-05-02T10:23:25.596Z</time></trkpt><trkpt lat="36.9389759" lon="8.7575524"><ele>1.0</ele><time>2026-05-02T10:23:26.611Z</time></trkpt><trkpt lat="36.9390971" lon="8.757574"><ele>1.0</ele><time>2026-05-02T10:23:27.604Z</time></trkpt><trkpt lat="36.9392185" lon="8.7575981"><ele>1.0</ele><time>2026-05-02T10:23:28.608Z</time></trkpt><trkpt lat="36.9393332" lon="8.7576203"><ele>1.0</ele><time>2026-05-02T10:23:29.603Z</time></trkpt><trkpt lat="36.9394417" lon="8.7576431"><ele>1.2000000000000002</ele><time>2026-05-02T10:23:30.605Z</time></trkpt><trkpt lat="36.9395475" lon="8.7576661"><ele>1.4000000000000001</ele><time>2026-05-02T10:23:31.63Z</time></trkpt><trkpt lat="36.9396573" lon="8.7576889"><ele>1.6</ele><time>2026-05-02T10:23:32.613Z</time></trkpt><trkpt lat="36.939762" lon="8.7577075"><ele>1.8</ele><time>2026-05-02T10:23:33.593Z</time></trkpt><trkpt lat="36.9398667" lon="8.7577211"><ele>2.0</ele><time>2026-05-02T10:23:34.605Z</time></trkpt><trkpt lat="36.9399775" lon="8.7577443"><ele>2.2</ele><time>2026-05-02T10:23:35.608Z</time></trkpt><trkpt lat="36.9400864" lon="8.757763"><ele>2.4000000000000004</ele><time>2026-05-02T10:23:36.619Z</time></trkpt><trkpt lat="36.9401925" lon="8.7577871"><ele>2.5999999999999996</ele><time>2026-05-02T10:23:37.619Z</time></trkpt><trkpt lat="36.9403056" lon="8.7578041"><ele>2.8</ele><time>2026-05-02T10:23:38.671Z</time></trkpt><trkpt lat="36.940421" lon="8.757818"><ele>3.0</ele><time>2026-05-02T10:23:39.595Z</time></trkpt><trkpt lat="36.9405431" lon="8.7578471"><ele>3.0</ele><time>2026-05-02T10:23:40.608Z</time></trkpt><trkpt lat="36.9406653" lon="8.7578677"><ele>3.0</ele><time>2026-05-02T10:23:41.603Z</time></trkpt><trkpt lat="36.9407912" lon="8.7578885"><ele>3.0</ele><time>2026-05-02T10:23:42.607Z</time></trkpt><trkpt lat="36.9409204" lon="8.7579021"><ele>3.0</ele><time>2026-05-02T10:23:43.599Z</time></trkpt><trkpt lat="36.9410546" lon="8.7579247"><ele>2.75</ele><time>2026-05-02T10:23:44.615Z</time></trkpt><trkpt lat="36.9411943" lon="8.7579494"><ele>2.5</ele><time>2026-05-02T10:23:45.602Z</time></trkpt><trkpt lat="36.9413387" lon="8.7579728"><ele>2.25</ele><time>2026-05-02T10:23:46.607Z</time></trkpt><trkpt lat="36.9414802" lon="8.7579984"><ele>2.0</ele><time>2026-05-02T10:23:47.604Z</time></trkpt><trkpt lat="36.9416206" lon="8.7580214"><ele>2.0</ele><time>2026-05-02T10:23:48.613Z</time></trkpt><trkpt lat="36.9417587" lon="8.7580466"><ele>2.0</ele><time>2026-05-02T10:23:49.662Z</time></trkpt><trkpt lat="36.9419016" lon="8.7580737"><ele>2.0</ele><time>2026-05-02T10:23:50.638Z</time></trkpt><trkpt lat="36.9420427" lon="8.7580979"><ele>2.0</ele><time>2026-05-02T10:23:51.663Z</time></trkpt><trkpt lat="36.942186" lon="8.7581152"><ele>2.0</ele><time>2026-05-02T10:23:52.608Z</time></trkpt><trkpt lat="36.9423263" lon="8.7581393"><ele>2.0</ele><time>2026-05-02T10:23:53.616Z</time></trkpt><trkpt lat="36.9424697" lon="8.7581609"><ele>2.0</ele><time>2026-05-02T10:23:54.631Z</time></trkpt><trkpt lat="36.9426178" lon="8.7581914"><ele>2.0</ele><time>2026-05-02T10:23:55.617Z</time></trkpt><trkpt lat="36.9427673" lon="8.7582218"><ele>1.75</ele><time>2026-05-02T10:23:56.597Z</time></trkpt><trkpt lat="36.9429146" lon="8.7582476"><ele>1.5</ele><time>2026-05-02T10:23:57.592Z</time></trkpt><trkpt lat="36.9430558" lon="8.7582701"><ele>1.25</ele><time>2026-05-02T10:23:58.641Z</time></trkpt><trkpt lat="36.9431865" lon="8.7583019"><ele>1.0</ele><time>2026-05-02T10:23:59.603Z</time></trkpt><trkpt lat="36.9433208" lon="8.7583305"><ele>1.75</ele><time>2026-05-02T10:24:00.59Z</time></trkpt><trkpt lat="36.9434513" lon="8.7583567"><ele>2.5</ele><time>2026-05-02T10:24:01.588Z</time></trkpt><trkpt lat="36.9435844" lon="8.7583781"><ele>3.25</ele><time>2026-05-02T10:24:02.595Z</time></trkpt><trkpt lat="36.9437161" lon="8.7584038"><ele>4.0</ele><time>2026-05-02T10:24:03.59Z</time></trkpt><trkpt lat="36.9438473" lon="8.7584295"><ele>4.0</ele><time>2026-05-02T10:24:04.591Z</time></trkpt><trkpt lat="36.9439768" lon="8.7584502"><ele>4.0</ele><time>2026-05-02T10:24:05.589Z</time></trkpt><trkpt lat="36.9441034" lon="8.7584805"><ele>4.0</ele><time>2026-05-02T10:24:06.595Z</time></trkpt><trkpt lat="36.9442245" lon="8.7585048"><ele>4.0</ele><time>2026-05-02T10:24:07.613Z</time></trkpt><trkpt lat="36.9443319" lon="8.7585397"><ele>3.4000000000000004</ele><time>2026-05-02T10:24:08.593Z</time></trkpt><trkpt lat="36.9444309" lon="8.7585705"><ele>2.8000000000000003</ele><time>2026-05-02T10:24:09.596Z</time></trkpt><trkpt lat="36.9445232" lon="8.7585927"><ele>2.2</ele><time>2026-05-02T10:24:10.614Z</time></trkpt><trkpt lat="36.9446102" lon="8.7586276"><ele>1.6</ele><time>2026-05-02T10:24:11.614Z</time></trkpt><trkpt lat="36.9446932" lon="8.7586587"><ele>1.0</ele><time>2026-05-02T10:24:12.595Z</time></trkpt><trkpt lat="36.944779" lon="8.7586864"><ele>1.0</ele><time>2026-05-02T10:24:13.603Z</time></trkpt><trkpt lat="36.9448605" lon="8.7587128"><ele>1.0</ele><time>2026-05-02T10:24:14.594Z</time></trkpt><trkpt lat="36.944947" lon="8.7587438"><ele>1.0</ele><time>2026-05-02T10:24:15.597Z</time></trkpt><trkpt lat="36.9450351" lon="8.7587774"><ele>1.0</ele><time>2026-05-02T10:24:16.602Z</time></trkpt><trkpt lat="36.9451289" lon="8.7588165"><ele>1.0</ele><time>2026-05-02T10:24:17.595Z</time></trkpt><trkpt lat="36.9452214" lon="8.7588455"><ele>1.4</ele><time>2026-05-02T10:24:18.604Z</time></trkpt><trkpt lat="36.9453102" lon="8.7588752"><ele>1.8</ele><time>2026-05-02T10:24:19.609Z</time></trkpt><trkpt lat="36.9453968" lon="8.7589036"><ele>2.1999999999999997</ele><time>2026-05-02T10:24:20.612Z</time></trkpt><trkpt lat="36.9454827" lon="8.758933"><ele>2.6</ele><time>2026-05-02T10:24:21.593Z</time></trkpt><trkpt lat="36.945572" lon="8.7589672"><ele>3.0</ele><time>2026-05-02T10:24:22.592Z</time></trkpt><trkpt lat="36.9456606" lon="8.7589983"><ele>3.0</ele><time>2026-05-02T10:24:23.609Z</time></trkpt><trkpt lat="36.9457434" lon="8.7590306"><ele>3.0</ele><time>2026-05-02T10:24:24.613Z</time></trkpt><trkpt lat="36.9458295" lon="8.7590593"><ele>3.0</ele><time>2026-05-02T10:24:25.603Z</time></trkpt><trkpt lat="36.945921" lon="8.7590884"><ele>3.0</ele><time>2026-05-02T10:24:26.613Z</time></trkpt><trkpt lat="36.9460101" lon="8.7591147"><ele>3.0</ele><time>2026-05-02T10:24:27.605Z</time></trkpt><trkpt lat="36.9461009" lon="8.7591489"><ele>3.8</ele><time>2026-05-02T10:24:28.603Z</time></trkpt><trkpt lat="36.9461921" lon="8.7591865"><ele>4.6</ele><time>2026-05-02T10:24:29.596Z</time></trkpt><trkpt lat="36.9462861" lon="8.7592181"><ele>5.3999999999999995</ele><time>2026-05-02T10:24:30.605Z</time></trkpt><trkpt lat="36.9463847" lon="8.7592495"><ele>6.199999999999999</ele><time>2026-05-02T10:24:31.608Z</time></trkpt><trkpt lat="36.9464769" lon="8.7592845"><ele>7.0</ele><time>2026-05-02T10:24:32.603Z</time></trkpt><trkpt lat="36.9465716" lon="8.7593193"><ele>7.000000000000001</ele><time>2026-05-02T10:24:33.601Z</time></trkpt><trkpt lat="36.9466627" lon="8.7593539"><ele>7.0</ele><time>2026-05-02T10:24:34.601Z</time></trkpt><trkpt lat="36.9467474" lon="8.7593793"><ele>7.0</ele><time>2026-05-02T10:24:35.614Z</time></trkpt><trkpt lat="36.946826" lon="8.7594049"><ele>7.0</ele><time>2026-05-02T10:24:36.601Z</time></trkpt><trkpt lat="36.9468985" lon="8.7594312"><ele>7.000000000000001</ele><time>2026-05-02T10:24:37.587Z</time></trkpt><trkpt lat="36.9469645" lon="8.7594553"><ele>7.0</ele><time>2026-05-02T10:24:38.589Z</time></trkpt><trkpt lat="36.9470265" lon="8.7594749"><ele>5.6</ele><time>2026-05-02T10:24:39.606Z</time></trkpt><trkpt lat="36.9471473" lon="8.7595109"><ele>4.199999999999999</ele><time>2026-05-02T10:24:41.606Z</time></trkpt><trkpt lat="36.9472561" lon="8.759541"><ele>2.8</ele><time>2026-05-02T10:24:43.607Z</time></trkpt><trkpt lat="36.9473593" lon="8.7595731"><ele>1.4</ele><time>2026-05-02T10:24:45.605Z</time></trkpt><trkpt lat="36.9474633" lon="8.7595952"><ele>0.0</ele><time>2026-05-02T10:24:47.596Z</time></trkpt><trkpt lat="36.9475347" lon="8.759616"><ele>0.0</ele><time>2026-05-02T10:24:49.599Z</time></trkpt><trkpt lat="36.9476182" lon="8.7596327"><ele>0.0</ele><time>2026-05-02T10:24:52.592Z</time></trkpt><trkpt lat="36.9476988" lon="8.7596372"><ele>0.0</ele><time>2026-05-02T10:24:55.609Z</time></trkpt><trkpt lat="36.9477718" lon="8.7596466"><ele>0.0</ele><time>2026-05-02T10:24:58.603Z</time></trkpt><trkpt lat="36.9478428" lon="8.7596544"><ele>0.0</ele><time>2026-05-02T10:25:02.632Z</time></trkpt><trkpt lat="36.9479181" lon="8.7596385"><ele>0.0</ele><time>2026-05-02T10:25:09.603Z</time></trkpt><trkpt lat="36.948002" lon="8.7596472"><ele>0.0</ele><time>2026-05-02T10:25:12.602Z</time></trkpt><trkpt lat="36.9481134" lon="8.7596553"><ele>0.0</ele><time>2026-05-02T10:25:15.595Z</time></trkpt><trkpt lat="36.9482315" lon="8.7596465"><ele>0.0</ele><time>2026-05-02T10:25:17.633Z</time></trkpt><trkpt lat="36.94833" lon="8.7596537"><ele>0.0</ele><time>2026-05-02T10:25:19.595Z</time></trkpt><trkpt lat="36.9484394" lon="8.7596654"><ele>0.0</ele><time>2026-05-02T10:25:21.595Z</time></trkpt><trkpt lat="36.9485493" lon="8.7596693"><ele>0.2</ele><time>2026-05-02T10:25:23.591Z</time></trkpt><trkpt lat="36.9486445" lon="8.759681"><ele>0.4</ele><time>2026-05-02T10:25:25.586Z</time></trkpt><trkpt lat="36.9487304" lon="8.7596937"><ele>0.6000000000000001</ele><time>2026-05-02T10:25:27.591Z</time></trkpt><trkpt lat="36.9488344" lon="8.7597073"><ele>0.8</ele><time>2026-05-02T10:25:29.605Z</time></trkpt><trkpt lat="36.9489499" lon="8.7597104"><ele>1.0</ele><time>2026-05-02T10:25:31.605Z</time></trkpt><trkpt lat="36.9490495" lon="8.7597139"><ele>0.9999999999999999</ele><time>2026-05-02T10:25:33.598Z</time></trkpt><trkpt lat="36.9491361" lon="8.759726"><ele>1.0</ele><time>2026-05-02T10:25:35.6Z</time></trkpt><trkpt lat="36.9492214" lon="8.7597342"><ele>1.0</ele><time>2026-05-02T10:25:37.594Z</time></trkpt><trkpt lat="36.9492931" lon="8.7597299"><ele>1.0</ele><time>2026-05-02T10:25:39.6Z</time></trkpt><trkpt lat="36.9493608" lon="8.759737"><ele>0.9999999999999999</ele><time>2026-05-02T10:25:42.606Z</time></trkpt><trkpt lat="36.949432" lon="8.7597339"><ele>1.0</ele><time>2026-05-02T10:25:45.606Z</time></trkpt><trkpt lat="36.9495002" lon="8.7597357"><ele>0.9999999999999999</ele><time>2026-05-02T10:25:48.608Z</time></trkpt><trkpt lat="36.9495799" lon="8.7597484"><ele>1.0</ele><time>2026-05-02T10:25:51.606Z</time></trkpt><trkpt lat="36.9496554" lon="8.7597589"><ele>1.0</ele><time>2026-05-02T10:25:53.606Z</time></trkpt><trkpt lat="36.9497537" lon="8.7597608"><ele>1.0</ele><time>2026-05-02T10:25:55.61Z</time></trkpt><trkpt lat="36.9498454" lon="8.7597687"><ele>0.9999999999999999</ele><time>2026-05-02T10:25:57.609Z</time></trkpt><trkpt lat="36.9499227" lon="8.7597755"><ele>1.0</ele><time>2026-05-02T10:25:59.659Z</time></trkpt><trkpt lat="36.9500145" lon="8.7597787"><ele>1.1666666666666665</ele><time>2026-05-02T10:26:01.605Z</time></trkpt><trkpt lat="36.9500826" lon="8.7597739"><ele>1.3333333333333333</ele><time>2026-05-02T10:26:03.602Z</time></trkpt><trkpt lat="36.9501741" lon="8.7597805"><ele>1.5</ele><time>2026-05-02T10:26:05.625Z</time></trkpt><trkpt lat="36.9502594" lon="8.759776"><ele>1.6666666666666665</ele><time>2026-05-02T10:26:07.598Z</time></trkpt><trkpt lat="36.9503378" lon="8.7597763"><ele>1.8333333333333333</ele><time>2026-05-02T10:26:09.597Z</time></trkpt><trkpt lat="36.9504223" lon="8.7597822"><ele>2.0</ele><time>2026-05-02T10:26:11.606Z</time></trkpt><trkpt lat="36.9505322" lon="8.7597849"><ele>1.9999999999999998</ele><time>2026-05-02T10:26:13.612Z</time></trkpt><trkpt lat="36.9506513" lon="8.7597895"><ele>2.0</ele><time>2026-05-02T10:26:15.609Z</time></trkpt><trkpt lat="36.9507391" lon="8.7597983"><ele>2.0</ele><time>2026-05-02T10:26:17.618Z</time></trkpt><trkpt lat="36.9508107" lon="8.7598017"><ele>2.0</ele><time>2026-05-02T10:26:21.599Z</time></trkpt><trkpt lat="36.950878" lon="8.7598025"><ele>1.9999999999999998</ele><time>2026-05-02T10:26:27.622Z</time></trkpt><trkpt lat="36.9509431" lon="8.7598152"><ele>2.0</ele><time>2026-05-02T10:26:30.603Z</time></trkpt><trkpt lat="36.9510137" lon="8.7598296"><ele>2.1666666666666665</ele><time>2026-05-02T10:26:33.6Z</time></trkpt><trkpt lat="36.9510898" lon="8.7598354"><ele>2.333333333333333</ele><time>2026-05-02T10:26:37.595Z</time></trkpt><trkpt lat="36.9511595" lon="8.7598491"><ele>2.5</ele><time>2026-05-02T10:26:48.589Z</time></trkpt><trkpt lat="36.9512348" lon="8.7598574"><ele>2.6666666666666665</ele><time>2026-05-02T10:26:50.595Z</time></trkpt><trkpt lat="36.9513087" lon="8.759862"><ele>2.8333333333333335</ele><time>2026-05-02T10:26:52.604Z</time></trkpt><trkpt lat="36.9513824" lon="8.7598643"><ele>3.0</ele><time>2026-05-02T10:26:54.623Z</time></trkpt><trkpt lat="36.9514647" lon="8.7598746"><ele>2.9999999999999996</ele><time>2026-05-02T10:26:57.606Z</time></trkpt><trkpt lat="36.9515289" lon="8.7598688"><ele>3.0</ele><time>2026-05-02T10:27:00.597Z</time></trkpt><trkpt lat="36.9516198" lon="8.7598991"><ele>3.0</ele><time>2026-05-02T10:27:03.606Z</time></trkpt><trkpt lat="36.9516864" lon="8.7599304"><ele>3.0</ele><time>2026-05-02T10:27:05.609Z</time></trkpt><trkpt lat="36.9517427" lon="8.7599739"><ele>3.0</ele><time>2026-05-02T10:27:07.609Z</time></trkpt><trkpt lat="36.9518096" lon="8.7600259"><ele>2.9999999999999996</ele><time>2026-05-02T10:27:10.634Z</time></trkpt><trkpt lat="36.9518642" lon="8.7600683"><ele>3.0</ele><time>2026-05-02T10:27:12.601Z</time></trkpt><trkpt lat="36.9519344" lon="8.7600949"><ele>3.2</ele><time>2026-05-02T10:27:14.602Z</time></trkpt><trkpt lat="36.95203" lon="8.7600617"><ele>3.4</ele><time>2026-05-02T10:27:17.604Z</time></trkpt><trkpt lat="36.9521008" lon="8.7599722"><ele>3.6000000000000005</ele><time>2026-05-02T10:27:19.607Z</time></trkpt><trkpt lat="36.9521792" lon="8.7598691"><ele>3.8000000000000003</ele><time>2026-05-02T10:27:21.604Z</time></trkpt><trkpt lat="36.9522589" lon="8.7597855"><ele>4.0</ele><time>2026-05-02T10:27:23.614Z</time></trkpt><trkpt lat="36.9523108" lon="8.7597392"><ele>3.9999999999999996</ele><time>2026-05-02T10:27:25.609Z</time></trkpt><trkpt lat="36.9523701" lon="8.7596735"><ele>4.0</ele><time>2026-05-02T10:27:28.606Z</time></trkpt><trkpt lat="36.9524236" lon="8.759617"><ele>4.0</ele><time>2026-05-02T10:27:31.597Z</time></trkpt><trkpt lat="36.9524857" lon="8.7595526"><ele>4.0</ele><time>2026-05-02T10:27:35.611Z</time></trkpt><trkpt lat="36.9525643" lon="8.7594816"><ele>3.9999999999999996</ele><time>2026-05-02T10:27:38.597Z</time></trkpt><trkpt lat="36.952631" lon="8.7594191"><ele>4.0</ele><time>2026-05-02T10:27:40.604Z</time></trkpt><trkpt lat="36.9527022" lon="8.7593579"><ele>3.6666666666666665</ele><time>2026-05-02T10:27:42.605Z</time></trkpt><trkpt lat="36.9527616" lon="8.7593103"><ele>3.333333333333333</ele><time>2026-05-02T10:27:44.605Z</time></trkpt><trkpt lat="36.9528143" lon="8.7592559"><ele>3.0</ele><time>2026-05-02T10:27:46.6Z</time></trkpt><trkpt lat="36.9528842" lon="8.7591945"><ele>2.6666666666666665</ele><time>2026-05-02T10:27:49.609Z</time></trkpt><trkpt lat="36.9529503" lon="8.7591332"><ele>2.333333333333333</ele><time>2026-05-02T10:27:52.626Z</time></trkpt><trkpt lat="36.9530233" lon="8.7590634"><ele>2.0</ele><time>2026-05-02T10:27:55.609Z</time></trkpt><trkpt lat="36.9530724" lon="8.7590111"><ele>1.9999999999999998</ele><time>2026-05-02T10:27:57.603Z</time></trkpt><trkpt lat="36.9531406" lon="8.7589411"><ele>2.0</ele><time>2026-05-02T10:28:00.602Z</time></trkpt><trkpt lat="36.9532042" lon="8.758886"><ele>2.0</ele><time>2026-05-02T10:28:04.607Z</time></trkpt><trkpt lat="36.9532692" lon="8.7588214"><ele>2.0</ele><time>2026-05-02T10:28:08.602Z</time></trkpt><trkpt lat="36.9533155" lon="8.758749"><ele>1.9999999999999998</ele><time>2026-05-02T10:28:12.603Z</time></trkpt><trkpt lat="36.9533719" lon="8.7586949"><ele>2.0</ele><time>2026-05-02T10:28:15.608Z</time></trkpt><trkpt lat="36.9534127" lon="8.758629"><ele>1.9999999999999998</ele><time>2026-05-02T10:28:17.602Z</time></trkpt><trkpt lat="36.9534984" lon="8.758554"><ele>2.0</ele><time>2026-05-02T10:28:19.602Z</time></trkpt><trkpt lat="36.9535864" lon="8.7584683"><ele>2.0</ele><time>2026-05-02T10:28:21.611Z</time></trkpt><trkpt lat="36.953648" lon="8.758409"><ele>2.0</ele><time>2026-05-02T10:28:23.597Z</time></trkpt><trkpt lat="36.9537027" lon="8.7583624"><ele>1.9999999999999998</ele><time>2026-05-02T10:28:29.598Z</time></trkpt><trkpt lat="36.9537552" lon="8.7583082"><ele>2.0</ele><time>2026-05-02T10:28:43.592Z</time></trkpt><trkpt lat="36.9538274" lon="8.7582546"><ele>2.0</ele><time>2026-05-02T10:28:46.64Z</time></trkpt><trkpt lat="36.9538837" lon="8.7582018"><ele>2.0</ele><time>2026-05-02T10:28:48.597Z</time></trkpt><trkpt lat="36.9539541" lon="8.7581425"><ele>2.0</ele><time>2026-05-02T10:28:50.596Z</time></trkpt><trkpt lat="36.9540324" lon="8.7580655"><ele>2.0</ele><time>2026-05-02T10:28:52.604Z</time></trkpt><trkpt lat="36.9541101" lon="8.7579915"><ele>2.0</ele><time>2026-05-02T10:28:54.611Z</time></trkpt><trkpt lat="36.9541904" lon="8.7579196"><ele>2.1666666666666665</ele><time>2026-05-02T10:28:56.607Z</time></trkpt><trkpt lat="36.9542655" lon="8.7578429"><ele>2.333333333333333</ele><time>2026-05-02T10:28:58.602Z</time></trkpt><trkpt lat="36.9543353" lon="8.7577709"><ele>2.5</ele><time>2026-05-02T10:29:00.608Z</time></trkpt><trkpt lat="36.9544181" lon="8.7576955"><ele>2.6666666666666665</ele><time>2026-05-02T10:29:02.6Z</time></trkpt><trkpt lat="36.9544935" lon="8.7576433"><ele>2.8333333333333335</ele><time>2026-05-02T10:29:04.605Z</time></trkpt><trkpt lat="36.9545432" lon="8.757589"><ele>3.0</ele><time>2026-05-02T10:29:06.593Z</time></trkpt><trkpt lat="36.9546133" lon="8.7575382"><ele>3.1666666666666665</ele><time>2026-05-02T10:29:09.594Z</time></trkpt><trkpt lat="36.9546806" lon="8.7575061"><ele>3.333333333333333</ele><time>2026-05-02T10:29:12.588Z</time></trkpt><trkpt lat="36.9547568" lon="8.7574928"><ele>3.5</ele><time>2026-05-02T10:29:16.59Z</time></trkpt><trkpt lat="36.954819" lon="8.7574562"><ele>3.6666666666666665</ele><time>2026-05-02T10:29:19.605Z</time></trkpt><trkpt lat="36.9548659" lon="8.7573916"><ele>3.833333333333333</ele><time>2026-05-02T10:29:22.604Z</time></trkpt><trkpt lat="36.9548481" lon="8.7572818"><ele>4.0</ele><time>2026-05-02T10:29:25.597Z</time></trkpt><trkpt lat="36.9547801" lon="8.7572202"><ele>3.9999999999999996</ele><time>2026-05-02T10:29:28.607Z</time></trkpt><trkpt lat="36.9546861" lon="8.7572331"><ele>4.0</ele><time>2026-05-02T10:29:31.599Z</time></trkpt><trkpt lat="36.954637" lon="8.7573307"><ele>4.0</ele><time>2026-05-02T10:29:34.6Z</time></trkpt><trkpt lat="36.9546213" lon="8.7574377"><ele>4.0</ele><time>2026-05-02T10:29:36.605Z</time></trkpt><trkpt lat="36.954605" lon="8.7575377"><ele>3.9999999999999996</ele><time>2026-05-02T10:29:38.6Z</time></trkpt><trkpt lat="36.9546088" lon="8.757626"><ele>4.0</ele><time>2026-05-02T10:29:40.599Z</time></trkpt><trkpt lat="36.9546292" lon="8.7577353"><ele>3.8000000000000003</ele><time>2026-05-02T10:29:42.598Z</time></trkpt><trkpt lat="36.9546619" lon="8.7578495"><ele>3.6000000000000005</ele><time>2026-05-02T10:29:44.593Z</time></trkpt><trkpt lat="36.9546859" lon="8.7579573"><ele>3.4</ele><time>2026-05-02T10:29:46.605Z</time></trkpt><trkpt lat="36.9547122" lon="8.7580644"><ele>3.2</ele><time>2026-05-02T10:29:48.604Z</time></trkpt><trkpt lat="36.9547432" lon="8.7581796"><ele>3.0</ele><time>2026-05-02T10:29:50.593Z</time></trkpt><trkpt lat="36.9547796" lon="8.7583021"><ele>3.0</ele><time>2026-05-02T10:29:52.608Z</time></trkpt><trkpt lat="36.9548107" lon="8.7584221"><ele>3.0</ele><time>2026-05-02T10:29:54.611Z</time></trkpt><trkpt lat="36.9548378" lon="8.7585278"><ele>3.0</ele><time>2026-05-02T10:29:56.599Z</time></trkpt><trkpt lat="36.9548685" lon="8.758639"><ele>3.0</ele><time>2026-05-02T10:29:58.609Z</time></trkpt><trkpt lat="36.9548966" lon="8.7587543"><ele>3.0</ele><time>2026-05-02T10:30:00.601Z</time></trkpt><trkpt lat="36.9549281" lon="8.7588455"><ele>3.0</ele><time>2026-05-02T10:30:02.6Z</time></trkpt><trkpt lat="36.9549454" lon="8.7589273"><ele>3.0</ele><time>2026-05-02T10:30:13.594Z</time></trkpt><trkpt lat="36.9549715" lon="8.7590114"><ele>3.0</ele><time>2026-05-02T10:30:19.589Z</time></trkpt><trkpt lat="36.9549951" lon="8.7591222"><ele>3.0</ele><time>2026-05-02T10:30:21.599Z</time></trkpt><trkpt lat="36.9550348" lon="8.7592516"><ele>3.0</ele><time>2026-05-02T10:30:23.602Z</time></trkpt><trkpt lat="36.9550796" lon="8.7593899"><ele>3.0</ele><time>2026-05-02T10:30:25.595Z</time></trkpt><trkpt lat="36.9550998" lon="8.759466"><ele>3.0</ele><time>2026-05-02T10:30:26.592Z</time></trkpt><trkpt lat="36.9551226" lon="8.7595417"><ele>3.0</ele><time>2026-05-02T10:30:27.607Z</time></trkpt><trkpt lat="36.9551528" lon="8.7596678"><ele>3.0</ele><time>2026-05-02T10:30:29.593Z</time></trkpt><trkpt lat="36.9551802" lon="8.7597637"><ele>3.0</ele><time>2026-05-02T10:30:31.6Z</time></trkpt><trkpt lat="36.9552092" lon="8.7598664"><ele>3.0</ele><time>2026-05-02T10:30:34.611Z</time></trkpt><trkpt lat="36.9552611" lon="8.7599279"><ele>3.0</ele><time>2026-05-02T10:30:37.603Z</time></trkpt><trkpt lat="36.9553267" lon="8.7599345"><ele>3.0</ele><time>2026-05-02T10:30:39.6Z</time></trkpt><trkpt lat="36.9554116" lon="8.7599277"><ele>3.0</ele><time>2026-05-02T10:30:42.599Z</time></trkpt><trkpt lat="36.9554605" lon="8.7599902"><ele>3.0</ele><time>2026-05-02T10:30:45.599Z</time></trkpt><trkpt lat="36.9554805" lon="8.7600783"><ele>3.0</ele><time>2026-05-02T10:30:48.605Z</time></trkpt><trkpt lat="36.955508" lon="8.7601837"><ele>3.0</ele><time>2026-05-02T10:30:51.62Z</time></trkpt><trkpt lat="36.9555397" lon="8.760271"><ele>2.6666666666666665</ele><time>2026-05-02T10:30:53.606Z</time></trkpt><trkpt lat="36.9555667" lon="8.7603698"><ele>2.3333333333333335</ele><time>2026-05-02T10:30:55.603Z</time></trkpt><trkpt lat="36.9555993" lon="8.760456"><ele>2.0</ele><time>2026-05-02T10:30:57.606Z</time></trkpt><trkpt lat="36.9556225" lon="8.760552"><ele>1.6666666666666665</ele><time>2026-05-02T10:31:00.605Z</time></trkpt><trkpt lat="36.955625" lon="8.7606344"><ele>1.3333333333333333</ele><time>2026-05-02T10:31:03.6Z</time></trkpt><trkpt lat="36.9556822" lon="8.760707"><ele>1.0</ele><time>2026-05-02T10:31:08.597Z</time></trkpt><trkpt lat="36.9557541" lon="8.7607464"><ele>1.0</ele><time>2026-05-02T10:31:12.612Z</time></trkpt><trkpt lat="36.9558179" lon="8.7607591"><ele>0.9999999999999999</ele><time>2026-05-02T10:31:16.602Z</time></trkpt><trkpt lat="36.9557643" lon="8.7607055"><ele>1.0</ele><time>2026-05-02T10:31:49.641Z</time></trkpt><trkpt lat="36.9556903" lon="8.7606509"><ele>1.0</ele><time>2026-05-02T10:31:52.586Z</time></trkpt><trkpt lat="36.9556485" lon="8.7605557"><ele>0.9999999999999999</ele><time>2026-05-02T10:31:55.595Z</time></trkpt><trkpt lat="36.9556236" lon="8.760461"><ele>1.0</ele><time>2026-05-02T10:31:58.609Z</time></trkpt><trkpt lat="36.9555981" lon="8.7603883"><ele>1.0</ele><time>2026-05-02T10:32:00.603Z</time></trkpt><trkpt lat="36.955573" lon="8.7602995"><ele>0.9999999999999999</ele><time>2026-05-02T10:32:03.603Z</time></trkpt><trkpt lat="36.9555662" lon="8.7603793"><ele>1.0</ele><time>2026-05-02T10:39:23.613Z</time></trkpt><trkpt lat="36.9556146" lon="8.7604728"><ele>1.0</ele><time>2026-05-02T10:39:25.612Z</time></trkpt><trkpt lat="36.9556549" lon="8.7605641"><ele>1.0</ele><time>2026-05-02T10:39:27.627Z</time></trkpt><trkpt lat="36.9556857" lon="8.7606522"><ele>0.9999999999999999</ele><time>2026-05-02T10:39:29.611Z</time></trkpt><trkpt lat="36.9557538" lon="8.7607321"><ele>1.0</ele><time>2026-05-02T10:39:31.592Z</time></trkpt><trkpt lat="36.9558435" lon="8.7607507"><ele>0.8333333333333333</ele><time>2026-05-02T10:39:33.618Z</time></trkpt><trkpt lat="36.9559327" lon="8.7607229"><ele>0.6666666666666666</ele><time>2026-05-02T10:39:35.606Z</time></trkpt><trkpt lat="36.9560141" lon="8.7606735"><ele>0.5</ele><time>2026-05-02T10:39:37.598Z</time></trkpt><trkpt lat="36.9560796" lon="8.7606371"><ele>0.3333333333333333</ele><time>2026-05-02T10:39:39.603Z</time></trkpt><trkpt lat="36.9561424" lon="8.7606047"><ele>0.16666666666666666</ele><time>2026-05-02T10:39:41.6Z</time></trkpt><trkpt lat="36.9562081" lon="8.7605719"><ele>0.0</ele><time>2026-05-02T10:39:43.637Z</time></trkpt><trkpt lat="36.956293" lon="8.7605256"><ele>0.0</ele><time>2026-05-02T10:39:45.59Z</time></trkpt><trkpt lat="36.9563849" lon="8.7604978"><ele>0.0</ele><time>2026-05-02T10:39:47.62Z</time></trkpt><trkpt lat="36.9564671" lon="8.7604582"><ele>0.0</ele><time>2026-05-02T10:39:49.619Z</time></trkpt><trkpt lat="36.9565435" lon="8.7604168"><ele>0.0</ele><time>2026-05-02T10:39:51.609Z</time></trkpt><trkpt lat="36.9566115" lon="8.7603886"><ele>0.0</ele><time>2026-05-02T10:39:53.645Z</time></trkpt><trkpt lat="36.9566788" lon="8.7603481"><ele>0.0</ele><time>2026-05-02T10:39:55.615Z</time></trkpt><trkpt lat="36.956752" lon="8.7603056"><ele>0.0</ele><time>2026-05-02T10:39:58.618Z</time></trkpt><trkpt lat="36.9568064" lon="8.760262"><ele>0.0</ele><time>2026-05-02T10:40:02.619Z</time></trkpt><trkpt lat="36.9568342" lon="8.7601889"><ele>0.0</ele><time>2026-05-02T10:40:24.612Z</time></trkpt><trkpt lat="36.956909" lon="8.7601769"><ele>0.0</ele><time>2026-05-02T10:40:28.664Z</time></trkpt><trkpt lat="36.9569042" lon="8.7602588"><ele>0.0</ele><time>2026-05-02T10:40:32.62Z</time></trkpt><trkpt lat="36.9568386" lon="8.7602468"><ele>0.0</ele><time>2026-05-02T10:40:37.632Z</time></trkpt><trkpt lat="36.9567743" lon="8.760235"><ele>0.0</ele><time>2026-05-02T10:40:43.614Z</time></trkpt></trkseg><trkseg><trkpt lat="36.9567044" lon="8.7603063"><ele>0.0</ele><time>2026-05-02T12:53:48.67Z</time></trkpt><trkpt lat="36.9566375" lon="8.7603461"><ele>0.0</ele><time>2026-05-02T12:53:51.689Z</time></trkpt><trkpt lat="36.9565736" lon="8.7603879"><ele>0.0</ele><time>2026-05-02T12:53:53.688Z</time></trkpt><trkpt lat="36.9564768" lon="8.7604449"><ele>0.0</ele><time>2026-05-02T12:53:55.681Z</time></trkpt><trkpt lat="36.9563594" lon="8.7605016"><ele>0.0</ele><time>2026-05-02T12:53:57.688Z</time></trkpt><trkpt lat="36.956246" lon="8.7605589"><ele>0.0</ele><time>2026-05-02T12:53:59.66Z</time></trkpt><trkpt lat="36.9561363" lon="8.7606066"><ele>0.0</ele><time>2026-05-02T12:54:01.682Z</time></trkpt><trkpt lat="36.9560273" lon="8.7606548"><ele>0.0</ele><time>2026-05-02T12:54:03.676Z</time></trkpt><trkpt lat="36.9559252" lon="8.7606896"><ele>0.0</ele><time>2026-05-02T12:54:05.69Z</time></trkpt><trkpt lat="36.955833" lon="8.7607187"><ele>0.0</ele><time>2026-05-02T12:54:07.678Z</time></trkpt><trkpt lat="36.9557589" lon="8.7607201"><ele>0.14285714285714285</ele><time>2026-05-02T12:54:09.685Z</time></trkpt><trkpt lat="36.9556802" lon="8.7606479"><ele>0.2857142857142857</ele><time>2026-05-02T12:54:11.669Z</time></trkpt><trkpt lat="36.9556417" lon="8.7605827"><ele>0.42857142857142855</ele><time>2026-05-02T12:54:12.679Z</time></trkpt><trkpt lat="36.9556115" lon="8.7605124"><ele>0.5714285714285714</ele><time>2026-05-02T12:54:13.683Z</time></trkpt><trkpt lat="36.9555906" lon="8.7604353"><ele>0.7142857142857142</ele><time>2026-05-02T12:54:14.68Z</time></trkpt><trkpt lat="36.9555712" lon="8.7603516"><ele>0.8571428571428571</ele><time>2026-05-02T12:54:15.682Z</time></trkpt><trkpt lat="36.9555514" lon="8.7602756"><ele>1.0</ele><time>2026-05-02T12:54:16.676Z</time></trkpt><trkpt lat="36.9555149" lon="8.7601326"><ele>1.3333333333333333</ele><time>2026-05-02T12:54:18.669Z</time></trkpt><trkpt lat="36.9554867" lon="8.7600114"><ele>1.6666666666666665</ele><time>2026-05-02T12:54:20.678Z</time></trkpt><trkpt lat="36.9554532" lon="8.7599044"><ele>2.0</ele><time>2026-05-02T12:54:22.686Z</time></trkpt><trkpt lat="36.9554665" lon="8.759821"><ele>2.3333333333333335</ele><time>2026-05-02T12:54:24.674Z</time></trkpt><trkpt lat="36.9555357" lon="8.7597434"><ele>2.6666666666666665</ele><time>2026-05-02T12:54:26.671Z</time></trkpt><trkpt lat="36.9555789" lon="8.7596561"><ele>3.0</ele><time>2026-05-02T12:54:28.671Z</time></trkpt><trkpt lat="36.9555724" lon="8.7595465"><ele>3.0</ele><time>2026-05-02T12:54:30.685Z</time></trkpt><trkpt lat="36.9555469" lon="8.7593956"><ele>3.0</ele><time>2026-05-02T12:54:32.676Z</time></trkpt><trkpt lat="36.9555258" lon="8.7593114"><ele>3.0</ele><time>2026-05-02T12:54:33.684Z</time></trkpt><trkpt lat="36.9554997" lon="8.7592208"><ele>3.0</ele><time>2026-05-02T12:54:34.695Z</time></trkpt><trkpt lat="36.9554765" lon="8.7591306"><ele>3.0</ele><time>2026-05-02T12:54:35.69Z</time></trkpt><trkpt lat="36.9554563" lon="8.7590444"><ele>3.0</ele><time>2026-05-02T12:54:36.687Z</time></trkpt><trkpt lat="36.9554392" lon="8.7589665"><ele>2.8</ele><time>2026-05-02T12:54:37.689Z</time></trkpt><trkpt lat="36.9554186" lon="8.7588806"><ele>2.5999999999999996</ele><time>2026-05-02T12:54:38.672Z</time></trkpt><trkpt lat="36.9553948" lon="8.7588074"><ele>2.4000000000000004</ele><time>2026-05-02T12:54:39.676Z</time></trkpt><trkpt lat="36.9553731" lon="8.7587139"><ele>2.2</ele><time>2026-05-02T12:54:41.681Z</time></trkpt><trkpt lat="36.9553357" lon="8.7585794"><ele>2.0</ele><time>2026-05-02T12:54:43.679Z</time></trkpt><trkpt lat="36.9552961" lon="8.7584322"><ele>2.4000000000000004</ele><time>2026-05-02T12:54:45.673Z</time></trkpt><trkpt lat="36.9552562" lon="8.7582867"><ele>2.8000000000000003</ele><time>2026-05-02T12:54:47.674Z</time></trkpt><trkpt lat="36.9552139" lon="8.7581476"><ele>3.2</ele><time>2026-05-02T12:54:49.67Z</time></trkpt><trkpt lat="36.9551778" lon="8.7580293"><ele>3.6</ele><time>2026-05-02T12:54:51.673Z</time></trkpt><trkpt lat="36.9551466" lon="8.7579434"><ele>4.0</ele><time>2026-05-02T12:54:53.679Z</time></trkpt><trkpt lat="36.9551096" lon="8.7578666"><ele>4.0</ele><time>2026-05-02T12:54:57.689Z</time></trkpt><trkpt lat="36.955075" lon="8.7577869"><ele>3.9999999999999996</ele><time>2026-05-02T12:55:01.686Z</time></trkpt><trkpt lat="36.9550569" lon="8.757699"><ele>4.0</ele><time>2026-05-02T12:55:06.678Z</time></trkpt><trkpt lat="36.9550432" lon="8.7576058"><ele>4.0</ele><time>2026-05-02T12:55:10.685Z</time></trkpt><trkpt lat="36.9550207" lon="8.7575168"><ele>3.9999999999999996</ele><time>2026-05-02T12:55:14.671Z</time></trkpt><trkpt lat="36.9549858" lon="8.7574279"><ele>4.0</ele><time>2026-05-02T12:55:17.673Z</time></trkpt><trkpt lat="36.9549445" lon="8.7573524"><ele>4.0</ele><time>2026-05-02T12:55:19.683Z</time></trkpt><trkpt lat="36.9548952" lon="8.7572785"><ele>4.0</ele><time>2026-05-02T12:55:21.671Z</time></trkpt><trkpt lat="36.9548389" lon="8.7572265"><ele>3.9999999999999996</ele><time>2026-05-02T12:55:23.671Z</time></trkpt><trkpt lat="36.9547672" lon="8.7571824"><ele>4.0</ele><time>2026-05-02T12:55:27.683Z</time></trkpt><trkpt lat="36.9546949" lon="8.7572063"><ele>4.0</ele><time>2026-05-02T12:55:30.676Z</time></trkpt><trkpt lat="36.9546418" lon="8.7572574"><ele>3.9999999999999996</ele><time>2026-05-02T12:55:32.684Z</time></trkpt><trkpt lat="36.9546101" lon="8.7573349"><ele>4.0</ele><time>2026-05-02T12:55:34.685Z</time></trkpt><trkpt lat="36.9545876" lon="8.7574224"><ele>4.0</ele><time>2026-05-02T12:55:36.685Z</time></trkpt><trkpt lat="36.954558" lon="8.7574983"><ele>3.9999999999999996</ele><time>2026-05-02T12:55:38.671Z</time></trkpt><trkpt lat="36.9544979" lon="8.7575683"><ele>4.0</ele><time>2026-05-02T12:55:40.677Z</time></trkpt><trkpt lat="36.9544111" lon="8.7576292"><ele>4.0</ele><time>2026-05-02T12:55:42.688Z</time></trkpt><trkpt lat="36.9543482" lon="8.7576866"><ele>4.0</ele><time>2026-05-02T12:55:44.679Z</time></trkpt><trkpt lat="36.954288" lon="8.7577399"><ele>3.9999999999999996</ele><time>2026-05-02T12:55:46.682Z</time></trkpt><trkpt lat="36.9542331" lon="8.7577935"><ele>4.0</ele><time>2026-05-02T12:55:48.683Z</time></trkpt><trkpt lat="36.9541822" lon="8.7578455"><ele>3.6666666666666665</ele><time>2026-05-02T12:55:50.683Z</time></trkpt><trkpt lat="36.9541074" lon="8.7579037"><ele>3.333333333333333</ele><time>2026-05-02T12:55:53.677Z</time></trkpt><trkpt lat="36.9540533" lon="8.7579621"><ele>3.0</ele><time>2026-05-02T12:55:56.68Z</time></trkpt><trkpt lat="36.9539922" lon="8.7580357"><ele>2.6666666666666665</ele><time>2026-05-02T12:55:59.684Z</time></trkpt><trkpt lat="36.9539281" lon="8.7581026"><ele>2.333333333333333</ele><time>2026-05-02T12:56:02.682Z</time></trkpt><trkpt lat="36.9538746" lon="8.7581603"><ele>2.0</ele><time>2026-05-02T12:56:04.674Z</time></trkpt><trkpt lat="36.9538231" lon="8.7582114"><ele>1.9999999999999998</ele><time>2026-05-02T12:56:06.683Z</time></trkpt><trkpt lat="36.9537638" lon="8.7582658"><ele>2.0</ele><time>2026-05-02T12:56:08.682Z</time></trkpt><trkpt lat="36.953695" lon="8.7583312"><ele>2.0</ele><time>2026-05-02T12:56:10.677Z</time></trkpt><trkpt lat="36.9536385" lon="8.7583822"><ele>2.0</ele><time>2026-05-02T12:56:12.686Z</time></trkpt><trkpt lat="36.953565" lon="8.7584468"><ele>1.9999999999999998</ele><time>2026-05-02T12:56:15.694Z</time></trkpt><trkpt lat="36.9534921" lon="8.7585116"><ele>2.0</ele><time>2026-05-02T12:56:18.684Z</time></trkpt><trkpt lat="36.9534196" lon="8.7585749"><ele>1.9999999999999998</ele><time>2026-05-02T12:56:21.684Z</time></trkpt><trkpt lat="36.9533585" lon="8.7586309"><ele>2.0</ele><time>2026-05-02T12:56:23.662Z</time></trkpt><trkpt lat="36.9532999" lon="8.7586904"><ele>2.0</ele><time>2026-05-02T12:56:25.694Z</time></trkpt><trkpt lat="36.9532539" lon="8.758747"><ele>2.0</ele><time>2026-05-02T12:56:27.679Z</time></trkpt><trkpt lat="36.9531942" lon="8.7588124"><ele>1.9999999999999998</ele><time>2026-05-02T12:56:30.682Z</time></trkpt><trkpt lat="36.9531238" lon="8.758896"><ele>2.0</ele><time>2026-05-02T12:56:33.675Z</time></trkpt><trkpt lat="36.9530537" lon="8.7589611"><ele>1.9999999999999998</ele><time>2026-05-02T12:56:35.67Z</time></trkpt><trkpt lat="36.9529991" lon="8.7590153"><ele>2.0</ele><time>2026-05-02T12:56:37.682Z</time></trkpt><trkpt lat="36.9529458" lon="8.7590679"><ele>2.0</ele><time>2026-05-02T12:56:39.687Z</time></trkpt><trkpt lat="36.9528884" lon="8.7591227"><ele>2.0</ele><time>2026-05-02T12:56:41.686Z</time></trkpt><trkpt lat="36.9528173" lon="8.759188"><ele>1.9999999999999998</ele><time>2026-05-02T12:56:44.681Z</time></trkpt><trkpt lat="36.9527582" lon="8.7592349"><ele>2.0</ele><time>2026-05-02T12:56:46.684Z</time></trkpt><trkpt lat="36.9526878" lon="8.7592916"><ele>1.9999999999999998</ele><time>2026-05-02T12:56:48.685Z</time></trkpt><trkpt lat="36.9526087" lon="8.7593558"><ele>2.0</ele><time>2026-05-02T12:56:50.689Z</time></trkpt><trkpt lat="36.952537" lon="8.7594229"><ele>2.0</ele><time>2026-05-02T12:56:52.683Z</time></trkpt><trkpt lat="36.9524682" lon="8.7594945"><ele>2.0</ele><time>2026-05-02T12:56:54.679Z</time></trkpt><trkpt lat="36.9524058" lon="8.7595623"><ele>1.9999999999999998</ele><time>2026-05-02T12:56:56.687Z</time></trkpt><trkpt lat="36.9523438" lon="8.7596294"><ele>2.0</ele><time>2026-05-02T12:56:58.684Z</time></trkpt><trkpt lat="36.9522775" lon="8.7596961"><ele>2.2857142857142856</ele><time>2026-05-02T12:57:00.673Z</time></trkpt><trkpt lat="36.9522147" lon="8.7597506"><ele>2.571428571428571</ele><time>2026-05-02T12:57:02.676Z</time></trkpt><trkpt lat="36.9521557" lon="8.7597838"><ele>2.8571428571428568</ele><time>2026-05-02T12:57:04.673Z</time></trkpt><trkpt lat="36.9520918" lon="8.7598182"><ele>3.142857142857143</ele><time>2026-05-02T12:57:07.666Z</time></trkpt><trkpt lat="36.9520232" lon="8.7598373"><ele>3.428571428571428</ele><time>2026-05-02T12:57:11.679Z</time></trkpt><trkpt lat="36.9519487" lon="8.7598724"><ele>3.714285714285714</ele><time>2026-05-02T12:57:18.68Z</time></trkpt><trkpt lat="36.9519048" lon="8.75995"><ele>4.0</ele><time>2026-05-02T12:57:20.686Z</time></trkpt><trkpt lat="36.9518899" lon="8.7600703"><ele>4.0</ele><time>2026-05-02T12:57:22.673Z</time></trkpt><trkpt lat="36.9519052" lon="8.7602189"><ele>4.0</ele><time>2026-05-02T12:57:24.667Z</time></trkpt><trkpt lat="36.9519339" lon="8.7603533"><ele>4.0</ele><time>2026-05-02T12:57:26.68Z</time></trkpt><trkpt lat="36.9519522" lon="8.76047"><ele>4.0</ele><time>2026-05-02T12:57:28.675Z</time></trkpt><trkpt lat="36.9519367" lon="8.7605768"><ele>4.0</ele><time>2026-05-02T12:57:30.678Z</time></trkpt><trkpt lat="36.9518964" lon="8.760701"><ele>3.9999999999999996</ele><time>2026-05-02T12:57:32.677Z</time></trkpt><trkpt lat="36.951854" lon="8.7608479"><ele>4.0</ele><time>2026-05-02T12:57:34.668Z</time></trkpt><trkpt lat="36.9518339" lon="8.7609374"><ele>4.0</ele><time>2026-05-02T12:57:35.68Z</time></trkpt><trkpt lat="36.9518058" lon="8.7610231"><ele>4.0</ele><time>2026-05-02T12:57:36.689Z</time></trkpt><trkpt lat="36.9517799" lon="8.7611035"><ele>3.9999999999999996</ele><time>2026-05-02T12:57:37.678Z</time></trkpt><trkpt lat="36.9517589" lon="8.7611816"><ele>4.0</ele><time>2026-05-02T12:57:38.675Z</time></trkpt><trkpt lat="36.9517277" lon="8.7613251"><ele>3.6</ele><time>2026-05-02T12:57:40.68Z</time></trkpt><trkpt lat="36.9516999" lon="8.7614387"><ele>3.2</ele><time>2026-05-02T12:57:42.67Z</time></trkpt><trkpt lat="36.9516693" lon="8.761558"><ele>2.8000000000000003</ele><time>2026-05-02T12:57:44.685Z</time></trkpt><trkpt lat="36.9516229" lon="8.7616921"><ele>2.4000000000000004</ele><time>2026-05-02T12:57:46.692Z</time></trkpt><trkpt lat="36.9516001" lon="8.7617761"><ele>2.0</ele><time>2026-05-02T12:57:47.7Z</time></trkpt><trkpt lat="36.9515778" lon="8.7618598"><ele>2.0</ele><time>2026-05-02T12:57:48.704Z</time></trkpt><trkpt lat="36.9515574" lon="8.7619457"><ele>1.9999999999999998</ele><time>2026-05-02T12:57:49.679Z</time></trkpt><trkpt lat="36.9515328" lon="8.7620243"><ele>2.0</ele><time>2026-05-02T12:57:50.689Z</time></trkpt><trkpt lat="36.9515087" lon="8.7621092"><ele>2.0</ele><time>2026-05-02T12:57:51.676Z</time></trkpt><trkpt lat="36.9514846" lon="8.7621973"><ele>1.9999999999999998</ele><time>2026-05-02T12:57:52.687Z</time></trkpt><trkpt lat="36.951464" lon="8.7622848"><ele>2.0</ele><time>2026-05-02T12:57:53.678Z</time></trkpt><trkpt lat="36.9514409" lon="8.7623741"><ele>2.0</ele><time>2026-05-02T12:57:54.672Z</time></trkpt><trkpt lat="36.9514208" lon="8.7624561"><ele>1.9999999999999998</ele><time>2026-05-02T12:57:55.678Z</time></trkpt><trkpt lat="36.9513944" lon="8.762543"><ele>2.0</ele><time>2026-05-02T12:57:56.685Z</time></trkpt><trkpt lat="36.9513714" lon="8.7626387"><ele>2.0</ele><time>2026-05-02T12:57:57.678Z</time></trkpt><trkpt lat="36.9513487" lon="8.7627353"><ele>2.0</ele><time>2026-05-02T12:57:58.687Z</time></trkpt><trkpt lat="36.9513241" lon="8.7628316"><ele>1.9999999999999998</ele><time>2026-05-02T12:57:59.68Z</time></trkpt><trkpt lat="36.9513004" lon="8.7629233"><ele>2.0</ele><time>2026-05-02T12:58:00.68Z</time></trkpt><trkpt lat="36.9512753" lon="8.7630126"><ele>2.0</ele><time>2026-05-02T12:58:01.687Z</time></trkpt><trkpt lat="36.9512556" lon="8.7630954"><ele>1.9999999999999998</ele><time>2026-05-02T12:58:02.673Z</time></trkpt><trkpt lat="36.9512386" lon="8.763177"><ele>2.0</ele><time>2026-05-02T12:58:03.684Z</time></trkpt><trkpt lat="36.9512173" lon="8.7632598"><ele>2.0</ele><time>2026-05-02T12:58:04.672Z</time></trkpt><trkpt lat="36.9512038" lon="8.7633401"><ele>1.9999999999999998</ele><time>2026-05-02T12:58:05.679Z</time></trkpt><trkpt lat="36.9511898" lon="8.76342"><ele>2.0</ele><time>2026-05-02T12:58:06.675Z</time></trkpt><trkpt lat="36.9511727" lon="8.7635051"><ele>2.0</ele><time>2026-05-02T12:58:07.671Z</time></trkpt><trkpt lat="36.9511541" lon="8.7636021"><ele>1.6666666666666665</ele><time>2026-05-02T12:58:08.692Z</time></trkpt><trkpt lat="36.9511375" lon="8.7637015"><ele>1.3333333333333333</ele><time>2026-05-02T12:58:09.68Z</time></trkpt><trkpt lat="36.9511237" lon="8.7638003"><ele>1.0</ele><time>2026-05-02T12:58:10.675Z</time></trkpt><trkpt lat="36.9511088" lon="8.7639028"><ele>0.6666666666666666</ele><time>2026-05-02T12:58:11.68Z</time></trkpt><trkpt lat="36.9510949" lon="8.7640095"><ele>0.3333333333333333</ele><time>2026-05-02T12:58:12.692Z</time></trkpt><trkpt lat="36.9510783" lon="8.7641235"><ele>0.0</ele><time>2026-05-02T12:58:13.676Z</time></trkpt><trkpt lat="36.9510621" lon="8.7642319"><ele>0.0</ele><time>2026-05-02T12:58:14.676Z</time></trkpt><trkpt lat="36.9510458" lon="8.7643565"><ele>0.0</ele><time>2026-05-02T12:58:15.672Z</time></trkpt><trkpt lat="36.9510363" lon="8.7644829"><ele>0.0</ele><time>2026-05-02T12:58:16.679Z</time></trkpt><trkpt lat="36.9510248" lon="8.7646106"><ele>0.0</ele><time>2026-05-02T12:58:17.671Z</time></trkpt><trkpt lat="36.9510117" lon="8.7647378"><ele>0.0</ele><time>2026-05-02T12:58:18.675Z</time></trkpt><trkpt lat="36.9510015" lon="8.7648707"><ele>0.0</ele><time>2026-05-02T12:58:19.685Z</time></trkpt><trkpt lat="36.9509921" lon="8.7650065"><ele>0.0</ele><time>2026-05-02T12:58:20.672Z</time></trkpt><trkpt lat="36.9509826" lon="8.7651478"><ele>0.0</ele><time>2026-05-02T12:58:21.678Z</time></trkpt><trkpt lat="36.9509693" lon="8.7652961"><ele>0.0</ele><time>2026-05-02T12:58:22.674Z</time></trkpt><trkpt lat="36.9509563" lon="8.7654431"><ele>0.0</ele><time>2026-05-02T12:58:23.679Z</time></trkpt><trkpt lat="36.9509458" lon="8.7655891"><ele>0.0</ele><time>2026-05-02T12:58:24.678Z</time></trkpt><trkpt lat="36.9509347" lon="8.7657368"><ele>0.0</ele><time>2026-05-02T12:58:25.684Z</time></trkpt><trkpt lat="36.9509244" lon="8.7658819"><ele>0.0</ele><time>2026-05-02T12:58:26.674Z</time></trkpt><trkpt lat="36.9509179" lon="8.7660263"><ele>0.0</ele><time>2026-05-02T12:58:27.682Z</time></trkpt><trkpt lat="36.9509068" lon="8.7661717"><ele>0.0</ele><time>2026-05-02T12:58:28.668Z</time></trkpt><trkpt lat="36.9508983" lon="8.7663161"><ele>0.0</ele><time>2026-05-02T12:58:29.684Z</time></trkpt><trkpt lat="36.9508861" lon="8.766462"><ele>0.0</ele><time>2026-05-02T12:58:30.671Z</time></trkpt><trkpt lat="36.9508723" lon="8.7666122"><ele>0.25</ele><time>2026-05-02T12:58:31.685Z</time></trkpt><trkpt lat="36.9508631" lon="8.7667702"><ele>0.5</ele><time>2026-05-02T12:58:32.695Z</time></trkpt><trkpt lat="36.9508483" lon="8.7669354"><ele>0.75</ele><time>2026-05-02T12:58:33.667Z</time></trkpt><trkpt lat="36.9508332" lon="8.7671128"><ele>1.0</ele><time>2026-05-02T12:58:34.68Z</time></trkpt><trkpt lat="36.9508184" lon="8.7672929"><ele>1.25</ele><time>2026-05-02T12:58:35.678Z</time></trkpt><trkpt lat="36.9508038" lon="8.767467"><ele>1.5</ele><time>2026-05-02T12:58:36.674Z</time></trkpt><trkpt lat="36.9507942" lon="8.7676402"><ele>1.75</ele><time>2026-05-02T12:58:37.673Z</time></trkpt><trkpt lat="36.9507833" lon="8.7678132"><ele>2.0</ele><time>2026-05-02T12:58:38.68Z</time></trkpt><trkpt lat="36.9507781" lon="8.7679906"><ele>2.0</ele><time>2026-05-02T12:58:39.686Z</time></trkpt><trkpt lat="36.9507673" lon="8.7681711"><ele>2.0</ele><time>2026-05-02T12:58:40.696Z</time></trkpt><trkpt lat="36.9507601" lon="8.768347"><ele>2.0</ele><time>2026-05-02T12:58:41.678Z</time></trkpt><trkpt lat="36.9507482" lon="8.7685256"><ele>2.0</ele><time>2026-05-02T12:58:42.705Z</time></trkpt><trkpt lat="36.9507423" lon="8.7687048"><ele>2.75</ele><time>2026-05-02T12:58:43.695Z</time></trkpt><trkpt lat="36.9507365" lon="8.7688869"><ele>3.5</ele><time>2026-05-02T12:58:44.683Z</time></trkpt><trkpt lat="36.95073" lon="8.7690705"><ele>4.25</ele><time>2026-05-02T12:58:45.689Z</time></trkpt><trkpt lat="36.950721" lon="8.769253"><ele>5.0</ele><time>2026-05-02T12:58:46.693Z</time></trkpt><trkpt lat="36.9507142" lon="8.7694348"><ele>5.0</ele><time>2026-05-02T12:58:47.679Z</time></trkpt><trkpt lat="36.9507034" lon="8.7696248"><ele>5.0</ele><time>2026-05-02T12:58:48.683Z</time></trkpt><trkpt lat="36.9506902" lon="8.769813"><ele>5.0</ele><time>2026-05-02T12:58:49.685Z</time></trkpt><trkpt lat="36.9506707" lon="8.7700001"><ele>4.666666666666667</ele><time>2026-05-02T12:58:50.683Z</time></trkpt><trkpt lat="36.9506454" lon="8.770193"><ele>4.333333333333333</ele><time>2026-05-02T12:58:51.674Z</time></trkpt><trkpt lat="36.9506115" lon="8.7703791"><ele>4.0</ele><time>2026-05-02T12:58:52.666Z</time></trkpt><trkpt lat="36.9505707" lon="8.7705732"><ele>4.0</ele><time>2026-05-02T12:58:53.683Z</time></trkpt><trkpt lat="36.9505251" lon="8.770763"><ele>4.0</ele><time>2026-05-02T12:58:54.674Z</time></trkpt><trkpt lat="36.9504699" lon="8.7709531"><ele>4.0</ele><time>2026-05-02T12:58:55.673Z</time></trkpt><trkpt lat="36.9504154" lon="8.7711424"><ele>4.333333333333333</ele><time>2026-05-02T12:58:56.674Z</time></trkpt><trkpt lat="36.9503584" lon="8.7713287"><ele>4.666666666666667</ele><time>2026-05-02T12:58:57.67Z</time></trkpt><trkpt lat="36.9503016" lon="8.7715092"><ele>5.0</ele><time>2026-05-02T12:58:58.68Z</time></trkpt><trkpt lat="36.9502449" lon="8.771689"><ele>5.666666666666667</ele><time>2026-05-02T12:58:59.68Z</time></trkpt><trkpt lat="36.9501845" lon="8.7718692"><ele>6.333333333333334</ele><time>2026-05-02T12:59:00.677Z</time></trkpt><trkpt lat="36.9501266" lon="8.7720438"><ele>7.0</ele><time>2026-05-02T12:59:01.682Z</time></trkpt><trkpt lat="36.9500693" lon="8.7722173"><ele>6.25</ele><time>2026-05-02T12:59:02.699Z</time></trkpt><trkpt lat="36.9500087" lon="8.7723873"><ele>5.5</ele><time>2026-05-02T12:59:03.675Z</time></trkpt><trkpt lat="36.9499451" lon="8.7725519"><ele>4.75</ele><time>2026-05-02T12:59:04.671Z</time></trkpt><trkpt lat="36.9498779" lon="8.7727141"><ele>4.0</ele><time>2026-05-02T12:59:05.672Z</time></trkpt><trkpt lat="36.9498049" lon="8.7728671"><ele>4.0</ele><time>2026-05-02T12:59:06.668Z</time></trkpt><trkpt lat="36.9497221" lon="8.7730185"><ele>4.0</ele><time>2026-05-02T12:59:07.662Z</time></trkpt><trkpt lat="36.9496348" lon="8.7731693"><ele>4.0</ele><time>2026-05-02T12:59:08.671Z</time></trkpt><trkpt lat="36.9495446" lon="8.773323"><ele>4.0</ele><time>2026-05-02T12:59:09.682Z</time></trkpt><trkpt lat="36.9494478" lon="8.7734771"><ele>4.0</ele><time>2026-05-02T12:59:10.678Z</time></trkpt><trkpt lat="36.9493564" lon="8.7736318"><ele>4.0</ele><time>2026-05-02T12:59:11.686Z</time></trkpt><trkpt lat="36.9492665" lon="8.7737906"><ele>4.0</ele><time>2026-05-02T12:59:12.679Z</time></trkpt><trkpt lat="36.9491776" lon="8.7739571"><ele>4.0</ele><time>2026-05-02T12:59:13.668Z</time></trkpt><trkpt lat="36.949098" lon="8.7741295"><ele>4.0</ele><time>2026-05-02T12:59:14.681Z</time></trkpt><trkpt lat="36.9490262" lon="8.7743229"><ele>4.0</ele><time>2026-05-02T12:59:15.674Z</time></trkpt><trkpt lat="36.9489619" lon="8.77453"><ele>4.0</ele><time>2026-05-02T12:59:16.681Z</time></trkpt><trkpt lat="36.9488965" lon="8.7747384"><ele>4.0</ele><time>2026-05-02T12:59:17.676Z</time></trkpt><trkpt lat="36.9488326" lon="8.7749542"><ele>4.0</ele><time>2026-05-02T12:59:18.686Z</time></trkpt><trkpt lat="36.9487696" lon="8.7751738"><ele>3.6666666666666665</ele><time>2026-05-02T12:59:19.68Z</time></trkpt><trkpt lat="36.9487031" lon="8.7753847"><ele>3.333333333333333</ele><time>2026-05-02T12:59:20.686Z</time></trkpt><trkpt lat="36.948639" lon="8.7755976"><ele>3.0</ele><time>2026-05-02T12:59:21.679Z</time></trkpt><trkpt lat="36.9485792" lon="8.7757977"><ele>3.0</ele><time>2026-05-02T12:59:22.679Z</time></trkpt><trkpt lat="36.9485234" lon="8.7759911"><ele>3.0</ele><time>2026-05-02T12:59:23.675Z</time></trkpt><trkpt lat="36.9484677" lon="8.7761876"><ele>3.0</ele><time>2026-05-02T12:59:24.669Z</time></trkpt><trkpt lat="36.9484085" lon="8.7763875"><ele>3.0</ele><time>2026-05-02T12:59:25.678Z</time></trkpt><trkpt lat="36.9483521" lon="8.7765812"><ele>3.0</ele><time>2026-05-02T12:59:26.68Z</time></trkpt><trkpt lat="36.9482973" lon="8.7767739"><ele>3.0</ele><time>2026-05-02T12:59:27.688Z</time></trkpt><trkpt lat="36.9482457" lon="8.7769677"><ele>3.333333333333333</ele><time>2026-05-02T12:59:28.682Z</time></trkpt><trkpt lat="36.9482004" lon="8.7771605"><ele>3.6666666666666665</ele><time>2026-05-02T12:59:29.69Z</time></trkpt><trkpt lat="36.9481535" lon="8.7773558"><ele>4.0</ele><time>2026-05-02T12:59:30.692Z</time></trkpt><trkpt lat="36.9481053" lon="8.7775507"><ele>4.0</ele><time>2026-05-02T12:59:31.692Z</time></trkpt><trkpt lat="36.9480586" lon="8.7777444"><ele>4.0</ele><time>2026-05-02T12:59:32.681Z</time></trkpt><trkpt lat="36.9480222" lon="8.7779369"><ele>4.0</ele><time>2026-05-02T12:59:33.668Z</time></trkpt><trkpt lat="36.947985" lon="8.7781302"><ele>4.0</ele><time>2026-05-02T12:59:34.669Z</time></trkpt><trkpt lat="36.94795" lon="8.7783264"><ele>4.0</ele><time>2026-05-02T12:59:35.683Z</time></trkpt><trkpt lat="36.9479146" lon="8.778522"><ele>4.0</ele><time>2026-05-02T12:59:36.675Z</time></trkpt><trkpt lat="36.9478816" lon="8.7787192"><ele>3.6666666666666665</ele><time>2026-05-02T12:59:37.685Z</time></trkpt><trkpt lat="36.9478435" lon="8.7789207"><ele>3.333333333333333</ele><time>2026-05-02T12:59:38.679Z</time></trkpt><trkpt lat="36.9478064" lon="8.779118"><ele>3.0</ele><time>2026-05-02T12:59:39.683Z</time></trkpt><trkpt lat="36.947769" lon="8.7793212"><ele>3.0</ele><time>2026-05-02T12:59:40.68Z</time></trkpt><trkpt lat="36.9477306" lon="8.7795169"><ele>3.0</ele><time>2026-05-02T12:59:41.68Z</time></trkpt><trkpt lat="36.9476903" lon="8.7797235"><ele>3.0</ele><time>2026-05-02T12:59:42.683Z</time></trkpt><trkpt lat="36.9476464" lon="8.77993"><ele>3.0</ele><time>2026-05-02T12:59:43.676Z</time></trkpt><trkpt lat="36.947604" lon="8.7801352"><ele>3.0</ele><time>2026-05-02T12:59:44.691Z</time></trkpt><trkpt lat="36.9475617" lon="8.7803448"><ele>3.0</ele><time>2026-05-02T12:59:45.676Z</time></trkpt><trkpt lat="36.947521" lon="8.7805482"><ele>3.0</ele><time>2026-05-02T12:59:46.673Z</time></trkpt><trkpt lat="36.9474767" lon="8.7807451"><ele>3.0</ele><time>2026-05-02T12:59:47.675Z</time></trkpt><trkpt lat="36.9474302" lon="8.7809404"><ele>3.0</ele><time>2026-05-02T12:59:48.676Z</time></trkpt><trkpt lat="36.9473878" lon="8.7811277"><ele>3.0</ele><time>2026-05-02T12:59:49.681Z</time></trkpt><trkpt lat="36.9473445" lon="8.781315"><ele>3.0</ele><time>2026-05-02T12:59:50.687Z</time></trkpt><trkpt lat="36.9473027" lon="8.7815019"><ele>3.0</ele><time>2026-05-02T12:59:51.677Z</time></trkpt><trkpt lat="36.9472646" lon="8.7816865"><ele>3.25</ele><time>2026-05-02T12:59:52.669Z</time></trkpt><trkpt lat="36.9472252" lon="8.7818762"><ele>3.5</ele><time>2026-05-02T12:59:53.685Z</time></trkpt><trkpt lat="36.9471932" lon="8.7820463"><ele>3.75</ele><time>2026-05-02T12:59:54.691Z</time></trkpt><trkpt lat="36.947165" lon="8.7821916"><ele>4.0</ele><time>2026-05-02T12:59:55.688Z</time></trkpt><trkpt lat="36.9471325" lon="8.7823262"><ele>3.9999999999999996</ele><time>2026-05-02T12:59:56.685Z</time></trkpt><trkpt lat="36.9471061" lon="8.7824369"><ele>4.0</ele><time>2026-05-02T12:59:57.686Z</time></trkpt><trkpt lat="36.9470846" lon="8.7825229"><ele>4.0</ele><time>2026-05-02T12:59:58.683Z</time></trkpt><trkpt lat="36.9470513" lon="8.7826689"><ele>4.0</ele><time>2026-05-02T13:00:00.681Z</time></trkpt><trkpt lat="36.9470376" lon="8.7827528"><ele>3.9999999999999996</ele><time>2026-05-02T13:00:01.684Z</time></trkpt><trkpt lat="36.9470224" lon="8.7828452"><ele>4.0</ele><time>2026-05-02T13:00:02.689Z</time></trkpt><trkpt lat="36.9470073" lon="8.7829432"><ele>4.4</ele><time>2026-05-02T13:00:03.685Z</time></trkpt><trkpt lat="36.9469885" lon="8.7830481"><ele>4.800000000000001</ele><time>2026-05-02T13:00:04.682Z</time></trkpt><trkpt lat="36.9469719" lon="8.7831568"><ele>5.199999999999999</ele><time>2026-05-02T13:00:05.675Z</time></trkpt><trkpt lat="36.9469502" lon="8.7832669"><ele>5.6</ele><time>2026-05-02T13:00:06.695Z</time></trkpt><trkpt lat="36.9469286" lon="8.7833843"><ele>6.0</ele><time>2026-05-02T13:00:07.681Z</time></trkpt><trkpt lat="36.9469071" lon="8.7834973"><ele>6.0</ele><time>2026-05-02T13:00:08.679Z</time></trkpt><trkpt lat="36.9468862" lon="8.783608"><ele>6.0</ele><time>2026-05-02T13:00:09.674Z</time></trkpt><trkpt lat="36.9468675" lon="8.7837169"><ele>6.0</ele><time>2026-05-02T13:00:10.683Z</time></trkpt><trkpt lat="36.9468456" lon="8.7838293"><ele>6.0</ele><time>2026-05-02T13:00:11.681Z</time></trkpt><trkpt lat="36.9468241" lon="8.783938"><ele>6.0</ele><time>2026-05-02T13:00:12.688Z</time></trkpt><trkpt lat="36.9468045" lon="8.7840523"><ele>6.0</ele><time>2026-05-02T13:00:13.691Z</time></trkpt><trkpt lat="36.9467818" lon="8.7841663"><ele>6.0</ele><time>2026-05-02T13:00:14.675Z</time></trkpt><trkpt lat="36.9467643" lon="8.7842876"><ele>6.0</ele><time>2026-05-02T13:00:15.691Z</time></trkpt><trkpt lat="36.9467432" lon="8.7844011"><ele>6.0</ele><time>2026-05-02T13:00:16.682Z</time></trkpt><trkpt lat="36.9467236" lon="8.7845156"><ele>6.0</ele><time>2026-05-02T13:00:17.677Z</time></trkpt><trkpt lat="36.9467029" lon="8.7846365"><ele>6.0</ele><time>2026-05-02T13:00:18.679Z</time></trkpt><trkpt lat="36.9466826" lon="8.7847608"><ele>6.0</ele><time>2026-05-02T13:00:19.655Z</time></trkpt><trkpt lat="36.9466566" lon="8.7848886"><ele>6.0</ele><time>2026-05-02T13:00:20.663Z</time></trkpt><trkpt lat="36.9466329" lon="8.7850192"><ele>6.0</ele><time>2026-05-02T13:00:21.675Z</time></trkpt><trkpt lat="36.9466089" lon="8.7851605"><ele>6.0</ele><time>2026-05-02T13:00:22.677Z</time></trkpt><trkpt lat="36.9465834" lon="8.7853011"><ele>6.0</ele><time>2026-05-02T13:00:23.65Z</time></trkpt><trkpt lat="36.9465632" lon="8.7854441"><ele>6.0</ele><time>2026-05-02T13:00:24.665Z</time></trkpt><trkpt lat="36.9465381" lon="8.7855895"><ele>6.0</ele><time>2026-05-02T13:00:25.668Z</time></trkpt><trkpt lat="36.9465182" lon="8.7857419"><ele>6.0</ele><time>2026-05-02T13:00:26.657Z</time></trkpt><trkpt lat="36.9464948" lon="8.7858988"><ele>5.5</ele><time>2026-05-02T13:00:27.659Z</time></trkpt><trkpt lat="36.9464743" lon="8.7860479"><ele>5.0</ele><time>2026-05-02T13:00:28.658Z</time></trkpt><trkpt lat="36.9464547" lon="8.7861962"><ele>4.5</ele><time>2026-05-02T13:00:29.666Z</time></trkpt><trkpt lat="36.9464318" lon="8.7863494"><ele>4.0</ele><time>2026-05-02T13:00:30.669Z</time></trkpt><trkpt lat="36.9464024" lon="8.7865033"><ele>4.0</ele><time>2026-05-02T13:00:31.677Z</time></trkpt><trkpt lat="36.9463752" lon="8.786659"><ele>4.0</ele><time>2026-05-02T13:00:32.686Z</time></trkpt><trkpt lat="36.9463488" lon="8.7868172"><ele>4.0</ele><time>2026-05-02T13:00:33.679Z</time></trkpt><trkpt lat="36.9463202" lon="8.7869738"><ele>4.0</ele><time>2026-05-02T13:00:34.703Z</time></trkpt><trkpt lat="36.9462978" lon="8.7871307"><ele>4.5</ele><time>2026-05-02T13:00:35.674Z</time></trkpt><trkpt lat="36.9462751" lon="8.7872899"><ele>5.0</ele><time>2026-05-02T13:00:36.684Z</time></trkpt><trkpt lat="36.9462498" lon="8.7874485"><ele>5.5</ele><time>2026-05-02T13:00:37.691Z</time></trkpt><trkpt lat="36.9462234" lon="8.7876043"><ele>6.0</ele><time>2026-05-02T13:00:38.663Z</time></trkpt><trkpt lat="36.9461937" lon="8.7877605"><ele>6.5</ele><time>2026-05-02T13:00:39.678Z</time></trkpt><trkpt lat="36.9461683" lon="8.7879097"><ele>7.0</ele><time>2026-05-02T13:00:40.685Z</time></trkpt><trkpt lat="36.946141" lon="8.7880661"><ele>7.5</ele><time>2026-05-02T13:00:41.682Z</time></trkpt><trkpt lat="36.9461137" lon="8.7882187"><ele>8.0</ele><time>2026-05-02T13:00:42.676Z</time></trkpt><trkpt lat="36.9460839" lon="8.7883739"><ele>7.75</ele><time>2026-05-02T13:00:43.69Z</time></trkpt><trkpt lat="36.946055" lon="8.7885278"><ele>7.5</ele><time>2026-05-02T13:00:44.678Z</time></trkpt><trkpt lat="36.946022" lon="8.7886876"><ele>7.25</ele><time>2026-05-02T13:00:45.687Z</time></trkpt><trkpt lat="36.9459915" lon="8.7888621"><ele>7.0</ele><time>2026-05-02T13:00:46.667Z</time></trkpt><trkpt lat="36.9459582" lon="8.789044"><ele>7.0</ele><time>2026-05-02T13:00:47.699Z</time></trkpt><trkpt lat="36.9459303" lon="8.789228"><ele>7.0</ele><time>2026-05-02T13:00:48.667Z</time></trkpt><trkpt lat="36.9458942" lon="8.7894162"><ele>7.0</ele><time>2026-05-02T13:00:49.68Z</time></trkpt><trkpt lat="36.9458642" lon="8.7895975"><ele>6.666666666666667</ele><time>2026-05-02T13:00:50.682Z</time></trkpt><trkpt lat="36.9458305" lon="8.7897839"><ele>6.333333333333334</ele><time>2026-05-02T13:00:51.689Z</time></trkpt><trkpt lat="36.9457976" lon="8.7899724"><ele>6.0</ele><time>2026-05-02T13:00:52.688Z</time></trkpt><trkpt lat="36.9457702" lon="8.7901537"><ele>6.0</ele><time>2026-05-02T13:00:53.689Z</time></trkpt><trkpt lat="36.9457443" lon="8.7903408"><ele>6.0</ele><time>2026-05-02T13:00:54.684Z</time></trkpt><trkpt lat="36.9457185" lon="8.7905283"><ele>6.0</ele><time>2026-05-02T13:00:55.686Z</time></trkpt><trkpt lat="36.9456911" lon="8.7907133"><ele>6.0</ele><time>2026-05-02T13:00:56.683Z</time></trkpt><trkpt lat="36.9456634" lon="8.7908979"><ele>6.0</ele><time>2026-05-02T13:00:57.679Z</time></trkpt><trkpt lat="36.9456325" lon="8.7910804"><ele>6.0</ele><time>2026-05-02T13:00:58.682Z</time></trkpt><trkpt lat="36.9456008" lon="8.7912722"><ele>6.666666666666666</ele><time>2026-05-02T13:00:59.685Z</time></trkpt><trkpt lat="36.9455713" lon="8.7914574"><ele>7.333333333333333</ele><time>2026-05-02T13:01:00.675Z</time></trkpt><trkpt lat="36.9455453" lon="8.7916456"><ele>8.0</ele><time>2026-05-02T13:01:01.677Z</time></trkpt><trkpt lat="36.9455163" lon="8.7918299"><ele>7.75</ele><time>2026-05-02T13:01:02.694Z</time></trkpt><trkpt lat="36.9454849" lon="8.7920111"><ele>7.5</ele><time>2026-05-02T13:01:03.691Z</time></trkpt><trkpt lat="36.9454534" lon="8.7921925"><ele>7.25</ele><time>2026-05-02T13:01:04.656Z</time></trkpt><trkpt lat="36.9454222" lon="8.7923757"><ele>7.0</ele><time>2026-05-02T13:01:05.677Z</time></trkpt><trkpt lat="36.9453917" lon="8.7925536"><ele>7.0</ele><time>2026-05-02T13:01:06.681Z</time></trkpt><trkpt lat="36.9453601" lon="8.7927281"><ele>7.0</ele><time>2026-05-02T13:01:07.668Z</time></trkpt><trkpt lat="36.9453278" lon="8.7929047"><ele>7.0</ele><time>2026-05-02T13:01:08.686Z</time></trkpt><trkpt lat="36.945298" lon="8.7930804"><ele>7.0</ele><time>2026-05-02T13:01:09.685Z</time></trkpt><trkpt lat="36.9452693" lon="8.7932448"><ele>7.0</ele><time>2026-05-02T13:01:10.682Z</time></trkpt><trkpt lat="36.9452372" lon="8.7934057"><ele>7.0</ele><time>2026-05-02T13:01:11.686Z</time></trkpt><trkpt lat="36.9452058" lon="8.7935684"><ele>7.0</ele><time>2026-05-02T13:01:12.68Z</time></trkpt><trkpt lat="36.9451767" lon="8.7937242"><ele>7.0</ele><time>2026-05-02T13:01:13.682Z</time></trkpt><trkpt lat="36.9451516" lon="8.7938813"><ele>7.25</ele><time>2026-05-02T13:01:14.68Z</time></trkpt><trkpt lat="36.9451231" lon="8.7940447"><ele>7.5</ele><time>2026-05-02T13:01:15.677Z</time></trkpt><trkpt lat="36.9450969" lon="8.7942058"><ele>7.75</ele><time>2026-05-02T13:01:16.691Z</time></trkpt><trkpt lat="36.9450716" lon="8.7943718"><ele>8.0</ele><time>2026-05-02T13:01:17.681Z</time></trkpt><trkpt lat="36.9450413" lon="8.7945423"><ele>8.0</ele><time>2026-05-02T13:01:18.679Z</time></trkpt><trkpt lat="36.9450129" lon="8.794714"><ele>8.0</ele><time>2026-05-02T13:01:19.674Z</time></trkpt><trkpt lat="36.9449847" lon="8.7948832"><ele>8.0</ele><time>2026-05-02T13:01:20.692Z</time></trkpt><trkpt lat="36.9449569" lon="8.795053"><ele>8.0</ele><time>2026-05-02T13:01:21.689Z</time></trkpt><trkpt lat="36.944931" lon="8.7952175"><ele>8.5</ele><time>2026-05-02T13:01:22.676Z</time></trkpt><trkpt lat="36.9449006" lon="8.7953882"><ele>9.0</ele><time>2026-05-02T13:01:23.688Z</time></trkpt><trkpt lat="36.9448712" lon="8.7955638"><ele>9.5</ele><time>2026-05-02T13:01:24.692Z</time></trkpt><trkpt lat="36.9448424" lon="8.7957377"><ele>10.0</ele><time>2026-05-02T13:01:25.672Z</time></trkpt><trkpt lat="36.9448093" lon="8.7959073"><ele>10.25</ele><time>2026-05-02T13:01:26.684Z</time></trkpt><trkpt lat="36.9447771" lon="8.7960738"><ele>10.5</ele><time>2026-05-02T13:01:27.678Z</time></trkpt><trkpt lat="36.9447402" lon="8.7962434"><ele>10.75</ele><time>2026-05-02T13:01:28.668Z</time></trkpt><trkpt lat="36.9447062" lon="8.7963959"><ele>11.0</ele><time>2026-05-02T13:01:29.679Z</time></trkpt><trkpt lat="36.944667" lon="8.7965293"><ele>11.0</ele><time>2026-05-02T13:01:30.676Z</time></trkpt><trkpt lat="36.9446269" lon="8.7966458"><ele>11.0</ele><time>2026-05-02T13:01:31.667Z</time></trkpt><trkpt lat="36.9445888" lon="8.7967473"><ele>11.0</ele><time>2026-05-02T13:01:32.682Z</time></trkpt><trkpt lat="36.944542" lon="8.7968327"><ele>11.0</ele><time>2026-05-02T13:01:33.694Z</time></trkpt><trkpt lat="36.9444898" lon="8.7969135"><ele>11.0</ele><time>2026-05-02T13:01:34.706Z</time></trkpt><trkpt lat="36.9444357" lon="8.796987"><ele>11.0</ele><time>2026-05-02T13:01:35.673Z</time></trkpt><trkpt lat="36.9443829" lon="8.7970821"><ele>11.200000000000001</ele><time>2026-05-02T13:01:36.682Z</time></trkpt><trkpt lat="36.9443427" lon="8.7971881"><ele>11.4</ele><time>2026-05-02T13:01:37.689Z</time></trkpt><trkpt lat="36.9443118" lon="8.7973065"><ele>11.6</ele><time>2026-05-02T13:01:38.674Z</time></trkpt><trkpt lat="36.9442703" lon="8.797426"><ele>11.8</ele><time>2026-05-02T13:01:39.675Z</time></trkpt><trkpt lat="36.9442206" lon="8.7975402"><ele>12.0</ele><time>2026-05-02T13:01:40.68Z</time></trkpt><trkpt lat="36.9441606" lon="8.7976508"><ele>13.75</ele><time>2026-05-02T13:01:41.676Z</time></trkpt><trkpt lat="36.9440949" lon="8.7977606"><ele>15.5</ele><time>2026-05-02T13:01:42.698Z</time></trkpt><trkpt lat="36.9440132" lon="8.7978824"><ele>17.25</ele><time>2026-05-02T13:01:43.685Z</time></trkpt><trkpt lat="36.943923" lon="8.7980042"><ele>19.0</ele><time>2026-05-02T13:01:44.677Z</time></trkpt><trkpt lat="36.9438353" lon="8.7981254"><ele>19.0</ele><time>2026-05-02T13:01:45.678Z</time></trkpt><trkpt lat="36.9437483" lon="8.7982496"><ele>19.0</ele><time>2026-05-02T13:01:46.691Z</time></trkpt><trkpt lat="36.9436543" lon="8.7983771"><ele>19.0</ele><time>2026-05-02T13:01:47.701Z</time></trkpt><trkpt lat="36.9435537" lon="8.798497"><ele>19.0</ele><time>2026-05-02T13:01:48.676Z</time></trkpt><trkpt lat="36.943449" lon="8.7986109"><ele>20.0</ele><time>2026-05-02T13:01:49.662Z</time></trkpt><trkpt lat="36.9433504" lon="8.7987141"><ele>21.0</ele><time>2026-05-02T13:01:50.673Z</time></trkpt><trkpt lat="36.9432508" lon="8.7988112"><ele>22.0</ele><time>2026-05-02T13:01:51.668Z</time></trkpt><trkpt lat="36.9431531" lon="8.7989105"><ele>23.0</ele><time>2026-05-02T13:01:52.689Z</time></trkpt><trkpt lat="36.9430566" lon="8.799008"><ele>23.0</ele><time>2026-05-02T13:01:53.687Z</time></trkpt><trkpt lat="36.9429601" lon="8.7990976"><ele>23.0</ele><time>2026-05-02T13:01:54.678Z</time></trkpt><trkpt lat="36.9428565" lon="8.7991904"><ele>23.0</ele><time>2026-05-02T13:01:55.67Z</time></trkpt><trkpt lat="36.9427596" lon="8.7992838"><ele>23.0</ele><time>2026-05-02T13:01:56.662Z</time></trkpt><trkpt lat="36.9426671" lon="8.7993894"><ele>23.75</ele><time>2026-05-02T13:01:57.678Z</time></trkpt><trkpt lat="36.9425649" lon="8.7994895"><ele>24.5</ele><time>2026-05-02T13:01:58.681Z</time></trkpt><trkpt lat="36.9424629" lon="8.7995913"><ele>25.25</ele><time>2026-05-02T13:01:59.687Z</time></trkpt><trkpt lat="36.9423686" lon="8.7996988"><ele>26.0</ele><time>2026-05-02T13:02:00.677Z</time></trkpt><trkpt lat="36.9422713" lon="8.7998217"><ele>26.0</ele><time>2026-05-02T13:02:01.692Z</time></trkpt><trkpt lat="36.942173" lon="8.7999667"><ele>26.0</ele><time>2026-05-02T13:02:02.682Z</time></trkpt><trkpt lat="36.9420818" lon="8.800142"><ele>26.0</ele><time>2026-05-02T13:02:03.678Z</time></trkpt><trkpt lat="36.9420076" lon="8.8003402"><ele>29.0</ele><time>2026-05-02T13:02:04.683Z</time></trkpt><trkpt lat="36.9419453" lon="8.8005377"><ele>32.0</ele><time>2026-05-02T13:02:05.676Z</time></trkpt><trkpt lat="36.9418978" lon="8.8007299"><ele>35.0</ele><time>2026-05-02T13:02:06.677Z</time></trkpt><trkpt lat="36.9418621" lon="8.800897"><ele>39.75</ele><time>2026-05-02T13:02:07.682Z</time></trkpt><trkpt lat="36.9418316" lon="8.8010402"><ele>44.5</ele><time>2026-05-02T13:02:08.675Z</time></trkpt><trkpt lat="36.9418009" lon="8.8011821"><ele>49.25</ele><time>2026-05-02T13:02:09.677Z</time></trkpt><trkpt lat="36.941776" lon="8.8013251"><ele>54.0</ele><time>2026-05-02T13:02:10.672Z</time></trkpt><trkpt lat="36.9417544" lon="8.8014805"><ele>54.0</ele><time>2026-05-02T13:02:11.676Z</time></trkpt><trkpt lat="36.9417282" lon="8.8016412"><ele>54.0</ele><time>2026-05-02T13:02:12.686Z</time></trkpt><trkpt lat="36.941701" lon="8.8018058"><ele>54.0</ele><time>2026-05-02T13:02:13.678Z</time></trkpt><trkpt lat="36.9416798" lon="8.8019622"><ele>54.0</ele><time>2026-05-02T13:02:14.676Z</time></trkpt><trkpt lat="36.9416634" lon="8.802134"><ele>51.0</ele><time>2026-05-02T13:02:15.676Z</time></trkpt><trkpt lat="36.941653" lon="8.8023014"><ele>48.0</ele><time>2026-05-02T13:02:16.684Z</time></trkpt><trkpt lat="36.9416428" lon="8.8024611"><ele>45.0</ele><time>2026-05-02T13:02:17.691Z</time></trkpt><trkpt lat="36.9416325" lon="8.8026252"><ele>42.0</ele><time>2026-05-02T13:02:18.678Z</time></trkpt><trkpt lat="36.9416244" lon="8.8027928"><ele>42.0</ele><time>2026-05-02T13:02:19.67Z</time></trkpt><trkpt lat="36.9416152" lon="8.8029631"><ele>42.0</ele><time>2026-05-02T13:02:20.689Z</time></trkpt><trkpt lat="36.9416131" lon="8.8031304"><ele>42.0</ele><time>2026-05-02T13:02:21.689Z</time></trkpt><trkpt lat="36.9416081" lon="8.803299"><ele>42.0</ele><time>2026-05-02T13:02:22.683Z</time></trkpt><trkpt lat="36.9416" lon="8.8034643"><ele>43.0</ele><time>2026-05-02T13:02:23.677Z</time></trkpt><trkpt lat="36.9415901" lon="8.8036324"><ele>44.0</ele><time>2026-05-02T13:02:24.676Z</time></trkpt><trkpt lat="36.9415833" lon="8.8038005"><ele>45.0</ele><time>2026-05-02T13:02:25.677Z</time></trkpt><trkpt lat="36.941577" lon="8.8039695"><ele>46.0</ele><time>2026-05-02T13:02:26.674Z</time></trkpt><trkpt lat="36.9415691" lon="8.8041405"><ele>46.0</ele><time>2026-05-02T13:02:27.679Z</time></trkpt><trkpt lat="36.9415624" lon="8.8043111"><ele>46.0</ele><time>2026-05-02T13:02:28.677Z</time></trkpt><trkpt lat="36.9415551" lon="8.8044865"><ele>46.0</ele><time>2026-05-02T13:02:29.667Z</time></trkpt><trkpt lat="36.9415461" lon="8.8046585"><ele>46.0</ele><time>2026-05-02T13:02:30.667Z</time></trkpt><trkpt lat="36.9415357" lon="8.8048334"><ele>47.0</ele><time>2026-05-02T13:02:31.671Z</time></trkpt><trkpt lat="36.941529" lon="8.8050087"><ele>48.0</ele><time>2026-05-02T13:02:32.684Z</time></trkpt><trkpt lat="36.9415217" lon="8.8051801"><ele>49.0</ele><time>2026-05-02T13:02:33.678Z</time></trkpt><trkpt lat="36.9415192" lon="8.8053556"><ele>50.0</ele><time>2026-05-02T13:02:34.679Z</time></trkpt><trkpt lat="36.941524" lon="8.8055342"><ele>50.25</ele><time>2026-05-02T13:02:35.696Z</time></trkpt><trkpt lat="36.9415314" lon="8.8057091"><ele>50.5</ele><time>2026-05-02T13:02:36.672Z</time></trkpt><trkpt lat="36.9415456" lon="8.805881"><ele>50.75</ele><time>2026-05-02T13:02:37.669Z</time></trkpt><trkpt lat="36.9415673" lon="8.8060554"><ele>51.0</ele><time>2026-05-02T13:02:38.673Z</time></trkpt><trkpt lat="36.9415886" lon="8.8062265"><ele>51.0</ele><time>2026-05-02T13:02:39.679Z</time></trkpt><trkpt lat="36.9416177" lon="8.8063954"><ele>51.0</ele><time>2026-05-02T13:02:40.671Z</time></trkpt><trkpt lat="36.9416528" lon="8.8065632"><ele>51.0</ele><time>2026-05-02T13:02:41.683Z</time></trkpt><trkpt lat="36.9416981" lon="8.8067311"><ele>51.0</ele><time>2026-05-02T13:02:42.682Z</time></trkpt><trkpt lat="36.9417431" lon="8.8069032"><ele>54.75</ele><time>2026-05-02T13:02:43.675Z</time></trkpt><trkpt lat="36.9417931" lon="8.8070692"><ele>58.5</ele><time>2026-05-02T13:02:44.681Z</time></trkpt><trkpt lat="36.9418435" lon="8.8072393"><ele>62.25</ele><time>2026-05-02T13:02:45.671Z</time></trkpt><trkpt lat="36.9418913" lon="8.8074076"><ele>66.0</ele><time>2026-05-02T13:02:46.667Z</time></trkpt><trkpt lat="36.9419353" lon="8.8075732"><ele>64.0</ele><time>2026-05-02T13:02:47.659Z</time></trkpt><trkpt lat="36.9419783" lon="8.8077356"><ele>62.0</ele><time>2026-05-02T13:02:48.665Z</time></trkpt><trkpt lat="36.9420227" lon="8.8078974"><ele>60.0</ele><time>2026-05-02T13:02:49.67Z</time></trkpt><trkpt lat="36.9420735" lon="8.8080587"><ele>58.0</ele><time>2026-05-02T13:02:50.682Z</time></trkpt><trkpt lat="36.9421261" lon="8.8082107"><ele>58.0</ele><time>2026-05-02T13:02:51.673Z</time></trkpt><trkpt lat="36.9421822" lon="8.8083664"><ele>58.0</ele><time>2026-05-02T13:02:52.685Z</time></trkpt><trkpt lat="36.9422436" lon="8.8085171"><ele>58.0</ele><time>2026-05-02T13:02:53.671Z</time></trkpt><trkpt lat="36.9423114" lon="8.8086629"><ele>58.0</ele><time>2026-05-02T13:02:54.663Z</time></trkpt><trkpt lat="36.9423874" lon="8.8088023"><ele>56.0</ele><time>2026-05-02T13:02:55.682Z</time></trkpt><trkpt lat="36.9424645" lon="8.808938"><ele>54.0</ele><time>2026-05-02T13:02:56.678Z</time></trkpt><trkpt lat="36.9425468" lon="8.8090717"><ele>52.0</ele><time>2026-05-02T13:02:57.667Z</time></trkpt><trkpt lat="36.9426389" lon="8.8092007"><ele>50.0</ele><time>2026-05-02T13:02:58.668Z</time></trkpt><trkpt lat="36.942737" lon="8.8093216"><ele>51.5</ele><time>2026-05-02T13:02:59.678Z</time></trkpt><trkpt lat="36.9428361" lon="8.8094487"><ele>53.0</ele><time>2026-05-02T13:03:00.667Z</time></trkpt><trkpt lat="36.942933" lon="8.8095707"><ele>54.5</ele><time>2026-05-02T13:03:01.671Z</time></trkpt><trkpt lat="36.9430369" lon="8.8096928"><ele>56.0</ele><time>2026-05-02T13:03:02.668Z</time></trkpt><trkpt lat="36.9431418" lon="8.8098072"><ele>56.0</ele><time>2026-05-02T13:03:03.666Z</time></trkpt><trkpt lat="36.9432485" lon="8.8099225"><ele>56.0</ele><time>2026-05-02T13:03:04.667Z</time></trkpt><trkpt lat="36.9433532" lon="8.8100414"><ele>56.0</ele><time>2026-05-02T13:03:05.66Z</time></trkpt><trkpt lat="36.9434534" lon="8.8101577"><ele>56.0</ele><time>2026-05-02T13:03:06.665Z</time></trkpt><trkpt lat="36.9435572" lon="8.8102689"><ele>56.0</ele><time>2026-05-02T13:03:07.669Z</time></trkpt><trkpt lat="36.9436564" lon="8.8103793"><ele>56.0</ele><time>2026-05-02T13:03:08.663Z</time></trkpt><trkpt lat="36.9437638" lon="8.810494"><ele>56.0</ele><time>2026-05-02T13:03:09.652Z</time></trkpt><trkpt lat="36.9438735" lon="8.8106004"><ele>56.0</ele><time>2026-05-02T13:03:10.68Z</time></trkpt><trkpt lat="36.9439875" lon="8.8107009"><ele>56.0</ele><time>2026-05-02T13:03:11.68Z</time></trkpt><trkpt lat="36.9441081" lon="8.8107897"><ele>56.0</ele><time>2026-05-02T13:03:12.673Z</time></trkpt><trkpt lat="36.9442383" lon="8.8108656"><ele>56.0</ele><time>2026-05-02T13:03:13.682Z</time></trkpt><trkpt lat="36.9443684" lon="8.8109317"><ele>56.0</ele><time>2026-05-02T13:03:14.673Z</time></trkpt><trkpt lat="36.9444944" lon="8.8110005"><ele>56.5</ele><time>2026-05-02T13:03:15.673Z</time></trkpt><trkpt lat="36.9446199" lon="8.8110653"><ele>57.0</ele><time>2026-05-02T13:03:16.674Z</time></trkpt><trkpt lat="36.9447442" lon="8.8111352"><ele>57.5</ele><time>2026-05-02T13:03:17.662Z</time></trkpt><trkpt lat="36.9448712" lon="8.8112041"><ele>58.0</ele><time>2026-05-02T13:03:18.675Z</time></trkpt><trkpt lat="36.9449988" lon="8.8112735"><ele>58.0</ele><time>2026-05-02T13:03:19.672Z</time></trkpt><trkpt lat="36.9451239" lon="8.8113387"><ele>58.0</ele><time>2026-05-02T13:03:20.674Z</time></trkpt><trkpt lat="36.945245" lon="8.8113993"><ele>58.0</ele><time>2026-05-02T13:03:21.675Z</time></trkpt><trkpt lat="36.9453676" lon="8.8114575"><ele>58.0</ele><time>2026-05-02T13:03:22.675Z</time></trkpt><trkpt lat="36.9454871" lon="8.8115216"><ele>58.0</ele><time>2026-05-02T13:03:23.684Z</time></trkpt><trkpt lat="36.9456121" lon="8.8115796"><ele>58.0</ele><time>2026-05-02T13:03:24.664Z</time></trkpt><trkpt lat="36.945738" lon="8.8116407"><ele>58.0</ele><time>2026-05-02T13:03:25.662Z</time></trkpt><trkpt lat="36.9458648" lon="8.8117042"><ele>58.0</ele><time>2026-05-02T13:03:26.666Z</time></trkpt><trkpt lat="36.9459896" lon="8.8117667"><ele>59.0</ele><time>2026-05-02T13:03:27.676Z</time></trkpt><trkpt lat="36.9461172" lon="8.8118266"><ele>60.0</ele><time>2026-05-02T13:03:28.666Z</time></trkpt><trkpt lat="36.9462428" lon="8.8118882"><ele>61.0</ele><time>2026-05-02T13:03:29.666Z</time></trkpt><trkpt lat="36.946368" lon="8.8119543"><ele>62.0</ele><time>2026-05-02T13:03:30.665Z</time></trkpt><trkpt lat="36.9464925" lon="8.8120296"><ele>62.0</ele><time>2026-05-02T13:03:31.673Z</time></trkpt><trkpt lat="36.9466168" lon="8.8121073"><ele>62.0</ele><time>2026-05-02T13:03:32.679Z</time></trkpt><trkpt lat="36.9467432" lon="8.8121888"><ele>62.0</ele><time>2026-05-02T13:03:33.669Z</time></trkpt><trkpt lat="36.946866" lon="8.8122884"><ele>62.0</ele><time>2026-05-02T13:03:34.669Z</time></trkpt><trkpt lat="36.946984" lon="8.8123923"><ele>61.0</ele><time>2026-05-02T13:03:35.671Z</time></trkpt><trkpt lat="36.9471031" lon="8.81251"><ele>60.0</ele><time>2026-05-02T13:03:36.664Z</time></trkpt><trkpt lat="36.9472143" lon="8.8126291"><ele>59.0</ele><time>2026-05-02T13:03:37.66Z</time></trkpt><trkpt lat="36.9473279" lon="8.8127467"><ele>58.0</ele><time>2026-05-02T13:03:38.661Z</time></trkpt><trkpt lat="36.9474422" lon="8.8128638"><ele>58.5</ele><time>2026-05-02T13:03:39.679Z</time></trkpt><trkpt lat="36.9475598" lon="8.8129833"><ele>59.0</ele><time>2026-05-02T13:03:40.67Z</time></trkpt><trkpt lat="36.9476721" lon="8.8130972"><ele>59.5</ele><time>2026-05-02T13:03:41.666Z</time></trkpt><trkpt lat="36.9477865" lon="8.8132067"><ele>60.0</ele><time>2026-05-02T13:03:42.67Z</time></trkpt><trkpt lat="36.9478998" lon="8.8133073"><ele>60.0</ele><time>2026-05-02T13:03:43.677Z</time></trkpt><trkpt lat="36.9480105" lon="8.8134007"><ele>60.0</ele><time>2026-05-02T13:03:44.674Z</time></trkpt><trkpt lat="36.9481254" lon="8.8134875"><ele>60.0</ele><time>2026-05-02T13:03:45.673Z</time></trkpt><trkpt lat="36.9482422" lon="8.8135717"><ele>60.0</ele><time>2026-05-02T13:03:46.675Z</time></trkpt><trkpt lat="36.9483654" lon="8.813647"><ele>61.75</ele><time>2026-05-02T13:03:47.668Z</time></trkpt><trkpt lat="36.9484855" lon="8.8137211"><ele>63.5</ele><time>2026-05-02T13:03:48.662Z</time></trkpt><trkpt lat="36.9486144" lon="8.813791"><ele>65.25</ele><time>2026-05-02T13:03:49.67Z</time></trkpt><trkpt lat="36.9487458" lon="8.8138599"><ele>67.0</ele><time>2026-05-02T13:03:50.675Z</time></trkpt><trkpt lat="36.9488776" lon="8.8139296"><ele>67.0</ele><time>2026-05-02T13:03:51.664Z</time></trkpt><trkpt lat="36.949012" lon="8.8139996"><ele>67.0</ele><time>2026-05-02T13:03:52.677Z</time></trkpt><trkpt lat="36.949144" lon="8.8140609"><ele>67.0</ele><time>2026-05-02T13:03:53.667Z</time></trkpt><trkpt lat="36.9492737" lon="8.8141225"><ele>67.0</ele><time>2026-05-02T13:03:54.666Z</time></trkpt><trkpt lat="36.949406" lon="8.8141827"><ele>66.75</ele><time>2026-05-02T13:03:55.66Z</time></trkpt><trkpt lat="36.9495385" lon="8.8142449"><ele>66.5</ele><time>2026-05-02T13:03:56.67Z</time></trkpt><trkpt lat="36.9496669" lon="8.8143068"><ele>66.25</ele><time>2026-05-02T13:03:57.676Z</time></trkpt><trkpt lat="36.9497962" lon="8.8143739"><ele>66.0</ele><time>2026-05-02T13:03:58.689Z</time></trkpt><trkpt lat="36.9499234" lon="8.8144431"><ele>66.25</ele><time>2026-05-02T13:03:59.675Z</time></trkpt><trkpt lat="36.9500516" lon="8.8145078"><ele>66.5</ele><time>2026-05-02T13:04:00.667Z</time></trkpt><trkpt lat="36.9501757" lon="8.8145765"><ele>66.75</ele><time>2026-05-02T13:04:01.66Z</time></trkpt><trkpt lat="36.9502999" lon="8.8146496"><ele>67.0</ele><time>2026-05-02T13:04:02.672Z</time></trkpt><trkpt lat="36.9504232" lon="8.8147314"><ele>67.0</ele><time>2026-05-02T13:04:03.68Z</time></trkpt><trkpt lat="36.9505424" lon="8.8148163"><ele>67.0</ele><time>2026-05-02T13:04:04.674Z</time></trkpt><trkpt lat="36.9506563" lon="8.8149087"><ele>67.0</ele><time>2026-05-02T13:04:05.673Z</time></trkpt><trkpt lat="36.950763" lon="8.8150025"><ele>67.0</ele><time>2026-05-02T13:04:06.672Z</time></trkpt><trkpt lat="36.9508738" lon="8.8150969"><ele>68.0</ele><time>2026-05-02T13:04:07.714Z</time></trkpt><trkpt lat="36.9509765" lon="8.8151956"><ele>69.0</ele><time>2026-05-02T13:04:08.662Z</time></trkpt><trkpt lat="36.9510778" lon="8.8152965"><ele>70.0</ele><time>2026-05-02T13:04:09.675Z</time></trkpt><trkpt lat="36.9511728" lon="8.8153964"><ele>71.0</ele><time>2026-05-02T13:04:10.672Z</time></trkpt><trkpt lat="36.9512705" lon="8.8155067"><ele>71.0</ele><time>2026-05-02T13:04:11.672Z</time></trkpt><trkpt lat="36.951363" lon="8.81562"><ele>71.0</ele><time>2026-05-02T13:04:12.688Z</time></trkpt><trkpt lat="36.9514589" lon="8.8157349"><ele>71.0</ele><time>2026-05-02T13:04:13.671Z</time></trkpt><trkpt lat="36.9515536" lon="8.8158457"><ele>71.0</ele><time>2026-05-02T13:04:14.69Z</time></trkpt><trkpt lat="36.9516456" lon="8.8159636"><ele>70.25</ele><time>2026-05-02T13:04:15.676Z</time></trkpt><trkpt lat="36.9517341" lon="8.8160854"><ele>69.5</ele><time>2026-05-02T13:04:16.677Z</time></trkpt><trkpt lat="36.9518234" lon="8.8162147"><ele>68.75</ele><time>2026-05-02T13:04:17.679Z</time></trkpt><trkpt lat="36.9519106" lon="8.8163423"><ele>68.0</ele><time>2026-05-02T13:04:18.679Z</time></trkpt><trkpt lat="36.9519943" lon="8.8164805"><ele>68.0</ele><time>2026-05-02T13:04:19.684Z</time></trkpt><trkpt lat="36.9520801" lon="8.8166266"><ele>68.0</ele><time>2026-05-02T13:04:20.672Z</time></trkpt><trkpt lat="36.9521681" lon="8.8167742"><ele>68.0</ele><time>2026-05-02T13:04:21.667Z</time></trkpt><trkpt lat="36.952258" lon="8.8169282"><ele>68.0</ele><time>2026-05-02T13:04:22.672Z</time></trkpt><trkpt lat="36.9523465" lon="8.8170906"><ele>67.66666666666667</ele><time>2026-05-02T13:04:23.672Z</time></trkpt><trkpt lat="36.9524323" lon="8.8172561"><ele>67.33333333333333</ele><time>2026-05-02T13:04:24.672Z</time></trkpt><trkpt lat="36.9525204" lon="8.81742"><ele>67.0</ele><time>2026-05-02T13:04:25.679Z</time></trkpt><trkpt lat="36.9526071" lon="8.8175833"><ele>65.25</ele><time>2026-05-02T13:04:26.679Z</time></trkpt><trkpt lat="36.9526913" lon="8.8177419"><ele>63.5</ele><time>2026-05-02T13:04:27.67Z</time></trkpt><trkpt lat="36.9527694" lon="8.8178963"><ele>61.75</ele><time>2026-05-02T13:04:28.684Z</time></trkpt><trkpt lat="36.9528485" lon="8.818049"><ele>60.0</ele><time>2026-05-02T13:04:29.674Z</time></trkpt><trkpt lat="36.9529222" lon="8.8181994"><ele>60.0</ele><time>2026-05-02T13:04:30.659Z</time></trkpt><trkpt lat="36.9529946" lon="8.818357"><ele>60.0</ele><time>2026-05-02T13:04:31.661Z</time></trkpt><trkpt lat="36.9530661" lon="8.8185162"><ele>60.0</ele><time>2026-05-02T13:04:32.675Z</time></trkpt><trkpt lat="36.9531404" lon="8.8186821"><ele>60.0</ele><time>2026-05-02T13:04:33.667Z</time></trkpt><trkpt lat="36.953212" lon="8.8188489"><ele>60.0</ele><time>2026-05-02T13:04:34.678Z</time></trkpt><trkpt lat="36.9532843" lon="8.8190151"><ele>60.0</ele><time>2026-05-02T13:04:35.679Z</time></trkpt><trkpt lat="36.9533559" lon="8.8191781"><ele>60.0</ele><time>2026-05-02T13:04:36.667Z</time></trkpt><trkpt lat="36.9534294" lon="8.8193401"><ele>60.0</ele><time>2026-05-02T13:04:37.658Z</time></trkpt><trkpt lat="36.9535043" lon="8.8195036"><ele>57.33333333333333</ele><time>2026-05-02T13:04:38.677Z</time></trkpt><trkpt lat="36.9535845" lon="8.8196676"><ele>54.666666666666664</ele><time>2026-05-02T13:04:39.668Z</time></trkpt><trkpt lat="36.9536721" lon="8.8198281"><ele>52.0</ele><time>2026-05-02T13:04:40.676Z</time></trkpt><trkpt lat="36.9537671" lon="8.8199812"><ele>52.0</ele><time>2026-05-02T13:04:41.665Z</time></trkpt><trkpt lat="36.9538677" lon="8.8201329"><ele>52.0</ele><time>2026-05-02T13:04:42.684Z</time></trkpt><trkpt lat="36.9539763" lon="8.8202783"><ele>52.0</ele><time>2026-05-02T13:04:43.671Z</time></trkpt><trkpt lat="36.9540831" lon="8.8204278"><ele>53.0</ele><time>2026-05-02T13:04:44.673Z</time></trkpt><trkpt lat="36.9541907" lon="8.8205735"><ele>54.0</ele><time>2026-05-02T13:04:45.682Z</time></trkpt><trkpt lat="36.9542978" lon="8.8207063"><ele>55.0</ele><time>2026-05-02T13:04:46.674Z</time></trkpt><trkpt lat="36.9544018" lon="8.8208355"><ele>53.0</ele><time>2026-05-02T13:04:47.682Z</time></trkpt><trkpt lat="36.954512" lon="8.8209594"><ele>51.0</ele><time>2026-05-02T13:04:48.676Z</time></trkpt><trkpt lat="36.9546209" lon="8.8210878"><ele>49.0</ele><time>2026-05-02T13:04:49.678Z</time></trkpt><trkpt lat="36.9547291" lon="8.8212167"><ele>47.0</ele><time>2026-05-02T13:04:50.679Z</time></trkpt><trkpt lat="36.9548413" lon="8.8213435"><ele>47.0</ele><time>2026-05-02T13:04:51.675Z</time></trkpt><trkpt lat="36.9549514" lon="8.8214788"><ele>47.0</ele><time>2026-05-02T13:04:52.684Z</time></trkpt><trkpt lat="36.9550596" lon="8.8216126"><ele>47.0</ele><time>2026-05-02T13:04:53.674Z</time></trkpt><trkpt lat="36.9551704" lon="8.8217546"><ele>44.33333333333333</ele><time>2026-05-02T13:04:54.679Z</time></trkpt><trkpt lat="36.9552814" lon="8.8218942"><ele>41.666666666666664</ele><time>2026-05-02T13:04:55.675Z</time></trkpt><trkpt lat="36.9553837" lon="8.8220342"><ele>39.0</ele><time>2026-05-02T13:04:56.664Z</time></trkpt><trkpt lat="36.9554782" lon="8.8221774"><ele>39.0</ele><time>2026-05-02T13:04:57.685Z</time></trkpt><trkpt lat="36.9555668" lon="8.8223264"><ele>39.0</ele><time>2026-05-02T13:04:58.681Z</time></trkpt><trkpt lat="36.9556522" lon="8.8224813"><ele>39.0</ele><time>2026-05-02T13:04:59.676Z</time></trkpt><trkpt lat="36.9557305" lon="8.8226426"><ele>39.666666666666664</ele><time>2026-05-02T13:05:00.675Z</time></trkpt><trkpt lat="36.9558078" lon="8.8228074"><ele>40.33333333333333</ele><time>2026-05-02T13:05:01.676Z</time></trkpt><trkpt lat="36.955884" lon="8.8229829"><ele>41.0</ele><time>2026-05-02T13:05:02.675Z</time></trkpt><trkpt lat="36.9559512" lon="8.8231677"><ele>37.33333333333333</ele><time>2026-05-02T13:05:03.684Z</time></trkpt><trkpt lat="36.9560117" lon="8.8233499"><ele>33.666666666666664</ele><time>2026-05-02T13:05:04.684Z</time></trkpt><trkpt lat="36.9560672" lon="8.8235309"><ele>30.0</ele><time>2026-05-02T13:05:05.697Z</time></trkpt><trkpt lat="36.9561259" lon="8.823717"><ele>30.0</ele><time>2026-05-02T13:05:06.663Z</time></trkpt><trkpt lat="36.9561809" lon="8.8238953"><ele>30.0</ele><time>2026-05-02T13:05:07.668Z</time></trkpt><trkpt lat="36.9562305" lon="8.8240649"><ele>30.0</ele><time>2026-05-02T13:05:08.67Z</time></trkpt><trkpt lat="36.9562836" lon="8.8242352"><ele>30.0</ele><time>2026-05-02T13:05:09.668Z</time></trkpt><trkpt lat="36.9563368" lon="8.824405"><ele>30.5</ele><time>2026-05-02T13:05:10.668Z</time></trkpt><trkpt lat="36.9563892" lon="8.8245696"><ele>31.0</ele><time>2026-05-02T13:05:11.675Z</time></trkpt><trkpt lat="36.9564426" lon="8.8247417"><ele>31.5</ele><time>2026-05-02T13:05:12.67Z</time></trkpt><trkpt lat="36.9564968" lon="8.8249078"><ele>32.0</ele><time>2026-05-02T13:05:13.675Z</time></trkpt><trkpt lat="36.9565452" lon="8.8250694"><ele>33.25</ele><time>2026-05-02T13:05:14.688Z</time></trkpt><trkpt lat="36.9565894" lon="8.8252343"><ele>34.5</ele><time>2026-05-02T13:05:15.672Z</time></trkpt><trkpt lat="36.956639" lon="8.8253906"><ele>35.75</ele><time>2026-05-02T13:05:16.664Z</time></trkpt><trkpt lat="36.95669" lon="8.8255611"><ele>37.0</ele><time>2026-05-02T13:05:17.665Z</time></trkpt><trkpt lat="36.9567373" lon="8.8257241"><ele>34.5</ele><time>2026-05-02T13:05:18.703Z</time></trkpt><trkpt lat="36.9567882" lon="8.8258869"><ele>32.0</ele><time>2026-05-02T13:05:19.669Z</time></trkpt><trkpt lat="36.9568315" lon="8.8260451"><ele>29.5</ele><time>2026-05-02T13:05:20.678Z</time></trkpt><trkpt lat="36.9568786" lon="8.8262025"><ele>27.0</ele><time>2026-05-02T13:05:21.676Z</time></trkpt><trkpt lat="36.9569209" lon="8.826354"><ele>27.0</ele><time>2026-05-02T13:05:22.678Z</time></trkpt><trkpt lat="36.956961" lon="8.8265146"><ele>27.0</ele><time>2026-05-02T13:05:23.672Z</time></trkpt><trkpt lat="36.957004" lon="8.8266659"><ele>27.0</ele><time>2026-05-02T13:05:24.69Z</time></trkpt><trkpt lat="36.9570397" lon="8.826812"><ele>27.0</ele><time>2026-05-02T13:05:25.678Z</time></trkpt><trkpt lat="36.9570692" lon="8.826951"><ele>27.5</ele><time>2026-05-02T13:05:26.673Z</time></trkpt><trkpt lat="36.9570934" lon="8.827094"><ele>28.0</ele><time>2026-05-02T13:05:27.662Z</time></trkpt><trkpt lat="36.9571144" lon="8.827242"><ele>28.5</ele><time>2026-05-02T13:05:28.674Z</time></trkpt><trkpt lat="36.9571278" lon="8.827387"><ele>29.0</ele><time>2026-05-02T13:05:29.686Z</time></trkpt><trkpt lat="36.9571323" lon="8.8275248"><ele>28.5</ele><time>2026-05-02T13:05:30.682Z</time></trkpt><trkpt lat="36.9571337" lon="8.827663"><ele>28.0</ele><time>2026-05-02T13:05:31.67Z</time></trkpt><trkpt lat="36.9571276" lon="8.827801"><ele>27.5</ele><time>2026-05-02T13:05:32.685Z</time></trkpt><trkpt lat="36.9571134" lon="8.8279426"><ele>27.0</ele><time>2026-05-02T13:05:33.686Z</time></trkpt><trkpt lat="36.9570846" lon="8.8280853"><ele>27.0</ele><time>2026-05-02T13:05:34.669Z</time></trkpt><trkpt lat="36.9570484" lon="8.8282265"><ele>27.0</ele><time>2026-05-02T13:05:35.676Z</time></trkpt><trkpt lat="36.9570052" lon="8.8283655"><ele>27.0</ele><time>2026-05-02T13:05:36.687Z</time></trkpt><trkpt lat="36.9569557" lon="8.8285009"><ele>27.0</ele><time>2026-05-02T13:05:37.686Z</time></trkpt><trkpt lat="36.9569045" lon="8.8286389"><ele>26.0</ele><time>2026-05-02T13:05:38.672Z</time></trkpt><trkpt lat="36.9568423" lon="8.8287864"><ele>25.0</ele><time>2026-05-02T13:05:39.672Z</time></trkpt><trkpt lat="36.9567745" lon="8.8289417"><ele>24.0</ele><time>2026-05-02T13:05:40.678Z</time></trkpt><trkpt lat="36.9566986" lon="8.8291096"><ele>23.0</ele><time>2026-05-02T13:05:41.687Z</time></trkpt><trkpt lat="36.9566201" lon="8.8292881"><ele>24.0</ele><time>2026-05-02T13:05:42.683Z</time></trkpt><trkpt lat="36.9565323" lon="8.8294822"><ele>25.0</ele><time>2026-05-02T13:05:43.672Z</time></trkpt><trkpt lat="36.9564378" lon="8.8296887"><ele>26.0</ele><time>2026-05-02T13:05:44.671Z</time></trkpt><trkpt lat="36.95633" lon="8.8298973"><ele>26.0</ele><time>2026-05-02T13:05:45.67Z</time></trkpt><trkpt lat="36.9562311" lon="8.8301012"><ele>26.0</ele><time>2026-05-02T13:05:46.667Z</time></trkpt><trkpt lat="36.9561361" lon="8.8302981"><ele>26.0</ele><time>2026-05-02T13:05:47.676Z</time></trkpt><trkpt lat="36.9560419" lon="8.8304869"><ele>25.333333333333332</ele><time>2026-05-02T13:05:48.675Z</time></trkpt><trkpt lat="36.9559519" lon="8.8306745"><ele>24.666666666666664</ele><time>2026-05-02T13:05:49.678Z</time></trkpt><trkpt lat="36.9558609" lon="8.830861"><ele>24.0</ele><time>2026-05-02T13:05:50.682Z</time></trkpt><trkpt lat="36.9557683" lon="8.8310464"><ele>24.0</ele><time>2026-05-02T13:05:51.677Z</time></trkpt><trkpt lat="36.9556732" lon="8.8312237"><ele>24.0</ele><time>2026-05-02T13:05:52.684Z</time></trkpt><trkpt lat="36.9555749" lon="8.831395"><ele>24.0</ele><time>2026-05-02T13:05:53.665Z</time></trkpt><trkpt lat="36.9554701" lon="8.831556"><ele>24.0</ele><time>2026-05-02T13:05:54.667Z</time></trkpt><trkpt lat="36.9553633" lon="8.8317168"><ele>24.0</ele><time>2026-05-02T13:05:55.676Z</time></trkpt><trkpt lat="36.9552528" lon="8.8318746"><ele>24.0</ele><time>2026-05-02T13:05:56.676Z</time></trkpt><trkpt lat="36.9551393" lon="8.8320317"><ele>26.0</ele><time>2026-05-02T13:05:57.657Z</time></trkpt><trkpt lat="36.9550275" lon="8.8321897"><ele>28.0</ele><time>2026-05-02T13:05:58.654Z</time></trkpt><trkpt lat="36.9549169" lon="8.8323434"><ele>30.0</ele><time>2026-05-02T13:05:59.68Z</time></trkpt><trkpt lat="36.9548167" lon="8.8324987"><ele>27.666666666666668</ele><time>2026-05-02T13:06:00.677Z</time></trkpt><trkpt lat="36.9547259" lon="8.8326687"><ele>25.333333333333336</ele><time>2026-05-02T13:06:01.675Z</time></trkpt><trkpt lat="36.954646" lon="8.8328529"><ele>23.0</ele><time>2026-05-02T13:06:02.682Z</time></trkpt><trkpt lat="36.9545906" lon="8.8330435"><ele>23.0</ele><time>2026-05-02T13:06:03.671Z</time></trkpt><trkpt lat="36.9545555" lon="8.8332438"><ele>23.0</ele><time>2026-05-02T13:06:04.677Z</time></trkpt><trkpt lat="36.9545393" lon="8.8334521"><ele>23.0</ele><time>2026-05-02T13:06:05.681Z</time></trkpt><trkpt lat="36.9545403" lon="8.8336653"><ele>22.333333333333336</ele><time>2026-05-02T13:06:06.677Z</time></trkpt><trkpt lat="36.9545395" lon="8.8338698"><ele>21.666666666666668</ele><time>2026-05-02T13:06:07.676Z</time></trkpt><trkpt lat="36.9545422" lon="8.834074"><ele>21.0</ele><time>2026-05-02T13:06:08.684Z</time></trkpt><trkpt lat="36.9545512" lon="8.8342821"><ele>20.333333333333332</ele><time>2026-05-02T13:06:09.689Z</time></trkpt><trkpt lat="36.9545566" lon="8.8344825"><ele>19.666666666666664</ele><time>2026-05-02T13:06:10.683Z</time></trkpt><trkpt lat="36.954564" lon="8.8346871"><ele>19.0</ele><time>2026-05-02T13:06:11.689Z</time></trkpt><trkpt lat="36.9545774" lon="8.8348915"><ele>19.0</ele><time>2026-05-02T13:06:12.681Z</time></trkpt><trkpt lat="36.9545855" lon="8.8350927"><ele>19.0</ele><time>2026-05-02T13:06:13.687Z</time></trkpt><trkpt lat="36.9545957" lon="8.8352907"><ele>19.0</ele><time>2026-05-02T13:06:14.677Z</time></trkpt><trkpt lat="36.9546027" lon="8.8354846"><ele>19.333333333333332</ele><time>2026-05-02T13:06:15.687Z</time></trkpt><trkpt lat="36.954612" lon="8.8356782"><ele>19.666666666666668</ele><time>2026-05-02T13:06:16.687Z</time></trkpt><trkpt lat="36.9546223" lon="8.8358691"><ele>20.0</ele><time>2026-05-02T13:06:17.672Z</time></trkpt><trkpt lat="36.9546294" lon="8.8360627"><ele>20.0</ele><time>2026-05-02T13:06:18.688Z</time></trkpt><trkpt lat="36.9546382" lon="8.8362581"><ele>20.0</ele><time>2026-05-02T13:06:19.684Z</time></trkpt><trkpt lat="36.9546375" lon="8.8364475"><ele>20.0</ele><time>2026-05-02T13:06:20.685Z</time></trkpt><trkpt lat="36.9546316" lon="8.8366441"><ele>19.333333333333336</ele><time>2026-05-02T13:06:21.675Z</time></trkpt><trkpt lat="36.9546238" lon="8.8368388"><ele>18.666666666666668</ele><time>2026-05-02T13:06:22.687Z</time></trkpt><trkpt lat="36.9546126" lon="8.8370352"><ele>18.0</ele><time>2026-05-02T13:06:23.687Z</time></trkpt><trkpt lat="36.9545947" lon="8.8372304"><ele>18.0</ele><time>2026-05-02T13:06:24.69Z</time></trkpt><trkpt lat="36.9545785" lon="8.8374192"><ele>18.0</ele><time>2026-05-02T13:06:25.672Z</time></trkpt><trkpt lat="36.9545579" lon="8.8376013"><ele>18.0</ele><time>2026-05-02T13:06:26.682Z</time></trkpt><trkpt lat="36.9545428" lon="8.8377814"><ele>18.0</ele><time>2026-05-02T13:06:27.674Z</time></trkpt><trkpt lat="36.9545291" lon="8.837947"><ele>18.0</ele><time>2026-05-02T13:06:28.678Z</time></trkpt><trkpt lat="36.9545119" lon="8.8381035"><ele>18.0</ele><time>2026-05-02T13:06:29.68Z</time></trkpt><trkpt lat="36.9544984" lon="8.8382639"><ele>18.0</ele><time>2026-05-02T13:06:30.665Z</time></trkpt><trkpt lat="36.9544813" lon="8.8384155"><ele>18.0</ele><time>2026-05-02T13:06:31.673Z</time></trkpt><trkpt lat="36.9544665" lon="8.8385668"><ele>17.75</ele><time>2026-05-02T13:06:32.682Z</time></trkpt><trkpt lat="36.9544485" lon="8.8387132"><ele>17.5</ele><time>2026-05-02T13:06:33.675Z</time></trkpt><trkpt lat="36.9544357" lon="8.8388699"><ele>17.25</ele><time>2026-05-02T13:06:34.681Z</time></trkpt><trkpt lat="36.9544238" lon="8.8390284"><ele>17.0</ele><time>2026-05-02T13:06:35.673Z</time></trkpt><trkpt lat="36.9544092" lon="8.8391907"><ele>17.25</ele><time>2026-05-02T13:06:36.681Z</time></trkpt><trkpt lat="36.9544003" lon="8.8393588"><ele>17.5</ele><time>2026-05-02T13:06:37.672Z</time></trkpt><trkpt lat="36.9543847" lon="8.8395246"><ele>17.75</ele><time>2026-05-02T13:06:38.663Z</time></trkpt><trkpt lat="36.9543676" lon="8.8396872"><ele>18.0</ele><time>2026-05-02T13:06:39.683Z</time></trkpt><trkpt lat="36.9543547" lon="8.8398568"><ele>18.0</ele><time>2026-05-02T13:06:40.69Z</time></trkpt><trkpt lat="36.9543434" lon="8.8400243"><ele>18.0</ele><time>2026-05-02T13:06:41.677Z</time></trkpt><trkpt lat="36.9543277" lon="8.8401955"><ele>18.0</ele><time>2026-05-02T13:06:42.68Z</time></trkpt><trkpt lat="36.9543143" lon="8.8403622"><ele>18.0</ele><time>2026-05-02T13:06:43.675Z</time></trkpt><trkpt lat="36.9543082" lon="8.8405269"><ele>17.75</ele><time>2026-05-02T13:06:44.684Z</time></trkpt><trkpt lat="36.9543018" lon="8.8406904"><ele>17.5</ele><time>2026-05-02T13:06:45.682Z</time></trkpt><trkpt lat="36.9542988" lon="8.8408694"><ele>17.25</ele><time>2026-05-02T13:06:46.698Z</time></trkpt><trkpt lat="36.954297" lon="8.8410466"><ele>17.0</ele><time>2026-05-02T13:06:47.661Z</time></trkpt><trkpt lat="36.9542996" lon="8.84122"><ele>17.0</ele><time>2026-05-02T13:06:48.672Z</time></trkpt><trkpt lat="36.9543109" lon="8.8413902"><ele>17.0</ele><time>2026-05-02T13:06:49.667Z</time></trkpt><trkpt lat="36.9543209" lon="8.8415506"><ele>17.0</ele><time>2026-05-02T13:06:50.685Z</time></trkpt><trkpt lat="36.9543359" lon="8.841708"><ele>17.0</ele><time>2026-05-02T13:06:51.674Z</time></trkpt><trkpt lat="36.9543528" lon="8.8418736"><ele>17.0</ele><time>2026-05-02T13:06:52.69Z</time></trkpt><trkpt lat="36.954372" lon="8.8420402"><ele>17.0</ele><time>2026-05-02T13:06:53.685Z</time></trkpt><trkpt lat="36.9543926" lon="8.8422058"><ele>17.0</ele><time>2026-05-02T13:06:54.679Z</time></trkpt><trkpt lat="36.9544158" lon="8.8423803"><ele>17.0</ele><time>2026-05-02T13:06:55.659Z</time></trkpt><trkpt lat="36.9544317" lon="8.842547"><ele>17.5</ele><time>2026-05-02T13:06:56.683Z</time></trkpt><trkpt lat="36.9544504" lon="8.8427087"><ele>18.0</ele><time>2026-05-02T13:06:57.676Z</time></trkpt><trkpt lat="36.9544664" lon="8.8428685"><ele>18.5</ele><time>2026-05-02T13:06:58.67Z</time></trkpt><trkpt lat="36.954486" lon="8.8430264"><ele>19.0</ele><time>2026-05-02T13:06:59.683Z</time></trkpt><trkpt lat="36.9545024" lon="8.843181"><ele>19.0</ele><time>2026-05-02T13:07:00.664Z</time></trkpt><trkpt lat="36.9545155" lon="8.8433301"><ele>19.0</ele><time>2026-05-02T13:07:01.681Z</time></trkpt><trkpt lat="36.954532" lon="8.8434838"><ele>19.0</ele><time>2026-05-02T13:07:02.683Z</time></trkpt><trkpt lat="36.9545474" lon="8.8436394"><ele>19.0</ele><time>2026-05-02T13:07:03.68Z</time></trkpt><trkpt lat="36.9545595" lon="8.8437895"><ele>19.25</ele><time>2026-05-02T13:07:04.679Z</time></trkpt><trkpt lat="36.9545631" lon="8.8439403"><ele>19.5</ele><time>2026-05-02T13:07:05.675Z</time></trkpt><trkpt lat="36.9545523" lon="8.8440982"><ele>19.75</ele><time>2026-05-02T13:07:06.689Z</time></trkpt><trkpt lat="36.9545336" lon="8.84425"><ele>20.0</ele><time>2026-05-02T13:07:07.675Z</time></trkpt><trkpt lat="36.9544997" lon="8.8444018"><ele>20.0</ele><time>2026-05-02T13:07:08.672Z</time></trkpt><trkpt lat="36.9544605" lon="8.8445453"><ele>20.0</ele><time>2026-05-02T13:07:09.674Z</time></trkpt><trkpt lat="36.9544168" lon="8.8446867"><ele>20.0</ele><time>2026-05-02T13:07:10.676Z</time></trkpt><trkpt lat="36.9543694" lon="8.8448218"><ele>20.0</ele><time>2026-05-02T13:07:11.694Z</time></trkpt><trkpt lat="36.9543199" lon="8.8449493"><ele>20.0</ele><time>2026-05-02T13:07:12.673Z</time></trkpt><trkpt lat="36.9542701" lon="8.8450767"><ele>20.0</ele><time>2026-05-02T13:07:13.665Z</time></trkpt><trkpt lat="36.9542251" lon="8.8452076"><ele>20.0</ele><time>2026-05-02T13:07:14.672Z</time></trkpt><trkpt lat="36.9541762" lon="8.8453359"><ele>20.0</ele><time>2026-05-02T13:07:15.675Z</time></trkpt><trkpt lat="36.9541295" lon="8.845472"><ele>20.0</ele><time>2026-05-02T13:07:16.664Z</time></trkpt><trkpt lat="36.9540822" lon="8.845609"><ele>20.0</ele><time>2026-05-02T13:07:17.68Z</time></trkpt><trkpt lat="36.9540353" lon="8.8457559"><ele>20.0</ele><time>2026-05-02T13:07:18.677Z</time></trkpt><trkpt lat="36.9539784" lon="8.8458987"><ele>20.0</ele><time>2026-05-02T13:07:19.678Z</time></trkpt><trkpt lat="36.9539242" lon="8.8460484"><ele>20.0</ele><time>2026-05-02T13:07:20.672Z</time></trkpt><trkpt lat="36.9538682" lon="8.8462034"><ele>20.0</ele><time>2026-05-02T13:07:21.677Z</time></trkpt><trkpt lat="36.9538128" lon="8.8463741"><ele>20.0</ele><time>2026-05-02T13:07:22.678Z</time></trkpt><trkpt lat="36.9537529" lon="8.8465633"><ele>20.0</ele><time>2026-05-02T13:07:23.689Z</time></trkpt><trkpt lat="36.9536897" lon="8.8467743"><ele>20.0</ele><time>2026-05-02T13:07:24.672Z</time></trkpt><trkpt lat="36.9536187" lon="8.8469903"><ele>20.0</ele><time>2026-05-02T13:07:25.672Z</time></trkpt><trkpt lat="36.9535433" lon="8.8472016"><ele>20.0</ele><time>2026-05-02T13:07:26.687Z</time></trkpt><trkpt lat="36.953468" lon="8.8474031"><ele>20.0</ele><time>2026-05-02T13:07:27.677Z</time></trkpt><trkpt lat="36.9533896" lon="8.8475976"><ele>20.0</ele><time>2026-05-02T13:07:28.685Z</time></trkpt><trkpt lat="36.9533178" lon="8.8477845"><ele>20.0</ele><time>2026-05-02T13:07:29.68Z</time></trkpt><trkpt lat="36.9532498" lon="8.8479681"><ele>20.333333333333336</ele><time>2026-05-02T13:07:30.676Z</time></trkpt><trkpt lat="36.9531882" lon="8.8481498"><ele>20.666666666666668</ele><time>2026-05-02T13:07:31.682Z</time></trkpt><trkpt lat="36.9531205" lon="8.8483298"><ele>21.0</ele><time>2026-05-02T13:07:32.708Z</time></trkpt><trkpt lat="36.9530517" lon="8.8485086"><ele>21.666666666666668</ele><time>2026-05-02T13:07:33.675Z</time></trkpt><trkpt lat="36.9529891" lon="8.8486844"><ele>22.333333333333336</ele><time>2026-05-02T13:07:34.672Z</time></trkpt><trkpt lat="36.952928" lon="8.8488635"><ele>23.0</ele><time>2026-05-02T13:07:35.67Z</time></trkpt><trkpt lat="36.9528664" lon="8.8490412"><ele>23.0</ele><time>2026-05-02T13:07:36.681Z</time></trkpt><trkpt lat="36.9528019" lon="8.8492233"><ele>23.0</ele><time>2026-05-02T13:07:37.674Z</time></trkpt><trkpt lat="36.9527393" lon="8.8494084"><ele>23.0</ele><time>2026-05-02T13:07:38.675Z</time></trkpt><trkpt lat="36.9526864" lon="8.8495849"><ele>23.5</ele><time>2026-05-02T13:07:39.679Z</time></trkpt><trkpt lat="36.9526391" lon="8.8497535"><ele>24.0</ele><time>2026-05-02T13:07:40.681Z</time></trkpt><trkpt lat="36.9526034" lon="8.8499177"><ele>24.5</ele><time>2026-05-02T13:07:41.679Z</time></trkpt><trkpt lat="36.9525782" lon="8.8500895"><ele>25.0</ele><time>2026-05-02T13:07:42.686Z</time></trkpt><trkpt lat="36.9525626" lon="8.8502596"><ele>25.25</ele><time>2026-05-02T13:07:43.672Z</time></trkpt><trkpt lat="36.9525504" lon="8.8504227"><ele>25.5</ele><time>2026-05-02T13:07:44.673Z</time></trkpt><trkpt lat="36.9525514" lon="8.8505811"><ele>25.75</ele><time>2026-05-02T13:07:45.679Z</time></trkpt><trkpt lat="36.9525564" lon="8.8507403"><ele>26.0</ele><time>2026-05-02T13:07:46.675Z</time></trkpt><trkpt lat="36.952568" lon="8.8508988"><ele>26.25</ele><time>2026-05-02T13:07:47.69Z</time></trkpt><trkpt lat="36.952588" lon="8.8510468"><ele>26.5</ele><time>2026-05-02T13:07:48.679Z</time></trkpt><trkpt lat="36.9526168" lon="8.8511934"><ele>26.75</ele><time>2026-05-02T13:07:49.669Z</time></trkpt><trkpt lat="36.9526498" lon="8.8513442"><ele>27.0</ele><time>2026-05-02T13:07:50.678Z</time></trkpt><trkpt lat="36.9526924" lon="8.8514829"><ele>27.0</ele><time>2026-05-02T13:07:51.683Z</time></trkpt><trkpt lat="36.9527407" lon="8.8516192"><ele>27.0</ele><time>2026-05-02T13:07:52.694Z</time></trkpt><trkpt lat="36.9527874" lon="8.8517606"><ele>27.0</ele><time>2026-05-02T13:07:53.682Z</time></trkpt><trkpt lat="36.9528317" lon="8.8518932"><ele>27.0</ele><time>2026-05-02T13:07:54.672Z</time></trkpt><trkpt lat="36.9528774" lon="8.8520358"><ele>27.5</ele><time>2026-05-02T13:07:55.679Z</time></trkpt><trkpt lat="36.9529261" lon="8.8521804"><ele>28.0</ele><time>2026-05-02T13:07:56.686Z</time></trkpt><trkpt lat="36.9529796" lon="8.8523276"><ele>28.5</ele><time>2026-05-02T13:07:57.67Z</time></trkpt><trkpt lat="36.9530335" lon="8.8524785"><ele>29.0</ele><time>2026-05-02T13:07:58.678Z</time></trkpt><trkpt lat="36.9530893" lon="8.8526348"><ele>29.75</ele><time>2026-05-02T13:07:59.667Z</time></trkpt><trkpt lat="36.9531504" lon="8.8527937"><ele>30.5</ele><time>2026-05-02T13:08:00.672Z</time></trkpt><trkpt lat="36.9532046" lon="8.8529522"><ele>31.25</ele><time>2026-05-02T13:08:01.663Z</time></trkpt><trkpt lat="36.9532624" lon="8.8531152"><ele>32.0</ele><time>2026-05-02T13:08:02.68Z</time></trkpt><trkpt lat="36.9533183" lon="8.8532753"><ele>32.0</ele><time>2026-05-02T13:08:03.685Z</time></trkpt><trkpt lat="36.9533749" lon="8.8534326"><ele>32.0</ele><time>2026-05-02T13:08:04.675Z</time></trkpt><trkpt lat="36.9534269" lon="8.8535856"><ele>32.0</ele><time>2026-05-02T13:08:05.67Z</time></trkpt><trkpt lat="36.953484" lon="8.8537368"><ele>32.0</ele><time>2026-05-02T13:08:06.678Z</time></trkpt><trkpt lat="36.9535402" lon="8.8538896"><ele>32.5</ele><time>2026-05-02T13:08:07.671Z</time></trkpt><trkpt lat="36.9535936" lon="8.8540408"><ele>33.0</ele><time>2026-05-02T13:08:08.679Z</time></trkpt><trkpt lat="36.9536488" lon="8.8541883"><ele>33.5</ele><time>2026-05-02T13:08:09.671Z</time></trkpt><trkpt lat="36.9537036" lon="8.8543312"><ele>34.0</ele><time>2026-05-02T13:08:10.677Z</time></trkpt><trkpt lat="36.9537533" lon="8.8544783"><ele>34.0</ele><time>2026-05-02T13:08:11.68Z</time></trkpt><trkpt lat="36.9538019" lon="8.8546283"><ele>34.0</ele><time>2026-05-02T13:08:12.675Z</time></trkpt><trkpt lat="36.9538507" lon="8.8547841"><ele>34.0</ele><time>2026-05-02T13:08:13.67Z</time></trkpt><trkpt lat="36.9539014" lon="8.8549349"><ele>34.0</ele><time>2026-05-02T13:08:14.673Z</time></trkpt><trkpt lat="36.9539567" lon="8.8550903"><ele>34.5</ele><time>2026-05-02T13:08:15.689Z</time></trkpt><trkpt lat="36.954013" lon="8.8552445"><ele>35.0</ele><time>2026-05-02T13:08:16.673Z</time></trkpt><trkpt lat="36.9540609" lon="8.855397"><ele>35.5</ele><time>2026-05-02T13:08:17.677Z</time></trkpt><trkpt lat="36.9541079" lon="8.8555427"><ele>36.0</ele><time>2026-05-02T13:08:18.682Z</time></trkpt><trkpt lat="36.9541536" lon="8.8556881"><ele>36.0</ele><time>2026-05-02T13:08:19.684Z</time></trkpt><trkpt lat="36.9541928" lon="8.8558388"><ele>36.0</ele><time>2026-05-02T13:08:20.685Z</time></trkpt><trkpt lat="36.9542204" lon="8.8559943"><ele>36.0</ele><time>2026-05-02T13:08:21.694Z</time></trkpt><trkpt lat="36.9542415" lon="8.8561521"><ele>36.0</ele><time>2026-05-02T13:08:22.662Z</time></trkpt><trkpt lat="36.9542509" lon="8.8563055"><ele>36.333333333333336</ele><time>2026-05-02T13:08:23.684Z</time></trkpt><trkpt lat="36.9542525" lon="8.8564452"><ele>36.666666666666664</ele><time>2026-05-02T13:08:24.687Z</time></trkpt><trkpt lat="36.9542508" lon="8.8565579"><ele>37.0</ele><time>2026-05-02T13:08:25.676Z</time></trkpt><trkpt lat="36.9542511" lon="8.856661"><ele>37.33333333333333</ele><time>2026-05-02T13:08:26.684Z</time></trkpt><trkpt lat="36.9542505" lon="8.8567552"><ele>37.666666666666664</ele><time>2026-05-02T13:08:27.7Z</time></trkpt><trkpt lat="36.9542484" lon="8.8568522"><ele>38.0</ele><time>2026-05-02T13:08:28.67Z</time></trkpt><trkpt lat="36.9542453" lon="8.8569528"><ele>38.33333333333333</ele><time>2026-05-02T13:08:29.667Z</time></trkpt><trkpt lat="36.9542466" lon="8.8570501"><ele>38.666666666666664</ele><time>2026-05-02T13:08:30.662Z</time></trkpt><trkpt lat="36.9542424" lon="8.8571468"><ele>39.0</ele><time>2026-05-02T13:08:31.672Z</time></trkpt><trkpt lat="36.9542457" lon="8.8572379"><ele>39.333333333333336</ele><time>2026-05-02T13:08:32.674Z</time></trkpt><trkpt lat="36.9542462" lon="8.8573194"><ele>39.66666666666667</ele><time>2026-05-02T13:08:33.665Z</time></trkpt><trkpt lat="36.9542448" lon="8.8574651"><ele>40.0</ele><time>2026-05-02T13:08:35.68Z</time></trkpt><trkpt lat="36.9542463" lon="8.8576095"><ele>40.2</ele><time>2026-05-02T13:08:37.705Z</time></trkpt><trkpt lat="36.9542378" lon="8.857753"><ele>40.4</ele><time>2026-05-02T13:08:39.694Z</time></trkpt><trkpt lat="36.9542371" lon="8.8578829"><ele>40.599999999999994</ele><time>2026-05-02T13:08:41.673Z</time></trkpt><trkpt lat="36.9542373" lon="8.857991"><ele>40.8</ele><time>2026-05-02T13:08:43.678Z</time></trkpt><trkpt lat="36.9542365" lon="8.8580809"><ele>41.0</ele><time>2026-05-02T13:08:45.678Z</time></trkpt><trkpt lat="36.9542371" lon="8.8582"><ele>41.0</ele><time>2026-05-02T13:08:47.673Z</time></trkpt><trkpt lat="36.9542389" lon="8.858335"><ele>41.0</ele><time>2026-05-02T13:08:49.678Z</time></trkpt><trkpt lat="36.9542452" lon="8.8584742"><ele>41.0</ele><time>2026-05-02T13:08:51.686Z</time></trkpt><trkpt lat="36.9542418" lon="8.8585576"><ele>41.0</ele><time>2026-05-02T13:08:52.694Z</time></trkpt><trkpt lat="36.954243" lon="8.858652"><ele>41.0</ele><time>2026-05-02T13:08:53.68Z</time></trkpt><trkpt lat="36.9542444" lon="8.8587505"><ele>41.0</ele><time>2026-05-02T13:08:54.671Z</time></trkpt><trkpt lat="36.9542444" lon="8.8588442"><ele>41.33333333333333</ele><time>2026-05-02T13:08:55.678Z</time></trkpt><trkpt lat="36.9542456" lon="8.8589461"><ele>41.666666666666664</ele><time>2026-05-02T13:08:56.682Z</time></trkpt><trkpt lat="36.9542487" lon="8.8590472"><ele>42.0</ele><time>2026-05-02T13:08:57.668Z</time></trkpt><trkpt lat="36.9542512" lon="8.859146"><ele>42.333333333333336</ele><time>2026-05-02T13:08:58.658Z</time></trkpt><trkpt lat="36.9542453" lon="8.8592531"><ele>42.66666666666667</ele><time>2026-05-02T13:08:59.677Z</time></trkpt><trkpt lat="36.9542409" lon="8.8593555"><ele>43.0</ele><time>2026-05-02T13:09:00.659Z</time></trkpt><trkpt lat="36.9542367" lon="8.8594735"><ele>43.4</ele><time>2026-05-02T13:09:01.678Z</time></trkpt><trkpt lat="36.9542325" lon="8.8596002"><ele>43.8</ele><time>2026-05-02T13:09:02.677Z</time></trkpt><trkpt lat="36.9542238" lon="8.8597258"><ele>44.2</ele><time>2026-05-02T13:09:03.671Z</time></trkpt><trkpt lat="36.9542097" lon="8.8598654"><ele>44.6</ele><time>2026-05-02T13:09:04.68Z</time></trkpt><trkpt lat="36.9541876" lon="8.8600107"><ele>45.0</ele><time>2026-05-02T13:09:05.688Z</time></trkpt><trkpt lat="36.9541622" lon="8.8601565"><ele>45.75</ele><time>2026-05-02T13:09:06.685Z</time></trkpt><trkpt lat="36.9541339" lon="8.8602923"><ele>46.5</ele><time>2026-05-02T13:09:07.684Z</time></trkpt><trkpt lat="36.9541021" lon="8.8604314"><ele>47.25</ele><time>2026-05-02T13:09:08.681Z</time></trkpt><trkpt lat="36.9540713" lon="8.8605752"><ele>48.0</ele><time>2026-05-02T13:09:09.665Z</time></trkpt><trkpt lat="36.954036" lon="8.8607244"><ele>48.0</ele><time>2026-05-02T13:09:10.679Z</time></trkpt><trkpt lat="36.954001" lon="8.8608769"><ele>48.0</ele><time>2026-05-02T13:09:11.672Z</time></trkpt><trkpt lat="36.9539601" lon="8.86103"><ele>48.0</ele><time>2026-05-02T13:09:12.681Z</time></trkpt><trkpt lat="36.953918" lon="8.8611912"><ele>48.0</ele><time>2026-05-02T13:09:13.676Z</time></trkpt><trkpt lat="36.9538808" lon="8.8613551"><ele>49.0</ele><time>2026-05-02T13:09:14.674Z</time></trkpt><trkpt lat="36.9538385" lon="8.8615337"><ele>50.0</ele><time>2026-05-02T13:09:15.686Z</time></trkpt><trkpt lat="36.9537964" lon="8.8617148"><ele>51.0</ele><time>2026-05-02T13:09:16.687Z</time></trkpt><trkpt lat="36.9537482" lon="8.8618958"><ele>51.25</ele><time>2026-05-02T13:09:17.665Z</time></trkpt><trkpt lat="36.9537032" lon="8.862068"><ele>51.5</ele><time>2026-05-02T13:09:18.677Z</time></trkpt><trkpt lat="36.9536607" lon="8.8622364"><ele>51.75</ele><time>2026-05-02T13:09:19.679Z</time></trkpt><trkpt lat="36.9536201" lon="8.862411"><ele>52.0</ele><time>2026-05-02T13:09:20.676Z</time></trkpt><trkpt lat="36.953574" lon="8.8625899"><ele>52.25</ele><time>2026-05-02T13:09:21.663Z</time></trkpt><trkpt lat="36.9535305" lon="8.8627665"><ele>52.5</ele><time>2026-05-02T13:09:22.684Z</time></trkpt><trkpt lat="36.9534885" lon="8.8629399"><ele>52.75</ele><time>2026-05-02T13:09:23.677Z</time></trkpt><trkpt lat="36.9534476" lon="8.8631146"><ele>53.0</ele><time>2026-05-02T13:09:24.669Z</time></trkpt><trkpt lat="36.9534069" lon="8.8632858"><ele>54.25</ele><time>2026-05-02T13:09:25.674Z</time></trkpt><trkpt lat="36.9533642" lon="8.8634598"><ele>55.5</ele><time>2026-05-02T13:09:26.664Z</time></trkpt><trkpt lat="36.9533316" lon="8.8636351"><ele>56.75</ele><time>2026-05-02T13:09:27.679Z</time></trkpt><trkpt lat="36.9533039" lon="8.8638217"><ele>58.0</ele><time>2026-05-02T13:09:28.661Z</time></trkpt><trkpt lat="36.9532864" lon="8.8640081"><ele>58.0</ele><time>2026-05-02T13:09:29.664Z</time></trkpt><trkpt lat="36.9532803" lon="8.8641966"><ele>58.0</ele><time>2026-05-02T13:09:30.661Z</time></trkpt><trkpt lat="36.9532769" lon="8.8643798"><ele>58.0</ele><time>2026-05-02T13:09:31.662Z</time></trkpt><trkpt lat="36.9532771" lon="8.8645652"><ele>58.0</ele><time>2026-05-02T13:09:32.671Z</time></trkpt><trkpt lat="36.9532683" lon="8.8647495"><ele>58.75</ele><time>2026-05-02T13:09:33.681Z</time></trkpt><trkpt lat="36.9532608" lon="8.8649263"><ele>59.5</ele><time>2026-05-02T13:09:34.674Z</time></trkpt><trkpt lat="36.9532627" lon="8.8651014"><ele>60.25</ele><time>2026-05-02T13:09:35.666Z</time></trkpt><trkpt lat="36.9532693" lon="8.8652786"><ele>61.0</ele><time>2026-05-02T13:09:36.675Z</time></trkpt><trkpt lat="36.9532718" lon="8.865449"><ele>61.5</ele><time>2026-05-02T13:09:37.675Z</time></trkpt><trkpt lat="36.9532751" lon="8.8656065"><ele>62.0</ele><time>2026-05-02T13:09:38.658Z</time></trkpt><trkpt lat="36.9532755" lon="8.8657587"><ele>62.5</ele><time>2026-05-02T13:09:39.683Z</time></trkpt><trkpt lat="36.9532774" lon="8.8659072"><ele>63.0</ele><time>2026-05-02T13:09:40.684Z</time></trkpt><trkpt lat="36.9532798" lon="8.8660717"><ele>63.5</ele><time>2026-05-02T13:09:41.673Z</time></trkpt><trkpt lat="36.9532821" lon="8.8662452"><ele>64.0</ele><time>2026-05-02T13:09:42.664Z</time></trkpt><trkpt lat="36.9532846" lon="8.8664174"><ele>64.5</ele><time>2026-05-02T13:09:43.685Z</time></trkpt><trkpt lat="36.9532845" lon="8.8665903"><ele>65.0</ele><time>2026-05-02T13:09:44.674Z</time></trkpt><trkpt lat="36.9532856" lon="8.8667601"><ele>65.0</ele><time>2026-05-02T13:09:45.67Z</time></trkpt><trkpt lat="36.9532879" lon="8.8669254"><ele>65.0</ele><time>2026-05-02T13:09:46.665Z</time></trkpt><trkpt lat="36.9532878" lon="8.8670877"><ele>65.0</ele><time>2026-05-02T13:09:47.68Z</time></trkpt><trkpt lat="36.953295" lon="8.8672501"><ele>65.0</ele><time>2026-05-02T13:09:48.684Z</time></trkpt><trkpt lat="36.9532971" lon="8.867414"><ele>65.0</ele><time>2026-05-02T13:09:49.665Z</time></trkpt><trkpt lat="36.9532963" lon="8.8675808"><ele>65.0</ele><time>2026-05-02T13:09:50.666Z</time></trkpt><trkpt lat="36.9532958" lon="8.8677495"><ele>65.0</ele><time>2026-05-02T13:09:51.681Z</time></trkpt><trkpt lat="36.9533002" lon="8.8679193"><ele>65.0</ele><time>2026-05-02T13:09:52.69Z</time></trkpt><trkpt lat="36.953299" lon="8.8680971"><ele>65.0</ele><time>2026-05-02T13:09:53.675Z</time></trkpt><trkpt lat="36.9532983" lon="8.8682815"><ele>65.0</ele><time>2026-05-02T13:09:54.669Z</time></trkpt><trkpt lat="36.9532924" lon="8.8684664"><ele>65.0</ele><time>2026-05-02T13:09:55.671Z</time></trkpt><trkpt lat="36.9532831" lon="8.8686559"><ele>65.0</ele><time>2026-05-02T13:09:56.672Z</time></trkpt><trkpt lat="36.9532709" lon="8.8688503"><ele>64.5</ele><time>2026-05-02T13:09:57.684Z</time></trkpt><trkpt lat="36.9532584" lon="8.8690374"><ele>64.0</ele><time>2026-05-02T13:09:58.678Z</time></trkpt><trkpt lat="36.9532324" lon="8.8692212"><ele>63.5</ele><time>2026-05-02T13:09:59.672Z</time></trkpt><trkpt lat="36.9531974" lon="8.8694032"><ele>63.0</ele><time>2026-05-02T13:10:00.668Z</time></trkpt><trkpt lat="36.9531609" lon="8.8695836"><ele>62.0</ele><time>2026-05-02T13:10:01.676Z</time></trkpt><trkpt lat="36.9531206" lon="8.8697578"><ele>61.0</ele><time>2026-05-02T13:10:02.682Z</time></trkpt><trkpt lat="36.9530775" lon="8.8699345"><ele>60.0</ele><time>2026-05-02T13:10:03.677Z</time></trkpt><trkpt lat="36.9530272" lon="8.8701002"><ele>59.0</ele><time>2026-05-02T13:10:04.682Z</time></trkpt><trkpt lat="36.952978" lon="8.8702599"><ele>58.0</ele><time>2026-05-02T13:10:05.681Z</time></trkpt><trkpt lat="36.9529209" lon="8.8704168"><ele>57.0</ele><time>2026-05-02T13:10:06.677Z</time></trkpt><trkpt lat="36.9528635" lon="8.8705749"><ele>56.0</ele><time>2026-05-02T13:10:07.674Z</time></trkpt><trkpt lat="36.9528055" lon="8.8707343"><ele>55.0</ele><time>2026-05-02T13:10:08.686Z</time></trkpt><trkpt lat="36.9527462" lon="8.8708964"><ele>54.5</ele><time>2026-05-02T13:10:09.66Z</time></trkpt><trkpt lat="36.9526951" lon="8.8710634"><ele>54.0</ele><time>2026-05-02T13:10:10.669Z</time></trkpt><trkpt lat="36.9526383" lon="8.8712285"><ele>53.5</ele><time>2026-05-02T13:10:11.68Z</time></trkpt><trkpt lat="36.9525814" lon="8.8714026"><ele>53.0</ele><time>2026-05-02T13:10:12.666Z</time></trkpt><trkpt lat="36.9525329" lon="8.8715685"><ele>54.0</ele><time>2026-05-02T13:10:13.665Z</time></trkpt><trkpt lat="36.9524877" lon="8.8717392"><ele>55.0</ele><time>2026-05-02T13:10:14.676Z</time></trkpt><trkpt lat="36.9524509" lon="8.8719075"><ele>56.0</ele><time>2026-05-02T13:10:15.66Z</time></trkpt><trkpt lat="36.9524248" lon="8.8720739"><ele>57.0</ele><time>2026-05-02T13:10:16.687Z</time></trkpt><trkpt lat="36.9524033" lon="8.8722317"><ele>57.0</ele><time>2026-05-02T13:10:17.681Z</time></trkpt><trkpt lat="36.9523871" lon="8.8723873"><ele>57.0</ele><time>2026-05-02T13:10:18.678Z</time></trkpt><trkpt lat="36.9523709" lon="8.8725413"><ele>57.0</ele><time>2026-05-02T13:10:19.672Z</time></trkpt><trkpt lat="36.9523569" lon="8.872686"><ele>57.0</ele><time>2026-05-02T13:10:20.673Z</time></trkpt><trkpt lat="36.9523431" lon="8.8728265"><ele>56.75</ele><time>2026-05-02T13:10:21.678Z</time></trkpt><trkpt lat="36.952327" lon="8.8729691"><ele>56.5</ele><time>2026-05-02T13:10:22.682Z</time></trkpt><trkpt lat="36.952309" lon="8.8731094"><ele>56.25</ele><time>2026-05-02T13:10:23.68Z</time></trkpt><trkpt lat="36.9522915" lon="8.8732475"><ele>56.0</ele><time>2026-05-02T13:10:24.668Z</time></trkpt><trkpt lat="36.9522739" lon="8.8733943"><ele>55.599999999999994</ele><time>2026-05-02T13:10:25.668Z</time></trkpt><trkpt lat="36.95226" lon="8.8735322"><ele>55.199999999999996</ele><time>2026-05-02T13:10:26.669Z</time></trkpt><trkpt lat="36.9522505" lon="8.8736681"><ele>54.800000000000004</ele><time>2026-05-02T13:10:27.676Z</time></trkpt><trkpt lat="36.9522368" lon="8.8738025"><ele>54.400000000000006</ele><time>2026-05-02T13:10:28.678Z</time></trkpt><trkpt lat="36.9522235" lon="8.8739377"><ele>54.0</ele><time>2026-05-02T13:10:29.676Z</time></trkpt><trkpt lat="36.9522063" lon="8.8740728"><ele>54.0</ele><time>2026-05-02T13:10:30.669Z</time></trkpt><trkpt lat="36.9521839" lon="8.8742085"><ele>54.0</ele><time>2026-05-02T13:10:31.679Z</time></trkpt><trkpt lat="36.9521629" lon="8.8743474"><ele>54.0</ele><time>2026-05-02T13:10:32.693Z</time></trkpt><trkpt lat="36.9521445" lon="8.8744915"><ele>54.0</ele><time>2026-05-02T13:10:33.679Z</time></trkpt><trkpt lat="36.95213" lon="8.8746348"><ele>54.0</ele><time>2026-05-02T13:10:34.668Z</time></trkpt><trkpt lat="36.9521139" lon="8.874773"><ele>54.0</ele><time>2026-05-02T13:10:35.678Z</time></trkpt><trkpt lat="36.9521005" lon="8.8749207"><ele>54.0</ele><time>2026-05-02T13:10:36.689Z</time></trkpt><trkpt lat="36.9520922" lon="8.875067"><ele>54.0</ele><time>2026-05-02T13:10:37.677Z</time></trkpt><trkpt lat="36.9520778" lon="8.8752167"><ele>54.0</ele><time>2026-05-02T13:10:38.664Z</time></trkpt><trkpt lat="36.9520591" lon="8.8753674"><ele>54.0</ele><time>2026-05-02T13:10:39.671Z</time></trkpt><trkpt lat="36.9520405" lon="8.8755165"><ele>54.0</ele><time>2026-05-02T13:10:40.675Z</time></trkpt><trkpt lat="36.9520163" lon="8.8756683"><ele>54.0</ele><time>2026-05-02T13:10:41.677Z</time></trkpt><trkpt lat="36.9519868" lon="8.8758222"><ele>53.800000000000004</ele><time>2026-05-02T13:10:42.666Z</time></trkpt><trkpt lat="36.9519511" lon="8.8759645"><ele>53.60000000000001</ele><time>2026-05-02T13:10:43.701Z</time></trkpt><trkpt lat="36.9519073" lon="8.8760981"><ele>53.4</ele><time>2026-05-02T13:10:44.668Z</time></trkpt><trkpt lat="36.9518661" lon="8.8762211"><ele>53.2</ele><time>2026-05-02T13:10:45.687Z</time></trkpt><trkpt lat="36.9518206" lon="8.87634"><ele>53.0</ele><time>2026-05-02T13:10:46.674Z</time></trkpt><trkpt lat="36.9517713" lon="8.8764697"><ele>53.0</ele><time>2026-05-02T13:10:47.681Z</time></trkpt><trkpt lat="36.9517186" lon="8.8765987"><ele>53.0</ele><time>2026-05-02T13:10:48.672Z</time></trkpt><trkpt lat="36.9516679" lon="8.8767198"><ele>53.0</ele><time>2026-05-02T13:10:49.661Z</time></trkpt><trkpt lat="36.9516211" lon="8.8768534"><ele>53.0</ele><time>2026-05-02T13:10:50.667Z</time></trkpt><trkpt lat="36.9515701" lon="8.8769856"><ele>54.0</ele><time>2026-05-02T13:10:51.68Z</time></trkpt><trkpt lat="36.9515172" lon="8.8771284"><ele>55.0</ele><time>2026-05-02T13:10:52.696Z</time></trkpt><trkpt lat="36.9514658" lon="8.8772657"><ele>56.0</ele><time>2026-05-02T13:10:53.67Z</time></trkpt><trkpt lat="36.9514152" lon="8.8774071"><ele>57.0</ele><time>2026-05-02T13:10:54.667Z</time></trkpt><trkpt lat="36.9513651" lon="8.8775491"><ele>56.75</ele><time>2026-05-02T13:10:55.68Z</time></trkpt><trkpt lat="36.951308" lon="8.8776922"><ele>56.5</ele><time>2026-05-02T13:10:56.673Z</time></trkpt><trkpt lat="36.9512528" lon="8.8778344"><ele>56.25</ele><time>2026-05-02T13:10:57.677Z</time></trkpt><trkpt lat="36.9511994" lon="8.8779801"><ele>56.0</ele><time>2026-05-02T13:10:58.665Z</time></trkpt><trkpt lat="36.9511406" lon="8.8781266"><ele>56.0</ele><time>2026-05-02T13:10:59.671Z</time></trkpt><trkpt lat="36.9510801" lon="8.8782783"><ele>56.0</ele><time>2026-05-02T13:11:00.669Z</time></trkpt><trkpt lat="36.9510289" lon="8.8784371"><ele>56.0</ele><time>2026-05-02T13:11:01.673Z</time></trkpt><trkpt lat="36.950987" lon="8.8786079"><ele>56.0</ele><time>2026-05-02T13:11:02.689Z</time></trkpt><trkpt lat="36.9509536" lon="8.8787951"><ele>56.0</ele><time>2026-05-02T13:11:03.678Z</time></trkpt><trkpt lat="36.9509295" lon="8.8789901"><ele>56.0</ele><time>2026-05-02T13:11:04.668Z</time></trkpt><trkpt lat="36.9509244" lon="8.8791882"><ele>56.0</ele><time>2026-05-02T13:11:05.684Z</time></trkpt><trkpt lat="36.950925" lon="8.8794122"><ele>56.0</ele><time>2026-05-02T13:11:06.67Z</time></trkpt><trkpt lat="36.9509302" lon="8.8796757"><ele>56.0</ele><time>2026-05-02T13:11:07.677Z</time></trkpt><trkpt lat="36.9509309" lon="8.879949"><ele>56.0</ele><time>2026-05-02T13:11:08.662Z</time></trkpt><trkpt lat="36.9509266" lon="8.8802399"><ele>57.5</ele><time>2026-05-02T13:11:09.671Z</time></trkpt><trkpt lat="36.9509168" lon="8.8805612"><ele>59.0</ele><time>2026-05-02T13:11:10.676Z</time></trkpt><trkpt lat="36.9509005" lon="8.8809062"><ele>60.0</ele><time>2026-05-02T13:11:11.666Z</time></trkpt><trkpt lat="36.9508843" lon="8.8812596"><ele>61.0</ele><time>2026-05-02T13:11:12.682Z</time></trkpt><trkpt lat="36.9508653" lon="8.8816037"><ele>63.0</ele><time>2026-05-02T13:11:13.657Z</time></trkpt><trkpt lat="36.9508534" lon="8.8819271"><ele>65.0</ele><time>2026-05-02T13:11:14.664Z</time></trkpt><trkpt lat="36.9508403" lon="8.8822277"><ele>65.0</ele><time>2026-05-02T13:11:15.67Z</time></trkpt><trkpt lat="36.9508342" lon="8.8825096"><ele>65.0</ele><time>2026-05-02T13:11:16.672Z</time></trkpt><trkpt lat="36.9508231" lon="8.8827778"><ele>65.0</ele><time>2026-05-02T13:11:17.678Z</time></trkpt><trkpt lat="36.9508133" lon="8.8830417"><ele>65.0</ele><time>2026-05-02T13:11:18.687Z</time></trkpt><trkpt lat="36.9508017" lon="8.8832997"><ele>65.0</ele><time>2026-05-02T13:11:19.668Z</time></trkpt><trkpt lat="36.9507939" lon="8.8835537"><ele>65.0</ele><time>2026-05-02T13:11:20.686Z</time></trkpt><trkpt lat="36.9507907" lon="8.8838028"><ele>65.0</ele><time>2026-05-02T13:11:21.684Z</time></trkpt><trkpt lat="36.9507842" lon="8.8840423"><ele>65.0</ele><time>2026-05-02T13:11:22.677Z</time></trkpt><trkpt lat="36.9507724" lon="8.8842789"><ele>65.0</ele><time>2026-05-02T13:11:23.678Z</time></trkpt><trkpt lat="36.9507652" lon="8.8845132"><ele>65.0</ele><time>2026-05-02T13:11:24.672Z</time></trkpt><trkpt lat="36.9507596" lon="8.8847522"><ele>65.0</ele><time>2026-05-02T13:11:25.685Z</time></trkpt><trkpt lat="36.950751" lon="8.8849812"><ele>65.0</ele><time>2026-05-02T13:11:26.682Z</time></trkpt><trkpt lat="36.9507457" lon="8.8852131"><ele>65.0</ele><time>2026-05-02T13:11:27.676Z</time></trkpt><trkpt lat="36.9507397" lon="8.8854461"><ele>65.0</ele><time>2026-05-02T13:11:28.686Z</time></trkpt><trkpt lat="36.9507358" lon="8.8856811"><ele>65.0</ele><time>2026-05-02T13:11:29.681Z</time></trkpt><trkpt lat="36.9507298" lon="8.8859137"><ele>65.66666666666667</ele><time>2026-05-02T13:11:30.667Z</time></trkpt><trkpt lat="36.9507257" lon="8.8861526"><ele>66.33333333333333</ele><time>2026-05-02T13:11:31.674Z</time></trkpt><trkpt lat="36.950725" lon="8.8863923"><ele>67.0</ele><time>2026-05-02T13:11:32.685Z</time></trkpt><trkpt lat="36.9507324" lon="8.8866285"><ele>66.33333333333333</ele><time>2026-05-02T13:11:33.671Z</time></trkpt><trkpt lat="36.9507405" lon="8.8868652"><ele>65.66666666666667</ele><time>2026-05-02T13:11:34.682Z</time></trkpt><trkpt lat="36.95075" lon="8.8870987"><ele>65.0</ele><time>2026-05-02T13:11:35.676Z</time></trkpt><trkpt lat="36.9507624" lon="8.8873292"><ele>65.0</ele><time>2026-05-02T13:11:36.678Z</time></trkpt><trkpt lat="36.9507763" lon="8.8875692"><ele>65.0</ele><time>2026-05-02T13:11:37.672Z</time></trkpt><trkpt lat="36.9507885" lon="8.8878122"><ele>65.0</ele><time>2026-05-02T13:11:38.672Z</time></trkpt><trkpt lat="36.9508006" lon="8.8880516"><ele>64.66666666666667</ele><time>2026-05-02T13:11:39.689Z</time></trkpt><trkpt lat="36.95081" lon="8.8882895"><ele>64.33333333333333</ele><time>2026-05-02T13:11:40.674Z</time></trkpt><trkpt lat="36.9508232" lon="8.888529"><ele>64.0</ele><time>2026-05-02T13:11:41.67Z</time></trkpt><trkpt lat="36.9508336" lon="8.888763"><ele>64.0</ele><time>2026-05-02T13:11:42.677Z</time></trkpt><trkpt lat="36.9508454" lon="8.8889967"><ele>64.0</ele><time>2026-05-02T13:11:43.664Z</time></trkpt><trkpt lat="36.9508581" lon="8.8892314"><ele>64.0</ele><time>2026-05-02T13:11:44.682Z</time></trkpt><trkpt lat="36.9508673" lon="8.8894631"><ele>64.0</ele><time>2026-05-02T13:11:45.681Z</time></trkpt><trkpt lat="36.9508762" lon="8.8896929"><ele>64.0</ele><time>2026-05-02T13:11:46.681Z</time></trkpt><trkpt lat="36.9508835" lon="8.8899286"><ele>64.0</ele><time>2026-05-02T13:11:47.676Z</time></trkpt><trkpt lat="36.9508918" lon="8.8901647"><ele>64.0</ele><time>2026-05-02T13:11:48.684Z</time></trkpt><trkpt lat="36.950901" lon="8.8904024"><ele>64.0</ele><time>2026-05-02T13:11:49.696Z</time></trkpt><trkpt lat="36.9509133" lon="8.8906389"><ele>64.0</ele><time>2026-05-02T13:11:50.681Z</time></trkpt><trkpt lat="36.9509202" lon="8.8908697"><ele>64.66666666666666</ele><time>2026-05-02T13:11:51.691Z</time></trkpt><trkpt lat="36.9509286" lon="8.8911055"><ele>65.33333333333333</ele><time>2026-05-02T13:11:52.675Z</time></trkpt><trkpt lat="36.9509405" lon="8.8913366"><ele>66.0</ele><time>2026-05-02T13:11:53.678Z</time></trkpt><trkpt lat="36.9509459" lon="8.8915674"><ele>66.66666666666667</ele><time>2026-05-02T13:11:54.682Z</time></trkpt><trkpt lat="36.9509551" lon="8.8917994"><ele>67.33333333333334</ele><time>2026-05-02T13:11:55.675Z</time></trkpt><trkpt lat="36.9509677" lon="8.8920359"><ele>68.0</ele><time>2026-05-02T13:11:56.668Z</time></trkpt><trkpt lat="36.9509809" lon="8.8922736"><ele>68.0</ele><time>2026-05-02T13:11:57.669Z</time></trkpt><trkpt lat="36.9509919" lon="8.8925078"><ele>68.0</ele><time>2026-05-02T13:11:58.673Z</time></trkpt><trkpt lat="36.9510096" lon="8.8927455"><ele>68.0</ele><time>2026-05-02T13:11:59.677Z</time></trkpt><trkpt lat="36.9510248" lon="8.8929798"><ele>68.0</ele><time>2026-05-02T13:12:00.683Z</time></trkpt><trkpt lat="36.9510375" lon="8.8932208"><ele>68.0</ele><time>2026-05-02T13:12:01.685Z</time></trkpt><trkpt lat="36.9510497" lon="8.8934661"><ele>68.0</ele><time>2026-05-02T13:12:02.676Z</time></trkpt><trkpt lat="36.9510655" lon="8.8937094"><ele>68.33333333333334</ele><time>2026-05-02T13:12:03.675Z</time></trkpt><trkpt lat="36.9510752" lon="8.89395"><ele>68.66666666666667</ele><time>2026-05-02T13:12:04.662Z</time></trkpt><trkpt lat="36.9510803" lon="8.8941737"><ele>69.0</ele><time>2026-05-02T13:12:05.673Z</time></trkpt><trkpt lat="36.9510907" lon="8.8943892"><ele>69.0</ele><time>2026-05-02T13:12:06.678Z</time></trkpt><trkpt lat="36.9510964" lon="8.8945891"><ele>69.0</ele><time>2026-05-02T13:12:07.674Z</time></trkpt><trkpt lat="36.9511001" lon="8.8947819"><ele>69.0</ele><time>2026-05-02T13:12:08.675Z</time></trkpt><trkpt lat="36.9511124" lon="8.8949566"><ele>69.5</ele><time>2026-05-02T13:12:09.678Z</time></trkpt><trkpt lat="36.9511233" lon="8.8951148"><ele>70.0</ele><time>2026-05-02T13:12:10.678Z</time></trkpt><trkpt lat="36.9511335" lon="8.8952658"><ele>70.5</ele><time>2026-05-02T13:12:11.681Z</time></trkpt><trkpt lat="36.9511468" lon="8.895405"><ele>71.0</ele><time>2026-05-02T13:12:12.666Z</time></trkpt><trkpt lat="36.9511637" lon="8.8955402"><ele>71.0</ele><time>2026-05-02T13:12:13.671Z</time></trkpt><trkpt lat="36.9511932" lon="8.8956778"><ele>71.0</ele><time>2026-05-02T13:12:14.674Z</time></trkpt><trkpt lat="36.9512309" lon="8.8958114"><ele>71.0</ele><time>2026-05-02T13:12:15.682Z</time></trkpt><trkpt lat="36.9512794" lon="8.8959475"><ele>71.0</ele><time>2026-05-02T13:12:16.676Z</time></trkpt><trkpt lat="36.9513307" lon="8.8960778"><ele>71.0</ele><time>2026-05-02T13:12:17.673Z</time></trkpt><trkpt lat="36.951389" lon="8.8962084"><ele>71.0</ele><time>2026-05-02T13:12:18.676Z</time></trkpt><trkpt lat="36.9514472" lon="8.8963369"><ele>71.0</ele><time>2026-05-02T13:12:19.679Z</time></trkpt><trkpt lat="36.9515135" lon="8.8964662"><ele>71.0</ele><time>2026-05-02T13:12:20.675Z</time></trkpt><trkpt lat="36.95158" lon="8.8965913"><ele>71.0</ele><time>2026-05-02T13:12:21.664Z</time></trkpt><trkpt lat="36.9516439" lon="8.8967187"><ele>71.0</ele><time>2026-05-02T13:12:22.667Z</time></trkpt><trkpt lat="36.9517014" lon="8.8968526"><ele>71.0</ele><time>2026-05-02T13:12:23.674Z</time></trkpt><trkpt lat="36.9517562" lon="8.8969849"><ele>71.0</ele><time>2026-05-02T13:12:24.673Z</time></trkpt><trkpt lat="36.9518165" lon="8.8971217"><ele>70.75</ele><time>2026-05-02T13:12:25.679Z</time></trkpt><trkpt lat="36.9518748" lon="8.8972597"><ele>70.5</ele><time>2026-05-02T13:12:26.687Z</time></trkpt><trkpt lat="36.9519336" lon="8.8973961"><ele>70.25</ele><time>2026-05-02T13:12:27.672Z</time></trkpt><trkpt lat="36.9519937" lon="8.897532"><ele>70.0</ele><time>2026-05-02T13:12:28.678Z</time></trkpt><trkpt lat="36.9520526" lon="8.8976647"><ele>70.5</ele><time>2026-05-02T13:12:29.675Z</time></trkpt><trkpt lat="36.9521118" lon="8.8977975"><ele>71.0</ele><time>2026-05-02T13:12:30.681Z</time></trkpt><trkpt lat="36.95217" lon="8.8979342"><ele>71.5</ele><time>2026-05-02T13:12:31.678Z</time></trkpt><trkpt lat="36.9522287" lon="8.8980659"><ele>72.0</ele><time>2026-05-02T13:12:32.679Z</time></trkpt><trkpt lat="36.9522851" lon="8.8982057"><ele>72.0</ele><time>2026-05-02T13:12:33.685Z</time></trkpt><trkpt lat="36.9523473" lon="8.8983452"><ele>72.0</ele><time>2026-05-02T13:12:34.677Z</time></trkpt><trkpt lat="36.9524029" lon="8.8984787"><ele>72.0</ele><time>2026-05-02T13:12:35.67Z</time></trkpt><trkpt lat="36.9524564" lon="8.8986202"><ele>72.0</ele><time>2026-05-02T13:12:36.679Z</time></trkpt><trkpt lat="36.9525063" lon="8.8987624"><ele>71.25</ele><time>2026-05-02T13:12:37.654Z</time></trkpt><trkpt lat="36.9525589" lon="8.8989114"><ele>70.5</ele><time>2026-05-02T13:12:38.668Z</time></trkpt><trkpt lat="36.9526029" lon="8.8990604"><ele>69.75</ele><time>2026-05-02T13:12:39.683Z</time></trkpt><trkpt lat="36.9526464" lon="8.8992151"><ele>69.0</ele><time>2026-05-02T13:12:40.701Z</time></trkpt><trkpt lat="36.9526861" lon="8.8993651"><ele>69.0</ele><time>2026-05-02T13:12:41.684Z</time></trkpt><trkpt lat="36.9527222" lon="8.8995145"><ele>69.0</ele><time>2026-05-02T13:12:42.671Z</time></trkpt><trkpt lat="36.9527606" lon="8.8996703"><ele>69.0</ele><time>2026-05-02T13:12:43.68Z</time></trkpt><trkpt lat="36.9527949" lon="8.8998258"><ele>69.0</ele><time>2026-05-02T13:12:44.669Z</time></trkpt><trkpt lat="36.9528248" lon="8.8999806"><ele>69.0</ele><time>2026-05-02T13:12:45.663Z</time></trkpt><trkpt lat="36.952842" lon="8.9001304"><ele>69.0</ele><time>2026-05-02T13:12:46.675Z</time></trkpt><trkpt lat="36.9528549" lon="8.9002847"><ele>69.0</ele><time>2026-05-02T13:12:47.666Z</time></trkpt><trkpt lat="36.9528623" lon="8.9004328"><ele>69.0</ele><time>2026-05-02T13:12:48.677Z</time></trkpt><trkpt lat="36.9528652" lon="8.9005764"><ele>69.0</ele><time>2026-05-02T13:12:49.667Z</time></trkpt><trkpt lat="36.952856" lon="8.9007143"><ele>69.0</ele><time>2026-05-02T13:12:50.677Z</time></trkpt><trkpt lat="36.9528332" lon="8.9008461"><ele>69.0</ele><time>2026-05-02T13:12:51.666Z</time></trkpt><trkpt lat="36.9528016" lon="8.9009846"><ele>69.0</ele><time>2026-05-02T13:12:52.66Z</time></trkpt><trkpt lat="36.9527658" lon="8.9011259"><ele>69.25</ele><time>2026-05-02T13:12:53.676Z</time></trkpt><trkpt lat="36.9527298" lon="8.9012667"><ele>69.5</ele><time>2026-05-02T13:12:54.666Z</time></trkpt><trkpt lat="36.9526862" lon="8.9014145"><ele>69.75</ele><time>2026-05-02T13:12:55.669Z</time></trkpt><trkpt lat="36.9526431" lon="8.9015657"><ele>70.0</ele><time>2026-05-02T13:12:56.674Z</time></trkpt><trkpt lat="36.952596" lon="8.9017144"><ele>69.75</ele><time>2026-05-02T13:12:57.669Z</time></trkpt><trkpt lat="36.952543" lon="8.9018624"><ele>69.5</ele><time>2026-05-02T13:12:58.674Z</time></trkpt><trkpt lat="36.9524901" lon="8.9020131"><ele>69.25</ele><time>2026-05-02T13:12:59.681Z</time></trkpt><trkpt lat="36.9524367" lon="8.9021624"><ele>69.0</ele><time>2026-05-02T13:13:00.667Z</time></trkpt><trkpt lat="36.9523883" lon="8.902314"><ele>69.75</ele><time>2026-05-02T13:13:01.666Z</time></trkpt><trkpt lat="36.9523463" lon="8.9024744"><ele>70.5</ele><time>2026-05-02T13:13:02.685Z</time></trkpt><trkpt lat="36.9523075" lon="8.9026339"><ele>71.25</ele><time>2026-05-02T13:13:03.684Z</time></trkpt><trkpt lat="36.9522763" lon="8.9027963"><ele>72.0</ele><time>2026-05-02T13:13:04.692Z</time></trkpt><trkpt lat="36.9522595" lon="8.9029645"><ele>72.0</ele><time>2026-05-02T13:13:05.678Z</time></trkpt><trkpt lat="36.9522581" lon="8.9031371"><ele>72.0</ele><time>2026-05-02T13:13:06.684Z</time></trkpt><trkpt lat="36.9522692" lon="8.9033204"><ele>72.0</ele><time>2026-05-02T13:13:07.677Z</time></trkpt><trkpt lat="36.9522852" lon="8.9035176"><ele>72.0</ele><time>2026-05-02T13:13:08.675Z</time></trkpt><trkpt lat="36.9523078" lon="8.9037057"><ele>72.0</ele><time>2026-05-02T13:13:09.684Z</time></trkpt><trkpt lat="36.9523236" lon="8.9038936"><ele>72.0</ele><time>2026-05-02T13:13:10.673Z</time></trkpt><trkpt lat="36.9523481" lon="8.9040816"><ele>72.0</ele><time>2026-05-02T13:13:11.674Z</time></trkpt><trkpt lat="36.9523743" lon="8.9042669"><ele>72.33333333333333</ele><time>2026-05-02T13:13:12.679Z</time></trkpt><trkpt lat="36.9523986" lon="8.9044506"><ele>72.66666666666666</ele><time>2026-05-02T13:13:13.674Z</time></trkpt><trkpt lat="36.9524289" lon="8.9046357"><ele>73.0</ele><time>2026-05-02T13:13:14.676Z</time></trkpt><trkpt lat="36.9524524" lon="8.9048215"><ele>73.0</ele><time>2026-05-02T13:13:15.674Z</time></trkpt><trkpt lat="36.9524774" lon="8.905007"><ele>73.0</ele><time>2026-05-02T13:13:16.671Z</time></trkpt><trkpt lat="36.9525033" lon="8.905185"><ele>73.0</ele><time>2026-05-02T13:13:17.677Z</time></trkpt><trkpt lat="36.9525278" lon="8.9053668"><ele>73.0</ele><time>2026-05-02T13:13:18.671Z</time></trkpt><trkpt lat="36.9525528" lon="8.9055478"><ele>72.75</ele><time>2026-05-02T13:13:19.678Z</time></trkpt><trkpt lat="36.9525779" lon="8.9057274"><ele>72.5</ele><time>2026-05-02T13:13:20.674Z</time></trkpt><trkpt lat="36.9526073" lon="8.9059074"><ele>72.25</ele><time>2026-05-02T13:13:21.681Z</time></trkpt><trkpt lat="36.9526353" lon="8.9060962"><ele>72.0</ele><time>2026-05-02T13:13:22.669Z</time></trkpt><trkpt lat="36.9526599" lon="8.9062988"><ele>72.0</ele><time>2026-05-02T13:13:23.676Z</time></trkpt><trkpt lat="36.9526907" lon="8.9065053"><ele>72.0</ele><time>2026-05-02T13:13:24.666Z</time></trkpt><trkpt lat="36.9527361" lon="8.9067206"><ele>72.0</ele><time>2026-05-02T13:13:25.684Z</time></trkpt><trkpt lat="36.9527943" lon="8.9069395"><ele>74.5</ele><time>2026-05-02T13:13:26.681Z</time></trkpt><trkpt lat="36.9528777" lon="8.9071918"><ele>77.0</ele><time>2026-05-02T13:13:27.664Z</time></trkpt><trkpt lat="36.9529769" lon="8.9074678"><ele>79.5</ele><time>2026-05-02T13:13:28.669Z</time></trkpt><trkpt lat="36.9530669" lon="8.9077543"><ele>82.0</ele><time>2026-05-02T13:13:29.68Z</time></trkpt><trkpt lat="36.9531511" lon="8.9080071"><ele>82.0</ele><time>2026-05-02T13:13:30.676Z</time></trkpt><trkpt lat="36.9532251" lon="8.9082348"><ele>82.0</ele><time>2026-05-02T13:13:31.679Z</time></trkpt><trkpt lat="36.9532861" lon="8.908443"><ele>82.0</ele><time>2026-05-02T13:13:32.678Z</time></trkpt><trkpt lat="36.9533466" lon="8.9086479"><ele>79.33333333333333</ele><time>2026-05-02T13:13:33.669Z</time></trkpt><trkpt lat="36.9534048" lon="8.9088482"><ele>76.66666666666667</ele><time>2026-05-02T13:13:34.677Z</time></trkpt><trkpt lat="36.9534519" lon="8.9090389"><ele>74.0</ele><time>2026-05-02T13:13:35.673Z</time></trkpt><trkpt lat="36.953499" lon="8.9092203"><ele>74.5</ele><time>2026-05-02T13:13:36.675Z</time></trkpt><trkpt lat="36.9535291" lon="8.9093988"><ele>75.0</ele><time>2026-05-02T13:13:37.696Z</time></trkpt><trkpt lat="36.9535418" lon="8.9095732"><ele>75.5</ele><time>2026-05-02T13:13:38.68Z</time></trkpt><trkpt lat="36.953542" lon="8.909758"><ele>76.0</ele><time>2026-05-02T13:13:39.676Z</time></trkpt><trkpt lat="36.9535349" lon="8.9099454"><ele>76.25</ele><time>2026-05-02T13:13:40.682Z</time></trkpt><trkpt lat="36.9535207" lon="8.9101332"><ele>76.5</ele><time>2026-05-02T13:13:41.69Z</time></trkpt><trkpt lat="36.953511" lon="8.9103165"><ele>76.75</ele><time>2026-05-02T13:13:42.685Z</time></trkpt><trkpt lat="36.9534984" lon="8.9105"><ele>77.0</ele><time>2026-05-02T13:13:43.67Z</time></trkpt><trkpt lat="36.9534876" lon="8.9106856"><ele>77.0</ele><time>2026-05-02T13:13:44.676Z</time></trkpt><trkpt lat="36.9534779" lon="8.9108718"><ele>77.0</ele><time>2026-05-02T13:13:45.677Z</time></trkpt><trkpt lat="36.9534636" lon="8.9110562"><ele>77.0</ele><time>2026-05-02T13:13:46.687Z</time></trkpt><trkpt lat="36.9534566" lon="8.9112414"><ele>77.0</ele><time>2026-05-02T13:13:47.68Z</time></trkpt><trkpt lat="36.9534447" lon="8.911425"><ele>78.0</ele><time>2026-05-02T13:13:48.667Z</time></trkpt><trkpt lat="36.9534359" lon="8.9116014"><ele>79.0</ele><time>2026-05-02T13:13:49.661Z</time></trkpt><trkpt lat="36.9534252" lon="8.9117729"><ele>80.0</ele><time>2026-05-02T13:13:50.67Z</time></trkpt><trkpt lat="36.9534103" lon="8.9119384"><ele>81.0</ele><time>2026-05-02T13:13:51.668Z</time></trkpt><trkpt lat="36.9534004" lon="8.9120968"><ele>82.5</ele><time>2026-05-02T13:13:52.678Z</time></trkpt><trkpt lat="36.9534054" lon="8.9122548"><ele>84.0</ele><time>2026-05-02T13:13:53.667Z</time></trkpt><trkpt lat="36.9534212" lon="8.9124072"><ele>85.5</ele><time>2026-05-02T13:13:54.674Z</time></trkpt><trkpt lat="36.9534659" lon="8.9125384"><ele>87.0</ele><time>2026-05-02T13:13:55.674Z</time></trkpt><trkpt lat="36.9535384" lon="8.9126585"><ele>89.0</ele><time>2026-05-02T13:13:56.683Z</time></trkpt><trkpt lat="36.9536297" lon="8.9127718"><ele>91.0</ele><time>2026-05-02T13:13:57.68Z</time></trkpt><trkpt lat="36.9537373" lon="8.912887"><ele>93.0</ele><time>2026-05-02T13:13:58.691Z</time></trkpt><trkpt lat="36.9538522" lon="8.9130005"><ele>95.0</ele><time>2026-05-02T13:13:59.669Z</time></trkpt><trkpt lat="36.9539645" lon="8.9131193"><ele>95.0</ele><time>2026-05-02T13:14:00.688Z</time></trkpt><trkpt lat="36.9540759" lon="8.9132425"><ele>95.0</ele><time>2026-05-02T13:14:01.686Z</time></trkpt><trkpt lat="36.9541858" lon="8.9133618"><ele>95.0</ele><time>2026-05-02T13:14:02.675Z</time></trkpt><trkpt lat="36.9542975" lon="8.9134785"><ele>95.0</ele><time>2026-05-02T13:14:03.68Z</time></trkpt><trkpt lat="36.954409" lon="8.9135889"><ele>94.75</ele><time>2026-05-02T13:14:04.667Z</time></trkpt><trkpt lat="36.9545136" lon="8.9136929"><ele>94.5</ele><time>2026-05-02T13:14:05.677Z</time></trkpt><trkpt lat="36.9546089" lon="8.9137963"><ele>94.25</ele><time>2026-05-02T13:14:06.676Z</time></trkpt><trkpt lat="36.9546961" lon="8.9139073"><ele>94.0</ele><time>2026-05-02T13:14:07.673Z</time></trkpt><trkpt lat="36.9547786" lon="8.9140277"><ele>94.0</ele><time>2026-05-02T13:14:08.683Z</time></trkpt><trkpt lat="36.9548503" lon="8.9141491"><ele>94.0</ele><time>2026-05-02T13:14:09.675Z</time></trkpt><trkpt lat="36.9549029" lon="8.9142692"><ele>94.0</ele><time>2026-05-02T13:14:10.678Z</time></trkpt><trkpt lat="36.9549278" lon="8.9143949"><ele>94.0</ele><time>2026-05-02T13:14:11.667Z</time></trkpt><trkpt lat="36.9549355" lon="8.9145209"><ele>94.0</ele><time>2026-05-02T13:14:12.674Z</time></trkpt><trkpt lat="36.9549382" lon="8.9146527"><ele>95.75</ele><time>2026-05-02T13:14:13.681Z</time></trkpt><trkpt lat="36.9549317" lon="8.914793"><ele>97.5</ele><time>2026-05-02T13:14:14.682Z</time></trkpt><trkpt lat="36.954921" lon="8.9149365"><ele>99.25</ele><time>2026-05-02T13:14:15.689Z</time></trkpt><trkpt lat="36.9549103" lon="8.9150836"><ele>101.0</ele><time>2026-05-02T13:14:16.674Z</time></trkpt><trkpt lat="36.9548936" lon="8.9152305"><ele>101.4</ele><time>2026-05-02T13:14:17.687Z</time></trkpt><trkpt lat="36.9548845" lon="8.9153626"><ele>101.8</ele><time>2026-05-02T13:14:18.676Z</time></trkpt><trkpt lat="36.9548848" lon="8.9154883"><ele>102.2</ele><time>2026-05-02T13:14:19.676Z</time></trkpt><trkpt lat="36.9548979" lon="8.9156108"><ele>102.60000000000001</ele><time>2026-05-02T13:14:20.681Z</time></trkpt><trkpt lat="36.9549199" lon="8.9157319"><ele>103.0</ele><time>2026-05-02T13:14:21.676Z</time></trkpt><trkpt lat="36.9549534" lon="8.915846"><ele>103.4</ele><time>2026-05-02T13:14:22.686Z</time></trkpt><trkpt lat="36.9550013" lon="8.9159587"><ele>103.80000000000001</ele><time>2026-05-02T13:14:23.663Z</time></trkpt><trkpt lat="36.9550566" lon="8.9160612"><ele>104.2</ele><time>2026-05-02T13:14:24.669Z</time></trkpt><trkpt lat="36.9551192" lon="8.9161584"><ele>104.6</ele><time>2026-05-02T13:14:25.687Z</time></trkpt><trkpt lat="36.9551919" lon="8.9162559"><ele>105.0</ele><time>2026-05-02T13:14:26.686Z</time></trkpt><trkpt lat="36.9552733" lon="8.9163559"><ele>105.0</ele><time>2026-05-02T13:14:27.673Z</time></trkpt><trkpt lat="36.9553553" lon="8.9164561"><ele>105.0</ele><time>2026-05-02T13:14:28.672Z</time></trkpt><trkpt lat="36.9554368" lon="8.9165614"><ele>105.0</ele><time>2026-05-02T13:14:29.676Z</time></trkpt><trkpt lat="36.9555145" lon="8.9166626"><ele>105.0</ele><time>2026-05-02T13:14:30.692Z</time></trkpt><trkpt lat="36.9555952" lon="8.9167591"><ele>107.0</ele><time>2026-05-02T13:14:31.675Z</time></trkpt><trkpt lat="36.9556766" lon="8.9168448"><ele>109.0</ele><time>2026-05-02T13:14:32.661Z</time></trkpt><trkpt lat="36.9557646" lon="8.9169186"><ele>111.0</ele><time>2026-05-02T13:14:33.669Z</time></trkpt><trkpt lat="36.9558711" lon="8.9169827"><ele>113.0</ele><time>2026-05-02T13:14:34.678Z</time></trkpt><trkpt lat="36.9559747" lon="8.9170305"><ele>115.0</ele><time>2026-05-02T13:14:35.68Z</time></trkpt><trkpt lat="36.9560885" lon="8.9170674"><ele>115.75</ele><time>2026-05-02T13:14:36.71Z</time></trkpt><trkpt lat="36.9561988" lon="8.9170825"><ele>116.5</ele><time>2026-05-02T13:14:37.679Z</time></trkpt><trkpt lat="36.9563349" lon="8.9170868"><ele>117.25</ele><time>2026-05-02T13:14:38.674Z</time></trkpt><trkpt lat="36.9564829" lon="8.9170929"><ele>118.0</ele><time>2026-05-02T13:14:39.68Z</time></trkpt><trkpt lat="36.9566192" lon="8.9171069"><ele>116.60000000000001</ele><time>2026-05-02T13:14:40.674Z</time></trkpt><trkpt lat="36.9567477" lon="8.9171299"><ele>115.20000000000002</ele><time>2026-05-02T13:14:41.671Z</time></trkpt><trkpt lat="36.9568548" lon="8.9171536"><ele>113.8</ele><time>2026-05-02T13:14:42.684Z</time></trkpt><trkpt lat="36.9569499" lon="8.9171923"><ele>112.4</ele><time>2026-05-02T13:14:43.682Z</time></trkpt><trkpt lat="36.9570447" lon="8.9172463"><ele>111.0</ele><time>2026-05-02T13:14:44.683Z</time></trkpt><trkpt lat="36.957126" lon="8.9173229"><ele>111.0</ele><time>2026-05-02T13:14:45.687Z</time></trkpt><trkpt lat="36.9572033" lon="8.9174212"><ele>111.0</ele><time>2026-05-02T13:14:46.668Z</time></trkpt><trkpt lat="36.9572679" lon="8.9175338"><ele>111.0</ele><time>2026-05-02T13:14:47.678Z</time></trkpt><trkpt lat="36.9573218" lon="8.9176567"><ele>111.0</ele><time>2026-05-02T13:14:48.679Z</time></trkpt><trkpt lat="36.9573647" lon="8.9177904"><ele>111.0</ele><time>2026-05-02T13:14:49.682Z</time></trkpt><trkpt lat="36.957415" lon="8.9179287"><ele>113.25</ele><time>2026-05-02T13:14:50.683Z</time></trkpt><trkpt lat="36.9574624" lon="8.9180718"><ele>115.5</ele><time>2026-05-02T13:14:51.684Z</time></trkpt><trkpt lat="36.9575103" lon="8.918216"><ele>117.75</ele><time>2026-05-02T13:14:52.679Z</time></trkpt><trkpt lat="36.957559" lon="8.9183664"><ele>120.0</ele><time>2026-05-02T13:14:53.685Z</time></trkpt><trkpt lat="36.9576127" lon="8.9185261"><ele>120.5</ele><time>2026-05-02T13:14:54.677Z</time></trkpt><trkpt lat="36.9576646" lon="8.9186813"><ele>121.0</ele><time>2026-05-02T13:14:55.677Z</time></trkpt><trkpt lat="36.9577033" lon="8.9188243"><ele>121.5</ele><time>2026-05-02T13:14:56.683Z</time></trkpt><trkpt lat="36.9577383" lon="8.9189536"><ele>122.0</ele><time>2026-05-02T13:14:57.673Z</time></trkpt><trkpt lat="36.9577654" lon="8.9190719"><ele>122.0</ele><time>2026-05-02T13:14:58.677Z</time></trkpt><trkpt lat="36.9577711" lon="8.9191898"><ele>121.99999999999999</ele><time>2026-05-02T13:14:59.677Z</time></trkpt><trkpt lat="36.9577718" lon="8.9193116"><ele>121.99999999999999</ele><time>2026-05-02T13:15:00.682Z</time></trkpt><trkpt lat="36.9577575" lon="8.9194474"><ele>122.0</ele><time>2026-05-02T13:15:01.67Z</time></trkpt><trkpt lat="36.9577299" lon="8.9195946"><ele>122.0</ele><time>2026-05-02T13:15:02.665Z</time></trkpt><trkpt lat="36.9576741" lon="8.9197766"><ele>120.0</ele><time>2026-05-02T13:15:03.656Z</time></trkpt><trkpt lat="36.9575976" lon="8.9200404"><ele>118.0</ele><time>2026-05-02T13:15:04.685Z</time></trkpt><trkpt lat="36.9575076" lon="8.9203262"><ele>121.0</ele><time>2026-05-02T13:15:05.668Z</time></trkpt><trkpt lat="36.9574084" lon="8.9205926"><ele>124.0</ele><time>2026-05-02T13:15:06.681Z</time></trkpt><trkpt lat="36.9573102" lon="8.920822"><ele>127.0</ele><time>2026-05-02T13:15:07.669Z</time></trkpt><trkpt lat="36.9572121" lon="8.9210138"><ele>128.66666666666669</ele><time>2026-05-02T13:15:08.667Z</time></trkpt><trkpt lat="36.9571106" lon="8.9211895"><ele>130.33333333333334</ele><time>2026-05-02T13:15:09.678Z</time></trkpt><trkpt lat="36.9570119" lon="8.9213317"><ele>132.0</ele><time>2026-05-02T13:15:10.681Z</time></trkpt><trkpt lat="36.9569119" lon="8.9214717"><ele>132.0</ele><time>2026-05-02T13:15:11.669Z</time></trkpt><trkpt lat="36.956811" lon="8.9216138"><ele>132.0</ele><time>2026-05-02T13:15:12.682Z</time></trkpt><trkpt lat="36.956713" lon="8.921758"><ele>132.0</ele><time>2026-05-02T13:15:13.698Z</time></trkpt><trkpt lat="36.9566261" lon="8.9218995"><ele>132.0</ele><time>2026-05-02T13:15:14.677Z</time></trkpt><trkpt lat="36.9565434" lon="8.9220328"><ele>133.25</ele><time>2026-05-02T13:15:15.672Z</time></trkpt><trkpt lat="36.9564783" lon="8.9221759"><ele>134.5</ele><time>2026-05-02T13:15:16.674Z</time></trkpt><trkpt lat="36.9564112" lon="8.9223171"><ele>135.75</ele><time>2026-05-02T13:15:17.674Z</time></trkpt><trkpt lat="36.9563539" lon="8.9224523"><ele>137.0</ele><time>2026-05-02T13:15:18.669Z</time></trkpt><trkpt lat="36.9562982" lon="8.9225807"><ele>137.5</ele><time>2026-05-02T13:15:19.669Z</time></trkpt><trkpt lat="36.9562421" lon="8.9227184"><ele>138.0</ele><time>2026-05-02T13:15:20.679Z</time></trkpt><trkpt lat="36.9561912" lon="8.9228597"><ele>138.5</ele><time>2026-05-02T13:15:21.658Z</time></trkpt><trkpt lat="36.9561553" lon="8.9230062"><ele>139.0</ele><time>2026-05-02T13:15:22.682Z</time></trkpt><trkpt lat="36.9561275" lon="8.9231535"><ele>139.0</ele><time>2026-05-02T13:15:23.681Z</time></trkpt><trkpt lat="36.9561029" lon="8.9233066"><ele>139.0</ele><time>2026-05-02T13:15:24.677Z</time></trkpt><trkpt lat="36.956084" lon="8.9234457"><ele>139.0</ele><time>2026-05-02T13:15:25.685Z</time></trkpt><trkpt lat="36.9560661" lon="8.9235823"><ele>139.0</ele><time>2026-05-02T13:15:26.661Z</time></trkpt><trkpt lat="36.9560423" lon="8.9237132"><ele>139.8</ele><time>2026-05-02T13:15:27.671Z</time></trkpt><trkpt lat="36.9560207" lon="8.9238427"><ele>140.60000000000002</ele><time>2026-05-02T13:15:28.674Z</time></trkpt><trkpt lat="36.95599" lon="8.9239624"><ele>141.4</ele><time>2026-05-02T13:15:29.67Z</time></trkpt><trkpt lat="36.9559528" lon="8.9240746"><ele>142.20000000000002</ele><time>2026-05-02T13:15:30.66Z</time></trkpt><trkpt lat="36.9559082" lon="8.92418"><ele>143.0</ele><time>2026-05-02T13:15:31.669Z</time></trkpt><trkpt lat="36.955853" lon="8.9242878"><ele>143.0</ele><time>2026-05-02T13:15:32.673Z</time></trkpt><trkpt lat="36.9557924" lon="8.9243934"><ele>143.0</ele><time>2026-05-02T13:15:33.689Z</time></trkpt><trkpt lat="36.9557288" lon="8.9245141"><ele>143.0</ele><time>2026-05-02T13:15:34.676Z</time></trkpt><trkpt lat="36.9556609" lon="8.9246344"><ele>143.0</ele><time>2026-05-02T13:15:35.678Z</time></trkpt><trkpt lat="36.9555852" lon="8.9247562"><ele>143.0</ele><time>2026-05-02T13:15:36.701Z</time></trkpt><trkpt lat="36.9555055" lon="8.9248845"><ele>143.0</ele><time>2026-05-02T13:15:37.683Z</time></trkpt><trkpt lat="36.9554277" lon="8.9250192"><ele>143.0</ele><time>2026-05-02T13:15:38.674Z</time></trkpt><trkpt lat="36.9553475" lon="8.9251581"><ele>143.0</ele><time>2026-05-02T13:15:39.671Z</time></trkpt><trkpt lat="36.955266" lon="8.9252947"><ele>143.75</ele><time>2026-05-02T13:15:40.684Z</time></trkpt><trkpt lat="36.9551859" lon="8.9254303"><ele>144.5</ele><time>2026-05-02T13:15:41.683Z</time></trkpt><trkpt lat="36.9551119" lon="8.9255612"><ele>145.25</ele><time>2026-05-02T13:15:42.678Z</time></trkpt><trkpt lat="36.9550355" lon="8.9256905"><ele>146.0</ele><time>2026-05-02T13:15:43.669Z</time></trkpt><trkpt lat="36.9549628" lon="8.9258178"><ele>145.5</ele><time>2026-05-02T13:15:44.678Z</time></trkpt><trkpt lat="36.9548901" lon="8.9259513"><ele>145.0</ele><time>2026-05-02T13:15:45.682Z</time></trkpt><trkpt lat="36.9548127" lon="8.926094"><ele>144.5</ele><time>2026-05-02T13:15:46.681Z</time></trkpt><trkpt lat="36.9547294" lon="8.9262328"><ele>144.0</ele><time>2026-05-02T13:15:47.679Z</time></trkpt><trkpt lat="36.9546584" lon="8.9263841"><ele>144.0</ele><time>2026-05-02T13:15:48.669Z</time></trkpt><trkpt lat="36.9545922" lon="8.9265412"><ele>144.0</ele><time>2026-05-02T13:15:49.67Z</time></trkpt><trkpt lat="36.9545379" lon="8.9267001"><ele>144.0</ele><time>2026-05-02T13:15:50.674Z</time></trkpt><trkpt lat="36.9544824" lon="8.9268564"><ele>144.0</ele><time>2026-05-02T13:15:51.674Z</time></trkpt><trkpt lat="36.9544292" lon="8.9270145"><ele>144.5</ele><time>2026-05-02T13:15:52.663Z</time></trkpt><trkpt lat="36.9543838" lon="8.9271666"><ele>145.0</ele><time>2026-05-02T13:15:53.677Z</time></trkpt><trkpt lat="36.9543323" lon="8.927311"><ele>145.5</ele><time>2026-05-02T13:15:54.69Z</time></trkpt><trkpt lat="36.9542847" lon="8.9274549"><ele>146.0</ele><time>2026-05-02T13:15:55.669Z</time></trkpt><trkpt lat="36.9542348" lon="8.9275927"><ele>146.5</ele><time>2026-05-02T13:15:56.672Z</time></trkpt><trkpt lat="36.9542021" lon="8.9277314"><ele>147.0</ele><time>2026-05-02T13:15:57.666Z</time></trkpt><trkpt lat="36.9541807" lon="8.9278722"><ele>147.5</ele><time>2026-05-02T13:15:58.664Z</time></trkpt><trkpt lat="36.9541805" lon="8.9280221"><ele>148.0</ele><time>2026-05-02T13:15:59.676Z</time></trkpt><trkpt lat="36.9542075" lon="8.9281785"><ele>148.0</ele><time>2026-05-02T13:16:00.668Z</time></trkpt><trkpt lat="36.9542427" lon="8.9283447"><ele>148.0</ele><time>2026-05-02T13:16:01.665Z</time></trkpt><trkpt lat="36.9542885" lon="8.9285139"><ele>148.0</ele><time>2026-05-02T13:16:02.663Z</time></trkpt><trkpt lat="36.9543253" lon="8.9286986"><ele>148.0</ele><time>2026-05-02T13:16:03.686Z</time></trkpt><trkpt lat="36.9543362" lon="8.9288751"><ele>145.5</ele><time>2026-05-02T13:16:04.674Z</time></trkpt><trkpt lat="36.9543273" lon="8.9290511"><ele>143.0</ele><time>2026-05-02T13:16:05.685Z</time></trkpt><trkpt lat="36.9543234" lon="8.9292151"><ele>140.5</ele><time>2026-05-02T13:16:06.697Z</time></trkpt><trkpt lat="36.9543219" lon="8.9293686"><ele>138.0</ele><time>2026-05-02T13:16:07.676Z</time></trkpt><trkpt lat="36.9543383" lon="8.9295187"><ele>135.6</ele><time>2026-05-02T13:16:08.667Z</time></trkpt><trkpt lat="36.9543588" lon="8.9296465"><ele>133.20000000000002</ele><time>2026-05-02T13:16:09.675Z</time></trkpt><trkpt lat="36.9544018" lon="8.9297595"><ele>130.8</ele><time>2026-05-02T13:16:10.659Z</time></trkpt><trkpt lat="36.9544734" lon="8.9298615"><ele>128.4</ele><time>2026-05-02T13:16:11.669Z</time></trkpt><trkpt lat="36.9545941" lon="8.9299294"><ele>126.0</ele><time>2026-05-02T13:16:12.674Z</time></trkpt><trkpt lat="36.954733" lon="8.9299767"><ele>126.0</ele><time>2026-05-02T13:16:13.669Z</time></trkpt><trkpt lat="36.9548724" lon="8.9300221"><ele>126.0</ele><time>2026-05-02T13:16:14.669Z</time></trkpt><trkpt lat="36.9550181" lon="8.9300561"><ele>126.0</ele><time>2026-05-02T13:16:15.672Z</time></trkpt><trkpt lat="36.9551643" lon="8.9301065"><ele>126.0</ele><time>2026-05-02T13:16:16.673Z</time></trkpt><trkpt lat="36.9553109" lon="8.9301889"><ele>125.0</ele><time>2026-05-02T13:16:17.678Z</time></trkpt><trkpt lat="36.9554453" lon="8.9303101"><ele>124.0</ele><time>2026-05-02T13:16:18.678Z</time></trkpt><trkpt lat="36.9555711" lon="8.9304738"><ele>123.0</ele><time>2026-05-02T13:16:19.672Z</time></trkpt><trkpt lat="36.9556784" lon="8.9306597"><ele>123.0</ele><time>2026-05-02T13:16:20.671Z</time></trkpt><trkpt lat="36.9557956" lon="8.9308505"><ele>123.0</ele><time>2026-05-02T13:16:21.667Z</time></trkpt><trkpt lat="36.9559134" lon="8.9310283"><ele>123.0</ele><time>2026-05-02T13:16:22.668Z</time></trkpt><trkpt lat="36.9560397" lon="8.931187"><ele>123.66666666666666</ele><time>2026-05-02T13:16:23.649Z</time></trkpt><trkpt lat="36.9561565" lon="8.9313499"><ele>124.33333333333333</ele><time>2026-05-02T13:16:24.671Z</time></trkpt><trkpt lat="36.9562562" lon="8.9315352"><ele>125.0</ele><time>2026-05-02T13:16:25.676Z</time></trkpt><trkpt lat="36.9563404" lon="8.9317231"><ele>124.0</ele><time>2026-05-02T13:16:26.676Z</time></trkpt><trkpt lat="36.9564032" lon="8.9319298"><ele>123.0</ele><time>2026-05-02T13:16:27.668Z</time></trkpt><trkpt lat="36.9564566" lon="8.9321375"><ele>122.0</ele><time>2026-05-02T13:16:28.67Z</time></trkpt><trkpt lat="36.9565194" lon="8.9323593"><ele>122.66666666666666</ele><time>2026-05-02T13:16:29.668Z</time></trkpt><trkpt lat="36.9565902" lon="8.9325815"><ele>123.33333333333334</ele><time>2026-05-02T13:16:30.658Z</time></trkpt><trkpt lat="36.9566639" lon="8.9327898"><ele>124.0</ele><time>2026-05-02T13:16:31.678Z</time></trkpt><trkpt lat="36.9567497" lon="8.9329967"><ele>124.0</ele><time>2026-05-02T13:16:32.683Z</time></trkpt><trkpt lat="36.95684" lon="8.9331967"><ele>124.0</ele><time>2026-05-02T13:16:33.676Z</time></trkpt><trkpt lat="36.9569429" lon="8.9333897"><ele>124.0</ele><time>2026-05-02T13:16:34.673Z</time></trkpt><trkpt lat="36.957053" lon="8.9335724"><ele>121.66666666666667</ele><time>2026-05-02T13:16:35.676Z</time></trkpt><trkpt lat="36.9571648" lon="8.9337511"><ele>119.33333333333334</ele><time>2026-05-02T13:16:36.665Z</time></trkpt><trkpt lat="36.9572668" lon="8.9339251"><ele>117.0</ele><time>2026-05-02T13:16:37.686Z</time></trkpt><trkpt lat="36.9573613" lon="8.9341071"><ele>116.33333333333334</ele><time>2026-05-02T13:16:38.671Z</time></trkpt><trkpt lat="36.9574406" lon="8.9342863"><ele>115.66666666666667</ele><time>2026-05-02T13:16:39.664Z</time></trkpt><trkpt lat="36.9574994" lon="8.9344714"><ele>115.0</ele><time>2026-05-02T13:16:40.668Z</time></trkpt><trkpt lat="36.9575319" lon="8.9346562"><ele>115.0</ele><time>2026-05-02T13:16:41.674Z</time></trkpt><trkpt lat="36.9575381" lon="8.9348528"><ele>115.0</ele><time>2026-05-02T13:16:42.67Z</time></trkpt><trkpt lat="36.957524" lon="8.9350514"><ele>115.0</ele><time>2026-05-02T13:16:43.663Z</time></trkpt><trkpt lat="36.957489" lon="8.9352436"><ele>114.66666666666667</ele><time>2026-05-02T13:16:44.67Z</time></trkpt><trkpt lat="36.9574365" lon="8.9354205"><ele>114.33333333333334</ele><time>2026-05-02T13:16:45.67Z</time></trkpt><trkpt lat="36.9573689" lon="8.9355895"><ele>114.0</ele><time>2026-05-02T13:16:46.673Z</time></trkpt><trkpt lat="36.9572742" lon="8.9357373"><ele>114.0</ele><time>2026-05-02T13:16:47.672Z</time></trkpt><trkpt lat="36.9571775" lon="8.9358823"><ele>114.0</ele><time>2026-05-02T13:16:48.683Z</time></trkpt><trkpt lat="36.9570715" lon="8.9360292"><ele>114.0</ele><time>2026-05-02T13:16:49.669Z</time></trkpt><trkpt lat="36.9569789" lon="8.9361747"><ele>114.0</ele><time>2026-05-02T13:16:50.668Z</time></trkpt><trkpt lat="36.9569015" lon="8.9363283"><ele>114.0</ele><time>2026-05-02T13:16:51.681Z</time></trkpt><trkpt lat="36.9568488" lon="8.9364928"><ele>114.0</ele><time>2026-05-02T13:16:52.682Z</time></trkpt><trkpt lat="36.9567997" lon="8.9366582"><ele>114.0</ele><time>2026-05-02T13:16:53.67Z</time></trkpt><trkpt lat="36.9567514" lon="8.9368214"><ele>113.75</ele><time>2026-05-02T13:16:54.667Z</time></trkpt><trkpt lat="36.9567072" lon="8.9369838"><ele>113.5</ele><time>2026-05-02T13:16:55.675Z</time></trkpt><trkpt lat="36.956663" lon="8.9371385"><ele>113.25</ele><time>2026-05-02T13:16:56.667Z</time></trkpt><trkpt lat="36.956637" lon="8.9372975"><ele>113.0</ele><time>2026-05-02T13:16:57.675Z</time></trkpt><trkpt lat="36.9566398" lon="8.9374581"><ele>113.75</ele><time>2026-05-02T13:16:58.66Z</time></trkpt><trkpt lat="36.9566591" lon="8.9376228"><ele>114.5</ele><time>2026-05-02T13:16:59.662Z</time></trkpt><trkpt lat="36.9567074" lon="8.937779"><ele>115.25</ele><time>2026-05-02T13:17:00.668Z</time></trkpt><trkpt lat="36.9567862" lon="8.9379148"><ele>116.0</ele><time>2026-05-02T13:17:01.66Z</time></trkpt><trkpt lat="36.9568847" lon="8.9380316"><ele>116.0</ele><time>2026-05-02T13:17:02.68Z</time></trkpt><trkpt lat="36.9569823" lon="8.9381348"><ele>116.0</ele><time>2026-05-02T13:17:03.659Z</time></trkpt><trkpt lat="36.9570911" lon="8.9382237"><ele>116.0</ele><time>2026-05-02T13:17:04.653Z</time></trkpt><trkpt lat="36.9572124" lon="8.9382894"><ele>116.0</ele><time>2026-05-02T13:17:05.651Z</time></trkpt><trkpt lat="36.9573314" lon="8.9383294"><ele>116.0</ele><time>2026-05-02T13:17:06.666Z</time></trkpt><trkpt lat="36.9574435" lon="8.9383606"><ele>116.0</ele><time>2026-05-02T13:17:07.673Z</time></trkpt><trkpt lat="36.9575501" lon="8.9383998"><ele>116.0</ele><time>2026-05-02T13:17:08.671Z</time></trkpt><trkpt lat="36.9576429" lon="8.9384521"><ele>116.0</ele><time>2026-05-02T13:17:09.673Z</time></trkpt><trkpt lat="36.9577258" lon="8.9385224"><ele>116.0</ele><time>2026-05-02T13:17:10.671Z</time></trkpt><trkpt lat="36.9578003" lon="8.9386058"><ele>115.5</ele><time>2026-05-02T13:17:11.662Z</time></trkpt><trkpt lat="36.9578656" lon="8.9387192"><ele>115.0</ele><time>2026-05-02T13:17:12.679Z</time></trkpt><trkpt lat="36.957921" lon="8.9388419"><ele>114.5</ele><time>2026-05-02T13:17:13.684Z</time></trkpt><trkpt lat="36.9579566" lon="8.9389871"><ele>114.0</ele><time>2026-05-02T13:17:14.672Z</time></trkpt><trkpt lat="36.9579945" lon="8.9391282"><ele>115.75</ele><time>2026-05-02T13:17:15.671Z</time></trkpt><trkpt lat="36.9580325" lon="8.9392697"><ele>117.5</ele><time>2026-05-02T13:17:16.669Z</time></trkpt><trkpt lat="36.9580971" lon="8.9393993"><ele>119.25</ele><time>2026-05-02T13:17:17.671Z</time></trkpt><trkpt lat="36.9581765" lon="8.9395072"><ele>121.0</ele><time>2026-05-02T13:17:18.679Z</time></trkpt><trkpt lat="36.9582663" lon="8.9396182"><ele>118.25</ele><time>2026-05-02T13:17:19.646Z</time></trkpt><trkpt lat="36.9583695" lon="8.9397177"><ele>115.5</ele><time>2026-05-02T13:17:20.654Z</time></trkpt><trkpt lat="36.9584741" lon="8.939814"><ele>112.75</ele><time>2026-05-02T13:17:21.665Z</time></trkpt><trkpt lat="36.9585732" lon="8.9399078"><ele>110.0</ele><time>2026-05-02T13:17:22.648Z</time></trkpt><trkpt lat="36.9586759" lon="8.9399999"><ele>112.5</ele><time>2026-05-02T13:17:23.669Z</time></trkpt><trkpt lat="36.9587725" lon="8.9400985"><ele>115.0</ele><time>2026-05-02T13:17:24.68Z</time></trkpt><trkpt lat="36.9588735" lon="8.9401971"><ele>117.5</ele><time>2026-05-02T13:17:25.666Z</time></trkpt><trkpt lat="36.9589771" lon="8.940296"><ele>120.0</ele><time>2026-05-02T13:17:26.691Z</time></trkpt><trkpt lat="36.9590853" lon="8.9403961"><ele>120.0</ele><time>2026-05-02T13:17:27.668Z</time></trkpt><trkpt lat="36.9591971" lon="8.940489"><ele>120.0</ele><time>2026-05-02T13:17:28.67Z</time></trkpt><trkpt lat="36.9593166" lon="8.9405713"><ele>120.0</ele><time>2026-05-02T13:17:29.653Z</time></trkpt><trkpt lat="36.9594306" lon="8.9406432"><ele>120.0</ele><time>2026-05-02T13:17:30.655Z</time></trkpt><trkpt lat="36.9595404" lon="8.9407169"><ele>119.0</ele><time>2026-05-02T13:17:31.676Z</time></trkpt><trkpt lat="36.9596486" lon="8.9407942"><ele>118.0</ele><time>2026-05-02T13:17:32.668Z</time></trkpt><trkpt lat="36.9597568" lon="8.9408764"><ele>117.0</ele><time>2026-05-02T13:17:33.676Z</time></trkpt><trkpt lat="36.959856" lon="8.94097"><ele>116.0</ele><time>2026-05-02T13:17:34.671Z</time></trkpt><trkpt lat="36.9599468" lon="8.9410773"><ele>116.0</ele><time>2026-05-02T13:17:35.672Z</time></trkpt><trkpt lat="36.960026" lon="8.941199"><ele>116.0</ele><time>2026-05-02T13:17:36.68Z</time></trkpt><trkpt lat="36.9600918" lon="8.9413382"><ele>116.0</ele><time>2026-05-02T13:17:37.673Z</time></trkpt><trkpt lat="36.960152" lon="8.9414783"><ele>116.0</ele><time>2026-05-02T13:17:38.663Z</time></trkpt><trkpt lat="36.9601976" lon="8.9416196"><ele>114.0</ele><time>2026-05-02T13:17:39.691Z</time></trkpt><trkpt lat="36.9602422" lon="8.9417731"><ele>112.0</ele><time>2026-05-02T13:17:40.659Z</time></trkpt><trkpt lat="36.9602959" lon="8.9419193"><ele>110.0</ele><time>2026-05-02T13:17:41.701Z</time></trkpt><trkpt lat="36.960364" lon="8.9420629"><ele>108.0</ele><time>2026-05-02T13:17:42.66Z</time></trkpt><trkpt lat="36.9604317" lon="8.9422013"><ele>108.0</ele><time>2026-05-02T13:17:43.66Z</time></trkpt><trkpt lat="36.9605041" lon="8.9423369"><ele>108.0</ele><time>2026-05-02T13:17:44.66Z</time></trkpt><trkpt lat="36.960575" lon="8.9424693"><ele>108.0</ele><time>2026-05-02T13:17:45.682Z</time></trkpt><trkpt lat="36.9606494" lon="8.9425946"><ele>108.0</ele><time>2026-05-02T13:17:46.669Z</time></trkpt><trkpt lat="36.9607277" lon="8.9427095"><ele>108.75</ele><time>2026-05-02T13:17:47.664Z</time></trkpt><trkpt lat="36.9608036" lon="8.9428232"><ele>109.5</ele><time>2026-05-02T13:17:48.688Z</time></trkpt><trkpt lat="36.9608749" lon="8.9429416"><ele>110.25</ele><time>2026-05-02T13:17:49.666Z</time></trkpt><trkpt lat="36.9609341" lon="8.9430609"><ele>111.0</ele><time>2026-05-02T13:17:50.695Z</time></trkpt><trkpt lat="36.9609746" lon="8.9431814"><ele>109.0</ele><time>2026-05-02T13:17:51.668Z</time></trkpt><trkpt lat="36.9610096" lon="8.9433111"><ele>107.0</ele><time>2026-05-02T13:17:52.69Z</time></trkpt><trkpt lat="36.9610273" lon="8.9434427"><ele>105.0</ele><time>2026-05-02T13:17:53.663Z</time></trkpt><trkpt lat="36.9610318" lon="8.9435849"><ele>103.0</ele><time>2026-05-02T13:17:54.667Z</time></trkpt><trkpt lat="36.961018" lon="8.9437379"><ele>102.5</ele><time>2026-05-02T13:17:55.677Z</time></trkpt><trkpt lat="36.9610047" lon="8.94389"><ele>102.0</ele><time>2026-05-02T13:17:56.683Z</time></trkpt><trkpt lat="36.9609854" lon="8.9440418"><ele>101.5</ele><time>2026-05-02T13:17:57.68Z</time></trkpt><trkpt lat="36.9609737" lon="8.9441902"><ele>101.0</ele><time>2026-05-02T13:17:58.672Z</time></trkpt><trkpt lat="36.9609771" lon="8.9443352"><ele>101.0</ele><time>2026-05-02T13:17:59.673Z</time></trkpt><trkpt lat="36.9609854" lon="8.944484"><ele>101.0</ele><time>2026-05-02T13:18:00.68Z</time></trkpt><trkpt lat="36.961" lon="8.9446383"><ele>101.0</ele><time>2026-05-02T13:18:01.689Z</time></trkpt><trkpt lat="36.9610276" lon="8.9448014"><ele>101.0</ele><time>2026-05-02T13:18:02.675Z</time></trkpt><trkpt lat="36.961072" lon="8.9449748"><ele>101.66666666666666</ele><time>2026-05-02T13:18:03.675Z</time></trkpt><trkpt lat="36.9611311" lon="8.9451868"><ele>102.33333333333334</ele><time>2026-05-02T13:18:04.676Z</time></trkpt><trkpt lat="36.9612225" lon="8.9454388"><ele>103.0</ele><time>2026-05-02T13:18:05.673Z</time></trkpt><trkpt lat="36.9613278" lon="8.9457139"><ele>104.5</ele><time>2026-05-02T13:18:06.676Z</time></trkpt><trkpt lat="36.96144" lon="8.9459949"><ele>106.0</ele><time>2026-05-02T13:18:07.673Z</time></trkpt><trkpt lat="36.961571" lon="8.9462741"><ele>104.0</ele><time>2026-05-02T13:18:08.68Z</time></trkpt><trkpt lat="36.9617263" lon="8.9465518"><ele>102.0</ele><time>2026-05-02T13:18:09.661Z</time></trkpt><trkpt lat="36.961908" lon="8.9468226"><ele>102.0</ele><time>2026-05-02T13:18:10.673Z</time></trkpt><trkpt lat="36.9620936" lon="8.9470904"><ele>102.0</ele><time>2026-05-02T13:18:11.673Z</time></trkpt><trkpt lat="36.9622703" lon="8.9473309"><ele>103.5</ele><time>2026-05-02T13:18:12.682Z</time></trkpt><trkpt lat="36.9624376" lon="8.9475515"><ele>105.0</ele><time>2026-05-02T13:18:13.677Z</time></trkpt><trkpt lat="36.9625942" lon="8.9477697"><ele>102.33333333333334</ele><time>2026-05-02T13:18:14.674Z</time></trkpt><trkpt lat="36.9627347" lon="8.9479678"><ele>99.66666666666667</ele><time>2026-05-02T13:18:15.665Z</time></trkpt><trkpt lat="36.9628636" lon="8.948158"><ele>97.0</ele><time>2026-05-02T13:18:16.674Z</time></trkpt><trkpt lat="36.9629738" lon="8.9483398"><ele>98.0</ele><time>2026-05-02T13:18:17.667Z</time></trkpt><trkpt lat="36.9630725" lon="8.9485282"><ele>99.0</ele><time>2026-05-02T13:18:18.679Z</time></trkpt><trkpt lat="36.9631387" lon="8.9487178"><ele>100.0</ele><time>2026-05-02T13:18:19.676Z</time></trkpt><trkpt lat="36.9631895" lon="8.9489278"><ele>100.0</ele><time>2026-05-02T13:18:20.674Z</time></trkpt><trkpt lat="36.9632252" lon="8.9491426"><ele>100.0</ele><time>2026-05-02T13:18:21.679Z</time></trkpt><trkpt lat="36.9632711" lon="8.9493748"><ele>100.0</ele><time>2026-05-02T13:18:22.671Z</time></trkpt><trkpt lat="36.9633401" lon="8.9495993"><ele>98.0</ele><time>2026-05-02T13:18:23.675Z</time></trkpt><trkpt lat="36.9634447" lon="8.9498083"><ele>96.0</ele><time>2026-05-02T13:18:24.669Z</time></trkpt><trkpt lat="36.9635456" lon="8.9500004"><ele>94.0</ele><time>2026-05-02T13:18:25.674Z</time></trkpt><trkpt lat="36.9636392" lon="8.950208"><ele>93.33333333333333</ele><time>2026-05-02T13:18:26.667Z</time></trkpt><trkpt lat="36.9637105" lon="8.9504358"><ele>92.66666666666667</ele><time>2026-05-02T13:18:27.663Z</time></trkpt><trkpt lat="36.9637694" lon="8.9506721"><ele>92.0</ele><time>2026-05-02T13:18:28.659Z</time></trkpt><trkpt lat="36.9637992" lon="8.9509091"><ele>92.0</ele><time>2026-05-02T13:18:29.674Z</time></trkpt><trkpt lat="36.9638173" lon="8.9511513"><ele>92.0</ele><time>2026-05-02T13:18:30.664Z</time></trkpt><trkpt lat="36.9638289" lon="8.9513933"><ele>92.0</ele><time>2026-05-02T13:18:31.672Z</time></trkpt><trkpt lat="36.9638148" lon="8.951638"><ele>90.0</ele><time>2026-05-02T13:18:32.676Z</time></trkpt><trkpt lat="36.9637827" lon="8.9518686"><ele>88.0</ele><time>2026-05-02T13:18:33.653Z</time></trkpt><trkpt lat="36.9637353" lon="8.9520932"><ele>86.0</ele><time>2026-05-02T13:18:34.662Z</time></trkpt><trkpt lat="36.9636967" lon="8.9522975"><ele>86.0</ele><time>2026-05-02T13:18:35.678Z</time></trkpt><trkpt lat="36.9636673" lon="8.9524817"><ele>86.0</ele><time>2026-05-02T13:18:36.669Z</time></trkpt><trkpt lat="36.9636528" lon="8.9526517"><ele>86.0</ele><time>2026-05-02T13:18:37.667Z</time></trkpt><trkpt lat="36.9636753" lon="8.9528424"><ele>86.0</ele><time>2026-05-02T13:18:38.669Z</time></trkpt><trkpt lat="36.9637393" lon="8.9530102"><ele>86.0</ele><time>2026-05-02T13:18:39.671Z</time></trkpt><trkpt lat="36.9638203" lon="8.9531673"><ele>86.0</ele><time>2026-05-02T13:18:40.659Z</time></trkpt><trkpt lat="36.9639263" lon="8.9533097"><ele>86.0</ele><time>2026-05-02T13:18:41.68Z</time></trkpt><trkpt lat="36.9640272" lon="8.9534389"><ele>86.0</ele><time>2026-05-02T13:18:42.688Z</time></trkpt><trkpt lat="36.9641125" lon="8.9535775"><ele>86.0</ele><time>2026-05-02T13:18:43.673Z</time></trkpt><trkpt lat="36.9641728" lon="8.9537335"><ele>86.0</ele><time>2026-05-02T13:18:44.67Z</time></trkpt><trkpt lat="36.9642072" lon="8.953894"><ele>86.0</ele><time>2026-05-02T13:18:45.691Z</time></trkpt><trkpt lat="36.9642199" lon="8.9540702"><ele>86.0</ele><time>2026-05-02T13:18:46.675Z</time></trkpt><trkpt lat="36.9642013" lon="8.9542491"><ele>84.66666666666667</ele><time>2026-05-02T13:18:47.672Z</time></trkpt><trkpt lat="36.9641563" lon="8.9544327"><ele>83.33333333333333</ele><time>2026-05-02T13:18:48.669Z</time></trkpt><trkpt lat="36.9640958" lon="8.9546291"><ele>82.0</ele><time>2026-05-02T13:18:49.677Z</time></trkpt><trkpt lat="36.9640295" lon="8.954829"><ele>81.33333333333333</ele><time>2026-05-02T13:18:50.684Z</time></trkpt><trkpt lat="36.9639702" lon="8.9550689"><ele>80.66666666666667</ele><time>2026-05-02T13:18:51.667Z</time></trkpt><trkpt lat="36.9639273" lon="8.9553393"><ele>80.0</ele><time>2026-05-02T13:18:52.672Z</time></trkpt><trkpt lat="36.963897" lon="8.9556357"><ele>80.5</ele><time>2026-05-02T13:18:53.672Z</time></trkpt><trkpt lat="36.963879" lon="8.9559249"><ele>81.0</ele><time>2026-05-02T13:18:54.672Z</time></trkpt><trkpt lat="36.9638554" lon="8.9562032"><ele>81.0</ele><time>2026-05-02T13:18:55.669Z</time></trkpt><trkpt lat="36.9638083" lon="8.9564568"><ele>81.0</ele><time>2026-05-02T13:18:56.661Z</time></trkpt><trkpt lat="36.9637563" lon="8.956702"><ele>81.0</ele><time>2026-05-02T13:18:57.669Z</time></trkpt><trkpt lat="36.963711" lon="8.9569414"><ele>80.66666666666667</ele><time>2026-05-02T13:18:58.675Z</time></trkpt><trkpt lat="36.9637015" lon="8.9571863"><ele>80.33333333333334</ele><time>2026-05-02T13:18:59.676Z</time></trkpt><trkpt lat="36.9637104" lon="8.9574448"><ele>80.0</ele><time>2026-05-02T13:19:00.665Z</time></trkpt><trkpt lat="36.963725" lon="8.9576849"><ele>78.33333333333334</ele><time>2026-05-02T13:19:01.668Z</time></trkpt><trkpt lat="36.963728" lon="8.9579231"><ele>76.66666666666667</ele><time>2026-05-02T13:19:02.67Z</time></trkpt><trkpt lat="36.9637101" lon="8.9581693"><ele>75.0</ele><time>2026-05-02T13:19:03.675Z</time></trkpt><trkpt lat="36.9636875" lon="8.9584343"><ele>74.66666666666667</ele><time>2026-05-02T13:19:04.668Z</time></trkpt><trkpt lat="36.9636686" lon="8.9587012"><ele>74.33333333333334</ele><time>2026-05-02T13:19:05.666Z</time></trkpt><trkpt lat="36.963655" lon="8.9589729"><ele>74.0</ele><time>2026-05-02T13:19:06.676Z</time></trkpt><trkpt lat="36.9636686" lon="8.9592471"><ele>73.33333333333334</ele><time>2026-05-02T13:19:07.665Z</time></trkpt><trkpt lat="36.9636968" lon="8.9595116"><ele>72.66666666666667</ele><time>2026-05-02T13:19:08.662Z</time></trkpt><trkpt lat="36.9637443" lon="8.959757"><ele>72.0</ele><time>2026-05-02T13:19:09.67Z</time></trkpt><trkpt lat="36.9637751" lon="8.9600041"><ele>71.66666666666667</ele><time>2026-05-02T13:19:10.666Z</time></trkpt><trkpt lat="36.9637808" lon="8.9602658"><ele>71.33333333333334</ele><time>2026-05-02T13:19:11.672Z</time></trkpt><trkpt lat="36.9637739" lon="8.9605312"><ele>71.0</ele><time>2026-05-02T13:19:12.676Z</time></trkpt><trkpt lat="36.9637624" lon="8.9608083"><ele>71.33333333333334</ele><time>2026-05-02T13:19:13.672Z</time></trkpt><trkpt lat="36.9637598" lon="8.9610774"><ele>71.66666666666667</ele><time>2026-05-02T13:19:14.672Z</time></trkpt><trkpt lat="36.9637663" lon="8.9613342"><ele>72.0</ele><time>2026-05-02T13:19:15.667Z</time></trkpt><trkpt lat="36.9637608" lon="8.9615948"><ele>71.0</ele><time>2026-05-02T13:19:16.672Z</time></trkpt><trkpt lat="36.9637376" lon="8.961861"><ele>70.0</ele><time>2026-05-02T13:19:17.677Z</time></trkpt><trkpt lat="36.9637021" lon="8.9621035"><ele>69.0</ele><time>2026-05-02T13:19:18.676Z</time></trkpt><trkpt lat="36.9636768" lon="8.9623381"><ele>69.33333333333333</ele><time>2026-05-02T13:19:19.666Z</time></trkpt><trkpt lat="36.9636712" lon="8.9625542"><ele>69.66666666666666</ele><time>2026-05-02T13:19:20.674Z</time></trkpt><trkpt lat="36.9636949" lon="8.9627585"><ele>70.0</ele><time>2026-05-02T13:19:21.672Z</time></trkpt><trkpt lat="36.9637364" lon="8.9629447"><ele>70.0</ele><time>2026-05-02T13:19:22.669Z</time></trkpt><trkpt lat="36.9637667" lon="8.9631205"><ele>70.0</ele><time>2026-05-02T13:19:23.66Z</time></trkpt><trkpt lat="36.9637904" lon="8.9632768"><ele>70.0</ele><time>2026-05-02T13:19:24.661Z</time></trkpt><trkpt lat="36.9637769" lon="8.9634389"><ele>70.0</ele><time>2026-05-02T13:19:25.677Z</time></trkpt><trkpt lat="36.9637272" lon="8.9636099"><ele>70.33333333333333</ele><time>2026-05-02T13:19:26.663Z</time></trkpt><trkpt lat="36.9636323" lon="8.9638144"><ele>70.66666666666667</ele><time>2026-05-02T13:19:27.668Z</time></trkpt><trkpt lat="36.9635123" lon="8.9640527"><ele>71.0</ele><time>2026-05-02T13:19:28.67Z</time></trkpt><trkpt lat="36.9633959" lon="8.9643113"><ele>71.0</ele><time>2026-05-02T13:19:29.672Z</time></trkpt><trkpt lat="36.96328" lon="8.9645427"><ele>71.0</ele><time>2026-05-02T13:19:30.668Z</time></trkpt><trkpt lat="36.9631848" lon="8.9647472"><ele>71.0</ele><time>2026-05-02T13:19:31.663Z</time></trkpt><trkpt lat="36.9630924" lon="8.9649406"><ele>70.33333333333334</ele><time>2026-05-02T13:19:32.672Z</time></trkpt><trkpt lat="36.9630256" lon="8.965155"><ele>69.66666666666667</ele><time>2026-05-02T13:19:33.663Z</time></trkpt><trkpt lat="36.962972" lon="8.9653894"><ele>69.0</ele><time>2026-05-02T13:19:34.671Z</time></trkpt><trkpt lat="36.9629385" lon="8.9656446"><ele>68.5</ele><time>2026-05-02T13:19:35.672Z</time></trkpt><trkpt lat="36.9629137" lon="8.9659278"><ele>68.0</ele><time>2026-05-02T13:19:36.658Z</time></trkpt><trkpt lat="36.9628882" lon="8.9662237"><ele>68.0</ele><time>2026-05-02T13:19:37.67Z</time></trkpt><trkpt lat="36.9628826" lon="8.9665418"><ele>68.0</ele><time>2026-05-02T13:19:38.669Z</time></trkpt><trkpt lat="36.9628992" lon="8.9668515"><ele>67.0</ele><time>2026-05-02T13:19:39.664Z</time></trkpt><trkpt lat="36.9629354" lon="8.9671724"><ele>66.0</ele><time>2026-05-02T13:19:40.646Z</time></trkpt><trkpt lat="36.962988" lon="8.9674867"><ele>65.0</ele><time>2026-05-02T13:19:41.659Z</time></trkpt><trkpt lat="36.9630411" lon="8.9678032"><ele>64.0</ele><time>2026-05-02T13:19:42.662Z</time></trkpt><trkpt lat="36.9630959" lon="8.9681124"><ele>65.0</ele><time>2026-05-02T13:19:43.657Z</time></trkpt><trkpt lat="36.9631484" lon="8.9684036"><ele>66.0</ele><time>2026-05-02T13:19:44.662Z</time></trkpt><trkpt lat="36.9631981" lon="8.9686799"><ele>66.0</ele><time>2026-05-02T13:19:45.653Z</time></trkpt><trkpt lat="36.9632357" lon="8.9689253"><ele>66.0</ele><time>2026-05-02T13:19:46.671Z</time></trkpt><trkpt lat="36.9632667" lon="8.9691614"><ele>66.0</ele><time>2026-05-02T13:19:47.663Z</time></trkpt><trkpt lat="36.9633031" lon="8.9693603"><ele>66.0</ele><time>2026-05-02T13:19:48.655Z</time></trkpt><trkpt lat="36.9633395" lon="8.9695558"><ele>66.0</ele><time>2026-05-02T13:19:49.675Z</time></trkpt><trkpt lat="36.9633658" lon="8.9697287"><ele>66.0</ele><time>2026-05-02T13:19:50.666Z</time></trkpt><trkpt lat="36.9633886" lon="8.9699027"><ele>66.0</ele><time>2026-05-02T13:19:51.659Z</time></trkpt><trkpt lat="36.963412" lon="8.970075"><ele>66.0</ele><time>2026-05-02T13:19:52.68Z</time></trkpt><trkpt lat="36.9634323" lon="8.9702386"><ele>66.0</ele><time>2026-05-02T13:19:53.66Z</time></trkpt><trkpt lat="36.9634474" lon="8.9704041"><ele>66.0</ele><time>2026-05-02T13:19:54.679Z</time></trkpt><trkpt lat="36.9634609" lon="8.970556"><ele>66.0</ele><time>2026-05-02T13:19:55.676Z</time></trkpt><trkpt lat="36.9634744" lon="8.9707056"><ele>66.0</ele><time>2026-05-02T13:19:56.669Z</time></trkpt><trkpt lat="36.9634879" lon="8.9708553"><ele>66.0</ele><time>2026-05-02T13:19:57.657Z</time></trkpt><trkpt lat="36.9635021" lon="8.9710043"><ele>66.0</ele><time>2026-05-02T13:19:58.675Z</time></trkpt><trkpt lat="36.9635135" lon="8.9711416"><ele>66.0</ele><time>2026-05-02T13:19:59.673Z</time></trkpt><trkpt lat="36.9635266" lon="8.9712811"><ele>66.0</ele><time>2026-05-02T13:20:00.665Z</time></trkpt><trkpt lat="36.9635356" lon="8.9714288"><ele>66.0</ele><time>2026-05-02T13:20:01.671Z</time></trkpt><trkpt lat="36.963542" lon="8.9715794"><ele>66.0</ele><time>2026-05-02T13:20:02.688Z</time></trkpt><trkpt lat="36.9635461" lon="8.9717331"><ele>66.0</ele><time>2026-05-02T13:20:03.67Z</time></trkpt><trkpt lat="36.9635468" lon="8.9718895"><ele>64.75</ele><time>2026-05-02T13:20:04.669Z</time></trkpt><trkpt lat="36.9635495" lon="8.9720436"><ele>63.5</ele><time>2026-05-02T13:20:05.679Z</time></trkpt><trkpt lat="36.9635475" lon="8.9722099"><ele>62.25</ele><time>2026-05-02T13:20:06.666Z</time></trkpt><trkpt lat="36.9635489" lon="8.9723808"><ele>61.0</ele><time>2026-05-02T13:20:07.666Z</time></trkpt><trkpt lat="36.9635643" lon="8.9725572"><ele>60.0</ele><time>2026-05-02T13:20:08.675Z</time></trkpt><trkpt lat="36.9635975" lon="8.9727395"><ele>59.0</ele><time>2026-05-02T13:20:09.671Z</time></trkpt><trkpt lat="36.9636512" lon="8.9729254"><ele>58.0</ele><time>2026-05-02T13:20:10.67Z</time></trkpt><trkpt lat="36.9637182" lon="8.9731095"><ele>58.0</ele><time>2026-05-02T13:20:11.657Z</time></trkpt><trkpt lat="36.9638081" lon="8.9732916"><ele>58.0</ele><time>2026-05-02T13:20:12.669Z</time></trkpt><trkpt lat="36.9639222" lon="8.9734923"><ele>58.0</ele><time>2026-05-02T13:20:13.668Z</time></trkpt><trkpt lat="36.964048" lon="8.9737219"><ele>58.5</ele><time>2026-05-02T13:20:14.671Z</time></trkpt><trkpt lat="36.9641854" lon="8.9739716"><ele>59.0</ele><time>2026-05-02T13:20:15.673Z</time></trkpt><trkpt lat="36.9643201" lon="8.9742151"><ele>59.0</ele><time>2026-05-02T13:20:16.681Z</time></trkpt><trkpt lat="36.96445" lon="8.9744226"><ele>59.0</ele><time>2026-05-02T13:20:17.681Z</time></trkpt><trkpt lat="36.9645617" lon="8.9746028"><ele>59.0</ele><time>2026-05-02T13:20:18.672Z</time></trkpt><trkpt lat="36.9646586" lon="8.9747604"><ele>59.0</ele><time>2026-05-02T13:20:19.686Z</time></trkpt><trkpt lat="36.9647462" lon="8.9748982"><ele>59.0</ele><time>2026-05-02T13:20:20.677Z</time></trkpt><trkpt lat="36.9648166" lon="8.9750202"><ele>59.0</ele><time>2026-05-02T13:20:21.673Z</time></trkpt><trkpt lat="36.9648697" lon="8.975147"><ele>59.0</ele><time>2026-05-02T13:20:22.666Z</time></trkpt><trkpt lat="36.9648946" lon="8.9752809"><ele>59.0</ele><time>2026-05-02T13:20:23.679Z</time></trkpt><trkpt lat="36.9648799" lon="8.9754216"><ele>59.0</ele><time>2026-05-02T13:20:24.669Z</time></trkpt><trkpt lat="36.9648279" lon="8.9755687"><ele>59.0</ele><time>2026-05-02T13:20:25.681Z</time></trkpt><trkpt lat="36.9647421" lon="8.9757316"><ele>59.0</ele><time>2026-05-02T13:20:26.656Z</time></trkpt><trkpt lat="36.9646284" lon="8.9759229"><ele>56.333333333333336</ele><time>2026-05-02T13:20:27.674Z</time></trkpt><trkpt lat="36.9645038" lon="8.9761215"><ele>53.66666666666667</ele><time>2026-05-02T13:20:28.671Z</time></trkpt><trkpt lat="36.9643725" lon="8.9763204"><ele>51.0</ele><time>2026-05-02T13:20:29.673Z</time></trkpt><trkpt lat="36.9642248" lon="8.9765159"><ele>53.66666666666667</ele><time>2026-05-02T13:20:30.664Z</time></trkpt><trkpt lat="36.9640882" lon="8.9767076"><ele>56.333333333333336</ele><time>2026-05-02T13:20:31.665Z</time></trkpt><trkpt lat="36.9639675" lon="8.9769007"><ele>59.0</ele><time>2026-05-02T13:20:32.661Z</time></trkpt><trkpt lat="36.9638786" lon="8.9771035"><ele>59.0</ele><time>2026-05-02T13:20:33.657Z</time></trkpt><trkpt lat="36.963811" lon="8.9772953"><ele>59.0</ele><time>2026-05-02T13:20:34.664Z</time></trkpt><trkpt lat="36.9637552" lon="8.9774754"><ele>59.0</ele><time>2026-05-02T13:20:35.683Z</time></trkpt><trkpt lat="36.9637117" lon="8.9776312"><ele>59.0</ele><time>2026-05-02T13:20:36.669Z</time></trkpt><trkpt lat="36.9636638" lon="8.9777669"><ele>59.00000000000001</ele><time>2026-05-02T13:20:37.656Z</time></trkpt><trkpt lat="36.9636153" lon="8.977888"><ele>59.00000000000001</ele><time>2026-05-02T13:20:38.67Z</time></trkpt><trkpt lat="36.9635415" lon="8.977981"><ele>59.0</ele><time>2026-05-02T13:20:39.672Z</time></trkpt><trkpt lat="36.9634362" lon="8.9780175"><ele>59.0</ele><time>2026-05-02T13:20:40.671Z</time></trkpt><trkpt lat="36.9633166" lon="8.9780085"><ele>59.0</ele><time>2026-05-02T13:20:41.673Z</time></trkpt><trkpt lat="36.9631819" lon="8.9779808"><ele>59.0</ele><time>2026-05-02T13:20:42.669Z</time></trkpt><trkpt lat="36.9630309" lon="8.9779454"><ele>59.0</ele><time>2026-05-02T13:20:43.67Z</time></trkpt><trkpt lat="36.9628728" lon="8.9779438"><ele>59.0</ele><time>2026-05-02T13:20:44.667Z</time></trkpt><trkpt lat="36.9627293" lon="8.9779673"><ele>59.0</ele><time>2026-05-02T13:20:45.671Z</time></trkpt><trkpt lat="36.9625856" lon="8.9780167"><ele>59.0</ele><time>2026-05-02T13:20:46.67Z</time></trkpt><trkpt lat="36.9624333" lon="8.9781086"><ele>59.0</ele><time>2026-05-02T13:20:47.663Z</time></trkpt><trkpt lat="36.9622643" lon="8.9782576"><ele>55.0</ele><time>2026-05-02T13:20:48.665Z</time></trkpt><trkpt lat="36.9620766" lon="8.9784311"><ele>51.0</ele><time>2026-05-02T13:20:49.658Z</time></trkpt><trkpt lat="36.9618808" lon="8.9786058"><ele>52.5</ele><time>2026-05-02T13:20:50.669Z</time></trkpt><trkpt lat="36.9616874" lon="8.9787903"><ele>54.0</ele><time>2026-05-02T13:20:51.679Z</time></trkpt><trkpt lat="36.9615046" lon="8.9789667"><ele>54.0</ele><time>2026-05-02T13:20:52.661Z</time></trkpt><trkpt lat="36.9613348" lon="8.979127"><ele>54.0</ele><time>2026-05-02T13:20:53.669Z</time></trkpt><trkpt lat="36.9611771" lon="8.979273"><ele>54.0</ele><time>2026-05-02T13:20:54.668Z</time></trkpt><trkpt lat="36.9610278" lon="8.9794197"><ele>53.0</ele><time>2026-05-02T13:20:55.673Z</time></trkpt><trkpt lat="36.9608832" lon="8.9795487"><ele>52.0</ele><time>2026-05-02T13:20:56.672Z</time></trkpt><trkpt lat="36.960751" lon="8.979677"><ele>51.0</ele><time>2026-05-02T13:20:57.662Z</time></trkpt><trkpt lat="36.9606342" lon="8.9798187"><ele>51.0</ele><time>2026-05-02T13:20:58.696Z</time></trkpt><trkpt lat="36.9605467" lon="8.9799933"><ele>51.0</ele><time>2026-05-02T13:20:59.664Z</time></trkpt><trkpt lat="36.960492" lon="8.9801876"><ele>51.0</ele><time>2026-05-02T13:21:00.663Z</time></trkpt><trkpt lat="36.9604771" lon="8.9803916"><ele>51.0</ele><time>2026-05-02T13:21:01.665Z</time></trkpt><trkpt lat="36.9604552" lon="8.9806138"><ele>51.0</ele><time>2026-05-02T13:21:02.674Z</time></trkpt><trkpt lat="36.9604162" lon="8.9808449"><ele>51.0</ele><time>2026-05-02T13:21:03.673Z</time></trkpt><trkpt lat="36.9603594" lon="8.9810444"><ele>51.66666666666667</ele><time>2026-05-02T13:21:04.66Z</time></trkpt><trkpt lat="36.9602877" lon="8.9812311"><ele>52.333333333333336</ele><time>2026-05-02T13:21:05.673Z</time></trkpt><trkpt lat="36.9602169" lon="8.9814056"><ele>53.0</ele><time>2026-05-02T13:21:06.676Z</time></trkpt><trkpt lat="36.9601471" lon="8.981561"><ele>52.5</ele><time>2026-05-02T13:21:07.675Z</time></trkpt><trkpt lat="36.9600879" lon="8.9817018"><ele>52.0</ele><time>2026-05-02T13:21:08.673Z</time></trkpt><trkpt lat="36.9600258" lon="8.9818313"><ele>51.5</ele><time>2026-05-02T13:21:09.681Z</time></trkpt><trkpt lat="36.9599696" lon="8.9819549"><ele>51.0</ele><time>2026-05-02T13:21:10.674Z</time></trkpt><trkpt lat="36.9599113" lon="8.9820814"><ele>50.5</ele><time>2026-05-02T13:21:11.655Z</time></trkpt><trkpt lat="36.9598489" lon="8.9822116"><ele>50.0</ele><time>2026-05-02T13:21:12.661Z</time></trkpt><trkpt lat="36.9597844" lon="8.9823431"><ele>49.5</ele><time>2026-05-02T13:21:13.666Z</time></trkpt><trkpt lat="36.9597172" lon="8.9824878"><ele>49.0</ele><time>2026-05-02T13:21:14.67Z</time></trkpt><trkpt lat="36.9596545" lon="8.9826309"><ele>47.5</ele><time>2026-05-02T13:21:15.667Z</time></trkpt><trkpt lat="36.9596099" lon="8.9827736"><ele>46.0</ele><time>2026-05-02T13:21:16.681Z</time></trkpt><trkpt lat="36.9595855" lon="8.9829298"><ele>44.5</ele><time>2026-05-02T13:21:17.675Z</time></trkpt><trkpt lat="36.9595738" lon="8.9831042"><ele>43.0</ele><time>2026-05-02T13:21:18.662Z</time></trkpt><trkpt lat="36.9595765" lon="8.9832927"><ele>42.66666666666667</ele><time>2026-05-02T13:21:19.673Z</time></trkpt><trkpt lat="36.9595878" lon="8.9834842"><ele>42.333333333333336</ele><time>2026-05-02T13:21:20.684Z</time></trkpt><trkpt lat="36.9596061" lon="8.9836785"><ele>42.0</ele><time>2026-05-02T13:21:21.657Z</time></trkpt><trkpt lat="36.9596243" lon="8.9838712"><ele>42.0</ele><time>2026-05-02T13:21:22.654Z</time></trkpt><trkpt lat="36.9596381" lon="8.9840608"><ele>42.0</ele><time>2026-05-02T13:21:23.656Z</time></trkpt><trkpt lat="36.9596532" lon="8.9842473"><ele>42.0</ele><time>2026-05-02T13:21:24.652Z</time></trkpt><trkpt lat="36.959669" lon="8.9844236"><ele>42.0</ele><time>2026-05-02T13:21:25.678Z</time></trkpt><trkpt lat="36.9596858" lon="8.9846015"><ele>42.5</ele><time>2026-05-02T13:21:26.664Z</time></trkpt><trkpt lat="36.9597029" lon="8.9847696"><ele>43.0</ele><time>2026-05-02T13:21:27.653Z</time></trkpt><trkpt lat="36.9597217" lon="8.9849361"><ele>43.5</ele><time>2026-05-02T13:21:28.681Z</time></trkpt><trkpt lat="36.9597379" lon="8.9850881"><ele>44.0</ele><time>2026-05-02T13:21:29.683Z</time></trkpt><trkpt lat="36.9597526" lon="8.9852342"><ele>44.0</ele><time>2026-05-02T13:21:30.675Z</time></trkpt><trkpt lat="36.9597699" lon="8.9853725"><ele>44.0</ele><time>2026-05-02T13:21:31.664Z</time></trkpt><trkpt lat="36.959784" lon="8.9855035"><ele>44.0</ele><time>2026-05-02T13:21:32.673Z</time></trkpt><trkpt lat="36.9597947" lon="8.9856334"><ele>44.0</ele><time>2026-05-02T13:21:33.675Z</time></trkpt><trkpt lat="36.9598059" lon="8.9857717"><ele>44.0</ele><time>2026-05-02T13:21:34.666Z</time></trkpt><trkpt lat="36.9598175" lon="8.9859088"><ele>44.0</ele><time>2026-05-02T13:21:35.674Z</time></trkpt><trkpt lat="36.9598331" lon="8.9860467"><ele>44.0</ele><time>2026-05-02T13:21:36.701Z</time></trkpt><trkpt lat="36.9598443" lon="8.9861785"><ele>44.0</ele><time>2026-05-02T13:21:37.702Z</time></trkpt><trkpt lat="36.9598584" lon="8.9863104"><ele>44.0</ele><time>2026-05-02T13:21:38.675Z</time></trkpt><trkpt lat="36.9598716" lon="8.9864449"><ele>44.0</ele><time>2026-05-02T13:21:39.673Z</time></trkpt><trkpt lat="36.9598829" lon="8.9865786"><ele>45.0</ele><time>2026-05-02T13:21:40.691Z</time></trkpt><trkpt lat="36.9598921" lon="8.98671"><ele>46.0</ele><time>2026-05-02T13:21:41.678Z</time></trkpt><trkpt lat="36.9599041" lon="8.9868427"><ele>47.0</ele><time>2026-05-02T13:21:42.667Z</time></trkpt><trkpt lat="36.959919" lon="8.9869729"><ele>48.0</ele><time>2026-05-02T13:21:43.674Z</time></trkpt><trkpt lat="36.9599317" lon="8.9871182"><ele>49.0</ele><time>2026-05-02T13:21:44.676Z</time></trkpt><trkpt lat="36.9599489" lon="8.9872561"><ele>49.0</ele><time>2026-05-02T13:21:45.66Z</time></trkpt><trkpt lat="36.9599622" lon="8.9873942"><ele>49.0</ele><time>2026-05-02T13:21:46.673Z</time></trkpt><trkpt lat="36.9599779" lon="8.9875406"><ele>49.0</ele><time>2026-05-02T13:21:47.676Z</time></trkpt><trkpt lat="36.9599921" lon="8.9876886"><ele>49.0</ele><time>2026-05-02T13:21:48.681Z</time></trkpt><trkpt lat="36.9600022" lon="8.9878385"><ele>48.75</ele><time>2026-05-02T13:21:49.669Z</time></trkpt><trkpt lat="36.960011" lon="8.9879924"><ele>48.5</ele><time>2026-05-02T13:21:50.683Z</time></trkpt><trkpt lat="36.9600225" lon="8.9881398"><ele>48.25</ele><time>2026-05-02T13:21:51.68Z</time></trkpt><trkpt lat="36.9600367" lon="8.9882821"><ele>48.0</ele><time>2026-05-02T13:21:52.687Z</time></trkpt><trkpt lat="36.9600439" lon="8.9884127"><ele>48.4</ele><time>2026-05-02T13:21:53.659Z</time></trkpt><trkpt lat="36.9600554" lon="8.9885434"><ele>48.8</ele><time>2026-05-02T13:21:54.67Z</time></trkpt><trkpt lat="36.9600686" lon="8.9886704"><ele>49.2</ele><time>2026-05-02T13:21:55.662Z</time></trkpt><trkpt lat="36.9600832" lon="8.9888006"><ele>49.6</ele><time>2026-05-02T13:21:56.679Z</time></trkpt><trkpt lat="36.960098" lon="8.9889327"><ele>50.0</ele><time>2026-05-02T13:21:57.681Z</time></trkpt><trkpt lat="36.96011" lon="8.9890663"><ele>50.4</ele><time>2026-05-02T13:21:58.668Z</time></trkpt><trkpt lat="36.9601211" lon="8.9891947"><ele>50.8</ele><time>2026-05-02T13:21:59.668Z</time></trkpt><trkpt lat="36.960135" lon="8.9893322"><ele>51.2</ele><time>2026-05-02T13:22:00.668Z</time></trkpt><trkpt lat="36.9601454" lon="8.9894644"><ele>51.6</ele><time>2026-05-02T13:22:01.684Z</time></trkpt><trkpt lat="36.9601606" lon="8.9895987"><ele>52.0</ele><time>2026-05-02T13:22:02.672Z</time></trkpt><trkpt lat="36.9601714" lon="8.9897342"><ele>52.0</ele><time>2026-05-02T13:22:03.662Z</time></trkpt><trkpt lat="36.9601861" lon="8.9898699"><ele>52.0</ele><time>2026-05-02T13:22:04.669Z</time></trkpt><trkpt lat="36.9602001" lon="8.9900064"><ele>52.0</ele><time>2026-05-02T13:22:05.664Z</time></trkpt><trkpt lat="36.9602128" lon="8.9901465"><ele>52.0</ele><time>2026-05-02T13:22:06.658Z</time></trkpt><trkpt lat="36.9602272" lon="8.9902851"><ele>52.0</ele><time>2026-05-02T13:22:07.682Z</time></trkpt><trkpt lat="36.9602406" lon="8.9904206"><ele>51.25</ele><time>2026-05-02T13:22:08.666Z</time></trkpt><trkpt lat="36.9602565" lon="8.9905574"><ele>50.5</ele><time>2026-05-02T13:22:09.665Z</time></trkpt><trkpt lat="36.9602714" lon="8.9906956"><ele>49.75</ele><time>2026-05-02T13:22:10.67Z</time></trkpt><trkpt lat="36.9602876" lon="8.9908374"><ele>49.0</ele><time>2026-05-02T13:22:11.68Z</time></trkpt><trkpt lat="36.9603015" lon="8.9909794"><ele>48.800000000000004</ele><time>2026-05-02T13:22:12.669Z</time></trkpt><trkpt lat="36.9603124" lon="8.9911112"><ele>48.6</ele><time>2026-05-02T13:22:13.673Z</time></trkpt><trkpt lat="36.9603286" lon="8.9912457"><ele>48.4</ele><time>2026-05-02T13:22:14.661Z</time></trkpt><trkpt lat="36.9603457" lon="8.9913828"><ele>48.2</ele><time>2026-05-02T13:22:15.679Z</time></trkpt><trkpt lat="36.9603611" lon="8.991507"><ele>48.0</ele><time>2026-05-02T13:22:16.7Z</time></trkpt><trkpt lat="36.9603725" lon="8.9916295"><ele>47.8</ele><time>2026-05-02T13:22:17.673Z</time></trkpt><trkpt lat="36.9603813" lon="8.9917494"><ele>47.599999999999994</ele><time>2026-05-02T13:22:18.677Z</time></trkpt><trkpt lat="36.9603947" lon="8.9918697"><ele>47.400000000000006</ele><time>2026-05-02T13:22:19.673Z</time></trkpt><trkpt lat="36.9604055" lon="8.991991"><ele>47.2</ele><time>2026-05-02T13:22:20.68Z</time></trkpt><trkpt lat="36.9604189" lon="8.9921095"><ele>47.0</ele><time>2026-05-02T13:22:21.671Z</time></trkpt><trkpt lat="36.9604316" lon="8.992228"><ele>47.0</ele><time>2026-05-02T13:22:22.662Z</time></trkpt><trkpt lat="36.9604407" lon="8.9923495"><ele>47.0</ele><time>2026-05-02T13:22:23.674Z</time></trkpt><trkpt lat="36.9604536" lon="8.9924654"><ele>47.0</ele><time>2026-05-02T13:22:24.669Z</time></trkpt><trkpt lat="36.9604647" lon="8.9925889"><ele>47.0</ele><time>2026-05-02T13:22:25.669Z</time></trkpt><trkpt lat="36.9604753" lon="8.9927107"><ele>47.0</ele><time>2026-05-02T13:22:26.678Z</time></trkpt><trkpt lat="36.9604816" lon="8.9928318"><ele>47.2</ele><time>2026-05-02T13:22:27.673Z</time></trkpt><trkpt lat="36.9604933" lon="8.9929551"><ele>47.400000000000006</ele><time>2026-05-02T13:22:28.646Z</time></trkpt><trkpt lat="36.9605038" lon="8.9930799"><ele>47.599999999999994</ele><time>2026-05-02T13:22:29.669Z</time></trkpt><trkpt lat="36.9605146" lon="8.9932"><ele>47.8</ele><time>2026-05-02T13:22:30.662Z</time></trkpt><trkpt lat="36.9605233" lon="8.993321"><ele>48.0</ele><time>2026-05-02T13:22:31.676Z</time></trkpt><trkpt lat="36.9605351" lon="8.9934419"><ele>48.0</ele><time>2026-05-02T13:22:32.677Z</time></trkpt><trkpt lat="36.9605531" lon="8.9935626"><ele>48.0</ele><time>2026-05-02T13:22:33.666Z</time></trkpt><trkpt lat="36.9605672" lon="8.9936823"><ele>48.0</ele><time>2026-05-02T13:22:34.667Z</time></trkpt><trkpt lat="36.9605848" lon="8.9937989"><ele>48.0</ele><time>2026-05-02T13:22:35.671Z</time></trkpt><trkpt lat="36.9606014" lon="8.9939111"><ele>48.0</ele><time>2026-05-02T13:22:36.666Z</time></trkpt><trkpt lat="36.9606119" lon="8.9940237"><ele>48.0</ele><time>2026-05-02T13:22:37.656Z</time></trkpt><trkpt lat="36.9606249" lon="8.994136"><ele>48.0</ele><time>2026-05-02T13:22:38.653Z</time></trkpt><trkpt lat="36.960635" lon="8.9942474"><ele>48.0</ele><time>2026-05-02T13:22:39.677Z</time></trkpt><trkpt lat="36.9606435" lon="8.9943561"><ele>48.0</ele><time>2026-05-02T13:22:40.662Z</time></trkpt><trkpt lat="36.9606533" lon="8.9944713"><ele>48.0</ele><time>2026-05-02T13:22:41.667Z</time></trkpt><trkpt lat="36.9606613" lon="8.9945915"><ele>47.8</ele><time>2026-05-02T13:22:42.666Z</time></trkpt><trkpt lat="36.960669" lon="8.9947153"><ele>47.599999999999994</ele><time>2026-05-02T13:22:43.663Z</time></trkpt><trkpt lat="36.9606798" lon="8.9948391"><ele>47.400000000000006</ele><time>2026-05-02T13:22:44.671Z</time></trkpt><trkpt lat="36.960689" lon="8.9949712"><ele>47.2</ele><time>2026-05-02T13:22:45.663Z</time></trkpt><trkpt lat="36.9607017" lon="8.9951003"><ele>47.0</ele><time>2026-05-02T13:22:46.681Z</time></trkpt><trkpt lat="36.9607196" lon="8.9952298"><ele>47.400000000000006</ele><time>2026-05-02T13:22:47.679Z</time></trkpt><trkpt lat="36.9607326" lon="8.9953582"><ele>47.800000000000004</ele><time>2026-05-02T13:22:48.671Z</time></trkpt><trkpt lat="36.960748" lon="8.9954841"><ele>48.2</ele><time>2026-05-02T13:22:49.669Z</time></trkpt><trkpt lat="36.9607618" lon="8.9955991"><ele>48.6</ele><time>2026-05-02T13:22:50.668Z</time></trkpt><trkpt lat="36.960776" lon="8.995702"><ele>49.0</ele><time>2026-05-02T13:22:51.666Z</time></trkpt><trkpt lat="36.9607899" lon="8.9957976"><ele>48.400000000000006</ele><time>2026-05-02T13:22:52.674Z</time></trkpt><trkpt lat="36.9607944" lon="8.995904"><ele>47.8</ele><time>2026-05-02T13:22:53.681Z</time></trkpt><trkpt lat="36.9608019" lon="8.9960117"><ele>47.2</ele><time>2026-05-02T13:22:54.692Z</time></trkpt><trkpt lat="36.9608105" lon="8.9961337"><ele>46.599999999999994</ele><time>2026-05-02T13:22:55.674Z</time></trkpt><trkpt lat="36.9608182" lon="8.9962702"><ele>46.0</ele><time>2026-05-02T13:22:56.674Z</time></trkpt><trkpt lat="36.9608283" lon="8.9964108"><ele>46.0</ele><time>2026-05-02T13:22:57.683Z</time></trkpt><trkpt lat="36.9608391" lon="8.9965476"><ele>46.0</ele><time>2026-05-02T13:22:58.672Z</time></trkpt><trkpt lat="36.9608525" lon="8.9966769"><ele>46.0</ele><time>2026-05-02T13:22:59.672Z</time></trkpt><trkpt lat="36.9608594" lon="8.996814"><ele>46.0</ele><time>2026-05-02T13:23:00.678Z</time></trkpt><trkpt lat="36.9608704" lon="8.9969462"><ele>46.0</ele><time>2026-05-02T13:23:01.661Z</time></trkpt><trkpt lat="36.9608813" lon="8.9970837"><ele>45.599999999999994</ele><time>2026-05-02T13:23:02.686Z</time></trkpt><trkpt lat="36.9608976" lon="8.997216"><ele>45.2</ele><time>2026-05-02T13:23:03.672Z</time></trkpt><trkpt lat="36.9609119" lon="8.997347"><ele>44.8</ele><time>2026-05-02T13:23:04.683Z</time></trkpt><trkpt lat="36.9609246" lon="8.997483"><ele>44.400000000000006</ele><time>2026-05-02T13:23:05.678Z</time></trkpt><trkpt lat="36.9609376" lon="8.9976189"><ele>44.0</ele><time>2026-05-02T13:23:06.679Z</time></trkpt><trkpt lat="36.960949" lon="8.9977587"><ele>43.800000000000004</ele><time>2026-05-02T13:23:07.68Z</time></trkpt><trkpt lat="36.9609615" lon="8.9978952"><ele>43.6</ele><time>2026-05-02T13:23:08.668Z</time></trkpt><trkpt lat="36.9609743" lon="8.9980292"><ele>43.4</ele><time>2026-05-02T13:23:09.669Z</time></trkpt><trkpt lat="36.9609879" lon="8.9981581"><ele>43.2</ele><time>2026-05-02T13:23:10.677Z</time></trkpt><trkpt lat="36.9610034" lon="8.9982891"><ele>43.0</ele><time>2026-05-02T13:23:11.673Z</time></trkpt><trkpt lat="36.9610168" lon="8.9984164"><ele>43.0</ele><time>2026-05-02T13:23:12.67Z</time></trkpt><trkpt lat="36.9610307" lon="8.9985395"><ele>43.0</ele><time>2026-05-02T13:23:13.645Z</time></trkpt><trkpt lat="36.961045" lon="8.9986556"><ele>43.0</ele><time>2026-05-02T13:23:14.67Z</time></trkpt><trkpt lat="36.9610574" lon="8.9987685"><ele>43.0</ele><time>2026-05-02T13:23:15.672Z</time></trkpt><trkpt lat="36.9610694" lon="8.99889"><ele>43.0</ele><time>2026-05-02T13:23:16.675Z</time></trkpt><trkpt lat="36.9610821" lon="8.9990034"><ele>43.0</ele><time>2026-05-02T13:23:17.667Z</time></trkpt><trkpt lat="36.9610937" lon="8.9991169"><ele>43.0</ele><time>2026-05-02T13:23:18.661Z</time></trkpt><trkpt lat="36.9611008" lon="8.9992334"><ele>43.0</ele><time>2026-05-02T13:23:19.678Z</time></trkpt><trkpt lat="36.9611069" lon="8.999345"><ele>43.0</ele><time>2026-05-02T13:23:20.662Z</time></trkpt><trkpt lat="36.9611166" lon="8.9994599"><ele>43.0</ele><time>2026-05-02T13:23:21.673Z</time></trkpt><trkpt lat="36.9611239" lon="8.9995727"><ele>43.0</ele><time>2026-05-02T13:23:22.669Z</time></trkpt><trkpt lat="36.961131" lon="8.999682"><ele>43.0</ele><time>2026-05-02T13:23:23.676Z</time></trkpt><trkpt lat="36.9611452" lon="8.9997948"><ele>43.0</ele><time>2026-05-02T13:23:24.673Z</time></trkpt><trkpt lat="36.961155" lon="8.9999117"><ele>43.0</ele><time>2026-05-02T13:23:25.678Z</time></trkpt><trkpt lat="36.9611638" lon="9.0000237"><ele>43.0</ele><time>2026-05-02T13:23:26.666Z</time></trkpt><trkpt lat="36.9611741" lon="9.0001323"><ele>43.0</ele><time>2026-05-02T13:23:27.674Z</time></trkpt><trkpt lat="36.9611866" lon="9.0002425"><ele>43.0</ele><time>2026-05-02T13:23:28.668Z</time></trkpt><trkpt lat="36.9612007" lon="9.0003497"><ele>43.0</ele><time>2026-05-02T13:23:29.678Z</time></trkpt><trkpt lat="36.9612126" lon="9.0004479"><ele>43.0</ele><time>2026-05-02T13:23:30.672Z</time></trkpt><trkpt lat="36.9612172" lon="9.0005455"><ele>43.0</ele><time>2026-05-02T13:23:31.663Z</time></trkpt><trkpt lat="36.9612251" lon="9.0006407"><ele>43.0</ele><time>2026-05-02T13:23:32.672Z</time></trkpt><trkpt lat="36.9612368" lon="9.0007348"><ele>43.0</ele><time>2026-05-02T13:23:33.678Z</time></trkpt><trkpt lat="36.9612427" lon="9.0008351"><ele>43.0</ele><time>2026-05-02T13:23:34.678Z</time></trkpt><trkpt lat="36.9612529" lon="9.0009362"><ele>43.0</ele><time>2026-05-02T13:23:35.678Z</time></trkpt><trkpt lat="36.9612593" lon="9.0010294"><ele>43.0</ele><time>2026-05-02T13:23:36.675Z</time></trkpt><trkpt lat="36.9612729" lon="9.0011322"><ele>43.0</ele><time>2026-05-02T13:23:37.664Z</time></trkpt><trkpt lat="36.9612827" lon="9.0012226"><ele>43.0</ele><time>2026-05-02T13:23:38.672Z</time></trkpt><trkpt lat="36.9612945" lon="9.0013122"><ele>43.00000000000001</ele><time>2026-05-02T13:23:39.672Z</time></trkpt><trkpt lat="36.9613037" lon="9.001399"><ele>43.0</ele><time>2026-05-02T13:23:40.674Z</time></trkpt><trkpt lat="36.9613107" lon="9.0014952"><ele>43.0</ele><time>2026-05-02T13:23:41.683Z</time></trkpt><trkpt lat="36.9613255" lon="9.0015852"><ele>43.0</ele><time>2026-05-02T13:23:42.674Z</time></trkpt><trkpt lat="36.9613384" lon="9.0016794"><ele>43.0</ele><time>2026-05-02T13:23:43.668Z</time></trkpt><trkpt lat="36.9613492" lon="9.0017693"><ele>43.00000000000001</ele><time>2026-05-02T13:23:44.667Z</time></trkpt><trkpt lat="36.9613588" lon="9.0018605"><ele>43.0</ele><time>2026-05-02T13:23:45.667Z</time></trkpt><trkpt lat="36.9613644" lon="9.0019589"><ele>42.28571428571429</ele><time>2026-05-02T13:23:46.674Z</time></trkpt><trkpt lat="36.9613703" lon="9.0020517"><ele>41.57142857142857</ele><time>2026-05-02T13:23:47.663Z</time></trkpt><trkpt lat="36.9613768" lon="9.0021424"><ele>40.85714285714286</ele><time>2026-05-02T13:23:48.667Z</time></trkpt><trkpt lat="36.9613808" lon="9.0022315"><ele>40.142857142857146</ele><time>2026-05-02T13:23:49.686Z</time></trkpt><trkpt lat="36.9613872" lon="9.0023127"><ele>39.42857142857143</ele><time>2026-05-02T13:23:50.677Z</time></trkpt><trkpt lat="36.9613943" lon="9.0023992"><ele>38.714285714285715</ele><time>2026-05-02T13:23:51.682Z</time></trkpt><trkpt lat="36.961404" lon="9.002485"><ele>38.0</ele><time>2026-05-02T13:23:52.672Z</time></trkpt><trkpt lat="36.9614113" lon="9.0025711"><ele>37.6</ele><time>2026-05-02T13:23:53.684Z</time></trkpt><trkpt lat="36.9614181" lon="9.0026525"><ele>37.199999999999996</ele><time>2026-05-02T13:23:54.683Z</time></trkpt><trkpt lat="36.9614313" lon="9.0027326"><ele>36.8</ele><time>2026-05-02T13:23:55.694Z</time></trkpt><trkpt lat="36.9614542" lon="9.0028831"><ele>36.4</ele><time>2026-05-02T13:23:57.671Z</time></trkpt><trkpt lat="36.9614676" lon="9.0030089"><ele>36.0</ele><time>2026-05-02T13:23:59.701Z</time></trkpt><trkpt lat="36.9614646" lon="9.003138"><ele>36.0</ele><time>2026-05-02T13:24:01.687Z</time></trkpt><trkpt lat="36.9614737" lon="9.0032661"><ele>36.0</ele><time>2026-05-02T13:24:03.692Z</time></trkpt><trkpt lat="36.9614931" lon="9.0034124"><ele>36.0</ele><time>2026-05-02T13:24:05.679Z</time></trkpt><trkpt lat="36.9615107" lon="9.0035531"><ele>36.0</ele><time>2026-05-02T13:24:07.669Z</time></trkpt><trkpt lat="36.961524" lon="9.0036889"><ele>36.0</ele><time>2026-05-02T13:24:09.682Z</time></trkpt><trkpt lat="36.9615406" lon="9.0038199"><ele>36.2</ele><time>2026-05-02T13:24:11.678Z</time></trkpt><trkpt lat="36.9615607" lon="9.00395"><ele>36.400000000000006</ele><time>2026-05-02T13:24:13.675Z</time></trkpt><trkpt lat="36.9615709" lon="9.0040777"><ele>36.6</ele><time>2026-05-02T13:24:15.668Z</time></trkpt><trkpt lat="36.961586" lon="9.0042146"><ele>36.800000000000004</ele><time>2026-05-02T13:24:17.663Z</time></trkpt><trkpt lat="36.9616013" lon="9.004342"><ele>37.0</ele><time>2026-05-02T13:24:19.679Z</time></trkpt><trkpt lat="36.9616159" lon="9.0044776"><ele>37.0</ele><time>2026-05-02T13:24:21.67Z</time></trkpt><trkpt lat="36.961636" lon="9.0046111"><ele>37.0</ele><time>2026-05-02T13:24:23.69Z</time></trkpt><trkpt lat="36.9616413" lon="9.004749"><ele>37.0</ele><time>2026-05-02T13:24:25.677Z</time></trkpt><trkpt lat="36.9616488" lon="9.0048866"><ele>37.0</ele><time>2026-05-02T13:24:27.671Z</time></trkpt><trkpt lat="36.9616646" lon="9.0050174"><ele>37.0</ele><time>2026-05-02T13:24:29.68Z</time></trkpt><trkpt lat="36.9616681" lon="9.0051434"><ele>36.6</ele><time>2026-05-02T13:24:31.673Z</time></trkpt><trkpt lat="36.9616764" lon="9.0052719"><ele>36.2</ele><time>2026-05-02T13:24:33.669Z</time></trkpt><trkpt lat="36.9616897" lon="9.0053989"><ele>35.8</ele><time>2026-05-02T13:24:35.669Z</time></trkpt><trkpt lat="36.9617077" lon="9.0055223"><ele>35.4</ele><time>2026-05-02T13:24:37.668Z</time></trkpt><trkpt lat="36.9617225" lon="9.0056368"><ele>35.0</ele><time>2026-05-02T13:24:39.689Z</time></trkpt><trkpt lat="36.9617372" lon="9.0057726"><ele>34.5</ele><time>2026-05-02T13:24:41.674Z</time></trkpt><trkpt lat="36.9617512" lon="9.0059232"><ele>34.0</ele><time>2026-05-02T13:24:43.659Z</time></trkpt><trkpt lat="36.9617583" lon="9.0060053"><ele>33.5</ele><time>2026-05-02T13:24:44.694Z</time></trkpt><trkpt lat="36.9617678" lon="9.0060922"><ele>33.0</ele><time>2026-05-02T13:24:45.647Z</time></trkpt><trkpt lat="36.9617771" lon="9.0061754"><ele>32.5</ele><time>2026-05-02T13:24:46.66Z</time></trkpt><trkpt lat="36.9618038" lon="9.0063271"><ele>32.0</ele><time>2026-05-02T13:24:48.674Z</time></trkpt><trkpt lat="36.9618224" lon="9.0064043"><ele>32.0</ele><time>2026-05-02T13:24:49.679Z</time></trkpt><trkpt lat="36.9618425" lon="9.0064818"><ele>31.999999999999996</ele><time>2026-05-02T13:24:50.66Z</time></trkpt><trkpt lat="36.9618652" lon="9.0065568"><ele>32.0</ele><time>2026-05-02T13:24:51.667Z</time></trkpt><trkpt lat="36.9618832" lon="9.0066323"><ele>32.0</ele><time>2026-05-02T13:24:52.669Z</time></trkpt><trkpt lat="36.9619199" lon="9.0067824"><ele>31.999999999999996</ele><time>2026-05-02T13:24:54.679Z</time></trkpt><trkpt lat="36.9619424" lon="9.0068565"><ele>32.0</ele><time>2026-05-02T13:24:55.663Z</time></trkpt><trkpt lat="36.9619665" lon="9.0069345"><ele>32.0</ele><time>2026-05-02T13:24:56.671Z</time></trkpt><trkpt lat="36.9619933" lon="9.0070131"><ele>31.8</ele><time>2026-05-02T13:24:57.672Z</time></trkpt><trkpt lat="36.9620473" lon="9.0071509"><ele>31.6</ele><time>2026-05-02T13:24:59.667Z</time></trkpt><trkpt lat="36.9620796" lon="9.0072242"><ele>31.400000000000002</ele><time>2026-05-02T13:25:00.681Z</time></trkpt><trkpt lat="36.9621235" lon="9.0073028"><ele>31.200000000000003</ele><time>2026-05-02T13:25:01.671Z</time></trkpt><trkpt lat="36.9621771" lon="9.0073936"><ele>31.0</ele><time>2026-05-02T13:25:02.673Z</time></trkpt><trkpt lat="36.9622382" lon="9.007491"><ele>31.0</ele><time>2026-05-02T13:25:03.67Z</time></trkpt><trkpt lat="36.9623007" lon="9.0075864"><ele>31.0</ele><time>2026-05-02T13:25:04.662Z</time></trkpt><trkpt lat="36.9623729" lon="9.0076884"><ele>31.0</ele><time>2026-05-02T13:25:05.671Z</time></trkpt><trkpt lat="36.9624507" lon="9.0077949"><ele>31.0</ele><time>2026-05-02T13:25:06.664Z</time></trkpt><trkpt lat="36.9625303" lon="9.0079023"><ele>31.0</ele><time>2026-05-02T13:25:07.681Z</time></trkpt><trkpt lat="36.9626096" lon="9.0080168"><ele>31.0</ele><time>2026-05-02T13:25:08.672Z</time></trkpt><trkpt lat="36.9626899" lon="9.0081278"><ele>31.0</ele><time>2026-05-02T13:25:09.669Z</time></trkpt><trkpt lat="36.9627762" lon="9.0082437"><ele>31.0</ele><time>2026-05-02T13:25:10.664Z</time></trkpt><trkpt lat="36.9628647" lon="9.0083618"><ele>31.0</ele><time>2026-05-02T13:25:11.648Z</time></trkpt><trkpt lat="36.9629472" lon="9.0084768"><ele>30.25</ele><time>2026-05-02T13:25:12.659Z</time></trkpt><trkpt lat="36.9630265" lon="9.0085872"><ele>29.5</ele><time>2026-05-02T13:25:13.676Z</time></trkpt><trkpt lat="36.963109" lon="9.0086974"><ele>28.75</ele><time>2026-05-02T13:25:14.658Z</time></trkpt><trkpt lat="36.9631858" lon="9.0088069"><ele>28.0</ele><time>2026-05-02T13:25:15.662Z</time></trkpt><trkpt lat="36.963267" lon="9.0089177"><ele>28.0</ele><time>2026-05-02T13:25:16.668Z</time></trkpt><trkpt lat="36.9633453" lon="9.0090413"><ele>28.0</ele><time>2026-05-02T13:25:17.675Z</time></trkpt><trkpt lat="36.9634241" lon="9.0091829"><ele>28.0</ele><time>2026-05-02T13:25:18.663Z</time></trkpt><trkpt lat="36.9635065" lon="9.0093236"><ele>28.0</ele><time>2026-05-02T13:25:19.66Z</time></trkpt><trkpt lat="36.9635859" lon="9.0094714"><ele>27.666666666666668</ele><time>2026-05-02T13:25:20.664Z</time></trkpt><trkpt lat="36.9636635" lon="9.0096292"><ele>27.333333333333336</ele><time>2026-05-02T13:25:21.654Z</time></trkpt><trkpt lat="36.9637388" lon="9.0098077"><ele>27.0</ele><time>2026-05-02T13:25:22.663Z</time></trkpt><trkpt lat="36.9638053" lon="9.0100003"><ele>27.0</ele><time>2026-05-02T13:25:23.674Z</time></trkpt><trkpt lat="36.9638699" lon="9.010217"><ele>27.0</ele><time>2026-05-02T13:25:24.676Z</time></trkpt><trkpt lat="36.9639278" lon="9.0104484"><ele>27.0</ele><time>2026-05-02T13:25:25.67Z</time></trkpt><trkpt lat="36.9639782" lon="9.0107068"><ele>27.0</ele><time>2026-05-02T13:25:26.667Z</time></trkpt><trkpt lat="36.9640251" lon="9.0110052"><ele>27.0</ele><time>2026-05-02T13:25:27.666Z</time></trkpt><trkpt lat="36.9640649" lon="9.0113475"><ele>26.0</ele><time>2026-05-02T13:25:28.662Z</time></trkpt><trkpt lat="36.9640968" lon="9.0117071"><ele>25.0</ele><time>2026-05-02T13:25:29.667Z</time></trkpt><trkpt lat="36.9641148" lon="9.0120554"><ele>25.0</ele><time>2026-05-02T13:25:30.664Z</time></trkpt><trkpt lat="36.9641223" lon="9.0123711"><ele>25.0</ele><time>2026-05-02T13:25:31.678Z</time></trkpt><trkpt lat="36.9641318" lon="9.0126706"><ele>25.0</ele><time>2026-05-02T13:25:32.676Z</time></trkpt><trkpt lat="36.9641358" lon="9.0129513"><ele>25.0</ele><time>2026-05-02T13:25:33.672Z</time></trkpt><trkpt lat="36.9641538" lon="9.0131982"><ele>25.0</ele><time>2026-05-02T13:25:34.669Z</time></trkpt><trkpt lat="36.9641666" lon="9.0134275"><ele>24.333333333333336</ele><time>2026-05-02T13:25:35.677Z</time></trkpt><trkpt lat="36.9641782" lon="9.0136377"><ele>23.666666666666668</ele><time>2026-05-02T13:25:36.654Z</time></trkpt><trkpt lat="36.9641853" lon="9.0138427"><ele>23.0</ele><time>2026-05-02T13:25:37.688Z</time></trkpt><trkpt lat="36.9641906" lon="9.0140402"><ele>24.0</ele><time>2026-05-02T13:25:38.679Z</time></trkpt><trkpt lat="36.9641982" lon="9.014237"><ele>25.0</ele><time>2026-05-02T13:25:39.673Z</time></trkpt><trkpt lat="36.964205" lon="9.0144199"><ele>26.0</ele><time>2026-05-02T13:25:40.672Z</time></trkpt><trkpt lat="36.9642133" lon="9.0145883"><ele>27.0</ele><time>2026-05-02T13:25:41.676Z</time></trkpt><trkpt lat="36.9642202" lon="9.0147422"><ele>27.0</ele><time>2026-05-02T13:25:42.677Z</time></trkpt><trkpt lat="36.9642297" lon="9.0148851"><ele>27.000000000000004</ele><time>2026-05-02T13:25:43.666Z</time></trkpt><trkpt lat="36.9642362" lon="9.0150154"><ele>27.000000000000004</ele><time>2026-05-02T13:25:44.681Z</time></trkpt><trkpt lat="36.9642385" lon="9.0151416"><ele>27.0</ele><time>2026-05-02T13:25:45.669Z</time></trkpt><trkpt lat="36.9642417" lon="9.015249"><ele>27.0</ele><time>2026-05-02T13:25:46.666Z</time></trkpt><trkpt lat="36.9642437" lon="9.0153502"><ele>26.166666666666668</ele><time>2026-05-02T13:25:47.687Z</time></trkpt><trkpt lat="36.9642473" lon="9.0154495"><ele>25.333333333333332</ele><time>2026-05-02T13:25:48.669Z</time></trkpt><trkpt lat="36.9642547" lon="9.0155543"><ele>24.5</ele><time>2026-05-02T13:25:49.671Z</time></trkpt><trkpt lat="36.9642644" lon="9.0156648"><ele>23.666666666666664</ele><time>2026-05-02T13:25:50.661Z</time></trkpt><trkpt lat="36.9642726" lon="9.0157645"><ele>22.833333333333332</ele><time>2026-05-02T13:25:51.67Z</time></trkpt><trkpt lat="36.9642813" lon="9.0158642"><ele>22.0</ele><time>2026-05-02T13:25:52.666Z</time></trkpt><trkpt lat="36.9642901" lon="9.0159597"><ele>21.857142857142858</ele><time>2026-05-02T13:25:53.675Z</time></trkpt><trkpt lat="36.9642947" lon="9.016057"><ele>21.714285714285715</ele><time>2026-05-02T13:25:54.685Z</time></trkpt><trkpt lat="36.9642955" lon="9.0161458"><ele>21.57142857142857</ele><time>2026-05-02T13:25:55.666Z</time></trkpt><trkpt lat="36.9642934" lon="9.0162263"><ele>21.42857142857143</ele><time>2026-05-02T13:25:56.672Z</time></trkpt><trkpt lat="36.9642985" lon="9.0163121"><ele>21.285714285714285</ele><time>2026-05-02T13:25:57.665Z</time></trkpt><trkpt lat="36.9643052" lon="9.0164094"><ele>21.142857142857142</ele><time>2026-05-02T13:25:58.673Z</time></trkpt><trkpt lat="36.9643082" lon="9.0165074"><ele>21.0</ele><time>2026-05-02T13:25:59.712Z</time></trkpt><trkpt lat="36.9643114" lon="9.01661"><ele>24.0</ele><time>2026-05-02T13:26:00.674Z</time></trkpt><trkpt lat="36.9643157" lon="9.016708"><ele>27.0</ele><time>2026-05-02T13:26:01.667Z</time></trkpt><trkpt lat="36.9643209" lon="9.016798"><ele>30.0</ele><time>2026-05-02T13:26:02.652Z</time></trkpt><trkpt lat="36.9643217" lon="9.0168917"><ele>33.0</ele><time>2026-05-02T13:26:03.66Z</time></trkpt><trkpt lat="36.9643278" lon="9.0169995"><ele>36.0</ele><time>2026-05-02T13:26:04.675Z</time></trkpt><trkpt lat="36.9643303" lon="9.0171084"><ele>39.0</ele><time>2026-05-02T13:26:05.656Z</time></trkpt><trkpt lat="36.9643356" lon="9.0172273"><ele>39.0</ele><time>2026-05-02T13:26:06.687Z</time></trkpt><trkpt lat="36.9643383" lon="9.0173555"><ele>39.0</ele><time>2026-05-02T13:26:07.679Z</time></trkpt><trkpt lat="36.9643428" lon="9.0174958"><ele>39.0</ele><time>2026-05-02T13:26:08.669Z</time></trkpt><trkpt lat="36.964349" lon="9.0176593"><ele>39.0</ele><time>2026-05-02T13:26:09.671Z</time></trkpt><trkpt lat="36.9643582" lon="9.0178429"><ele>39.666666666666664</ele><time>2026-05-02T13:26:10.668Z</time></trkpt><trkpt lat="36.9643595" lon="9.0180341"><ele>40.33333333333333</ele><time>2026-05-02T13:26:11.673Z</time></trkpt><trkpt lat="36.9643634" lon="9.0182617"><ele>41.0</ele><time>2026-05-02T13:26:12.668Z</time></trkpt><trkpt lat="36.9643773" lon="9.0185531"><ele>41.0</ele><time>2026-05-02T13:26:13.669Z</time></trkpt><trkpt lat="36.9643912" lon="9.0188786"><ele>41.0</ele><time>2026-05-02T13:26:14.676Z</time></trkpt><trkpt lat="36.9644081" lon="9.0192091"><ele>37.5</ele><time>2026-05-02T13:26:15.674Z</time></trkpt><trkpt lat="36.9644219" lon="9.0195277"><ele>34.0</ele><time>2026-05-02T13:26:16.659Z</time></trkpt><trkpt lat="36.9644339" lon="9.0198207"><ele>33.66666666666667</ele><time>2026-05-02T13:26:17.658Z</time></trkpt><trkpt lat="36.9644454" lon="9.0200937"><ele>33.333333333333336</ele><time>2026-05-02T13:26:18.672Z</time></trkpt><trkpt lat="36.9644524" lon="9.0203567"><ele>33.0</ele><time>2026-05-02T13:26:19.671Z</time></trkpt><trkpt lat="36.964452" lon="9.0206037"><ele>34.333333333333336</ele><time>2026-05-02T13:26:20.668Z</time></trkpt><trkpt lat="36.9644329" lon="9.0208494"><ele>35.66666666666667</ele><time>2026-05-02T13:26:21.669Z</time></trkpt><trkpt lat="36.9643944" lon="9.0211101"><ele>37.0</ele><time>2026-05-02T13:26:22.672Z</time></trkpt><trkpt lat="36.9643318" lon="9.0213711"><ele>37.0</ele><time>2026-05-02T13:26:23.68Z</time></trkpt><trkpt lat="36.9642507" lon="9.0216251"><ele>37.0</ele><time>2026-05-02T13:26:24.67Z</time></trkpt><trkpt lat="36.9641502" lon="9.0218594"><ele>37.0</ele><time>2026-05-02T13:26:25.667Z</time></trkpt><trkpt lat="36.9640279" lon="9.022099"><ele>36.0</ele><time>2026-05-02T13:26:26.669Z</time></trkpt><trkpt lat="36.9638818" lon="9.0223236"><ele>35.0</ele><time>2026-05-02T13:26:27.675Z</time></trkpt><trkpt lat="36.9637307" lon="9.0225402"><ele>35.0</ele><time>2026-05-02T13:26:28.672Z</time></trkpt><trkpt lat="36.9635762" lon="9.0227511"><ele>35.0</ele><time>2026-05-02T13:26:29.66Z</time></trkpt><trkpt lat="36.9634307" lon="9.0229414"><ele>35.0</ele><time>2026-05-02T13:26:30.659Z</time></trkpt><trkpt lat="36.9632968" lon="9.0231194"><ele>35.0</ele><time>2026-05-02T13:26:31.679Z</time></trkpt><trkpt lat="36.9631716" lon="9.0232815"><ele>35.0</ele><time>2026-05-02T13:26:32.671Z</time></trkpt><trkpt lat="36.9630676" lon="9.0234216"><ele>35.0</ele><time>2026-05-02T13:26:33.679Z</time></trkpt><trkpt lat="36.9629917" lon="9.023554"><ele>35.0</ele><time>2026-05-02T13:26:34.665Z</time></trkpt><trkpt lat="36.9629384" lon="9.0236944"><ele>35.0</ele><time>2026-05-02T13:26:35.672Z</time></trkpt><trkpt lat="36.962906" lon="9.0238388"><ele>35.0</ele><time>2026-05-02T13:26:36.679Z</time></trkpt><trkpt lat="36.962869" lon="9.0239914"><ele>35.0</ele><time>2026-05-02T13:26:37.674Z</time></trkpt><trkpt lat="36.9628407" lon="9.0241511"><ele>37.5</ele><time>2026-05-02T13:26:38.676Z</time></trkpt><trkpt lat="36.9628192" lon="9.0243108"><ele>40.0</ele><time>2026-05-02T13:26:39.666Z</time></trkpt><trkpt lat="36.9627891" lon="9.0244765"><ele>42.5</ele><time>2026-05-02T13:26:40.665Z</time></trkpt><trkpt lat="36.9627534" lon="9.0246388"><ele>45.0</ele><time>2026-05-02T13:26:41.664Z</time></trkpt><trkpt lat="36.9626957" lon="9.0247927"><ele>45.0</ele><time>2026-05-02T13:26:42.676Z</time></trkpt><trkpt lat="36.9626394" lon="9.0249428"><ele>45.0</ele><time>2026-05-02T13:26:43.686Z</time></trkpt><trkpt lat="36.9625723" lon="9.0250818"><ele>45.0</ele><time>2026-05-02T13:26:44.666Z</time></trkpt><trkpt lat="36.9625065" lon="9.0252232"><ele>45.0</ele><time>2026-05-02T13:26:45.681Z</time></trkpt><trkpt lat="36.9624533" lon="9.0253624"><ele>44.0</ele><time>2026-05-02T13:26:46.668Z</time></trkpt><trkpt lat="36.9624039" lon="9.025515"><ele>43.0</ele><time>2026-05-02T13:26:47.661Z</time></trkpt><trkpt lat="36.9623591" lon="9.0256751"><ele>42.0</ele><time>2026-05-02T13:26:48.691Z</time></trkpt><trkpt lat="36.9623187" lon="9.0258317"><ele>41.0</ele><time>2026-05-02T13:26:49.667Z</time></trkpt><trkpt lat="36.9622842" lon="9.0259907"><ele>43.5</ele><time>2026-05-02T13:26:50.677Z</time></trkpt><trkpt lat="36.9622497" lon="9.0261506"><ele>46.0</ele><time>2026-05-02T13:26:51.669Z</time></trkpt><trkpt lat="36.9622101" lon="9.0263113"><ele>48.5</ele><time>2026-05-02T13:26:52.679Z</time></trkpt><trkpt lat="36.9621606" lon="9.0264689"><ele>51.0</ele><time>2026-05-02T13:26:53.679Z</time></trkpt><trkpt lat="36.9621071" lon="9.0266208"><ele>52.5</ele><time>2026-05-02T13:26:54.683Z</time></trkpt><trkpt lat="36.9620577" lon="9.0267732"><ele>54.0</ele><time>2026-05-02T13:26:55.747Z</time></trkpt><trkpt lat="36.9620202" lon="9.026929"><ele>55.5</ele><time>2026-05-02T13:26:56.656Z</time></trkpt><trkpt lat="36.9619876" lon="9.0270829"><ele>57.0</ele><time>2026-05-02T13:26:57.671Z</time></trkpt><trkpt lat="36.9619735" lon="9.0272326"><ele>57.0</ele><time>2026-05-02T13:26:58.675Z</time></trkpt><trkpt lat="36.9619642" lon="9.0273852"><ele>57.0</ele><time>2026-05-02T13:26:59.685Z</time></trkpt><trkpt lat="36.9619619" lon="9.0275442"><ele>57.0</ele><time>2026-05-02T13:27:00.659Z</time></trkpt><trkpt lat="36.9619636" lon="9.0277048"><ele>57.0</ele><time>2026-05-02T13:27:01.654Z</time></trkpt><trkpt lat="36.9619669" lon="9.0278703"><ele>57.0</ele><time>2026-05-02T13:27:02.67Z</time></trkpt><trkpt lat="36.9619701" lon="9.0280411"><ele>57.0</ele><time>2026-05-02T13:27:03.677Z</time></trkpt><trkpt lat="36.9619759" lon="9.0282077"><ele>57.0</ele><time>2026-05-02T13:27:04.668Z</time></trkpt><trkpt lat="36.9620004" lon="9.0283742"><ele>57.0</ele><time>2026-05-02T13:27:05.671Z</time></trkpt><trkpt lat="36.9620411" lon="9.0285343"><ele>56.5</ele><time>2026-05-02T13:27:06.692Z</time></trkpt><trkpt lat="36.9620976" lon="9.0286902"><ele>56.0</ele><time>2026-05-02T13:27:07.68Z</time></trkpt><trkpt lat="36.9621733" lon="9.0288424"><ele>55.5</ele><time>2026-05-02T13:27:08.674Z</time></trkpt><trkpt lat="36.9622528" lon="9.028988"><ele>55.0</ele><time>2026-05-02T13:27:09.654Z</time></trkpt><trkpt lat="36.9623308" lon="9.029134"><ele>54.75</ele><time>2026-05-02T13:27:10.687Z</time></trkpt><trkpt lat="36.9624003" lon="9.0292791"><ele>54.5</ele><time>2026-05-02T13:27:11.674Z</time></trkpt><trkpt lat="36.9624685" lon="9.0294345"><ele>54.25</ele><time>2026-05-02T13:27:12.674Z</time></trkpt><trkpt lat="36.9625395" lon="9.0295999"><ele>54.0</ele><time>2026-05-02T13:27:13.673Z</time></trkpt><trkpt lat="36.9626091" lon="9.0297716"><ele>52.33333333333333</ele><time>2026-05-02T13:27:14.671Z</time></trkpt><trkpt lat="36.9626724" lon="9.02995"><ele>50.666666666666664</ele><time>2026-05-02T13:27:15.683Z</time></trkpt><trkpt lat="36.9627372" lon="9.0301335"><ele>49.0</ele><time>2026-05-02T13:27:16.716Z</time></trkpt><trkpt lat="36.9628" lon="9.0303172"><ele>48.0</ele><time>2026-05-02T13:27:17.658Z</time></trkpt><trkpt lat="36.962867" lon="9.0305031"><ele>47.0</ele><time>2026-05-02T13:27:18.67Z</time></trkpt><trkpt lat="36.9629418" lon="9.0306782"><ele>46.0</ele><time>2026-05-02T13:27:19.656Z</time></trkpt><trkpt lat="36.9630197" lon="9.0308367"><ele>45.75</ele><time>2026-05-02T13:27:20.665Z</time></trkpt><trkpt lat="36.9631013" lon="9.0309856"><ele>45.5</ele><time>2026-05-02T13:27:21.689Z</time></trkpt><trkpt lat="36.9631898" lon="9.0311267"><ele>45.25</ele><time>2026-05-02T13:27:22.672Z</time></trkpt><trkpt lat="36.9632812" lon="9.0312578"><ele>45.0</ele><time>2026-05-02T13:27:23.673Z</time></trkpt><trkpt lat="36.9633723" lon="9.0313796"><ele>45.0</ele><time>2026-05-02T13:27:24.66Z</time></trkpt><trkpt lat="36.9634632" lon="9.0315001"><ele>45.0</ele><time>2026-05-02T13:27:25.691Z</time></trkpt><trkpt lat="36.9635478" lon="9.0316212"><ele>45.0</ele><time>2026-05-02T13:27:26.658Z</time></trkpt><trkpt lat="36.9636311" lon="9.0317552"><ele>45.0</ele><time>2026-05-02T13:27:27.673Z</time></trkpt><trkpt lat="36.9637112" lon="9.0319034"><ele>48.66666666666667</ele><time>2026-05-02T13:27:28.675Z</time></trkpt><trkpt lat="36.9637846" lon="9.0320674"><ele>52.333333333333336</ele><time>2026-05-02T13:27:29.663Z</time></trkpt><trkpt lat="36.9638509" lon="9.0322412"><ele>56.0</ele><time>2026-05-02T13:27:30.673Z</time></trkpt><trkpt lat="36.9639243" lon="9.0324306"><ele>56.0</ele><time>2026-05-02T13:27:31.664Z</time></trkpt><trkpt lat="36.9640197" lon="9.0326258"><ele>56.0</ele><time>2026-05-02T13:27:32.698Z</time></trkpt><trkpt lat="36.9641272" lon="9.0328217"><ele>56.0</ele><time>2026-05-02T13:27:33.691Z</time></trkpt><trkpt lat="36.9642377" lon="9.0330054"><ele>56.0</ele><time>2026-05-02T13:27:34.684Z</time></trkpt><trkpt lat="36.9643411" lon="9.0331711"><ele>56.0</ele><time>2026-05-02T13:27:35.693Z</time></trkpt><trkpt lat="36.964452" lon="9.0333307"><ele>56.0</ele><time>2026-05-02T13:27:36.673Z</time></trkpt><trkpt lat="36.964569" lon="9.0334904"><ele>57.5</ele><time>2026-05-02T13:27:37.672Z</time></trkpt><trkpt lat="36.9646791" lon="9.0336587"><ele>59.0</ele><time>2026-05-02T13:27:38.683Z</time></trkpt><trkpt lat="36.9647649" lon="9.0338072"><ele>60.5</ele><time>2026-05-02T13:27:39.686Z</time></trkpt><trkpt lat="36.9648288" lon="9.0339281"><ele>62.0</ele><time>2026-05-02T13:27:40.688Z</time></trkpt><trkpt lat="36.9649021" lon="9.0340447"><ele>62.75</ele><time>2026-05-02T13:27:41.68Z</time></trkpt><trkpt lat="36.9649814" lon="9.034169"><ele>63.5</ele><time>2026-05-02T13:27:42.667Z</time></trkpt><trkpt lat="36.965067" lon="9.0342935"><ele>64.25</ele><time>2026-05-02T13:27:43.678Z</time></trkpt><trkpt lat="36.965154" lon="9.0344179"><ele>65.0</ele><time>2026-05-02T13:27:44.67Z</time></trkpt><trkpt lat="36.9652364" lon="9.0345355"><ele>65.0</ele><time>2026-05-02T13:27:45.688Z</time></trkpt><trkpt lat="36.965305" lon="9.034642"><ele>65.0</ele><time>2026-05-02T13:27:46.688Z</time></trkpt><trkpt lat="36.9653701" lon="9.0347337"><ele>65.0</ele><time>2026-05-02T13:27:47.683Z</time></trkpt><trkpt lat="36.9654354" lon="9.0348311"><ele>65.0</ele><time>2026-05-02T13:27:48.67Z</time></trkpt><trkpt lat="36.9655083" lon="9.0349361"><ele>65.0</ele><time>2026-05-02T13:27:49.673Z</time></trkpt><trkpt lat="36.9655987" lon="9.0350272"><ele>67.75</ele><time>2026-05-02T13:27:50.676Z</time></trkpt><trkpt lat="36.9656993" lon="9.0350957"><ele>70.5</ele><time>2026-05-02T13:27:51.677Z</time></trkpt><trkpt lat="36.9658125" lon="9.0351544"><ele>73.25</ele><time>2026-05-02T13:27:52.668Z</time></trkpt><trkpt lat="36.9659318" lon="9.0352051"><ele>76.0</ele><time>2026-05-02T13:27:53.675Z</time></trkpt><trkpt lat="36.9660539" lon="9.0352449"><ele>76.0</ele><time>2026-05-02T13:27:54.666Z</time></trkpt><trkpt lat="36.9661652" lon="9.0352858"><ele>76.0</ele><time>2026-05-02T13:27:55.673Z</time></trkpt><trkpt lat="36.9662812" lon="9.0353289"><ele>76.0</ele><time>2026-05-02T13:27:56.681Z</time></trkpt><trkpt lat="36.9663961" lon="9.0353804"><ele>76.0</ele><time>2026-05-02T13:27:57.668Z</time></trkpt><trkpt lat="36.966496" lon="9.0354371"><ele>76.0</ele><time>2026-05-02T13:27:58.678Z</time></trkpt><trkpt lat="36.9665799" lon="9.0355068"><ele>76.0</ele><time>2026-05-02T13:27:59.675Z</time></trkpt><trkpt lat="36.966645" lon="9.0356091"><ele>76.0</ele><time>2026-05-02T13:28:00.677Z</time></trkpt><trkpt lat="36.9666909" lon="9.0357247"><ele>76.0</ele><time>2026-05-02T13:28:01.68Z</time></trkpt><trkpt lat="36.9667065" lon="9.0358591"><ele>76.0</ele><time>2026-05-02T13:28:02.676Z</time></trkpt><trkpt lat="36.9667222" lon="9.0359857"><ele>74.8</ele><time>2026-05-02T13:28:03.674Z</time></trkpt><trkpt lat="36.9667343" lon="9.0361037"><ele>73.6</ele><time>2026-05-02T13:28:04.664Z</time></trkpt><trkpt lat="36.96674" lon="9.0362219"><ele>72.4</ele><time>2026-05-02T13:28:05.673Z</time></trkpt><trkpt lat="36.9667637" lon="9.0363469"><ele>71.2</ele><time>2026-05-02T13:28:06.679Z</time></trkpt><trkpt lat="36.9667841" lon="9.0364733"><ele>70.0</ele><time>2026-05-02T13:28:07.669Z</time></trkpt><trkpt lat="36.9668097" lon="9.0366097"><ele>73.25</ele><time>2026-05-02T13:28:08.669Z</time></trkpt><trkpt lat="36.9668309" lon="9.0367391"><ele>76.5</ele><time>2026-05-02T13:28:09.657Z</time></trkpt><trkpt lat="36.9668431" lon="9.0368839"><ele>79.75</ele><time>2026-05-02T13:28:10.685Z</time></trkpt><trkpt lat="36.966837" lon="9.0370311"><ele>83.0</ele><time>2026-05-02T13:28:11.668Z</time></trkpt><trkpt lat="36.9668154" lon="9.0371748"><ele>83.0</ele><time>2026-05-02T13:28:12.68Z</time></trkpt><trkpt lat="36.9667894" lon="9.0373255"><ele>83.0</ele><time>2026-05-02T13:28:13.671Z</time></trkpt><trkpt lat="36.9667609" lon="9.0374894"><ele>83.0</ele><time>2026-05-02T13:28:14.682Z</time></trkpt><trkpt lat="36.9667281" lon="9.0376548"><ele>83.0</ele><time>2026-05-02T13:28:15.674Z</time></trkpt><trkpt lat="36.9666926" lon="9.0378287"><ele>84.0</ele><time>2026-05-02T13:28:16.669Z</time></trkpt><trkpt lat="36.9666557" lon="9.0379999"><ele>85.0</ele><time>2026-05-02T13:28:17.692Z</time></trkpt><trkpt lat="36.9666208" lon="9.0381755"><ele>86.0</ele><time>2026-05-02T13:28:18.665Z</time></trkpt><trkpt lat="36.9665872" lon="9.0383478"><ele>87.0</ele><time>2026-05-02T13:28:19.669Z</time></trkpt><trkpt lat="36.9665571" lon="9.0385216"><ele>87.0</ele><time>2026-05-02T13:28:20.681Z</time></trkpt><trkpt lat="36.9665233" lon="9.0387006"><ele>87.0</ele><time>2026-05-02T13:28:21.674Z</time></trkpt><trkpt lat="36.9664895" lon="9.0388959"><ele>87.0</ele><time>2026-05-02T13:28:22.67Z</time></trkpt><trkpt lat="36.9664551" lon="9.0390926"><ele>86.0</ele><time>2026-05-02T13:28:23.686Z</time></trkpt><trkpt lat="36.9664222" lon="9.039289"><ele>85.0</ele><time>2026-05-02T13:28:24.677Z</time></trkpt><trkpt lat="36.966398" lon="9.0394822"><ele>84.0</ele><time>2026-05-02T13:28:25.663Z</time></trkpt><trkpt lat="36.9663736" lon="9.039676"><ele>84.0</ele><time>2026-05-02T13:28:26.686Z</time></trkpt><trkpt lat="36.966365" lon="9.0398754"><ele>84.0</ele><time>2026-05-02T13:28:27.666Z</time></trkpt><trkpt lat="36.966364" lon="9.040072"><ele>84.0</ele><time>2026-05-02T13:28:28.676Z</time></trkpt><trkpt lat="36.9663657" lon="9.0402621"><ele>84.33333333333333</ele><time>2026-05-02T13:28:29.669Z</time></trkpt><trkpt lat="36.9663718" lon="9.0404533"><ele>84.66666666666666</ele><time>2026-05-02T13:28:30.66Z</time></trkpt><trkpt lat="36.9663845" lon="9.0406501"><ele>85.0</ele><time>2026-05-02T13:28:31.671Z</time></trkpt><trkpt lat="36.9664004" lon="9.0408627"><ele>83.66666666666666</ele><time>2026-05-02T13:28:32.666Z</time></trkpt><trkpt lat="36.9664161" lon="9.0410788"><ele>82.33333333333333</ele><time>2026-05-02T13:28:33.671Z</time></trkpt><trkpt lat="36.9664375" lon="9.0413011"><ele>81.0</ele><time>2026-05-02T13:28:34.666Z</time></trkpt><trkpt lat="36.9664605" lon="9.0415274"><ele>80.0</ele><time>2026-05-02T13:28:35.666Z</time></trkpt><trkpt lat="36.9664825" lon="9.0417556"><ele>79.0</ele><time>2026-05-02T13:28:36.664Z</time></trkpt><trkpt lat="36.9665032" lon="9.0419869"><ele>78.0</ele><time>2026-05-02T13:28:37.664Z</time></trkpt><trkpt lat="36.9665306" lon="9.0422297"><ele>77.66666666666667</ele><time>2026-05-02T13:28:38.676Z</time></trkpt><trkpt lat="36.9665559" lon="9.0424755"><ele>77.33333333333334</ele><time>2026-05-02T13:28:39.685Z</time></trkpt><trkpt lat="36.9665756" lon="9.0427149"><ele>77.0</ele><time>2026-05-02T13:28:40.673Z</time></trkpt><trkpt lat="36.9666012" lon="9.0429539"><ele>77.0</ele><time>2026-05-02T13:28:41.678Z</time></trkpt><trkpt lat="36.9666255" lon="9.0431751"><ele>77.0</ele><time>2026-05-02T13:28:42.674Z</time></trkpt><trkpt lat="36.9666446" lon="9.0433752"><ele>77.0</ele><time>2026-05-02T13:28:43.677Z</time></trkpt><trkpt lat="36.9666591" lon="9.0435572"><ele>76.5</ele><time>2026-05-02T13:28:44.682Z</time></trkpt><trkpt lat="36.9666731" lon="9.0437289"><ele>76.0</ele><time>2026-05-02T13:28:45.662Z</time></trkpt><trkpt lat="36.9666873" lon="9.0438879"><ele>75.5</ele><time>2026-05-02T13:28:46.67Z</time></trkpt><trkpt lat="36.9667026" lon="9.0440168"><ele>75.0</ele><time>2026-05-02T13:28:47.682Z</time></trkpt><trkpt lat="36.9667141" lon="9.0441259"><ele>75.33333333333333</ele><time>2026-05-02T13:28:48.673Z</time></trkpt><trkpt lat="36.966722" lon="9.0442134"><ele>75.66666666666667</ele><time>2026-05-02T13:28:49.665Z</time></trkpt><trkpt lat="36.9667313" lon="9.0442937"><ele>76.0</ele><time>2026-05-02T13:28:50.678Z</time></trkpt><trkpt lat="36.9667508" lon="9.0444496"><ele>76.33333333333334</ele><time>2026-05-02T13:28:52.678Z</time></trkpt><trkpt lat="36.9667643" lon="9.0445402"><ele>76.66666666666667</ele><time>2026-05-02T13:28:53.685Z</time></trkpt><trkpt lat="36.966777" lon="9.0446365"><ele>77.0</ele><time>2026-05-02T13:28:54.673Z</time></trkpt><trkpt lat="36.9667924" lon="9.0447812"><ele>77.0</ele><time>2026-05-02T13:28:56.679Z</time></trkpt><trkpt lat="36.9668051" lon="9.0449228"><ele>77.0</ele><time>2026-05-02T13:28:58.672Z</time></trkpt><trkpt lat="36.9668115" lon="9.045098"><ele>77.0</ele><time>2026-05-02T13:29:00.663Z</time></trkpt><trkpt lat="36.9668177" lon="9.0452174"><ele>77.0</ele><time>2026-05-02T13:29:01.677Z</time></trkpt><trkpt lat="36.9668266" lon="9.0453547"><ele>75.5</ele><time>2026-05-02T13:29:02.666Z</time></trkpt><trkpt lat="36.9668427" lon="9.0455157"><ele>74.0</ele><time>2026-05-02T13:29:03.673Z</time></trkpt><trkpt lat="36.9668577" lon="9.0456792"><ele>72.5</ele><time>2026-05-02T13:29:04.679Z</time></trkpt><trkpt lat="36.9668714" lon="9.045847"><ele>71.0</ele><time>2026-05-02T13:29:05.659Z</time></trkpt><trkpt lat="36.9668856" lon="9.0460123"><ele>71.0</ele><time>2026-05-02T13:29:06.665Z</time></trkpt><trkpt lat="36.9669031" lon="9.0461805"><ele>71.0</ele><time>2026-05-02T13:29:07.657Z</time></trkpt><trkpt lat="36.9669183" lon="9.0463464"><ele>71.0</ele><time>2026-05-02T13:29:08.667Z</time></trkpt><trkpt lat="36.9669384" lon="9.0465089"><ele>71.0</ele><time>2026-05-02T13:29:09.665Z</time></trkpt><trkpt lat="36.9669562" lon="9.0466612"><ele>71.25</ele><time>2026-05-02T13:29:10.668Z</time></trkpt><trkpt lat="36.9669816" lon="9.0468126"><ele>71.5</ele><time>2026-05-02T13:29:11.663Z</time></trkpt><trkpt lat="36.9670154" lon="9.0469741"><ele>71.75</ele><time>2026-05-02T13:29:12.675Z</time></trkpt><trkpt lat="36.9670559" lon="9.0471415"><ele>72.0</ele><time>2026-05-02T13:29:13.685Z</time></trkpt><trkpt lat="36.9671046" lon="9.0473133"><ele>70.66666666666667</ele><time>2026-05-02T13:29:14.669Z</time></trkpt><trkpt lat="36.9671581" lon="9.0474844"><ele>69.33333333333334</ele><time>2026-05-02T13:29:15.698Z</time></trkpt><trkpt lat="36.9672201" lon="9.0476531"><ele>68.0</ele><time>2026-05-02T13:29:16.675Z</time></trkpt><trkpt lat="36.9672862" lon="9.0478283"><ele>68.0</ele><time>2026-05-02T13:29:17.667Z</time></trkpt><trkpt lat="36.9673553" lon="9.048003"><ele>68.0</ele><time>2026-05-02T13:29:18.674Z</time></trkpt><trkpt lat="36.9674265" lon="9.0481859"><ele>68.0</ele><time>2026-05-02T13:29:19.687Z</time></trkpt><trkpt lat="36.9674976" lon="9.0483708"><ele>67.0</ele><time>2026-05-02T13:29:20.669Z</time></trkpt><trkpt lat="36.967569" lon="9.0485428"><ele>66.0</ele><time>2026-05-02T13:29:21.676Z</time></trkpt><trkpt lat="36.967642" lon="9.0487103"><ele>65.0</ele><time>2026-05-02T13:29:22.683Z</time></trkpt><trkpt lat="36.9677267" lon="9.0488727"><ele>65.0</ele><time>2026-05-02T13:29:23.669Z</time></trkpt><trkpt lat="36.9678288" lon="9.0490305"><ele>65.0</ele><time>2026-05-02T13:29:24.681Z</time></trkpt><trkpt lat="36.967948" lon="9.0491727"><ele>65.0</ele><time>2026-05-02T13:29:25.689Z</time></trkpt><trkpt lat="36.9680805" lon="9.0493084"><ele>63.66666666666667</ele><time>2026-05-02T13:29:26.683Z</time></trkpt><trkpt lat="36.9682149" lon="9.0494442"><ele>62.33333333333333</ele><time>2026-05-02T13:29:27.687Z</time></trkpt><trkpt lat="36.9683492" lon="9.0495744"><ele>61.0</ele><time>2026-05-02T13:29:28.689Z</time></trkpt><trkpt lat="36.9684797" lon="9.0497013"><ele>61.0</ele><time>2026-05-02T13:29:29.676Z</time></trkpt><trkpt lat="36.9685982" lon="9.0498234"><ele>61.0</ele><time>2026-05-02T13:29:30.656Z</time></trkpt><trkpt lat="36.9686983" lon="9.0499507"><ele>61.0</ele><time>2026-05-02T13:29:31.67Z</time></trkpt><trkpt lat="36.9687834" lon="9.0500883"><ele>61.0</ele><time>2026-05-02T13:29:32.678Z</time></trkpt><trkpt lat="36.9688553" lon="9.050236"><ele>59.75</ele><time>2026-05-02T13:29:33.674Z</time></trkpt><trkpt lat="36.9689021" lon="9.0504082"><ele>58.5</ele><time>2026-05-02T13:29:34.677Z</time></trkpt><trkpt lat="36.9689271" lon="9.0506008"><ele>57.25</ele><time>2026-05-02T13:29:35.666Z</time></trkpt><trkpt lat="36.9689505" lon="9.0507827"><ele>56.0</ele><time>2026-05-02T13:29:36.674Z</time></trkpt><trkpt lat="36.9689843" lon="9.0509598"><ele>54.5</ele><time>2026-05-02T13:29:37.668Z</time></trkpt><trkpt lat="36.9690428" lon="9.0511212"><ele>53.0</ele><time>2026-05-02T13:29:38.676Z</time></trkpt><trkpt lat="36.9691217" lon="9.0512794"><ele>51.5</ele><time>2026-05-02T13:29:39.665Z</time></trkpt><trkpt lat="36.969229" lon="9.0514153"><ele>50.0</ele><time>2026-05-02T13:29:40.668Z</time></trkpt><trkpt lat="36.9693616" lon="9.0515425"><ele>48.66666666666667</ele><time>2026-05-02T13:29:41.683Z</time></trkpt><trkpt lat="36.9695295" lon="9.0516768"><ele>47.333333333333336</ele><time>2026-05-02T13:29:42.673Z</time></trkpt><trkpt lat="36.9697303" lon="9.0518047"><ele>46.0</ele><time>2026-05-02T13:29:43.678Z</time></trkpt><trkpt lat="36.9699301" lon="9.0519284"><ele>45.0</ele><time>2026-05-02T13:29:44.697Z</time></trkpt><trkpt lat="36.9701106" lon="9.0520352"><ele>44.0</ele><time>2026-05-02T13:29:45.68Z</time></trkpt><trkpt lat="36.9702859" lon="9.0521481"><ele>43.0</ele><time>2026-05-02T13:29:46.661Z</time></trkpt><trkpt lat="36.9704394" lon="9.052256"><ele>43.0</ele><time>2026-05-02T13:29:47.681Z</time></trkpt><trkpt lat="36.9705758" lon="9.0523659"><ele>43.0</ele><time>2026-05-02T13:29:48.657Z</time></trkpt><trkpt lat="36.9706937" lon="9.0524792"><ele>43.0</ele><time>2026-05-02T13:29:49.675Z</time></trkpt><trkpt lat="36.970807" lon="9.0526046"><ele>43.333333333333336</ele><time>2026-05-02T13:29:50.675Z</time></trkpt><trkpt lat="36.9709058" lon="9.0527633"><ele>43.666666666666664</ele><time>2026-05-02T13:29:51.657Z</time></trkpt><trkpt lat="36.9709861" lon="9.0529483"><ele>44.0</ele><time>2026-05-02T13:29:52.672Z</time></trkpt><trkpt lat="36.9710593" lon="9.0531391"><ele>43.0</ele><time>2026-05-02T13:29:53.675Z</time></trkpt><trkpt lat="36.9711284" lon="9.0533338"><ele>42.0</ele><time>2026-05-02T13:29:54.678Z</time></trkpt><trkpt lat="36.9711917" lon="9.0535219"><ele>41.0</ele><time>2026-05-02T13:29:55.676Z</time></trkpt><trkpt lat="36.9712584" lon="9.0537124"><ele>41.0</ele><time>2026-05-02T13:29:56.677Z</time></trkpt><trkpt lat="36.9713253" lon="9.0538928"><ele>41.0</ele><time>2026-05-02T13:29:57.659Z</time></trkpt><trkpt lat="36.9713886" lon="9.054071"><ele>41.0</ele><time>2026-05-02T13:29:58.676Z</time></trkpt><trkpt lat="36.9714515" lon="9.0542492"><ele>41.33333333333333</ele><time>2026-05-02T13:29:59.679Z</time></trkpt><trkpt lat="36.9715114" lon="9.0544257"><ele>41.666666666666664</ele><time>2026-05-02T13:30:00.671Z</time></trkpt><trkpt lat="36.9715718" lon="9.0546019"><ele>42.0</ele><time>2026-05-02T13:30:01.666Z</time></trkpt><trkpt lat="36.9716287" lon="9.0547729"><ele>42.0</ele><time>2026-05-02T13:30:02.662Z</time></trkpt><trkpt lat="36.9716818" lon="9.0549353"><ele>42.0</ele><time>2026-05-02T13:30:03.684Z</time></trkpt><trkpt lat="36.971731" lon="9.0550997"><ele>42.0</ele><time>2026-05-02T13:30:04.677Z</time></trkpt><trkpt lat="36.971786" lon="9.055258"><ele>42.0</ele><time>2026-05-02T13:30:05.674Z</time></trkpt><trkpt lat="36.9718387" lon="9.0554102"><ele>41.5</ele><time>2026-05-02T13:30:06.672Z</time></trkpt><trkpt lat="36.9718917" lon="9.0555665"><ele>41.0</ele><time>2026-05-02T13:30:07.679Z</time></trkpt><trkpt lat="36.9719423" lon="9.0557207"><ele>40.5</ele><time>2026-05-02T13:30:08.678Z</time></trkpt><trkpt lat="36.9719959" lon="9.0558778"><ele>40.0</ele><time>2026-05-02T13:30:09.676Z</time></trkpt><trkpt lat="36.9720499" lon="9.0560283"><ele>40.0</ele><time>2026-05-02T13:30:10.673Z</time></trkpt><trkpt lat="36.9721048" lon="9.056185"><ele>40.0</ele><time>2026-05-02T13:30:11.684Z</time></trkpt><trkpt lat="36.9721586" lon="9.0563466"><ele>40.0</ele><time>2026-05-02T13:30:12.678Z</time></trkpt><trkpt lat="36.9722177" lon="9.0565067"><ele>40.0</ele><time>2026-05-02T13:30:13.666Z</time></trkpt><trkpt lat="36.9722754" lon="9.0566725"><ele>40.333333333333336</ele><time>2026-05-02T13:30:14.679Z</time></trkpt><trkpt lat="36.972335" lon="9.0568471"><ele>40.666666666666664</ele><time>2026-05-02T13:30:15.649Z</time></trkpt><trkpt lat="36.9723967" lon="9.0570231"><ele>41.0</ele><time>2026-05-02T13:30:16.673Z</time></trkpt><trkpt lat="36.9724592" lon="9.0572065"><ele>39.666666666666664</ele><time>2026-05-02T13:30:17.672Z</time></trkpt><trkpt lat="36.9725253" lon="9.0573909"><ele>38.333333333333336</ele><time>2026-05-02T13:30:18.669Z</time></trkpt><trkpt lat="36.9725904" lon="9.0575729"><ele>37.0</ele><time>2026-05-02T13:30:19.667Z</time></trkpt><trkpt lat="36.9726582" lon="9.0577598"><ele>37.0</ele><time>2026-05-02T13:30:20.671Z</time></trkpt><trkpt lat="36.972721" lon="9.0579437"><ele>37.0</ele><time>2026-05-02T13:30:21.672Z</time></trkpt><trkpt lat="36.9727867" lon="9.058126"><ele>37.0</ele><time>2026-05-02T13:30:22.668Z</time></trkpt><trkpt lat="36.9728518" lon="9.0583116"><ele>37.0</ele><time>2026-05-02T13:30:23.685Z</time></trkpt><trkpt lat="36.9729154" lon="9.0584995"><ele>37.0</ele><time>2026-05-02T13:30:24.662Z</time></trkpt><trkpt lat="36.9729825" lon="9.058685"><ele>37.0</ele><time>2026-05-02T13:30:25.69Z</time></trkpt><trkpt lat="36.9730435" lon="9.0588672"><ele>37.0</ele><time>2026-05-02T13:30:26.675Z</time></trkpt><trkpt lat="36.9731053" lon="9.0590443"><ele>37.0</ele><time>2026-05-02T13:30:27.668Z</time></trkpt><trkpt lat="36.9731658" lon="9.0592257"><ele>37.0</ele><time>2026-05-02T13:30:28.676Z</time></trkpt><trkpt lat="36.9732296" lon="9.0594054"><ele>36.66666666666667</ele><time>2026-05-02T13:30:29.667Z</time></trkpt><trkpt lat="36.9732925" lon="9.0595842"><ele>36.333333333333336</ele><time>2026-05-02T13:30:30.659Z</time></trkpt><trkpt lat="36.9733562" lon="9.0597603"><ele>36.0</ele><time>2026-05-02T13:30:31.679Z</time></trkpt><trkpt lat="36.9734133" lon="9.0599385"><ele>36.0</ele><time>2026-05-02T13:30:32.688Z</time></trkpt><trkpt lat="36.9734664" lon="9.0601141"><ele>36.0</ele><time>2026-05-02T13:30:33.68Z</time></trkpt><trkpt lat="36.9735174" lon="9.0602884"><ele>36.0</ele><time>2026-05-02T13:30:34.674Z</time></trkpt><trkpt lat="36.9735694" lon="9.0604594"><ele>36.0</ele><time>2026-05-02T13:30:35.662Z</time></trkpt><trkpt lat="36.9736215" lon="9.0606216"><ele>36.0</ele><time>2026-05-02T13:30:36.676Z</time></trkpt><trkpt lat="36.9736772" lon="9.0607749"><ele>36.0</ele><time>2026-05-02T13:30:37.683Z</time></trkpt><trkpt lat="36.973728" lon="9.0609261"><ele>36.0</ele><time>2026-05-02T13:30:38.676Z</time></trkpt><trkpt lat="36.973786" lon="9.0610786"><ele>36.0</ele><time>2026-05-02T13:30:39.68Z</time></trkpt><trkpt lat="36.9738465" lon="9.0612384"><ele>35.5</ele><time>2026-05-02T13:30:40.672Z</time></trkpt><trkpt lat="36.9739045" lon="9.0613981"><ele>35.0</ele><time>2026-05-02T13:30:41.676Z</time></trkpt><trkpt lat="36.9739628" lon="9.0615619"><ele>34.5</ele><time>2026-05-02T13:30:42.674Z</time></trkpt><trkpt lat="36.9740215" lon="9.0617277"><ele>34.0</ele><time>2026-05-02T13:30:43.671Z</time></trkpt><trkpt lat="36.9740845" lon="9.0619004"><ele>33.0</ele><time>2026-05-02T13:30:44.67Z</time></trkpt><trkpt lat="36.9741516" lon="9.0620729"><ele>32.0</ele><time>2026-05-02T13:30:45.653Z</time></trkpt><trkpt lat="36.9742279" lon="9.0622506"><ele>31.0</ele><time>2026-05-02T13:30:46.657Z</time></trkpt><trkpt lat="36.9743052" lon="9.0624262"><ele>30.333333333333336</ele><time>2026-05-02T13:30:47.668Z</time></trkpt><trkpt lat="36.9743861" lon="9.0625932"><ele>29.666666666666664</ele><time>2026-05-02T13:30:48.668Z</time></trkpt><trkpt lat="36.9744746" lon="9.0627491"><ele>29.0</ele><time>2026-05-02T13:30:49.661Z</time></trkpt><trkpt lat="36.9745713" lon="9.0628976"><ele>29.0</ele><time>2026-05-02T13:30:50.674Z</time></trkpt><trkpt lat="36.9746746" lon="9.0630186"><ele>29.0</ele><time>2026-05-02T13:30:51.677Z</time></trkpt><trkpt lat="36.9747985" lon="9.063117"><ele>29.0</ele><time>2026-05-02T13:30:52.671Z</time></trkpt><trkpt lat="36.9749401" lon="9.0632132"><ele>29.0</ele><time>2026-05-02T13:30:53.672Z</time></trkpt><trkpt lat="36.9750965" lon="9.0633092"><ele>29.333333333333332</ele><time>2026-05-02T13:30:54.677Z</time></trkpt><trkpt lat="36.9752577" lon="9.0634101"><ele>29.666666666666664</ele><time>2026-05-02T13:30:55.664Z</time></trkpt><trkpt lat="36.9754164" lon="9.0635325"><ele>30.0</ele><time>2026-05-02T13:30:56.675Z</time></trkpt><trkpt lat="36.9755731" lon="9.063677"><ele>30.0</ele><time>2026-05-02T13:30:57.679Z</time></trkpt><trkpt lat="36.9757191" lon="9.0638142"><ele>30.0</ele><time>2026-05-02T13:30:58.682Z</time></trkpt><trkpt lat="36.9758535" lon="9.0639551"><ele>30.0</ele><time>2026-05-02T13:30:59.67Z</time></trkpt><trkpt lat="36.9759782" lon="9.0640949"><ele>30.333333333333336</ele><time>2026-05-02T13:31:00.659Z</time></trkpt><trkpt lat="36.9761089" lon="9.0642243"><ele>30.666666666666668</ele><time>2026-05-02T13:31:01.69Z</time></trkpt><trkpt lat="36.97623" lon="9.0643528"><ele>31.0</ele><time>2026-05-02T13:31:02.677Z</time></trkpt><trkpt lat="36.9763529" lon="9.0644814"><ele>31.0</ele><time>2026-05-02T13:31:03.669Z</time></trkpt><trkpt lat="36.9764716" lon="9.0646005"><ele>31.0</ele><time>2026-05-02T13:31:04.668Z</time></trkpt><trkpt lat="36.9765834" lon="9.0647233"><ele>31.0</ele><time>2026-05-02T13:31:05.677Z</time></trkpt><trkpt lat="36.9766982" lon="9.0648541"><ele>31.75</ele><time>2026-05-02T13:31:06.668Z</time></trkpt><trkpt lat="36.9768072" lon="9.064987"><ele>32.5</ele><time>2026-05-02T13:31:07.667Z</time></trkpt><trkpt lat="36.9769085" lon="9.0651212"><ele>33.25</ele><time>2026-05-02T13:31:08.658Z</time></trkpt><trkpt lat="36.9770011" lon="9.0652424"><ele>34.0</ele><time>2026-05-02T13:31:09.677Z</time></trkpt><trkpt lat="36.9770958" lon="9.0653698"><ele>34.0</ele><time>2026-05-02T13:31:10.666Z</time></trkpt><trkpt lat="36.9771881" lon="9.0654907"><ele>34.0</ele><time>2026-05-02T13:31:11.669Z</time></trkpt><trkpt lat="36.9772793" lon="9.0656027"><ele>34.0</ele><time>2026-05-02T13:31:12.666Z</time></trkpt><trkpt lat="36.9773679" lon="9.0657101"><ele>34.0</ele><time>2026-05-02T13:31:13.666Z</time></trkpt><trkpt lat="36.9774569" lon="9.0658091"><ele>35.0</ele><time>2026-05-02T13:31:14.675Z</time></trkpt><trkpt lat="36.9775429" lon="9.0659062"><ele>36.0</ele><time>2026-05-02T13:31:15.686Z</time></trkpt><trkpt lat="36.9776239" lon="9.0660014"><ele>37.0</ele><time>2026-05-02T13:31:16.672Z</time></trkpt><trkpt lat="36.9776912" lon="9.0660959"><ele>38.0</ele><time>2026-05-02T13:31:17.669Z</time></trkpt><trkpt lat="36.9777352" lon="9.0661871"><ele>39.0</ele><time>2026-05-02T13:31:18.671Z</time></trkpt><trkpt lat="36.9777609" lon="9.0662771"><ele>39.0</ele><time>2026-05-02T13:31:19.678Z</time></trkpt><trkpt lat="36.9777759" lon="9.0663633"><ele>39.0</ele><time>2026-05-02T13:31:20.668Z</time></trkpt><trkpt lat="36.9777729" lon="9.0664987"><ele>39.0</ele><time>2026-05-02T13:31:22.665Z</time></trkpt><trkpt lat="36.9777358" lon="9.0666444"><ele>39.0</ele><time>2026-05-02T13:31:24.677Z</time></trkpt><trkpt lat="36.9776951" lon="9.0667078"><ele>39.0</ele><time>2026-05-02T13:31:25.666Z</time></trkpt><trkpt lat="36.9776527" lon="9.066771"><ele>39.0</ele><time>2026-05-02T13:31:26.654Z</time></trkpt><trkpt lat="36.9776076" lon="9.0668367"><ele>39.4</ele><time>2026-05-02T13:31:27.672Z</time></trkpt><trkpt lat="36.9775522" lon="9.0668976"><ele>39.8</ele><time>2026-05-02T13:31:28.675Z</time></trkpt><trkpt lat="36.9774857" lon="9.0669631"><ele>40.199999999999996</ele><time>2026-05-02T13:31:29.673Z</time></trkpt><trkpt lat="36.9774182" lon="9.067044"><ele>40.599999999999994</ele><time>2026-05-02T13:31:30.679Z</time></trkpt><trkpt lat="36.9773441" lon="9.0671251"><ele>41.0</ele><time>2026-05-02T13:31:31.681Z</time></trkpt><trkpt lat="36.9772643" lon="9.0672028"><ele>41.199999999999996</ele><time>2026-05-02T13:31:32.678Z</time></trkpt><trkpt lat="36.9771763" lon="9.0672808"><ele>41.4</ele><time>2026-05-02T13:31:33.671Z</time></trkpt><trkpt lat="36.9770943" lon="9.0673558"><ele>41.6</ele><time>2026-05-02T13:31:34.668Z</time></trkpt><trkpt lat="36.9770213" lon="9.0674368"><ele>41.8</ele><time>2026-05-02T13:31:35.678Z</time></trkpt><trkpt lat="36.9769533" lon="9.0675135"><ele>42.0</ele><time>2026-05-02T13:31:36.67Z</time></trkpt><trkpt lat="36.9768859" lon="9.0675881"><ele>42.0</ele><time>2026-05-02T13:31:37.677Z</time></trkpt><trkpt lat="36.9768269" lon="9.0676633"><ele>42.0</ele><time>2026-05-02T13:31:38.672Z</time></trkpt><trkpt lat="36.9767775" lon="9.0677397"><ele>42.0</ele><time>2026-05-02T13:31:39.669Z</time></trkpt><trkpt lat="36.976737" lon="9.0678174"><ele>42.0</ele><time>2026-05-02T13:31:40.674Z</time></trkpt><trkpt lat="36.9767021" lon="9.0678991"><ele>42.0</ele><time>2026-05-02T13:31:41.663Z</time></trkpt><trkpt lat="36.9766692" lon="9.067992"><ele>42.0</ele><time>2026-05-02T13:31:42.678Z</time></trkpt><trkpt lat="36.9766421" lon="9.0680815"><ele>42.333333333333336</ele><time>2026-05-02T13:31:43.667Z</time></trkpt><trkpt lat="36.9766195" lon="9.068179"><ele>42.666666666666664</ele><time>2026-05-02T13:31:44.664Z</time></trkpt><trkpt lat="36.9765967" lon="9.0682725"><ele>43.0</ele><time>2026-05-02T13:31:45.673Z</time></trkpt><trkpt lat="36.9765824" lon="9.0683734"><ele>43.33333333333333</ele><time>2026-05-02T13:31:46.664Z</time></trkpt><trkpt lat="36.9765695" lon="9.0684683"><ele>43.666666666666664</ele><time>2026-05-02T13:31:47.663Z</time></trkpt><trkpt lat="36.97655" lon="9.0685711"><ele>44.0</ele><time>2026-05-02T13:31:48.661Z</time></trkpt><trkpt lat="36.9765356" lon="9.0686812"><ele>44.33333333333333</ele><time>2026-05-02T13:31:49.664Z</time></trkpt><trkpt lat="36.9765184" lon="9.068784"><ele>44.666666666666664</ele><time>2026-05-02T13:31:50.661Z</time></trkpt><trkpt lat="36.9764984" lon="9.0688898"><ele>45.0</ele><time>2026-05-02T13:31:51.641Z</time></trkpt><trkpt lat="36.9764802" lon="9.0689962"><ele>45.333333333333336</ele><time>2026-05-02T13:31:52.677Z</time></trkpt><trkpt lat="36.9764639" lon="9.0691072"><ele>45.66666666666667</ele><time>2026-05-02T13:31:53.689Z</time></trkpt><trkpt lat="36.9764468" lon="9.0692139"><ele>46.0</ele><time>2026-05-02T13:31:54.673Z</time></trkpt><trkpt lat="36.976425" lon="9.0693207"><ele>46.25</ele><time>2026-05-02T13:31:55.67Z</time></trkpt><trkpt lat="36.9764108" lon="9.0694367"><ele>46.5</ele><time>2026-05-02T13:31:56.665Z</time></trkpt><trkpt lat="36.9763887" lon="9.0695641"><ele>46.75</ele><time>2026-05-02T13:31:57.659Z</time></trkpt><trkpt lat="36.9763685" lon="9.0697191"><ele>47.0</ele><time>2026-05-02T13:31:58.672Z</time></trkpt><trkpt lat="36.9763415" lon="9.0698829"><ele>47.75</ele><time>2026-05-02T13:31:59.681Z</time></trkpt><trkpt lat="36.976311" lon="9.0700578"><ele>48.5</ele><time>2026-05-02T13:32:00.676Z</time></trkpt><trkpt lat="36.9762825" lon="9.0702359"><ele>49.25</ele><time>2026-05-02T13:32:01.67Z</time></trkpt><trkpt lat="36.9762564" lon="9.0704121"><ele>50.0</ele><time>2026-05-02T13:32:02.66Z</time></trkpt><trkpt lat="36.9762302" lon="9.0705938"><ele>50.0</ele><time>2026-05-02T13:32:03.66Z</time></trkpt><trkpt lat="36.9761988" lon="9.0707663"><ele>50.0</ele><time>2026-05-02T13:32:04.678Z</time></trkpt><trkpt lat="36.9761754" lon="9.0709306"><ele>50.0</ele><time>2026-05-02T13:32:05.678Z</time></trkpt><trkpt lat="36.9761526" lon="9.0710882"><ele>50.0</ele><time>2026-05-02T13:32:06.682Z</time></trkpt><trkpt lat="36.9761273" lon="9.0712289"><ele>50.0</ele><time>2026-05-02T13:32:07.677Z</time></trkpt><trkpt lat="36.9760987" lon="9.0713639"><ele>50.0</ele><time>2026-05-02T13:32:08.681Z</time></trkpt><trkpt lat="36.9760701" lon="9.0714994"><ele>50.0</ele><time>2026-05-02T13:32:09.677Z</time></trkpt><trkpt lat="36.9760403" lon="9.0716185"><ele>50.0</ele><time>2026-05-02T13:32:10.67Z</time></trkpt><trkpt lat="36.9760064" lon="9.0717158"><ele>50.0</ele><time>2026-05-02T13:32:11.662Z</time></trkpt><trkpt lat="36.9759745" lon="9.071804"><ele>50.00000000000001</ele><time>2026-05-02T13:32:12.676Z</time></trkpt><trkpt lat="36.9759526" lon="9.0718902"><ele>50.0</ele><time>2026-05-02T13:32:13.659Z</time></trkpt><trkpt lat="36.9759186" lon="9.071963"><ele>50.0</ele><time>2026-05-02T13:32:14.678Z</time></trkpt><trkpt lat="36.9758847" lon="9.0720356"><ele>50.0</ele><time>2026-05-02T13:32:15.678Z</time></trkpt><trkpt lat="36.9758477" lon="9.0721056"><ele>50.0</ele><time>2026-05-02T13:32:16.664Z</time></trkpt><trkpt lat="36.9758075" lon="9.0721719"><ele>50.00000000000001</ele><time>2026-05-02T13:32:17.668Z</time></trkpt><trkpt lat="36.9757645" lon="9.072232"><ele>50.0</ele><time>2026-05-02T13:32:18.654Z</time></trkpt><trkpt lat="36.9757242" lon="9.0722931"><ele>50.0</ele><time>2026-05-02T13:32:19.635Z</time></trkpt><trkpt lat="36.9756487" lon="9.0724156"><ele>50.0</ele><time>2026-05-02T13:32:21.683Z</time></trkpt><trkpt lat="36.9756016" lon="9.0724945"><ele>50.0</ele><time>2026-05-02T13:32:22.675Z</time></trkpt><trkpt lat="36.9755475" lon="9.0725997"><ele>50.0</ele><time>2026-05-02T13:32:23.666Z</time></trkpt><trkpt lat="36.975492" lon="9.072714"><ele>50.0</ele><time>2026-05-02T13:32:24.671Z</time></trkpt><trkpt lat="36.9754422" lon="9.0728286"><ele>49.6</ele><time>2026-05-02T13:32:25.677Z</time></trkpt><trkpt lat="36.9754006" lon="9.0729416"><ele>49.2</ele><time>2026-05-02T13:32:26.667Z</time></trkpt><trkpt lat="36.9753596" lon="9.0730576"><ele>48.8</ele><time>2026-05-02T13:32:27.665Z</time></trkpt><trkpt lat="36.975328" lon="9.0731684"><ele>48.4</ele><time>2026-05-02T13:32:28.667Z</time></trkpt><trkpt lat="36.9752954" lon="9.073262"><ele>48.0</ele><time>2026-05-02T13:32:29.666Z</time></trkpt><trkpt lat="36.9752652" lon="9.0733534"><ele>46.666666666666664</ele><time>2026-05-02T13:32:30.669Z</time></trkpt><trkpt lat="36.9752338" lon="9.0734451"><ele>45.333333333333336</ele><time>2026-05-02T13:32:31.655Z</time></trkpt><trkpt lat="36.9752088" lon="9.0735393"><ele>44.0</ele><time>2026-05-02T13:32:32.672Z</time></trkpt><trkpt lat="36.9751826" lon="9.0736383"><ele>42.66666666666667</ele><time>2026-05-02T13:32:33.664Z</time></trkpt><trkpt lat="36.9751527" lon="9.0737313"><ele>41.333333333333336</ele><time>2026-05-02T13:32:34.659Z</time></trkpt><trkpt lat="36.9751245" lon="9.0738271"><ele>40.0</ele><time>2026-05-02T13:32:35.657Z</time></trkpt><trkpt lat="36.9751023" lon="9.0739178"><ele>40.0</ele><time>2026-05-02T13:32:36.68Z</time></trkpt><trkpt lat="36.9750718" lon="9.0740076"><ele>40.0</ele><time>2026-05-02T13:32:37.671Z</time></trkpt><trkpt lat="36.9750468" lon="9.0740904"><ele>40.0</ele><time>2026-05-02T13:32:38.67Z</time></trkpt><trkpt lat="36.9750224" lon="9.0741694"><ele>40.0</ele><time>2026-05-02T13:32:39.658Z</time></trkpt><trkpt lat="36.9750026" lon="9.0742479"><ele>40.0</ele><time>2026-05-02T13:32:40.678Z</time></trkpt><trkpt lat="36.9749797" lon="9.0743303"><ele>40.0</ele><time>2026-05-02T13:32:41.67Z</time></trkpt><trkpt lat="36.9749534" lon="9.0744855"><ele>39.833333333333336</ele><time>2026-05-02T13:32:43.689Z</time></trkpt><trkpt lat="36.974932" lon="9.0746225"><ele>39.66666666666667</ele><time>2026-05-02T13:32:45.654Z</time></trkpt><trkpt lat="36.9749213" lon="9.0747396"><ele>39.5</ele><time>2026-05-02T13:32:47.681Z</time></trkpt><trkpt lat="36.9749012" lon="9.0748273"><ele>39.333333333333336</ele><time>2026-05-02T13:32:49.655Z</time></trkpt><trkpt lat="36.9749016" lon="9.0749115"><ele>39.166666666666664</ele><time>2026-05-02T13:32:51.653Z</time></trkpt><trkpt lat="36.9749159" lon="9.0750104"><ele>39.0</ele><time>2026-05-02T13:32:53.682Z</time></trkpt><trkpt lat="36.9749367" lon="9.0751559"><ele>39.0</ele><time>2026-05-02T13:32:55.667Z</time></trkpt><trkpt lat="36.9749545" lon="9.0753094"><ele>39.0</ele><time>2026-05-02T13:32:57.671Z</time></trkpt><trkpt lat="36.9749644" lon="9.0753996"><ele>39.0</ele><time>2026-05-02T13:32:58.664Z</time></trkpt><trkpt lat="36.974989" lon="9.0755558"><ele>39.0</ele><time>2026-05-02T13:33:00.677Z</time></trkpt><trkpt lat="36.9750147" lon="9.0756926"><ele>39.0</ele><time>2026-05-02T13:33:02.681Z</time></trkpt><trkpt lat="36.9750349" lon="9.0758035"><ele>38.0</ele><time>2026-05-02T13:33:04.665Z</time></trkpt><trkpt lat="36.9750545" lon="9.0758813"><ele>37.0</ele><time>2026-05-02T13:33:08.676Z</time></trkpt><trkpt lat="36.9750728" lon="9.0759704"><ele>36.0</ele><time>2026-05-02T13:33:12.669Z</time></trkpt><trkpt lat="36.9750614" lon="9.0760561"><ele>35.0</ele><time>2026-05-02T13:33:16.656Z</time></trkpt><trkpt lat="36.9750786" lon="9.0761677"><ele>34.0</ele><time>2026-05-02T13:33:19.694Z</time></trkpt><trkpt lat="36.9751089" lon="9.076337"><ele>33.0</ele><time>2026-05-02T13:33:21.673Z</time></trkpt><trkpt lat="36.9751242" lon="9.0764551"><ele>33.0</ele><time>2026-05-02T13:33:22.665Z</time></trkpt><trkpt lat="36.9751401" lon="9.0765717"><ele>33.0</ele><time>2026-05-02T13:33:23.678Z</time></trkpt><trkpt lat="36.9751527" lon="9.0766778"><ele>33.0</ele><time>2026-05-02T13:33:24.676Z</time></trkpt><trkpt lat="36.975165" lon="9.0767888"><ele>33.0</ele><time>2026-05-02T13:33:25.661Z</time></trkpt><trkpt lat="36.9751792" lon="9.0768997"><ele>33.0</ele><time>2026-05-02T13:33:26.662Z</time></trkpt><trkpt lat="36.975199" lon="9.0770147"><ele>33.199999999999996</ele><time>2026-05-02T13:33:27.665Z</time></trkpt><trkpt lat="36.9752168" lon="9.0771243"><ele>33.4</ele><time>2026-05-02T13:33:28.671Z</time></trkpt><trkpt lat="36.9752405" lon="9.0772389"><ele>33.599999999999994</ele><time>2026-05-02T13:33:29.663Z</time></trkpt><trkpt lat="36.9752706" lon="9.0773497"><ele>33.8</ele><time>2026-05-02T13:33:30.648Z</time></trkpt><trkpt lat="36.9753036" lon="9.0774608"><ele>34.0</ele><time>2026-05-02T13:33:31.658Z</time></trkpt><trkpt lat="36.9753408" lon="9.0775745"><ele>34.2</ele><time>2026-05-02T13:33:32.665Z</time></trkpt><trkpt lat="36.9753756" lon="9.0776849"><ele>34.4</ele><time>2026-05-02T13:33:33.671Z</time></trkpt><trkpt lat="36.9754112" lon="9.0777958"><ele>34.6</ele><time>2026-05-02T13:33:34.665Z</time></trkpt><trkpt lat="36.975451" lon="9.0779044"><ele>34.8</ele><time>2026-05-02T13:33:35.683Z</time></trkpt><trkpt lat="36.9754941" lon="9.078018"><ele>35.0</ele><time>2026-05-02T13:33:36.661Z</time></trkpt><trkpt lat="36.9755386" lon="9.0781294"><ele>35.0</ele><time>2026-05-02T13:33:37.67Z</time></trkpt><trkpt lat="36.9755827" lon="9.0782354"><ele>35.0</ele><time>2026-05-02T13:33:38.664Z</time></trkpt><trkpt lat="36.9756268" lon="9.0783496"><ele>35.0</ele><time>2026-05-02T13:33:39.675Z</time></trkpt><trkpt lat="36.975664" lon="9.0784621"><ele>35.0</ele><time>2026-05-02T13:33:40.656Z</time></trkpt><trkpt lat="36.975708" lon="9.078568"><ele>35.0</ele><time>2026-05-02T13:33:41.664Z</time></trkpt><trkpt lat="36.9757452" lon="9.0786714"><ele>34.666666666666664</ele><time>2026-05-02T13:33:42.671Z</time></trkpt><trkpt lat="36.975786" lon="9.0787733"><ele>34.33333333333333</ele><time>2026-05-02T13:33:43.654Z</time></trkpt><trkpt lat="36.9758178" lon="9.0788695"><ele>34.0</ele><time>2026-05-02T13:33:44.662Z</time></trkpt><trkpt lat="36.9758435" lon="9.0789671"><ele>33.666666666666664</ele><time>2026-05-02T13:33:45.679Z</time></trkpt><trkpt lat="36.975869" lon="9.0790651"><ele>33.333333333333336</ele><time>2026-05-02T13:33:46.68Z</time></trkpt><trkpt lat="36.9758896" lon="9.0791669"><ele>33.0</ele><time>2026-05-02T13:33:47.664Z</time></trkpt><trkpt lat="36.9759034" lon="9.079268"><ele>33.0</ele><time>2026-05-02T13:33:48.67Z</time></trkpt><trkpt lat="36.9759068" lon="9.0793685"><ele>33.0</ele><time>2026-05-02T13:33:49.673Z</time></trkpt><trkpt lat="36.9759113" lon="9.0794651"><ele>33.0</ele><time>2026-05-02T13:33:50.666Z</time></trkpt><trkpt lat="36.9759085" lon="9.079558"><ele>33.0</ele><time>2026-05-02T13:33:51.661Z</time></trkpt><trkpt lat="36.9759082" lon="9.0796455"><ele>33.0</ele><time>2026-05-02T13:33:52.676Z</time></trkpt><trkpt lat="36.9759014" lon="9.0797983"><ele>33.0</ele><time>2026-05-02T13:33:54.673Z</time></trkpt><trkpt lat="36.9758855" lon="9.0799516"><ele>33.0</ele><time>2026-05-02T13:33:56.675Z</time></trkpt><trkpt lat="36.9758759" lon="9.0800299"><ele>33.0</ele><time>2026-05-02T13:33:57.669Z</time></trkpt><trkpt lat="36.9758606" lon="9.0801106"><ele>33.0</ele><time>2026-05-02T13:33:58.677Z</time></trkpt><trkpt lat="36.975854" lon="9.0801958"><ele>33.0</ele><time>2026-05-02T13:33:59.678Z</time></trkpt><trkpt lat="36.9758371" lon="9.0802769"><ele>33.0</ele><time>2026-05-02T13:34:00.653Z</time></trkpt><trkpt lat="36.975818" lon="9.0803537"><ele>33.0</ele><time>2026-05-02T13:34:01.666Z</time></trkpt><trkpt lat="36.9757639" lon="9.080491"><ele>33.199999999999996</ele><time>2026-05-02T13:34:03.678Z</time></trkpt><trkpt lat="36.9756842" lon="9.0806056"><ele>33.4</ele><time>2026-05-02T13:34:05.669Z</time></trkpt><trkpt lat="36.9756108" lon="9.0807006"><ele>33.599999999999994</ele><time>2026-05-02T13:34:07.677Z</time></trkpt><trkpt lat="36.9755345" lon="9.0807611"><ele>33.8</ele><time>2026-05-02T13:34:09.677Z</time></trkpt><trkpt lat="36.9754491" lon="9.0808136"><ele>34.0</ele><time>2026-05-02T13:34:11.678Z</time></trkpt><trkpt lat="36.9753724" lon="9.0808573"><ele>34.0</ele><time>2026-05-02T13:34:13.663Z</time></trkpt><trkpt lat="36.9752918" lon="9.0809175"><ele>34.0</ele><time>2026-05-02T13:34:15.671Z</time></trkpt><trkpt lat="36.9752664" lon="9.0810182"><ele>34.0</ele><time>2026-05-02T13:34:18.67Z</time></trkpt><trkpt lat="36.975324" lon="9.0810878"><ele>34.0</ele><time>2026-05-02T13:34:20.669Z</time></trkpt><trkpt lat="36.9753928" lon="9.0811431"><ele>34.0</ele><time>2026-05-02T13:34:22.664Z</time></trkpt><trkpt lat="36.9754542" lon="9.0812035"><ele>34.0</ele><time>2026-05-02T13:34:24.662Z</time></trkpt><trkpt lat="36.9755474" lon="9.0812815"><ele>34.0</ele><time>2026-05-02T13:34:26.65Z</time></trkpt><trkpt lat="36.9756436" lon="9.0813584"><ele>34.0</ele><time>2026-05-02T13:34:28.655Z</time></trkpt><trkpt lat="36.97574" lon="9.0814172"><ele>34.0</ele><time>2026-05-02T13:34:30.67Z</time></trkpt><trkpt lat="36.9758492" lon="9.0814721"><ele>34.0</ele><time>2026-05-02T13:34:32.665Z</time></trkpt><trkpt lat="36.9759593" lon="9.0815234"><ele>34.16666666666667</ele><time>2026-05-02T13:34:34.669Z</time></trkpt><trkpt lat="36.9760669" lon="9.0815902"><ele>34.333333333333336</ele><time>2026-05-02T13:34:36.664Z</time></trkpt><trkpt lat="36.9761755" lon="9.0816568"><ele>34.5</ele><time>2026-05-02T13:34:38.661Z</time></trkpt><trkpt lat="36.9762359" lon="9.0816846"><ele>34.666666666666664</ele><time>2026-05-02T13:34:39.677Z</time></trkpt><trkpt lat="36.9763018" lon="9.081714"><ele>34.83333333333333</ele><time>2026-05-02T13:34:40.663Z</time></trkpt><trkpt lat="36.9763643" lon="9.0817394"><ele>35.0</ele><time>2026-05-02T13:34:41.673Z</time></trkpt><trkpt lat="36.9764342" lon="9.0817644"><ele>35.0</ele><time>2026-05-02T13:34:42.681Z</time></trkpt><trkpt lat="36.976499" lon="9.0817808"><ele>35.0</ele><time>2026-05-02T13:34:43.662Z</time></trkpt><trkpt lat="36.9766276" lon="9.081813"><ele>35.0</ele><time>2026-05-02T13:34:45.676Z</time></trkpt><trkpt lat="36.9766986" lon="9.0818259"><ele>35.0</ele><time>2026-05-02T13:34:46.668Z</time></trkpt><trkpt lat="36.9767705" lon="9.0818466"><ele>35.0</ele><time>2026-05-02T13:34:47.677Z</time></trkpt><trkpt lat="36.9768424" lon="9.0818529"><ele>35.0</ele><time>2026-05-02T13:34:48.668Z</time></trkpt><trkpt lat="36.9769157" lon="9.0818588"><ele>34.666666666666664</ele><time>2026-05-02T13:34:49.682Z</time></trkpt><trkpt lat="36.9769819" lon="9.0818604"><ele>34.33333333333333</ele><time>2026-05-02T13:34:50.67Z</time></trkpt><trkpt lat="36.9770822" lon="9.0818448"><ele>34.0</ele><time>2026-05-02T13:34:52.683Z</time></trkpt><trkpt lat="36.9771934" lon="9.0818094"><ele>33.666666666666664</ele><time>2026-05-02T13:34:54.662Z</time></trkpt><trkpt lat="36.9772618" lon="9.081793"><ele>33.333333333333336</ele><time>2026-05-02T13:34:55.661Z</time></trkpt><trkpt lat="36.9773328" lon="9.0817796"><ele>33.0</ele><time>2026-05-02T13:34:56.659Z</time></trkpt><trkpt lat="36.9774078" lon="9.0817656"><ele>33.0</ele><time>2026-05-02T13:34:57.668Z</time></trkpt><trkpt lat="36.977482" lon="9.0817484"><ele>33.0</ele><time>2026-05-02T13:34:58.666Z</time></trkpt><trkpt lat="36.9775565" lon="9.0817291"><ele>33.0</ele><time>2026-05-02T13:34:59.679Z</time></trkpt><trkpt lat="36.9776293" lon="9.0817114"><ele>33.0</ele><time>2026-05-02T13:35:00.665Z</time></trkpt><trkpt lat="36.977705" lon="9.0816912"><ele>33.0</ele><time>2026-05-02T13:35:01.669Z</time></trkpt><trkpt lat="36.9777777" lon="9.0816698"><ele>33.0</ele><time>2026-05-02T13:35:02.657Z</time></trkpt><trkpt lat="36.9778539" lon="9.0816469"><ele>32.857142857142854</ele><time>2026-05-02T13:35:03.672Z</time></trkpt><trkpt lat="36.9779295" lon="9.0816155"><ele>32.714285714285715</ele><time>2026-05-02T13:35:04.676Z</time></trkpt><trkpt lat="36.9779979" lon="9.0815845"><ele>32.57142857142857</ele><time>2026-05-02T13:35:05.678Z</time></trkpt><trkpt lat="36.9780741" lon="9.0815571"><ele>32.42857142857143</ele><time>2026-05-02T13:35:06.679Z</time></trkpt><trkpt lat="36.978142" lon="9.0815407"><ele>32.285714285714285</ele><time>2026-05-02T13:35:07.667Z</time></trkpt><trkpt lat="36.9782069" lon="9.0815146"><ele>32.14285714285714</ele><time>2026-05-02T13:35:08.66Z</time></trkpt><trkpt lat="36.9782756" lon="9.0815002"><ele>32.0</ele><time>2026-05-02T13:35:09.666Z</time></trkpt><trkpt lat="36.9783982" lon="9.0814771"><ele>31.75</ele><time>2026-05-02T13:35:11.672Z</time></trkpt><trkpt lat="36.978518" lon="9.0814394"><ele>31.5</ele><time>2026-05-02T13:35:13.685Z</time></trkpt><trkpt lat="36.9786357" lon="9.0814011"><ele>31.25</ele><time>2026-05-02T13:35:15.665Z</time></trkpt><trkpt lat="36.9787373" lon="9.0813638"><ele>31.0</ele><time>2026-05-02T13:35:17.687Z</time></trkpt><trkpt lat="36.9788428" lon="9.0813291"><ele>31.0</ele><time>2026-05-02T13:35:19.662Z</time></trkpt><trkpt lat="36.9789674" lon="9.0813004"><ele>31.0</ele><time>2026-05-02T13:35:21.664Z</time></trkpt><trkpt lat="36.9790837" lon="9.0812688"><ele>31.0</ele><time>2026-05-02T13:35:23.673Z</time></trkpt><trkpt lat="36.9791923" lon="9.0812349"><ele>31.0</ele><time>2026-05-02T13:35:25.68Z</time></trkpt><trkpt lat="36.9792906" lon="9.0812"><ele>31.0</ele><time>2026-05-02T13:35:27.655Z</time></trkpt><trkpt lat="36.9793798" lon="9.0811795"><ele>31.0</ele><time>2026-05-02T13:35:29.654Z</time></trkpt><trkpt lat="36.9794747" lon="9.0811502"><ele>31.0</ele><time>2026-05-02T13:35:32.674Z</time></trkpt><trkpt lat="36.9795776" lon="9.0811148"><ele>31.0</ele><time>2026-05-02T13:35:34.672Z</time></trkpt><trkpt lat="36.9796858" lon="9.0810924"><ele>31.0</ele><time>2026-05-02T13:35:36.673Z</time></trkpt><trkpt lat="36.9797894" lon="9.0810712"><ele>31.000000000000004</ele><time>2026-05-02T13:35:38.674Z</time></trkpt><trkpt lat="36.9798524" lon="9.0810622"><ele>31.0</ele><time>2026-05-02T13:35:39.659Z</time></trkpt><trkpt lat="36.979979" lon="9.0810309"><ele>31.0</ele><time>2026-05-02T13:35:41.669Z</time></trkpt><trkpt lat="36.9800489" lon="9.0810156"><ele>31.0</ele><time>2026-05-02T13:35:42.683Z</time></trkpt><trkpt lat="36.980119" lon="9.0809918"><ele>31.000000000000004</ele><time>2026-05-02T13:35:43.662Z</time></trkpt><trkpt lat="36.9801925" lon="9.0809722"><ele>31.0</ele><time>2026-05-02T13:35:44.684Z</time></trkpt><trkpt lat="36.980265" lon="9.0809471"><ele>31.000000000000004</ele><time>2026-05-02T13:35:45.68Z</time></trkpt><trkpt lat="36.9803395" lon="9.0809308"><ele>31.0</ele><time>2026-05-02T13:35:46.68Z</time></trkpt><trkpt lat="36.98041" lon="9.0809005"><ele>31.0</ele><time>2026-05-02T13:35:47.676Z</time></trkpt><trkpt lat="36.9804855" lon="9.0808776"><ele>31.0</ele><time>2026-05-02T13:35:48.657Z</time></trkpt><trkpt lat="36.9805604" lon="9.0808599"><ele>31.000000000000004</ele><time>2026-05-02T13:35:49.67Z</time></trkpt><trkpt lat="36.9806385" lon="9.0808445"><ele>31.0</ele><time>2026-05-02T13:35:50.668Z</time></trkpt><trkpt lat="36.9807113" lon="9.0808345"><ele>31.000000000000004</ele><time>2026-05-02T13:35:51.674Z</time></trkpt><trkpt lat="36.9807851" lon="9.0808186"><ele>31.0</ele><time>2026-05-02T13:35:52.663Z</time></trkpt><trkpt lat="36.980866" lon="9.0807886"><ele>31.0</ele><time>2026-05-02T13:35:53.671Z</time></trkpt><trkpt lat="36.9809449" lon="9.0807614"><ele>31.0</ele><time>2026-05-02T13:35:54.677Z</time></trkpt><trkpt lat="36.9810204" lon="9.0807383"><ele>31.000000000000004</ele><time>2026-05-02T13:35:55.666Z</time></trkpt><trkpt lat="36.9810984" lon="9.08072"><ele>31.0</ele><time>2026-05-02T13:35:56.667Z</time></trkpt><trkpt lat="36.9811727" lon="9.0807013"><ele>30.833333333333336</ele><time>2026-05-02T13:35:57.663Z</time></trkpt><trkpt lat="36.9812531" lon="9.080691"><ele>30.666666666666668</ele><time>2026-05-02T13:35:58.659Z</time></trkpt><trkpt lat="36.9813301" lon="9.0806775"><ele>30.5</ele><time>2026-05-02T13:35:59.67Z</time></trkpt><trkpt lat="36.9814093" lon="9.0806638"><ele>30.333333333333336</ele><time>2026-05-02T13:36:00.654Z</time></trkpt><trkpt lat="36.9814917" lon="9.0806579"><ele>30.166666666666668</ele><time>2026-05-02T13:36:01.678Z</time></trkpt><trkpt lat="36.9815833" lon="9.0806606"><ele>30.0</ele><time>2026-05-02T13:36:02.657Z</time></trkpt><trkpt lat="36.9816844" lon="9.0806765"><ele>30.0</ele><time>2026-05-02T13:36:03.66Z</time></trkpt><trkpt lat="36.9817848" lon="9.0806943"><ele>30.0</ele><time>2026-05-02T13:36:04.667Z</time></trkpt><trkpt lat="36.9818816" lon="9.0807133"><ele>30.0</ele><time>2026-05-02T13:36:05.672Z</time></trkpt><trkpt lat="36.9819825" lon="9.0807415"><ele>30.0</ele><time>2026-05-02T13:36:06.659Z</time></trkpt><trkpt lat="36.9820821" lon="9.0807738"><ele>30.0</ele><time>2026-05-02T13:36:07.673Z</time></trkpt><trkpt lat="36.9821713" lon="9.0808128"><ele>30.0</ele><time>2026-05-02T13:36:08.661Z</time></trkpt><trkpt lat="36.9822569" lon="9.0808491"><ele>30.0</ele><time>2026-05-02T13:36:09.665Z</time></trkpt><trkpt lat="36.9823445" lon="9.0808913"><ele>30.0</ele><time>2026-05-02T13:36:10.658Z</time></trkpt><trkpt lat="36.9824351" lon="9.0809339"><ele>30.0</ele><time>2026-05-02T13:36:11.669Z</time></trkpt><trkpt lat="36.9825318" lon="9.0809686"><ele>30.0</ele><time>2026-05-02T13:36:12.667Z</time></trkpt><trkpt lat="36.9826382" lon="9.0810143"><ele>30.333333333333336</ele><time>2026-05-02T13:36:13.675Z</time></trkpt><trkpt lat="36.9827752" lon="9.0810694"><ele>30.666666666666668</ele><time>2026-05-02T13:36:14.667Z</time></trkpt><trkpt lat="36.9829375" lon="9.0811349"><ele>31.0</ele><time>2026-05-02T13:36:15.665Z</time></trkpt><trkpt lat="36.9831178" lon="9.0812271"><ele>31.0</ele><time>2026-05-02T13:36:16.675Z</time></trkpt><trkpt lat="36.9832924" lon="9.0813063"><ele>31.0</ele><time>2026-05-02T13:36:17.658Z</time></trkpt><trkpt lat="36.9834676" lon="9.0813646"><ele>31.0</ele><time>2026-05-02T13:36:18.669Z</time></trkpt><trkpt lat="36.9836321" lon="9.0813997"><ele>31.0</ele><time>2026-05-02T13:36:19.657Z</time></trkpt><trkpt lat="36.9837947" lon="9.0814319"><ele>31.0</ele><time>2026-05-02T13:36:20.688Z</time></trkpt><trkpt lat="36.983953" lon="9.0814387"><ele>31.0</ele><time>2026-05-02T13:36:21.657Z</time></trkpt><trkpt lat="36.9841132" lon="9.0814352"><ele>31.25</ele><time>2026-05-02T13:36:22.671Z</time></trkpt><trkpt lat="36.9842596" lon="9.0814148"><ele>31.5</ele><time>2026-05-02T13:36:23.667Z</time></trkpt><trkpt lat="36.9843958" lon="9.0813804"><ele>31.75</ele><time>2026-05-02T13:36:24.671Z</time></trkpt><trkpt lat="36.9845342" lon="9.0813239"><ele>32.0</ele><time>2026-05-02T13:36:25.67Z</time></trkpt><trkpt lat="36.9846696" lon="9.0812453"><ele>32.0</ele><time>2026-05-02T13:36:26.668Z</time></trkpt><trkpt lat="36.9848095" lon="9.0811446"><ele>32.0</ele><time>2026-05-02T13:36:27.701Z</time></trkpt><trkpt lat="36.9849524" lon="9.0810427"><ele>32.0</ele><time>2026-05-02T13:36:28.662Z</time></trkpt><trkpt lat="36.9850939" lon="9.0809265"><ele>32.0</ele><time>2026-05-02T13:36:29.673Z</time></trkpt><trkpt lat="36.9852369" lon="9.0808065"><ele>32.0</ele><time>2026-05-02T13:36:30.66Z</time></trkpt><trkpt lat="36.985373" lon="9.0806757"><ele>32.0</ele><time>2026-05-02T13:36:31.667Z</time></trkpt><trkpt lat="36.98551" lon="9.0805456"><ele>31.666666666666664</ele><time>2026-05-02T13:36:32.669Z</time></trkpt><trkpt lat="36.9856414" lon="9.0804141"><ele>31.333333333333336</ele><time>2026-05-02T13:36:33.675Z</time></trkpt><trkpt lat="36.9857764" lon="9.0802874"><ele>31.0</ele><time>2026-05-02T13:36:34.658Z</time></trkpt><trkpt lat="36.9859227" lon="9.0801543"><ele>31.0</ele><time>2026-05-02T13:36:35.675Z</time></trkpt><trkpt lat="36.9860665" lon="9.0800301"><ele>31.0</ele><time>2026-05-02T13:36:36.68Z</time></trkpt><trkpt lat="36.9862089" lon="9.0799065"><ele>31.0</ele><time>2026-05-02T13:36:37.668Z</time></trkpt><trkpt lat="36.9863606" lon="9.0797835"><ele>30.333333333333336</ele><time>2026-05-02T13:36:38.671Z</time></trkpt><trkpt lat="36.9865092" lon="9.0796589"><ele>29.666666666666664</ele><time>2026-05-02T13:36:39.672Z</time></trkpt><trkpt lat="36.9866587" lon="9.0795312"><ele>29.0</ele><time>2026-05-02T13:36:40.678Z</time></trkpt><trkpt lat="36.9868096" lon="9.0794033"><ele>29.0</ele><time>2026-05-02T13:36:41.664Z</time></trkpt><trkpt lat="36.9869586" lon="9.0792748"><ele>29.0</ele><time>2026-05-02T13:36:42.658Z</time></trkpt><trkpt lat="36.9871095" lon="9.079145"><ele>29.0</ele><time>2026-05-02T13:36:43.678Z</time></trkpt><trkpt lat="36.987263" lon="9.0790076"><ele>28.666666666666664</ele><time>2026-05-02T13:36:44.667Z</time></trkpt><trkpt lat="36.9874172" lon="9.0788632"><ele>28.333333333333336</ele><time>2026-05-02T13:36:45.664Z</time></trkpt><trkpt lat="36.987572" lon="9.0787208"><ele>28.0</ele><time>2026-05-02T13:36:46.662Z</time></trkpt><trkpt lat="36.9877303" lon="9.0785795"><ele>28.0</ele><time>2026-05-02T13:36:47.659Z</time></trkpt><trkpt lat="36.9878952" lon="9.0784398"><ele>28.0</ele><time>2026-05-02T13:36:48.666Z</time></trkpt><trkpt lat="36.9880608" lon="9.0783037"><ele>28.0</ele><time>2026-05-02T13:36:49.671Z</time></trkpt><trkpt lat="36.9882236" lon="9.0781638"><ele>28.0</ele><time>2026-05-02T13:36:50.685Z</time></trkpt><trkpt lat="36.9883833" lon="9.0780259"><ele>28.0</ele><time>2026-05-02T13:36:51.663Z</time></trkpt><trkpt lat="36.988543" lon="9.0778881"><ele>28.0</ele><time>2026-05-02T13:36:52.665Z</time></trkpt><trkpt lat="36.9887059" lon="9.0777536"><ele>28.0</ele><time>2026-05-02T13:36:53.663Z</time></trkpt><trkpt lat="36.9888646" lon="9.0776165"><ele>28.0</ele><time>2026-05-02T13:36:54.663Z</time></trkpt><trkpt lat="36.9890179" lon="9.0774871"><ele>28.0</ele><time>2026-05-02T13:36:55.672Z</time></trkpt><trkpt lat="36.9891771" lon="9.077365"><ele>27.666666666666668</ele><time>2026-05-02T13:36:56.656Z</time></trkpt><trkpt lat="36.9893518" lon="9.0772532"><ele>27.333333333333336</ele><time>2026-05-02T13:36:57.672Z</time></trkpt><trkpt lat="36.9895366" lon="9.0771477"><ele>27.0</ele><time>2026-05-02T13:36:58.664Z</time></trkpt><trkpt lat="36.98972" lon="9.077049"><ele>27.0</ele><time>2026-05-02T13:36:59.662Z</time></trkpt><trkpt lat="36.9899046" lon="9.076951"><ele>27.0</ele><time>2026-05-02T13:37:00.684Z</time></trkpt><trkpt lat="36.9900868" lon="9.076863"><ele>27.0</ele><time>2026-05-02T13:37:01.657Z</time></trkpt><trkpt lat="36.9902692" lon="9.0767847"><ele>26.333333333333336</ele><time>2026-05-02T13:37:02.65Z</time></trkpt><trkpt lat="36.990459" lon="9.0767142"><ele>25.666666666666668</ele><time>2026-05-02T13:37:03.655Z</time></trkpt><trkpt lat="36.9906477" lon="9.076649"><ele>25.0</ele><time>2026-05-02T13:37:04.653Z</time></trkpt><trkpt lat="36.9908394" lon="9.0765966"><ele>25.0</ele><time>2026-05-02T13:37:05.662Z</time></trkpt><trkpt lat="36.9910353" lon="9.0765586"><ele>25.0</ele><time>2026-05-02T13:37:06.67Z</time></trkpt><trkpt lat="36.9912337" lon="9.0765363"><ele>25.0</ele><time>2026-05-02T13:37:07.655Z</time></trkpt><trkpt lat="36.9914341" lon="9.0765285"><ele>25.0</ele><time>2026-05-02T13:37:08.661Z</time></trkpt><trkpt lat="36.9916442" lon="9.0765469"><ele>25.0</ele><time>2026-05-02T13:37:09.675Z</time></trkpt><trkpt lat="36.9918492" lon="9.0765697"><ele>25.0</ele><time>2026-05-02T13:37:10.666Z</time></trkpt><trkpt lat="36.9920496" lon="9.0766079"><ele>24.333333333333336</ele><time>2026-05-02T13:37:11.661Z</time></trkpt><trkpt lat="36.9922499" lon="9.0766548"><ele>23.666666666666668</ele><time>2026-05-02T13:37:12.669Z</time></trkpt><trkpt lat="36.992457" lon="9.0767173"><ele>23.0</ele><time>2026-05-02T13:37:13.672Z</time></trkpt><trkpt lat="36.9926602" lon="9.0768025"><ele>22.666666666666668</ele><time>2026-05-02T13:37:14.656Z</time></trkpt><trkpt lat="36.9928514" lon="9.0768868"><ele>22.333333333333332</ele><time>2026-05-02T13:37:15.664Z</time></trkpt><trkpt lat="36.9930398" lon="9.0769884"><ele>22.0</ele><time>2026-05-02T13:37:16.665Z</time></trkpt><trkpt lat="36.9932177" lon="9.0771135"><ele>22.333333333333332</ele><time>2026-05-02T13:37:17.666Z</time></trkpt><trkpt lat="36.9933923" lon="9.0772514"><ele>22.666666666666668</ele><time>2026-05-02T13:37:18.667Z</time></trkpt><trkpt lat="36.9935656" lon="9.0773963"><ele>23.0</ele><time>2026-05-02T13:37:19.654Z</time></trkpt><trkpt lat="36.99373" lon="9.077548"><ele>23.0</ele><time>2026-05-02T13:37:20.665Z</time></trkpt><trkpt lat="36.9938838" lon="9.0777083"><ele>23.0</ele><time>2026-05-02T13:37:21.668Z</time></trkpt><trkpt lat="36.9940259" lon="9.0778713"><ele>23.0</ele><time>2026-05-02T13:37:22.675Z</time></trkpt><trkpt lat="36.9941644" lon="9.0780409"><ele>22.666666666666668</ele><time>2026-05-02T13:37:23.663Z</time></trkpt><trkpt lat="36.9942961" lon="9.0782212"><ele>22.333333333333332</ele><time>2026-05-02T13:37:24.683Z</time></trkpt><trkpt lat="36.9944233" lon="9.0783988"><ele>22.0</ele><time>2026-05-02T13:37:25.671Z</time></trkpt><trkpt lat="36.9945485" lon="9.0785848"><ele>22.333333333333332</ele><time>2026-05-02T13:37:26.68Z</time></trkpt><trkpt lat="36.9946682" lon="9.0787657"><ele>22.666666666666668</ele><time>2026-05-02T13:37:27.692Z</time></trkpt><trkpt lat="36.9947851" lon="9.0789454"><ele>23.0</ele><time>2026-05-02T13:37:28.671Z</time></trkpt><trkpt lat="36.9949016" lon="9.0791269"><ele>22.666666666666668</ele><time>2026-05-02T13:37:29.655Z</time></trkpt><trkpt lat="36.9950165" lon="9.079303"><ele>22.333333333333332</ele><time>2026-05-02T13:37:30.657Z</time></trkpt><trkpt lat="36.995127" lon="9.0794739"><ele>22.0</ele><time>2026-05-02T13:37:31.677Z</time></trkpt><trkpt lat="36.995239" lon="9.0796452"><ele>22.0</ele><time>2026-05-02T13:37:32.661Z</time></trkpt><trkpt lat="36.9953542" lon="9.0798187"><ele>22.0</ele><time>2026-05-02T13:37:33.681Z</time></trkpt><trkpt lat="36.995467" lon="9.0799894"><ele>22.0</ele><time>2026-05-02T13:37:34.671Z</time></trkpt><trkpt lat="36.9955804" lon="9.0801631"><ele>22.0</ele><time>2026-05-02T13:37:35.656Z</time></trkpt><trkpt lat="36.9956959" lon="9.0803387"><ele>22.0</ele><time>2026-05-02T13:37:36.671Z</time></trkpt><trkpt lat="36.995811" lon="9.0805118"><ele>22.0</ele><time>2026-05-02T13:37:37.672Z</time></trkpt><trkpt lat="36.9959251" lon="9.0806821"><ele>22.666666666666664</ele><time>2026-05-02T13:37:38.662Z</time></trkpt><trkpt lat="36.9960386" lon="9.0808548"><ele>23.333333333333332</ele><time>2026-05-02T13:37:39.672Z</time></trkpt><trkpt lat="36.996151" lon="9.0810256"><ele>24.0</ele><time>2026-05-02T13:37:40.693Z</time></trkpt><trkpt lat="36.9962635" lon="9.0811959"><ele>24.0</ele><time>2026-05-02T13:37:41.66Z</time></trkpt><trkpt lat="36.9963795" lon="9.0813657"><ele>24.0</ele><time>2026-05-02T13:37:42.674Z</time></trkpt><trkpt lat="36.9964904" lon="9.0815375"><ele>24.0</ele><time>2026-05-02T13:37:43.664Z</time></trkpt><trkpt lat="36.996602" lon="9.0817056"><ele>23.666666666666668</ele><time>2026-05-02T13:37:44.672Z</time></trkpt><trkpt lat="36.9967122" lon="9.0818754"><ele>23.333333333333336</ele><time>2026-05-02T13:37:45.679Z</time></trkpt><trkpt lat="36.9968208" lon="9.0820469"><ele>23.0</ele><time>2026-05-02T13:37:46.658Z</time></trkpt><trkpt lat="36.9969303" lon="9.082216"><ele>23.0</ele><time>2026-05-02T13:37:47.678Z</time></trkpt><trkpt lat="36.9970413" lon="9.0823829"><ele>23.0</ele><time>2026-05-02T13:37:48.668Z</time></trkpt><trkpt lat="36.9971511" lon="9.0825536"><ele>23.0</ele><time>2026-05-02T13:37:49.665Z</time></trkpt><trkpt lat="36.9972603" lon="9.0827205"><ele>23.0</ele><time>2026-05-02T13:37:50.669Z</time></trkpt><trkpt lat="36.9973679" lon="9.0828844"><ele>23.0</ele><time>2026-05-02T13:37:51.67Z</time></trkpt><trkpt lat="36.9974758" lon="9.083051"><ele>23.0</ele><time>2026-05-02T13:37:52.668Z</time></trkpt><trkpt lat="36.997588" lon="9.083217"><ele>22.333333333333336</ele><time>2026-05-02T13:37:53.663Z</time></trkpt><trkpt lat="36.9977014" lon="9.0833862"><ele>21.666666666666668</ele><time>2026-05-02T13:37:54.667Z</time></trkpt><trkpt lat="36.9978147" lon="9.0835487"><ele>21.0</ele><time>2026-05-02T13:37:55.672Z</time></trkpt><trkpt lat="36.9979291" lon="9.083716"><ele>21.0</ele><time>2026-05-02T13:37:56.672Z</time></trkpt><trkpt lat="36.9980451" lon="9.0838838"><ele>21.0</ele><time>2026-05-02T13:37:57.668Z</time></trkpt><trkpt lat="36.9981569" lon="9.0840573"><ele>21.0</ele><time>2026-05-02T13:37:58.661Z</time></trkpt><trkpt lat="36.9982644" lon="9.0842383"><ele>23.0</ele><time>2026-05-02T13:37:59.676Z</time></trkpt><trkpt lat="36.9983842" lon="9.0844207"><ele>25.0</ele><time>2026-05-02T13:38:00.66Z</time></trkpt><trkpt lat="36.9985174" lon="9.0846216"><ele>27.0</ele><time>2026-05-02T13:38:01.673Z</time></trkpt><trkpt lat="36.9986539" lon="9.0848338"><ele>27.333333333333336</ele><time>2026-05-02T13:38:02.661Z</time></trkpt><trkpt lat="36.998796" lon="9.0850505"><ele>27.666666666666668</ele><time>2026-05-02T13:38:03.665Z</time></trkpt><trkpt lat="36.9989383" lon="9.0852593"><ele>28.0</ele><time>2026-05-02T13:38:04.672Z</time></trkpt><trkpt lat="36.999078" lon="9.085469"><ele>27.333333333333336</ele><time>2026-05-02T13:38:05.668Z</time></trkpt><trkpt lat="36.9992122" lon="9.0856779"><ele>26.666666666666664</ele><time>2026-05-02T13:38:06.664Z</time></trkpt><trkpt lat="36.9993437" lon="9.0858844"><ele>26.0</ele><time>2026-05-02T13:38:07.667Z</time></trkpt><trkpt lat="36.9994751" lon="9.0860871"><ele>25.666666666666664</ele><time>2026-05-02T13:38:08.679Z</time></trkpt><trkpt lat="36.999608" lon="9.086285"><ele>25.333333333333336</ele><time>2026-05-02T13:38:09.673Z</time></trkpt><trkpt lat="36.9997465" lon="9.0864876"><ele>25.0</ele><time>2026-05-02T13:38:10.665Z</time></trkpt><trkpt lat="36.9998827" lon="9.0866911"><ele>25.0</ele><time>2026-05-02T13:38:11.656Z</time></trkpt><trkpt lat="37.0000196" lon="9.0868922"><ele>25.0</ele><time>2026-05-02T13:38:12.664Z</time></trkpt><trkpt lat="37.0001572" lon="9.0870967"><ele>25.0</ele><time>2026-05-02T13:38:13.669Z</time></trkpt><trkpt lat="37.0002913" lon="9.0873012"><ele>24.666666666666668</ele><time>2026-05-02T13:38:14.672Z</time></trkpt><trkpt lat="37.0004251" lon="9.0875035"><ele>24.333333333333336</ele><time>2026-05-02T13:38:15.665Z</time></trkpt><trkpt lat="37.0005589" lon="9.0877137"><ele>24.0</ele><time>2026-05-02T13:38:16.675Z</time></trkpt><trkpt lat="37.0006935" lon="9.0879178"><ele>24.0</ele><time>2026-05-02T13:38:17.658Z</time></trkpt><trkpt lat="37.0008289" lon="9.0881233"><ele>24.0</ele><time>2026-05-02T13:38:18.658Z</time></trkpt><trkpt lat="37.0009543" lon="9.0883221"><ele>24.0</ele><time>2026-05-02T13:38:19.652Z</time></trkpt><trkpt lat="37.0010774" lon="9.0885069"><ele>25.0</ele><time>2026-05-02T13:38:20.681Z</time></trkpt><trkpt lat="37.0012005" lon="9.0886862"><ele>26.0</ele><time>2026-05-02T13:38:21.641Z</time></trkpt><trkpt lat="37.0013229" lon="9.0888676"><ele>27.0</ele><time>2026-05-02T13:38:22.661Z</time></trkpt><trkpt lat="37.0014395" lon="9.0890461"><ele>25.666666666666668</ele><time>2026-05-02T13:38:23.651Z</time></trkpt><trkpt lat="37.0015554" lon="9.0892304"><ele>24.333333333333336</ele><time>2026-05-02T13:38:24.671Z</time></trkpt><trkpt lat="37.0016709" lon="9.0894136"><ele>23.0</ele><time>2026-05-02T13:38:25.659Z</time></trkpt><trkpt lat="37.0017882" lon="9.0895924"><ele>23.0</ele><time>2026-05-02T13:38:26.675Z</time></trkpt><trkpt lat="37.0019043" lon="9.0897727"><ele>23.0</ele><time>2026-05-02T13:38:27.66Z</time></trkpt><trkpt lat="37.0020214" lon="9.0899579"><ele>23.0</ele><time>2026-05-02T13:38:28.668Z</time></trkpt><trkpt lat="37.0021377" lon="9.090147"><ele>24.666666666666668</ele><time>2026-05-02T13:38:29.663Z</time></trkpt><trkpt lat="37.0022568" lon="9.0903372"><ele>26.333333333333336</ele><time>2026-05-02T13:38:30.682Z</time></trkpt><trkpt lat="37.0023731" lon="9.0905306"><ele>28.0</ele><time>2026-05-02T13:38:31.656Z</time></trkpt><trkpt lat="37.0024864" lon="9.0907326"><ele>29.666666666666668</ele><time>2026-05-02T13:38:32.668Z</time></trkpt><trkpt lat="37.0025965" lon="9.0909354"><ele>31.333333333333336</ele><time>2026-05-02T13:38:33.67Z</time></trkpt><trkpt lat="37.0027053" lon="9.0911406"><ele>33.0</ele><time>2026-05-02T13:38:34.664Z</time></trkpt><trkpt lat="37.0028158" lon="9.0913522"><ele>33.0</ele><time>2026-05-02T13:38:35.661Z</time></trkpt><trkpt lat="37.0029249" lon="9.0915651"><ele>33.0</ele><time>2026-05-02T13:38:36.661Z</time></trkpt><trkpt lat="37.0030297" lon="9.0917785"><ele>33.0</ele><time>2026-05-02T13:38:37.67Z</time></trkpt><trkpt lat="37.0031364" lon="9.091995"><ele>33.0</ele><time>2026-05-02T13:38:38.668Z</time></trkpt><trkpt lat="37.0032422" lon="9.0922059"><ele>33.0</ele><time>2026-05-02T13:38:39.664Z</time></trkpt><trkpt lat="37.0033453" lon="9.0924145"><ele>33.0</ele><time>2026-05-02T13:38:40.673Z</time></trkpt><trkpt lat="37.0034433" lon="9.0926213"><ele>31.666666666666664</ele><time>2026-05-02T13:38:41.665Z</time></trkpt><trkpt lat="37.0035445" lon="9.0928292"><ele>30.333333333333332</ele><time>2026-05-02T13:38:42.669Z</time></trkpt><trkpt lat="37.0036407" lon="9.093028"><ele>29.0</ele><time>2026-05-02T13:38:43.69Z</time></trkpt><trkpt lat="37.0037348" lon="9.0932169"><ele>28.333333333333332</ele><time>2026-05-02T13:38:44.674Z</time></trkpt><trkpt lat="37.0038302" lon="9.0934095"><ele>27.666666666666664</ele><time>2026-05-02T13:38:45.677Z</time></trkpt><trkpt lat="37.0039224" lon="9.0935971"><ele>27.0</ele><time>2026-05-02T13:38:46.669Z</time></trkpt><trkpt lat="37.004011" lon="9.0937808"><ele>27.0</ele><time>2026-05-02T13:38:47.665Z</time></trkpt><trkpt lat="37.0040989" lon="9.0939605"><ele>27.0</ele><time>2026-05-02T13:38:48.671Z</time></trkpt><trkpt lat="37.0041881" lon="9.0941399"><ele>27.0</ele><time>2026-05-02T13:38:49.639Z</time></trkpt><trkpt lat="37.0042797" lon="9.0943219"><ele>26.0</ele><time>2026-05-02T13:38:50.669Z</time></trkpt><trkpt lat="37.0043734" lon="9.0945067"><ele>25.0</ele><time>2026-05-02T13:38:51.665Z</time></trkpt><trkpt lat="37.0044661" lon="9.0946905"><ele>24.0</ele><time>2026-05-02T13:38:52.671Z</time></trkpt><trkpt lat="37.0045561" lon="9.0948744"><ele>25.666666666666664</ele><time>2026-05-02T13:38:53.665Z</time></trkpt><trkpt lat="37.0046477" lon="9.0950621"><ele>27.333333333333332</ele><time>2026-05-02T13:38:54.67Z</time></trkpt><trkpt lat="37.0047348" lon="9.0952506"><ele>29.0</ele><time>2026-05-02T13:38:55.664Z</time></trkpt><trkpt lat="37.0048219" lon="9.0954407"><ele>29.0</ele><time>2026-05-02T13:38:56.675Z</time></trkpt><trkpt lat="37.0049135" lon="9.0956252"><ele>29.0</ele><time>2026-05-02T13:38:57.675Z</time></trkpt><trkpt lat="37.0050027" lon="9.0958072"><ele>29.0</ele><time>2026-05-02T13:38:58.676Z</time></trkpt><trkpt lat="37.0050908" lon="9.0959894"><ele>27.333333333333332</ele><time>2026-05-02T13:38:59.669Z</time></trkpt><trkpt lat="37.0051816" lon="9.096164"><ele>25.666666666666664</ele><time>2026-05-02T13:39:00.68Z</time></trkpt><trkpt lat="37.0052661" lon="9.0963403"><ele>24.0</ele><time>2026-05-02T13:39:01.683Z</time></trkpt><trkpt lat="37.0053465" lon="9.0965152"><ele>24.666666666666664</ele><time>2026-05-02T13:39:02.676Z</time></trkpt><trkpt lat="37.0054253" lon="9.096693"><ele>25.333333333333332</ele><time>2026-05-02T13:39:03.67Z</time></trkpt><trkpt lat="37.0054992" lon="9.0968697"><ele>26.0</ele><time>2026-05-02T13:39:04.676Z</time></trkpt><trkpt lat="37.0055701" lon="9.0970416"><ele>26.0</ele><time>2026-05-02T13:39:05.679Z</time></trkpt><trkpt lat="37.0056373" lon="9.0972185"><ele>26.0</ele><time>2026-05-02T13:39:06.669Z</time></trkpt><trkpt lat="37.0057082" lon="9.0973959"><ele>26.0</ele><time>2026-05-02T13:39:07.667Z</time></trkpt><trkpt lat="37.0057781" lon="9.0975692"><ele>26.0</ele><time>2026-05-02T13:39:08.663Z</time></trkpt><trkpt lat="37.0058491" lon="9.0977505"><ele>26.0</ele><time>2026-05-02T13:39:09.66Z</time></trkpt><trkpt lat="37.0059206" lon="9.0979299"><ele>26.0</ele><time>2026-05-02T13:39:10.663Z</time></trkpt><trkpt lat="37.0059867" lon="9.0981098"><ele>26.666666666666664</ele><time>2026-05-02T13:39:11.678Z</time></trkpt><trkpt lat="37.0060517" lon="9.0982887"><ele>27.333333333333336</ele><time>2026-05-02T13:39:12.658Z</time></trkpt><trkpt lat="37.0061194" lon="9.0984608"><ele>28.0</ele><time>2026-05-02T13:39:13.672Z</time></trkpt><trkpt lat="37.0061803" lon="9.0986269"><ele>28.0</ele><time>2026-05-02T13:39:14.67Z</time></trkpt><trkpt lat="37.0062432" lon="9.0987894"><ele>28.0</ele><time>2026-05-02T13:39:15.675Z</time></trkpt><trkpt lat="37.0063014" lon="9.0989496"><ele>28.0</ele><time>2026-05-02T13:39:16.689Z</time></trkpt><trkpt lat="37.0063607" lon="9.0991109"><ele>28.0</ele><time>2026-05-02T13:39:17.664Z</time></trkpt><trkpt lat="37.0064231" lon="9.0992738"><ele>29.0</ele><time>2026-05-02T13:39:18.67Z</time></trkpt><trkpt lat="37.0064913" lon="9.099438"><ele>30.0</ele><time>2026-05-02T13:39:19.675Z</time></trkpt><trkpt lat="37.0065574" lon="9.09961"><ele>31.0</ele><time>2026-05-02T13:39:20.659Z</time></trkpt><trkpt lat="37.006624" lon="9.0997833"><ele>29.0</ele><time>2026-05-02T13:39:21.669Z</time></trkpt><trkpt lat="37.0066915" lon="9.0999573"><ele>27.0</ele><time>2026-05-02T13:39:22.644Z</time></trkpt><trkpt lat="37.0067574" lon="9.1001285"><ele>25.0</ele><time>2026-05-02T13:39:23.656Z</time></trkpt><trkpt lat="37.006822" lon="9.1003001"><ele>25.0</ele><time>2026-05-02T13:39:24.68Z</time></trkpt><trkpt lat="37.006885" lon="9.1004707"><ele>25.0</ele><time>2026-05-02T13:39:25.667Z</time></trkpt><trkpt lat="37.0069492" lon="9.1006465"><ele>25.0</ele><time>2026-05-02T13:39:26.668Z</time></trkpt><trkpt lat="37.007011" lon="9.1008171"><ele>26.0</ele><time>2026-05-02T13:39:27.677Z</time></trkpt><trkpt lat="37.0070701" lon="9.1009897"><ele>27.0</ele><time>2026-05-02T13:39:28.667Z</time></trkpt><trkpt lat="37.0071406" lon="9.101161"><ele>28.0</ele><time>2026-05-02T13:39:29.684Z</time></trkpt><trkpt lat="37.0072107" lon="9.1013332"><ele>28.0</ele><time>2026-05-02T13:39:30.659Z</time></trkpt><trkpt lat="37.0072797" lon="9.1015048"><ele>28.0</ele><time>2026-05-02T13:39:31.662Z</time></trkpt><trkpt lat="37.0073449" lon="9.1016714"><ele>28.0</ele><time>2026-05-02T13:39:32.664Z</time></trkpt><trkpt lat="37.0074123" lon="9.1018383"><ele>27.333333333333336</ele><time>2026-05-02T13:39:33.665Z</time></trkpt><trkpt lat="37.0074816" lon="9.1020107"><ele>26.666666666666664</ele><time>2026-05-02T13:39:34.659Z</time></trkpt><trkpt lat="37.0075522" lon="9.1021874"><ele>26.0</ele><time>2026-05-02T13:39:35.664Z</time></trkpt><trkpt lat="37.0076201" lon="9.102366"><ele>26.333333333333332</ele><time>2026-05-02T13:39:36.649Z</time></trkpt><trkpt lat="37.0076876" lon="9.1025455"><ele>26.666666666666664</ele><time>2026-05-02T13:39:37.657Z</time></trkpt><trkpt lat="37.0077594" lon="9.1027273"><ele>27.0</ele><time>2026-05-02T13:39:38.662Z</time></trkpt><trkpt lat="37.0078384" lon="9.1029053"><ele>27.0</ele><time>2026-05-02T13:39:39.669Z</time></trkpt><trkpt lat="37.0079214" lon="9.1030773"><ele>27.0</ele><time>2026-05-02T13:39:40.669Z</time></trkpt><trkpt lat="37.0080071" lon="9.1032434"><ele>27.0</ele><time>2026-05-02T13:39:41.657Z</time></trkpt><trkpt lat="37.008094" lon="9.1034052"><ele>26.666666666666664</ele><time>2026-05-02T13:39:42.672Z</time></trkpt><trkpt lat="37.0081896" lon="9.1035611"><ele>26.333333333333332</ele><time>2026-05-02T13:39:43.665Z</time></trkpt><trkpt lat="37.0082912" lon="9.1037152"><ele>26.0</ele><time>2026-05-02T13:39:44.656Z</time></trkpt><trkpt lat="37.0083975" lon="9.1038621"><ele>26.0</ele><time>2026-05-02T13:39:45.669Z</time></trkpt><trkpt lat="37.0085097" lon="9.1040031"><ele>26.0</ele><time>2026-05-02T13:39:46.656Z</time></trkpt><trkpt lat="37.0086259" lon="9.1041356"><ele>26.0</ele><time>2026-05-02T13:39:47.679Z</time></trkpt><trkpt lat="37.0087433" lon="9.104262"><ele>26.333333333333332</ele><time>2026-05-02T13:39:48.671Z</time></trkpt><trkpt lat="37.0088693" lon="9.1043799"><ele>26.666666666666664</ele><time>2026-05-02T13:39:49.665Z</time></trkpt><trkpt lat="37.0089943" lon="9.1044976"><ele>27.0</ele><time>2026-05-02T13:39:50.662Z</time></trkpt><trkpt lat="37.0091187" lon="9.1046041"><ele>27.0</ele><time>2026-05-02T13:39:51.664Z</time></trkpt><trkpt lat="37.0092448" lon="9.1046966"><ele>27.0</ele><time>2026-05-02T13:39:52.664Z</time></trkpt><trkpt lat="37.0093731" lon="9.1047846"><ele>27.0</ele><time>2026-05-02T13:39:53.678Z</time></trkpt><trkpt lat="37.0095022" lon="9.1048576"><ele>27.0</ele><time>2026-05-02T13:39:54.675Z</time></trkpt><trkpt lat="37.0096405" lon="9.1049305"><ele>27.333333333333336</ele><time>2026-05-02T13:39:55.668Z</time></trkpt><trkpt lat="37.0097816" lon="9.105002"><ele>27.666666666666668</ele><time>2026-05-02T13:39:56.674Z</time></trkpt><trkpt lat="37.0099227" lon="9.1050669"><ele>28.0</ele><time>2026-05-02T13:39:57.674Z</time></trkpt><trkpt lat="37.0100655" lon="9.105125"><ele>28.0</ele><time>2026-05-02T13:39:58.674Z</time></trkpt><trkpt lat="37.0102095" lon="9.1051815"><ele>28.0</ele><time>2026-05-02T13:39:59.659Z</time></trkpt><trkpt lat="37.0103623" lon="9.1052272"><ele>28.0</ele><time>2026-05-02T13:40:00.68Z</time></trkpt><trkpt lat="37.0105186" lon="9.1052612"><ele>28.0</ele><time>2026-05-02T13:40:01.652Z</time></trkpt><trkpt lat="37.010687" lon="9.1052947"><ele>28.0</ele><time>2026-05-02T13:40:02.671Z</time></trkpt><trkpt lat="37.0108696" lon="9.1053219"><ele>28.0</ele><time>2026-05-02T13:40:03.679Z</time></trkpt><trkpt lat="37.0110593" lon="9.1053323"><ele>27.333333333333336</ele><time>2026-05-02T13:40:04.685Z</time></trkpt><trkpt lat="37.0112492" lon="9.1053245"><ele>26.666666666666664</ele><time>2026-05-02T13:40:05.674Z</time></trkpt><trkpt lat="37.0114374" lon="9.1053165"><ele>26.0</ele><time>2026-05-02T13:40:06.669Z</time></trkpt><trkpt lat="37.011626" lon="9.1052967"><ele>26.666666666666664</ele><time>2026-05-02T13:40:07.661Z</time></trkpt><trkpt lat="37.011824" lon="9.1052523"><ele>27.333333333333336</ele><time>2026-05-02T13:40:08.654Z</time></trkpt><trkpt lat="37.0120439" lon="9.1051843"><ele>28.0</ele><time>2026-05-02T13:40:09.673Z</time></trkpt><trkpt lat="37.0122911" lon="9.1050913"><ele>27.0</ele><time>2026-05-02T13:40:10.653Z</time></trkpt><trkpt lat="37.0125461" lon="9.1049871"><ele>26.0</ele><time>2026-05-02T13:40:11.668Z</time></trkpt><trkpt lat="37.0128019" lon="9.1048751"><ele>26.0</ele><time>2026-05-02T13:40:12.668Z</time></trkpt><trkpt lat="37.013046" lon="9.1047721"><ele>26.0</ele><time>2026-05-02T13:40:13.672Z</time></trkpt><trkpt lat="37.0132739" lon="9.1046712"><ele>26.333333333333332</ele><time>2026-05-02T13:40:14.655Z</time></trkpt><trkpt lat="37.0134808" lon="9.1045761"><ele>26.666666666666664</ele><time>2026-05-02T13:40:15.672Z</time></trkpt><trkpt lat="37.0136682" lon="9.1044884"><ele>27.0</ele><time>2026-05-02T13:40:16.673Z</time></trkpt><trkpt lat="37.0138534" lon="9.1044041"><ele>27.0</ele><time>2026-05-02T13:40:17.68Z</time></trkpt><trkpt lat="37.0140355" lon="9.104312"><ele>27.0</ele><time>2026-05-02T13:40:18.667Z</time></trkpt><trkpt lat="37.0142144" lon="9.1042263"><ele>27.0</ele><time>2026-05-02T13:40:19.662Z</time></trkpt><trkpt lat="37.0143924" lon="9.1041398"><ele>27.0</ele><time>2026-05-02T13:40:20.646Z</time></trkpt><trkpt lat="37.0145702" lon="9.1040685"><ele>27.0</ele><time>2026-05-02T13:40:21.648Z</time></trkpt><trkpt lat="37.0147372" lon="9.1040084"><ele>27.0</ele><time>2026-05-02T13:40:22.668Z</time></trkpt><trkpt lat="37.0149058" lon="9.1039522"><ele>27.0</ele><time>2026-05-02T13:40:23.678Z</time></trkpt><trkpt lat="37.0150825" lon="9.1038993"><ele>27.0</ele><time>2026-05-02T13:40:24.653Z</time></trkpt><trkpt lat="37.0152619" lon="9.1038635"><ele>27.0</ele><time>2026-05-02T13:40:25.666Z</time></trkpt><trkpt lat="37.0154428" lon="9.1038358"><ele>27.0</ele><time>2026-05-02T13:40:26.658Z</time></trkpt><trkpt lat="37.0156228" lon="9.1038286"><ele>27.0</ele><time>2026-05-02T13:40:27.667Z</time></trkpt><trkpt lat="37.0157963" lon="9.1038305"><ele>27.0</ele><time>2026-05-02T13:40:28.668Z</time></trkpt><trkpt lat="37.0159762" lon="9.1038405"><ele>27.0</ele><time>2026-05-02T13:40:29.676Z</time></trkpt><trkpt lat="37.0161474" lon="9.1038538"><ele>27.0</ele><time>2026-05-02T13:40:30.667Z</time></trkpt><trkpt lat="37.0163104" lon="9.1038794"><ele>27.0</ele><time>2026-05-02T13:40:31.664Z</time></trkpt><trkpt lat="37.0164535" lon="9.1039211"><ele>27.0</ele><time>2026-05-02T13:40:32.666Z</time></trkpt><trkpt lat="37.0165974" lon="9.1039627"><ele>27.0</ele><time>2026-05-02T13:40:33.677Z</time></trkpt><trkpt lat="37.0167314" lon="9.1040053"><ele>27.0</ele><time>2026-05-02T13:40:34.676Z</time></trkpt><trkpt lat="37.0168524" lon="9.1040474"><ele>27.0</ele><time>2026-05-02T13:40:35.666Z</time></trkpt><trkpt lat="37.0169709" lon="9.1040899"><ele>28.400000000000002</ele><time>2026-05-02T13:40:36.648Z</time></trkpt><trkpt lat="37.0170754" lon="9.1041123"><ele>29.800000000000004</ele><time>2026-05-02T13:40:37.657Z</time></trkpt><trkpt lat="37.0171687" lon="9.1041294"><ele>31.2</ele><time>2026-05-02T13:40:38.664Z</time></trkpt><trkpt lat="37.01726" lon="9.104132"><ele>32.6</ele><time>2026-05-02T13:40:39.653Z</time></trkpt><trkpt lat="37.0173457" lon="9.1041165"><ele>34.0</ele><time>2026-05-02T13:40:40.668Z</time></trkpt><trkpt lat="37.0174281" lon="9.1040929"><ele>33.16666666666667</ele><time>2026-05-02T13:40:41.679Z</time></trkpt><trkpt lat="37.0175189" lon="9.1040842"><ele>32.333333333333336</ele><time>2026-05-02T13:40:42.676Z</time></trkpt><trkpt lat="37.0175977" lon="9.1040809"><ele>31.5</ele><time>2026-05-02T13:40:43.65Z</time></trkpt><trkpt lat="37.0176781" lon="9.1040872"><ele>30.666666666666664</ele><time>2026-05-02T13:40:44.658Z</time></trkpt><trkpt lat="37.0177533" lon="9.1040992"><ele>29.833333333333332</ele><time>2026-05-02T13:40:45.659Z</time></trkpt><trkpt lat="37.0178279" lon="9.1041147"><ele>29.0</ele><time>2026-05-02T13:40:46.657Z</time></trkpt><trkpt lat="37.0178957" lon="9.1041382"><ele>28.999999999999996</ele><time>2026-05-02T13:40:47.667Z</time></trkpt><trkpt lat="37.0179563" lon="9.1041614"><ele>29.0</ele><time>2026-05-02T13:40:48.667Z</time></trkpt><trkpt lat="37.0180276" lon="9.1041884"><ele>29.0</ele><time>2026-05-02T13:40:50.66Z</time></trkpt><trkpt lat="37.0181055" lon="9.1042119"><ele>29.0</ele><time>2026-05-02T13:40:53.685Z</time></trkpt><trkpt lat="37.0181994" lon="9.1042261"><ele>28.999999999999996</ele><time>2026-05-02T13:40:56.688Z</time></trkpt><trkpt lat="37.0183066" lon="9.1042625"><ele>29.0</ele><time>2026-05-02T13:40:58.658Z</time></trkpt><trkpt lat="37.01843" lon="9.1043243"><ele>28.999999999999996</ele><time>2026-05-02T13:41:00.666Z</time></trkpt><trkpt lat="37.0184964" lon="9.1043533"><ele>29.0</ele><time>2026-05-02T13:41:01.66Z</time></trkpt><trkpt lat="37.0185715" lon="9.1043868"><ele>29.0</ele><time>2026-05-02T13:41:02.665Z</time></trkpt><trkpt lat="37.0186474" lon="9.1044182"><ele>29.0</ele><time>2026-05-02T13:41:03.663Z</time></trkpt><trkpt lat="37.0187208" lon="9.1044586"><ele>28.999999999999996</ele><time>2026-05-02T13:41:04.665Z</time></trkpt><trkpt lat="37.018797" lon="9.1044948"><ele>29.0</ele><time>2026-05-02T13:41:05.659Z</time></trkpt><trkpt lat="37.018877" lon="9.1045341"><ele>29.0</ele><time>2026-05-02T13:41:06.67Z</time></trkpt><trkpt lat="37.0189552" lon="9.1045789"><ele>29.0</ele><time>2026-05-02T13:41:07.663Z</time></trkpt><trkpt lat="37.0190355" lon="9.1046419"><ele>29.0</ele><time>2026-05-02T13:41:08.683Z</time></trkpt><trkpt lat="37.0191141" lon="9.1047064"><ele>29.0</ele><time>2026-05-02T13:41:09.659Z</time></trkpt><trkpt lat="37.0191936" lon="9.1047772"><ele>29.0</ele><time>2026-05-02T13:41:10.649Z</time></trkpt><trkpt lat="37.0192796" lon="9.1048349"><ele>28.5</ele><time>2026-05-02T13:41:11.65Z</time></trkpt><trkpt lat="37.0193818" lon="9.1048865"><ele>28.0</ele><time>2026-05-02T13:41:12.671Z</time></trkpt><trkpt lat="37.0195039" lon="9.1049375"><ele>27.5</ele><time>2026-05-02T13:41:13.662Z</time></trkpt><trkpt lat="37.019646" lon="9.1049781"><ele>27.0</ele><time>2026-05-02T13:41:14.665Z</time></trkpt><trkpt lat="37.0198078" lon="9.1050231"><ele>26.666666666666664</ele><time>2026-05-02T13:41:15.681Z</time></trkpt><trkpt lat="37.0200088" lon="9.1050706"><ele>26.333333333333332</ele><time>2026-05-02T13:41:16.663Z</time></trkpt><trkpt lat="37.0202411" lon="9.105119"><ele>26.0</ele><time>2026-05-02T13:41:17.645Z</time></trkpt><trkpt lat="37.0205147" lon="9.1051706"><ele>26.0</ele><time>2026-05-02T13:41:18.65Z</time></trkpt><trkpt lat="37.0208083" lon="9.1052121"><ele>26.0</ele><time>2026-05-02T13:41:19.67Z</time></trkpt><trkpt lat="37.0211185" lon="9.1052697"><ele>27.0</ele><time>2026-05-02T13:41:20.661Z</time></trkpt><trkpt lat="37.0214146" lon="9.1053351"><ele>28.0</ele><time>2026-05-02T13:41:21.654Z</time></trkpt><trkpt lat="37.0216889" lon="9.1053954"><ele>28.0</ele><time>2026-05-02T13:41:22.67Z</time></trkpt><trkpt lat="37.0219426" lon="9.10545"><ele>28.0</ele><time>2026-05-02T13:41:23.672Z</time></trkpt><trkpt lat="37.0221729" lon="9.1055013"><ele>28.0</ele><time>2026-05-02T13:41:24.653Z</time></trkpt><trkpt lat="37.0223938" lon="9.1055504"><ele>28.0</ele><time>2026-05-02T13:41:25.652Z</time></trkpt><trkpt lat="37.0226047" lon="9.1055917"><ele>28.0</ele><time>2026-05-02T13:41:26.654Z</time></trkpt><trkpt lat="37.0228072" lon="9.1056281"><ele>28.666666666666668</ele><time>2026-05-02T13:41:27.683Z</time></trkpt><trkpt lat="37.0229976" lon="9.1056591"><ele>29.333333333333336</ele><time>2026-05-02T13:41:28.655Z</time></trkpt><trkpt lat="37.023186" lon="9.1056959"><ele>30.0</ele><time>2026-05-02T13:41:29.675Z</time></trkpt><trkpt lat="37.0233693" lon="9.1057181"><ele>30.333333333333336</ele><time>2026-05-02T13:41:30.669Z</time></trkpt><trkpt lat="37.0235507" lon="9.1057358"><ele>30.666666666666668</ele><time>2026-05-02T13:41:31.668Z</time></trkpt><trkpt lat="37.0237224" lon="9.1057304"><ele>31.0</ele><time>2026-05-02T13:41:32.652Z</time></trkpt><trkpt lat="37.0238751" lon="9.105712"><ele>31.0</ele><time>2026-05-02T13:41:33.668Z</time></trkpt><trkpt lat="37.0240291" lon="9.1056487"><ele>31.0</ele><time>2026-05-02T13:41:34.668Z</time></trkpt><trkpt lat="37.0241898" lon="9.1055389"><ele>31.0</ele><time>2026-05-02T13:41:35.671Z</time></trkpt><trkpt lat="37.024344" lon="9.1054006"><ele>31.5</ele><time>2026-05-02T13:41:36.672Z</time></trkpt><trkpt lat="37.0245103" lon="9.1052283"><ele>32.0</ele><time>2026-05-02T13:41:37.651Z</time></trkpt><trkpt lat="37.0246814" lon="9.1050178"><ele>32.0</ele><time>2026-05-02T13:41:38.666Z</time></trkpt><trkpt lat="37.0248631" lon="9.1047736"><ele>32.0</ele><time>2026-05-02T13:41:39.672Z</time></trkpt><trkpt lat="37.0250468" lon="9.1045232"><ele>32.0</ele><time>2026-05-02T13:41:40.677Z</time></trkpt><trkpt lat="37.0252087" lon="9.1042912"><ele>32.0</ele><time>2026-05-02T13:41:41.652Z</time></trkpt><trkpt lat="37.0253505" lon="9.1040864"><ele>36.0</ele><time>2026-05-02T13:41:42.664Z</time></trkpt><trkpt lat="37.0254862" lon="9.1038942"><ele>40.0</ele><time>2026-05-02T13:41:43.652Z</time></trkpt><trkpt lat="37.0256164" lon="9.103706"><ele>44.0</ele><time>2026-05-02T13:41:44.662Z</time></trkpt><trkpt lat="37.0257532" lon="9.103521"><ele>44.33333333333333</ele><time>2026-05-02T13:41:45.656Z</time></trkpt><trkpt lat="37.0258871" lon="9.1033389"><ele>44.666666666666664</ele><time>2026-05-02T13:41:46.66Z</time></trkpt><trkpt lat="37.026026" lon="9.1031553"><ele>45.0</ele><time>2026-05-02T13:41:47.671Z</time></trkpt><trkpt lat="37.0261635" lon="9.1029776"><ele>41.0</ele><time>2026-05-02T13:41:48.656Z</time></trkpt><trkpt lat="37.0262965" lon="9.1028121"><ele>37.0</ele><time>2026-05-02T13:41:49.661Z</time></trkpt><trkpt lat="37.0264238" lon="9.1026562"><ele>33.0</ele><time>2026-05-02T13:41:50.672Z</time></trkpt><trkpt lat="37.0265448" lon="9.1025081"><ele>31.666666666666664</ele><time>2026-05-02T13:41:51.664Z</time></trkpt><trkpt lat="37.0266583" lon="9.102378"><ele>30.333333333333332</ele><time>2026-05-02T13:41:52.648Z</time></trkpt><trkpt lat="37.0267663" lon="9.1022433"><ele>29.0</ele><time>2026-05-02T13:41:53.644Z</time></trkpt><trkpt lat="37.0268812" lon="9.1021056"><ele>29.0</ele><time>2026-05-02T13:41:54.667Z</time></trkpt><trkpt lat="37.0269949" lon="9.1019729"><ele>29.0</ele><time>2026-05-02T13:41:55.692Z</time></trkpt><trkpt lat="37.0271096" lon="9.101843"><ele>29.0</ele><time>2026-05-02T13:41:56.671Z</time></trkpt><trkpt lat="37.0272265" lon="9.1017256"><ele>29.0</ele><time>2026-05-02T13:41:57.657Z</time></trkpt><trkpt lat="37.0273535" lon="9.1016199"><ele>29.0</ele><time>2026-05-02T13:41:58.665Z</time></trkpt><trkpt lat="37.0274854" lon="9.1015276"><ele>29.0</ele><time>2026-05-02T13:41:59.645Z</time></trkpt><trkpt lat="37.0276162" lon="9.1014388"><ele>29.75</ele><time>2026-05-02T13:42:00.662Z</time></trkpt><trkpt lat="37.0277569" lon="9.1013659"><ele>30.5</ele><time>2026-05-02T13:42:01.669Z</time></trkpt><trkpt lat="37.0278944" lon="9.1013059"><ele>31.25</ele><time>2026-05-02T13:42:02.653Z</time></trkpt><trkpt lat="37.0280364" lon="9.1012699"><ele>32.0</ele><time>2026-05-02T13:42:03.664Z</time></trkpt><trkpt lat="37.0281788" lon="9.1012498"><ele>32.0</ele><time>2026-05-02T13:42:04.663Z</time></trkpt><trkpt lat="37.0283353" lon="9.1012411"><ele>32.0</ele><time>2026-05-02T13:42:05.659Z</time></trkpt><trkpt lat="37.0285002" lon="9.1012554"><ele>32.0</ele><time>2026-05-02T13:42:06.692Z</time></trkpt><trkpt lat="37.0286663" lon="9.1012855"><ele>32.0</ele><time>2026-05-02T13:42:07.658Z</time></trkpt><trkpt lat="37.028832" lon="9.1013161"><ele>32.0</ele><time>2026-05-02T13:42:08.676Z</time></trkpt><trkpt lat="37.0289794" lon="9.1013276"><ele>32.0</ele><time>2026-05-02T13:42:09.706Z</time></trkpt><trkpt lat="37.0291339" lon="9.1013174"><ele>32.666666666666664</ele><time>2026-05-02T13:42:10.649Z</time></trkpt><trkpt lat="37.0292879" lon="9.101283"><ele>33.333333333333336</ele><time>2026-05-02T13:42:11.671Z</time></trkpt><trkpt lat="37.0294378" lon="9.101217"><ele>34.0</ele><time>2026-05-02T13:42:12.665Z</time></trkpt><trkpt lat="37.0295862" lon="9.1011417"><ele>34.0</ele><time>2026-05-02T13:42:13.669Z</time></trkpt><trkpt lat="37.0297525" lon="9.1010247"><ele>34.0</ele><time>2026-05-02T13:42:14.668Z</time></trkpt><trkpt lat="37.0299292" lon="9.1008781"><ele>34.0</ele><time>2026-05-02T13:42:15.67Z</time></trkpt><trkpt lat="37.0300929" lon="9.100756"><ele>34.0</ele><time>2026-05-02T13:42:16.66Z</time></trkpt><trkpt lat="37.0302387" lon="9.1006473"><ele>34.0</ele><time>2026-05-02T13:42:17.66Z</time></trkpt><trkpt lat="37.0303887" lon="9.1005523"><ele>34.0</ele><time>2026-05-02T13:42:18.67Z</time></trkpt><trkpt lat="37.0305443" lon="9.1004393"><ele>34.0</ele><time>2026-05-02T13:42:19.663Z</time></trkpt><trkpt lat="37.0306961" lon="9.1003347"><ele>34.0</ele><time>2026-05-02T13:42:20.668Z</time></trkpt><trkpt lat="37.0308464" lon="9.1002338"><ele>34.0</ele><time>2026-05-02T13:42:21.675Z</time></trkpt><trkpt lat="37.0309937" lon="9.1001501"><ele>34.333333333333336</ele><time>2026-05-02T13:42:22.665Z</time></trkpt><trkpt lat="37.0311448" lon="9.1001029"><ele>34.666666666666664</ele><time>2026-05-02T13:42:23.666Z</time></trkpt><trkpt lat="37.0313029" lon="9.1000671"><ele>35.0</ele><time>2026-05-02T13:42:24.659Z</time></trkpt><trkpt lat="37.0314611" lon="9.1000622"><ele>35.0</ele><time>2026-05-02T13:42:25.654Z</time></trkpt><trkpt lat="37.0316143" lon="9.1000972"><ele>35.0</ele><time>2026-05-02T13:42:26.682Z</time></trkpt><trkpt lat="37.031771" lon="9.100148"><ele>35.0</ele><time>2026-05-02T13:42:27.67Z</time></trkpt><trkpt lat="37.0319366" lon="9.1002355"><ele>35.666666666666664</ele><time>2026-05-02T13:42:28.648Z</time></trkpt><trkpt lat="37.0321057" lon="9.1003674"><ele>36.333333333333336</ele><time>2026-05-02T13:42:29.66Z</time></trkpt><trkpt lat="37.0322755" lon="9.1005087"><ele>37.0</ele><time>2026-05-02T13:42:30.664Z</time></trkpt><trkpt lat="37.0324312" lon="9.100637"><ele>38.0</ele><time>2026-05-02T13:42:31.664Z</time></trkpt><trkpt lat="37.0325674" lon="9.1007495"><ele>39.0</ele><time>2026-05-02T13:42:32.667Z</time></trkpt><trkpt lat="37.0326997" lon="9.1008431"><ele>40.0</ele><time>2026-05-02T13:42:33.671Z</time></trkpt><trkpt lat="37.0328432" lon="9.1009295"><ele>40.0</ele><time>2026-05-02T13:42:34.661Z</time></trkpt><trkpt lat="37.0329904" lon="9.101005"><ele>40.0</ele><time>2026-05-02T13:42:35.669Z</time></trkpt><trkpt lat="37.0331382" lon="9.1010799"><ele>40.0</ele><time>2026-05-02T13:42:36.665Z</time></trkpt><trkpt lat="37.0332893" lon="9.101156"><ele>38.66666666666667</ele><time>2026-05-02T13:42:37.674Z</time></trkpt><trkpt lat="37.0334426" lon="9.101224"><ele>37.333333333333336</ele><time>2026-05-02T13:42:38.657Z</time></trkpt><trkpt lat="37.0335958" lon="9.1012737"><ele>36.0</ele><time>2026-05-02T13:42:39.665Z</time></trkpt><trkpt lat="37.0337391" lon="9.1013128"><ele>36.0</ele><time>2026-05-02T13:42:40.67Z</time></trkpt><trkpt lat="37.0338848" lon="9.1013523"><ele>36.0</ele><time>2026-05-02T13:42:41.665Z</time></trkpt><trkpt lat="37.0340318" lon="9.1014067"><ele>36.0</ele><time>2026-05-02T13:42:42.682Z</time></trkpt><trkpt lat="37.0341793" lon="9.1014558"><ele>35.75</ele><time>2026-05-02T13:42:43.678Z</time></trkpt><trkpt lat="37.0343207" lon="9.1015046"><ele>35.5</ele><time>2026-05-02T13:42:44.661Z</time></trkpt><trkpt lat="37.0344618" lon="9.1015632"><ele>35.25</ele><time>2026-05-02T13:42:45.659Z</time></trkpt><trkpt lat="37.0346053" lon="9.1016213"><ele>35.0</ele><time>2026-05-02T13:42:46.664Z</time></trkpt><trkpt lat="37.0347493" lon="9.1016814"><ele>37.33333333333333</ele><time>2026-05-02T13:42:47.665Z</time></trkpt><trkpt lat="37.0348899" lon="9.1017367"><ele>39.666666666666664</ele><time>2026-05-02T13:42:48.669Z</time></trkpt><trkpt lat="37.0350355" lon="9.1017945"><ele>42.0</ele><time>2026-05-02T13:42:49.66Z</time></trkpt><trkpt lat="37.035183" lon="9.1018564"><ele>42.0</ele><time>2026-05-02T13:42:50.658Z</time></trkpt><trkpt lat="37.0353293" lon="9.1019196"><ele>42.0</ele><time>2026-05-02T13:42:51.652Z</time></trkpt><trkpt lat="37.0354789" lon="9.1019838"><ele>42.0</ele><time>2026-05-02T13:42:52.649Z</time></trkpt><trkpt lat="37.0356291" lon="9.102045"><ele>42.0</ele><time>2026-05-02T13:42:53.662Z</time></trkpt><trkpt lat="37.0357808" lon="9.1021031"><ele>42.0</ele><time>2026-05-02T13:42:54.656Z</time></trkpt><trkpt lat="37.0359323" lon="9.1021635"><ele>42.0</ele><time>2026-05-02T13:42:55.655Z</time></trkpt><trkpt lat="37.0360844" lon="9.1022276"><ele>40.0</ele><time>2026-05-02T13:42:56.681Z</time></trkpt><trkpt lat="37.0362385" lon="9.1022921"><ele>38.0</ele><time>2026-05-02T13:42:57.658Z</time></trkpt><trkpt lat="37.0363944" lon="9.1023541"><ele>36.0</ele><time>2026-05-02T13:42:58.672Z</time></trkpt><trkpt lat="37.0365506" lon="9.1024098"><ele>39.0</ele><time>2026-05-02T13:42:59.672Z</time></trkpt><trkpt lat="37.0367014" lon="9.1024634"><ele>42.0</ele><time>2026-05-02T13:43:00.667Z</time></trkpt><trkpt lat="37.0368537" lon="9.1025236"><ele>45.0</ele><time>2026-05-02T13:43:01.664Z</time></trkpt><trkpt lat="37.037" lon="9.1025959"><ele>45.0</ele><time>2026-05-02T13:43:02.673Z</time></trkpt><trkpt lat="37.0371477" lon="9.1026685"><ele>45.0</ele><time>2026-05-02T13:43:03.671Z</time></trkpt><trkpt lat="37.0372933" lon="9.1027394"><ele>45.0</ele><time>2026-05-02T13:43:04.674Z</time></trkpt><trkpt lat="37.0374445" lon="9.102815"><ele>43.666666666666664</ele><time>2026-05-02T13:43:05.67Z</time></trkpt><trkpt lat="37.0375891" lon="9.1028951"><ele>42.33333333333333</ele><time>2026-05-02T13:43:06.659Z</time></trkpt><trkpt lat="37.0377303" lon="9.1029815"><ele>41.0</ele><time>2026-05-02T13:43:07.67Z</time></trkpt><trkpt lat="37.0378682" lon="9.1030677"><ele>41.0</ele><time>2026-05-02T13:43:08.663Z</time></trkpt><trkpt lat="37.0380058" lon="9.1031606"><ele>41.0</ele><time>2026-05-02T13:43:09.659Z</time></trkpt><trkpt lat="37.0381323" lon="9.1032638"><ele>41.0</ele><time>2026-05-02T13:43:10.66Z</time></trkpt><trkpt lat="37.0382595" lon="9.1033695"><ele>41.25</ele><time>2026-05-02T13:43:11.654Z</time></trkpt><trkpt lat="37.0383782" lon="9.1034722"><ele>41.5</ele><time>2026-05-02T13:43:12.686Z</time></trkpt><trkpt lat="37.0384763" lon="9.1035661"><ele>41.75</ele><time>2026-05-02T13:43:13.655Z</time></trkpt><trkpt lat="37.0385553" lon="9.103639"><ele>42.0</ele><time>2026-05-02T13:43:14.675Z</time></trkpt><trkpt lat="37.0386286" lon="9.1036994"><ele>42.0</ele><time>2026-05-02T13:43:15.662Z</time></trkpt><trkpt lat="37.0387019" lon="9.1037683"><ele>42.0</ele><time>2026-05-02T13:43:16.66Z</time></trkpt><trkpt lat="37.0387662" lon="9.103835"><ele>42.0</ele><time>2026-05-02T13:43:17.665Z</time></trkpt><trkpt lat="37.0388353" lon="9.1039114"><ele>42.0</ele><time>2026-05-02T13:43:18.657Z</time></trkpt><trkpt lat="37.0389067" lon="9.1039999"><ele>42.0</ele><time>2026-05-02T13:43:19.684Z</time></trkpt><trkpt lat="37.038977" lon="9.104085"><ele>42.5</ele><time>2026-05-02T13:43:20.659Z</time></trkpt><trkpt lat="37.0390421" lon="9.104162"><ele>43.0</ele><time>2026-05-02T13:43:21.67Z</time></trkpt><trkpt lat="37.0391073" lon="9.1042338"><ele>43.5</ele><time>2026-05-02T13:43:22.665Z</time></trkpt><trkpt lat="37.0391676" lon="9.1043028"><ele>44.0</ele><time>2026-05-02T13:43:23.673Z</time></trkpt><trkpt lat="37.039223" lon="9.1043721"><ele>44.5</ele><time>2026-05-02T13:43:24.648Z</time></trkpt><trkpt lat="37.03928" lon="9.1044445"><ele>45.0</ele><time>2026-05-02T13:43:25.665Z</time></trkpt><trkpt lat="37.0393342" lon="9.1045153"><ele>45.0</ele><time>2026-05-02T13:43:26.661Z</time></trkpt><trkpt lat="37.0393886" lon="9.1045822"><ele>45.0</ele><time>2026-05-02T13:43:27.671Z</time></trkpt><trkpt lat="37.0394394" lon="9.104653"><ele>45.0</ele><time>2026-05-02T13:43:28.654Z</time></trkpt><trkpt lat="37.0394883" lon="9.1047243"><ele>45.0</ele><time>2026-05-02T13:43:29.661Z</time></trkpt><trkpt lat="37.0395381" lon="9.1047858"><ele>45.0</ele><time>2026-05-02T13:43:30.666Z</time></trkpt><trkpt lat="37.0395879" lon="9.1048458"><ele>45.0</ele><time>2026-05-02T13:43:31.66Z</time></trkpt><trkpt lat="37.0396387" lon="9.1049011"><ele>45.0</ele><time>2026-05-02T13:43:32.647Z</time></trkpt><trkpt lat="37.0397272" lon="9.1050097"><ele>44.5</ele><time>2026-05-02T13:43:34.661Z</time></trkpt><trkpt lat="37.0398104" lon="9.1051122"><ele>44.0</ele><time>2026-05-02T13:43:36.664Z</time></trkpt><trkpt lat="37.0398567" lon="9.1051749"><ele>43.5</ele><time>2026-05-02T13:43:37.654Z</time></trkpt><trkpt lat="37.039906" lon="9.1052362"><ele>43.0</ele><time>2026-05-02T13:43:38.672Z</time></trkpt><trkpt lat="37.0399584" lon="9.1053048"><ele>42.5</ele><time>2026-05-02T13:43:39.671Z</time></trkpt><trkpt lat="37.0400137" lon="9.1053754"><ele>42.0</ele><time>2026-05-02T13:43:40.664Z</time></trkpt><trkpt lat="37.0400634" lon="9.1054328"><ele>42.0</ele><time>2026-05-02T13:43:41.662Z</time></trkpt><trkpt lat="37.0401131" lon="9.1054886"><ele>42.0</ele><time>2026-05-02T13:43:42.661Z</time></trkpt><trkpt lat="37.04016" lon="9.1055468"><ele>42.0</ele><time>2026-05-02T13:43:43.673Z</time></trkpt><trkpt lat="37.04022" lon="9.1056268"><ele>42.0</ele><time>2026-05-02T13:43:44.673Z</time></trkpt><trkpt lat="37.040304" lon="9.1057332"><ele>42.0</ele><time>2026-05-02T13:43:45.673Z</time></trkpt><trkpt lat="37.0404261" lon="9.1058763"><ele>42.666666666666664</ele><time>2026-05-02T13:43:46.666Z</time></trkpt><trkpt lat="37.0405757" lon="9.1060359"><ele>43.33333333333333</ele><time>2026-05-02T13:43:47.668Z</time></trkpt><trkpt lat="37.0407623" lon="9.1062201"><ele>44.0</ele><time>2026-05-02T13:43:48.662Z</time></trkpt><trkpt lat="37.0409722" lon="9.106398"><ele>48.0</ele><time>2026-05-02T13:43:49.678Z</time></trkpt><trkpt lat="37.0412265" lon="9.1065892"><ele>52.0</ele><time>2026-05-02T13:43:50.662Z</time></trkpt><trkpt lat="37.0415018" lon="9.1067622"><ele>51.0</ele><time>2026-05-02T13:43:51.661Z</time></trkpt><trkpt lat="37.041791" lon="9.106942"><ele>50.0</ele><time>2026-05-02T13:43:52.653Z</time></trkpt><trkpt lat="37.0420926" lon="9.1071118"><ele>50.0</ele><time>2026-05-02T13:43:53.659Z</time></trkpt><trkpt lat="37.0423787" lon="9.1072815"><ele>50.0</ele><time>2026-05-02T13:43:54.655Z</time></trkpt><trkpt lat="37.0426331" lon="9.1074314"><ele>56.0</ele><time>2026-05-02T13:43:55.664Z</time></trkpt><trkpt lat="37.0428826" lon="9.1075757"><ele>62.0</ele><time>2026-05-02T13:43:56.664Z</time></trkpt><trkpt lat="37.0431276" lon="9.1077066"><ele>60.5</ele><time>2026-05-02T13:43:57.664Z</time></trkpt><trkpt lat="37.0433822" lon="9.1078483"><ele>59.0</ele><time>2026-05-02T13:43:58.656Z</time></trkpt><trkpt lat="37.043629" lon="9.1079866"><ele>59.0</ele><time>2026-05-02T13:43:59.648Z</time></trkpt><trkpt lat="37.0438513" lon="9.1081009"><ele>59.0</ele><time>2026-05-02T13:44:00.644Z</time></trkpt><trkpt lat="37.0440574" lon="9.1082103"><ele>62.0</ele><time>2026-05-02T13:44:01.659Z</time></trkpt><trkpt lat="37.0442436" lon="9.1083102"><ele>65.0</ele><time>2026-05-02T13:44:02.643Z</time></trkpt><trkpt lat="37.0444181" lon="9.1083922"><ele>68.0</ele><time>2026-05-02T13:44:03.631Z</time></trkpt><trkpt lat="37.04457" lon="9.1084737"><ele>68.0</ele><time>2026-05-02T13:44:04.645Z</time></trkpt><trkpt lat="37.0447115" lon="9.1085659"><ele>68.0</ele><time>2026-05-02T13:44:05.661Z</time></trkpt><trkpt lat="37.0448523" lon="9.1086659"><ele>68.0</ele><time>2026-05-02T13:44:06.67Z</time></trkpt><trkpt lat="37.0449817" lon="9.1087874"><ele>66.33333333333334</ele><time>2026-05-02T13:44:07.675Z</time></trkpt><trkpt lat="37.0451038" lon="9.10895"><ele>64.66666666666667</ele><time>2026-05-02T13:44:08.648Z</time></trkpt><trkpt lat="37.045217" lon="9.1091433"><ele>63.0</ele><time>2026-05-02T13:44:09.659Z</time></trkpt><trkpt lat="37.0453228" lon="9.1093652"><ele>66.66666666666667</ele><time>2026-05-02T13:44:10.666Z</time></trkpt><trkpt lat="37.0454192" lon="9.109598"><ele>70.33333333333334</ele><time>2026-05-02T13:44:11.669Z</time></trkpt><trkpt lat="37.0455073" lon="9.1098156"><ele>74.0</ele><time>2026-05-02T13:44:12.659Z</time></trkpt><trkpt lat="37.0456088" lon="9.1100083"><ele>74.66666666666667</ele><time>2026-05-02T13:44:13.66Z</time></trkpt><trkpt lat="37.0457233" lon="9.1101701"><ele>75.33333333333333</ele><time>2026-05-02T13:44:14.661Z</time></trkpt><trkpt lat="37.0458649" lon="9.1103224"><ele>76.0</ele><time>2026-05-02T13:44:15.674Z</time></trkpt><trkpt lat="37.0460175" lon="9.1104454"><ele>76.0</ele><time>2026-05-02T13:44:16.668Z</time></trkpt><trkpt lat="37.0461805" lon="9.1105452"><ele>76.0</ele><time>2026-05-02T13:44:17.65Z</time></trkpt><trkpt lat="37.0463381" lon="9.1106338"><ele>76.0</ele><time>2026-05-02T13:44:18.663Z</time></trkpt><trkpt lat="37.0464868" lon="9.1107135"><ele>77.0</ele><time>2026-05-02T13:44:19.68Z</time></trkpt><trkpt lat="37.0466146" lon="9.1107954"><ele>78.0</ele><time>2026-05-02T13:44:20.658Z</time></trkpt><trkpt lat="37.046726" lon="9.1108873"><ele>79.0</ele><time>2026-05-02T13:44:21.663Z</time></trkpt><trkpt lat="37.0468182" lon="9.1110055"><ele>80.0</ele><time>2026-05-02T13:44:22.672Z</time></trkpt><trkpt lat="37.0469053" lon="9.1111311"><ele>80.0</ele><time>2026-05-02T13:44:23.654Z</time></trkpt><trkpt lat="37.0469854" lon="9.1112749"><ele>80.0</ele><time>2026-05-02T13:44:24.66Z</time></trkpt><trkpt lat="37.0470629" lon="9.1114402"><ele>80.0</ele><time>2026-05-02T13:44:25.671Z</time></trkpt><trkpt lat="37.0471297" lon="9.1116164"><ele>80.0</ele><time>2026-05-02T13:44:26.662Z</time></trkpt><trkpt lat="37.0471938" lon="9.1117998"><ele>83.0</ele><time>2026-05-02T13:44:27.664Z</time></trkpt><trkpt lat="37.0472545" lon="9.1119829"><ele>86.0</ele><time>2026-05-02T13:44:28.679Z</time></trkpt><trkpt lat="37.0473282" lon="9.1121597"><ele>89.0</ele><time>2026-05-02T13:44:29.671Z</time></trkpt><trkpt lat="37.0474121" lon="9.1123166"><ele>87.33333333333334</ele><time>2026-05-02T13:44:30.652Z</time></trkpt><trkpt lat="37.0475127" lon="9.1124611"><ele>85.66666666666667</ele><time>2026-05-02T13:44:31.654Z</time></trkpt><trkpt lat="37.0476242" lon="9.1125875"><ele>84.0</ele><time>2026-05-02T13:44:32.659Z</time></trkpt><trkpt lat="37.0477528" lon="9.1126957"><ele>84.0</ele><time>2026-05-02T13:44:33.663Z</time></trkpt><trkpt lat="37.0478953" lon="9.1127791"><ele>84.0</ele><time>2026-05-02T13:44:34.665Z</time></trkpt><trkpt lat="37.0480371" lon="9.1128592"><ele>84.0</ele><time>2026-05-02T13:44:35.656Z</time></trkpt><trkpt lat="37.0481575" lon="9.1129547"><ele>84.0</ele><time>2026-05-02T13:44:36.666Z</time></trkpt><trkpt lat="37.0482689" lon="9.1130756"><ele>84.0</ele><time>2026-05-02T13:44:37.66Z</time></trkpt><trkpt lat="37.048365" lon="9.1132179"><ele>84.0</ele><time>2026-05-02T13:44:38.67Z</time></trkpt><trkpt lat="37.0484541" lon="9.1134011"><ele>83.0</ele><time>2026-05-02T13:44:39.673Z</time></trkpt><trkpt lat="37.0485345" lon="9.1136027"><ele>82.0</ele><time>2026-05-02T13:44:40.673Z</time></trkpt><trkpt lat="37.04862" lon="9.1138217"><ele>81.0</ele><time>2026-05-02T13:44:41.669Z</time></trkpt><trkpt lat="37.048715" lon="9.1140669"><ele>82.0</ele><time>2026-05-02T13:44:42.667Z</time></trkpt><trkpt lat="37.0488171" lon="9.1142962"><ele>83.0</ele><time>2026-05-02T13:44:43.659Z</time></trkpt><trkpt lat="37.0489233" lon="9.1145028"><ele>84.0</ele><time>2026-05-02T13:44:44.671Z</time></trkpt><trkpt lat="37.0490298" lon="9.1146872"><ele>83.33333333333333</ele><time>2026-05-02T13:44:45.674Z</time></trkpt><trkpt lat="37.049138" lon="9.1148706"><ele>82.66666666666666</ele><time>2026-05-02T13:44:46.673Z</time></trkpt><trkpt lat="37.0492436" lon="9.1150292"><ele>82.0</ele><time>2026-05-02T13:44:47.66Z</time></trkpt><trkpt lat="37.0493582" lon="9.1151743"><ele>82.0</ele><time>2026-05-02T13:44:48.673Z</time></trkpt><trkpt lat="37.0494888" lon="9.1152916"><ele>82.0</ele><time>2026-05-02T13:44:49.674Z</time></trkpt><trkpt lat="37.0496299" lon="9.1153818"><ele>82.0</ele><time>2026-05-02T13:44:50.656Z</time></trkpt><trkpt lat="37.0497752" lon="9.1154417"><ele>82.0</ele><time>2026-05-02T13:44:51.658Z</time></trkpt><trkpt lat="37.0499232" lon="9.1154833"><ele>82.0</ele><time>2026-05-02T13:44:52.646Z</time></trkpt><trkpt lat="37.05007" lon="9.1154831"><ele>82.0</ele><time>2026-05-02T13:44:53.675Z</time></trkpt><trkpt lat="37.0502128" lon="9.1154454"><ele>82.0</ele><time>2026-05-02T13:44:54.662Z</time></trkpt><trkpt lat="37.0503566" lon="9.1153807"><ele>81.66666666666666</ele><time>2026-05-02T13:44:55.661Z</time></trkpt><trkpt lat="37.0504876" lon="9.1152807"><ele>81.33333333333333</ele><time>2026-05-02T13:44:56.665Z</time></trkpt><trkpt lat="37.0506122" lon="9.1151466"><ele>81.0</ele><time>2026-05-02T13:44:57.672Z</time></trkpt><trkpt lat="37.0507309" lon="9.1149848"><ele>81.33333333333333</ele><time>2026-05-02T13:44:58.657Z</time></trkpt><trkpt lat="37.0508351" lon="9.1148217"><ele>81.66666666666666</ele><time>2026-05-02T13:44:59.663Z</time></trkpt><trkpt lat="37.0509381" lon="9.114661"><ele>82.0</ele><time>2026-05-02T13:45:00.662Z</time></trkpt><trkpt lat="37.0510403" lon="9.1145242"><ele>82.0</ele><time>2026-05-02T13:45:01.663Z</time></trkpt><trkpt lat="37.0511548" lon="9.1144205"><ele>82.0</ele><time>2026-05-02T13:45:02.658Z</time></trkpt><trkpt lat="37.051282" lon="9.1143665"><ele>82.0</ele><time>2026-05-02T13:45:03.665Z</time></trkpt><trkpt lat="37.051403" lon="9.1143511"><ele>82.0</ele><time>2026-05-02T13:45:04.667Z</time></trkpt><trkpt lat="37.0515288" lon="9.1143871"><ele>81.75</ele><time>2026-05-02T13:45:05.655Z</time></trkpt><trkpt lat="37.0516352" lon="9.1144536"><ele>81.5</ele><time>2026-05-02T13:45:06.663Z</time></trkpt><trkpt lat="37.0517459" lon="9.1145611"><ele>81.25</ele><time>2026-05-02T13:45:07.663Z</time></trkpt><trkpt lat="37.051828" lon="9.1146821"><ele>81.0</ele><time>2026-05-02T13:45:08.673Z</time></trkpt><trkpt lat="37.0518944" lon="9.1148358"><ele>83.0</ele><time>2026-05-02T13:45:09.662Z</time></trkpt><trkpt lat="37.0519265" lon="9.1150001"><ele>85.0</ele><time>2026-05-02T13:45:10.668Z</time></trkpt><trkpt lat="37.0519333" lon="9.1151924"><ele>87.0</ele><time>2026-05-02T13:45:11.684Z</time></trkpt><trkpt lat="37.051923" lon="9.1154621"><ele>89.5</ele><time>2026-05-02T13:45:12.671Z</time></trkpt><trkpt lat="37.051907" lon="9.1157687"><ele>92.0</ele><time>2026-05-02T13:45:13.657Z</time></trkpt><trkpt lat="37.0518976" lon="9.1160882"><ele>92.0</ele><time>2026-05-02T13:45:14.67Z</time></trkpt><trkpt lat="37.0518797" lon="9.1164015"><ele>92.0</ele><time>2026-05-02T13:45:15.677Z</time></trkpt><trkpt lat="37.0518663" lon="9.11668"><ele>92.66666666666667</ele><time>2026-05-02T13:45:16.688Z</time></trkpt><trkpt lat="37.0518566" lon="9.1168841"><ele>93.33333333333333</ele><time>2026-05-02T13:45:17.66Z</time></trkpt><trkpt lat="37.051868" lon="9.1170659"><ele>94.0</ele><time>2026-05-02T13:45:18.679Z</time></trkpt><trkpt lat="37.0519083" lon="9.1172368"><ele>94.0</ele><time>2026-05-02T13:45:19.671Z</time></trkpt><trkpt lat="37.0519649" lon="9.11739"><ele>94.0</ele><time>2026-05-02T13:45:20.671Z</time></trkpt><trkpt lat="37.0520563" lon="9.1175303"><ele>94.0</ele><time>2026-05-02T13:45:21.674Z</time></trkpt><trkpt lat="37.0521694" lon="9.1176288"><ele>94.0</ele><time>2026-05-02T13:45:22.684Z</time></trkpt><trkpt lat="37.0522966" lon="9.1177009"><ele>93.66666666666666</ele><time>2026-05-02T13:45:23.67Z</time></trkpt><trkpt lat="37.0524519" lon="9.1177602"><ele>93.33333333333333</ele><time>2026-05-02T13:45:24.661Z</time></trkpt><trkpt lat="37.0526112" lon="9.1178038"><ele>93.0</ele><time>2026-05-02T13:45:25.663Z</time></trkpt><trkpt lat="37.0527608" lon="9.1178595"><ele>92.25</ele><time>2026-05-02T13:45:26.665Z</time></trkpt><trkpt lat="37.052894" lon="9.117906"><ele>91.5</ele><time>2026-05-02T13:45:27.673Z</time></trkpt><trkpt lat="37.0530092" lon="9.1179849"><ele>90.75</ele><time>2026-05-02T13:45:28.664Z</time></trkpt><trkpt lat="37.0531029" lon="9.1181006"><ele>90.0</ele><time>2026-05-02T13:45:29.676Z</time></trkpt><trkpt lat="37.0531839" lon="9.1182369"><ele>91.25</ele><time>2026-05-02T13:45:30.668Z</time></trkpt><trkpt lat="37.0532312" lon="9.1184022"><ele>92.5</ele><time>2026-05-02T13:45:31.667Z</time></trkpt><trkpt lat="37.0532787" lon="9.1185725"><ele>93.75</ele><time>2026-05-02T13:45:32.678Z</time></trkpt><trkpt lat="37.0533308" lon="9.1187353"><ele>95.0</ele><time>2026-05-02T13:45:33.652Z</time></trkpt><trkpt lat="37.0534011" lon="9.1188966"><ele>95.0</ele><time>2026-05-02T13:45:34.672Z</time></trkpt><trkpt lat="37.0534868" lon="9.1190517"><ele>95.0</ele><time>2026-05-02T13:45:35.668Z</time></trkpt><trkpt lat="37.0536012" lon="9.1191784"><ele>95.0</ele><time>2026-05-02T13:45:36.664Z</time></trkpt><trkpt lat="37.0537584" lon="9.1192921"><ele>97.5</ele><time>2026-05-02T13:45:37.664Z</time></trkpt><trkpt lat="37.0539425" lon="9.1194135"><ele>100.0</ele><time>2026-05-02T13:45:38.654Z</time></trkpt><trkpt lat="37.0541677" lon="9.1195526"><ele>100.0</ele><time>2026-05-02T13:45:39.651Z</time></trkpt><trkpt lat="37.0544066" lon="9.1197082"><ele>100.0</ele><time>2026-05-02T13:45:40.674Z</time></trkpt><trkpt lat="37.0546432" lon="9.119866"><ele>99.66666666666667</ele><time>2026-05-02T13:45:41.678Z</time></trkpt><trkpt lat="37.0548531" lon="9.120003"><ele>99.33333333333334</ele><time>2026-05-02T13:45:42.662Z</time></trkpt><trkpt lat="37.0550352" lon="9.1201075"><ele>99.0</ele><time>2026-05-02T13:45:43.651Z</time></trkpt><trkpt lat="37.0551973" lon="9.1201998"><ele>99.0</ele><time>2026-05-02T13:45:44.659Z</time></trkpt><trkpt lat="37.0553371" lon="9.1202714"><ele>99.0</ele><time>2026-05-02T13:45:45.673Z</time></trkpt><trkpt lat="37.0554537" lon="9.1203213"><ele>99.0</ele><time>2026-05-02T13:45:46.657Z</time></trkpt><trkpt lat="37.0555688" lon="9.1203777"><ele>99.0</ele><time>2026-05-02T13:45:47.673Z</time></trkpt><trkpt lat="37.0556832" lon="9.1204327"><ele>98.5</ele><time>2026-05-02T13:45:48.657Z</time></trkpt><trkpt lat="37.0557947" lon="9.1204724"><ele>98.0</ele><time>2026-05-02T13:45:49.653Z</time></trkpt><trkpt lat="37.0559054" lon="9.1205235"><ele>97.5</ele><time>2026-05-02T13:45:50.674Z</time></trkpt><trkpt lat="37.0560156" lon="9.1205728"><ele>97.0</ele><time>2026-05-02T13:45:51.649Z</time></trkpt><trkpt lat="37.0561287" lon="9.1206294"><ele>97.0</ele><time>2026-05-02T13:45:52.665Z</time></trkpt><trkpt lat="37.056241" lon="9.120686"><ele>97.0</ele><time>2026-05-02T13:45:53.649Z</time></trkpt><trkpt lat="37.0563515" lon="9.1207295"><ele>97.0</ele><time>2026-05-02T13:45:54.695Z</time></trkpt><trkpt lat="37.0564576" lon="9.120772"><ele>97.0</ele><time>2026-05-02T13:45:55.634Z</time></trkpt><trkpt lat="37.0565598" lon="9.1208191"><ele>97.0</ele><time>2026-05-02T13:45:56.677Z</time></trkpt><trkpt lat="37.0566685" lon="9.1208662"><ele>97.0</ele><time>2026-05-02T13:45:57.65Z</time></trkpt><trkpt lat="37.0567665" lon="9.120915"><ele>97.0</ele><time>2026-05-02T13:45:58.655Z</time></trkpt><trkpt lat="37.0568703" lon="9.1209623"><ele>97.0</ele><time>2026-05-02T13:45:59.669Z</time></trkpt><trkpt lat="37.0569688" lon="9.1210132"><ele>97.0</ele><time>2026-05-02T13:46:00.68Z</time></trkpt><trkpt lat="37.0570721" lon="9.1210691"><ele>97.0</ele><time>2026-05-02T13:46:01.66Z</time></trkpt><trkpt lat="37.0571725" lon="9.121121"><ele>97.0</ele><time>2026-05-02T13:46:02.644Z</time></trkpt><trkpt lat="37.0572661" lon="9.1211693"><ele>97.0</ele><time>2026-05-02T13:46:03.657Z</time></trkpt><trkpt lat="37.057355" lon="9.1212074"><ele>97.0</ele><time>2026-05-02T13:46:04.647Z</time></trkpt><trkpt lat="37.0574394" lon="9.121245"><ele>97.0</ele><time>2026-05-02T13:46:05.665Z</time></trkpt><trkpt lat="37.0575186" lon="9.1212809"><ele>96.83333333333334</ele><time>2026-05-02T13:46:06.659Z</time></trkpt><trkpt lat="37.057595" lon="9.1213216"><ele>96.66666666666667</ele><time>2026-05-02T13:46:07.663Z</time></trkpt><trkpt lat="37.0576709" lon="9.1213656"><ele>96.5</ele><time>2026-05-02T13:46:08.668Z</time></trkpt><trkpt lat="37.0577517" lon="9.121404"><ele>96.33333333333334</ele><time>2026-05-02T13:46:09.664Z</time></trkpt><trkpt lat="37.0578293" lon="9.1214375"><ele>96.16666666666667</ele><time>2026-05-02T13:46:10.661Z</time></trkpt><trkpt lat="37.0579141" lon="9.1214777"><ele>96.0</ele><time>2026-05-02T13:46:11.662Z</time></trkpt><trkpt lat="37.0579887" lon="9.1215126"><ele>95.99999999999999</ele><time>2026-05-02T13:46:12.664Z</time></trkpt><trkpt lat="37.058059" lon="9.1215433"><ele>96.0</ele><time>2026-05-02T13:46:13.664Z</time></trkpt><trkpt lat="37.0581316" lon="9.1215777"><ele>96.0</ele><time>2026-05-02T13:46:14.66Z</time></trkpt><trkpt lat="37.0582054" lon="9.1216059"><ele>96.0</ele><time>2026-05-02T13:46:15.657Z</time></trkpt><trkpt lat="37.0582741" lon="9.1216331"><ele>96.0</ele><time>2026-05-02T13:46:16.665Z</time></trkpt><trkpt lat="37.0583339" lon="9.1216634"><ele>95.99999999999999</ele><time>2026-05-02T13:46:17.661Z</time></trkpt><trkpt lat="37.0583959" lon="9.1216957"><ele>96.0</ele><time>2026-05-02T13:46:18.671Z</time></trkpt><trkpt lat="37.058457" lon="9.1217286"><ele>96.83333333333333</ele><time>2026-05-02T13:46:19.671Z</time></trkpt><trkpt lat="37.0585163" lon="9.1217585"><ele>97.66666666666666</ele><time>2026-05-02T13:46:20.667Z</time></trkpt><trkpt lat="37.0586435" lon="9.1218127"><ele>98.5</ele><time>2026-05-02T13:46:22.663Z</time></trkpt><trkpt lat="37.0587135" lon="9.1218444"><ele>99.33333333333333</ele><time>2026-05-02T13:46:23.664Z</time></trkpt><trkpt lat="37.0587957" lon="9.1218678"><ele>100.16666666666666</ele><time>2026-05-02T13:46:24.669Z</time></trkpt><trkpt lat="37.0588856" lon="9.1218942"><ele>101.0</ele><time>2026-05-02T13:46:25.668Z</time></trkpt><trkpt lat="37.0589981" lon="9.1219271"><ele>100.0</ele><time>2026-05-02T13:46:26.653Z</time></trkpt><trkpt lat="37.0591375" lon="9.1219648"><ele>99.0</ele><time>2026-05-02T13:46:27.671Z</time></trkpt><trkpt lat="37.0592773" lon="9.1219956"><ele>98.0</ele><time>2026-05-02T13:46:28.657Z</time></trkpt><trkpt lat="37.0594174" lon="9.122008"><ele>97.0</ele><time>2026-05-02T13:46:29.677Z</time></trkpt><trkpt lat="37.0595505" lon="9.1220158"><ele>97.0</ele><time>2026-05-02T13:46:30.665Z</time></trkpt><trkpt lat="37.0596823" lon="9.1220261"><ele>97.0</ele><time>2026-05-02T13:46:31.672Z</time></trkpt><trkpt lat="37.0598123" lon="9.1220296"><ele>97.0</ele><time>2026-05-02T13:46:32.673Z</time></trkpt><trkpt lat="37.0599418" lon="9.1220401"><ele>97.0</ele><time>2026-05-02T13:46:33.677Z</time></trkpt><trkpt lat="37.0600701" lon="9.1220605"><ele>97.0</ele><time>2026-05-02T13:46:34.676Z</time></trkpt><trkpt lat="37.0602037" lon="9.1220909"><ele>97.0</ele><time>2026-05-02T13:46:35.674Z</time></trkpt><trkpt lat="37.060344" lon="9.1221335"><ele>97.0</ele><time>2026-05-02T13:46:36.659Z</time></trkpt><trkpt lat="37.0604877" lon="9.122189"><ele>97.0</ele><time>2026-05-02T13:46:37.667Z</time></trkpt><trkpt lat="37.0606482" lon="9.1222663"><ele>96.66666666666667</ele><time>2026-05-02T13:46:38.668Z</time></trkpt><trkpt lat="37.0608145" lon="9.1223506"><ele>96.33333333333334</ele><time>2026-05-02T13:46:39.67Z</time></trkpt><trkpt lat="37.0609922" lon="9.1224415"><ele>96.0</ele><time>2026-05-02T13:46:40.663Z</time></trkpt><trkpt lat="37.0611708" lon="9.1225365"><ele>97.0</ele><time>2026-05-02T13:46:41.656Z</time></trkpt><trkpt lat="37.0613456" lon="9.1226296"><ele>98.0</ele><time>2026-05-02T13:46:42.666Z</time></trkpt><trkpt lat="37.0615187" lon="9.1227166"><ele>99.0</ele><time>2026-05-02T13:46:43.67Z</time></trkpt><trkpt lat="37.0616907" lon="9.1228"><ele>99.0</ele><time>2026-05-02T13:46:44.658Z</time></trkpt><trkpt lat="37.0618624" lon="9.1228826"><ele>99.0</ele><time>2026-05-02T13:46:45.668Z</time></trkpt><trkpt lat="37.0620308" lon="9.1229679"><ele>99.0</ele><time>2026-05-02T13:46:46.663Z</time></trkpt><trkpt lat="37.0622037" lon="9.1230502"><ele>99.0</ele><time>2026-05-02T13:46:47.671Z</time></trkpt><trkpt lat="37.0623784" lon="9.1231308"><ele>99.0</ele><time>2026-05-02T13:46:48.666Z</time></trkpt><trkpt lat="37.0625532" lon="9.123215"><ele>99.0</ele><time>2026-05-02T13:46:49.671Z</time></trkpt><trkpt lat="37.0627267" lon="9.1232995"><ele>100.33333333333334</ele><time>2026-05-02T13:46:50.669Z</time></trkpt><trkpt lat="37.0629059" lon="9.1233835"><ele>101.66666666666667</ele><time>2026-05-02T13:46:51.653Z</time></trkpt><trkpt lat="37.0630933" lon="9.1234752"><ele>103.0</ele><time>2026-05-02T13:46:52.654Z</time></trkpt><trkpt lat="37.0632845" lon="9.1235703"><ele>103.0</ele><time>2026-05-02T13:46:53.66Z</time></trkpt><trkpt lat="37.0634776" lon="9.1236605"><ele>103.0</ele><time>2026-05-02T13:46:54.674Z</time></trkpt><trkpt lat="37.06367" lon="9.1237512"><ele>103.0</ele><time>2026-05-02T13:46:55.657Z</time></trkpt><trkpt lat="37.0638514" lon="9.123843"><ele>103.0</ele><time>2026-05-02T13:46:56.672Z</time></trkpt><trkpt lat="37.0640147" lon="9.1239251"><ele>103.0</ele><time>2026-05-02T13:46:57.659Z</time></trkpt><trkpt lat="37.0641694" lon="9.1240258"><ele>103.0</ele><time>2026-05-02T13:46:58.674Z</time></trkpt><trkpt lat="37.0643038" lon="9.1241455"><ele>103.66666666666667</ele><time>2026-05-02T13:46:59.677Z</time></trkpt><trkpt lat="37.0644227" lon="9.1242938"><ele>104.33333333333334</ele><time>2026-05-02T13:47:00.66Z</time></trkpt><trkpt lat="37.0645301" lon="9.1244746"><ele>105.0</ele><time>2026-05-02T13:47:01.663Z</time></trkpt><trkpt lat="37.0646354" lon="9.1246833"><ele>106.0</ele><time>2026-05-02T13:47:02.666Z</time></trkpt><trkpt lat="37.0647274" lon="9.1249146"><ele>107.0</ele><time>2026-05-02T13:47:03.672Z</time></trkpt><trkpt lat="37.0648232" lon="9.1251411"><ele>108.0</ele><time>2026-05-02T13:47:04.662Z</time></trkpt><trkpt lat="37.0649139" lon="9.1253473"><ele>107.66666666666666</ele><time>2026-05-02T13:47:05.664Z</time></trkpt><trkpt lat="37.065014" lon="9.1255308"><ele>107.33333333333333</ele><time>2026-05-02T13:47:06.652Z</time></trkpt><trkpt lat="37.0651258" lon="9.1256963"><ele>107.0</ele><time>2026-05-02T13:47:07.666Z</time></trkpt><trkpt lat="37.0652491" lon="9.1258367"><ele>109.33333333333333</ele><time>2026-05-02T13:47:08.657Z</time></trkpt><trkpt lat="37.065394" lon="9.125958"><ele>111.66666666666666</ele><time>2026-05-02T13:47:09.658Z</time></trkpt><trkpt lat="37.0655619" lon="9.1260571"><ele>114.0</ele><time>2026-05-02T13:47:10.665Z</time></trkpt><trkpt lat="37.0657523" lon="9.126151"><ele>111.0</ele><time>2026-05-02T13:47:11.647Z</time></trkpt><trkpt lat="37.0659742" lon="9.1262386"><ele>108.0</ele><time>2026-05-02T13:47:12.667Z</time></trkpt><trkpt lat="37.0662404" lon="9.1263479"><ele>108.0</ele><time>2026-05-02T13:47:13.67Z</time></trkpt><trkpt lat="37.0665146" lon="9.1264657"><ele>108.0</ele><time>2026-05-02T13:47:14.674Z</time></trkpt><trkpt lat="37.0667745" lon="9.1265952"><ele>112.5</ele><time>2026-05-02T13:47:15.643Z</time></trkpt><trkpt lat="37.0670107" lon="9.1267049"><ele>117.0</ele><time>2026-05-02T13:47:16.66Z</time></trkpt><trkpt lat="37.0672257" lon="9.1268053"><ele>117.0</ele><time>2026-05-02T13:47:17.676Z</time></trkpt><trkpt lat="37.0674248" lon="9.1269073"><ele>117.0</ele><time>2026-05-02T13:47:18.66Z</time></trkpt><trkpt lat="37.0676141" lon="9.1270283"><ele>117.0</ele><time>2026-05-02T13:47:19.674Z</time></trkpt><trkpt lat="37.0677807" lon="9.1271477"><ele>116.66666666666666</ele><time>2026-05-02T13:47:20.666Z</time></trkpt><trkpt lat="37.0679356" lon="9.1273002"><ele>116.33333333333333</ele><time>2026-05-02T13:47:21.657Z</time></trkpt><trkpt lat="37.0680877" lon="9.1274869"><ele>116.0</ele><time>2026-05-02T13:47:22.664Z</time></trkpt><trkpt lat="37.0682197" lon="9.1276632"><ele>115.0</ele><time>2026-05-02T13:47:23.667Z</time></trkpt><trkpt lat="37.0683327" lon="9.1278539"><ele>114.0</ele><time>2026-05-02T13:47:24.677Z</time></trkpt><trkpt lat="37.0684349" lon="9.1280543"><ele>113.0</ele><time>2026-05-02T13:47:25.664Z</time></trkpt><trkpt lat="37.0685195" lon="9.1282557"><ele>115.33333333333333</ele><time>2026-05-02T13:47:26.667Z</time></trkpt><trkpt lat="37.0685941" lon="9.1284472"><ele>117.66666666666666</ele><time>2026-05-02T13:47:27.661Z</time></trkpt><trkpt lat="37.0686664" lon="9.128624"><ele>120.0</ele><time>2026-05-02T13:47:28.67Z</time></trkpt><trkpt lat="37.06874" lon="9.1288006"><ele>120.0</ele><time>2026-05-02T13:47:29.667Z</time></trkpt><trkpt lat="37.0688144" lon="9.1289721"><ele>120.0</ele><time>2026-05-02T13:47:30.669Z</time></trkpt><trkpt lat="37.0688842" lon="9.1291476"><ele>120.0</ele><time>2026-05-02T13:47:31.667Z</time></trkpt><trkpt lat="37.0689522" lon="9.1293151"><ele>120.25</ele><time>2026-05-02T13:47:32.665Z</time></trkpt><trkpt lat="37.0690176" lon="9.1294777"><ele>120.5</ele><time>2026-05-02T13:47:33.655Z</time></trkpt><trkpt lat="37.0690855" lon="9.1296423"><ele>120.75</ele><time>2026-05-02T13:47:34.653Z</time></trkpt><trkpt lat="37.0691534" lon="9.129807"><ele>121.0</ele><time>2026-05-02T13:47:35.667Z</time></trkpt><trkpt lat="37.0692167" lon="9.129964"><ele>121.0</ele><time>2026-05-02T13:47:36.66Z</time></trkpt><trkpt lat="37.0692845" lon="9.1301245"><ele>121.0</ele><time>2026-05-02T13:47:37.679Z</time></trkpt><trkpt lat="37.0693476" lon="9.1302858"><ele>121.0</ele><time>2026-05-02T13:47:38.66Z</time></trkpt><trkpt lat="37.0694133" lon="9.1304495"><ele>121.0</ele><time>2026-05-02T13:47:39.671Z</time></trkpt><trkpt lat="37.0694826" lon="9.1306132"><ele>121.5</ele><time>2026-05-02T13:47:40.659Z</time></trkpt><trkpt lat="37.0695505" lon="9.1307715"><ele>122.0</ele><time>2026-05-02T13:47:41.674Z</time></trkpt><trkpt lat="37.0696152" lon="9.1309273"><ele>122.5</ele><time>2026-05-02T13:47:42.665Z</time></trkpt><trkpt lat="37.0696807" lon="9.1310839"><ele>123.0</ele><time>2026-05-02T13:47:43.65Z</time></trkpt><trkpt lat="37.0697464" lon="9.1312358"><ele>123.0</ele><time>2026-05-02T13:47:44.663Z</time></trkpt><trkpt lat="37.0698161" lon="9.1313951"><ele>123.0</ele><time>2026-05-02T13:47:45.678Z</time></trkpt><trkpt lat="37.0698889" lon="9.1315477"><ele>123.0</ele><time>2026-05-02T13:47:46.671Z</time></trkpt><trkpt lat="37.0699738" lon="9.1317014"><ele>123.0</ele><time>2026-05-02T13:47:47.666Z</time></trkpt><trkpt lat="37.0700764" lon="9.1318584"><ele>122.0</ele><time>2026-05-02T13:47:48.671Z</time></trkpt><trkpt lat="37.0701895" lon="9.1320034"><ele>121.0</ele><time>2026-05-02T13:47:49.649Z</time></trkpt><trkpt lat="37.0703124" lon="9.1321366"><ele>120.0</ele><time>2026-05-02T13:47:50.665Z</time></trkpt><trkpt lat="37.0704513" lon="9.1322594"><ele>120.0</ele><time>2026-05-02T13:47:51.682Z</time></trkpt><trkpt lat="37.0705995" lon="9.132371"><ele>120.0</ele><time>2026-05-02T13:47:52.667Z</time></trkpt><trkpt lat="37.0707489" lon="9.132482"><ele>120.0</ele><time>2026-05-02T13:47:53.671Z</time></trkpt><trkpt lat="37.0709089" lon="9.1325923"><ele>120.33333333333334</ele><time>2026-05-02T13:47:54.661Z</time></trkpt><trkpt lat="37.0710643" lon="9.1326977"><ele>120.66666666666667</ele><time>2026-05-02T13:47:55.665Z</time></trkpt><trkpt lat="37.071213" lon="9.1328034"><ele>121.0</ele><time>2026-05-02T13:47:56.66Z</time></trkpt><trkpt lat="37.0713547" lon="9.1329052"><ele>121.0</ele><time>2026-05-02T13:47:57.691Z</time></trkpt><trkpt lat="37.0714899" lon="9.1330053"><ele>121.0</ele><time>2026-05-02T13:47:58.665Z</time></trkpt><trkpt lat="37.0716156" lon="9.1331108"><ele>121.0</ele><time>2026-05-02T13:47:59.677Z</time></trkpt><trkpt lat="37.0717396" lon="9.1332224"><ele>123.33333333333334</ele><time>2026-05-02T13:48:00.662Z</time></trkpt><trkpt lat="37.0718576" lon="9.1333409"><ele>125.66666666666666</ele><time>2026-05-02T13:48:01.666Z</time></trkpt><trkpt lat="37.0719716" lon="9.1334726"><ele>128.0</ele><time>2026-05-02T13:48:02.669Z</time></trkpt><trkpt lat="37.0720811" lon="9.1336005"><ele>128.0</ele><time>2026-05-02T13:48:03.661Z</time></trkpt><trkpt lat="37.0721742" lon="9.1337265"><ele>128.0</ele><time>2026-05-02T13:48:04.676Z</time></trkpt><trkpt lat="37.0722539" lon="9.1338394"><ele>128.0</ele><time>2026-05-02T13:48:05.669Z</time></trkpt><trkpt lat="37.0723243" lon="9.1339402"><ele>128.0</ele><time>2026-05-02T13:48:06.654Z</time></trkpt><trkpt lat="37.0723829" lon="9.1340267"><ele>128.20000000000002</ele><time>2026-05-02T13:48:07.668Z</time></trkpt><trkpt lat="37.0724419" lon="9.1341126"><ele>128.4</ele><time>2026-05-02T13:48:08.672Z</time></trkpt><trkpt lat="37.0725007" lon="9.1342008"><ele>128.60000000000002</ele><time>2026-05-02T13:48:09.663Z</time></trkpt><trkpt lat="37.0725618" lon="9.1342829"><ele>128.8</ele><time>2026-05-02T13:48:10.67Z</time></trkpt><trkpt lat="37.0726247" lon="9.1343658"><ele>129.0</ele><time>2026-05-02T13:48:11.671Z</time></trkpt><trkpt lat="37.0726853" lon="9.1344459"><ele>129.0</ele><time>2026-05-02T13:48:12.657Z</time></trkpt><trkpt lat="37.0727503" lon="9.1345357"><ele>129.0</ele><time>2026-05-02T13:48:13.662Z</time></trkpt><trkpt lat="37.0728156" lon="9.1346303"><ele>129.0</ele><time>2026-05-02T13:48:14.655Z</time></trkpt><trkpt lat="37.0728828" lon="9.134725"><ele>129.0</ele><time>2026-05-02T13:48:15.678Z</time></trkpt><trkpt lat="37.0729526" lon="9.1348205"><ele>129.0</ele><time>2026-05-02T13:48:16.665Z</time></trkpt><trkpt lat="37.0730248" lon="9.1349169"><ele>129.0</ele><time>2026-05-02T13:48:17.655Z</time></trkpt><trkpt lat="37.0730976" lon="9.1350168"><ele>129.0</ele><time>2026-05-02T13:48:18.667Z</time></trkpt><trkpt lat="37.073169" lon="9.1351156"><ele>129.0</ele><time>2026-05-02T13:48:19.664Z</time></trkpt><trkpt lat="37.0732431" lon="9.1352168"><ele>129.0</ele><time>2026-05-02T13:48:20.677Z</time></trkpt><trkpt lat="37.0733154" lon="9.1353187"><ele>129.0</ele><time>2026-05-02T13:48:21.661Z</time></trkpt><trkpt lat="37.0733894" lon="9.1354199"><ele>128.25</ele><time>2026-05-02T13:48:22.657Z</time></trkpt><trkpt lat="37.0734707" lon="9.1355312"><ele>127.5</ele><time>2026-05-02T13:48:23.658Z</time></trkpt><trkpt lat="37.0735563" lon="9.1356432"><ele>126.75</ele><time>2026-05-02T13:48:24.665Z</time></trkpt><trkpt lat="37.0736426" lon="9.1357603"><ele>126.0</ele><time>2026-05-02T13:48:25.673Z</time></trkpt><trkpt lat="37.073726" lon="9.1358908"><ele>126.0</ele><time>2026-05-02T13:48:26.677Z</time></trkpt><trkpt lat="37.073817" lon="9.1360188"><ele>126.0</ele><time>2026-05-02T13:48:27.665Z</time></trkpt><trkpt lat="37.0739129" lon="9.1361455"><ele>126.0</ele><time>2026-05-02T13:48:28.666Z</time></trkpt><trkpt lat="37.0740121" lon="9.1362704"><ele>126.0</ele><time>2026-05-02T13:48:29.664Z</time></trkpt><trkpt lat="37.074119" lon="9.1364065"><ele>127.0</ele><time>2026-05-02T13:48:30.663Z</time></trkpt><trkpt lat="37.0742323" lon="9.1365587"><ele>128.0</ele><time>2026-05-02T13:48:31.656Z</time></trkpt><trkpt lat="37.0743428" lon="9.1367116"><ele>129.0</ele><time>2026-05-02T13:48:32.664Z</time></trkpt><trkpt lat="37.0744402" lon="9.1368536"><ele>129.0</ele><time>2026-05-02T13:48:33.654Z</time></trkpt><trkpt lat="37.0745304" lon="9.1369825"><ele>129.0</ele><time>2026-05-02T13:48:34.661Z</time></trkpt><trkpt lat="37.0746125" lon="9.1370961"><ele>129.0</ele><time>2026-05-02T13:48:35.66Z</time></trkpt><trkpt lat="37.0746874" lon="9.1372036"><ele>129.0</ele><time>2026-05-02T13:48:36.676Z</time></trkpt><trkpt lat="37.0747616" lon="9.13731"><ele>128.5</ele><time>2026-05-02T13:48:37.665Z</time></trkpt><trkpt lat="37.0748256" lon="9.1374053"><ele>128.0</ele><time>2026-05-02T13:48:38.654Z</time></trkpt><trkpt lat="37.0748806" lon="9.1374847"><ele>127.5</ele><time>2026-05-02T13:48:39.668Z</time></trkpt><trkpt lat="37.0749223" lon="9.1375546"><ele>127.0</ele><time>2026-05-02T13:48:40.663Z</time></trkpt><trkpt lat="37.0749622" lon="9.1376234"><ele>126.5</ele><time>2026-05-02T13:48:41.681Z</time></trkpt><trkpt lat="37.0749995" lon="9.1376886"><ele>126.0</ele><time>2026-05-02T13:48:42.659Z</time></trkpt><trkpt lat="37.0750638" lon="9.137798"><ele>125.6</ele><time>2026-05-02T13:48:44.665Z</time></trkpt><trkpt lat="37.0751359" lon="9.1378948"><ele>125.19999999999999</ele><time>2026-05-02T13:48:46.671Z</time></trkpt><trkpt lat="37.0752079" lon="9.1380052"><ele>124.80000000000001</ele><time>2026-05-02T13:48:48.664Z</time></trkpt><trkpt lat="37.0752661" lon="9.1380806"><ele>124.4</ele><time>2026-05-02T13:48:50.65Z</time></trkpt><trkpt lat="37.0753307" lon="9.138154"><ele>124.0</ele><time>2026-05-02T13:48:52.676Z</time></trkpt><trkpt lat="37.0754297" lon="9.1382709"><ele>124.0</ele><time>2026-05-02T13:48:54.655Z</time></trkpt><trkpt lat="37.0754948" lon="9.1383789"><ele>124.0</ele><time>2026-05-02T13:48:55.658Z</time></trkpt><trkpt lat="37.0755656" lon="9.1385216"><ele>124.0</ele><time>2026-05-02T13:48:56.663Z</time></trkpt><trkpt lat="37.0756479" lon="9.1387273"><ele>124.0</ele><time>2026-05-02T13:48:57.659Z</time></trkpt><trkpt lat="37.0757176" lon="9.1389277"><ele>122.33333333333334</ele><time>2026-05-02T13:48:58.659Z</time></trkpt><trkpt lat="37.0757909" lon="9.1391124"><ele>120.66666666666666</ele><time>2026-05-02T13:48:59.668Z</time></trkpt><trkpt lat="37.0758609" lon="9.1392701"><ele>119.0</ele><time>2026-05-02T13:49:00.671Z</time></trkpt><trkpt lat="37.0759305" lon="9.1394369"><ele>119.0</ele><time>2026-05-02T13:49:01.665Z</time></trkpt><trkpt lat="37.0760093" lon="9.1395995"><ele>119.0</ele><time>2026-05-02T13:49:02.662Z</time></trkpt><trkpt lat="37.0760927" lon="9.1397783"><ele>119.0</ele><time>2026-05-02T13:49:03.642Z</time></trkpt><trkpt lat="37.0761726" lon="9.1399588"><ele>118.66666666666666</ele><time>2026-05-02T13:49:04.65Z</time></trkpt><trkpt lat="37.0762544" lon="9.140142"><ele>118.33333333333334</ele><time>2026-05-02T13:49:05.642Z</time></trkpt><trkpt lat="37.076335" lon="9.1403144"><ele>118.0</ele><time>2026-05-02T13:49:06.658Z</time></trkpt><trkpt lat="37.0764081" lon="9.1404882"><ele>118.0</ele><time>2026-05-02T13:49:07.66Z</time></trkpt><trkpt lat="37.0764915" lon="9.1406629"><ele>118.0</ele><time>2026-05-02T13:49:08.653Z</time></trkpt><trkpt lat="37.0765819" lon="9.1408358"><ele>118.0</ele><time>2026-05-02T13:49:09.666Z</time></trkpt><trkpt lat="37.0766888" lon="9.1409998"><ele>117.33333333333334</ele><time>2026-05-02T13:49:10.651Z</time></trkpt><trkpt lat="37.0768003" lon="9.1411422"><ele>116.66666666666666</ele><time>2026-05-02T13:49:11.668Z</time></trkpt><trkpt lat="37.076922" lon="9.1412785"><ele>116.0</ele><time>2026-05-02T13:49:12.663Z</time></trkpt><trkpt lat="37.0770456" lon="9.1413981"><ele>116.0</ele><time>2026-05-02T13:49:13.675Z</time></trkpt><trkpt lat="37.0771736" lon="9.1415128"><ele>116.0</ele><time>2026-05-02T13:49:14.665Z</time></trkpt><trkpt lat="37.0772869" lon="9.1416187"><ele>116.0</ele><time>2026-05-02T13:49:15.682Z</time></trkpt><trkpt lat="37.0773873" lon="9.1417337"><ele>116.0</ele><time>2026-05-02T13:49:16.663Z</time></trkpt><trkpt lat="37.0774815" lon="9.1418413"><ele>116.0</ele><time>2026-05-02T13:49:17.659Z</time></trkpt><trkpt lat="37.0775675" lon="9.1419521"><ele>116.0</ele><time>2026-05-02T13:49:18.665Z</time></trkpt><trkpt lat="37.0776438" lon="9.1420676"><ele>116.0</ele><time>2026-05-02T13:49:19.662Z</time></trkpt><trkpt lat="37.0777079" lon="9.1421913"><ele>116.0</ele><time>2026-05-02T13:49:20.676Z</time></trkpt><trkpt lat="37.0777644" lon="9.1423214"><ele>116.0</ele><time>2026-05-02T13:49:21.68Z</time></trkpt><trkpt lat="37.0778111" lon="9.142472"><ele>116.0</ele><time>2026-05-02T13:49:22.674Z</time></trkpt><trkpt lat="37.0778377" lon="9.1426432"><ele>116.0</ele><time>2026-05-02T13:49:23.677Z</time></trkpt><trkpt lat="37.0778605" lon="9.142845"><ele>116.0</ele><time>2026-05-02T13:49:24.658Z</time></trkpt><trkpt lat="37.0778815" lon="9.1430742"><ele>115.0</ele><time>2026-05-02T13:49:25.675Z</time></trkpt><trkpt lat="37.0779097" lon="9.1433685"><ele>114.0</ele><time>2026-05-02T13:49:26.657Z</time></trkpt><trkpt lat="37.0779313" lon="9.14371"><ele>115.0</ele><time>2026-05-02T13:49:27.647Z</time></trkpt><trkpt lat="37.077959" lon="9.1441006"><ele>116.0</ele><time>2026-05-02T13:49:28.668Z</time></trkpt><trkpt lat="37.077993" lon="9.1445124"><ele>117.0</ele><time>2026-05-02T13:49:29.662Z</time></trkpt><trkpt lat="37.0780239" lon="9.1449497"><ele>118.0</ele><time>2026-05-02T13:49:30.665Z</time></trkpt><trkpt lat="37.0780521" lon="9.1453919"><ele>119.0</ele><time>2026-05-02T13:49:31.663Z</time></trkpt><trkpt lat="37.0780763" lon="9.1458302"><ele>120.0</ele><time>2026-05-02T13:49:32.669Z</time></trkpt><trkpt lat="37.0780946" lon="9.1462278"><ele>120.0</ele><time>2026-05-02T13:49:33.662Z</time></trkpt><trkpt lat="37.0781048" lon="9.1465297"><ele>120.0</ele><time>2026-05-02T13:49:34.659Z</time></trkpt><trkpt lat="37.0781269" lon="9.1468062"><ele>121.0</ele><time>2026-05-02T13:49:35.665Z</time></trkpt><trkpt lat="37.0781467" lon="9.1470895"><ele>122.0</ele><time>2026-05-02T13:49:36.673Z</time></trkpt><trkpt lat="37.0781639" lon="9.1473604"><ele>123.0</ele><time>2026-05-02T13:49:37.665Z</time></trkpt><trkpt lat="37.0781819" lon="9.1476402"><ele>123.0</ele><time>2026-05-02T13:49:38.662Z</time></trkpt><trkpt lat="37.0782005" lon="9.1479156"><ele>123.0</ele><time>2026-05-02T13:49:39.653Z</time></trkpt><trkpt lat="37.0782165" lon="9.1481918"><ele>123.0</ele><time>2026-05-02T13:49:40.662Z</time></trkpt><trkpt lat="37.0782368" lon="9.1484602"><ele>122.66666666666666</ele><time>2026-05-02T13:49:41.665Z</time></trkpt><trkpt lat="37.0782518" lon="9.1487212"><ele>122.33333333333333</ele><time>2026-05-02T13:49:42.677Z</time></trkpt><trkpt lat="37.0782682" lon="9.1489817"><ele>122.0</ele><time>2026-05-02T13:49:43.677Z</time></trkpt><trkpt lat="37.0782855" lon="9.1492412"><ele>122.0</ele><time>2026-05-02T13:49:44.661Z</time></trkpt><trkpt lat="37.0783066" lon="9.149513"><ele>122.0</ele><time>2026-05-02T13:49:45.663Z</time></trkpt><trkpt lat="37.0783274" lon="9.149792"><ele>122.0</ele><time>2026-05-02T13:49:46.664Z</time></trkpt><trkpt lat="37.0783491" lon="9.1500779"><ele>121.0</ele><time>2026-05-02T13:49:47.673Z</time></trkpt><trkpt lat="37.0783714" lon="9.1503723"><ele>120.0</ele><time>2026-05-02T13:49:48.666Z</time></trkpt><trkpt lat="37.0783875" lon="9.1506677"><ele>120.5</ele><time>2026-05-02T13:49:49.663Z</time></trkpt><trkpt lat="37.0784003" lon="9.1509562"><ele>121.0</ele><time>2026-05-02T13:49:50.659Z</time></trkpt><trkpt lat="37.0784126" lon="9.151239"><ele>121.0</ele><time>2026-05-02T13:49:51.664Z</time></trkpt><trkpt lat="37.0784225" lon="9.1515191"><ele>121.0</ele><time>2026-05-02T13:49:52.669Z</time></trkpt><trkpt lat="37.0784219" lon="9.1517976"><ele>121.0</ele><time>2026-05-02T13:49:53.654Z</time></trkpt><trkpt lat="37.0784134" lon="9.1520824"><ele>119.5</ele><time>2026-05-02T13:49:54.657Z</time></trkpt><trkpt lat="37.0783984" lon="9.1523719"><ele>118.0</ele><time>2026-05-02T13:49:55.666Z</time></trkpt><trkpt lat="37.0783813" lon="9.1526637"><ele>117.0</ele><time>2026-05-02T13:49:56.676Z</time></trkpt><trkpt lat="37.0783596" lon="9.1529461"><ele>116.0</ele><time>2026-05-02T13:49:57.661Z</time></trkpt><trkpt lat="37.0783375" lon="9.1532253"><ele>116.0</ele><time>2026-05-02T13:49:58.662Z</time></trkpt><trkpt lat="37.0783183" lon="9.1534948"><ele>116.0</ele><time>2026-05-02T13:49:59.657Z</time></trkpt><trkpt lat="37.0782962" lon="9.1537635"><ele>116.0</ele><time>2026-05-02T13:50:00.648Z</time></trkpt><trkpt lat="37.0782752" lon="9.1540433"><ele>119.5</ele><time>2026-05-02T13:50:01.666Z</time></trkpt><trkpt lat="37.0782491" lon="9.154327"><ele>123.0</ele><time>2026-05-02T13:50:02.661Z</time></trkpt><trkpt lat="37.0782244" lon="9.154611"><ele>123.33333333333334</ele><time>2026-05-02T13:50:03.657Z</time></trkpt><trkpt lat="37.0781983" lon="9.1548875"><ele>123.66666666666667</ele><time>2026-05-02T13:50:04.664Z</time></trkpt><trkpt lat="37.0781748" lon="9.1551645"><ele>124.0</ele><time>2026-05-02T13:50:05.671Z</time></trkpt><trkpt lat="37.0781519" lon="9.1554436"><ele>123.0</ele><time>2026-05-02T13:50:06.661Z</time></trkpt><trkpt lat="37.078129" lon="9.1557206"><ele>122.0</ele><time>2026-05-02T13:50:07.657Z</time></trkpt><trkpt lat="37.0781012" lon="9.1559949"><ele>121.0</ele><time>2026-05-02T13:50:08.666Z</time></trkpt><trkpt lat="37.0780757" lon="9.1562692"><ele>120.66666666666667</ele><time>2026-05-02T13:50:09.682Z</time></trkpt><trkpt lat="37.0780531" lon="9.1565415"><ele>120.33333333333334</ele><time>2026-05-02T13:50:10.665Z</time></trkpt><trkpt lat="37.0780311" lon="9.1568076"><ele>120.0</ele><time>2026-05-02T13:50:11.652Z</time></trkpt><trkpt lat="37.0780088" lon="9.1570784"><ele>120.0</ele><time>2026-05-02T13:50:12.653Z</time></trkpt><trkpt lat="37.0779879" lon="9.1573461"><ele>120.0</ele><time>2026-05-02T13:50:13.682Z</time></trkpt><trkpt lat="37.0779679" lon="9.1576155"><ele>120.0</ele><time>2026-05-02T13:50:14.671Z</time></trkpt><trkpt lat="37.0779488" lon="9.1578884"><ele>120.0</ele><time>2026-05-02T13:50:15.67Z</time></trkpt><trkpt lat="37.0779272" lon="9.1581582"><ele>120.0</ele><time>2026-05-02T13:50:16.668Z</time></trkpt><trkpt lat="37.0779052" lon="9.1584334"><ele>120.0</ele><time>2026-05-02T13:50:17.664Z</time></trkpt><trkpt lat="37.0778881" lon="9.1586957"><ele>120.0</ele><time>2026-05-02T13:50:18.662Z</time></trkpt><trkpt lat="37.0778662" lon="9.1589602"><ele>120.0</ele><time>2026-05-02T13:50:19.669Z</time></trkpt><trkpt lat="37.0778474" lon="9.1592254"><ele>120.0</ele><time>2026-05-02T13:50:20.676Z</time></trkpt><trkpt lat="37.0778249" lon="9.1594938"><ele>120.0</ele><time>2026-05-02T13:50:21.673Z</time></trkpt><trkpt lat="37.0778017" lon="9.1597685"><ele>120.0</ele><time>2026-05-02T13:50:22.663Z</time></trkpt><trkpt lat="37.0777781" lon="9.1600466"><ele>120.0</ele><time>2026-05-02T13:50:23.675Z</time></trkpt><trkpt lat="37.0777575" lon="9.160321"><ele>119.33333333333334</ele><time>2026-05-02T13:50:24.663Z</time></trkpt><trkpt lat="37.0777353" lon="9.1605918"><ele>118.66666666666667</ele><time>2026-05-02T13:50:25.67Z</time></trkpt><trkpt lat="37.0777174" lon="9.1608613"><ele>118.0</ele><time>2026-05-02T13:50:26.668Z</time></trkpt><trkpt lat="37.0776967" lon="9.1611349"><ele>118.0</ele><time>2026-05-02T13:50:27.672Z</time></trkpt><trkpt lat="37.0776695" lon="9.1614061"><ele>118.0</ele><time>2026-05-02T13:50:28.678Z</time></trkpt><trkpt lat="37.0776469" lon="9.1616784"><ele>118.0</ele><time>2026-05-02T13:50:29.662Z</time></trkpt><trkpt lat="37.0776279" lon="9.1619461"><ele>118.0</ele><time>2026-05-02T13:50:30.667Z</time></trkpt><trkpt lat="37.0776099" lon="9.162217"><ele>118.0</ele><time>2026-05-02T13:50:31.663Z</time></trkpt><trkpt lat="37.0775874" lon="9.1624891"><ele>118.0</ele><time>2026-05-02T13:50:32.673Z</time></trkpt><trkpt lat="37.0775655" lon="9.1627589"><ele>118.0</ele><time>2026-05-02T13:50:33.661Z</time></trkpt><trkpt lat="37.0775458" lon="9.1630307"><ele>118.0</ele><time>2026-05-02T13:50:34.657Z</time></trkpt><trkpt lat="37.0775278" lon="9.1632984"><ele>118.0</ele><time>2026-05-02T13:50:35.672Z</time></trkpt><trkpt lat="37.0775081" lon="9.1635747"><ele>118.0</ele><time>2026-05-02T13:50:36.668Z</time></trkpt><trkpt lat="37.0774867" lon="9.1638456"><ele>118.0</ele><time>2026-05-02T13:50:37.66Z</time></trkpt><trkpt lat="37.0774658" lon="9.1641196"><ele>118.0</ele><time>2026-05-02T13:50:38.665Z</time></trkpt><trkpt lat="37.0774441" lon="9.1643891"><ele>120.66666666666667</ele><time>2026-05-02T13:50:39.652Z</time></trkpt><trkpt lat="37.0774219" lon="9.1646613"><ele>123.33333333333334</ele><time>2026-05-02T13:50:40.666Z</time></trkpt><trkpt lat="37.0774029" lon="9.1649329"><ele>126.0</ele><time>2026-05-02T13:50:41.65Z</time></trkpt><trkpt lat="37.0773799" lon="9.1652047"><ele>126.0</ele><time>2026-05-02T13:50:42.653Z</time></trkpt><trkpt lat="37.0773557" lon="9.1654768"><ele>126.0</ele><time>2026-05-02T13:50:43.675Z</time></trkpt><trkpt lat="37.0773281" lon="9.1657487"><ele>126.0</ele><time>2026-05-02T13:50:44.676Z</time></trkpt><trkpt lat="37.077297" lon="9.1660173"><ele>124.66666666666666</ele><time>2026-05-02T13:50:45.675Z</time></trkpt><trkpt lat="37.0772671" lon="9.1662858"><ele>123.33333333333333</ele><time>2026-05-02T13:50:46.675Z</time></trkpt><trkpt lat="37.0772406" lon="9.1665584"><ele>122.0</ele><time>2026-05-02T13:50:47.671Z</time></trkpt><trkpt lat="37.0772163" lon="9.1668302"><ele>122.0</ele><time>2026-05-02T13:50:48.656Z</time></trkpt><trkpt lat="37.0771985" lon="9.1671023"><ele>122.0</ele><time>2026-05-02T13:50:49.671Z</time></trkpt><trkpt lat="37.0771773" lon="9.1673756"><ele>122.0</ele><time>2026-05-02T13:50:50.655Z</time></trkpt><trkpt lat="37.0771556" lon="9.1676484"><ele>120.66666666666666</ele><time>2026-05-02T13:50:51.665Z</time></trkpt><trkpt lat="37.0771302" lon="9.1679194"><ele>119.33333333333334</ele><time>2026-05-02T13:50:52.681Z</time></trkpt><trkpt lat="37.0771106" lon="9.1681917"><ele>118.0</ele><time>2026-05-02T13:50:53.674Z</time></trkpt><trkpt lat="37.0770897" lon="9.1684611"><ele>117.33333333333334</ele><time>2026-05-02T13:50:54.659Z</time></trkpt><trkpt lat="37.07707" lon="9.168733"><ele>116.66666666666666</ele><time>2026-05-02T13:50:55.674Z</time></trkpt><trkpt lat="37.0770532" lon="9.1690044"><ele>116.0</ele><time>2026-05-02T13:50:56.666Z</time></trkpt><trkpt lat="37.0770336" lon="9.1692785"><ele>116.0</ele><time>2026-05-02T13:50:57.666Z</time></trkpt><trkpt lat="37.0770129" lon="9.1695535"><ele>116.0</ele><time>2026-05-02T13:50:58.666Z</time></trkpt><trkpt lat="37.0769888" lon="9.1698234"><ele>116.0</ele><time>2026-05-02T13:50:59.671Z</time></trkpt><trkpt lat="37.0769605" lon="9.1700907"><ele>116.0</ele><time>2026-05-02T13:51:00.665Z</time></trkpt><trkpt lat="37.0769338" lon="9.1703646"><ele>116.0</ele><time>2026-05-02T13:51:01.674Z</time></trkpt><trkpt lat="37.07691" lon="9.1706317"><ele>116.0</ele><time>2026-05-02T13:51:02.67Z</time></trkpt><trkpt lat="37.0768891" lon="9.170902"><ele>115.66666666666666</ele><time>2026-05-02T13:51:03.635Z</time></trkpt><trkpt lat="37.0768679" lon="9.1711722"><ele>115.33333333333334</ele><time>2026-05-02T13:51:04.678Z</time></trkpt><trkpt lat="37.0768487" lon="9.171441"><ele>115.0</ele><time>2026-05-02T13:51:05.674Z</time></trkpt><trkpt lat="37.0768329" lon="9.171707"><ele>115.0</ele><time>2026-05-02T13:51:06.654Z</time></trkpt><trkpt lat="37.0768121" lon="9.1719779"><ele>115.0</ele><time>2026-05-02T13:51:07.643Z</time></trkpt><trkpt lat="37.0767935" lon="9.172251"><ele>115.0</ele><time>2026-05-02T13:51:08.667Z</time></trkpt><trkpt lat="37.0767706" lon="9.1725247"><ele>116.0</ele><time>2026-05-02T13:51:09.672Z</time></trkpt><trkpt lat="37.0767502" lon="9.1727986"><ele>117.0</ele><time>2026-05-02T13:51:10.667Z</time></trkpt><trkpt lat="37.0767267" lon="9.1730708"><ele>118.0</ele><time>2026-05-02T13:51:11.66Z</time></trkpt><trkpt lat="37.0767028" lon="9.1733426"><ele>118.0</ele><time>2026-05-02T13:51:12.664Z</time></trkpt><trkpt lat="37.076679" lon="9.1736172"><ele>118.0</ele><time>2026-05-02T13:51:13.66Z</time></trkpt><trkpt lat="37.0766477" lon="9.1738891"><ele>118.0</ele><time>2026-05-02T13:51:14.659Z</time></trkpt><trkpt lat="37.0766137" lon="9.1741558"><ele>117.66666666666667</ele><time>2026-05-02T13:51:15.662Z</time></trkpt><trkpt lat="37.0765782" lon="9.1744232"><ele>117.33333333333334</ele><time>2026-05-02T13:51:16.651Z</time></trkpt><trkpt lat="37.0765398" lon="9.1746921"><ele>117.0</ele><time>2026-05-02T13:51:17.66Z</time></trkpt><trkpt lat="37.0765031" lon="9.1749656"><ele>117.66666666666666</ele><time>2026-05-02T13:51:18.668Z</time></trkpt><trkpt lat="37.076466" lon="9.1752314"><ele>118.33333333333333</ele><time>2026-05-02T13:51:19.676Z</time></trkpt><trkpt lat="37.0764296" lon="9.1754933"><ele>119.0</ele><time>2026-05-02T13:51:20.654Z</time></trkpt><trkpt lat="37.0763934" lon="9.1757562"><ele>119.66666666666666</ele><time>2026-05-02T13:51:21.662Z</time></trkpt><trkpt lat="37.076354" lon="9.1760141"><ele>120.33333333333334</ele><time>2026-05-02T13:51:22.668Z</time></trkpt><trkpt lat="37.0763183" lon="9.1762645"><ele>121.0</ele><time>2026-05-02T13:51:23.665Z</time></trkpt><trkpt lat="37.0762806" lon="9.1765128"><ele>121.66666666666667</ele><time>2026-05-02T13:51:24.674Z</time></trkpt><trkpt lat="37.0762443" lon="9.1767657"><ele>122.33333333333334</ele><time>2026-05-02T13:51:25.655Z</time></trkpt><trkpt lat="37.0762059" lon="9.1770258"><ele>123.0</ele><time>2026-05-02T13:51:26.66Z</time></trkpt><trkpt lat="37.076162" lon="9.1772827"><ele>122.33333333333334</ele><time>2026-05-02T13:51:27.656Z</time></trkpt><trkpt lat="37.0761241" lon="9.1775412"><ele>121.66666666666667</ele><time>2026-05-02T13:51:28.662Z</time></trkpt><trkpt lat="37.0760851" lon="9.1778083"><ele>121.0</ele><time>2026-05-02T13:51:29.669Z</time></trkpt><trkpt lat="37.0760522" lon="9.1780852"><ele>119.5</ele><time>2026-05-02T13:51:30.661Z</time></trkpt><trkpt lat="37.0760236" lon="9.1783764"><ele>118.0</ele><time>2026-05-02T13:51:31.674Z</time></trkpt><trkpt lat="37.0759885" lon="9.1786736"><ele>118.0</ele><time>2026-05-02T13:51:32.655Z</time></trkpt><trkpt lat="37.0759505" lon="9.178972"><ele>118.0</ele><time>2026-05-02T13:51:33.655Z</time></trkpt><trkpt lat="37.075908" lon="9.1792641"><ele>117.0</ele><time>2026-05-02T13:51:34.666Z</time></trkpt><trkpt lat="37.0758613" lon="9.1795485"><ele>116.0</ele><time>2026-05-02T13:51:35.667Z</time></trkpt><trkpt lat="37.0758147" lon="9.1798273"><ele>116.66666666666666</ele><time>2026-05-02T13:51:36.653Z</time></trkpt><trkpt lat="37.0757693" lon="9.180093"><ele>117.33333333333334</ele><time>2026-05-02T13:51:37.647Z</time></trkpt><trkpt lat="37.075732" lon="9.1803535"><ele>118.0</ele><time>2026-05-02T13:51:38.659Z</time></trkpt><trkpt lat="37.0756941" lon="9.1806081"><ele>118.0</ele><time>2026-05-02T13:51:39.662Z</time></trkpt><trkpt lat="37.075656" lon="9.1808601"><ele>118.0</ele><time>2026-05-02T13:51:40.67Z</time></trkpt><trkpt lat="37.0756207" lon="9.1811115"><ele>118.0</ele><time>2026-05-02T13:51:41.659Z</time></trkpt><trkpt lat="37.0755805" lon="9.1813647"><ele>118.0</ele><time>2026-05-02T13:51:42.656Z</time></trkpt><trkpt lat="37.0755459" lon="9.1816146"><ele>118.0</ele><time>2026-05-02T13:51:43.669Z</time></trkpt><trkpt lat="37.0755084" lon="9.1818715"><ele>118.0</ele><time>2026-05-02T13:51:44.659Z</time></trkpt><trkpt lat="37.0754701" lon="9.182133"><ele>117.66666666666667</ele><time>2026-05-02T13:51:45.678Z</time></trkpt><trkpt lat="37.0754271" lon="9.1823931"><ele>117.33333333333334</ele><time>2026-05-02T13:51:46.666Z</time></trkpt><trkpt lat="37.0753857" lon="9.1826512"><ele>117.0</ele><time>2026-05-02T13:51:47.659Z</time></trkpt><trkpt lat="37.0753452" lon="9.1829052"><ele>117.0</ele><time>2026-05-02T13:51:48.657Z</time></trkpt><trkpt lat="37.0753069" lon="9.1831605"><ele>117.0</ele><time>2026-05-02T13:51:49.67Z</time></trkpt><trkpt lat="37.0752685" lon="9.1834149"><ele>117.0</ele><time>2026-05-02T13:51:50.661Z</time></trkpt><trkpt lat="37.0752322" lon="9.1836682"><ele>115.66666666666666</ele><time>2026-05-02T13:51:51.66Z</time></trkpt><trkpt lat="37.0751957" lon="9.1839244"><ele>114.33333333333333</ele><time>2026-05-02T13:51:52.666Z</time></trkpt><trkpt lat="37.0751569" lon="9.1841786"><ele>113.0</ele><time>2026-05-02T13:51:53.655Z</time></trkpt><trkpt lat="37.0751198" lon="9.1844387"><ele>113.0</ele><time>2026-05-02T13:51:54.668Z</time></trkpt><trkpt lat="37.0750844" lon="9.1846975"><ele>113.0</ele><time>2026-05-02T13:51:55.673Z</time></trkpt><trkpt lat="37.0750495" lon="9.184954"><ele>113.0</ele><time>2026-05-02T13:51:56.672Z</time></trkpt><trkpt lat="37.0750134" lon="9.1852108"><ele>113.0</ele><time>2026-05-02T13:51:57.677Z</time></trkpt><trkpt lat="37.0749745" lon="9.1854653"><ele>113.0</ele><time>2026-05-02T13:51:58.654Z</time></trkpt><trkpt lat="37.074937" lon="9.1857164"><ele>113.0</ele><time>2026-05-02T13:51:59.684Z</time></trkpt><trkpt lat="37.0748994" lon="9.185971"><ele>113.66666666666666</ele><time>2026-05-02T13:52:00.666Z</time></trkpt><trkpt lat="37.0748651" lon="9.186227"><ele>114.33333333333334</ele><time>2026-05-02T13:52:01.67Z</time></trkpt><trkpt lat="37.0748291" lon="9.1864813"><ele>115.0</ele><time>2026-05-02T13:52:02.683Z</time></trkpt><trkpt lat="37.0747917" lon="9.1867378"><ele>115.0</ele><time>2026-05-02T13:52:03.67Z</time></trkpt><trkpt lat="37.0747601" lon="9.1870009"><ele>115.0</ele><time>2026-05-02T13:52:04.681Z</time></trkpt><trkpt lat="37.0747272" lon="9.1872581"><ele>115.0</ele><time>2026-05-02T13:52:05.664Z</time></trkpt><trkpt lat="37.0746922" lon="9.1875191"><ele>115.0</ele><time>2026-05-02T13:52:06.674Z</time></trkpt><trkpt lat="37.0746547" lon="9.1877766"><ele>115.0</ele><time>2026-05-02T13:52:07.661Z</time></trkpt><trkpt lat="37.0746189" lon="9.1880336"><ele>115.0</ele><time>2026-05-02T13:52:08.667Z</time></trkpt><trkpt lat="37.0745798" lon="9.1882896"><ele>115.0</ele><time>2026-05-02T13:52:09.708Z</time></trkpt><trkpt lat="37.074544" lon="9.1885448"><ele>115.0</ele><time>2026-05-02T13:52:10.671Z</time></trkpt><trkpt lat="37.0745051" lon="9.1888021"><ele>115.0</ele><time>2026-05-02T13:52:11.68Z</time></trkpt><trkpt lat="37.0744677" lon="9.1890568"><ele>115.33333333333334</ele><time>2026-05-02T13:52:12.671Z</time></trkpt><trkpt lat="37.0744322" lon="9.18931"><ele>115.66666666666666</ele><time>2026-05-02T13:52:13.664Z</time></trkpt><trkpt lat="37.0743965" lon="9.1895656"><ele>116.0</ele><time>2026-05-02T13:52:14.658Z</time></trkpt><trkpt lat="37.0743626" lon="9.1898242"><ele>116.0</ele><time>2026-05-02T13:52:15.669Z</time></trkpt><trkpt lat="37.074322" lon="9.1900854"><ele>116.0</ele><time>2026-05-02T13:52:16.676Z</time></trkpt><trkpt lat="37.0742791" lon="9.190342"><ele>116.0</ele><time>2026-05-02T13:52:17.644Z</time></trkpt><trkpt lat="37.0742377" lon="9.190598"><ele>116.0</ele><time>2026-05-02T13:52:18.65Z</time></trkpt><trkpt lat="37.0742" lon="9.1908526"><ele>116.0</ele><time>2026-05-02T13:52:19.679Z</time></trkpt><trkpt lat="37.074166" lon="9.1911056"><ele>116.0</ele><time>2026-05-02T13:52:20.663Z</time></trkpt><trkpt lat="37.0741282" lon="9.1913591"><ele>117.66666666666666</ele><time>2026-05-02T13:52:21.668Z</time></trkpt><trkpt lat="37.0740894" lon="9.1916164"><ele>119.33333333333334</ele><time>2026-05-02T13:52:22.666Z</time></trkpt><trkpt lat="37.0740516" lon="9.191871"><ele>121.0</ele><time>2026-05-02T13:52:23.682Z</time></trkpt><trkpt lat="37.0740144" lon="9.1921296"><ele>121.66666666666667</ele><time>2026-05-02T13:52:24.659Z</time></trkpt><trkpt lat="37.0739725" lon="9.1923841"><ele>122.33333333333334</ele><time>2026-05-02T13:52:25.671Z</time></trkpt><trkpt lat="37.0739335" lon="9.1926393"><ele>123.0</ele><time>2026-05-02T13:52:26.666Z</time></trkpt><trkpt lat="37.0738875" lon="9.1928931"><ele>123.0</ele><time>2026-05-02T13:52:27.662Z</time></trkpt><trkpt lat="37.0738382" lon="9.193147"><ele>123.0</ele><time>2026-05-02T13:52:28.669Z</time></trkpt><trkpt lat="37.0737806" lon="9.1934027"><ele>123.0</ele><time>2026-05-02T13:52:29.662Z</time></trkpt><trkpt lat="37.0737171" lon="9.1936555"><ele>122.66666666666666</ele><time>2026-05-02T13:52:30.672Z</time></trkpt><trkpt lat="37.0736512" lon="9.193905"><ele>122.33333333333333</ele><time>2026-05-02T13:52:31.67Z</time></trkpt><trkpt lat="37.0735866" lon="9.1941523"><ele>122.0</ele><time>2026-05-02T13:52:32.66Z</time></trkpt><trkpt lat="37.0735192" lon="9.1943959"><ele>121.66666666666666</ele><time>2026-05-02T13:52:33.659Z</time></trkpt><trkpt lat="37.0734451" lon="9.1946422"><ele>121.33333333333334</ele><time>2026-05-02T13:52:34.666Z</time></trkpt><trkpt lat="37.0733636" lon="9.1948812"><ele>121.0</ele><time>2026-05-02T13:52:35.678Z</time></trkpt><trkpt lat="37.0732763" lon="9.1951186"><ele>122.33333333333334</ele><time>2026-05-02T13:52:36.677Z</time></trkpt><trkpt lat="37.0731854" lon="9.1953537"><ele>123.66666666666666</ele><time>2026-05-02T13:52:37.666Z</time></trkpt><trkpt lat="37.0730919" lon="9.1955877"><ele>125.0</ele><time>2026-05-02T13:52:38.665Z</time></trkpt><trkpt lat="37.0729947" lon="9.1958176"><ele>125.0</ele><time>2026-05-02T13:52:39.67Z</time></trkpt><trkpt lat="37.072891" lon="9.1960413"><ele>125.0</ele><time>2026-05-02T13:52:40.679Z</time></trkpt><trkpt lat="37.0727837" lon="9.1962719"><ele>125.0</ele><time>2026-05-02T13:52:41.655Z</time></trkpt><trkpt lat="37.0726835" lon="9.1964968"><ele>124.66666666666666</ele><time>2026-05-02T13:52:42.665Z</time></trkpt><trkpt lat="37.0725737" lon="9.1967177"><ele>124.33333333333334</ele><time>2026-05-02T13:52:43.662Z</time></trkpt><trkpt lat="37.0724574" lon="9.1969349"><ele>124.0</ele><time>2026-05-02T13:52:44.688Z</time></trkpt><trkpt lat="37.0723373" lon="9.1971479"><ele>123.0</ele><time>2026-05-02T13:52:45.673Z</time></trkpt><trkpt lat="37.0722224" lon="9.1973664"><ele>122.0</ele><time>2026-05-02T13:52:46.664Z</time></trkpt><trkpt lat="37.0721058" lon="9.1975846"><ele>121.0</ele><time>2026-05-02T13:52:47.65Z</time></trkpt><trkpt lat="37.0719964" lon="9.1978079"><ele>121.0</ele><time>2026-05-02T13:52:48.645Z</time></trkpt><trkpt lat="37.0718869" lon="9.1980264"><ele>121.0</ele><time>2026-05-02T13:52:49.674Z</time></trkpt><trkpt lat="37.0717779" lon="9.1982445"><ele>121.0</ele><time>2026-05-02T13:52:50.664Z</time></trkpt><trkpt lat="37.0716656" lon="9.198465"><ele>122.0</ele><time>2026-05-02T13:52:51.664Z</time></trkpt><trkpt lat="37.0715494" lon="9.1986849"><ele>123.0</ele><time>2026-05-02T13:52:52.662Z</time></trkpt><trkpt lat="37.0714347" lon="9.1989073"><ele>124.0</ele><time>2026-05-02T13:52:53.651Z</time></trkpt><trkpt lat="37.0713212" lon="9.1991309"><ele>124.0</ele><time>2026-05-02T13:52:54.674Z</time></trkpt><trkpt lat="37.0712097" lon="9.1993505"><ele>124.0</ele><time>2026-05-02T13:52:55.676Z</time></trkpt><trkpt lat="37.0710962" lon="9.1995692"><ele>124.0</ele><time>2026-05-02T13:52:56.67Z</time></trkpt><trkpt lat="37.070982" lon="9.1997872"><ele>124.0</ele><time>2026-05-02T13:52:57.669Z</time></trkpt><trkpt lat="37.0708712" lon="9.2000046"><ele>124.0</ele><time>2026-05-02T13:52:58.661Z</time></trkpt><trkpt lat="37.0707574" lon="9.2002246"><ele>124.0</ele><time>2026-05-02T13:52:59.676Z</time></trkpt><trkpt lat="37.0706475" lon="9.2004414"><ele>124.0</ele><time>2026-05-02T13:53:00.669Z</time></trkpt><trkpt lat="37.0705331" lon="9.2006587"><ele>124.0</ele><time>2026-05-02T13:53:01.678Z</time></trkpt><trkpt lat="37.0704174" lon="9.2008755"><ele>124.0</ele><time>2026-05-02T13:53:02.659Z</time></trkpt><trkpt lat="37.0703031" lon="9.201095"><ele>124.0</ele><time>2026-05-02T13:53:03.64Z</time></trkpt><trkpt lat="37.070186" lon="9.2013143"><ele>124.0</ele><time>2026-05-02T13:53:04.665Z</time></trkpt><trkpt lat="37.0700754" lon="9.2015356"><ele>124.0</ele><time>2026-05-02T13:53:05.673Z</time></trkpt><trkpt lat="37.0699621" lon="9.2017548"><ele>124.0</ele><time>2026-05-02T13:53:06.663Z</time></trkpt><trkpt lat="37.0698464" lon="9.2019728"><ele>124.0</ele><time>2026-05-02T13:53:07.666Z</time></trkpt><trkpt lat="37.0697267" lon="9.2021924"><ele>124.0</ele><time>2026-05-02T13:53:08.68Z</time></trkpt><trkpt lat="37.069608" lon="9.2024059"><ele>124.0</ele><time>2026-05-02T13:53:09.667Z</time></trkpt><trkpt lat="37.0694919" lon="9.2026186"><ele>124.0</ele><time>2026-05-02T13:53:10.663Z</time></trkpt><trkpt lat="37.0693798" lon="9.2028336"><ele>124.0</ele><time>2026-05-02T13:53:11.662Z</time></trkpt><trkpt lat="37.0692665" lon="9.203051"><ele>124.0</ele><time>2026-05-02T13:53:12.665Z</time></trkpt><trkpt lat="37.0691537" lon="9.2032717"><ele>124.0</ele><time>2026-05-02T13:53:13.654Z</time></trkpt><trkpt lat="37.0690394" lon="9.203491"><ele>124.0</ele><time>2026-05-02T13:53:14.657Z</time></trkpt><trkpt lat="37.0689267" lon="9.2037064"><ele>124.0</ele><time>2026-05-02T13:53:15.646Z</time></trkpt><trkpt lat="37.0688126" lon="9.2039256"><ele>124.0</ele><time>2026-05-02T13:53:16.657Z</time></trkpt><trkpt lat="37.0686982" lon="9.2041443"><ele>124.0</ele><time>2026-05-02T13:53:17.668Z</time></trkpt><trkpt lat="37.0685815" lon="9.2043626"><ele>124.0</ele><time>2026-05-02T13:53:18.661Z</time></trkpt><trkpt lat="37.0684652" lon="9.2045843"><ele>124.0</ele><time>2026-05-02T13:53:19.667Z</time></trkpt><trkpt lat="37.068352" lon="9.2048044"><ele>124.0</ele><time>2026-05-02T13:53:20.663Z</time></trkpt><trkpt lat="37.0682403" lon="9.2050237"><ele>124.0</ele><time>2026-05-02T13:53:21.658Z</time></trkpt><trkpt lat="37.0681254" lon="9.2052399"><ele>124.0</ele><time>2026-05-02T13:53:22.664Z</time></trkpt><trkpt lat="37.0680101" lon="9.2054582"><ele>124.0</ele><time>2026-05-02T13:53:23.657Z</time></trkpt><trkpt lat="37.0678921" lon="9.205677"><ele>122.66666666666667</ele><time>2026-05-02T13:53:24.676Z</time></trkpt><trkpt lat="37.0677764" lon="9.205895"><ele>121.33333333333334</ele><time>2026-05-02T13:53:25.667Z</time></trkpt><trkpt lat="37.06766" lon="9.2061136"><ele>120.0</ele><time>2026-05-02T13:53:26.661Z</time></trkpt><trkpt lat="37.0675443" lon="9.2063309"><ele>120.33333333333334</ele><time>2026-05-02T13:53:27.677Z</time></trkpt><trkpt lat="37.0674308" lon="9.2065456"><ele>120.66666666666667</ele><time>2026-05-02T13:53:28.669Z</time></trkpt><trkpt lat="37.0673179" lon="9.2067588"><ele>121.0</ele><time>2026-05-02T13:53:29.676Z</time></trkpt><trkpt lat="37.0672047" lon="9.2069756"><ele>121.0</ele><time>2026-05-02T13:53:30.671Z</time></trkpt><trkpt lat="37.0670922" lon="9.2071924"><ele>121.0</ele><time>2026-05-02T13:53:31.669Z</time></trkpt><trkpt lat="37.0669793" lon="9.207413"><ele>121.0</ele><time>2026-05-02T13:53:32.668Z</time></trkpt><trkpt lat="37.066864" lon="9.2076329"><ele>121.0</ele><time>2026-05-02T13:53:33.666Z</time></trkpt><trkpt lat="37.0667523" lon="9.2078575"><ele>121.0</ele><time>2026-05-02T13:53:34.674Z</time></trkpt><trkpt lat="37.0666369" lon="9.2080759"><ele>121.0</ele><time>2026-05-02T13:53:35.673Z</time></trkpt><trkpt lat="37.0665187" lon="9.2082965"><ele>121.0</ele><time>2026-05-02T13:53:36.685Z</time></trkpt><trkpt lat="37.0664033" lon="9.208516"><ele>121.0</ele><time>2026-05-02T13:53:37.661Z</time></trkpt><trkpt lat="37.0662971" lon="9.2087388"><ele>121.0</ele><time>2026-05-02T13:53:38.661Z</time></trkpt><trkpt lat="37.0661884" lon="9.2089593"><ele>122.0</ele><time>2026-05-02T13:53:39.679Z</time></trkpt><trkpt lat="37.0660779" lon="9.2091776"><ele>123.0</ele><time>2026-05-02T13:53:40.656Z</time></trkpt><trkpt lat="37.0659643" lon="9.2093912"><ele>124.0</ele><time>2026-05-02T13:53:41.659Z</time></trkpt><trkpt lat="37.0658421" lon="9.209608"><ele>124.0</ele><time>2026-05-02T13:53:42.658Z</time></trkpt><trkpt lat="37.0657289" lon="9.2098301"><ele>124.0</ele><time>2026-05-02T13:53:43.673Z</time></trkpt><trkpt lat="37.0656124" lon="9.2100479"><ele>124.0</ele><time>2026-05-02T13:53:44.672Z</time></trkpt><trkpt lat="37.0655013" lon="9.2102675"><ele>124.0</ele><time>2026-05-02T13:53:45.67Z</time></trkpt><trkpt lat="37.0653853" lon="9.2104887"><ele>124.0</ele><time>2026-05-02T13:53:46.648Z</time></trkpt><trkpt lat="37.0652704" lon="9.2107078"><ele>124.0</ele><time>2026-05-02T13:53:47.658Z</time></trkpt><trkpt lat="37.0651595" lon="9.2109244"><ele>123.66666666666667</ele><time>2026-05-02T13:53:48.673Z</time></trkpt><trkpt lat="37.0650428" lon="9.211138"><ele>123.33333333333334</ele><time>2026-05-02T13:53:49.675Z</time></trkpt><trkpt lat="37.0649301" lon="9.2113533"><ele>123.0</ele><time>2026-05-02T13:53:50.681Z</time></trkpt><trkpt lat="37.0648169" lon="9.2115726"><ele>124.0</ele><time>2026-05-02T13:53:51.658Z</time></trkpt><trkpt lat="37.0647045" lon="9.2117896"><ele>125.0</ele><time>2026-05-02T13:53:52.663Z</time></trkpt><trkpt lat="37.0645925" lon="9.2120087"><ele>126.0</ele><time>2026-05-02T13:53:53.653Z</time></trkpt><trkpt lat="37.0644794" lon="9.212231"><ele>126.0</ele><time>2026-05-02T13:53:54.67Z</time></trkpt><trkpt lat="37.0643681" lon="9.2124472"><ele>126.0</ele><time>2026-05-02T13:53:55.662Z</time></trkpt><trkpt lat="37.0642558" lon="9.2126651"><ele>126.0</ele><time>2026-05-02T13:53:56.66Z</time></trkpt><trkpt lat="37.064145" lon="9.2128802"><ele>126.33333333333334</ele><time>2026-05-02T13:53:57.684Z</time></trkpt><trkpt lat="37.0640321" lon="9.2130969"><ele>126.66666666666667</ele><time>2026-05-02T13:53:58.657Z</time></trkpt><trkpt lat="37.0639188" lon="9.2133188"><ele>127.0</ele><time>2026-05-02T13:53:59.665Z</time></trkpt><trkpt lat="37.063802" lon="9.2135416"><ele>128.0</ele><time>2026-05-02T13:54:00.664Z</time></trkpt><trkpt lat="37.0636881" lon="9.2137612"><ele>129.0</ele><time>2026-05-02T13:54:01.664Z</time></trkpt><trkpt lat="37.063577" lon="9.2139796"><ele>130.0</ele><time>2026-05-02T13:54:02.666Z</time></trkpt><trkpt lat="37.0634635" lon="9.214195"><ele>130.0</ele><time>2026-05-02T13:54:03.667Z</time></trkpt><trkpt lat="37.0633483" lon="9.2144147"><ele>130.0</ele><time>2026-05-02T13:54:04.671Z</time></trkpt><trkpt lat="37.0632356" lon="9.214636"><ele>130.0</ele><time>2026-05-02T13:54:05.678Z</time></trkpt><trkpt lat="37.0631227" lon="9.2148561"><ele>130.66666666666669</ele><time>2026-05-02T13:54:06.663Z</time></trkpt><trkpt lat="37.0630064" lon="9.2150761"><ele>131.33333333333334</ele><time>2026-05-02T13:54:07.678Z</time></trkpt><trkpt lat="37.0628923" lon="9.2152959"><ele>132.0</ele><time>2026-05-02T13:54:08.652Z</time></trkpt><trkpt lat="37.0627782" lon="9.2155141"><ele>132.66666666666666</ele><time>2026-05-02T13:54:09.658Z</time></trkpt><trkpt lat="37.0626664" lon="9.2157309"><ele>133.33333333333331</ele><time>2026-05-02T13:54:10.664Z</time></trkpt><trkpt lat="37.0625672" lon="9.2159532"><ele>134.0</ele><time>2026-05-02T13:54:11.658Z</time></trkpt><trkpt lat="37.0624808" lon="9.2161852"><ele>135.33333333333331</ele><time>2026-05-02T13:54:12.673Z</time></trkpt><trkpt lat="37.0624081" lon="9.2164218"><ele>136.66666666666666</ele><time>2026-05-02T13:54:13.67Z</time></trkpt><trkpt lat="37.0623511" lon="9.2166689"><ele>138.0</ele><time>2026-05-02T13:54:14.66Z</time></trkpt><trkpt lat="37.0623048" lon="9.2169245"><ele>138.33333333333334</ele><time>2026-05-02T13:54:15.662Z</time></trkpt><trkpt lat="37.0622773" lon="9.2171845"><ele>138.66666666666669</ele><time>2026-05-02T13:54:16.674Z</time></trkpt><trkpt lat="37.0622649" lon="9.2174463"><ele>139.0</ele><time>2026-05-02T13:54:17.658Z</time></trkpt><trkpt lat="37.0622687" lon="9.2177065"><ele>138.66666666666669</ele><time>2026-05-02T13:54:18.673Z</time></trkpt><trkpt lat="37.062284" lon="9.2179598"><ele>138.33333333333334</ele><time>2026-05-02T13:54:19.669Z</time></trkpt><trkpt lat="37.0623018" lon="9.2182187"><ele>138.0</ele><time>2026-05-02T13:54:20.659Z</time></trkpt><trkpt lat="37.0623161" lon="9.218478"><ele>138.0</ele><time>2026-05-02T13:54:21.663Z</time></trkpt><trkpt lat="37.0623357" lon="9.2187412"><ele>138.0</ele><time>2026-05-02T13:54:22.668Z</time></trkpt><trkpt lat="37.0623539" lon="9.2189924"><ele>138.0</ele><time>2026-05-02T13:54:23.656Z</time></trkpt><trkpt lat="37.0623641" lon="9.2192491"><ele>139.0</ele><time>2026-05-02T13:54:24.667Z</time></trkpt><trkpt lat="37.0623757" lon="9.219512"><ele>140.0</ele><time>2026-05-02T13:54:25.671Z</time></trkpt><trkpt lat="37.0623702" lon="9.2197765"><ele>141.0</ele><time>2026-05-02T13:54:26.676Z</time></trkpt><trkpt lat="37.0623488" lon="9.2200438"><ele>141.0</ele><time>2026-05-02T13:54:27.672Z</time></trkpt><trkpt lat="37.0623117" lon="9.2203022"><ele>141.0</ele><time>2026-05-02T13:54:28.663Z</time></trkpt><trkpt lat="37.0622586" lon="9.2205579"><ele>141.0</ele><time>2026-05-02T13:54:29.674Z</time></trkpt><trkpt lat="37.0621906" lon="9.2208085"><ele>140.33333333333334</ele><time>2026-05-02T13:54:30.68Z</time></trkpt><trkpt lat="37.0621038" lon="9.221053"><ele>139.66666666666669</ele><time>2026-05-02T13:54:31.666Z</time></trkpt><trkpt lat="37.0620069" lon="9.2212788"><ele>139.0</ele><time>2026-05-02T13:54:32.678Z</time></trkpt><trkpt lat="37.0618972" lon="9.221497"><ele>138.33333333333334</ele><time>2026-05-02T13:54:33.682Z</time></trkpt><trkpt lat="37.0617775" lon="9.2217063"><ele>137.66666666666666</ele><time>2026-05-02T13:54:34.673Z</time></trkpt><trkpt lat="37.0616397" lon="9.2219072"><ele>137.0</ele><time>2026-05-02T13:54:35.666Z</time></trkpt><trkpt lat="37.0614933" lon="9.222085"><ele>137.0</ele><time>2026-05-02T13:54:36.668Z</time></trkpt><trkpt lat="37.0613259" lon="9.2222478"><ele>137.0</ele><time>2026-05-02T13:54:37.659Z</time></trkpt><trkpt lat="37.0611716" lon="9.2223989"><ele>137.0</ele><time>2026-05-02T13:54:38.666Z</time></trkpt><trkpt lat="37.0610226" lon="9.2225232"><ele>137.25</ele><time>2026-05-02T13:54:39.656Z</time></trkpt><trkpt lat="37.060886" lon="9.2226341"><ele>137.5</ele><time>2026-05-02T13:54:40.661Z</time></trkpt><trkpt lat="37.0607753" lon="9.2227213"><ele>137.75</ele><time>2026-05-02T13:54:41.66Z</time></trkpt><trkpt lat="37.0606855" lon="9.222789"><ele>138.0</ele><time>2026-05-02T13:54:42.657Z</time></trkpt><trkpt lat="37.0606233" lon="9.2228407"><ele>138.20000000000002</ele><time>2026-05-02T13:54:43.665Z</time></trkpt><trkpt lat="37.0605607" lon="9.2228886"><ele>138.4</ele><time>2026-05-02T13:54:44.671Z</time></trkpt><trkpt lat="37.0604722" lon="9.222949"><ele>138.60000000000002</ele><time>2026-05-02T13:54:46.662Z</time></trkpt><trkpt lat="37.0604195" lon="9.222993"><ele>138.8</ele><time>2026-05-02T13:57:38.664Z</time></trkpt><trkpt lat="37.0603532" lon="9.2230546"><ele>139.0</ele><time>2026-05-02T13:57:41.67Z</time></trkpt><trkpt lat="37.0602445" lon="9.2231432"><ele>139.0</ele><time>2026-05-02T13:57:43.646Z</time></trkpt><trkpt lat="37.0601772" lon="9.223199"><ele>139.0</ele><time>2026-05-02T13:57:44.64Z</time></trkpt><trkpt lat="37.0601071" lon="9.2232703"><ele>139.0</ele><time>2026-05-02T13:57:45.641Z</time></trkpt><trkpt lat="37.0600353" lon="9.2233413"><ele>139.0</ele><time>2026-05-02T13:57:46.632Z</time></trkpt><trkpt lat="37.0598918" lon="9.2234809"><ele>139.0</ele><time>2026-05-02T13:57:48.689Z</time></trkpt><trkpt lat="37.059416" lon="9.2238889"><ele>138.75</ele><time>2026-05-02T13:57:53.665Z</time></trkpt><trkpt lat="37.0593071" lon="9.2239796"><ele>138.5</ele><time>2026-05-02T13:57:54.636Z</time></trkpt><trkpt lat="37.0591919" lon="9.2240777"><ele>138.25</ele><time>2026-05-02T13:57:55.662Z</time></trkpt><trkpt lat="37.0590697" lon="9.2241872"><ele>138.0</ele><time>2026-05-02T13:57:56.651Z</time></trkpt><trkpt lat="37.0589466" lon="9.2243062"><ele>138.0</ele><time>2026-05-02T13:57:57.635Z</time></trkpt><trkpt lat="37.0588193" lon="9.2244269"><ele>138.0</ele><time>2026-05-02T13:57:58.631Z</time></trkpt><trkpt lat="37.0587005" lon="9.2245548"><ele>138.0</ele><time>2026-05-02T13:57:59.64Z</time></trkpt><trkpt lat="37.0585958" lon="9.2246801"><ele>138.0</ele><time>2026-05-02T13:58:00.648Z</time></trkpt><trkpt lat="37.058494" lon="9.2248081"><ele>138.0</ele><time>2026-05-02T13:58:01.641Z</time></trkpt><trkpt lat="37.0583988" lon="9.2249382"><ele>138.0</ele><time>2026-05-02T13:58:02.658Z</time></trkpt><trkpt lat="37.0583043" lon="9.2250738"><ele>138.0</ele><time>2026-05-02T13:58:03.642Z</time></trkpt><trkpt lat="37.0582077" lon="9.2252177"><ele>138.0</ele><time>2026-05-02T13:58:04.65Z</time></trkpt><trkpt lat="37.0581187" lon="9.2253605"><ele>138.0</ele><time>2026-05-02T13:58:05.635Z</time></trkpt><trkpt lat="37.0580361" lon="9.2255154"><ele>138.0</ele><time>2026-05-02T13:58:06.655Z</time></trkpt><trkpt lat="37.0579597" lon="9.2256683"><ele>138.0</ele><time>2026-05-02T13:58:07.654Z</time></trkpt><trkpt lat="37.057885" lon="9.2258274"><ele>137.66666666666666</ele><time>2026-05-02T13:58:08.661Z</time></trkpt><trkpt lat="37.0578111" lon="9.2259892"><ele>137.33333333333331</ele><time>2026-05-02T13:58:09.663Z</time></trkpt><trkpt lat="37.0577323" lon="9.2261639"><ele>137.0</ele><time>2026-05-02T13:58:10.65Z</time></trkpt><trkpt lat="37.0576575" lon="9.2263462"><ele>137.0</ele><time>2026-05-02T13:58:11.652Z</time></trkpt><trkpt lat="37.057572" lon="9.226555"><ele>137.0</ele><time>2026-05-02T13:58:12.656Z</time></trkpt><trkpt lat="37.0574869" lon="9.2267737"><ele>137.0</ele><time>2026-05-02T13:58:13.663Z</time></trkpt><trkpt lat="37.057401" lon="9.2269834"><ele>137.0</ele><time>2026-05-02T13:58:14.656Z</time></trkpt><trkpt lat="37.0573198" lon="9.2271935"><ele>137.0</ele><time>2026-05-02T13:58:15.679Z</time></trkpt><trkpt lat="37.0572418" lon="9.2274031"><ele>137.0</ele><time>2026-05-02T13:58:16.648Z</time></trkpt><trkpt lat="37.0571682" lon="9.2276146"><ele>137.0</ele><time>2026-05-02T13:58:17.653Z</time></trkpt><trkpt lat="37.0570944" lon="9.2278302"><ele>137.0</ele><time>2026-05-02T13:58:18.691Z</time></trkpt><trkpt lat="37.0570249" lon="9.2280483"><ele>137.0</ele><time>2026-05-02T13:58:19.669Z</time></trkpt><trkpt lat="37.0569642" lon="9.2282606"><ele>136.33333333333331</ele><time>2026-05-02T13:58:20.66Z</time></trkpt><trkpt lat="37.0569091" lon="9.2284744"><ele>135.66666666666666</ele><time>2026-05-02T13:58:21.655Z</time></trkpt><trkpt lat="37.0568577" lon="9.228688"><ele>135.0</ele><time>2026-05-02T13:58:22.673Z</time></trkpt><trkpt lat="37.0568107" lon="9.2288885"><ele>135.25</ele><time>2026-05-02T13:58:23.672Z</time></trkpt><trkpt lat="37.0567773" lon="9.2290693"><ele>135.5</ele><time>2026-05-02T13:58:24.658Z</time></trkpt><trkpt lat="37.0567398" lon="9.2292459"><ele>135.75</ele><time>2026-05-02T13:58:25.673Z</time></trkpt><trkpt lat="37.0567069" lon="9.229416"><ele>136.0</ele><time>2026-05-02T13:58:26.657Z</time></trkpt><trkpt lat="37.0566764" lon="9.2295743"><ele>136.0</ele><time>2026-05-02T13:58:27.658Z</time></trkpt><trkpt lat="37.0566496" lon="9.229728"><ele>136.0</ele><time>2026-05-02T13:58:28.667Z</time></trkpt><trkpt lat="37.0566226" lon="9.2298727"><ele>136.0</ele><time>2026-05-02T13:58:29.656Z</time></trkpt><trkpt lat="37.0565989" lon="9.2300097"><ele>136.0</ele><time>2026-05-02T13:58:30.66Z</time></trkpt><trkpt lat="37.0565767" lon="9.2301365"><ele>136.16666666666669</ele><time>2026-05-02T13:58:31.671Z</time></trkpt><trkpt lat="37.056557" lon="9.2302576"><ele>136.33333333333334</ele><time>2026-05-02T13:58:32.668Z</time></trkpt><trkpt lat="37.0565318" lon="9.2303716"><ele>136.5</ele><time>2026-05-02T13:58:33.667Z</time></trkpt><trkpt lat="37.0565146" lon="9.2304787"><ele>136.66666666666666</ele><time>2026-05-02T13:58:34.651Z</time></trkpt><trkpt lat="37.0564953" lon="9.2305821"><ele>136.83333333333331</ele><time>2026-05-02T13:58:35.666Z</time></trkpt><trkpt lat="37.0564745" lon="9.2306834"><ele>137.0</ele><time>2026-05-02T13:58:36.666Z</time></trkpt><trkpt lat="37.0564409" lon="9.2307766"><ele>137.0</ele><time>2026-05-02T13:58:37.659Z</time></trkpt><trkpt lat="37.0564054" lon="9.2308612"><ele>137.0</ele><time>2026-05-02T13:58:38.673Z</time></trkpt><trkpt lat="37.0563666" lon="9.2309432"><ele>137.0</ele><time>2026-05-02T13:58:39.667Z</time></trkpt><trkpt lat="37.0563334" lon="9.2310246"><ele>137.0</ele><time>2026-05-02T13:58:40.67Z</time></trkpt><trkpt lat="37.0563217" lon="9.2311138"><ele>137.0</ele><time>2026-05-02T13:58:41.66Z</time></trkpt><trkpt lat="37.0563248" lon="9.2312154"><ele>137.0</ele><time>2026-05-02T13:58:42.656Z</time></trkpt><trkpt lat="37.0563397" lon="9.2313236"><ele>137.0</ele><time>2026-05-02T13:58:43.673Z</time></trkpt><trkpt lat="37.0563558" lon="9.2314431"><ele>137.0</ele><time>2026-05-02T13:58:44.661Z</time></trkpt><trkpt lat="37.0563632" lon="9.2315759"><ele>137.0</ele><time>2026-05-02T13:58:45.674Z</time></trkpt><trkpt lat="37.0563573" lon="9.2317606"><ele>137.0</ele><time>2026-05-02T13:58:46.656Z</time></trkpt><trkpt lat="37.0563429" lon="9.2320005"><ele>136.66666666666666</ele><time>2026-05-02T13:58:47.66Z</time></trkpt><trkpt lat="37.0563326" lon="9.2322395"><ele>136.33333333333334</ele><time>2026-05-02T13:58:48.671Z</time></trkpt><trkpt lat="37.0563269" lon="9.2324826"><ele>136.0</ele><time>2026-05-02T13:58:49.668Z</time></trkpt><trkpt lat="37.056321" lon="9.2327017"><ele>137.0</ele><time>2026-05-02T13:58:50.671Z</time></trkpt><trkpt lat="37.0563192" lon="9.2329279"><ele>138.0</ele><time>2026-05-02T13:58:51.664Z</time></trkpt><trkpt lat="37.0563299" lon="9.2331679"><ele>139.0</ele><time>2026-05-02T13:58:52.67Z</time></trkpt><trkpt lat="37.0563556" lon="9.2334113"><ele>139.0</ele><time>2026-05-02T13:58:53.741Z</time></trkpt><trkpt lat="37.0563802" lon="9.2336385"><ele>139.0</ele><time>2026-05-02T13:58:54.653Z</time></trkpt><trkpt lat="37.0564072" lon="9.2338506"><ele>139.0</ele><time>2026-05-02T13:58:55.664Z</time></trkpt><trkpt lat="37.0564332" lon="9.2340572"><ele>139.33333333333334</ele><time>2026-05-02T13:58:56.652Z</time></trkpt><trkpt lat="37.0564567" lon="9.2342535"><ele>139.66666666666666</ele><time>2026-05-02T13:58:57.658Z</time></trkpt><trkpt lat="37.0564673" lon="9.2344418"><ele>140.0</ele><time>2026-05-02T13:58:58.657Z</time></trkpt><trkpt lat="37.0564708" lon="9.2346413"><ele>141.0</ele><time>2026-05-02T13:58:59.669Z</time></trkpt><trkpt lat="37.0564681" lon="9.2348334"><ele>142.0</ele><time>2026-05-02T13:59:00.678Z</time></trkpt><trkpt lat="37.0564655" lon="9.2350269"><ele>143.0</ele><time>2026-05-02T13:59:01.673Z</time></trkpt><trkpt lat="37.0564618" lon="9.2352175"><ele>143.0</ele><time>2026-05-02T13:59:02.664Z</time></trkpt><trkpt lat="37.0564562" lon="9.2354108"><ele>143.0</ele><time>2026-05-02T13:59:03.663Z</time></trkpt><trkpt lat="37.0564528" lon="9.2355918"><ele>143.0</ele><time>2026-05-02T13:59:04.662Z</time></trkpt><trkpt lat="37.0564456" lon="9.2357625"><ele>143.0</ele><time>2026-05-02T13:59:05.674Z</time></trkpt><trkpt lat="37.0564405" lon="9.2359073"><ele>143.6</ele><time>2026-05-02T13:59:06.664Z</time></trkpt><trkpt lat="37.0564353" lon="9.2360377"><ele>144.20000000000002</ele><time>2026-05-02T13:59:07.666Z</time></trkpt><trkpt lat="37.0564311" lon="9.2361618"><ele>144.8</ele><time>2026-05-02T13:59:08.657Z</time></trkpt><trkpt lat="37.0564292" lon="9.2362843"><ele>145.4</ele><time>2026-05-02T13:59:09.664Z</time></trkpt><trkpt lat="37.0564255" lon="9.2364055"><ele>146.0</ele><time>2026-05-02T13:59:10.671Z</time></trkpt><trkpt lat="37.0564249" lon="9.2365288"><ele>146.0</ele><time>2026-05-02T13:59:11.661Z</time></trkpt><trkpt lat="37.0564265" lon="9.236635"><ele>146.0</ele><time>2026-05-02T13:59:12.668Z</time></trkpt><trkpt lat="37.0564199" lon="9.2367384"><ele>146.0</ele><time>2026-05-02T13:59:13.664Z</time></trkpt><trkpt lat="37.0564201" lon="9.2368321"><ele>146.0</ele><time>2026-05-02T13:59:14.67Z</time></trkpt><trkpt lat="37.05642" lon="9.2369228"><ele>146.0</ele><time>2026-05-02T13:59:15.685Z</time></trkpt><trkpt lat="37.0564169" lon="9.2370023"><ele>146.0</ele><time>2026-05-02T13:59:16.702Z</time></trkpt><trkpt lat="37.0564166" lon="9.2371055"><ele>146.0</ele><time>2026-05-02T13:59:18.647Z</time></trkpt><trkpt lat="37.0564355" lon="9.2372275"><ele>146.0</ele><time>2026-05-02T14:10:38.639Z</time></trkpt><trkpt lat="37.0564726" lon="9.2373616"><ele>146.0</ele><time>2026-05-02T14:10:40.651Z</time></trkpt><trkpt lat="37.0565008" lon="9.2375242"><ele>146.0</ele><time>2026-05-02T14:10:42.685Z</time></trkpt><trkpt lat="37.0565076" lon="9.2376194"><ele>146.0</ele><time>2026-05-02T14:10:43.634Z</time></trkpt><trkpt lat="37.0565167" lon="9.2377165"><ele>146.0</ele><time>2026-05-02T14:10:44.655Z</time></trkpt><trkpt lat="37.0565217" lon="9.2378107"><ele>146.0</ele><time>2026-05-02T14:10:45.661Z</time></trkpt><trkpt lat="37.056529" lon="9.2378921"><ele>146.0</ele><time>2026-05-02T14:10:46.647Z</time></trkpt><trkpt lat="37.0565363" lon="9.2379754"><ele>146.0</ele><time>2026-05-02T14:10:47.662Z</time></trkpt><trkpt lat="37.0565463" lon="9.2380598"><ele>146.0</ele><time>2026-05-02T14:10:48.645Z</time></trkpt><trkpt lat="37.0565584" lon="9.2381397"><ele>146.0</ele><time>2026-05-02T14:10:49.665Z</time></trkpt><trkpt lat="37.0565873" lon="9.2383028"><ele>145.33333333333331</ele><time>2026-05-02T14:10:51.644Z</time></trkpt><trkpt lat="37.0566034" lon="9.2383882"><ele>144.66666666666666</ele><time>2026-05-02T14:10:52.65Z</time></trkpt><trkpt lat="37.0566262" lon="9.2384708"><ele>144.0</ele><time>2026-05-02T14:10:53.662Z</time></trkpt><trkpt lat="37.0566551" lon="9.2385503"><ele>143.33333333333334</ele><time>2026-05-02T14:10:54.661Z</time></trkpt><trkpt lat="37.0566833" lon="9.2386213"><ele>142.66666666666669</ele><time>2026-05-02T14:10:55.662Z</time></trkpt><trkpt lat="37.0567217" lon="9.2387387"><ele>142.0</ele><time>2026-05-02T14:10:57.645Z</time></trkpt><trkpt lat="37.0567661" lon="9.2388565"><ele>141.5</ele><time>2026-05-02T14:11:00.658Z</time></trkpt><trkpt lat="37.0568224" lon="9.2389815"><ele>141.0</ele><time>2026-05-02T14:11:02.666Z</time></trkpt><trkpt lat="37.0568631" lon="9.2390462"><ele>140.5</ele><time>2026-05-02T14:11:03.671Z</time></trkpt><trkpt lat="37.0569021" lon="9.239112"><ele>140.0</ele><time>2026-05-02T14:11:04.665Z</time></trkpt><trkpt lat="37.0569432" lon="9.2391742"><ele>139.5</ele><time>2026-05-02T14:11:05.658Z</time></trkpt><trkpt lat="37.056984" lon="9.2392434"><ele>139.0</ele><time>2026-05-02T14:11:06.656Z</time></trkpt><trkpt lat="37.0570724" lon="9.2393577"><ele>139.0</ele><time>2026-05-02T14:11:08.661Z</time></trkpt><trkpt lat="37.0571581" lon="9.2394637"><ele>139.0</ele><time>2026-05-02T14:11:10.643Z</time></trkpt><trkpt lat="37.0572425" lon="9.2395556"><ele>139.0</ele><time>2026-05-02T14:11:12.647Z</time></trkpt><trkpt lat="37.0573204" lon="9.2396424"><ele>139.0</ele><time>2026-05-02T14:11:14.667Z</time></trkpt><trkpt lat="37.0573933" lon="9.2397365"><ele>139.0</ele><time>2026-05-02T14:11:16.659Z</time></trkpt><trkpt lat="37.0574619" lon="9.2398342"><ele>138.2</ele><time>2026-05-02T14:11:18.663Z</time></trkpt><trkpt lat="37.0575328" lon="9.2399266"><ele>137.4</ele><time>2026-05-02T14:11:20.662Z</time></trkpt><trkpt lat="37.0576217" lon="9.2400256"><ele>136.6</ele><time>2026-05-02T14:11:22.653Z</time></trkpt><trkpt lat="37.0576712" lon="9.2400819"><ele>135.8</ele><time>2026-05-02T14:11:23.663Z</time></trkpt><trkpt lat="37.0577189" lon="9.2401371"><ele>135.0</ele><time>2026-05-02T14:11:24.655Z</time></trkpt><trkpt lat="37.0578083" lon="9.2402531"><ele>135.0</ele><time>2026-05-02T14:11:26.662Z</time></trkpt><trkpt lat="37.0578997" lon="9.2403534"><ele>135.0</ele><time>2026-05-02T14:11:28.679Z</time></trkpt><trkpt lat="37.0579829" lon="9.2404668"><ele>135.0</ele><time>2026-05-02T14:11:30.662Z</time></trkpt><trkpt lat="37.058027" lon="9.2405255"><ele>135.0</ele><time>2026-05-02T14:11:31.642Z</time></trkpt><trkpt lat="37.0580713" lon="9.2405893"><ele>135.0</ele><time>2026-05-02T14:11:32.653Z</time></trkpt><trkpt lat="37.0581208" lon="9.2406575"><ele>135.33333333333334</ele><time>2026-05-02T14:11:33.65Z</time></trkpt><trkpt lat="37.0581752" lon="9.2407277"><ele>135.66666666666666</ele><time>2026-05-02T14:11:34.661Z</time></trkpt><trkpt lat="37.0582265" lon="9.2408025"><ele>136.0</ele><time>2026-05-02T14:11:35.668Z</time></trkpt><trkpt lat="37.0582775" lon="9.2408798"><ele>136.33333333333331</ele><time>2026-05-02T14:11:36.662Z</time></trkpt><trkpt lat="37.0583218" lon="9.2409603"><ele>136.66666666666666</ele><time>2026-05-02T14:11:37.66Z</time></trkpt><trkpt lat="37.0583643" lon="9.2410381"><ele>137.0</ele><time>2026-05-02T14:11:38.648Z</time></trkpt><trkpt lat="37.0584024" lon="9.2411189"><ele>136.33333333333331</ele><time>2026-05-02T14:11:39.655Z</time></trkpt><trkpt lat="37.0584366" lon="9.2411969"><ele>135.66666666666666</ele><time>2026-05-02T14:11:40.656Z</time></trkpt><trkpt lat="37.0584696" lon="9.2412746"><ele>135.0</ele><time>2026-05-02T14:11:41.653Z</time></trkpt><trkpt lat="37.0585008" lon="9.2413458"><ele>134.33333333333334</ele><time>2026-05-02T14:11:42.665Z</time></trkpt><trkpt lat="37.0585328" lon="9.2414346"><ele>133.66666666666669</ele><time>2026-05-02T14:11:44.668Z</time></trkpt><trkpt lat="37.0585317" lon="9.2413167"><ele>133.0</ele><time>2026-05-02T14:11:53.663Z</time></trkpt><trkpt lat="37.0584684" lon="9.2411688"><ele>133.0</ele><time>2026-05-02T14:11:55.667Z</time></trkpt><trkpt lat="37.0584222" lon="9.2410916"><ele>133.0</ele><time>2026-05-02T14:11:56.657Z</time></trkpt><trkpt lat="37.058371" lon="9.2410143"><ele>133.0</ele><time>2026-05-02T14:11:57.653Z</time></trkpt><trkpt lat="37.058318" lon="9.2409312"><ele>133.0</ele><time>2026-05-02T14:11:58.652Z</time></trkpt><trkpt lat="37.0582624" lon="9.240827"><ele>133.0</ele><time>2026-05-02T14:11:59.661Z</time></trkpt><trkpt lat="37.0582011" lon="9.2407346"><ele>133.0</ele><time>2026-05-02T14:12:00.668Z</time></trkpt><trkpt lat="37.05814" lon="9.2406364"><ele>133.4</ele><time>2026-05-02T14:12:01.65Z</time></trkpt><trkpt lat="37.0580724" lon="9.240541"><ele>133.8</ele><time>2026-05-02T14:12:02.664Z</time></trkpt><trkpt lat="37.0580088" lon="9.2404489"><ele>134.2</ele><time>2026-05-02T14:12:03.666Z</time></trkpt><trkpt lat="37.057946" lon="9.2403638"><ele>134.6</ele><time>2026-05-02T14:12:04.658Z</time></trkpt><trkpt lat="37.057885" lon="9.2402888"><ele>135.0</ele><time>2026-05-02T14:12:05.663Z</time></trkpt><trkpt lat="37.0578293" lon="9.2402159"><ele>135.0</ele><time>2026-05-02T14:12:06.663Z</time></trkpt><trkpt lat="37.057781" lon="9.2401522"><ele>135.0</ele><time>2026-05-02T14:12:07.668Z</time></trkpt><trkpt lat="37.0577187" lon="9.2400549"><ele>135.0</ele><time>2026-05-02T14:12:09.657Z</time></trkpt><trkpt lat="37.0577095" lon="9.2399441"><ele>135.0</ele><time>2026-05-02T14:12:12.663Z</time></trkpt><trkpt lat="37.0577598" lon="9.2398285"><ele>135.0</ele><time>2026-05-02T14:12:14.744Z</time></trkpt><trkpt lat="37.0578282" lon="9.2397278"><ele>134.8</ele><time>2026-05-02T14:12:16.673Z</time></trkpt><trkpt lat="37.0579052" lon="9.2396461"><ele>134.6</ele><time>2026-05-02T14:12:18.648Z</time></trkpt><trkpt lat="37.057984" lon="9.239561"><ele>134.4</ele><time>2026-05-02T14:12:20.723Z</time></trkpt><trkpt lat="37.0580678" lon="9.2394681"><ele>134.2</ele><time>2026-05-02T14:12:22.719Z</time></trkpt><trkpt lat="37.0581417" lon="9.2393865"><ele>134.0</ele><time>2026-05-02T14:12:24.714Z</time></trkpt><trkpt lat="37.058212" lon="9.2393155"><ele>133.66666666666666</ele><time>2026-05-02T14:12:26.713Z</time></trkpt><trkpt lat="37.058299" lon="9.2392438"><ele>133.33333333333331</ele><time>2026-05-02T14:12:28.704Z</time></trkpt><trkpt lat="37.0583803" lon="9.2391822"><ele>133.0</ele><time>2026-05-02T14:12:30.729Z</time></trkpt><trkpt lat="37.0584571" lon="9.2391355"><ele>132.66666666666666</ele><time>2026-05-02T14:12:32.717Z</time></trkpt><trkpt lat="37.058527" lon="9.2391065"><ele>132.33333333333334</ele><time>2026-05-02T14:12:34.719Z</time></trkpt><trkpt lat="37.0585971" lon="9.2390734"><ele>132.0</ele><time>2026-05-02T14:12:36.711Z</time></trkpt><trkpt lat="37.0586815" lon="9.2390118"><ele>132.0</ele><time>2026-05-02T14:12:39.726Z</time></trkpt><trkpt lat="37.0587609" lon="9.2389814"><ele>132.0</ele><time>2026-05-02T14:12:41.713Z</time></trkpt><trkpt lat="37.0588636" lon="9.2389546"><ele>132.0</ele><time>2026-05-02T14:12:43.725Z</time></trkpt><trkpt lat="37.0589802" lon="9.2389439"><ele>132.0</ele><time>2026-05-02T14:12:45.716Z</time></trkpt><trkpt lat="37.0590959" lon="9.2389477"><ele>132.0</ele><time>2026-05-02T14:12:47.712Z</time></trkpt><trkpt lat="37.0592157" lon="9.2389697"><ele>131.83333333333334</ele><time>2026-05-02T14:12:49.731Z</time></trkpt><trkpt lat="37.0592812" lon="9.2389871"><ele>131.66666666666666</ele><time>2026-05-02T14:12:50.717Z</time></trkpt><trkpt lat="37.0593437" lon="9.2390012"><ele>131.5</ele><time>2026-05-02T14:12:51.721Z</time></trkpt><trkpt lat="37.0594601" lon="9.2390389"><ele>131.33333333333331</ele><time>2026-05-02T14:12:53.719Z</time></trkpt><trkpt lat="37.059549" lon="9.2390839"><ele>131.16666666666666</ele><time>2026-05-02T14:12:55.718Z</time></trkpt><trkpt lat="37.0596303" lon="9.239124"><ele>131.0</ele><time>2026-05-02T14:12:57.711Z</time></trkpt><trkpt lat="37.0597215" lon="9.239178"><ele>131.0</ele><time>2026-05-02T14:12:59.727Z</time></trkpt><trkpt lat="37.0598079" lon="9.2392453"><ele>131.0</ele><time>2026-05-02T14:13:01.72Z</time></trkpt><trkpt lat="37.0599048" lon="9.2393025"><ele>131.0</ele><time>2026-05-02T14:13:03.721Z</time></trkpt><trkpt lat="37.060005" lon="9.2393629"><ele>131.0</ele><time>2026-05-02T14:13:05.729Z</time></trkpt><trkpt lat="37.0601172" lon="9.2394332"><ele>131.0</ele><time>2026-05-02T14:13:07.705Z</time></trkpt><trkpt lat="37.0601763" lon="9.2394674"><ele>131.0</ele><time>2026-05-02T14:13:08.714Z</time></trkpt><trkpt lat="37.0602724" lon="9.2395164"><ele>131.0</ele><time>2026-05-02T14:13:10.698Z</time></trkpt><trkpt lat="37.0603344" lon="9.2395372"><ele>131.0</ele><time>2026-05-02T14:13:12.697Z</time></trkpt><trkpt lat="37.0604086" lon="9.2395824"><ele>131.0</ele><time>2026-05-02T14:13:14.74Z</time></trkpt><trkpt lat="37.0605026" lon="9.2396484"><ele>131.0</ele><time>2026-05-02T14:13:16.705Z</time></trkpt><trkpt lat="37.060561" lon="9.2396842"><ele>131.0</ele><time>2026-05-02T14:13:17.746Z</time></trkpt><trkpt lat="37.0606731" lon="9.2397467"><ele>131.0</ele><time>2026-05-02T14:13:19.714Z</time></trkpt><trkpt lat="37.0607334" lon="9.2397858"><ele>131.0</ele><time>2026-05-02T14:13:20.721Z</time></trkpt><trkpt lat="37.0607931" lon="9.2398205"><ele>131.0</ele><time>2026-05-02T14:13:21.707Z</time></trkpt><trkpt lat="37.0608536" lon="9.2398592"><ele>131.0</ele><time>2026-05-02T14:13:22.699Z</time></trkpt><trkpt lat="37.0609229" lon="9.2398981"><ele>131.0</ele><time>2026-05-02T14:13:23.706Z</time></trkpt><trkpt lat="37.0609932" lon="9.2399464"><ele>131.0</ele><time>2026-05-02T14:13:24.709Z</time></trkpt><trkpt lat="37.0610698" lon="9.2399972"><ele>131.0</ele><time>2026-05-02T14:13:25.698Z</time></trkpt><trkpt lat="37.0611588" lon="9.2400544"><ele>130.5</ele><time>2026-05-02T14:13:26.709Z</time></trkpt><trkpt lat="37.0612588" lon="9.2401115"><ele>130.0</ele><time>2026-05-02T14:13:27.71Z</time></trkpt><trkpt lat="37.0613686" lon="9.2401655"><ele>129.5</ele><time>2026-05-02T14:13:28.709Z</time></trkpt><trkpt lat="37.061481" lon="9.2402287"><ele>129.0</ele><time>2026-05-02T14:13:29.74Z</time></trkpt><trkpt lat="37.0615947" lon="9.2402946"><ele>129.5</ele><time>2026-05-02T14:13:30.688Z</time></trkpt><trkpt lat="37.0617075" lon="9.2403577"><ele>130.0</ele><time>2026-05-02T14:13:31.729Z</time></trkpt><trkpt lat="37.0618194" lon="9.2404236"><ele>130.5</ele><time>2026-05-02T14:13:32.699Z</time></trkpt><trkpt lat="37.0619314" lon="9.2404899"><ele>131.0</ele><time>2026-05-02T14:13:33.71Z</time></trkpt><trkpt lat="37.0620427" lon="9.2405594"><ele>131.0</ele><time>2026-05-02T14:13:34.716Z</time></trkpt><trkpt lat="37.0621579" lon="9.2406264"><ele>131.0</ele><time>2026-05-02T14:13:35.704Z</time></trkpt><trkpt lat="37.0622684" lon="9.2406929"><ele>131.0</ele><time>2026-05-02T14:13:36.716Z</time></trkpt><trkpt lat="37.0623813" lon="9.2407579"><ele>131.0</ele><time>2026-05-02T14:13:37.709Z</time></trkpt><trkpt lat="37.0624887" lon="9.240819"><ele>130.8</ele><time>2026-05-02T14:13:38.722Z</time></trkpt><trkpt lat="37.0625936" lon="9.2408776"><ele>130.6</ele><time>2026-05-02T14:13:39.724Z</time></trkpt><trkpt lat="37.0626921" lon="9.2409327"><ele>130.4</ele><time>2026-05-02T14:13:40.726Z</time></trkpt><trkpt lat="37.0627854" lon="9.2409863"><ele>130.2</ele><time>2026-05-02T14:13:41.727Z</time></trkpt><trkpt lat="37.0628727" lon="9.2410301"><ele>130.0</ele><time>2026-05-02T14:13:42.734Z</time></trkpt><trkpt lat="37.0629557" lon="9.2410771"><ele>130.0</ele><time>2026-05-02T14:13:43.714Z</time></trkpt><trkpt lat="37.0630395" lon="9.2411297"><ele>130.0</ele><time>2026-05-02T14:13:44.709Z</time></trkpt><trkpt lat="37.0631146" lon="9.2411786"><ele>130.0</ele><time>2026-05-02T14:13:45.715Z</time></trkpt><trkpt lat="37.0631838" lon="9.2412254"><ele>130.0</ele><time>2026-05-02T14:13:46.721Z</time></trkpt><trkpt lat="37.0632553" lon="9.2412694"><ele>130.0</ele><time>2026-05-02T14:13:47.726Z</time></trkpt><trkpt lat="37.0633269" lon="9.241314"><ele>130.0</ele><time>2026-05-02T14:13:48.708Z</time></trkpt><trkpt lat="37.0633957" lon="9.2413556"><ele>129.4</ele><time>2026-05-02T14:13:49.725Z</time></trkpt><trkpt lat="37.0634713" lon="9.2414011"><ele>128.8</ele><time>2026-05-02T14:13:50.713Z</time></trkpt><trkpt lat="37.0635547" lon="9.2414547"><ele>128.2</ele><time>2026-05-02T14:13:51.718Z</time></trkpt><trkpt lat="37.0636464" lon="9.241511"><ele>127.6</ele><time>2026-05-02T14:13:52.709Z</time></trkpt><trkpt lat="37.0637447" lon="9.2415661"><ele>127.0</ele><time>2026-05-02T14:13:53.708Z</time></trkpt><trkpt lat="37.0638476" lon="9.2416272"><ele>127.0</ele><time>2026-05-02T14:13:54.741Z</time></trkpt><trkpt lat="37.0639537" lon="9.2416892"><ele>127.0</ele><time>2026-05-02T14:13:55.715Z</time></trkpt><trkpt lat="37.0640667" lon="9.2417534"><ele>127.0</ele><time>2026-05-02T14:13:56.711Z</time></trkpt><trkpt lat="37.0641826" lon="9.2418156"><ele>127.0</ele><time>2026-05-02T14:13:57.705Z</time></trkpt><trkpt lat="37.0643012" lon="9.2418779"><ele>127.25</ele><time>2026-05-02T14:13:58.728Z</time></trkpt><trkpt lat="37.0644247" lon="9.2419483"><ele>127.5</ele><time>2026-05-02T14:13:59.727Z</time></trkpt><trkpt lat="37.0645523" lon="9.2420165"><ele>127.75</ele><time>2026-05-02T14:14:00.713Z</time></trkpt><trkpt lat="37.0646866" lon="9.2420856"><ele>128.0</ele><time>2026-05-02T14:14:01.686Z</time></trkpt><trkpt lat="37.0648319" lon="9.2421702"><ele>127.66666666666666</ele><time>2026-05-02T14:14:02.733Z</time></trkpt><trkpt lat="37.0649872" lon="9.2422676"><ele>127.33333333333334</ele><time>2026-05-02T14:14:03.701Z</time></trkpt><trkpt lat="37.0651567" lon="9.2423724"><ele>127.0</ele><time>2026-05-02T14:14:04.712Z</time></trkpt><trkpt lat="37.0653359" lon="9.2424781"><ele>127.0</ele><time>2026-05-02T14:14:05.716Z</time></trkpt><trkpt lat="37.0655228" lon="9.2425891"><ele>127.0</ele><time>2026-05-02T14:14:06.714Z</time></trkpt><trkpt lat="37.0657158" lon="9.2427002"><ele>127.0</ele><time>2026-05-02T14:14:07.713Z</time></trkpt><trkpt lat="37.0659117" lon="9.2428239"><ele>126.66666666666667</ele><time>2026-05-02T14:14:08.701Z</time></trkpt><trkpt lat="37.0661048" lon="9.2429493"><ele>126.33333333333334</ele><time>2026-05-02T14:14:09.707Z</time></trkpt><trkpt lat="37.0662969" lon="9.2430691"><ele>126.0</ele><time>2026-05-02T14:14:10.722Z</time></trkpt><trkpt lat="37.0664878" lon="9.2431872"><ele>126.0</ele><time>2026-05-02T14:14:11.713Z</time></trkpt><trkpt lat="37.0666734" lon="9.2433021"><ele>126.0</ele><time>2026-05-02T14:14:12.719Z</time></trkpt><trkpt lat="37.0668591" lon="9.2434098"><ele>126.0</ele><time>2026-05-02T14:14:13.721Z</time></trkpt><trkpt lat="37.0670391" lon="9.2435137"><ele>126.0</ele><time>2026-05-02T14:14:14.706Z</time></trkpt><trkpt lat="37.0672142" lon="9.2436157"><ele>126.0</ele><time>2026-05-02T14:14:15.716Z</time></trkpt><trkpt lat="37.0673849" lon="9.2437156"><ele>126.0</ele><time>2026-05-02T14:14:16.717Z</time></trkpt><trkpt lat="37.0675525" lon="9.2438127"><ele>125.0</ele><time>2026-05-02T14:14:17.74Z</time></trkpt><trkpt lat="37.0677177" lon="9.2439145"><ele>124.0</ele><time>2026-05-02T14:14:18.704Z</time></trkpt><trkpt lat="37.0678847" lon="9.2440169"><ele>123.0</ele><time>2026-05-02T14:14:19.72Z</time></trkpt><trkpt lat="37.0680508" lon="9.2441092"><ele>123.0</ele><time>2026-05-02T14:14:20.714Z</time></trkpt><trkpt lat="37.0682239" lon="9.2442156"><ele>123.0</ele><time>2026-05-02T14:14:21.723Z</time></trkpt><trkpt lat="37.0683985" lon="9.2443276"><ele>123.0</ele><time>2026-05-02T14:14:22.72Z</time></trkpt><trkpt lat="37.0685762" lon="9.2444399"><ele>122.66666666666666</ele><time>2026-05-02T14:14:23.721Z</time></trkpt><trkpt lat="37.0687527" lon="9.244548"><ele>122.33333333333333</ele><time>2026-05-02T14:14:24.738Z</time></trkpt><trkpt lat="37.0689277" lon="9.2446516"><ele>122.0</ele><time>2026-05-02T14:14:25.71Z</time></trkpt><trkpt lat="37.0690978" lon="9.2447515"><ele>122.0</ele><time>2026-05-02T14:14:26.723Z</time></trkpt><trkpt lat="37.0692596" lon="9.2448448"><ele>122.0</ele><time>2026-05-02T14:14:27.726Z</time></trkpt><trkpt lat="37.0694011" lon="9.2449284"><ele>122.0</ele><time>2026-05-02T14:14:28.712Z</time></trkpt><trkpt lat="37.0695334" lon="9.2450074"><ele>122.0</ele><time>2026-05-02T14:14:29.698Z</time></trkpt><trkpt lat="37.0696582" lon="9.2450802"><ele>122.0</ele><time>2026-05-02T14:14:30.716Z</time></trkpt><trkpt lat="37.0697733" lon="9.2451485"><ele>122.0</ele><time>2026-05-02T14:14:31.717Z</time></trkpt><trkpt lat="37.069883" lon="9.2452106"><ele>122.0</ele><time>2026-05-02T14:14:32.686Z</time></trkpt><trkpt lat="37.0699942" lon="9.2452692"><ele>122.25</ele><time>2026-05-02T14:14:33.746Z</time></trkpt><trkpt lat="37.0701051" lon="9.2453246"><ele>122.5</ele><time>2026-05-02T14:14:34.714Z</time></trkpt><trkpt lat="37.0702103" lon="9.2453893"><ele>122.75</ele><time>2026-05-02T14:14:35.727Z</time></trkpt><trkpt lat="37.0703151" lon="9.2454615"><ele>123.0</ele><time>2026-05-02T14:14:36.689Z</time></trkpt><trkpt lat="37.0704274" lon="9.2455369"><ele>123.0</ele><time>2026-05-02T14:14:37.724Z</time></trkpt><trkpt lat="37.0705522" lon="9.2456178"><ele>123.0</ele><time>2026-05-02T14:14:38.7Z</time></trkpt><trkpt lat="37.0706885" lon="9.2457036"><ele>123.0</ele><time>2026-05-02T14:14:39.698Z</time></trkpt><trkpt lat="37.0708387" lon="9.2457938"><ele>122.66666666666666</ele><time>2026-05-02T14:14:40.723Z</time></trkpt><trkpt lat="37.0710019" lon="9.2458913"><ele>122.33333333333333</ele><time>2026-05-02T14:14:41.724Z</time></trkpt><trkpt lat="37.0711832" lon="9.2459993"><ele>122.0</ele><time>2026-05-02T14:14:42.717Z</time></trkpt><trkpt lat="37.0713713" lon="9.2461133"><ele>122.0</ele><time>2026-05-02T14:14:43.718Z</time></trkpt><trkpt lat="37.071563" lon="9.2462277"><ele>122.0</ele><time>2026-05-02T14:14:44.715Z</time></trkpt><trkpt lat="37.0717509" lon="9.2463396"><ele>122.0</ele><time>2026-05-02T14:14:45.722Z</time></trkpt><trkpt lat="37.0719362" lon="9.2464449"><ele>121.66666666666666</ele><time>2026-05-02T14:14:46.712Z</time></trkpt><trkpt lat="37.0721106" lon="9.2465471"><ele>121.33333333333334</ele><time>2026-05-02T14:14:47.696Z</time></trkpt><trkpt lat="37.0722845" lon="9.2466498"><ele>121.0</ele><time>2026-05-02T14:14:48.696Z</time></trkpt><trkpt lat="37.0724485" lon="9.2467612"><ele>120.66666666666667</ele><time>2026-05-02T14:14:49.694Z</time></trkpt><trkpt lat="37.0726106" lon="9.2468911"><ele>120.33333333333334</ele><time>2026-05-02T14:14:50.698Z</time></trkpt><trkpt lat="37.0727705" lon="9.2470392"><ele>120.0</ele><time>2026-05-02T14:14:51.713Z</time></trkpt><trkpt lat="37.0729285" lon="9.2472063"><ele>120.0</ele><time>2026-05-02T14:14:52.698Z</time></trkpt><trkpt lat="37.0730871" lon="9.2473829"><ele>120.0</ele><time>2026-05-02T14:14:53.724Z</time></trkpt><trkpt lat="37.0732424" lon="9.2475585"><ele>120.0</ele><time>2026-05-02T14:14:54.718Z</time></trkpt><trkpt lat="37.0734008" lon="9.2477316"><ele>119.66666666666666</ele><time>2026-05-02T14:14:55.703Z</time></trkpt><trkpt lat="37.0735462" lon="9.2478973"><ele>119.33333333333333</ele><time>2026-05-02T14:14:56.703Z</time></trkpt><trkpt lat="37.0736855" lon="9.2480559"><ele>119.0</ele><time>2026-05-02T14:14:57.704Z</time></trkpt><trkpt lat="37.0738145" lon="9.2482019"><ele>119.0</ele><time>2026-05-02T14:14:58.706Z</time></trkpt><trkpt lat="37.0739417" lon="9.2483497"><ele>119.0</ele><time>2026-05-02T14:14:59.708Z</time></trkpt><trkpt lat="37.0740706" lon="9.248492"><ele>119.0</ele><time>2026-05-02T14:15:00.705Z</time></trkpt><trkpt lat="37.0742014" lon="9.2486367"><ele>119.0</ele><time>2026-05-02T14:15:01.709Z</time></trkpt><trkpt lat="37.0743301" lon="9.2487779"><ele>119.0</ele><time>2026-05-02T14:15:02.717Z</time></trkpt><trkpt lat="37.0744594" lon="9.2489208"><ele>119.0</ele><time>2026-05-02T14:15:03.708Z</time></trkpt><trkpt lat="37.0745864" lon="9.2490629"><ele>119.0</ele><time>2026-05-02T14:15:04.705Z</time></trkpt><trkpt lat="37.0747113" lon="9.2492035"><ele>119.0</ele><time>2026-05-02T14:15:05.723Z</time></trkpt><trkpt lat="37.0748344" lon="9.2493411"><ele>119.0</ele><time>2026-05-02T14:15:06.706Z</time></trkpt><trkpt lat="37.0749572" lon="9.2494788"><ele>119.0</ele><time>2026-05-02T14:15:07.714Z</time></trkpt><trkpt lat="37.0750808" lon="9.2496162"><ele>119.0</ele><time>2026-05-02T14:15:08.701Z</time></trkpt><trkpt lat="37.0752059" lon="9.249756"><ele>119.0</ele><time>2026-05-02T14:15:09.696Z</time></trkpt><trkpt lat="37.0753317" lon="9.2498973"><ele>119.33333333333333</ele><time>2026-05-02T14:15:10.698Z</time></trkpt><trkpt lat="37.0754601" lon="9.2500373"><ele>119.66666666666666</ele><time>2026-05-02T14:15:11.714Z</time></trkpt><trkpt lat="37.0755923" lon="9.2501787"><ele>120.0</ele><time>2026-05-02T14:15:12.705Z</time></trkpt><trkpt lat="37.0757266" lon="9.2503224"><ele>120.0</ele><time>2026-05-02T14:15:13.713Z</time></trkpt><trkpt lat="37.0758627" lon="9.2504689"><ele>120.0</ele><time>2026-05-02T14:15:14.727Z</time></trkpt><trkpt lat="37.0759986" lon="9.2506206"><ele>120.0</ele><time>2026-05-02T14:15:15.705Z</time></trkpt><trkpt lat="37.0761333" lon="9.2507729"><ele>120.33333333333334</ele><time>2026-05-02T14:15:16.702Z</time></trkpt><trkpt lat="37.07627" lon="9.2509272"><ele>120.66666666666667</ele><time>2026-05-02T14:15:17.714Z</time></trkpt><trkpt lat="37.0764055" lon="9.2510785"><ele>121.0</ele><time>2026-05-02T14:15:18.717Z</time></trkpt><trkpt lat="37.076539" lon="9.2512312"><ele>121.0</ele><time>2026-05-02T14:15:19.694Z</time></trkpt><trkpt lat="37.0766736" lon="9.2513825"><ele>121.0</ele><time>2026-05-02T14:15:20.721Z</time></trkpt><trkpt lat="37.0768077" lon="9.2515309"><ele>121.0</ele><time>2026-05-02T14:15:21.729Z</time></trkpt><trkpt lat="37.0769394" lon="9.2516824"><ele>121.0</ele><time>2026-05-02T14:15:22.729Z</time></trkpt><trkpt lat="37.0770746" lon="9.2518332"><ele>121.0</ele><time>2026-05-02T14:15:23.716Z</time></trkpt><trkpt lat="37.0772087" lon="9.2519854"><ele>121.0</ele><time>2026-05-02T14:15:24.709Z</time></trkpt><trkpt lat="37.0773455" lon="9.2521355"><ele>120.66666666666667</ele><time>2026-05-02T14:15:25.709Z</time></trkpt><trkpt lat="37.0774796" lon="9.252288"><ele>120.33333333333334</ele><time>2026-05-02T14:15:26.705Z</time></trkpt><trkpt lat="37.0776144" lon="9.2524378"><ele>120.0</ele><time>2026-05-02T14:15:27.71Z</time></trkpt><trkpt lat="37.0777427" lon="9.2525834"><ele>120.0</ele><time>2026-05-02T14:15:28.715Z</time></trkpt><trkpt lat="37.0778754" lon="9.2527319"><ele>120.0</ele><time>2026-05-02T14:15:29.72Z</time></trkpt><trkpt lat="37.078008" lon="9.2528784"><ele>120.0</ele><time>2026-05-02T14:15:30.703Z</time></trkpt><trkpt lat="37.0781429" lon="9.2530288"><ele>120.0</ele><time>2026-05-02T14:15:31.701Z</time></trkpt><trkpt lat="37.0782799" lon="9.2531798"><ele>120.0</ele><time>2026-05-02T14:15:32.711Z</time></trkpt><trkpt lat="37.0784179" lon="9.253338"><ele>120.0</ele><time>2026-05-02T14:15:33.699Z</time></trkpt><trkpt lat="37.0785568" lon="9.2534953"><ele>120.0</ele><time>2026-05-02T14:15:34.687Z</time></trkpt><trkpt lat="37.0786996" lon="9.2536506"><ele>120.0</ele><time>2026-05-02T14:15:35.709Z</time></trkpt><trkpt lat="37.0788394" lon="9.253806"><ele>120.0</ele><time>2026-05-02T14:15:36.712Z</time></trkpt><trkpt lat="37.0789801" lon="9.2539615"><ele>119.66666666666666</ele><time>2026-05-02T14:15:37.705Z</time></trkpt><trkpt lat="37.0791225" lon="9.2541193"><ele>119.33333333333333</ele><time>2026-05-02T14:15:38.712Z</time></trkpt><trkpt lat="37.0792653" lon="9.2542783"><ele>119.0</ele><time>2026-05-02T14:15:39.711Z</time></trkpt><trkpt lat="37.0794072" lon="9.2544388"><ele>119.0</ele><time>2026-05-02T14:15:40.692Z</time></trkpt><trkpt lat="37.0795489" lon="9.2545979"><ele>119.0</ele><time>2026-05-02T14:15:41.721Z</time></trkpt><trkpt lat="37.0796874" lon="9.2547537"><ele>119.0</ele><time>2026-05-02T14:15:42.712Z</time></trkpt><trkpt lat="37.0798233" lon="9.2549059"><ele>118.33333333333333</ele><time>2026-05-02T14:15:43.715Z</time></trkpt><trkpt lat="37.0799573" lon="9.2550531"><ele>117.66666666666666</ele><time>2026-05-02T14:15:44.705Z</time></trkpt><trkpt lat="37.0800902" lon="9.2551983"><ele>117.0</ele><time>2026-05-02T14:15:45.718Z</time></trkpt><trkpt lat="37.0802222" lon="9.2553448"><ele>117.0</ele><time>2026-05-02T14:15:46.71Z</time></trkpt><trkpt lat="37.0803546" lon="9.2554918"><ele>117.0</ele><time>2026-05-02T14:15:47.702Z</time></trkpt><trkpt lat="37.0804882" lon="9.2556401"><ele>117.0</ele><time>2026-05-02T14:15:48.714Z</time></trkpt><trkpt lat="37.0806221" lon="9.2557881"><ele>117.33333333333334</ele><time>2026-05-02T14:15:49.703Z</time></trkpt><trkpt lat="37.0807568" lon="9.2559363"><ele>117.66666666666667</ele><time>2026-05-02T14:15:50.709Z</time></trkpt><trkpt lat="37.0808905" lon="9.2560896"><ele>118.0</ele><time>2026-05-02T14:15:51.716Z</time></trkpt><trkpt lat="37.0810293" lon="9.2562452"><ele>118.33333333333334</ele><time>2026-05-02T14:15:52.711Z</time></trkpt><trkpt lat="37.0811646" lon="9.256403"><ele>118.66666666666666</ele><time>2026-05-02T14:15:53.707Z</time></trkpt><trkpt lat="37.0813004" lon="9.2565572"><ele>119.0</ele><time>2026-05-02T14:15:54.711Z</time></trkpt><trkpt lat="37.0814355" lon="9.2567063"><ele>119.0</ele><time>2026-05-02T14:15:55.703Z</time></trkpt><trkpt lat="37.0815742" lon="9.2568542"><ele>119.0</ele><time>2026-05-02T14:15:56.714Z</time></trkpt><trkpt lat="37.0817107" lon="9.2570032"><ele>119.0</ele><time>2026-05-02T14:15:57.696Z</time></trkpt><trkpt lat="37.081849" lon="9.2571555"><ele>119.0</ele><time>2026-05-02T14:15:58.703Z</time></trkpt><trkpt lat="37.0819864" lon="9.2573119"><ele>119.0</ele><time>2026-05-02T14:15:59.704Z</time></trkpt><trkpt lat="37.0821241" lon="9.2574686"><ele>119.0</ele><time>2026-05-02T14:16:00.706Z</time></trkpt><trkpt lat="37.0822618" lon="9.2576241"><ele>119.0</ele><time>2026-05-02T14:16:01.715Z</time></trkpt><trkpt lat="37.0824021" lon="9.257783"><ele>119.0</ele><time>2026-05-02T14:16:02.693Z</time></trkpt><trkpt lat="37.0825433" lon="9.2579464"><ele>119.0</ele><time>2026-05-02T14:16:03.701Z</time></trkpt><trkpt lat="37.0826855" lon="9.2581047"><ele>119.33333333333333</ele><time>2026-05-02T14:16:04.73Z</time></trkpt><trkpt lat="37.0828281" lon="9.2582648"><ele>119.66666666666666</ele><time>2026-05-02T14:16:05.709Z</time></trkpt><trkpt lat="37.0829705" lon="9.2584254"><ele>120.0</ele><time>2026-05-02T14:16:06.721Z</time></trkpt><trkpt lat="37.0831125" lon="9.258586"><ele>120.0</ele><time>2026-05-02T14:16:07.708Z</time></trkpt><trkpt lat="37.0832542" lon="9.2587415"><ele>120.0</ele><time>2026-05-02T14:16:08.705Z</time></trkpt><trkpt lat="37.0833872" lon="9.258888"><ele>120.0</ele><time>2026-05-02T14:16:09.708Z</time></trkpt><trkpt lat="37.0835087" lon="9.2590225"><ele>120.25</ele><time>2026-05-02T14:16:10.694Z</time></trkpt><trkpt lat="37.0836214" lon="9.2591496"><ele>120.5</ele><time>2026-05-02T14:16:11.683Z</time></trkpt><trkpt lat="37.0837229" lon="9.2592617"><ele>120.75</ele><time>2026-05-02T14:16:12.698Z</time></trkpt><trkpt lat="37.083817" lon="9.2593651"><ele>121.0</ele><time>2026-05-02T14:16:13.72Z</time></trkpt><trkpt lat="37.0839099" lon="9.2594661"><ele>121.0</ele><time>2026-05-02T14:16:14.702Z</time></trkpt><trkpt lat="37.0840012" lon="9.259566"><ele>121.0</ele><time>2026-05-02T14:16:15.7Z</time></trkpt><trkpt lat="37.0840842" lon="9.2596615"><ele>121.0</ele><time>2026-05-02T14:16:16.71Z</time></trkpt><trkpt lat="37.084162" lon="9.2597527"><ele>121.0</ele><time>2026-05-02T14:16:17.731Z</time></trkpt><trkpt lat="37.0842415" lon="9.2598466"><ele>121.0</ele><time>2026-05-02T14:16:18.721Z</time></trkpt><trkpt lat="37.0843274" lon="9.2599442"><ele>121.0</ele><time>2026-05-02T14:16:19.714Z</time></trkpt><trkpt lat="37.0844197" lon="9.2600436"><ele>121.0</ele><time>2026-05-02T14:16:20.702Z</time></trkpt><trkpt lat="37.084515" lon="9.2601502"><ele>121.0</ele><time>2026-05-02T14:16:21.723Z</time></trkpt><trkpt lat="37.0846183" lon="9.2602586"><ele>121.0</ele><time>2026-05-02T14:16:22.739Z</time></trkpt><trkpt lat="37.084729" lon="9.2603778"><ele>121.0</ele><time>2026-05-02T14:16:23.725Z</time></trkpt><trkpt lat="37.0848472" lon="9.2605095"><ele>121.0</ele><time>2026-05-02T14:16:24.713Z</time></trkpt><trkpt lat="37.0849723" lon="9.2606565"><ele>121.33333333333334</ele><time>2026-05-02T14:16:25.707Z</time></trkpt><trkpt lat="37.0851009" lon="9.2608049"><ele>121.66666666666666</ele><time>2026-05-02T14:16:26.682Z</time></trkpt><trkpt lat="37.0852314" lon="9.2609549"><ele>122.0</ele><time>2026-05-02T14:16:27.714Z</time></trkpt><trkpt lat="37.085365" lon="9.2611074"><ele>122.0</ele><time>2026-05-02T14:16:28.7Z</time></trkpt><trkpt lat="37.085501" lon="9.2612606"><ele>122.0</ele><time>2026-05-02T14:16:29.708Z</time></trkpt><trkpt lat="37.0856363" lon="9.2614157"><ele>122.0</ele><time>2026-05-02T14:16:30.701Z</time></trkpt><trkpt lat="37.0857748" lon="9.2615736"><ele>122.33333333333333</ele><time>2026-05-02T14:16:31.71Z</time></trkpt><trkpt lat="37.0859134" lon="9.2617347"><ele>122.66666666666666</ele><time>2026-05-02T14:16:32.695Z</time></trkpt><trkpt lat="37.0860545" lon="9.2618981"><ele>123.0</ele><time>2026-05-02T14:16:33.717Z</time></trkpt><trkpt lat="37.0861977" lon="9.2620606"><ele>123.0</ele><time>2026-05-02T14:16:34.695Z</time></trkpt><trkpt lat="37.0863431" lon="9.2622198"><ele>123.0</ele><time>2026-05-02T14:16:35.676Z</time></trkpt><trkpt lat="37.086488" lon="9.262383"><ele>123.0</ele><time>2026-05-02T14:16:36.696Z</time></trkpt><trkpt lat="37.0866329" lon="9.262544"><ele>123.0</ele><time>2026-05-02T14:16:37.684Z</time></trkpt><trkpt lat="37.0867808" lon="9.2627036"><ele>123.0</ele><time>2026-05-02T14:16:38.706Z</time></trkpt><trkpt lat="37.0869267" lon="9.2628585"><ele>123.0</ele><time>2026-05-02T14:16:39.732Z</time></trkpt><trkpt lat="37.0870758" lon="9.2630077"><ele>123.66666666666666</ele><time>2026-05-02T14:16:40.715Z</time></trkpt><trkpt lat="37.0872302" lon="9.2631433"><ele>124.33333333333333</ele><time>2026-05-02T14:16:41.695Z</time></trkpt><trkpt lat="37.0873921" lon="9.263267"><ele>125.0</ele><time>2026-05-02T14:16:42.705Z</time></trkpt><trkpt lat="37.0875637" lon="9.2633739"><ele>125.33333333333333</ele><time>2026-05-02T14:16:43.699Z</time></trkpt><trkpt lat="37.0877432" lon="9.2634723"><ele>125.66666666666666</ele><time>2026-05-02T14:16:44.726Z</time></trkpt><trkpt lat="37.0879273" lon="9.2635612"><ele>126.0</ele><time>2026-05-02T14:16:45.712Z</time></trkpt><trkpt lat="37.0881171" lon="9.2636472"><ele>125.66666666666666</ele><time>2026-05-02T14:16:46.707Z</time></trkpt><trkpt lat="37.0883067" lon="9.2637319"><ele>125.33333333333333</ele><time>2026-05-02T14:16:47.702Z</time></trkpt><trkpt lat="37.0884996" lon="9.2638157"><ele>125.0</ele><time>2026-05-02T14:16:48.74Z</time></trkpt><trkpt lat="37.0886921" lon="9.2639016"><ele>125.0</ele><time>2026-05-02T14:16:49.705Z</time></trkpt><trkpt lat="37.088885" lon="9.2639862"><ele>125.0</ele><time>2026-05-02T14:16:50.703Z</time></trkpt><trkpt lat="37.0890771" lon="9.2640733"><ele>125.0</ele><time>2026-05-02T14:16:51.714Z</time></trkpt><trkpt lat="37.0892706" lon="9.2641615"><ele>125.33333333333333</ele><time>2026-05-02T14:16:52.715Z</time></trkpt><trkpt lat="37.0894635" lon="9.2642489"><ele>125.66666666666666</ele><time>2026-05-02T14:16:53.714Z</time></trkpt><trkpt lat="37.0896553" lon="9.2643343"><ele>126.0</ele><time>2026-05-02T14:16:54.708Z</time></trkpt><trkpt lat="37.089845" lon="9.2644193"><ele>127.33333333333334</ele><time>2026-05-02T14:16:55.714Z</time></trkpt><trkpt lat="37.0900368" lon="9.2645036"><ele>128.66666666666669</ele><time>2026-05-02T14:16:56.709Z</time></trkpt><trkpt lat="37.0902242" lon="9.2645841"><ele>130.0</ele><time>2026-05-02T14:16:57.696Z</time></trkpt><trkpt lat="37.0904117" lon="9.2646648"><ele>130.0</ele><time>2026-05-02T14:16:58.717Z</time></trkpt><trkpt lat="37.0905975" lon="9.2647427"><ele>130.0</ele><time>2026-05-02T14:16:59.704Z</time></trkpt><trkpt lat="37.0907805" lon="9.2648256"><ele>130.0</ele><time>2026-05-02T14:17:00.714Z</time></trkpt><trkpt lat="37.0909596" lon="9.2649138"><ele>130.33333333333334</ele><time>2026-05-02T14:17:01.722Z</time></trkpt><trkpt lat="37.0911332" lon="9.2650183"><ele>130.66666666666666</ele><time>2026-05-02T14:17:02.706Z</time></trkpt><trkpt lat="37.0913017" lon="9.2651426"><ele>131.0</ele><time>2026-05-02T14:17:03.702Z</time></trkpt><trkpt lat="37.0914602" lon="9.2652864"><ele>131.66666666666666</ele><time>2026-05-02T14:17:04.706Z</time></trkpt><trkpt lat="37.0916142" lon="9.2654442"><ele>132.33333333333334</ele><time>2026-05-02T14:17:05.702Z</time></trkpt><trkpt lat="37.0917661" lon="9.265611"><ele>133.0</ele><time>2026-05-02T14:17:06.699Z</time></trkpt><trkpt lat="37.0919194" lon="9.2657825"><ele>133.0</ele><time>2026-05-02T14:17:07.698Z</time></trkpt><trkpt lat="37.0920752" lon="9.2659565"><ele>133.0</ele><time>2026-05-02T14:17:08.697Z</time></trkpt><trkpt lat="37.0922331" lon="9.2661339"><ele>133.0</ele><time>2026-05-02T14:17:09.692Z</time></trkpt><trkpt lat="37.0923913" lon="9.2663119"><ele>132.33333333333334</ele><time>2026-05-02T14:17:10.717Z</time></trkpt><trkpt lat="37.0925499" lon="9.2664913"><ele>131.66666666666666</ele><time>2026-05-02T14:17:11.697Z</time></trkpt><trkpt lat="37.0927097" lon="9.2666727"><ele>131.0</ele><time>2026-05-02T14:17:12.703Z</time></trkpt><trkpt lat="37.0928698" lon="9.2668538"><ele>131.0</ele><time>2026-05-02T14:17:13.693Z</time></trkpt><trkpt lat="37.0930289" lon="9.2670351"><ele>131.0</ele><time>2026-05-02T14:17:14.693Z</time></trkpt><trkpt lat="37.0931838" lon="9.2672153"><ele>131.0</ele><time>2026-05-02T14:17:15.713Z</time></trkpt><trkpt lat="37.0933354" lon="9.2673899"><ele>131.66666666666666</ele><time>2026-05-02T14:17:16.703Z</time></trkpt><trkpt lat="37.0934817" lon="9.2675595"><ele>132.33333333333334</ele><time>2026-05-02T14:17:17.718Z</time></trkpt><trkpt lat="37.0936172" lon="9.2677132"><ele>133.0</ele><time>2026-05-02T14:17:18.712Z</time></trkpt><trkpt lat="37.0937445" lon="9.2678606"><ele>133.0</ele><time>2026-05-02T14:17:19.701Z</time></trkpt><trkpt lat="37.0938638" lon="9.2679943"><ele>133.0</ele><time>2026-05-02T14:17:20.695Z</time></trkpt><trkpt lat="37.0939801" lon="9.2681228"><ele>133.0</ele><time>2026-05-02T14:17:21.708Z</time></trkpt><trkpt lat="37.0940966" lon="9.2682532"><ele>133.66666666666669</ele><time>2026-05-02T14:17:22.713Z</time></trkpt><trkpt lat="37.0942183" lon="9.2683847"><ele>134.33333333333334</ele><time>2026-05-02T14:17:23.701Z</time></trkpt><trkpt lat="37.0943407" lon="9.2685191"><ele>135.0</ele><time>2026-05-02T14:17:24.708Z</time></trkpt><trkpt lat="37.0944661" lon="9.2686497"><ele>135.0</ele><time>2026-05-02T14:17:25.696Z</time></trkpt><trkpt lat="37.0945908" lon="9.2687773"><ele>135.0</ele><time>2026-05-02T14:17:26.716Z</time></trkpt><trkpt lat="37.0947138" lon="9.2689042"><ele>135.0</ele><time>2026-05-02T14:17:27.719Z</time></trkpt><trkpt lat="37.0948345" lon="9.2690269"><ele>136.0</ele><time>2026-05-02T14:17:28.714Z</time></trkpt><trkpt lat="37.0949592" lon="9.2691379"><ele>137.0</ele><time>2026-05-02T14:17:29.713Z</time></trkpt><trkpt lat="37.0950882" lon="9.269241"><ele>138.0</ele><time>2026-05-02T14:17:30.71Z</time></trkpt><trkpt lat="37.0952185" lon="9.2693421"><ele>138.0</ele><time>2026-05-02T14:17:31.707Z</time></trkpt><trkpt lat="37.0953484" lon="9.2694399"><ele>138.0</ele><time>2026-05-02T14:17:32.708Z</time></trkpt><trkpt lat="37.0954778" lon="9.2695386"><ele>138.0</ele><time>2026-05-02T14:17:33.714Z</time></trkpt><trkpt lat="37.0956067" lon="9.2696352"><ele>138.0</ele><time>2026-05-02T14:17:34.699Z</time></trkpt><trkpt lat="37.095736" lon="9.2697286"><ele>138.0</ele><time>2026-05-02T14:17:35.696Z</time></trkpt><trkpt lat="37.095865" lon="9.2698157"><ele>138.0</ele><time>2026-05-02T14:17:36.699Z</time></trkpt><trkpt lat="37.095996" lon="9.2698999"><ele>138.0</ele><time>2026-05-02T14:17:37.72Z</time></trkpt><trkpt lat="37.09613" lon="9.2699791"><ele>138.0</ele><time>2026-05-02T14:17:38.718Z</time></trkpt><trkpt lat="37.0962668" lon="9.2700592"><ele>138.0</ele><time>2026-05-02T14:17:39.706Z</time></trkpt><trkpt lat="37.0964065" lon="9.2701372"><ele>138.0</ele><time>2026-05-02T14:17:40.706Z</time></trkpt><trkpt lat="37.0965495" lon="9.2702124"><ele>138.66666666666666</ele><time>2026-05-02T14:17:41.712Z</time></trkpt><trkpt lat="37.0966957" lon="9.2702847"><ele>139.33333333333331</ele><time>2026-05-02T14:17:42.713Z</time></trkpt><trkpt lat="37.0968465" lon="9.270353"><ele>140.0</ele><time>2026-05-02T14:17:43.695Z</time></trkpt><trkpt lat="37.0969956" lon="9.2704191"><ele>140.0</ele><time>2026-05-02T14:17:44.7Z</time></trkpt><trkpt lat="37.0971394" lon="9.2704856"><ele>140.0</ele><time>2026-05-02T14:17:45.708Z</time></trkpt><trkpt lat="37.0972733" lon="9.2705467"><ele>140.0</ele><time>2026-05-02T14:17:46.708Z</time></trkpt><trkpt lat="37.0974094" lon="9.2706051"><ele>140.0</ele><time>2026-05-02T14:17:47.701Z</time></trkpt><trkpt lat="37.097548" lon="9.2706618"><ele>140.33333333333331</ele><time>2026-05-02T14:17:48.71Z</time></trkpt><trkpt lat="37.0976895" lon="9.2707194"><ele>140.66666666666666</ele><time>2026-05-02T14:17:49.707Z</time></trkpt><trkpt lat="37.0978331" lon="9.2707785"><ele>141.0</ele><time>2026-05-02T14:17:50.718Z</time></trkpt><trkpt lat="37.0979775" lon="9.2708398"><ele>141.0</ele><time>2026-05-02T14:17:51.711Z</time></trkpt><trkpt lat="37.0981241" lon="9.2709017"><ele>141.0</ele><time>2026-05-02T14:17:52.699Z</time></trkpt><trkpt lat="37.0982741" lon="9.2709643"><ele>141.0</ele><time>2026-05-02T14:17:53.715Z</time></trkpt><trkpt lat="37.0984246" lon="9.2710308"><ele>142.66666666666666</ele><time>2026-05-02T14:17:54.706Z</time></trkpt><trkpt lat="37.0985742" lon="9.2710976"><ele>144.33333333333331</ele><time>2026-05-02T14:17:55.704Z</time></trkpt><trkpt lat="37.0987219" lon="9.2711655"><ele>146.0</ele><time>2026-05-02T14:17:56.71Z</time></trkpt><trkpt lat="37.0988713" lon="9.2712302"><ele>146.0</ele><time>2026-05-02T14:17:57.716Z</time></trkpt><trkpt lat="37.0990219" lon="9.271285"><ele>146.0</ele><time>2026-05-02T14:17:58.695Z</time></trkpt><trkpt lat="37.0991777" lon="9.2713274"><ele>146.0</ele><time>2026-05-02T14:17:59.709Z</time></trkpt><trkpt lat="37.099335" lon="9.2713542"><ele>147.0</ele><time>2026-05-02T14:18:00.708Z</time></trkpt><trkpt lat="37.0994963" lon="9.2713692"><ele>148.0</ele><time>2026-05-02T14:18:01.727Z</time></trkpt><trkpt lat="37.0996624" lon="9.2713699"><ele>149.0</ele><time>2026-05-02T14:18:02.707Z</time></trkpt><trkpt lat="37.0998317" lon="9.2713526"><ele>150.33333333333331</ele><time>2026-05-02T14:18:03.714Z</time></trkpt><trkpt lat="37.100004" lon="9.2713127"><ele>151.66666666666666</ele><time>2026-05-02T14:18:04.705Z</time></trkpt><trkpt lat="37.100175" lon="9.2712574"><ele>153.0</ele><time>2026-05-02T14:18:05.709Z</time></trkpt><trkpt lat="37.1003502" lon="9.2711893"><ele>153.0</ele><time>2026-05-02T14:18:06.704Z</time></trkpt><trkpt lat="37.1005257" lon="9.2711139"><ele>153.0</ele><time>2026-05-02T14:18:07.712Z</time></trkpt><trkpt lat="37.1007039" lon="9.271038"><ele>153.0</ele><time>2026-05-02T14:18:08.697Z</time></trkpt><trkpt lat="37.10088" lon="9.2709555"><ele>151.66666666666666</ele><time>2026-05-02T14:18:09.693Z</time></trkpt><trkpt lat="37.1010576" lon="9.2708754"><ele>150.33333333333331</ele><time>2026-05-02T14:18:10.696Z</time></trkpt><trkpt lat="37.1012369" lon="9.2707943"><ele>149.0</ele><time>2026-05-02T14:18:11.723Z</time></trkpt><trkpt lat="37.1014138" lon="9.2707157"><ele>150.0</ele><time>2026-05-02T14:18:12.705Z</time></trkpt><trkpt lat="37.1015889" lon="9.2706377"><ele>151.0</ele><time>2026-05-02T14:18:13.704Z</time></trkpt><trkpt lat="37.1017618" lon="9.2705642"><ele>152.0</ele><time>2026-05-02T14:18:14.706Z</time></trkpt><trkpt lat="37.1019287" lon="9.2704915"><ele>152.0</ele><time>2026-05-02T14:18:15.708Z</time></trkpt><trkpt lat="37.1020921" lon="9.2704173"><ele>152.0</ele><time>2026-05-02T14:18:16.711Z</time></trkpt><trkpt lat="37.1022527" lon="9.2703468"><ele>152.0</ele><time>2026-05-02T14:18:17.693Z</time></trkpt><trkpt lat="37.1024094" lon="9.2702779"><ele>150.0</ele><time>2026-05-02T14:18:18.716Z</time></trkpt><trkpt lat="37.1025628" lon="9.2702121"><ele>148.0</ele><time>2026-05-02T14:18:19.715Z</time></trkpt><trkpt lat="37.102713" lon="9.2701463"><ele>146.0</ele><time>2026-05-02T14:18:20.703Z</time></trkpt><trkpt lat="37.1028649" lon="9.270077"><ele>146.0</ele><time>2026-05-02T14:18:21.697Z</time></trkpt><trkpt lat="37.1030209" lon="9.2700039"><ele>146.0</ele><time>2026-05-02T14:18:22.707Z</time></trkpt><trkpt lat="37.103182" lon="9.2699338"><ele>146.0</ele><time>2026-05-02T14:18:23.715Z</time></trkpt><trkpt lat="37.1033452" lon="9.2698659"><ele>146.0</ele><time>2026-05-02T14:18:24.711Z</time></trkpt><trkpt lat="37.1035079" lon="9.2697922"><ele>146.0</ele><time>2026-05-02T14:18:25.724Z</time></trkpt><trkpt lat="37.1036702" lon="9.2697187"><ele>146.0</ele><time>2026-05-02T14:18:26.715Z</time></trkpt><trkpt lat="37.1038341" lon="9.2696445"><ele>147.0</ele><time>2026-05-02T14:18:27.707Z</time></trkpt><trkpt lat="37.1039987" lon="9.2695738"><ele>148.0</ele><time>2026-05-02T14:18:28.708Z</time></trkpt><trkpt lat="37.1041613" lon="9.2695057"><ele>149.0</ele><time>2026-05-02T14:18:29.691Z</time></trkpt><trkpt lat="37.1043256" lon="9.2694369"><ele>149.0</ele><time>2026-05-02T14:18:30.711Z</time></trkpt><trkpt lat="37.1044884" lon="9.2693683"><ele>149.0</ele><time>2026-05-02T14:18:31.713Z</time></trkpt><trkpt lat="37.1046537" lon="9.2692938"><ele>149.0</ele><time>2026-05-02T14:18:32.7Z</time></trkpt><trkpt lat="37.1048184" lon="9.2692163"><ele>149.0</ele><time>2026-05-02T14:18:33.715Z</time></trkpt><trkpt lat="37.1049863" lon="9.2691399"><ele>149.0</ele><time>2026-05-02T14:18:34.725Z</time></trkpt><trkpt lat="37.1051539" lon="9.2690674"><ele>149.0</ele><time>2026-05-02T14:18:35.697Z</time></trkpt><trkpt lat="37.1053243" lon="9.2689938"><ele>149.0</ele><time>2026-05-02T14:18:36.703Z</time></trkpt><trkpt lat="37.1054978" lon="9.2689213"><ele>149.0</ele><time>2026-05-02T14:18:37.717Z</time></trkpt><trkpt lat="37.105673" lon="9.2688493"><ele>149.0</ele><time>2026-05-02T14:18:38.705Z</time></trkpt><trkpt lat="37.1058531" lon="9.2687772"><ele>149.0</ele><time>2026-05-02T14:18:39.694Z</time></trkpt><trkpt lat="37.1060329" lon="9.2687011"><ele>149.0</ele><time>2026-05-02T14:18:40.704Z</time></trkpt><trkpt lat="37.1062115" lon="9.26862"><ele>149.0</ele><time>2026-05-02T14:18:41.707Z</time></trkpt><trkpt lat="37.1063889" lon="9.2685338"><ele>149.0</ele><time>2026-05-02T14:18:42.688Z</time></trkpt><trkpt lat="37.1065667" lon="9.2684441"><ele>149.0</ele><time>2026-05-02T14:18:43.703Z</time></trkpt><trkpt lat="37.106745" lon="9.2683496"><ele>149.0</ele><time>2026-05-02T14:18:44.704Z</time></trkpt><trkpt lat="37.1069224" lon="9.268249"><ele>148.33333333333331</ele><time>2026-05-02T14:18:45.693Z</time></trkpt><trkpt lat="37.1070976" lon="9.2681395"><ele>147.66666666666666</ele><time>2026-05-02T14:18:46.693Z</time></trkpt><trkpt lat="37.1072754" lon="9.2680197"><ele>147.0</ele><time>2026-05-02T14:18:47.696Z</time></trkpt><trkpt lat="37.1074554" lon="9.2678898"><ele>144.66666666666666</ele><time>2026-05-02T14:18:48.698Z</time></trkpt><trkpt lat="37.1076358" lon="9.2677553"><ele>142.33333333333331</ele><time>2026-05-02T14:18:49.724Z</time></trkpt><trkpt lat="37.1078167" lon="9.2676147"><ele>140.0</ele><time>2026-05-02T14:18:50.695Z</time></trkpt><trkpt lat="37.1079906" lon="9.2674753"><ele>140.0</ele><time>2026-05-02T14:18:51.697Z</time></trkpt><trkpt lat="37.1081589" lon="9.2673363"><ele>140.0</ele><time>2026-05-02T14:18:52.711Z</time></trkpt><trkpt lat="37.1083162" lon="9.2671963"><ele>140.0</ele><time>2026-05-02T14:18:53.703Z</time></trkpt><trkpt lat="37.1084695" lon="9.267056"><ele>136.0</ele><time>2026-05-02T14:18:54.713Z</time></trkpt><trkpt lat="37.1086156" lon="9.2669157"><ele>132.0</ele><time>2026-05-02T14:18:55.704Z</time></trkpt><trkpt lat="37.1087543" lon="9.2667771"><ele>128.0</ele><time>2026-05-02T14:18:56.704Z</time></trkpt><trkpt lat="37.108885" lon="9.266639"><ele>128.0</ele><time>2026-05-02T14:18:57.698Z</time></trkpt><trkpt lat="37.1090086" lon="9.2665035"><ele>128.0</ele><time>2026-05-02T14:18:58.71Z</time></trkpt><trkpt lat="37.1091242" lon="9.2663697"><ele>128.0</ele><time>2026-05-02T14:18:59.715Z</time></trkpt><trkpt lat="37.1092323" lon="9.2662375"><ele>126.0</ele><time>2026-05-02T14:19:00.71Z</time></trkpt><trkpt lat="37.1093389" lon="9.2661035"><ele>124.0</ele><time>2026-05-02T14:19:01.709Z</time></trkpt><trkpt lat="37.1094483" lon="9.2659677"><ele>122.0</ele><time>2026-05-02T14:19:02.729Z</time></trkpt><trkpt lat="37.109557" lon="9.2658322"><ele>122.0</ele><time>2026-05-02T14:19:03.699Z</time></trkpt><trkpt lat="37.1096628" lon="9.2656947"><ele>122.0</ele><time>2026-05-02T14:19:04.716Z</time></trkpt><trkpt lat="37.1097628" lon="9.2655571"><ele>122.0</ele><time>2026-05-02T14:19:05.701Z</time></trkpt><trkpt lat="37.1098619" lon="9.2654187"><ele>122.0</ele><time>2026-05-02T14:19:06.717Z</time></trkpt><trkpt lat="37.109966" lon="9.2652795"><ele>123.0</ele><time>2026-05-02T14:19:07.739Z</time></trkpt><trkpt lat="37.1100703" lon="9.26514"><ele>124.0</ele><time>2026-05-02T14:19:08.702Z</time></trkpt><trkpt lat="37.110179" lon="9.2650015"><ele>125.0</ele><time>2026-05-02T14:19:09.715Z</time></trkpt><trkpt lat="37.1102946" lon="9.2648575"><ele>127.33333333333333</ele><time>2026-05-02T14:19:10.711Z</time></trkpt><trkpt lat="37.1104139" lon="9.2647098"><ele>129.66666666666666</ele><time>2026-05-02T14:19:11.713Z</time></trkpt><trkpt lat="37.1105389" lon="9.2645647"><ele>132.0</ele><time>2026-05-02T14:19:12.701Z</time></trkpt><trkpt lat="37.1106677" lon="9.2644249"><ele>130.66666666666666</ele><time>2026-05-02T14:19:13.729Z</time></trkpt><trkpt lat="37.1108029" lon="9.264291"><ele>129.33333333333331</ele><time>2026-05-02T14:19:14.715Z</time></trkpt><trkpt lat="37.1109454" lon="9.2641633"><ele>128.0</ele><time>2026-05-02T14:19:15.732Z</time></trkpt><trkpt lat="37.1110886" lon="9.2640427"><ele>130.0</ele><time>2026-05-02T14:19:16.711Z</time></trkpt><trkpt lat="37.1112321" lon="9.2639282"><ele>132.0</ele><time>2026-05-02T14:19:17.699Z</time></trkpt><trkpt lat="37.1113775" lon="9.2638205"><ele>134.0</ele><time>2026-05-02T14:19:18.728Z</time></trkpt><trkpt lat="37.1115225" lon="9.263718"><ele>133.0</ele><time>2026-05-02T14:19:19.72Z</time></trkpt><trkpt lat="37.1116706" lon="9.2636203"><ele>132.0</ele><time>2026-05-02T14:19:20.717Z</time></trkpt><trkpt lat="37.1118233" lon="9.2635281"><ele>131.0</ele><time>2026-05-02T14:19:21.716Z</time></trkpt><trkpt lat="37.111976" lon="9.263445"><ele>131.0</ele><time>2026-05-02T14:19:22.705Z</time></trkpt><trkpt lat="37.1121324" lon="9.2633688"><ele>131.0</ele><time>2026-05-02T14:19:23.719Z</time></trkpt><trkpt lat="37.1122932" lon="9.2632977"><ele>131.0</ele><time>2026-05-02T14:19:24.708Z</time></trkpt><trkpt lat="37.1124547" lon="9.2632322"><ele>130.0</ele><time>2026-05-02T14:19:25.702Z</time></trkpt><trkpt lat="37.1126184" lon="9.2631681"><ele>129.0</ele><time>2026-05-02T14:19:26.71Z</time></trkpt><trkpt lat="37.1127823" lon="9.2631076"><ele>128.0</ele><time>2026-05-02T14:19:27.715Z</time></trkpt><trkpt lat="37.1129491" lon="9.2630442"><ele>127.0</ele><time>2026-05-02T14:19:28.708Z</time></trkpt><trkpt lat="37.1131176" lon="9.2629808"><ele>126.0</ele><time>2026-05-02T14:19:29.71Z</time></trkpt><trkpt lat="37.1132895" lon="9.2629163"><ele>125.0</ele><time>2026-05-02T14:19:30.719Z</time></trkpt><trkpt lat="37.1134639" lon="9.2628516"><ele>124.0</ele><time>2026-05-02T14:19:31.711Z</time></trkpt><trkpt lat="37.1136407" lon="9.2627848"><ele>123.0</ele><time>2026-05-02T14:19:32.715Z</time></trkpt><trkpt lat="37.1138198" lon="9.2627213"><ele>122.0</ele><time>2026-05-02T14:19:33.718Z</time></trkpt><trkpt lat="37.114001" lon="9.2626628"><ele>122.0</ele><time>2026-05-02T14:19:34.711Z</time></trkpt><trkpt lat="37.1141835" lon="9.2626078"><ele>122.0</ele><time>2026-05-02T14:19:35.715Z</time></trkpt><trkpt lat="37.1143701" lon="9.2625642"><ele>122.0</ele><time>2026-05-02T14:19:36.714Z</time></trkpt><trkpt lat="37.1145565" lon="9.2625275"><ele>122.0</ele><time>2026-05-02T14:19:37.698Z</time></trkpt><trkpt lat="37.114744" lon="9.2625039"><ele>122.0</ele><time>2026-05-02T14:19:38.694Z</time></trkpt><trkpt lat="37.1149317" lon="9.2624861"><ele>122.0</ele><time>2026-05-02T14:19:39.718Z</time></trkpt><trkpt lat="37.1151188" lon="9.2624752"><ele>121.0</ele><time>2026-05-02T14:19:40.709Z</time></trkpt><trkpt lat="37.115308" lon="9.2624741"><ele>120.0</ele><time>2026-05-02T14:19:41.733Z</time></trkpt><trkpt lat="37.1154927" lon="9.2624788"><ele>119.0</ele><time>2026-05-02T14:19:42.706Z</time></trkpt><trkpt lat="37.1156712" lon="9.2624897"><ele>117.0</ele><time>2026-05-02T14:19:43.707Z</time></trkpt><trkpt lat="37.1158462" lon="9.2625074"><ele>115.0</ele><time>2026-05-02T14:19:44.714Z</time></trkpt><trkpt lat="37.1160225" lon="9.2625305"><ele>113.0</ele><time>2026-05-02T14:19:45.714Z</time></trkpt><trkpt lat="37.116196" lon="9.262562"><ele>113.0</ele><time>2026-05-02T14:19:46.724Z</time></trkpt><trkpt lat="37.1163677" lon="9.262605"><ele>113.0</ele><time>2026-05-02T14:19:47.708Z</time></trkpt><trkpt lat="37.1165394" lon="9.2626583"><ele>113.0</ele><time>2026-05-02T14:19:48.724Z</time></trkpt><trkpt lat="37.116711" lon="9.2627183"><ele>111.33333333333333</ele><time>2026-05-02T14:19:49.696Z</time></trkpt><trkpt lat="37.1168845" lon="9.2627869"><ele>109.66666666666666</ele><time>2026-05-02T14:19:50.705Z</time></trkpt><trkpt lat="37.1170639" lon="9.2628602"><ele>108.0</ele><time>2026-05-02T14:19:51.703Z</time></trkpt><trkpt lat="37.1172456" lon="9.2629383"><ele>106.66666666666666</ele><time>2026-05-02T14:19:52.703Z</time></trkpt><trkpt lat="37.1174283" lon="9.2630099"><ele>105.33333333333333</ele><time>2026-05-02T14:19:53.694Z</time></trkpt><trkpt lat="37.1176139" lon="9.2630719"><ele>104.0</ele><time>2026-05-02T14:19:54.703Z</time></trkpt><trkpt lat="37.1178017" lon="9.2631252"><ele>103.66666666666666</ele><time>2026-05-02T14:19:55.707Z</time></trkpt><trkpt lat="37.1179916" lon="9.263172"><ele>103.33333333333334</ele><time>2026-05-02T14:19:56.719Z</time></trkpt><trkpt lat="37.1181816" lon="9.2632103"><ele>103.0</ele><time>2026-05-02T14:19:57.701Z</time></trkpt><trkpt lat="37.118368" lon="9.2632412"><ele>101.66666666666667</ele><time>2026-05-02T14:19:58.7Z</time></trkpt><trkpt lat="37.1185555" lon="9.2632715"><ele>100.33333333333334</ele><time>2026-05-02T14:19:59.695Z</time></trkpt><trkpt lat="37.1187397" lon="9.2632992"><ele>99.0</ele><time>2026-05-02T14:20:00.726Z</time></trkpt><trkpt lat="37.1189228" lon="9.2633193"><ele>98.33333333333334</ele><time>2026-05-02T14:20:01.713Z</time></trkpt><trkpt lat="37.1191046" lon="9.2633325"><ele>97.66666666666667</ele><time>2026-05-02T14:20:02.725Z</time></trkpt><trkpt lat="37.1192859" lon="9.2633408"><ele>97.0</ele><time>2026-05-02T14:20:03.712Z</time></trkpt><trkpt lat="37.1194664" lon="9.2633453"><ele>97.0</ele><time>2026-05-02T14:20:04.687Z</time></trkpt><trkpt lat="37.1196474" lon="9.2633429"><ele>97.0</ele><time>2026-05-02T14:20:05.709Z</time></trkpt><trkpt lat="37.1198277" lon="9.2633387"><ele>97.0</ele><time>2026-05-02T14:20:06.701Z</time></trkpt><trkpt lat="37.1200056" lon="9.2633297"><ele>96.33333333333334</ele><time>2026-05-02T14:20:07.691Z</time></trkpt><trkpt lat="37.1201858" lon="9.2633205"><ele>95.66666666666667</ele><time>2026-05-02T14:20:08.705Z</time></trkpt><trkpt lat="37.1203679" lon="9.2633087"><ele>95.0</ele><time>2026-05-02T14:20:09.702Z</time></trkpt><trkpt lat="37.1205469" lon="9.263298"><ele>95.0</ele><time>2026-05-02T14:20:10.709Z</time></trkpt><trkpt lat="37.1207257" lon="9.2632844"><ele>95.0</ele><time>2026-05-02T14:20:11.705Z</time></trkpt><trkpt lat="37.1209" lon="9.2632725"><ele>95.0</ele><time>2026-05-02T14:20:12.71Z</time></trkpt><trkpt lat="37.1210695" lon="9.2632588"><ele>95.0</ele><time>2026-05-02T14:20:13.7Z</time></trkpt><trkpt lat="37.1212349" lon="9.2632493"><ele>95.0</ele><time>2026-05-02T14:20:14.705Z</time></trkpt><trkpt lat="37.1213996" lon="9.2632402"><ele>95.0</ele><time>2026-05-02T14:20:15.701Z</time></trkpt><trkpt lat="37.1215608" lon="9.2632294"><ele>95.0</ele><time>2026-05-02T14:20:16.715Z</time></trkpt><trkpt lat="37.121722" lon="9.2632192"><ele>95.0</ele><time>2026-05-02T14:20:17.706Z</time></trkpt><trkpt lat="37.1218807" lon="9.2632061"><ele>95.0</ele><time>2026-05-02T14:20:18.723Z</time></trkpt><trkpt lat="37.1220438" lon="9.263193"><ele>95.0</ele><time>2026-05-02T14:20:19.71Z</time></trkpt><trkpt lat="37.1222114" lon="9.2631797"><ele>95.0</ele><time>2026-05-02T14:20:20.709Z</time></trkpt><trkpt lat="37.1223825" lon="9.2631699"><ele>95.0</ele><time>2026-05-02T14:20:21.712Z</time></trkpt><trkpt lat="37.1225556" lon="9.2631612"><ele>95.33333333333334</ele><time>2026-05-02T14:20:22.713Z</time></trkpt><trkpt lat="37.1227321" lon="9.2631582"><ele>95.66666666666667</ele><time>2026-05-02T14:20:23.709Z</time></trkpt><trkpt lat="37.1229103" lon="9.2631689"><ele>96.0</ele><time>2026-05-02T14:20:24.697Z</time></trkpt><trkpt lat="37.1230865" lon="9.2632009"><ele>96.33333333333334</ele><time>2026-05-02T14:20:25.715Z</time></trkpt><trkpt lat="37.12326" lon="9.2632545"><ele>96.66666666666667</ele><time>2026-05-02T14:20:26.739Z</time></trkpt><trkpt lat="37.1234277" lon="9.2633258"><ele>97.0</ele><time>2026-05-02T14:20:27.715Z</time></trkpt><trkpt lat="37.1235912" lon="9.2634141"><ele>97.0</ele><time>2026-05-02T14:20:28.721Z</time></trkpt><trkpt lat="37.1237519" lon="9.2635148"><ele>97.0</ele><time>2026-05-02T14:20:29.713Z</time></trkpt><trkpt lat="37.1239072" lon="9.2636279"><ele>97.0</ele><time>2026-05-02T14:20:30.707Z</time></trkpt><trkpt lat="37.1240547" lon="9.2637537"><ele>97.66666666666667</ele><time>2026-05-02T14:20:31.702Z</time></trkpt><trkpt lat="37.1241936" lon="9.2638927"><ele>98.33333333333334</ele><time>2026-05-02T14:20:32.703Z</time></trkpt><trkpt lat="37.1243237" lon="9.2640422"><ele>99.0</ele><time>2026-05-02T14:20:33.712Z</time></trkpt><trkpt lat="37.1244426" lon="9.2642015"><ele>99.0</ele><time>2026-05-02T14:20:34.702Z</time></trkpt><trkpt lat="37.1245566" lon="9.2643555"><ele>99.0</ele><time>2026-05-02T14:20:35.716Z</time></trkpt><trkpt lat="37.1246697" lon="9.2645056"><ele>99.0</ele><time>2026-05-02T14:20:36.702Z</time></trkpt><trkpt lat="37.1247794" lon="9.2646467"><ele>98.75</ele><time>2026-05-02T14:20:37.702Z</time></trkpt><trkpt lat="37.1248888" lon="9.2647807"><ele>98.5</ele><time>2026-05-02T14:20:38.694Z</time></trkpt><trkpt lat="37.1249983" lon="9.2649103"><ele>98.25</ele><time>2026-05-02T14:20:39.713Z</time></trkpt><trkpt lat="37.1251071" lon="9.2650306"><ele>98.0</ele><time>2026-05-02T14:20:40.712Z</time></trkpt><trkpt lat="37.1252132" lon="9.2651421"><ele>98.75</ele><time>2026-05-02T14:20:41.703Z</time></trkpt><trkpt lat="37.1253187" lon="9.2652359"><ele>99.5</ele><time>2026-05-02T14:20:42.721Z</time></trkpt><trkpt lat="37.1254249" lon="9.2653155"><ele>100.25</ele><time>2026-05-02T14:20:43.709Z</time></trkpt><trkpt lat="37.1255364" lon="9.2653905"><ele>101.0</ele><time>2026-05-02T14:20:44.713Z</time></trkpt><trkpt lat="37.1256535" lon="9.2654637"><ele>100.75</ele><time>2026-05-02T14:20:45.699Z</time></trkpt><trkpt lat="37.1257758" lon="9.2655361"><ele>100.5</ele><time>2026-05-02T14:20:46.706Z</time></trkpt><trkpt lat="37.1259014" lon="9.2656098"><ele>100.25</ele><time>2026-05-02T14:20:47.716Z</time></trkpt><trkpt lat="37.1260299" lon="9.2656835"><ele>100.0</ele><time>2026-05-02T14:20:48.706Z</time></trkpt><trkpt lat="37.1261655" lon="9.2657517"><ele>100.0</ele><time>2026-05-02T14:20:49.699Z</time></trkpt><trkpt lat="37.1263056" lon="9.2658235"><ele>100.0</ele><time>2026-05-02T14:20:50.713Z</time></trkpt><trkpt lat="37.1264507" lon="9.2658984"><ele>100.0</ele><time>2026-05-02T14:20:51.71Z</time></trkpt><trkpt lat="37.1266006" lon="9.2659688"><ele>99.0</ele><time>2026-05-02T14:20:52.706Z</time></trkpt><trkpt lat="37.1267527" lon="9.2660395"><ele>98.0</ele><time>2026-05-02T14:20:53.708Z</time></trkpt><trkpt lat="37.1269096" lon="9.2661102"><ele>97.0</ele><time>2026-05-02T14:20:54.713Z</time></trkpt><trkpt lat="37.1270704" lon="9.2661751"><ele>97.0</ele><time>2026-05-02T14:20:55.711Z</time></trkpt><trkpt lat="37.1272316" lon="9.2662349"><ele>97.0</ele><time>2026-05-02T14:20:56.705Z</time></trkpt><trkpt lat="37.1273944" lon="9.2662871"><ele>97.0</ele><time>2026-05-02T14:20:57.72Z</time></trkpt><trkpt lat="37.1275579" lon="9.2663353"><ele>96.33333333333334</ele><time>2026-05-02T14:20:58.724Z</time></trkpt><trkpt lat="37.1277188" lon="9.2663815"><ele>95.66666666666667</ele><time>2026-05-02T14:20:59.702Z</time></trkpt><trkpt lat="37.1278823" lon="9.2664232"><ele>95.0</ele><time>2026-05-02T14:21:00.707Z</time></trkpt><trkpt lat="37.1280466" lon="9.2664628"><ele>95.0</ele><time>2026-05-02T14:21:01.699Z</time></trkpt><trkpt lat="37.1282074" lon="9.2664996"><ele>95.0</ele><time>2026-05-02T14:21:02.706Z</time></trkpt><trkpt lat="37.1283692" lon="9.2665276"><ele>95.0</ele><time>2026-05-02T14:21:03.713Z</time></trkpt><trkpt lat="37.1285317" lon="9.266549"><ele>95.0</ele><time>2026-05-02T14:21:04.721Z</time></trkpt><trkpt lat="37.128693" lon="9.2665668"><ele>95.0</ele><time>2026-05-02T14:21:05.709Z</time></trkpt><trkpt lat="37.1288547" lon="9.2665815"><ele>95.0</ele><time>2026-05-02T14:21:06.705Z</time></trkpt><trkpt lat="37.1290169" lon="9.2665932"><ele>95.33333333333334</ele><time>2026-05-02T14:21:07.707Z</time></trkpt><trkpt lat="37.1291791" lon="9.2666033"><ele>95.66666666666667</ele><time>2026-05-02T14:21:08.709Z</time></trkpt><trkpt lat="37.1293443" lon="9.2666099"><ele>96.0</ele><time>2026-05-02T14:21:09.706Z</time></trkpt><trkpt lat="37.1295115" lon="9.2666101"><ele>96.0</ele><time>2026-05-02T14:21:10.702Z</time></trkpt><trkpt lat="37.1296787" lon="9.2666085"><ele>96.0</ele><time>2026-05-02T14:21:11.704Z</time></trkpt><trkpt lat="37.1298445" lon="9.2666013"><ele>96.0</ele><time>2026-05-02T14:21:12.731Z</time></trkpt><trkpt lat="37.1300089" lon="9.2666001"><ele>95.66666666666667</ele><time>2026-05-02T14:21:13.706Z</time></trkpt><trkpt lat="37.1301726" lon="9.2666048"><ele>95.33333333333334</ele><time>2026-05-02T14:21:14.707Z</time></trkpt><trkpt lat="37.1303336" lon="9.2666141"><ele>95.0</ele><time>2026-05-02T14:21:15.709Z</time></trkpt><trkpt lat="37.1304838" lon="9.266634"><ele>95.0</ele><time>2026-05-02T14:21:16.702Z</time></trkpt><trkpt lat="37.1306253" lon="9.2666649"><ele>95.0</ele><time>2026-05-02T14:21:17.688Z</time></trkpt><trkpt lat="37.1307589" lon="9.266703"><ele>95.0</ele><time>2026-05-02T14:21:18.708Z</time></trkpt><trkpt lat="37.1308815" lon="9.266745"><ele>95.0</ele><time>2026-05-02T14:21:19.707Z</time></trkpt><trkpt lat="37.130981" lon="9.26678"><ele>95.5</ele><time>2026-05-02T14:21:20.714Z</time></trkpt><trkpt lat="37.1310477" lon="9.2668117"><ele>96.0</ele><time>2026-05-02T14:21:21.71Z</time></trkpt><trkpt lat="37.1311358" lon="9.2668483"><ele>96.5</ele><time>2026-05-02T14:21:23.708Z</time></trkpt><trkpt lat="37.1312023" lon="9.2668716"><ele>97.0</ele><time>2026-05-02T14:21:26.706Z</time></trkpt><trkpt lat="37.1312877" lon="9.2669172"><ele>97.49999999999999</ele><time>2026-05-02T14:21:28.694Z</time></trkpt><trkpt lat="37.1313853" lon="9.2669897"><ele>98.0</ele><time>2026-05-02T14:21:30.698Z</time></trkpt><trkpt lat="37.1314535" lon="9.2670378"><ele>98.0</ele><time>2026-05-02T14:21:31.709Z</time></trkpt><trkpt lat="37.1315255" lon="9.2670911"><ele>98.0</ele><time>2026-05-02T14:21:32.696Z</time></trkpt><trkpt lat="37.1316044" lon="9.2671559"><ele>98.0</ele><time>2026-05-02T14:21:33.708Z</time></trkpt><trkpt lat="37.1316949" lon="9.2672339"><ele>98.0</ele><time>2026-05-02T14:21:34.707Z</time></trkpt><trkpt lat="37.1317909" lon="9.2673186"><ele>98.0</ele><time>2026-05-02T14:21:35.704Z</time></trkpt><trkpt lat="37.1318919" lon="9.2674124"><ele>98.5</ele><time>2026-05-02T14:21:36.7Z</time></trkpt><trkpt lat="37.1319975" lon="9.2675239"><ele>99.0</ele><time>2026-05-02T14:21:37.704Z</time></trkpt><trkpt lat="37.1321099" lon="9.2676523"><ele>99.5</ele><time>2026-05-02T14:21:38.721Z</time></trkpt><trkpt lat="37.1322253" lon="9.2677874"><ele>100.0</ele><time>2026-05-02T14:21:39.698Z</time></trkpt><trkpt lat="37.1323364" lon="9.2679272"><ele>101.0</ele><time>2026-05-02T14:21:40.698Z</time></trkpt><trkpt lat="37.1324552" lon="9.2680735"><ele>102.0</ele><time>2026-05-02T14:21:41.71Z</time></trkpt><trkpt lat="37.1325761" lon="9.268226"><ele>103.0</ele><time>2026-05-02T14:21:42.711Z</time></trkpt><trkpt lat="37.1327002" lon="9.2683749"><ele>103.0</ele><time>2026-05-02T14:21:43.7Z</time></trkpt><trkpt lat="37.132822" lon="9.26852"><ele>103.0</ele><time>2026-05-02T14:21:44.7Z</time></trkpt><trkpt lat="37.1329368" lon="9.2686447"><ele>103.0</ele><time>2026-05-02T14:21:45.714Z</time></trkpt><trkpt lat="37.1330552" lon="9.26876"><ele>103.0</ele><time>2026-05-02T14:21:46.709Z</time></trkpt><trkpt lat="37.1331753" lon="9.2688587"><ele>103.0</ele><time>2026-05-02T14:21:47.712Z</time></trkpt><trkpt lat="37.1332974" lon="9.2689312"><ele>103.0</ele><time>2026-05-02T14:21:48.706Z</time></trkpt><trkpt lat="37.1334208" lon="9.2689754"><ele>103.0</ele><time>2026-05-02T14:21:49.692Z</time></trkpt><trkpt lat="37.1335438" lon="9.2689886"><ele>103.5</ele><time>2026-05-02T14:21:50.711Z</time></trkpt><trkpt lat="37.1336604" lon="9.2689726"><ele>104.0</ele><time>2026-05-02T14:21:51.702Z</time></trkpt><trkpt lat="37.1337761" lon="9.268926"><ele>104.5</ele><time>2026-05-02T14:21:52.699Z</time></trkpt><trkpt lat="37.133905" lon="9.2688478"><ele>105.0</ele><time>2026-05-02T14:21:53.705Z</time></trkpt><trkpt lat="37.1340334" lon="9.2687466"><ele>104.33333333333334</ele><time>2026-05-02T14:21:54.705Z</time></trkpt><trkpt lat="37.1341645" lon="9.2686283"><ele>103.66666666666667</ele><time>2026-05-02T14:21:55.713Z</time></trkpt><trkpt lat="37.1342986" lon="9.2685007"><ele>103.0</ele><time>2026-05-02T14:21:56.704Z</time></trkpt><trkpt lat="37.1344333" lon="9.2683659"><ele>103.0</ele><time>2026-05-02T14:21:57.717Z</time></trkpt><trkpt lat="37.1345669" lon="9.2682222"><ele>103.0</ele><time>2026-05-02T14:21:58.715Z</time></trkpt><trkpt lat="37.1346995" lon="9.268078"><ele>103.0</ele><time>2026-05-02T14:21:59.693Z</time></trkpt><trkpt lat="37.1348311" lon="9.2679351"><ele>103.0</ele><time>2026-05-02T14:22:00.72Z</time></trkpt><trkpt lat="37.1349616" lon="9.2677922"><ele>103.0</ele><time>2026-05-02T14:22:01.699Z</time></trkpt><trkpt lat="37.1350956" lon="9.2676507"><ele>103.0</ele><time>2026-05-02T14:22:02.733Z</time></trkpt><trkpt lat="37.1352317" lon="9.2675118"><ele>103.0</ele><time>2026-05-02T14:22:03.691Z</time></trkpt><trkpt lat="37.1353742" lon="9.2673759"><ele>103.0</ele><time>2026-05-02T14:22:04.703Z</time></trkpt><trkpt lat="37.1355177" lon="9.2672433"><ele>103.0</ele><time>2026-05-02T14:22:05.706Z</time></trkpt><trkpt lat="37.135667" lon="9.2671176"><ele>104.33333333333334</ele><time>2026-05-02T14:22:06.708Z</time></trkpt><trkpt lat="37.1358192" lon="9.2669993"><ele>105.66666666666666</ele><time>2026-05-02T14:22:07.704Z</time></trkpt><trkpt lat="37.1359718" lon="9.2668829"><ele>107.0</ele><time>2026-05-02T14:22:08.704Z</time></trkpt><trkpt lat="37.1361244" lon="9.2667705"><ele>107.0</ele><time>2026-05-02T14:22:09.706Z</time></trkpt><trkpt lat="37.1362769" lon="9.2666594"><ele>107.0</ele><time>2026-05-02T14:22:10.7Z</time></trkpt><trkpt lat="37.1364276" lon="9.2665497"><ele>107.0</ele><time>2026-05-02T14:22:11.701Z</time></trkpt><trkpt lat="37.1365779" lon="9.2664391"><ele>106.66666666666666</ele><time>2026-05-02T14:22:12.706Z</time></trkpt><trkpt lat="37.1367267" lon="9.2663277"><ele>106.33333333333334</ele><time>2026-05-02T14:22:13.697Z</time></trkpt><trkpt lat="37.1368746" lon="9.2662187"><ele>106.0</ele><time>2026-05-02T14:22:14.702Z</time></trkpt><trkpt lat="37.1370246" lon="9.266115"><ele>106.0</ele><time>2026-05-02T14:22:15.704Z</time></trkpt><trkpt lat="37.1371737" lon="9.266021"><ele>106.0</ele><time>2026-05-02T14:22:16.71Z</time></trkpt><trkpt lat="37.1373251" lon="9.2659393"><ele>106.0</ele><time>2026-05-02T14:22:17.709Z</time></trkpt><trkpt lat="37.1374749" lon="9.2658723"><ele>104.33333333333334</ele><time>2026-05-02T14:22:18.702Z</time></trkpt><trkpt lat="37.1376242" lon="9.2658241"><ele>102.66666666666666</ele><time>2026-05-02T14:22:19.706Z</time></trkpt><trkpt lat="37.1377744" lon="9.2657913"><ele>101.0</ele><time>2026-05-02T14:22:20.701Z</time></trkpt><trkpt lat="37.1379239" lon="9.2657709"><ele>101.0</ele><time>2026-05-02T14:22:21.703Z</time></trkpt><trkpt lat="37.1380746" lon="9.2657676"><ele>101.0</ele><time>2026-05-02T14:22:22.698Z</time></trkpt><trkpt lat="37.1382252" lon="9.2657799"><ele>101.0</ele><time>2026-05-02T14:22:23.697Z</time></trkpt><trkpt lat="37.1383722" lon="9.2658077"><ele>100.5</ele><time>2026-05-02T14:22:24.702Z</time></trkpt><trkpt lat="37.1385196" lon="9.265846"><ele>100.0</ele><time>2026-05-02T14:22:25.706Z</time></trkpt><trkpt lat="37.138661" lon="9.2658953"><ele>99.5</ele><time>2026-05-02T14:22:26.698Z</time></trkpt><trkpt lat="37.1387984" lon="9.2659559"><ele>99.0</ele><time>2026-05-02T14:22:27.708Z</time></trkpt><trkpt lat="37.138934" lon="9.2660279"><ele>98.75</ele><time>2026-05-02T14:22:28.702Z</time></trkpt><trkpt lat="37.1390618" lon="9.2661141"><ele>98.5</ele><time>2026-05-02T14:22:29.712Z</time></trkpt><trkpt lat="37.1391846" lon="9.2662121"><ele>98.25</ele><time>2026-05-02T14:22:30.702Z</time></trkpt><trkpt lat="37.1393012" lon="9.2663246"><ele>98.0</ele><time>2026-05-02T14:22:31.706Z</time></trkpt><trkpt lat="37.1394111" lon="9.2664499"><ele>97.0</ele><time>2026-05-02T14:22:32.703Z</time></trkpt><trkpt lat="37.1395206" lon="9.2665895"><ele>96.0</ele><time>2026-05-02T14:22:33.716Z</time></trkpt><trkpt lat="37.1396262" lon="9.2667387"><ele>95.0</ele><time>2026-05-02T14:22:34.702Z</time></trkpt><trkpt lat="37.13973" lon="9.2669036"><ele>95.0</ele><time>2026-05-02T14:22:35.705Z</time></trkpt><trkpt lat="37.1398368" lon="9.2670804"><ele>95.0</ele><time>2026-05-02T14:22:36.708Z</time></trkpt><trkpt lat="37.1399431" lon="9.267274"><ele>95.0</ele><time>2026-05-02T14:22:37.71Z</time></trkpt><trkpt lat="37.1400515" lon="9.2674678"><ele>94.66666666666667</ele><time>2026-05-02T14:22:38.708Z</time></trkpt><trkpt lat="37.1401582" lon="9.26766"><ele>94.33333333333333</ele><time>2026-05-02T14:22:39.684Z</time></trkpt><trkpt lat="37.140272" lon="9.2678587"><ele>94.0</ele><time>2026-05-02T14:22:40.714Z</time></trkpt><trkpt lat="37.1403824" lon="9.2680531"><ele>94.0</ele><time>2026-05-02T14:22:41.712Z</time></trkpt><trkpt lat="37.1404935" lon="9.2682514"><ele>94.0</ele><time>2026-05-02T14:22:42.707Z</time></trkpt><trkpt lat="37.1406023" lon="9.2684478"><ele>94.0</ele><time>2026-05-02T14:22:43.712Z</time></trkpt><trkpt lat="37.1407107" lon="9.2686431"><ele>95.0</ele><time>2026-05-02T14:22:44.706Z</time></trkpt><trkpt lat="37.1408165" lon="9.2688358"><ele>96.0</ele><time>2026-05-02T14:22:45.71Z</time></trkpt><trkpt lat="37.140921" lon="9.2690248"><ele>97.0</ele><time>2026-05-02T14:22:46.704Z</time></trkpt><trkpt lat="37.1410251" lon="9.2692113"><ele>97.0</ele><time>2026-05-02T14:22:47.696Z</time></trkpt><trkpt lat="37.1411271" lon="9.2693934"><ele>97.0</ele><time>2026-05-02T14:22:48.699Z</time></trkpt><trkpt lat="37.1412296" lon="9.2695744"><ele>97.0</ele><time>2026-05-02T14:22:49.687Z</time></trkpt><trkpt lat="37.1413298" lon="9.2697512"><ele>96.66666666666667</ele><time>2026-05-02T14:22:50.706Z</time></trkpt><trkpt lat="37.1414274" lon="9.2699257"><ele>96.33333333333334</ele><time>2026-05-02T14:22:51.701Z</time></trkpt><trkpt lat="37.1415228" lon="9.2701005"><ele>96.0</ele><time>2026-05-02T14:22:52.712Z</time></trkpt><trkpt lat="37.1416179" lon="9.2702734"><ele>95.66666666666667</ele><time>2026-05-02T14:22:53.707Z</time></trkpt><trkpt lat="37.1417135" lon="9.2704471"><ele>95.33333333333334</ele><time>2026-05-02T14:22:54.698Z</time></trkpt><trkpt lat="37.1418119" lon="9.2706188"><ele>95.0</ele><time>2026-05-02T14:22:55.709Z</time></trkpt><trkpt lat="37.1419108" lon="9.2707896"><ele>95.0</ele><time>2026-05-02T14:22:56.697Z</time></trkpt><trkpt lat="37.1420089" lon="9.2709596"><ele>95.0</ele><time>2026-05-02T14:22:57.72Z</time></trkpt><trkpt lat="37.1421059" lon="9.2711312"><ele>95.0</ele><time>2026-05-02T14:22:58.709Z</time></trkpt><trkpt lat="37.1421988" lon="9.2713017"><ele>95.0</ele><time>2026-05-02T14:22:59.692Z</time></trkpt><trkpt lat="37.1422924" lon="9.2714693"><ele>95.0</ele><time>2026-05-02T14:23:00.704Z</time></trkpt><trkpt lat="37.1423888" lon="9.271638"><ele>95.0</ele><time>2026-05-02T14:23:01.693Z</time></trkpt><trkpt lat="37.1424845" lon="9.271803"><ele>95.0</ele><time>2026-05-02T14:23:02.707Z</time></trkpt><trkpt lat="37.1425804" lon="9.2719686"><ele>95.0</ele><time>2026-05-02T14:23:03.72Z</time></trkpt><trkpt lat="37.1426751" lon="9.2721376"><ele>95.0</ele><time>2026-05-02T14:23:04.696Z</time></trkpt><trkpt lat="37.1427695" lon="9.2723074"><ele>94.66666666666667</ele><time>2026-05-02T14:23:05.711Z</time></trkpt><trkpt lat="37.1428645" lon="9.2724786"><ele>94.33333333333333</ele><time>2026-05-02T14:23:06.711Z</time></trkpt><trkpt lat="37.1429602" lon="9.272652"><ele>94.0</ele><time>2026-05-02T14:23:07.694Z</time></trkpt><trkpt lat="37.1430557" lon="9.272825"><ele>94.0</ele><time>2026-05-02T14:23:08.699Z</time></trkpt><trkpt lat="37.1431532" lon="9.2729956"><ele>94.0</ele><time>2026-05-02T14:23:09.705Z</time></trkpt><trkpt lat="37.1432527" lon="9.2731655"><ele>94.0</ele><time>2026-05-02T14:23:10.708Z</time></trkpt><trkpt lat="37.1433521" lon="9.2733346"><ele>93.66666666666666</ele><time>2026-05-02T14:23:11.706Z</time></trkpt><trkpt lat="37.1434513" lon="9.2735045"><ele>93.33333333333333</ele><time>2026-05-02T14:23:12.701Z</time></trkpt><trkpt lat="37.1435528" lon="9.2736707"><ele>93.0</ele><time>2026-05-02T14:23:13.698Z</time></trkpt><trkpt lat="37.1436585" lon="9.273833"><ele>92.66666666666667</ele><time>2026-05-02T14:23:14.703Z</time></trkpt><trkpt lat="37.1437725" lon="9.273985"><ele>92.33333333333334</ele><time>2026-05-02T14:23:15.707Z</time></trkpt><trkpt lat="37.143896" lon="9.2741276"><ele>92.0</ele><time>2026-05-02T14:23:16.702Z</time></trkpt><trkpt lat="37.1440262" lon="9.2742607"><ele>92.33333333333334</ele><time>2026-05-02T14:23:17.709Z</time></trkpt><trkpt lat="37.1441641" lon="9.2743855"><ele>92.66666666666667</ele><time>2026-05-02T14:23:18.701Z</time></trkpt><trkpt lat="37.1443088" lon="9.2744948"><ele>93.0</ele><time>2026-05-02T14:23:19.689Z</time></trkpt><trkpt lat="37.1444617" lon="9.274593"><ele>93.0</ele><time>2026-05-02T14:23:20.701Z</time></trkpt><trkpt lat="37.144616" lon="9.2746785"><ele>93.0</ele><time>2026-05-02T14:23:21.707Z</time></trkpt><trkpt lat="37.1447725" lon="9.2747461"><ele>93.0</ele><time>2026-05-02T14:23:22.706Z</time></trkpt><trkpt lat="37.1449344" lon="9.2747992"><ele>93.0</ele><time>2026-05-02T14:23:23.703Z</time></trkpt><trkpt lat="37.1450919" lon="9.2748452"><ele>93.0</ele><time>2026-05-02T14:23:24.71Z</time></trkpt><trkpt lat="37.1452431" lon="9.2748777"><ele>93.0</ele><time>2026-05-02T14:23:25.719Z</time></trkpt><trkpt lat="37.145397" lon="9.2748998"><ele>93.0</ele><time>2026-05-02T14:23:26.703Z</time></trkpt><trkpt lat="37.1455529" lon="9.2749174"><ele>93.0</ele><time>2026-05-02T14:23:27.695Z</time></trkpt><trkpt lat="37.1457106" lon="9.2749358"><ele>93.0</ele><time>2026-05-02T14:23:28.698Z</time></trkpt><trkpt lat="37.1458713" lon="9.2749552"><ele>93.0</ele><time>2026-05-02T14:23:29.71Z</time></trkpt><trkpt lat="37.1460416" lon="9.2749789"><ele>93.0</ele><time>2026-05-02T14:23:30.717Z</time></trkpt><trkpt lat="37.1462152" lon="9.2750012"><ele>93.0</ele><time>2026-05-02T14:23:31.705Z</time></trkpt><trkpt lat="37.1463944" lon="9.2750185"><ele>93.0</ele><time>2026-05-02T14:23:32.709Z</time></trkpt><trkpt lat="37.1465713" lon="9.2750359"><ele>93.0</ele><time>2026-05-02T14:23:33.701Z</time></trkpt><trkpt lat="37.1467479" lon="9.2750557"><ele>93.0</ele><time>2026-05-02T14:23:34.702Z</time></trkpt><trkpt lat="37.1469213" lon="9.2750786"><ele>93.0</ele><time>2026-05-02T14:23:35.709Z</time></trkpt><trkpt lat="37.147092" lon="9.2751021"><ele>93.0</ele><time>2026-05-02T14:23:36.7Z</time></trkpt><trkpt lat="37.1472596" lon="9.275123"><ele>93.0</ele><time>2026-05-02T14:23:37.714Z</time></trkpt><trkpt lat="37.14743" lon="9.2751456"><ele>94.0</ele><time>2026-05-02T14:23:38.7Z</time></trkpt><trkpt lat="37.147597" lon="9.2751661"><ele>95.0</ele><time>2026-05-02T14:23:39.704Z</time></trkpt><trkpt lat="37.1477614" lon="9.2751887"><ele>96.0</ele><time>2026-05-02T14:23:40.706Z</time></trkpt><trkpt lat="37.1479224" lon="9.2752077"><ele>96.0</ele><time>2026-05-02T14:23:41.716Z</time></trkpt><trkpt lat="37.1480877" lon="9.2752278"><ele>96.0</ele><time>2026-05-02T14:23:42.709Z</time></trkpt><trkpt lat="37.1482521" lon="9.2752535"><ele>96.0</ele><time>2026-05-02T14:23:43.693Z</time></trkpt><trkpt lat="37.1484201" lon="9.2752789"><ele>97.33333333333334</ele><time>2026-05-02T14:23:44.692Z</time></trkpt><trkpt lat="37.1485879" lon="9.2753042"><ele>98.66666666666667</ele><time>2026-05-02T14:23:45.705Z</time></trkpt><trkpt lat="37.1487538" lon="9.2753282"><ele>100.0</ele><time>2026-05-02T14:23:46.708Z</time></trkpt><trkpt lat="37.1489248" lon="9.2753507"><ele>100.66666666666667</ele><time>2026-05-02T14:23:47.696Z</time></trkpt><trkpt lat="37.1490966" lon="9.2753726"><ele>101.33333333333334</ele><time>2026-05-02T14:23:48.697Z</time></trkpt><trkpt lat="37.1492744" lon="9.2753956"><ele>102.0</ele><time>2026-05-02T14:23:49.712Z</time></trkpt><trkpt lat="37.1494574" lon="9.2754203"><ele>102.0</ele><time>2026-05-02T14:23:50.709Z</time></trkpt><trkpt lat="37.1496469" lon="9.2754464"><ele>102.0</ele><time>2026-05-02T14:23:51.704Z</time></trkpt><trkpt lat="37.1498348" lon="9.2754697"><ele>102.0</ele><time>2026-05-02T14:23:52.703Z</time></trkpt><trkpt lat="37.1500221" lon="9.2754921"><ele>103.66666666666666</ele><time>2026-05-02T14:23:53.715Z</time></trkpt><trkpt lat="37.1502053" lon="9.2755134"><ele>105.33333333333333</ele><time>2026-05-02T14:23:54.714Z</time></trkpt><trkpt lat="37.1503805" lon="9.2755296"><ele>107.0</ele><time>2026-05-02T14:23:55.694Z</time></trkpt><trkpt lat="37.1505529" lon="9.2755484"><ele>109.0</ele><time>2026-05-02T14:23:56.686Z</time></trkpt><trkpt lat="37.1507178" lon="9.2755698"><ele>111.0</ele><time>2026-05-02T14:23:57.703Z</time></trkpt><trkpt lat="37.1508801" lon="9.2755931"><ele>113.0</ele><time>2026-05-02T14:23:58.696Z</time></trkpt><trkpt lat="37.151029" lon="9.275614"><ele>113.25</ele><time>2026-05-02T14:23:59.697Z</time></trkpt><trkpt lat="37.1511701" lon="9.2756317"><ele>113.5</ele><time>2026-05-02T14:24:00.694Z</time></trkpt><trkpt lat="37.151301" lon="9.2756492"><ele>113.75</ele><time>2026-05-02T14:24:01.687Z</time></trkpt><trkpt lat="37.1514186" lon="9.2756704"><ele>114.0</ele><time>2026-05-02T14:24:02.694Z</time></trkpt><trkpt lat="37.15152" lon="9.2756938"><ele>114.33333333333333</ele><time>2026-05-02T14:24:03.699Z</time></trkpt><trkpt lat="37.1516071" lon="9.2757253"><ele>114.66666666666666</ele><time>2026-05-02T14:24:04.703Z</time></trkpt><trkpt lat="37.1516816" lon="9.2757628"><ele>115.0</ele><time>2026-05-02T14:24:05.704Z</time></trkpt><trkpt lat="37.1517452" lon="9.2758141"><ele>115.33333333333333</ele><time>2026-05-02T14:24:06.691Z</time></trkpt><trkpt lat="37.1517856" lon="9.2758791"><ele>115.66666666666666</ele><time>2026-05-02T14:24:07.714Z</time></trkpt><trkpt lat="37.1518151" lon="9.2759573"><ele>116.0</ele><time>2026-05-02T14:24:08.695Z</time></trkpt><trkpt lat="37.1518289" lon="9.2760491"><ele>116.0</ele><time>2026-05-02T14:24:09.696Z</time></trkpt><trkpt lat="37.1518283" lon="9.276147"><ele>116.0</ele><time>2026-05-02T14:24:10.709Z</time></trkpt><trkpt lat="37.151814" lon="9.2762523"><ele>116.0</ele><time>2026-05-02T14:24:11.708Z</time></trkpt><trkpt lat="37.1517929" lon="9.2763687"><ele>116.0</ele><time>2026-05-02T14:24:12.701Z</time></trkpt><trkpt lat="37.1517711" lon="9.276494"><ele>116.0</ele><time>2026-05-02T14:24:13.703Z</time></trkpt><trkpt lat="37.1517488" lon="9.2766296"><ele>116.25</ele><time>2026-05-02T14:24:14.705Z</time></trkpt><trkpt lat="37.1517226" lon="9.2767581"><ele>116.5</ele><time>2026-05-02T14:24:15.7Z</time></trkpt><trkpt lat="37.1516933" lon="9.276897"><ele>116.75</ele><time>2026-05-02T14:24:16.693Z</time></trkpt><trkpt lat="37.1516646" lon="9.2770416"><ele>117.0</ele><time>2026-05-02T14:24:17.713Z</time></trkpt><trkpt lat="37.1516359" lon="9.2771948"><ele>117.5</ele><time>2026-05-02T14:24:18.695Z</time></trkpt><trkpt lat="37.1516053" lon="9.277356"><ele>118.0</ele><time>2026-05-02T14:24:19.697Z</time></trkpt><trkpt lat="37.1515768" lon="9.2775223"><ele>118.5</ele><time>2026-05-02T14:24:20.707Z</time></trkpt><trkpt lat="37.1515483" lon="9.277695"><ele>119.0</ele><time>2026-05-02T14:24:21.702Z</time></trkpt><trkpt lat="37.1515152" lon="9.2778703"><ele>118.5</ele><time>2026-05-02T14:24:22.707Z</time></trkpt><trkpt lat="37.1514861" lon="9.2780497"><ele>118.0</ele><time>2026-05-02T14:24:23.719Z</time></trkpt><trkpt lat="37.1514639" lon="9.2782217"><ele>117.5</ele><time>2026-05-02T14:24:24.73Z</time></trkpt><trkpt lat="37.1514491" lon="9.2783943"><ele>117.0</ele><time>2026-05-02T14:24:25.695Z</time></trkpt><trkpt lat="37.1514468" lon="9.2785621"><ele>117.0</ele><time>2026-05-02T14:24:26.701Z</time></trkpt><trkpt lat="37.1514604" lon="9.2787278"><ele>117.0</ele><time>2026-05-02T14:24:27.702Z</time></trkpt><trkpt lat="37.1514881" lon="9.2788982"><ele>117.0</ele><time>2026-05-02T14:24:28.696Z</time></trkpt><trkpt lat="37.1515311" lon="9.2790713"><ele>117.0</ele><time>2026-05-02T14:24:29.707Z</time></trkpt><trkpt lat="37.1515805" lon="9.2792489"><ele>117.33333333333334</ele><time>2026-05-02T14:24:30.708Z</time></trkpt><trkpt lat="37.1516371" lon="9.2794307"><ele>117.66666666666667</ele><time>2026-05-02T14:24:31.703Z</time></trkpt><trkpt lat="37.1516975" lon="9.2796205"><ele>118.0</ele><time>2026-05-02T14:24:32.708Z</time></trkpt><trkpt lat="37.1517602" lon="9.2798141"><ele>118.0</ele><time>2026-05-02T14:24:33.706Z</time></trkpt><trkpt lat="37.1518227" lon="9.2800181"><ele>118.0</ele><time>2026-05-02T14:24:34.711Z</time></trkpt><trkpt lat="37.1518868" lon="9.2802268"><ele>118.0</ele><time>2026-05-02T14:24:35.724Z</time></trkpt><trkpt lat="37.1519545" lon="9.2804374"><ele>117.33333333333334</ele><time>2026-05-02T14:24:36.714Z</time></trkpt><trkpt lat="37.1520213" lon="9.2806501"><ele>116.66666666666666</ele><time>2026-05-02T14:24:37.709Z</time></trkpt><trkpt lat="37.1520876" lon="9.2808595"><ele>116.0</ele><time>2026-05-02T14:24:38.715Z</time></trkpt><trkpt lat="37.1521529" lon="9.2810684"><ele>116.0</ele><time>2026-05-02T14:24:39.706Z</time></trkpt><trkpt lat="37.1522157" lon="9.2812767"><ele>116.0</ele><time>2026-05-02T14:24:40.701Z</time></trkpt><trkpt lat="37.1522818" lon="9.2814831"><ele>116.0</ele><time>2026-05-02T14:24:41.712Z</time></trkpt><trkpt lat="37.1523483" lon="9.2816886"><ele>117.0</ele><time>2026-05-02T14:24:42.721Z</time></trkpt><trkpt lat="37.1524162" lon="9.2818928"><ele>118.0</ele><time>2026-05-02T14:24:43.713Z</time></trkpt><trkpt lat="37.1524841" lon="9.2820982"><ele>119.0</ele><time>2026-05-02T14:24:44.702Z</time></trkpt><trkpt lat="37.152559" lon="9.282301"><ele>116.66666666666666</ele><time>2026-05-02T14:24:45.709Z</time></trkpt><trkpt lat="37.1526363" lon="9.2824993"><ele>114.33333333333334</ele><time>2026-05-02T14:24:46.712Z</time></trkpt><trkpt lat="37.1527077" lon="9.2826947"><ele>112.0</ele><time>2026-05-02T14:24:47.7Z</time></trkpt><trkpt lat="37.1527778" lon="9.282891"><ele>112.0</ele><time>2026-05-02T14:24:48.714Z</time></trkpt><trkpt lat="37.1528508" lon="9.2830835"><ele>112.0</ele><time>2026-05-02T14:24:49.704Z</time></trkpt><trkpt lat="37.1529275" lon="9.2832738"><ele>112.0</ele><time>2026-05-02T14:24:50.692Z</time></trkpt><trkpt lat="37.1530086" lon="9.2834637"><ele>111.0</ele><time>2026-05-02T14:24:51.705Z</time></trkpt><trkpt lat="37.153096" lon="9.2836501"><ele>110.0</ele><time>2026-05-02T14:24:52.719Z</time></trkpt><trkpt lat="37.1531828" lon="9.2838352"><ele>109.0</ele><time>2026-05-02T14:24:53.716Z</time></trkpt><trkpt lat="37.1532713" lon="9.2840196"><ele>113.0</ele><time>2026-05-02T14:24:54.698Z</time></trkpt><trkpt lat="37.1533582" lon="9.284202"><ele>117.0</ele><time>2026-05-02T14:24:55.71Z</time></trkpt><trkpt lat="37.1534488" lon="9.284382"><ele>121.0</ele><time>2026-05-02T14:24:56.708Z</time></trkpt><trkpt lat="37.1535403" lon="9.284558"><ele>121.0</ele><time>2026-05-02T14:24:57.696Z</time></trkpt><trkpt lat="37.153632" lon="9.2847317"><ele>121.0</ele><time>2026-05-02T14:24:58.707Z</time></trkpt><trkpt lat="37.153722" lon="9.2848999"><ele>121.0</ele><time>2026-05-02T14:24:59.737Z</time></trkpt><trkpt lat="37.1538102" lon="9.2850656"><ele>119.0</ele><time>2026-05-02T14:25:00.706Z</time></trkpt><trkpt lat="37.1538922" lon="9.285233"><ele>117.0</ele><time>2026-05-02T14:25:01.699Z</time></trkpt><trkpt lat="37.1539739" lon="9.2854016"><ele>115.0</ele><time>2026-05-02T14:25:02.708Z</time></trkpt><trkpt lat="37.1540548" lon="9.2855655"><ele>117.0</ele><time>2026-05-02T14:25:03.698Z</time></trkpt><trkpt lat="37.1541347" lon="9.2857249"><ele>119.0</ele><time>2026-05-02T14:25:04.705Z</time></trkpt><trkpt lat="37.1542134" lon="9.2858849"><ele>121.0</ele><time>2026-05-02T14:25:05.711Z</time></trkpt><trkpt lat="37.154288" lon="9.2860471"><ele>123.0</ele><time>2026-05-02T14:25:06.716Z</time></trkpt><trkpt lat="37.1543625" lon="9.2862134"><ele>123.0</ele><time>2026-05-02T14:25:07.696Z</time></trkpt><trkpt lat="37.1544378" lon="9.2863808"><ele>123.0</ele><time>2026-05-02T14:25:08.695Z</time></trkpt><trkpt lat="37.1545087" lon="9.2865559"><ele>123.0</ele><time>2026-05-02T14:25:09.717Z</time></trkpt><trkpt lat="37.1545762" lon="9.2867323"><ele>121.33333333333334</ele><time>2026-05-02T14:25:10.71Z</time></trkpt><trkpt lat="37.1546351" lon="9.2869165"><ele>119.66666666666667</ele><time>2026-05-02T14:25:11.709Z</time></trkpt><trkpt lat="37.1546863" lon="9.2871109"><ele>118.0</ele><time>2026-05-02T14:25:12.688Z</time></trkpt><trkpt lat="37.1547312" lon="9.2873143"><ele>117.0</ele><time>2026-05-02T14:25:13.696Z</time></trkpt><trkpt lat="37.1547758" lon="9.287523"><ele>116.0</ele><time>2026-05-02T14:25:14.701Z</time></trkpt><trkpt lat="37.1548185" lon="9.2877377"><ele>115.0</ele><time>2026-05-02T14:25:15.695Z</time></trkpt><trkpt lat="37.1548617" lon="9.2879579"><ele>116.0</ele><time>2026-05-02T14:25:16.715Z</time></trkpt><trkpt lat="37.1548961" lon="9.2881841"><ele>117.0</ele><time>2026-05-02T14:25:17.7Z</time></trkpt><trkpt lat="37.1549239" lon="9.2884146"><ele>118.0</ele><time>2026-05-02T14:25:18.698Z</time></trkpt><trkpt lat="37.1549407" lon="9.2886537"><ele>118.0</ele><time>2026-05-02T14:25:19.731Z</time></trkpt><trkpt lat="37.1549451" lon="9.288895"><ele>118.0</ele><time>2026-05-02T14:25:20.696Z</time></trkpt><trkpt lat="37.1549421" lon="9.2891391"><ele>118.0</ele><time>2026-05-02T14:25:21.69Z</time></trkpt><trkpt lat="37.1549302" lon="9.2893848"><ele>116.33333333333334</ele><time>2026-05-02T14:25:22.709Z</time></trkpt><trkpt lat="37.1549151" lon="9.2896288"><ele>114.66666666666666</ele><time>2026-05-02T14:25:23.708Z</time></trkpt><trkpt lat="37.1548954" lon="9.2898738"><ele>113.0</ele><time>2026-05-02T14:25:24.717Z</time></trkpt><trkpt lat="37.1548743" lon="9.2901137"><ele>109.33333333333333</ele><time>2026-05-02T14:25:25.706Z</time></trkpt><trkpt lat="37.1548544" lon="9.290356"><ele>105.66666666666666</ele><time>2026-05-02T14:25:26.711Z</time></trkpt><trkpt lat="37.1548404" lon="9.2905985"><ele>102.0</ele><time>2026-05-02T14:25:27.703Z</time></trkpt><trkpt lat="37.1548333" lon="9.2908438"><ele>101.33333333333334</ele><time>2026-05-02T14:25:28.712Z</time></trkpt><trkpt lat="37.1548372" lon="9.2910895"><ele>100.66666666666667</ele><time>2026-05-02T14:25:29.705Z</time></trkpt><trkpt lat="37.1548516" lon="9.2913324"><ele>100.0</ele><time>2026-05-02T14:25:30.711Z</time></trkpt><trkpt lat="37.1548766" lon="9.2915747"><ele>102.33333333333334</ele><time>2026-05-02T14:25:31.699Z</time></trkpt><trkpt lat="37.1549068" lon="9.2918136"><ele>104.66666666666666</ele><time>2026-05-02T14:25:32.698Z</time></trkpt><trkpt lat="37.1549377" lon="9.2920515"><ele>107.0</ele><time>2026-05-02T14:25:33.701Z</time></trkpt><trkpt lat="37.1549684" lon="9.2922753"><ele>107.0</ele><time>2026-05-02T14:25:34.702Z</time></trkpt><trkpt lat="37.1550034" lon="9.2925006"><ele>107.0</ele><time>2026-05-02T14:25:35.694Z</time></trkpt><trkpt lat="37.1550353" lon="9.2927262"><ele>107.0</ele><time>2026-05-02T14:25:36.713Z</time></trkpt><trkpt lat="37.1550678" lon="9.29296"><ele>106.66666666666666</ele><time>2026-05-02T14:25:37.705Z</time></trkpt><trkpt lat="37.1550997" lon="9.2931948"><ele>106.33333333333334</ele><time>2026-05-02T14:25:38.702Z</time></trkpt><trkpt lat="37.1551321" lon="9.2934229"><ele>106.0</ele><time>2026-05-02T14:25:39.7Z</time></trkpt><trkpt lat="37.1551585" lon="9.2936362"><ele>106.0</ele><time>2026-05-02T14:25:40.709Z</time></trkpt><trkpt lat="37.1551853" lon="9.2938423"><ele>106.0</ele><time>2026-05-02T14:25:41.709Z</time></trkpt><trkpt lat="37.1552129" lon="9.2940465"><ele>106.0</ele><time>2026-05-02T14:25:42.711Z</time></trkpt><trkpt lat="37.1552394" lon="9.2942479"><ele>106.33333333333334</ele><time>2026-05-02T14:25:43.711Z</time></trkpt><trkpt lat="37.1552653" lon="9.2944473"><ele>106.66666666666666</ele><time>2026-05-02T14:25:44.706Z</time></trkpt><trkpt lat="37.1552933" lon="9.2946492"><ele>107.0</ele><time>2026-05-02T14:25:45.706Z</time></trkpt><trkpt lat="37.1553229" lon="9.2948498"><ele>107.33333333333333</ele><time>2026-05-02T14:25:46.704Z</time></trkpt><trkpt lat="37.1553543" lon="9.2950502"><ele>107.66666666666666</ele><time>2026-05-02T14:25:47.704Z</time></trkpt><trkpt lat="37.1553855" lon="9.2952483"><ele>108.0</ele><time>2026-05-02T14:25:48.712Z</time></trkpt><trkpt lat="37.1554187" lon="9.2954415"><ele>108.0</ele><time>2026-05-02T14:25:49.704Z</time></trkpt><trkpt lat="37.1554596" lon="9.295629"><ele>108.0</ele><time>2026-05-02T14:25:50.709Z</time></trkpt><trkpt lat="37.1555098" lon="9.2958144"><ele>108.0</ele><time>2026-05-02T14:25:51.701Z</time></trkpt><trkpt lat="37.1555779" lon="9.2959901"><ele>108.0</ele><time>2026-05-02T14:25:52.705Z</time></trkpt><trkpt lat="37.1556543" lon="9.2961625"><ele>108.0</ele><time>2026-05-02T14:25:53.702Z</time></trkpt><trkpt lat="37.1557381" lon="9.2963249"><ele>108.0</ele><time>2026-05-02T14:25:54.708Z</time></trkpt><trkpt lat="37.1558303" lon="9.2964794"><ele>108.33333333333334</ele><time>2026-05-02T14:25:55.713Z</time></trkpt><trkpt lat="37.1559337" lon="9.2966256"><ele>108.66666666666667</ele><time>2026-05-02T14:25:56.703Z</time></trkpt><trkpt lat="37.1560491" lon="9.296766"><ele>109.0</ele><time>2026-05-02T14:25:57.706Z</time></trkpt><trkpt lat="37.1561738" lon="9.2968989"><ele>109.0</ele><time>2026-05-02T14:25:58.699Z</time></trkpt><trkpt lat="37.1563052" lon="9.2970259"><ele>109.0</ele><time>2026-05-02T14:25:59.708Z</time></trkpt><trkpt lat="37.1564414" lon="9.2971477"><ele>109.0</ele><time>2026-05-02T14:26:00.706Z</time></trkpt><trkpt lat="37.1565837" lon="9.2972642"><ele>108.66666666666667</ele><time>2026-05-02T14:26:01.699Z</time></trkpt><trkpt lat="37.1567295" lon="9.2973806"><ele>108.33333333333334</ele><time>2026-05-02T14:26:02.697Z</time></trkpt><trkpt lat="37.1568764" lon="9.2974978"><ele>108.0</ele><time>2026-05-02T14:26:03.702Z</time></trkpt><trkpt lat="37.157024" lon="9.297613"><ele>108.0</ele><time>2026-05-02T14:26:04.711Z</time></trkpt><trkpt lat="37.1571667" lon="9.2977268"><ele>108.0</ele><time>2026-05-02T14:26:05.698Z</time></trkpt><trkpt lat="37.1573045" lon="9.2978267"><ele>108.0</ele><time>2026-05-02T14:26:06.702Z</time></trkpt><trkpt lat="37.1574362" lon="9.297906"><ele>109.25</ele><time>2026-05-02T14:26:07.69Z</time></trkpt><trkpt lat="37.1575712" lon="9.2979625"><ele>110.5</ele><time>2026-05-02T14:26:08.707Z</time></trkpt><trkpt lat="37.1577054" lon="9.2979905"><ele>111.75</ele><time>2026-05-02T14:26:09.707Z</time></trkpt><trkpt lat="37.1578405" lon="9.2979897"><ele>113.0</ele><time>2026-05-02T14:26:10.704Z</time></trkpt><trkpt lat="37.1579808" lon="9.2979692"><ele>113.0</ele><time>2026-05-02T14:26:11.7Z</time></trkpt><trkpt lat="37.1581329" lon="9.2979387"><ele>113.0</ele><time>2026-05-02T14:26:12.696Z</time></trkpt><trkpt lat="37.1582891" lon="9.2979034"><ele>113.0</ele><time>2026-05-02T14:26:13.696Z</time></trkpt><trkpt lat="37.1584542" lon="9.2978703"><ele>115.0</ele><time>2026-05-02T14:26:14.696Z</time></trkpt><trkpt lat="37.1586222" lon="9.297832"><ele>117.0</ele><time>2026-05-02T14:26:15.701Z</time></trkpt><trkpt lat="37.1587921" lon="9.2977936"><ele>119.0</ele><time>2026-05-02T14:26:16.696Z</time></trkpt><trkpt lat="37.1589638" lon="9.2977542"><ele>120.0</ele><time>2026-05-02T14:26:17.688Z</time></trkpt><trkpt lat="37.1591303" lon="9.2977156"><ele>121.0</ele><time>2026-05-02T14:26:18.71Z</time></trkpt><trkpt lat="37.1592967" lon="9.297675"><ele>122.0</ele><time>2026-05-02T14:26:19.702Z</time></trkpt><trkpt lat="37.1594589" lon="9.2976367"><ele>122.0</ele><time>2026-05-02T14:26:20.699Z</time></trkpt><trkpt lat="37.15962" lon="9.2975987"><ele>122.0</ele><time>2026-05-02T14:26:21.689Z</time></trkpt><trkpt lat="37.1597822" lon="9.2975604"><ele>122.0</ele><time>2026-05-02T14:26:22.713Z</time></trkpt><trkpt lat="37.1599371" lon="9.2975213"><ele>123.0</ele><time>2026-05-02T14:26:23.702Z</time></trkpt><trkpt lat="37.1600921" lon="9.2974876"><ele>124.0</ele><time>2026-05-02T14:26:24.703Z</time></trkpt><trkpt lat="37.1602452" lon="9.2974512"><ele>125.0</ele><time>2026-05-02T14:26:25.704Z</time></trkpt><trkpt lat="37.1603976" lon="9.2974141"><ele>125.0</ele><time>2026-05-02T14:26:26.701Z</time></trkpt><trkpt lat="37.1605495" lon="9.2973777"><ele>125.0</ele><time>2026-05-02T14:26:27.713Z</time></trkpt><trkpt lat="37.1606981" lon="9.2973384"><ele>125.0</ele><time>2026-05-02T14:26:28.711Z</time></trkpt><trkpt lat="37.1608349" lon="9.2973023"><ele>125.0</ele><time>2026-05-02T14:26:29.696Z</time></trkpt><trkpt lat="37.1609655" lon="9.2972692"><ele>127.0</ele><time>2026-05-02T14:26:30.698Z</time></trkpt><trkpt lat="37.1610967" lon="9.2972382"><ele>129.0</ele><time>2026-05-02T14:26:31.695Z</time></trkpt><trkpt lat="37.1612264" lon="9.2972078"><ele>131.0</ele><time>2026-05-02T14:26:32.71Z</time></trkpt><trkpt lat="37.1613547" lon="9.2971782"><ele>133.0</ele><time>2026-05-02T14:26:33.703Z</time></trkpt><trkpt lat="37.1614819" lon="9.2971458"><ele>133.5</ele><time>2026-05-02T14:26:34.694Z</time></trkpt><trkpt lat="37.1616075" lon="9.2971168"><ele>134.0</ele><time>2026-05-02T14:26:35.701Z</time></trkpt><trkpt lat="37.1617331" lon="9.29709"><ele>134.5</ele><time>2026-05-02T14:26:36.692Z</time></trkpt><trkpt lat="37.1618576" lon="9.2970655"><ele>135.0</ele><time>2026-05-02T14:26:37.692Z</time></trkpt><trkpt lat="37.1619819" lon="9.2970363"><ele>135.0</ele><time>2026-05-02T14:26:38.709Z</time></trkpt><trkpt lat="37.1621066" lon="9.2970034"><ele>135.0</ele><time>2026-05-02T14:26:39.702Z</time></trkpt><trkpt lat="37.1622313" lon="9.296969"><ele>135.0</ele><time>2026-05-02T14:26:40.721Z</time></trkpt><trkpt lat="37.1623578" lon="9.2969373"><ele>135.0</ele><time>2026-05-02T14:26:41.718Z</time></trkpt><trkpt lat="37.1624844" lon="9.2969075"><ele>136.25</ele><time>2026-05-02T14:26:42.703Z</time></trkpt><trkpt lat="37.1626111" lon="9.2968818"><ele>137.5</ele><time>2026-05-02T14:26:43.692Z</time></trkpt><trkpt lat="37.162742" lon="9.2968529"><ele>138.75</ele><time>2026-05-02T14:26:44.706Z</time></trkpt><trkpt lat="37.1628789" lon="9.2968248"><ele>140.0</ele><time>2026-05-02T14:26:45.697Z</time></trkpt><trkpt lat="37.1630214" lon="9.2967908"><ele>140.0</ele><time>2026-05-02T14:26:46.699Z</time></trkpt><trkpt lat="37.1631677" lon="9.2967569"><ele>140.0</ele><time>2026-05-02T14:26:47.712Z</time></trkpt><trkpt lat="37.1633153" lon="9.2967219"><ele>140.0</ele><time>2026-05-02T14:26:48.697Z</time></trkpt><trkpt lat="37.1634654" lon="9.2966874"><ele>141.33333333333331</ele><time>2026-05-02T14:26:49.697Z</time></trkpt><trkpt lat="37.1636231" lon="9.2966556"><ele>142.66666666666666</ele><time>2026-05-02T14:26:50.703Z</time></trkpt><trkpt lat="37.1637807" lon="9.2966268"><ele>144.0</ele><time>2026-05-02T14:26:51.702Z</time></trkpt><trkpt lat="37.163945" lon="9.296604"><ele>143.66666666666666</ele><time>2026-05-02T14:26:52.714Z</time></trkpt><trkpt lat="37.1641154" lon="9.2965903"><ele>143.33333333333331</ele><time>2026-05-02T14:26:53.703Z</time></trkpt><trkpt lat="37.1642905" lon="9.2965859"><ele>143.0</ele><time>2026-05-02T14:26:54.701Z</time></trkpt><trkpt lat="37.1644657" lon="9.296587"><ele>143.0</ele><time>2026-05-02T14:26:55.703Z</time></trkpt><trkpt lat="37.1646453" lon="9.2965954"><ele>143.0</ele><time>2026-05-02T14:26:56.687Z</time></trkpt><trkpt lat="37.1648244" lon="9.29661"><ele>143.0</ele><time>2026-05-02T14:26:57.696Z</time></trkpt><trkpt lat="37.1650027" lon="9.2966321"><ele>141.66666666666666</ele><time>2026-05-02T14:26:58.698Z</time></trkpt><trkpt lat="37.1651793" lon="9.2966581"><ele>140.33333333333334</ele><time>2026-05-02T14:26:59.696Z</time></trkpt><trkpt lat="37.1653558" lon="9.2966841"><ele>139.0</ele><time>2026-05-02T14:27:00.69Z</time></trkpt><trkpt lat="37.1655356" lon="9.2967128"><ele>137.66666666666669</ele><time>2026-05-02T14:27:01.693Z</time></trkpt><trkpt lat="37.1657138" lon="9.2967442"><ele>136.33333333333334</ele><time>2026-05-02T14:27:02.693Z</time></trkpt><trkpt lat="37.1658914" lon="9.2967747"><ele>135.0</ele><time>2026-05-02T14:27:03.694Z</time></trkpt><trkpt lat="37.1660684" lon="9.2968073"><ele>135.0</ele><time>2026-05-02T14:27:04.686Z</time></trkpt><trkpt lat="37.1662472" lon="9.2968402"><ele>135.0</ele><time>2026-05-02T14:27:05.678Z</time></trkpt><trkpt lat="37.1664238" lon="9.2968798"><ele>135.0</ele><time>2026-05-02T14:27:06.702Z</time></trkpt><trkpt lat="37.1665997" lon="9.2969237"><ele>134.66666666666666</ele><time>2026-05-02T14:27:07.697Z</time></trkpt><trkpt lat="37.1667682" lon="9.2969755"><ele>134.33333333333331</ele><time>2026-05-02T14:27:08.692Z</time></trkpt><trkpt lat="37.1669253" lon="9.2970319"><ele>134.0</ele><time>2026-05-02T14:27:09.701Z</time></trkpt><trkpt lat="37.1670726" lon="9.2970964"><ele>134.0</ele><time>2026-05-02T14:27:10.695Z</time></trkpt><trkpt lat="37.1672125" lon="9.2971659"><ele>134.0</ele><time>2026-05-02T14:27:11.694Z</time></trkpt><trkpt lat="37.1673434" lon="9.2972404"><ele>134.0</ele><time>2026-05-02T14:27:12.687Z</time></trkpt><trkpt lat="37.1674665" lon="9.2973152"><ele>134.0</ele><time>2026-05-02T14:27:13.694Z</time></trkpt><trkpt lat="37.1675844" lon="9.2973897"><ele>135.0</ele><time>2026-05-02T14:27:14.698Z</time></trkpt><trkpt lat="37.1676989" lon="9.2974652"><ele>136.0</ele><time>2026-05-02T14:27:15.697Z</time></trkpt><trkpt lat="37.167812" lon="9.29754"><ele>137.0</ele><time>2026-05-02T14:27:16.701Z</time></trkpt><trkpt lat="37.1679281" lon="9.2976126"><ele>138.0</ele><time>2026-05-02T14:27:17.698Z</time></trkpt><trkpt lat="37.1680445" lon="9.2976897"><ele>138.0</ele><time>2026-05-02T14:27:18.681Z</time></trkpt><trkpt lat="37.1681688" lon="9.2977702"><ele>138.0</ele><time>2026-05-02T14:27:19.687Z</time></trkpt><trkpt lat="37.1682945" lon="9.2978577"><ele>138.0</ele><time>2026-05-02T14:27:20.699Z</time></trkpt><trkpt lat="37.1684256" lon="9.2979511"><ele>138.0</ele><time>2026-05-02T14:27:21.7Z</time></trkpt><trkpt lat="37.168559" lon="9.2980445"><ele>136.75</ele><time>2026-05-02T14:27:22.699Z</time></trkpt><trkpt lat="37.1686904" lon="9.2981358"><ele>135.5</ele><time>2026-05-02T14:27:23.696Z</time></trkpt><trkpt lat="37.1688196" lon="9.2982274"><ele>134.25</ele><time>2026-05-02T14:27:24.684Z</time></trkpt><trkpt lat="37.1689436" lon="9.2983145"><ele>133.0</ele><time>2026-05-02T14:27:25.702Z</time></trkpt><trkpt lat="37.1690658" lon="9.2984"><ele>132.25</ele><time>2026-05-02T14:27:26.697Z</time></trkpt><trkpt lat="37.1691873" lon="9.298485"><ele>131.5</ele><time>2026-05-02T14:27:27.701Z</time></trkpt><trkpt lat="37.1693073" lon="9.2985688"><ele>130.75</ele><time>2026-05-02T14:27:28.693Z</time></trkpt><trkpt lat="37.1694283" lon="9.298653"><ele>130.0</ele><time>2026-05-02T14:27:29.696Z</time></trkpt><trkpt lat="37.1695492" lon="9.2987387"><ele>130.0</ele><time>2026-05-02T14:27:30.688Z</time></trkpt><trkpt lat="37.1696735" lon="9.2988214"><ele>130.0</ele><time>2026-05-02T14:27:31.69Z</time></trkpt><trkpt lat="37.1697971" lon="9.2989031"><ele>130.0</ele><time>2026-05-02T14:27:32.701Z</time></trkpt><trkpt lat="37.1699202" lon="9.2989896"><ele>130.0</ele><time>2026-05-02T14:27:33.707Z</time></trkpt><trkpt lat="37.1700423" lon="9.299076"><ele>128.5</ele><time>2026-05-02T14:27:34.698Z</time></trkpt><trkpt lat="37.1701645" lon="9.2991602"><ele>127.0</ele><time>2026-05-02T14:27:35.691Z</time></trkpt><trkpt lat="37.1702856" lon="9.2992467"><ele>125.5</ele><time>2026-05-02T14:27:36.694Z</time></trkpt><trkpt lat="37.1704063" lon="9.299334"><ele>124.0</ele><time>2026-05-02T14:27:37.702Z</time></trkpt><trkpt lat="37.1705254" lon="9.2994259"><ele>124.0</ele><time>2026-05-02T14:27:38.698Z</time></trkpt><trkpt lat="37.1706446" lon="9.2995208"><ele>124.0</ele><time>2026-05-02T14:27:39.707Z</time></trkpt><trkpt lat="37.1707636" lon="9.299615"><ele>124.0</ele><time>2026-05-02T14:27:40.695Z</time></trkpt><trkpt lat="37.1708807" lon="9.299716"><ele>124.0</ele><time>2026-05-02T14:27:41.696Z</time></trkpt><trkpt lat="37.1709965" lon="9.29982"><ele>123.33333333333334</ele><time>2026-05-02T14:27:42.691Z</time></trkpt><trkpt lat="37.171112" lon="9.2999313"><ele>122.66666666666666</ele><time>2026-05-02T14:27:43.699Z</time></trkpt><trkpt lat="37.1712303" lon="9.3000504"><ele>122.0</ele><time>2026-05-02T14:27:44.694Z</time></trkpt><trkpt lat="37.1713469" lon="9.3001756"><ele>122.0</ele><time>2026-05-02T14:27:45.682Z</time></trkpt><trkpt lat="37.1714644" lon="9.300306"><ele>122.0</ele><time>2026-05-02T14:27:46.716Z</time></trkpt><trkpt lat="37.1715812" lon="9.3004455"><ele>122.0</ele><time>2026-05-02T14:27:47.693Z</time></trkpt><trkpt lat="37.171694" lon="9.3005935"><ele>120.0</ele><time>2026-05-02T14:27:48.697Z</time></trkpt><trkpt lat="37.1718057" lon="9.3007469"><ele>118.0</ele><time>2026-05-02T14:27:49.679Z</time></trkpt><trkpt lat="37.1719165" lon="9.3009069"><ele>116.0</ele><time>2026-05-02T14:27:50.703Z</time></trkpt><trkpt lat="37.1720213" lon="9.3010709"><ele>116.0</ele><time>2026-05-02T14:27:51.698Z</time></trkpt><trkpt lat="37.1721264" lon="9.3012359"><ele>116.0</ele><time>2026-05-02T14:27:52.695Z</time></trkpt><trkpt lat="37.1722278" lon="9.3014008"><ele>116.0</ele><time>2026-05-02T14:27:53.7Z</time></trkpt><trkpt lat="37.1723293" lon="9.3015619"><ele>114.33333333333333</ele><time>2026-05-02T14:27:54.693Z</time></trkpt><trkpt lat="37.1724283" lon="9.3017244"><ele>112.66666666666666</ele><time>2026-05-02T14:27:55.728Z</time></trkpt><trkpt lat="37.172528" lon="9.301886"><ele>111.0</ele><time>2026-05-02T14:27:56.688Z</time></trkpt><trkpt lat="37.1726259" lon="9.3020444"><ele>111.0</ele><time>2026-05-02T14:27:57.716Z</time></trkpt><trkpt lat="37.1727195" lon="9.3021966"><ele>111.0</ele><time>2026-05-02T14:27:58.7Z</time></trkpt><trkpt lat="37.1728149" lon="9.3023478"><ele>111.0</ele><time>2026-05-02T14:27:59.685Z</time></trkpt><trkpt lat="37.1729133" lon="9.3025041"><ele>110.33333333333334</ele><time>2026-05-02T14:28:00.714Z</time></trkpt><trkpt lat="37.1730131" lon="9.3026607"><ele>109.66666666666667</ele><time>2026-05-02T14:28:01.719Z</time></trkpt><trkpt lat="37.1731148" lon="9.30282"><ele>109.0</ele><time>2026-05-02T14:28:02.707Z</time></trkpt><trkpt lat="37.1732133" lon="9.3029815"><ele>107.66666666666667</ele><time>2026-05-02T14:28:03.687Z</time></trkpt><trkpt lat="37.1733124" lon="9.3031442"><ele>106.33333333333334</ele><time>2026-05-02T14:28:04.69Z</time></trkpt><trkpt lat="37.1734133" lon="9.3033052"><ele>105.0</ele><time>2026-05-02T14:28:05.7Z</time></trkpt><trkpt lat="37.1735141" lon="9.3034646"><ele>105.0</ele><time>2026-05-02T14:28:06.697Z</time></trkpt><trkpt lat="37.173615" lon="9.3036285"><ele>105.0</ele><time>2026-05-02T14:28:07.705Z</time></trkpt><trkpt lat="37.1737174" lon="9.3037912"><ele>105.0</ele><time>2026-05-02T14:28:08.696Z</time></trkpt><trkpt lat="37.1738203" lon="9.3039585"><ele>105.66666666666666</ele><time>2026-05-02T14:28:09.698Z</time></trkpt><trkpt lat="37.1739268" lon="9.3041246"><ele>106.33333333333333</ele><time>2026-05-02T14:28:10.702Z</time></trkpt><trkpt lat="37.1740369" lon="9.3042902"><ele>107.0</ele><time>2026-05-02T14:28:11.703Z</time></trkpt><trkpt lat="37.1741472" lon="9.30446"><ele>107.0</ele><time>2026-05-02T14:28:12.7Z</time></trkpt><trkpt lat="37.1742585" lon="9.3046326"><ele>107.0</ele><time>2026-05-02T14:28:13.698Z</time></trkpt><trkpt lat="37.174368" lon="9.3048101"><ele>107.0</ele><time>2026-05-02T14:28:14.692Z</time></trkpt><trkpt lat="37.1744803" lon="9.3049899"><ele>105.66666666666666</ele><time>2026-05-02T14:28:15.684Z</time></trkpt><trkpt lat="37.174595" lon="9.3051718"><ele>104.33333333333334</ele><time>2026-05-02T14:28:16.695Z</time></trkpt><trkpt lat="37.1747135" lon="9.3053588"><ele>103.0</ele><time>2026-05-02T14:28:17.703Z</time></trkpt><trkpt lat="37.1748312" lon="9.3055413"><ele>102.66666666666667</ele><time>2026-05-02T14:28:18.696Z</time></trkpt><trkpt lat="37.1749537" lon="9.3057335"><ele>102.33333333333334</ele><time>2026-05-02T14:28:19.695Z</time></trkpt><trkpt lat="37.1750724" lon="9.3059251"><ele>102.0</ele><time>2026-05-02T14:28:20.696Z</time></trkpt><trkpt lat="37.1751921" lon="9.3061181"><ele>102.0</ele><time>2026-05-02T14:28:21.707Z</time></trkpt><trkpt lat="37.1753095" lon="9.3063085"><ele>102.0</ele><time>2026-05-02T14:28:22.701Z</time></trkpt><trkpt lat="37.1754293" lon="9.3064972"><ele>102.0</ele><time>2026-05-02T14:28:23.711Z</time></trkpt><trkpt lat="37.175547" lon="9.3066835"><ele>101.0</ele><time>2026-05-02T14:28:24.694Z</time></trkpt><trkpt lat="37.1756629" lon="9.3068701"><ele>100.0</ele><time>2026-05-02T14:28:25.7Z</time></trkpt><trkpt lat="37.1757769" lon="9.3070563"><ele>99.0</ele><time>2026-05-02T14:28:26.701Z</time></trkpt><trkpt lat="37.1758901" lon="9.3072408"><ele>98.33333333333334</ele><time>2026-05-02T14:28:27.693Z</time></trkpt><trkpt lat="37.1759987" lon="9.3074287"><ele>97.66666666666667</ele><time>2026-05-02T14:28:28.692Z</time></trkpt><trkpt lat="37.1761008" lon="9.3076192"><ele>97.0</ele><time>2026-05-02T14:28:29.709Z</time></trkpt><trkpt lat="37.1761973" lon="9.3078194"><ele>97.0</ele><time>2026-05-02T14:28:30.694Z</time></trkpt><trkpt lat="37.1762878" lon="9.3080176"><ele>97.0</ele><time>2026-05-02T14:28:31.697Z</time></trkpt><trkpt lat="37.1763717" lon="9.3082222"><ele>97.0</ele><time>2026-05-02T14:28:32.698Z</time></trkpt><trkpt lat="37.1764458" lon="9.3084302"><ele>95.66666666666667</ele><time>2026-05-02T14:28:33.703Z</time></trkpt><trkpt lat="37.1765135" lon="9.3086443"><ele>94.33333333333334</ele><time>2026-05-02T14:28:34.698Z</time></trkpt><trkpt lat="37.1765729" lon="9.3088609"><ele>93.0</ele><time>2026-05-02T14:28:35.692Z</time></trkpt><trkpt lat="37.1766254" lon="9.3090785"><ele>92.33333333333333</ele><time>2026-05-02T14:28:36.696Z</time></trkpt><trkpt lat="37.1766767" lon="9.309291"><ele>91.66666666666666</ele><time>2026-05-02T14:28:37.704Z</time></trkpt><trkpt lat="37.1767286" lon="9.3094919"><ele>91.0</ele><time>2026-05-02T14:28:38.694Z</time></trkpt><trkpt lat="37.1767915" lon="9.309682"><ele>92.0</ele><time>2026-05-02T14:28:39.702Z</time></trkpt><trkpt lat="37.1768638" lon="9.3098642"><ele>93.0</ele><time>2026-05-02T14:28:40.719Z</time></trkpt><trkpt lat="37.1769484" lon="9.3100445"><ele>94.0</ele><time>2026-05-02T14:28:41.713Z</time></trkpt><trkpt lat="37.1770447" lon="9.3102181"><ele>94.0</ele><time>2026-05-02T14:28:42.707Z</time></trkpt><trkpt lat="37.1771524" lon="9.3103753"><ele>94.0</ele><time>2026-05-02T14:28:43.729Z</time></trkpt><trkpt lat="37.1772747" lon="9.3105147"><ele>94.0</ele><time>2026-05-02T14:28:44.7Z</time></trkpt><trkpt lat="37.1774031" lon="9.3106522"><ele>94.33333333333333</ele><time>2026-05-02T14:28:45.705Z</time></trkpt><trkpt lat="37.1775398" lon="9.3107817"><ele>94.66666666666667</ele><time>2026-05-02T14:28:46.71Z</time></trkpt><trkpt lat="37.1776803" lon="9.3108998"><ele>95.0</ele><time>2026-05-02T14:28:47.704Z</time></trkpt><trkpt lat="37.1778233" lon="9.3110139"><ele>95.0</ele><time>2026-05-02T14:28:48.697Z</time></trkpt><trkpt lat="37.1779703" lon="9.3111282"><ele>95.0</ele><time>2026-05-02T14:28:49.685Z</time></trkpt><trkpt lat="37.1781207" lon="9.3112377"><ele>95.0</ele><time>2026-05-02T14:28:50.693Z</time></trkpt><trkpt lat="37.1782724" lon="9.311352"><ele>95.0</ele><time>2026-05-02T14:28:51.697Z</time></trkpt><trkpt lat="37.1784295" lon="9.311466"><ele>95.0</ele><time>2026-05-02T14:28:52.703Z</time></trkpt><trkpt lat="37.1785882" lon="9.3115811"><ele>95.0</ele><time>2026-05-02T14:28:53.708Z</time></trkpt><trkpt lat="37.1787479" lon="9.3116983"><ele>95.0</ele><time>2026-05-02T14:28:54.697Z</time></trkpt><trkpt lat="37.1789084" lon="9.311814"><ele>95.0</ele><time>2026-05-02T14:28:55.702Z</time></trkpt><trkpt lat="37.1790661" lon="9.3119308"><ele>95.0</ele><time>2026-05-02T14:28:56.706Z</time></trkpt><trkpt lat="37.1792211" lon="9.3120477"><ele>94.33333333333334</ele><time>2026-05-02T14:28:57.697Z</time></trkpt><trkpt lat="37.1793705" lon="9.3121699"><ele>93.66666666666667</ele><time>2026-05-02T14:28:58.701Z</time></trkpt><trkpt lat="37.1795084" lon="9.3123052"><ele>93.0</ele><time>2026-05-02T14:28:59.694Z</time></trkpt><trkpt lat="37.1796361" lon="9.3124574"><ele>94.66666666666666</ele><time>2026-05-02T14:29:00.696Z</time></trkpt><trkpt lat="37.1797516" lon="9.3126251"><ele>96.33333333333333</ele><time>2026-05-02T14:29:01.707Z</time></trkpt><trkpt lat="37.1798539" lon="9.3128041"><ele>98.0</ele><time>2026-05-02T14:29:02.693Z</time></trkpt><trkpt lat="37.1799432" lon="9.3129961"><ele>98.33333333333333</ele><time>2026-05-02T14:29:03.703Z</time></trkpt><trkpt lat="37.1800238" lon="9.3131996"><ele>98.66666666666666</ele><time>2026-05-02T14:29:04.704Z</time></trkpt><trkpt lat="37.1800954" lon="9.3134122"><ele>99.0</ele><time>2026-05-02T14:29:05.696Z</time></trkpt><trkpt lat="37.1801581" lon="9.3136371"><ele>99.0</ele><time>2026-05-02T14:29:06.702Z</time></trkpt><trkpt lat="37.1802121" lon="9.313865"><ele>99.0</ele><time>2026-05-02T14:29:07.703Z</time></trkpt><trkpt lat="37.1802591" lon="9.3140955"><ele>99.0</ele><time>2026-05-02T14:29:08.702Z</time></trkpt><trkpt lat="37.1803028" lon="9.3143292"><ele>98.66666666666666</ele><time>2026-05-02T14:29:09.68Z</time></trkpt><trkpt lat="37.1803448" lon="9.3145637"><ele>98.33333333333333</ele><time>2026-05-02T14:29:10.704Z</time></trkpt><trkpt lat="37.180389" lon="9.3148001"><ele>98.0</ele><time>2026-05-02T14:29:11.699Z</time></trkpt><trkpt lat="37.1804338" lon="9.3150359"><ele>98.0</ele><time>2026-05-02T14:29:12.701Z</time></trkpt><trkpt lat="37.1804803" lon="9.3152742"><ele>98.0</ele><time>2026-05-02T14:29:13.705Z</time></trkpt><trkpt lat="37.180525" lon="9.3155121"><ele>98.0</ele><time>2026-05-02T14:29:14.694Z</time></trkpt><trkpt lat="37.1805747" lon="9.3157543"><ele>97.66666666666666</ele><time>2026-05-02T14:29:15.704Z</time></trkpt><trkpt lat="37.1806248" lon="9.3159933"><ele>97.33333333333334</ele><time>2026-05-02T14:29:16.703Z</time></trkpt><trkpt lat="37.1806809" lon="9.3162355"><ele>97.0</ele><time>2026-05-02T14:29:17.712Z</time></trkpt><trkpt lat="37.1807423" lon="9.3164746"><ele>94.33333333333334</ele><time>2026-05-02T14:29:18.693Z</time></trkpt><trkpt lat="37.180815" lon="9.3167109"><ele>91.66666666666667</ele><time>2026-05-02T14:29:19.696Z</time></trkpt><trkpt lat="37.1808977" lon="9.3169403"><ele>89.0</ele><time>2026-05-02T14:29:20.689Z</time></trkpt><trkpt lat="37.1809912" lon="9.3171662"><ele>89.0</ele><time>2026-05-02T14:29:21.703Z</time></trkpt><trkpt lat="37.1810853" lon="9.317392"><ele>89.0</ele><time>2026-05-02T14:29:22.707Z</time></trkpt><trkpt lat="37.1811819" lon="9.3176169"><ele>89.0</ele><time>2026-05-02T14:29:23.708Z</time></trkpt><trkpt lat="37.1812781" lon="9.3178411"><ele>89.0</ele><time>2026-05-02T14:29:24.704Z</time></trkpt><trkpt lat="37.1813759" lon="9.3180634"><ele>89.0</ele><time>2026-05-02T14:29:25.699Z</time></trkpt><trkpt lat="37.1814708" lon="9.3182895"><ele>89.0</ele><time>2026-05-02T14:29:26.7Z</time></trkpt><trkpt lat="37.181565" lon="9.3185135"><ele>85.66666666666667</ele><time>2026-05-02T14:29:27.696Z</time></trkpt><trkpt lat="37.1816592" lon="9.3187352"><ele>82.33333333333333</ele><time>2026-05-02T14:29:28.69Z</time></trkpt><trkpt lat="37.1817582" lon="9.3189554"><ele>79.0</ele><time>2026-05-02T14:29:29.699Z</time></trkpt><trkpt lat="37.1818615" lon="9.3191771"><ele>79.0</ele><time>2026-05-02T14:29:30.705Z</time></trkpt><trkpt lat="37.1819724" lon="9.3194006"><ele>79.0</ele><time>2026-05-02T14:29:31.696Z</time></trkpt><trkpt lat="37.182088" lon="9.3196248"><ele>79.0</ele><time>2026-05-02T14:29:32.692Z</time></trkpt><trkpt lat="37.1822077" lon="9.3198484"><ele>78.66666666666666</ele><time>2026-05-02T14:29:33.693Z</time></trkpt><trkpt lat="37.1823281" lon="9.3200686"><ele>78.33333333333333</ele><time>2026-05-02T14:29:34.693Z</time></trkpt><trkpt lat="37.1824506" lon="9.3202872"><ele>78.0</ele><time>2026-05-02T14:29:35.691Z</time></trkpt><trkpt lat="37.182575" lon="9.3205035"><ele>76.0</ele><time>2026-05-02T14:29:36.698Z</time></trkpt><trkpt lat="37.1827" lon="9.3207222"><ele>74.0</ele><time>2026-05-02T14:29:37.695Z</time></trkpt><trkpt lat="37.1828239" lon="9.3209388"><ele>72.0</ele><time>2026-05-02T14:29:38.705Z</time></trkpt><trkpt lat="37.1829485" lon="9.3211582"><ele>72.0</ele><time>2026-05-02T14:29:39.695Z</time></trkpt><trkpt lat="37.1830726" lon="9.3213734"><ele>72.0</ele><time>2026-05-02T14:29:40.706Z</time></trkpt><trkpt lat="37.1831967" lon="9.3215894"><ele>72.0</ele><time>2026-05-02T14:29:41.689Z</time></trkpt><trkpt lat="37.1833196" lon="9.321805"><ele>71.33333333333333</ele><time>2026-05-02T14:29:42.705Z</time></trkpt><trkpt lat="37.1834439" lon="9.3220218"><ele>70.66666666666666</ele><time>2026-05-02T14:29:43.692Z</time></trkpt><trkpt lat="37.1835695" lon="9.3222362"><ele>70.0</ele><time>2026-05-02T14:29:44.698Z</time></trkpt><trkpt lat="37.183696" lon="9.3224499"><ele>69.66666666666666</ele><time>2026-05-02T14:29:45.693Z</time></trkpt><trkpt lat="37.1838227" lon="9.3226643"><ele>69.33333333333333</ele><time>2026-05-02T14:29:46.7Z</time></trkpt><trkpt lat="37.1839491" lon="9.3228783"><ele>69.0</ele><time>2026-05-02T14:29:47.702Z</time></trkpt><trkpt lat="37.1840766" lon="9.3230929"><ele>68.33333333333333</ele><time>2026-05-02T14:29:48.701Z</time></trkpt><trkpt lat="37.1842014" lon="9.3233071"><ele>67.66666666666666</ele><time>2026-05-02T14:29:49.698Z</time></trkpt><trkpt lat="37.1843233" lon="9.3235036"><ele>67.0</ele><time>2026-05-02T14:29:50.703Z</time></trkpt><trkpt lat="37.1844336" lon="9.3236923"><ele>67.0</ele><time>2026-05-02T14:29:51.687Z</time></trkpt><trkpt lat="37.1845384" lon="9.3238729"><ele>67.0</ele><time>2026-05-02T14:29:52.707Z</time></trkpt><trkpt lat="37.1846395" lon="9.32405"><ele>67.0</ele><time>2026-05-02T14:29:53.686Z</time></trkpt><trkpt lat="37.18474" lon="9.3242253"><ele>67.33333333333333</ele><time>2026-05-02T14:29:54.689Z</time></trkpt><trkpt lat="37.1848438" lon="9.3244064"><ele>67.66666666666667</ele><time>2026-05-02T14:29:55.694Z</time></trkpt><trkpt lat="37.1849482" lon="9.324586"><ele>68.0</ele><time>2026-05-02T14:29:56.713Z</time></trkpt><trkpt lat="37.1850535" lon="9.3247649"><ele>67.0</ele><time>2026-05-02T14:29:57.722Z</time></trkpt><trkpt lat="37.1851574" lon="9.3249422"><ele>66.0</ele><time>2026-05-02T14:29:58.706Z</time></trkpt><trkpt lat="37.1852629" lon="9.3251187"><ele>65.0</ele><time>2026-05-02T14:29:59.699Z</time></trkpt><trkpt lat="37.1853657" lon="9.3252973"><ele>65.0</ele><time>2026-05-02T14:30:00.7Z</time></trkpt><trkpt lat="37.1854713" lon="9.325474"><ele>65.0</ele><time>2026-05-02T14:30:01.711Z</time></trkpt><trkpt lat="37.1855736" lon="9.3256528"><ele>65.0</ele><time>2026-05-02T14:30:02.698Z</time></trkpt><trkpt lat="37.1856803" lon="9.3258267"><ele>65.66666666666667</ele><time>2026-05-02T14:30:03.698Z</time></trkpt><trkpt lat="37.1857897" lon="9.3259997"><ele>66.33333333333333</ele><time>2026-05-02T14:30:04.702Z</time></trkpt><trkpt lat="37.1859051" lon="9.3261706"><ele>67.0</ele><time>2026-05-02T14:30:05.699Z</time></trkpt><trkpt lat="37.1860259" lon="9.326345"><ele>65.66666666666666</ele><time>2026-05-02T14:30:06.698Z</time></trkpt><trkpt lat="37.186153" lon="9.3265203"><ele>64.33333333333333</ele><time>2026-05-02T14:30:07.706Z</time></trkpt><trkpt lat="37.1862832" lon="9.3266976"><ele>63.0</ele><time>2026-05-02T14:30:08.708Z</time></trkpt><trkpt lat="37.1864141" lon="9.3268726"><ele>62.66666666666667</ele><time>2026-05-02T14:30:09.709Z</time></trkpt><trkpt lat="37.1865415" lon="9.3270456"><ele>62.333333333333336</ele><time>2026-05-02T14:30:10.703Z</time></trkpt><trkpt lat="37.1866717" lon="9.327216"><ele>62.0</ele><time>2026-05-02T14:30:11.695Z</time></trkpt><trkpt lat="37.1868027" lon="9.3273846"><ele>62.0</ele><time>2026-05-02T14:30:12.686Z</time></trkpt><trkpt lat="37.1869322" lon="9.3275503"><ele>62.0</ele><time>2026-05-02T14:30:13.698Z</time></trkpt><trkpt lat="37.1870606" lon="9.3277184"><ele>62.0</ele><time>2026-05-02T14:30:14.708Z</time></trkpt><trkpt lat="37.1871908" lon="9.3278857"><ele>62.0</ele><time>2026-05-02T14:30:15.694Z</time></trkpt><trkpt lat="37.1873236" lon="9.3280513"><ele>62.0</ele><time>2026-05-02T14:30:16.702Z</time></trkpt><trkpt lat="37.1874567" lon="9.3282182"><ele>62.0</ele><time>2026-05-02T14:30:17.679Z</time></trkpt><trkpt lat="37.1875908" lon="9.3283827"><ele>62.66666666666667</ele><time>2026-05-02T14:30:18.708Z</time></trkpt><trkpt lat="37.1877255" lon="9.328545"><ele>63.33333333333333</ele><time>2026-05-02T14:30:19.691Z</time></trkpt><trkpt lat="37.1878625" lon="9.3287053"><ele>64.0</ele><time>2026-05-02T14:30:20.706Z</time></trkpt><trkpt lat="37.1880015" lon="9.328864"><ele>64.33333333333333</ele><time>2026-05-02T14:30:21.697Z</time></trkpt><trkpt lat="37.1881414" lon="9.3290152"><ele>64.66666666666667</ele><time>2026-05-02T14:30:22.706Z</time></trkpt><trkpt lat="37.1882821" lon="9.3291697"><ele>65.0</ele><time>2026-05-02T14:30:23.698Z</time></trkpt><trkpt lat="37.188424" lon="9.3293244"><ele>65.0</ele><time>2026-05-02T14:30:24.701Z</time></trkpt><trkpt lat="37.1885665" lon="9.3294753"><ele>65.0</ele><time>2026-05-02T14:30:25.698Z</time></trkpt><trkpt lat="37.1887096" lon="9.3296274"><ele>65.0</ele><time>2026-05-02T14:30:26.704Z</time></trkpt><trkpt lat="37.1888535" lon="9.3297835"><ele>64.33333333333334</ele><time>2026-05-02T14:30:27.703Z</time></trkpt><trkpt lat="37.1889955" lon="9.3299375"><ele>63.66666666666667</ele><time>2026-05-02T14:30:28.706Z</time></trkpt><trkpt lat="37.1891381" lon="9.3300896"><ele>63.0</ele><time>2026-05-02T14:30:29.71Z</time></trkpt><trkpt lat="37.1892851" lon="9.3302376"><ele>63.0</ele><time>2026-05-02T14:30:30.706Z</time></trkpt><trkpt lat="37.1894364" lon="9.3303779"><ele>63.0</ele><time>2026-05-02T14:30:31.699Z</time></trkpt><trkpt lat="37.189591" lon="9.3305093"><ele>63.0</ele><time>2026-05-02T14:30:32.69Z</time></trkpt><trkpt lat="37.189753" lon="9.3306273"><ele>63.0</ele><time>2026-05-02T14:30:33.695Z</time></trkpt><trkpt lat="37.18992" lon="9.3307296"><ele>63.0</ele><time>2026-05-02T14:30:34.704Z</time></trkpt><trkpt lat="37.1900949" lon="9.3308123"><ele>63.0</ele><time>2026-05-02T14:30:35.703Z</time></trkpt><trkpt lat="37.1902734" lon="9.3308731"><ele>63.0</ele><time>2026-05-02T14:30:36.698Z</time></trkpt><trkpt lat="37.1904555" lon="9.3309153"><ele>63.0</ele><time>2026-05-02T14:30:37.698Z</time></trkpt><trkpt lat="37.1906428" lon="9.3309377"><ele>63.0</ele><time>2026-05-02T14:30:38.701Z</time></trkpt><trkpt lat="37.1908276" lon="9.3309478"><ele>63.0</ele><time>2026-05-02T14:30:39.703Z</time></trkpt><trkpt lat="37.1909872" lon="9.3309437"><ele>63.0</ele><time>2026-05-02T14:30:40.713Z</time></trkpt><trkpt lat="37.1911018" lon="9.3309288"><ele>63.0</ele><time>2026-05-02T14:30:41.698Z</time></trkpt><trkpt lat="37.1912014" lon="9.3309182"><ele>63.0</ele><time>2026-05-02T14:30:42.69Z</time></trkpt><trkpt lat="37.1912716" lon="9.3309045"><ele>63.0</ele><time>2026-05-02T14:30:43.701Z</time></trkpt><trkpt lat="37.1913794" lon="9.3308929"><ele>63.0</ele><time>2026-05-02T14:30:45.7Z</time></trkpt><trkpt lat="37.1914503" lon="9.330897"><ele>63.0</ele><time>2026-05-02T14:30:48.703Z</time></trkpt><trkpt lat="37.1915274" lon="9.3308642"><ele>63.0</ele><time>2026-05-02T14:32:20.7Z</time></trkpt><trkpt lat="37.1916159" lon="9.3308225"><ele>63.0</ele><time>2026-05-02T14:32:22.698Z</time></trkpt><trkpt lat="37.1917283" lon="9.3307691"><ele>63.0</ele><time>2026-05-02T14:32:24.702Z</time></trkpt><trkpt lat="37.1917996" lon="9.3307332"><ele>63.0</ele><time>2026-05-02T14:32:25.698Z</time></trkpt><trkpt lat="37.1918697" lon="9.3306963"><ele>62.833333333333336</ele><time>2026-05-02T14:32:26.705Z</time></trkpt><trkpt lat="37.1919451" lon="9.3306577"><ele>62.66666666666667</ele><time>2026-05-02T14:32:27.696Z</time></trkpt><trkpt lat="37.1920253" lon="9.3306119"><ele>62.5</ele><time>2026-05-02T14:32:28.697Z</time></trkpt><trkpt lat="37.1921033" lon="9.3305684"><ele>62.333333333333336</ele><time>2026-05-02T14:32:29.698Z</time></trkpt><trkpt lat="37.1921837" lon="9.3305231"><ele>62.16666666666667</ele><time>2026-05-02T14:32:30.695Z</time></trkpt><trkpt lat="37.1922718" lon="9.3304751"><ele>62.0</ele><time>2026-05-02T14:32:31.696Z</time></trkpt><trkpt lat="37.1923745" lon="9.3304217"><ele>61.75</ele><time>2026-05-02T14:32:32.688Z</time></trkpt><trkpt lat="37.1924887" lon="9.3303642"><ele>61.5</ele><time>2026-05-02T14:32:33.701Z</time></trkpt><trkpt lat="37.192612" lon="9.3303015"><ele>61.25</ele><time>2026-05-02T14:32:34.682Z</time></trkpt><trkpt lat="37.1927422" lon="9.3302379"><ele>61.0</ele><time>2026-05-02T14:32:35.703Z</time></trkpt><trkpt lat="37.1928753" lon="9.330172"><ele>61.0</ele><time>2026-05-02T14:32:36.703Z</time></trkpt><trkpt lat="37.1930192" lon="9.3301154"><ele>61.0</ele><time>2026-05-02T14:32:37.693Z</time></trkpt><trkpt lat="37.193182" lon="9.3300741"><ele>61.0</ele><time>2026-05-02T14:32:38.685Z</time></trkpt><trkpt lat="37.1933552" lon="9.3300588"><ele>60.0</ele><time>2026-05-02T14:32:39.703Z</time></trkpt><trkpt lat="37.1935263" lon="9.3300579"><ele>59.0</ele><time>2026-05-02T14:32:40.705Z</time></trkpt><trkpt lat="37.1936935" lon="9.3300687"><ele>58.0</ele><time>2026-05-02T14:32:41.7Z</time></trkpt><trkpt lat="37.1938571" lon="9.3300825"><ele>57.33333333333333</ele><time>2026-05-02T14:32:42.696Z</time></trkpt><trkpt lat="37.1940151" lon="9.3300997"><ele>56.66666666666667</ele><time>2026-05-02T14:32:43.7Z</time></trkpt><trkpt lat="37.1941729" lon="9.330116"><ele>56.0</ele><time>2026-05-02T14:32:44.694Z</time></trkpt><trkpt lat="37.1943287" lon="9.3301325"><ele>56.0</ele><time>2026-05-02T14:32:45.698Z</time></trkpt><trkpt lat="37.1944824" lon="9.3301509"><ele>56.0</ele><time>2026-05-02T14:32:46.683Z</time></trkpt><trkpt lat="37.1946356" lon="9.3301724"><ele>56.0</ele><time>2026-05-02T14:32:47.689Z</time></trkpt><trkpt lat="37.1947875" lon="9.3301956"><ele>56.0</ele><time>2026-05-02T14:32:48.708Z</time></trkpt><trkpt lat="37.1949394" lon="9.330218"><ele>56.0</ele><time>2026-05-02T14:32:49.704Z</time></trkpt><trkpt lat="37.1950907" lon="9.3302446"><ele>56.0</ele><time>2026-05-02T14:32:50.698Z</time></trkpt><trkpt lat="37.1952427" lon="9.3302774"><ele>56.0</ele><time>2026-05-02T14:32:51.684Z</time></trkpt><trkpt lat="37.1954055" lon="9.3303181"><ele>56.0</ele><time>2026-05-02T14:32:52.704Z</time></trkpt><trkpt lat="37.1955654" lon="9.330364"><ele>56.0</ele><time>2026-05-02T14:32:53.688Z</time></trkpt><trkpt lat="37.1957333" lon="9.3304168"><ele>57.66666666666667</ele><time>2026-05-02T14:32:54.695Z</time></trkpt><trkpt lat="37.1959024" lon="9.3304716"><ele>59.33333333333333</ele><time>2026-05-02T14:32:55.726Z</time></trkpt><trkpt lat="37.196068" lon="9.3305355"><ele>61.0</ele><time>2026-05-02T14:32:56.701Z</time></trkpt><trkpt lat="37.1962293" lon="9.3306059"><ele>61.0</ele><time>2026-05-02T14:32:57.705Z</time></trkpt><trkpt lat="37.1963739" lon="9.3306743"><ele>61.0</ele><time>2026-05-02T14:32:58.695Z</time></trkpt><trkpt lat="37.1965" lon="9.3307364"><ele>61.0</ele><time>2026-05-02T14:32:59.699Z</time></trkpt><trkpt lat="37.1966014" lon="9.3307924"><ele>61.0</ele><time>2026-05-02T14:33:00.697Z</time></trkpt><trkpt lat="37.1966894" lon="9.3308409"><ele>61.83333333333333</ele><time>2026-05-02T14:33:01.695Z</time></trkpt><trkpt lat="37.1967538" lon="9.3308787"><ele>62.666666666666664</ele><time>2026-05-02T14:33:02.705Z</time></trkpt><trkpt lat="37.1968289" lon="9.3309229"><ele>63.5</ele><time>2026-05-02T14:33:04.69Z</time></trkpt><trkpt lat="37.1968849" lon="9.3309629"><ele>64.33333333333333</ele><time>2026-05-02T14:33:06.7Z</time></trkpt><trkpt lat="37.196956" lon="9.3310163"><ele>65.16666666666667</ele><time>2026-05-02T14:33:08.694Z</time></trkpt><trkpt lat="37.1970343" lon="9.3310711"><ele>66.0</ele><time>2026-05-02T14:33:10.693Z</time></trkpt><trkpt lat="37.1971213" lon="9.3311252"><ele>66.0</ele><time>2026-05-02T14:33:12.697Z</time></trkpt><trkpt lat="37.1972207" lon="9.3311906"><ele>66.0</ele><time>2026-05-02T14:33:14.686Z</time></trkpt><trkpt lat="37.1972761" lon="9.3312314"><ele>66.0</ele><time>2026-05-02T14:33:15.701Z</time></trkpt><trkpt lat="37.1973438" lon="9.3312792"><ele>66.0</ele><time>2026-05-02T14:33:16.704Z</time></trkpt><trkpt lat="37.1974458" lon="9.331355"><ele>66.0</ele><time>2026-05-02T14:33:17.7Z</time></trkpt><trkpt lat="37.1975878" lon="9.3314652"><ele>66.33333333333333</ele><time>2026-05-02T14:33:18.692Z</time></trkpt><trkpt lat="37.1977672" lon="9.3316141"><ele>66.66666666666666</ele><time>2026-05-02T14:33:19.693Z</time></trkpt><trkpt lat="37.1979569" lon="9.3317799"><ele>67.0</ele><time>2026-05-02T14:33:20.657Z</time></trkpt><trkpt lat="37.1981294" lon="9.3319507"><ele>66.66666666666666</ele><time>2026-05-02T14:33:21.641Z</time></trkpt><trkpt lat="37.1982751" lon="9.3321008"><ele>66.33333333333333</ele><time>2026-05-02T14:33:22.647Z</time></trkpt><trkpt lat="37.1984069" lon="9.3322474"><ele>66.0</ele><time>2026-05-02T14:33:23.627Z</time></trkpt><trkpt lat="37.1985241" lon="9.3323835"><ele>66.0</ele><time>2026-05-02T14:33:24.654Z</time></trkpt><trkpt lat="37.1986328" lon="9.3325166"><ele>66.0</ele><time>2026-05-02T14:33:25.648Z</time></trkpt><trkpt lat="37.198736" lon="9.3326468"><ele>66.0</ele><time>2026-05-02T14:33:26.644Z</time></trkpt><trkpt lat="37.1988398" lon="9.3327834"><ele>66.0</ele><time>2026-05-02T14:33:27.655Z</time></trkpt><trkpt lat="37.1989354" lon="9.3329226"><ele>66.5</ele><time>2026-05-02T14:33:28.642Z</time></trkpt><trkpt lat="37.1990301" lon="9.33306"><ele>67.0</ele><time>2026-05-02T14:33:29.651Z</time></trkpt><trkpt lat="37.1991132" lon="9.3331909"><ele>67.5</ele><time>2026-05-02T14:33:30.639Z</time></trkpt><trkpt lat="37.1991961" lon="9.3333229"><ele>68.0</ele><time>2026-05-02T14:33:31.658Z</time></trkpt><trkpt lat="37.1992774" lon="9.3334476"><ele>68.0</ele><time>2026-05-02T14:33:32.653Z</time></trkpt><trkpt lat="37.1993574" lon="9.3335786"><ele>68.0</ele><time>2026-05-02T14:33:33.629Z</time></trkpt><trkpt lat="37.1994333" lon="9.3337244"><ele>68.0</ele><time>2026-05-02T14:33:34.642Z</time></trkpt><trkpt lat="37.1995078" lon="9.3338787"><ele>68.0</ele><time>2026-05-02T14:33:35.644Z</time></trkpt><trkpt lat="37.1995791" lon="9.3340308"><ele>67.75</ele><time>2026-05-02T14:33:36.65Z</time></trkpt><trkpt lat="37.1996454" lon="9.3341823"><ele>67.5</ele><time>2026-05-02T14:33:37.644Z</time></trkpt><trkpt lat="37.1997132" lon="9.3343359"><ele>67.25</ele><time>2026-05-02T14:33:38.653Z</time></trkpt><trkpt lat="37.1997814" lon="9.3344955"><ele>67.0</ele><time>2026-05-02T14:33:39.654Z</time></trkpt><trkpt lat="37.1998477" lon="9.3346612"><ele>67.0</ele><time>2026-05-02T14:33:40.65Z</time></trkpt><trkpt lat="37.1999115" lon="9.3348317"><ele>67.0</ele><time>2026-05-02T14:33:41.645Z</time></trkpt><trkpt lat="37.1999739" lon="9.3349982"><ele>67.0</ele><time>2026-05-02T14:33:42.639Z</time></trkpt><trkpt lat="37.2000409" lon="9.3351671"><ele>67.0</ele><time>2026-05-02T14:33:43.647Z</time></trkpt><trkpt lat="37.20011" lon="9.3353412"><ele>67.0</ele><time>2026-05-02T14:33:44.639Z</time></trkpt><trkpt lat="37.200177" lon="9.3355169"><ele>67.0</ele><time>2026-05-02T14:33:45.647Z</time></trkpt><trkpt lat="37.2002471" lon="9.3357034"><ele>67.0</ele><time>2026-05-02T14:33:46.635Z</time></trkpt><trkpt lat="37.2003189" lon="9.335901"><ele>67.33333333333333</ele><time>2026-05-02T14:33:47.645Z</time></trkpt><trkpt lat="37.2003942" lon="9.3360997"><ele>67.66666666666667</ele><time>2026-05-02T14:33:48.651Z</time></trkpt><trkpt lat="37.2004742" lon="9.3363063"><ele>68.0</ele><time>2026-05-02T14:33:49.65Z</time></trkpt><trkpt lat="37.2005572" lon="9.3365148"><ele>68.0</ele><time>2026-05-02T14:33:50.64Z</time></trkpt><trkpt lat="37.2006393" lon="9.3367235"><ele>68.0</ele><time>2026-05-02T14:33:51.642Z</time></trkpt><trkpt lat="37.2007173" lon="9.3369317"><ele>68.0</ele><time>2026-05-02T14:33:52.648Z</time></trkpt><trkpt lat="37.2007923" lon="9.3371424"><ele>68.33333333333334</ele><time>2026-05-02T14:33:53.651Z</time></trkpt><trkpt lat="37.2008634" lon="9.3373504"><ele>68.66666666666667</ele><time>2026-05-02T14:33:54.641Z</time></trkpt><trkpt lat="37.2009349" lon="9.3375518"><ele>69.0</ele><time>2026-05-02T14:33:55.644Z</time></trkpt><trkpt lat="37.2010041" lon="9.3377503"><ele>69.0</ele><time>2026-05-02T14:33:56.652Z</time></trkpt><trkpt lat="37.201068" lon="9.3379409"><ele>69.0</ele><time>2026-05-02T14:33:57.644Z</time></trkpt><trkpt lat="37.2011211" lon="9.3381294"><ele>69.0</ele><time>2026-05-02T14:33:58.645Z</time></trkpt><trkpt lat="37.201169" lon="9.3383284"><ele>69.0</ele><time>2026-05-02T14:33:59.659Z</time></trkpt><trkpt lat="37.2012169" lon="9.3385235"><ele>69.0</ele><time>2026-05-02T14:34:00.646Z</time></trkpt><trkpt lat="37.2012639" lon="9.3387164"><ele>69.0</ele><time>2026-05-02T14:34:01.644Z</time></trkpt><trkpt lat="37.201306" lon="9.3389117"><ele>69.0</ele><time>2026-05-02T14:34:02.645Z</time></trkpt><trkpt lat="37.2013437" lon="9.3391083"><ele>69.0</ele><time>2026-05-02T14:34:03.658Z</time></trkpt><trkpt lat="37.201373" lon="9.3393041"><ele>69.0</ele><time>2026-05-02T14:34:04.646Z</time></trkpt><trkpt lat="37.2014035" lon="9.3394972"><ele>69.0</ele><time>2026-05-02T14:34:05.642Z</time></trkpt><trkpt lat="37.2014243" lon="9.3396893"><ele>69.0</ele><time>2026-05-02T14:34:06.695Z</time></trkpt><trkpt lat="37.2014386" lon="9.339888"><ele>69.0</ele><time>2026-05-02T14:34:07.635Z</time></trkpt><trkpt lat="37.2014538" lon="9.3400852"><ele>68.66666666666667</ele><time>2026-05-02T14:34:08.641Z</time></trkpt><trkpt lat="37.2014656" lon="9.340284"><ele>68.33333333333334</ele><time>2026-05-02T14:34:09.639Z</time></trkpt><trkpt lat="37.2014742" lon="9.3404832"><ele>68.0</ele><time>2026-05-02T14:34:10.652Z</time></trkpt><trkpt lat="37.2014775" lon="9.3406778"><ele>68.66666666666667</ele><time>2026-05-02T14:34:11.644Z</time></trkpt><trkpt lat="37.2014761" lon="9.3408772"><ele>69.33333333333333</ele><time>2026-05-02T14:34:12.65Z</time></trkpt><trkpt lat="37.2014733" lon="9.3410752"><ele>70.0</ele><time>2026-05-02T14:34:13.641Z</time></trkpt><trkpt lat="37.2014667" lon="9.3412749"><ele>69.33333333333333</ele><time>2026-05-02T14:34:14.634Z</time></trkpt><trkpt lat="37.2014637" lon="9.3414702"><ele>68.66666666666667</ele><time>2026-05-02T14:34:15.654Z</time></trkpt><trkpt lat="37.2014576" lon="9.3416633"><ele>68.0</ele><time>2026-05-02T14:34:16.64Z</time></trkpt><trkpt lat="37.2014525" lon="9.3418628"><ele>68.0</ele><time>2026-05-02T14:34:17.639Z</time></trkpt><trkpt lat="37.2014472" lon="9.3420585"><ele>68.0</ele><time>2026-05-02T14:34:18.645Z</time></trkpt><trkpt lat="37.2014431" lon="9.3422625"><ele>68.0</ele><time>2026-05-02T14:34:19.632Z</time></trkpt><trkpt lat="37.2014381" lon="9.3424642"><ele>67.66666666666667</ele><time>2026-05-02T14:34:20.642Z</time></trkpt><trkpt lat="37.201435" lon="9.3426735"><ele>67.33333333333333</ele><time>2026-05-02T14:34:21.642Z</time></trkpt><trkpt lat="37.2014305" lon="9.3428832"><ele>67.0</ele><time>2026-05-02T14:34:22.656Z</time></trkpt><trkpt lat="37.2014229" lon="9.3430993"><ele>66.66666666666666</ele><time>2026-05-02T14:34:23.651Z</time></trkpt><trkpt lat="37.2014183" lon="9.3433199"><ele>66.33333333333333</ele><time>2026-05-02T14:34:24.653Z</time></trkpt><trkpt lat="37.2014138" lon="9.3435396"><ele>66.0</ele><time>2026-05-02T14:34:25.647Z</time></trkpt><trkpt lat="37.2014084" lon="9.3437599"><ele>66.0</ele><time>2026-05-02T14:34:26.645Z</time></trkpt><trkpt lat="37.2013995" lon="9.3439826"><ele>66.0</ele><time>2026-05-02T14:34:27.652Z</time></trkpt><trkpt lat="37.2013892" lon="9.3441965"><ele>66.0</ele><time>2026-05-02T14:34:28.642Z</time></trkpt><trkpt lat="37.2013744" lon="9.3444095"><ele>66.0</ele><time>2026-05-02T14:34:29.648Z</time></trkpt><trkpt lat="37.2013567" lon="9.3446249"><ele>66.0</ele><time>2026-05-02T14:34:30.643Z</time></trkpt><trkpt lat="37.2013385" lon="9.3448385"><ele>66.0</ele><time>2026-05-02T14:34:31.636Z</time></trkpt><trkpt lat="37.2013155" lon="9.3450579"><ele>65.33333333333333</ele><time>2026-05-02T14:34:32.653Z</time></trkpt><trkpt lat="37.2012852" lon="9.3452718"><ele>64.66666666666666</ele><time>2026-05-02T14:34:33.653Z</time></trkpt><trkpt lat="37.201252" lon="9.3454903"><ele>64.0</ele><time>2026-05-02T14:34:34.641Z</time></trkpt><trkpt lat="37.2012163" lon="9.3457064"><ele>63.33333333333333</ele><time>2026-05-02T14:34:35.656Z</time></trkpt><trkpt lat="37.2011818" lon="9.3459219"><ele>62.66666666666667</ele><time>2026-05-02T14:34:36.644Z</time></trkpt><trkpt lat="37.2011477" lon="9.3461395"><ele>62.0</ele><time>2026-05-02T14:34:37.649Z</time></trkpt><trkpt lat="37.20111" lon="9.3463583"><ele>61.66666666666667</ele><time>2026-05-02T14:34:38.638Z</time></trkpt><trkpt lat="37.2010709" lon="9.3465693"><ele>61.33333333333333</ele><time>2026-05-02T14:34:39.644Z</time></trkpt><trkpt lat="37.2010251" lon="9.3467763"><ele>61.0</ele><time>2026-05-02T14:34:40.649Z</time></trkpt><trkpt lat="37.2009785" lon="9.3469817"><ele>61.0</ele><time>2026-05-02T14:34:41.65Z</time></trkpt><trkpt lat="37.2009305" lon="9.3471839"><ele>61.0</ele><time>2026-05-02T14:34:42.647Z</time></trkpt><trkpt lat="37.2008823" lon="9.3473735"><ele>61.0</ele><time>2026-05-02T14:34:43.666Z</time></trkpt><trkpt lat="37.2008316" lon="9.3475575"><ele>61.25</ele><time>2026-05-02T14:34:44.645Z</time></trkpt><trkpt lat="37.200784" lon="9.3477357"><ele>61.5</ele><time>2026-05-02T14:34:45.65Z</time></trkpt><trkpt lat="37.2007376" lon="9.3479063"><ele>61.75</ele><time>2026-05-02T14:34:46.641Z</time></trkpt><trkpt lat="37.2006926" lon="9.3480682"><ele>62.0</ele><time>2026-05-02T14:34:47.643Z</time></trkpt><trkpt lat="37.2006435" lon="9.348215"><ele>61.5</ele><time>2026-05-02T14:34:48.649Z</time></trkpt><trkpt lat="37.2005925" lon="9.3483631"><ele>61.0</ele><time>2026-05-02T14:34:49.645Z</time></trkpt><trkpt lat="37.2005399" lon="9.3485169"><ele>60.5</ele><time>2026-05-02T14:34:50.642Z</time></trkpt><trkpt lat="37.2004867" lon="9.348671"><ele>60.0</ele><time>2026-05-02T14:34:51.642Z</time></trkpt><trkpt lat="37.2004332" lon="9.3488202"><ele>59.75</ele><time>2026-05-02T14:34:52.652Z</time></trkpt><trkpt lat="37.2003801" lon="9.3489774"><ele>59.5</ele><time>2026-05-02T14:34:53.66Z</time></trkpt><trkpt lat="37.2003324" lon="9.349127"><ele>59.25</ele><time>2026-05-02T14:34:54.637Z</time></trkpt><trkpt lat="37.2002863" lon="9.3492796"><ele>59.0</ele><time>2026-05-02T14:34:55.649Z</time></trkpt><trkpt lat="37.2002415" lon="9.3494337"><ele>59.0</ele><time>2026-05-02T14:34:56.647Z</time></trkpt><trkpt lat="37.2001911" lon="9.3495891"><ele>59.0</ele><time>2026-05-02T14:34:57.64Z</time></trkpt><trkpt lat="37.2001416" lon="9.3497423"><ele>59.0</ele><time>2026-05-02T14:34:58.648Z</time></trkpt><trkpt lat="37.2000913" lon="9.3498857"><ele>59.0</ele><time>2026-05-02T14:34:59.656Z</time></trkpt><trkpt lat="37.2000464" lon="9.3500131"><ele>59.333333333333336</ele><time>2026-05-02T14:35:00.645Z</time></trkpt><trkpt lat="37.200009" lon="9.3501148"><ele>59.66666666666667</ele><time>2026-05-02T14:35:01.647Z</time></trkpt><trkpt lat="37.1999773" lon="9.3501872"><ele>60.0</ele><time>2026-05-02T14:35:02.65Z</time></trkpt><trkpt lat="37.1999412" lon="9.3502717"><ele>60.33333333333333</ele><time>2026-05-02T14:35:04.645Z</time></trkpt><trkpt lat="37.1999102" lon="9.350354"><ele>60.666666666666664</ele><time>2026-05-02T14:36:00.649Z</time></trkpt><trkpt lat="37.1998879" lon="9.3504652"><ele>61.0</ele><time>2026-05-02T14:36:02.667Z</time></trkpt><trkpt lat="37.1998528" lon="9.3505884"><ele>60.49999999999999</ele><time>2026-05-02T14:36:04.632Z</time></trkpt><trkpt lat="37.1998144" lon="9.3507289"><ele>60.0</ele><time>2026-05-02T14:36:06.635Z</time></trkpt><trkpt lat="37.1997896" lon="9.3508031"><ele>59.5</ele><time>2026-05-02T14:36:07.638Z</time></trkpt><trkpt lat="37.1997664" lon="9.3508798"><ele>59.0</ele><time>2026-05-02T14:36:08.64Z</time></trkpt><trkpt lat="37.1997436" lon="9.3509548"><ele>58.49999999999999</ele><time>2026-05-02T14:36:09.655Z</time></trkpt><trkpt lat="37.199701" lon="9.3510879"><ele>58.0</ele><time>2026-05-02T14:36:11.642Z</time></trkpt><trkpt lat="37.1996471" lon="9.3512222"><ele>58.0</ele><time>2026-05-02T14:36:13.653Z</time></trkpt><trkpt lat="37.1995946" lon="9.3513518"><ele>58.0</ele><time>2026-05-02T14:36:15.651Z</time></trkpt><trkpt lat="37.1995328" lon="9.3514987"><ele>58.0</ele><time>2026-05-02T14:36:17.644Z</time></trkpt><trkpt lat="37.199495" lon="9.351575"><ele>58.0</ele><time>2026-05-02T14:36:18.638Z</time></trkpt><trkpt lat="37.1994572" lon="9.3516528"><ele>58.0</ele><time>2026-05-02T14:36:19.652Z</time></trkpt><trkpt lat="37.1994218" lon="9.3517347"><ele>58.33333333333333</ele><time>2026-05-02T14:36:20.646Z</time></trkpt><trkpt lat="37.199386" lon="9.3518167"><ele>58.666666666666664</ele><time>2026-05-02T14:36:21.653Z</time></trkpt><trkpt lat="37.1993481" lon="9.3518931"><ele>59.0</ele><time>2026-05-02T14:36:22.637Z</time></trkpt><trkpt lat="37.1993144" lon="9.3519656"><ele>59.33333333333333</ele><time>2026-05-02T14:36:23.644Z</time></trkpt><trkpt lat="37.1992848" lon="9.3520365"><ele>59.666666666666664</ele><time>2026-05-02T14:36:24.64Z</time></trkpt><trkpt lat="37.1992191" lon="9.3521579"><ele>60.0</ele><time>2026-05-02T14:36:26.647Z</time></trkpt><trkpt lat="37.1991586" lon="9.3522795"><ele>60.0</ele><time>2026-05-02T14:36:28.653Z</time></trkpt><trkpt lat="37.1991074" lon="9.3523898"><ele>60.0</ele><time>2026-05-02T14:36:30.643Z</time></trkpt><trkpt lat="37.1990602" lon="9.3524646"><ele>60.0</ele><time>2026-05-02T14:36:32.641Z</time></trkpt><trkpt lat="37.1990278" lon="9.3525338"><ele>60.0</ele><time>2026-05-02T14:36:35.632Z</time></trkpt><trkpt lat="37.1990415" lon="9.3526293"><ele>60.0</ele><time>2026-05-02T14:36:39.636Z</time></trkpt><trkpt lat="37.1990962" lon="9.3526727"><ele>60.0</ele><time>2026-05-02T14:36:43.635Z</time></trkpt><trkpt lat="37.1991877" lon="9.352722"><ele>60.0</ele><time>2026-05-02T14:37:45.679Z</time></trkpt><trkpt lat="37.199283" lon="9.3528115"><ele>60.0</ele><time>2026-05-02T14:37:47.667Z</time></trkpt><trkpt lat="37.1993285" lon="9.3528713"><ele>60.0</ele><time>2026-05-02T14:37:48.676Z</time></trkpt><trkpt lat="37.1993682" lon="9.3529533"><ele>60.0</ele><time>2026-05-02T14:37:49.681Z</time></trkpt><trkpt lat="37.1993865" lon="9.3530462"><ele>60.0</ele><time>2026-05-02T14:37:50.664Z</time></trkpt><trkpt lat="37.1994008" lon="9.3531446"><ele>60.0</ele><time>2026-05-02T14:37:51.623Z</time></trkpt><trkpt lat="37.1994038" lon="9.3532414"><ele>59.833333333333336</ele><time>2026-05-02T14:37:52.677Z</time></trkpt><trkpt lat="37.1993979" lon="9.3533272"><ele>59.66666666666667</ele><time>2026-05-02T14:37:53.681Z</time></trkpt><trkpt lat="37.1993863" lon="9.3534051"><ele>59.5</ele><time>2026-05-02T14:37:54.688Z</time></trkpt><trkpt lat="37.1993677" lon="9.3535645"><ele>59.333333333333336</ele><time>2026-05-02T14:37:56.678Z</time></trkpt><trkpt lat="37.1993605" lon="9.3536709"><ele>59.16666666666667</ele><time>2026-05-02T14:37:57.688Z</time></trkpt><trkpt lat="37.1993512" lon="9.3537864"><ele>59.0</ele><time>2026-05-02T14:37:58.682Z</time></trkpt><trkpt lat="37.1993419" lon="9.3539129"><ele>58.75</ele><time>2026-05-02T14:37:59.674Z</time></trkpt><trkpt lat="37.199333" lon="9.354043"><ele>58.5</ele><time>2026-05-02T14:38:00.67Z</time></trkpt><trkpt lat="37.1993201" lon="9.3541878"><ele>58.25</ele><time>2026-05-02T14:38:01.736Z</time></trkpt><trkpt lat="37.1993055" lon="9.3543365"><ele>58.0</ele><time>2026-05-02T14:38:02.67Z</time></trkpt><trkpt lat="37.1992912" lon="9.354492"><ele>58.0</ele><time>2026-05-02T14:38:03.681Z</time></trkpt><trkpt lat="37.1992758" lon="9.3546521"><ele>58.0</ele><time>2026-05-02T14:38:04.67Z</time></trkpt><trkpt lat="37.1992612" lon="9.3548203"><ele>58.0</ele><time>2026-05-02T14:38:05.675Z</time></trkpt><trkpt lat="37.1992488" lon="9.3549896"><ele>58.0</ele><time>2026-05-02T14:38:06.67Z</time></trkpt><trkpt lat="37.1992449" lon="9.3551767"><ele>57.33333333333333</ele><time>2026-05-02T14:38:07.646Z</time></trkpt><trkpt lat="37.1992315" lon="9.3553776"><ele>56.66666666666667</ele><time>2026-05-02T14:38:08.664Z</time></trkpt><trkpt lat="37.1992167" lon="9.3555781"><ele>56.0</ele><time>2026-05-02T14:38:09.678Z</time></trkpt><trkpt lat="37.1992038" lon="9.3557755"><ele>56.0</ele><time>2026-05-02T14:38:10.666Z</time></trkpt><trkpt lat="37.1991926" lon="9.3559744"><ele>56.0</ele><time>2026-05-02T14:38:11.641Z</time></trkpt><trkpt lat="37.1991811" lon="9.356177"><ele>56.0</ele><time>2026-05-02T14:38:12.672Z</time></trkpt><trkpt lat="37.1991682" lon="9.3563798"><ele>56.0</ele><time>2026-05-02T14:38:13.669Z</time></trkpt><trkpt lat="37.1991565" lon="9.3565805"><ele>56.0</ele><time>2026-05-02T14:38:14.628Z</time></trkpt><trkpt lat="37.1991407" lon="9.3567797"><ele>56.0</ele><time>2026-05-02T14:38:15.617Z</time></trkpt><trkpt lat="37.1991233" lon="9.3569765"><ele>56.0</ele><time>2026-05-02T14:38:16.658Z</time></trkpt><trkpt lat="37.1991152" lon="9.3571637"><ele>56.0</ele><time>2026-05-02T14:38:17.625Z</time></trkpt><trkpt lat="37.1991032" lon="9.3573525"><ele>56.0</ele><time>2026-05-02T14:38:18.632Z</time></trkpt><trkpt lat="37.1990869" lon="9.3575129"><ele>56.0</ele><time>2026-05-02T14:38:19.63Z</time></trkpt><trkpt lat="37.1990708" lon="9.3576303"><ele>55.833333333333336</ele><time>2026-05-02T14:38:20.65Z</time></trkpt><trkpt lat="37.199063" lon="9.357717"><ele>55.66666666666667</ele><time>2026-05-02T14:38:21.631Z</time></trkpt><trkpt lat="37.1990496" lon="9.3578148"><ele>55.5</ele><time>2026-05-02T14:38:22.661Z</time></trkpt><trkpt lat="37.1990444" lon="9.3579209"><ele>55.33333333333333</ele><time>2026-05-02T14:38:23.648Z</time></trkpt><trkpt lat="37.1990462" lon="9.3580429"><ele>55.166666666666664</ele><time>2026-05-02T14:38:24.639Z</time></trkpt><trkpt lat="37.1990386" lon="9.3581737"><ele>55.0</ele><time>2026-05-02T14:38:25.675Z</time></trkpt><trkpt lat="37.199029" lon="9.3583129"><ele>54.75</ele><time>2026-05-02T14:38:26.663Z</time></trkpt><trkpt lat="37.1990158" lon="9.3584602"><ele>54.5</ele><time>2026-05-02T14:38:27.68Z</time></trkpt><trkpt lat="37.1990118" lon="9.3586079"><ele>54.25</ele><time>2026-05-02T14:38:28.68Z</time></trkpt><trkpt lat="37.1990042" lon="9.3587613"><ele>54.0</ele><time>2026-05-02T14:38:29.68Z</time></trkpt><trkpt lat="37.1989882" lon="9.3589132"><ele>52.25</ele><time>2026-05-02T14:38:30.673Z</time></trkpt><trkpt lat="37.1989707" lon="9.3590727"><ele>50.5</ele><time>2026-05-02T14:38:31.7Z</time></trkpt><trkpt lat="37.1989532" lon="9.3592332"><ele>48.75</ele><time>2026-05-02T14:38:32.63Z</time></trkpt><trkpt lat="37.198944" lon="9.3593911"><ele>47.0</ele><time>2026-05-02T14:38:33.673Z</time></trkpt><trkpt lat="37.1989369" lon="9.3595407"><ele>47.0</ele><time>2026-05-02T14:38:34.668Z</time></trkpt><trkpt lat="37.1989277" lon="9.3596839"><ele>47.0</ele><time>2026-05-02T14:38:35.682Z</time></trkpt><trkpt lat="37.1989167" lon="9.3598187"><ele>47.0</ele><time>2026-05-02T14:38:36.671Z</time></trkpt><trkpt lat="37.1989082" lon="9.3599412"><ele>47.0</ele><time>2026-05-02T14:38:37.641Z</time></trkpt><trkpt lat="37.1988999" lon="9.3600548"><ele>47.0</ele><time>2026-05-02T14:38:38.652Z</time></trkpt><trkpt lat="37.1988916" lon="9.3601755"><ele>46.75</ele><time>2026-05-02T14:38:39.676Z</time></trkpt><trkpt lat="37.1988879" lon="9.3603106"><ele>46.5</ele><time>2026-05-02T14:38:40.647Z</time></trkpt><trkpt lat="37.1988777" lon="9.3604573"><ele>46.25</ele><time>2026-05-02T14:38:41.674Z</time></trkpt><trkpt lat="37.1988653" lon="9.3606077"><ele>46.0</ele><time>2026-05-02T14:38:42.67Z</time></trkpt><trkpt lat="37.1988558" lon="9.3607701"><ele>45.75</ele><time>2026-05-02T14:38:43.678Z</time></trkpt><trkpt lat="37.1988465" lon="9.3609408"><ele>45.5</ele><time>2026-05-02T14:38:44.682Z</time></trkpt><trkpt lat="37.1988347" lon="9.3611205"><ele>45.25</ele><time>2026-05-02T14:38:45.662Z</time></trkpt><trkpt lat="37.1988226" lon="9.3613054"><ele>45.0</ele><time>2026-05-02T14:38:46.675Z</time></trkpt><trkpt lat="37.1988134" lon="9.3614893"><ele>45.0</ele><time>2026-05-02T14:38:47.673Z</time></trkpt><trkpt lat="37.1988073" lon="9.3616698"><ele>45.0</ele><time>2026-05-02T14:38:48.627Z</time></trkpt><trkpt lat="37.1987969" lon="9.3618481"><ele>45.0</ele><time>2026-05-02T14:38:49.646Z</time></trkpt><trkpt lat="37.1987842" lon="9.3620237"><ele>45.0</ele><time>2026-05-02T14:38:50.616Z</time></trkpt><trkpt lat="37.1987711" lon="9.3621905"><ele>45.0</ele><time>2026-05-02T14:38:51.621Z</time></trkpt><trkpt lat="37.198755" lon="9.362351"><ele>45.0</ele><time>2026-05-02T14:38:52.634Z</time></trkpt><trkpt lat="37.1987442" lon="9.3625001"><ele>45.0</ele><time>2026-05-02T14:38:53.658Z</time></trkpt><trkpt lat="37.1987337" lon="9.3626467"><ele>45.0</ele><time>2026-05-02T14:38:54.623Z</time></trkpt><trkpt lat="37.1987245" lon="9.3627863"><ele>45.0</ele><time>2026-05-02T14:38:55.627Z</time></trkpt><trkpt lat="37.1987127" lon="9.3629207"><ele>45.0</ele><time>2026-05-02T14:38:56.629Z</time></trkpt><trkpt lat="37.1987017" lon="9.3630568"><ele>45.0</ele><time>2026-05-02T14:38:57.626Z</time></trkpt><trkpt lat="37.1986904" lon="9.363187"><ele>45.0</ele><time>2026-05-02T14:38:58.625Z</time></trkpt><trkpt lat="37.1986818" lon="9.3633138"><ele>45.0</ele><time>2026-05-02T14:38:59.622Z</time></trkpt><trkpt lat="37.198669" lon="9.3634273"><ele>45.0</ele><time>2026-05-02T14:39:00.623Z</time></trkpt><trkpt lat="37.1986626" lon="9.3635386"><ele>45.0</ele><time>2026-05-02T14:39:01.631Z</time></trkpt><trkpt lat="37.1986555" lon="9.3636455"><ele>45.0</ele><time>2026-05-02T14:39:02.628Z</time></trkpt><trkpt lat="37.1986474" lon="9.3637447"><ele>45.0</ele><time>2026-05-02T14:39:03.635Z</time></trkpt><trkpt lat="37.1986396" lon="9.3638422"><ele>45.0</ele><time>2026-05-02T14:39:04.643Z</time></trkpt><trkpt lat="37.1986299" lon="9.3639404"><ele>45.0</ele><time>2026-05-02T14:39:05.62Z</time></trkpt><trkpt lat="37.1986166" lon="9.3640386"><ele>45.0</ele><time>2026-05-02T14:39:06.636Z</time></trkpt><trkpt lat="37.1986044" lon="9.3641378"><ele>45.0</ele><time>2026-05-02T14:39:07.625Z</time></trkpt><trkpt lat="37.1985922" lon="9.3642349"><ele>45.0</ele><time>2026-05-02T14:39:08.624Z</time></trkpt><trkpt lat="37.198575" lon="9.3643344"><ele>45.0</ele><time>2026-05-02T14:39:09.631Z</time></trkpt><trkpt lat="37.1985536" lon="9.3644363"><ele>45.0</ele><time>2026-05-02T14:39:10.632Z</time></trkpt><trkpt lat="37.1985297" lon="9.3645423"><ele>45.0</ele><time>2026-05-02T14:39:11.626Z</time></trkpt><trkpt lat="37.198509" lon="9.3646514"><ele>44.8</ele><time>2026-05-02T14:39:12.635Z</time></trkpt><trkpt lat="37.1984805" lon="9.3647619"><ele>44.6</ele><time>2026-05-02T14:39:13.624Z</time></trkpt><trkpt lat="37.198446" lon="9.3648742"><ele>44.400000000000006</ele><time>2026-05-02T14:39:14.64Z</time></trkpt><trkpt lat="37.1984087" lon="9.364987"><ele>44.2</ele><time>2026-05-02T14:39:15.62Z</time></trkpt><trkpt lat="37.1983663" lon="9.3651013"><ele>44.0</ele><time>2026-05-02T14:39:16.634Z</time></trkpt><trkpt lat="37.1983204" lon="9.365222"><ele>44.0</ele><time>2026-05-02T14:39:17.632Z</time></trkpt><trkpt lat="37.1982746" lon="9.3653452"><ele>44.0</ele><time>2026-05-02T14:39:18.616Z</time></trkpt><trkpt lat="37.1982171" lon="9.3654732"><ele>44.0</ele><time>2026-05-02T14:39:19.628Z</time></trkpt><trkpt lat="37.1981604" lon="9.3655943"><ele>44.0</ele><time>2026-05-02T14:39:20.635Z</time></trkpt><trkpt lat="37.1980978" lon="9.3657181"><ele>43.2</ele><time>2026-05-02T14:39:21.628Z</time></trkpt><trkpt lat="37.198032" lon="9.3658335"><ele>42.400000000000006</ele><time>2026-05-02T14:39:22.649Z</time></trkpt><trkpt lat="37.1979681" lon="9.3659415"><ele>41.6</ele><time>2026-05-02T14:39:23.631Z</time></trkpt><trkpt lat="37.1979103" lon="9.3660454"><ele>40.8</ele><time>2026-05-02T14:39:24.631Z</time></trkpt><trkpt lat="37.1978615" lon="9.3661257"><ele>40.0</ele><time>2026-05-02T14:39:25.636Z</time></trkpt><trkpt lat="37.1977939" lon="9.3662331"><ele>40.0</ele><time>2026-05-02T14:39:27.68Z</time></trkpt><trkpt lat="37.197724" lon="9.3663551"><ele>40.0</ele><time>2026-05-02T14:39:29.689Z</time></trkpt><trkpt lat="37.19768" lon="9.3664232"><ele>40.0</ele><time>2026-05-02T14:39:30.682Z</time></trkpt><trkpt lat="37.1976318" lon="9.3664959"><ele>40.0</ele><time>2026-05-02T14:39:31.689Z</time></trkpt><trkpt lat="37.1975868" lon="9.3665719"><ele>40.0</ele><time>2026-05-02T14:39:32.701Z</time></trkpt><trkpt lat="37.1975376" lon="9.3666526"><ele>40.0</ele><time>2026-05-02T14:39:33.681Z</time></trkpt><trkpt lat="37.1974856" lon="9.3667428"><ele>40.0</ele><time>2026-05-02T14:39:34.69Z</time></trkpt><trkpt lat="37.1974331" lon="9.3668347"><ele>40.0</ele><time>2026-05-02T14:39:35.678Z</time></trkpt><trkpt lat="37.1973818" lon="9.3669402"><ele>40.0</ele><time>2026-05-02T14:39:36.691Z</time></trkpt><trkpt lat="37.1973279" lon="9.3670428"><ele>40.0</ele><time>2026-05-02T14:39:37.724Z</time></trkpt><trkpt lat="37.1972707" lon="9.3671585"><ele>40.0</ele><time>2026-05-02T14:39:38.682Z</time></trkpt><trkpt lat="37.1972218" lon="9.3672691"><ele>40.0</ele><time>2026-05-02T14:39:39.683Z</time></trkpt><trkpt lat="37.197173" lon="9.3673832"><ele>40.0</ele><time>2026-05-02T14:39:40.678Z</time></trkpt><trkpt lat="37.1971268" lon="9.367516"><ele>40.0</ele><time>2026-05-02T14:39:41.691Z</time></trkpt><trkpt lat="37.1970854" lon="9.3676503"><ele>40.0</ele><time>2026-05-02T14:39:42.685Z</time></trkpt><trkpt lat="37.1970385" lon="9.3677911"><ele>40.0</ele><time>2026-05-02T14:39:43.683Z</time></trkpt><trkpt lat="37.1969983" lon="9.3679395"><ele>40.0</ele><time>2026-05-02T14:39:44.691Z</time></trkpt><trkpt lat="37.196956" lon="9.3680917"><ele>40.0</ele><time>2026-05-02T14:39:45.674Z</time></trkpt><trkpt lat="37.1969162" lon="9.3682423"><ele>40.0</ele><time>2026-05-02T14:39:46.689Z</time></trkpt><trkpt lat="37.1968798" lon="9.3683948"><ele>40.0</ele><time>2026-05-02T14:39:47.696Z</time></trkpt><trkpt lat="37.1968508" lon="9.3685482"><ele>40.0</ele><time>2026-05-02T14:39:48.688Z</time></trkpt><trkpt lat="37.1968227" lon="9.3687013"><ele>40.0</ele><time>2026-05-02T14:39:49.692Z</time></trkpt><trkpt lat="37.1967912" lon="9.3688534"><ele>40.0</ele><time>2026-05-02T14:39:50.691Z</time></trkpt><trkpt lat="37.1967589" lon="9.368998"><ele>39.75</ele><time>2026-05-02T14:39:51.69Z</time></trkpt><trkpt lat="37.1967216" lon="9.3691435"><ele>39.5</ele><time>2026-05-02T14:39:52.682Z</time></trkpt><trkpt lat="37.1966936" lon="9.3692836"><ele>39.25</ele><time>2026-05-02T14:39:53.679Z</time></trkpt><trkpt lat="37.1966627" lon="9.3694263"><ele>39.0</ele><time>2026-05-02T14:39:54.673Z</time></trkpt><trkpt lat="37.1966353" lon="9.3695669"><ele>38.6</ele><time>2026-05-02T14:39:55.68Z</time></trkpt><trkpt lat="37.1966068" lon="9.3697159"><ele>38.2</ele><time>2026-05-02T14:39:56.678Z</time></trkpt><trkpt lat="37.1965793" lon="9.3698533"><ele>37.800000000000004</ele><time>2026-05-02T14:39:57.69Z</time></trkpt><trkpt lat="37.1965537" lon="9.3699846"><ele>37.4</ele><time>2026-05-02T14:39:58.668Z</time></trkpt><trkpt lat="37.196531" lon="9.3701133"><ele>37.0</ele><time>2026-05-02T14:39:59.677Z</time></trkpt><trkpt lat="37.1965093" lon="9.3702357"><ele>37.0</ele><time>2026-05-02T14:40:00.685Z</time></trkpt><trkpt lat="37.1964886" lon="9.3703475"><ele>37.0</ele><time>2026-05-02T14:40:01.667Z</time></trkpt><trkpt lat="37.1964668" lon="9.3704528"><ele>37.0</ele><time>2026-05-02T14:40:02.708Z</time></trkpt><trkpt lat="37.196445" lon="9.3705535"><ele>37.0</ele><time>2026-05-02T14:40:03.677Z</time></trkpt><trkpt lat="37.1964207" lon="9.3706592"><ele>37.0</ele><time>2026-05-02T14:40:04.68Z</time></trkpt><trkpt lat="37.196398" lon="9.370761"><ele>37.0</ele><time>2026-05-02T14:40:05.688Z</time></trkpt><trkpt lat="37.1963801" lon="9.3708605"><ele>36.833333333333336</ele><time>2026-05-02T14:40:06.681Z</time></trkpt><trkpt lat="37.1963599" lon="9.3709589"><ele>36.66666666666667</ele><time>2026-05-02T14:40:07.686Z</time></trkpt><trkpt lat="37.1963382" lon="9.3710526"><ele>36.5</ele><time>2026-05-02T14:40:08.684Z</time></trkpt><trkpt lat="37.1963177" lon="9.3711412"><ele>36.333333333333336</ele><time>2026-05-02T14:40:09.68Z</time></trkpt><trkpt lat="37.1963018" lon="9.3712279"><ele>36.166666666666664</ele><time>2026-05-02T14:40:10.698Z</time></trkpt><trkpt lat="37.1962858" lon="9.3713094"><ele>36.0</ele><time>2026-05-02T14:40:11.693Z</time></trkpt><trkpt lat="37.1962568" lon="9.3714462"><ele>36.0</ele><time>2026-05-02T14:40:13.692Z</time></trkpt><trkpt lat="37.1962336" lon="9.3715526"><ele>36.0</ele><time>2026-05-02T14:40:15.68Z</time></trkpt><trkpt lat="37.1962146" lon="9.3716317"><ele>36.0</ele><time>2026-05-02T14:40:17.685Z</time></trkpt><trkpt lat="37.1961778" lon="9.3717346"><ele>36.0</ele><time>2026-05-02T14:40:20.683Z</time></trkpt><trkpt lat="37.1961547" lon="9.3718328"><ele>36.0</ele><time>2026-05-02T14:40:23.689Z</time></trkpt><trkpt lat="37.1961379" lon="9.3719183"><ele>36.0</ele><time>2026-05-02T14:40:26.707Z</time></trkpt><trkpt lat="37.1961705" lon="9.3718149"><ele>36.0</ele><time>2026-05-02T14:41:24.622Z</time></trkpt><trkpt lat="37.1961909" lon="9.3717148"><ele>36.0</ele><time>2026-05-02T14:41:26.639Z</time></trkpt><trkpt lat="37.1962192" lon="9.3716282"><ele>36.0</ele><time>2026-05-02T14:41:28.623Z</time></trkpt><trkpt lat="37.1962439" lon="9.3715401"><ele>36.0</ele><time>2026-05-02T14:41:30.631Z</time></trkpt><trkpt lat="37.1962707" lon="9.3714267"><ele>36.0</ele><time>2026-05-02T14:41:32.618Z</time></trkpt><trkpt lat="37.1962948" lon="9.371325"><ele>36.0</ele><time>2026-05-02T14:41:34.628Z</time></trkpt><trkpt lat="37.1963164" lon="9.3712045"><ele>36.0</ele><time>2026-05-02T14:41:36.631Z</time></trkpt><trkpt lat="37.1963324" lon="9.3710894"><ele>36.0</ele><time>2026-05-02T14:41:38.637Z</time></trkpt><trkpt lat="37.1963549" lon="9.3709801"><ele>36.0</ele><time>2026-05-02T14:41:40.625Z</time></trkpt><trkpt lat="37.1963794" lon="9.3708659"><ele>36.0</ele><time>2026-05-02T14:41:42.632Z</time></trkpt><trkpt lat="37.1964131" lon="9.3707348"><ele>36.0</ele><time>2026-05-02T14:41:44.634Z</time></trkpt><trkpt lat="37.1964409" lon="9.3705923"><ele>36.2</ele><time>2026-05-02T14:41:46.626Z</time></trkpt><trkpt lat="37.1964695" lon="9.370469"><ele>36.400000000000006</ele><time>2026-05-02T14:41:48.628Z</time></trkpt><trkpt lat="37.1964958" lon="9.3703459"><ele>36.6</ele><time>2026-05-02T14:41:50.629Z</time></trkpt><trkpt lat="37.1965158" lon="9.3702099"><ele>36.800000000000004</ele><time>2026-05-02T14:41:52.626Z</time></trkpt><trkpt lat="37.1965409" lon="9.3700663"><ele>37.0</ele><time>2026-05-02T14:41:54.631Z</time></trkpt><trkpt lat="37.1965673" lon="9.3699286"><ele>37.0</ele><time>2026-05-02T14:41:56.636Z</time></trkpt><trkpt lat="37.1966015" lon="9.3697863"><ele>37.0</ele><time>2026-05-02T14:41:58.626Z</time></trkpt><trkpt lat="37.1966268" lon="9.3696426"><ele>37.0</ele><time>2026-05-02T14:42:00.625Z</time></trkpt><trkpt lat="37.1966557" lon="9.3694853"><ele>37.0</ele><time>2026-05-02T14:42:02.627Z</time></trkpt><trkpt lat="37.1966737" lon="9.3694032"><ele>37.0</ele><time>2026-05-02T14:42:03.627Z</time></trkpt><trkpt lat="37.1966876" lon="9.3693233"><ele>37.333333333333336</ele><time>2026-05-02T14:42:04.633Z</time></trkpt><trkpt lat="37.1967259" lon="9.3691782"><ele>37.66666666666667</ele><time>2026-05-02T14:42:06.628Z</time></trkpt><trkpt lat="37.1967432" lon="9.369095"><ele>38.0</ele><time>2026-05-02T14:42:07.623Z</time></trkpt><trkpt lat="37.1967587" lon="9.3690068"><ele>38.333333333333336</ele><time>2026-05-02T14:42:08.63Z</time></trkpt><trkpt lat="37.1967744" lon="9.3689092"><ele>38.666666666666664</ele><time>2026-05-02T14:42:09.63Z</time></trkpt><trkpt lat="37.1967933" lon="9.3688163"><ele>39.0</ele><time>2026-05-02T14:42:10.649Z</time></trkpt><trkpt lat="37.1968184" lon="9.3687123"><ele>39.166666666666664</ele><time>2026-05-02T14:42:11.629Z</time></trkpt><trkpt lat="37.1968419" lon="9.3686061"><ele>39.333333333333336</ele><time>2026-05-02T14:42:12.626Z</time></trkpt><trkpt lat="37.1968679" lon="9.3685022"><ele>39.5</ele><time>2026-05-02T14:42:13.626Z</time></trkpt><trkpt lat="37.1968886" lon="9.3683981"><ele>39.66666666666667</ele><time>2026-05-02T14:42:14.625Z</time></trkpt><trkpt lat="37.1969088" lon="9.3682959"><ele>39.833333333333336</ele><time>2026-05-02T14:42:15.643Z</time></trkpt><trkpt lat="37.1969319" lon="9.3681973"><ele>40.0</ele><time>2026-05-02T14:42:16.623Z</time></trkpt><trkpt lat="37.1969548" lon="9.3681038"><ele>40.0</ele><time>2026-05-02T14:42:17.627Z</time></trkpt><trkpt lat="37.1969768" lon="9.3680102"><ele>40.0</ele><time>2026-05-02T14:42:18.619Z</time></trkpt><trkpt lat="37.1970051" lon="9.3679086"><ele>40.0</ele><time>2026-05-02T14:42:19.624Z</time></trkpt><trkpt lat="37.1970315" lon="9.3678115"><ele>40.0</ele><time>2026-05-02T14:42:20.619Z</time></trkpt><trkpt lat="37.19706" lon="9.3677131"><ele>40.0</ele><time>2026-05-02T14:42:21.628Z</time></trkpt><trkpt lat="37.1970925" lon="9.3676189"><ele>40.0</ele><time>2026-05-02T14:42:22.629Z</time></trkpt><trkpt lat="37.1971242" lon="9.3675214"><ele>40.0</ele><time>2026-05-02T14:42:23.622Z</time></trkpt><trkpt lat="37.1971572" lon="9.3674242"><ele>40.0</ele><time>2026-05-02T14:42:24.627Z</time></trkpt><trkpt lat="37.197189" lon="9.3673304"><ele>40.0</ele><time>2026-05-02T14:42:25.62Z</time></trkpt><trkpt lat="37.19723" lon="9.3672381"><ele>40.0</ele><time>2026-05-02T14:42:26.641Z</time></trkpt><trkpt lat="37.1972738" lon="9.3671474"><ele>40.0</ele><time>2026-05-02T14:42:27.632Z</time></trkpt><trkpt lat="37.1973158" lon="9.3670607"><ele>40.0</ele><time>2026-05-02T14:42:28.617Z</time></trkpt><trkpt lat="37.197357" lon="9.3669746"><ele>40.16666666666667</ele><time>2026-05-02T14:42:29.615Z</time></trkpt><trkpt lat="37.1974039" lon="9.366892"><ele>40.333333333333336</ele><time>2026-05-02T14:42:30.627Z</time></trkpt><trkpt lat="37.1974563" lon="9.366806"><ele>40.5</ele><time>2026-05-02T14:42:31.628Z</time></trkpt><trkpt lat="37.1975095" lon="9.36672"><ele>40.666666666666664</ele><time>2026-05-02T14:42:32.63Z</time></trkpt><trkpt lat="37.1975635" lon="9.3666352"><ele>40.83333333333333</ele><time>2026-05-02T14:42:33.614Z</time></trkpt><trkpt lat="37.1976157" lon="9.3665502"><ele>41.0</ele><time>2026-05-02T14:42:34.628Z</time></trkpt><trkpt lat="37.1976683" lon="9.3664615"><ele>41.0</ele><time>2026-05-02T14:42:35.623Z</time></trkpt><trkpt lat="37.1977193" lon="9.3663749"><ele>41.0</ele><time>2026-05-02T14:42:36.627Z</time></trkpt><trkpt lat="37.1977689" lon="9.3662939"><ele>41.0</ele><time>2026-05-02T14:42:37.627Z</time></trkpt><trkpt lat="37.1978088" lon="9.3662176"><ele>41.0</ele><time>2026-05-02T14:42:38.622Z</time></trkpt><trkpt lat="37.1978465" lon="9.366154"><ele>41.0</ele><time>2026-05-02T14:42:39.634Z</time></trkpt><trkpt lat="37.1978905" lon="9.366081"><ele>41.0</ele><time>2026-05-02T14:42:40.62Z</time></trkpt><trkpt lat="37.1979394" lon="9.3660061"><ele>40.8</ele><time>2026-05-02T14:42:41.628Z</time></trkpt><trkpt lat="37.1979921" lon="9.3659195"><ele>40.599999999999994</ele><time>2026-05-02T14:42:42.632Z</time></trkpt><trkpt lat="37.1980426" lon="9.3658266"><ele>40.4</ele><time>2026-05-02T14:42:43.629Z</time></trkpt><trkpt lat="37.1980951" lon="9.3657327"><ele>40.2</ele><time>2026-05-02T14:42:44.63Z</time></trkpt><trkpt lat="37.1981455" lon="9.3656313"><ele>40.0</ele><time>2026-05-02T14:42:45.628Z</time></trkpt><trkpt lat="37.1981928" lon="9.3655313"><ele>40.66666666666667</ele><time>2026-05-02T14:42:46.625Z</time></trkpt><trkpt lat="37.1982382" lon="9.3654333"><ele>41.333333333333336</ele><time>2026-05-02T14:42:47.628Z</time></trkpt><trkpt lat="37.1982807" lon="9.3653405"><ele>42.0</ele><time>2026-05-02T14:42:48.619Z</time></trkpt><trkpt lat="37.19832" lon="9.3652523"><ele>42.666666666666664</ele><time>2026-05-02T14:42:49.63Z</time></trkpt><trkpt lat="37.1983546" lon="9.3651671"><ele>43.33333333333333</ele><time>2026-05-02T14:42:50.622Z</time></trkpt><trkpt lat="37.1983859" lon="9.3650774"><ele>44.0</ele><time>2026-05-02T14:42:51.62Z</time></trkpt><trkpt lat="37.1984122" lon="9.3649827"><ele>44.0</ele><time>2026-05-02T14:42:52.633Z</time></trkpt><trkpt lat="37.1984413" lon="9.36489"><ele>44.0</ele><time>2026-05-02T14:42:53.636Z</time></trkpt><trkpt lat="37.1984676" lon="9.3647992"><ele>44.0</ele><time>2026-05-02T14:42:54.653Z</time></trkpt><trkpt lat="37.1984927" lon="9.364712"><ele>44.0</ele><time>2026-05-02T14:42:55.634Z</time></trkpt><trkpt lat="37.1985163" lon="9.3646212"><ele>44.0</ele><time>2026-05-02T14:42:56.622Z</time></trkpt><trkpt lat="37.1985387" lon="9.3645289"><ele>44.0</ele><time>2026-05-02T14:42:57.612Z</time></trkpt><trkpt lat="37.1985589" lon="9.3644341"><ele>44.166666666666664</ele><time>2026-05-02T14:42:58.622Z</time></trkpt><trkpt lat="37.198576" lon="9.364338"><ele>44.33333333333333</ele><time>2026-05-02T14:42:59.626Z</time></trkpt><trkpt lat="37.1985927" lon="9.3642363"><ele>44.5</ele><time>2026-05-02T14:43:00.623Z</time></trkpt><trkpt lat="37.1986071" lon="9.3641391"><ele>44.666666666666664</ele><time>2026-05-02T14:43:01.629Z</time></trkpt><trkpt lat="37.1986181" lon="9.3640426"><ele>44.833333333333336</ele><time>2026-05-02T14:43:02.624Z</time></trkpt><trkpt lat="37.1986261" lon="9.363946"><ele>45.0</ele><time>2026-05-02T14:43:03.617Z</time></trkpt><trkpt lat="37.1986326" lon="9.3638573"><ele>44.6</ele><time>2026-05-02T14:43:04.627Z</time></trkpt><trkpt lat="37.1986458" lon="9.3637715"><ele>44.2</ele><time>2026-05-02T14:43:05.624Z</time></trkpt><trkpt lat="37.1986669" lon="9.3636217"><ele>43.8</ele><time>2026-05-02T14:43:07.62Z</time></trkpt><trkpt lat="37.1986749" lon="9.3634874"><ele>43.4</ele><time>2026-05-02T14:43:09.63Z</time></trkpt><trkpt lat="37.1986867" lon="9.3633276"><ele>43.0</ele><time>2026-05-02T14:43:11.626Z</time></trkpt><trkpt lat="37.1986945" lon="9.3632329"><ele>43.0</ele><time>2026-05-02T14:43:12.639Z</time></trkpt><trkpt lat="37.1987" lon="9.363136"><ele>43.0</ele><time>2026-05-02T14:43:13.629Z</time></trkpt><trkpt lat="37.1987048" lon="9.363038"><ele>43.0</ele><time>2026-05-02T14:43:14.626Z</time></trkpt><trkpt lat="37.1987037" lon="9.3629345"><ele>43.0</ele><time>2026-05-02T14:43:15.634Z</time></trkpt><trkpt lat="37.1987015" lon="9.3628252"><ele>43.0</ele><time>2026-05-02T14:43:16.614Z</time></trkpt><trkpt lat="37.1987061" lon="9.3627216"><ele>43.0</ele><time>2026-05-02T14:43:17.617Z</time></trkpt><trkpt lat="37.198722" lon="9.3626133"><ele>43.4</ele><time>2026-05-02T14:43:18.613Z</time></trkpt><trkpt lat="37.1987349" lon="9.3624937"><ele>43.8</ele><time>2026-05-02T14:43:19.628Z</time></trkpt><trkpt lat="37.1987481" lon="9.3623806"><ele>44.2</ele><time>2026-05-02T14:43:20.617Z</time></trkpt><trkpt lat="37.1987575" lon="9.3622652"><ele>44.6</ele><time>2026-05-02T14:43:21.622Z</time></trkpt><trkpt lat="37.1987686" lon="9.362145"><ele>45.0</ele><time>2026-05-02T14:43:22.629Z</time></trkpt><trkpt lat="37.198775" lon="9.3620276"><ele>45.0</ele><time>2026-05-02T14:43:23.624Z</time></trkpt><trkpt lat="37.1987833" lon="9.3619096"><ele>45.0</ele><time>2026-05-02T14:43:24.646Z</time></trkpt><trkpt lat="37.1987869" lon="9.3617953"><ele>45.0</ele><time>2026-05-02T14:43:25.625Z</time></trkpt><trkpt lat="37.1987903" lon="9.3616914"><ele>45.0</ele><time>2026-05-02T14:43:26.622Z</time></trkpt><trkpt lat="37.1987957" lon="9.3615868"><ele>45.0</ele><time>2026-05-02T14:43:27.621Z</time></trkpt><trkpt lat="37.198811" lon="9.3614788"><ele>45.0</ele><time>2026-05-02T14:43:28.622Z</time></trkpt><trkpt lat="37.1988245" lon="9.361369"><ele>45.0</ele><time>2026-05-02T14:43:29.617Z</time></trkpt><trkpt lat="37.1988325" lon="9.3612542"><ele>45.0</ele><time>2026-05-02T14:43:30.62Z</time></trkpt><trkpt lat="37.1988369" lon="9.361141"><ele>45.0</ele><time>2026-05-02T14:43:31.627Z</time></trkpt><trkpt lat="37.1988422" lon="9.3610276"><ele>45.0</ele><time>2026-05-02T14:43:32.629Z</time></trkpt><trkpt lat="37.1988465" lon="9.3609153"><ele>45.0</ele><time>2026-05-02T14:43:33.624Z</time></trkpt><trkpt lat="37.1988555" lon="9.3607978"><ele>45.0</ele><time>2026-05-02T14:43:34.618Z</time></trkpt><trkpt lat="37.1988647" lon="9.3606805"><ele>45.0</ele><time>2026-05-02T14:43:35.619Z</time></trkpt><trkpt lat="37.1988731" lon="9.3605631"><ele>45.0</ele><time>2026-05-02T14:43:36.631Z</time></trkpt><trkpt lat="37.1988846" lon="9.3604459"><ele>45.0</ele><time>2026-05-02T14:43:37.622Z</time></trkpt><trkpt lat="37.1988954" lon="9.3603262"><ele>45.0</ele><time>2026-05-02T14:43:38.626Z</time></trkpt><trkpt lat="37.1989047" lon="9.3602046"><ele>45.2</ele><time>2026-05-02T14:43:39.63Z</time></trkpt><trkpt lat="37.198911" lon="9.3600818"><ele>45.4</ele><time>2026-05-02T14:43:40.65Z</time></trkpt><trkpt lat="37.1989158" lon="9.3599587"><ele>45.599999999999994</ele><time>2026-05-02T14:43:41.63Z</time></trkpt><trkpt lat="37.1989218" lon="9.3598352"><ele>45.8</ele><time>2026-05-02T14:43:42.626Z</time></trkpt><trkpt lat="37.1989269" lon="9.3597101"><ele>46.0</ele><time>2026-05-02T14:43:43.625Z</time></trkpt><trkpt lat="37.1989367" lon="9.3595834"><ele>46.199999999999996</ele><time>2026-05-02T14:43:44.629Z</time></trkpt><trkpt lat="37.1989467" lon="9.359456"><ele>46.4</ele><time>2026-05-02T14:43:45.625Z</time></trkpt><trkpt lat="37.1989559" lon="9.3593249"><ele>46.6</ele><time>2026-05-02T14:43:46.625Z</time></trkpt><trkpt lat="37.1989683" lon="9.3591918"><ele>46.8</ele><time>2026-05-02T14:43:47.628Z</time></trkpt><trkpt lat="37.1989776" lon="9.359067"><ele>47.0</ele><time>2026-05-02T14:43:48.626Z</time></trkpt><trkpt lat="37.1989898" lon="9.3589463"><ele>47.2</ele><time>2026-05-02T14:43:49.618Z</time></trkpt><trkpt lat="37.1989952" lon="9.3588125"><ele>47.400000000000006</ele><time>2026-05-02T14:43:50.627Z</time></trkpt><trkpt lat="37.1990051" lon="9.3586808"><ele>47.599999999999994</ele><time>2026-05-02T14:43:51.62Z</time></trkpt><trkpt lat="37.1990084" lon="9.3585522"><ele>47.8</ele><time>2026-05-02T14:43:52.621Z</time></trkpt><trkpt lat="37.1990125" lon="9.3584192"><ele>48.0</ele><time>2026-05-02T14:43:53.629Z</time></trkpt><trkpt lat="37.1990229" lon="9.3582867"><ele>49.2</ele><time>2026-05-02T14:43:54.64Z</time></trkpt><trkpt lat="37.1990386" lon="9.3581557"><ele>50.4</ele><time>2026-05-02T14:43:55.626Z</time></trkpt><trkpt lat="37.1990481" lon="9.3580368"><ele>51.60000000000001</ele><time>2026-05-02T14:43:56.629Z</time></trkpt><trkpt lat="37.1990568" lon="9.3579264"><ele>52.800000000000004</ele><time>2026-05-02T14:43:57.625Z</time></trkpt><trkpt lat="37.1990647" lon="9.3578263"><ele>54.0</ele><time>2026-05-02T14:43:58.613Z</time></trkpt><trkpt lat="37.1990714" lon="9.3577196"><ele>54.2</ele><time>2026-05-02T14:43:59.644Z</time></trkpt><trkpt lat="37.1990781" lon="9.3576112"><ele>54.400000000000006</ele><time>2026-05-02T14:44:00.623Z</time></trkpt><trkpt lat="37.1990838" lon="9.3575027"><ele>54.6</ele><time>2026-05-02T14:44:01.625Z</time></trkpt><trkpt lat="37.1990868" lon="9.3573905"><ele>54.8</ele><time>2026-05-02T14:44:02.625Z</time></trkpt><trkpt lat="37.1990968" lon="9.3572715"><ele>55.0</ele><time>2026-05-02T14:44:03.631Z</time></trkpt><trkpt lat="37.1991109" lon="9.3571465"><ele>55.2</ele><time>2026-05-02T14:44:04.63Z</time></trkpt><trkpt lat="37.1991212" lon="9.3570182"><ele>55.4</ele><time>2026-05-02T14:44:05.622Z</time></trkpt><trkpt lat="37.1991277" lon="9.3568887"><ele>55.599999999999994</ele><time>2026-05-02T14:44:06.616Z</time></trkpt><trkpt lat="37.1991365" lon="9.3567542"><ele>55.8</ele><time>2026-05-02T14:44:07.619Z</time></trkpt><trkpt lat="37.1991447" lon="9.3566173"><ele>56.0</ele><time>2026-05-02T14:44:08.627Z</time></trkpt><trkpt lat="37.1991528" lon="9.3564845"><ele>56.0</ele><time>2026-05-02T14:44:09.623Z</time></trkpt><trkpt lat="37.1991622" lon="9.3563536"><ele>55.99999999999999</ele><time>2026-05-02T14:44:10.63Z</time></trkpt><trkpt lat="37.1991684" lon="9.3562288"><ele>55.99999999999999</ele><time>2026-05-02T14:44:11.623Z</time></trkpt><trkpt lat="37.199176" lon="9.3561102"><ele>56.0</ele><time>2026-05-02T14:44:12.628Z</time></trkpt><trkpt lat="37.1991754" lon="9.3560128"><ele>56.0</ele><time>2026-05-02T14:44:13.624Z</time></trkpt><trkpt lat="37.1991848" lon="9.3558789"><ele>56.00000000000001</ele><time>2026-05-02T14:44:15.626Z</time></trkpt><trkpt lat="37.1992027" lon="9.3557569"><ele>56.0</ele><time>2026-05-02T14:44:17.636Z</time></trkpt><trkpt lat="37.1992184" lon="9.3556212"><ele>56.0</ele><time>2026-05-02T14:44:19.62Z</time></trkpt><trkpt lat="37.1992233" lon="9.355542"><ele>56.0</ele><time>2026-05-02T14:44:20.628Z</time></trkpt><trkpt lat="37.1992278" lon="9.3554547"><ele>56.00000000000001</ele><time>2026-05-02T14:44:21.617Z</time></trkpt><trkpt lat="37.1992377" lon="9.3553642"><ele>56.0</ele><time>2026-05-02T14:44:22.628Z</time></trkpt><trkpt lat="37.199243" lon="9.3552649"><ele>56.00000000000001</ele><time>2026-05-02T14:44:23.613Z</time></trkpt><trkpt lat="37.1992474" lon="9.3551599"><ele>56.0</ele><time>2026-05-02T14:44:24.622Z</time></trkpt><trkpt lat="37.1992536" lon="9.3550534"><ele>56.0</ele><time>2026-05-02T14:44:25.63Z</time></trkpt><trkpt lat="37.1992617" lon="9.3549405"><ele>56.0</ele><time>2026-05-02T14:44:26.624Z</time></trkpt><trkpt lat="37.199269" lon="9.3548245"><ele>56.00000000000001</ele><time>2026-05-02T14:44:27.621Z</time></trkpt><trkpt lat="37.1992818" lon="9.3547134"><ele>56.0</ele><time>2026-05-02T14:44:28.626Z</time></trkpt><trkpt lat="37.1992864" lon="9.3546118"><ele>56.4</ele><time>2026-05-02T14:44:29.617Z</time></trkpt><trkpt lat="37.1992923" lon="9.3545043"><ele>56.8</ele><time>2026-05-02T14:44:30.625Z</time></trkpt><trkpt lat="37.1993012" lon="9.354398"><ele>57.199999999999996</ele><time>2026-05-02T14:44:31.628Z</time></trkpt><trkpt lat="37.1993114" lon="9.3542871"><ele>57.599999999999994</ele><time>2026-05-02T14:44:32.623Z</time></trkpt><trkpt lat="37.1993267" lon="9.3541636"><ele>58.0</ele><time>2026-05-02T14:44:33.616Z</time></trkpt><trkpt lat="37.1993378" lon="9.3540423"><ele>58.0</ele><time>2026-05-02T14:44:34.634Z</time></trkpt><trkpt lat="37.1993496" lon="9.3539169"><ele>58.0</ele><time>2026-05-02T14:44:35.623Z</time></trkpt><trkpt lat="37.199357" lon="9.3537905"><ele>58.0</ele><time>2026-05-02T14:44:36.619Z</time></trkpt><trkpt lat="37.1993657" lon="9.3536615"><ele>58.0</ele><time>2026-05-02T14:44:37.63Z</time></trkpt><trkpt lat="37.1993757" lon="9.3535381"><ele>58.0</ele><time>2026-05-02T14:44:38.624Z</time></trkpt><trkpt lat="37.1993924" lon="9.3534207"><ele>58.166666666666664</ele><time>2026-05-02T14:44:39.616Z</time></trkpt><trkpt lat="37.1994003" lon="9.3533072"><ele>58.33333333333333</ele><time>2026-05-02T14:44:40.624Z</time></trkpt><trkpt lat="37.1994074" lon="9.3531945"><ele>58.5</ele><time>2026-05-02T14:44:41.628Z</time></trkpt><trkpt lat="37.199404" lon="9.3530888"><ele>58.66666666666667</ele><time>2026-05-02T14:44:42.632Z</time></trkpt><trkpt lat="37.199396" lon="9.3529929"><ele>58.833333333333336</ele><time>2026-05-02T14:44:43.627Z</time></trkpt><trkpt lat="37.1993751" lon="9.3528973"><ele>59.0</ele><time>2026-05-02T14:44:44.618Z</time></trkpt><trkpt lat="37.1993428" lon="9.3528262"><ele>59.16666666666667</ele><time>2026-05-02T14:44:45.633Z</time></trkpt><trkpt lat="37.1992686" lon="9.3527172"><ele>59.333333333333336</ele><time>2026-05-02T14:44:47.623Z</time></trkpt><trkpt lat="37.1992222" lon="9.352641"><ele>59.5</ele><time>2026-05-02T14:44:49.626Z</time></trkpt><trkpt lat="37.1991682" lon="9.3525728"><ele>59.66666666666667</ele><time>2026-05-02T14:44:51.63Z</time></trkpt><trkpt lat="37.1990982" lon="9.3525247"><ele>59.833333333333336</ele><time>2026-05-02T14:44:54.628Z</time></trkpt><trkpt lat="37.1990241" lon="9.3525209"><ele>60.0</ele><time>2026-05-02T14:44:59.618Z</time></trkpt><trkpt lat="37.1989773" lon="9.3525749"><ele>58.8</ele><time>2026-05-02T14:45:00.623Z</time></trkpt><trkpt lat="37.1988963" lon="9.3527087"><ele>57.6</ele><time>2026-05-02T14:45:02.624Z</time></trkpt><trkpt lat="37.1988476" lon="9.3527933"><ele>56.400000000000006</ele><time>2026-05-02T14:45:03.63Z</time></trkpt><trkpt lat="37.1987951" lon="9.3528754"><ele>55.2</ele><time>2026-05-02T14:45:04.626Z</time></trkpt><trkpt lat="37.1987327" lon="9.3529688"><ele>54.0</ele><time>2026-05-02T14:45:05.613Z</time></trkpt><trkpt lat="37.1986661" lon="9.3530731"><ele>54.0</ele><time>2026-05-02T14:45:06.624Z</time></trkpt><trkpt lat="37.1986028" lon="9.3531777"><ele>54.00000000000001</ele><time>2026-05-02T14:45:07.613Z</time></trkpt><trkpt lat="37.1985391" lon="9.3532872"><ele>54.00000000000001</ele><time>2026-05-02T14:45:08.651Z</time></trkpt><trkpt lat="37.1984658" lon="9.3533997"><ele>54.0</ele><time>2026-05-02T14:45:09.627Z</time></trkpt><trkpt lat="37.1983884" lon="9.3535151"><ele>54.0</ele><time>2026-05-02T14:45:10.622Z</time></trkpt><trkpt lat="37.198307" lon="9.3536206"><ele>54.0</ele><time>2026-05-02T14:45:11.622Z</time></trkpt><trkpt lat="37.1982248" lon="9.3537253"><ele>54.0</ele><time>2026-05-02T14:45:12.617Z</time></trkpt><trkpt lat="37.1981379" lon="9.3538369"><ele>54.0</ele><time>2026-05-02T14:45:13.626Z</time></trkpt><trkpt lat="37.1980465" lon="9.3539562"><ele>54.0</ele><time>2026-05-02T14:45:14.615Z</time></trkpt><trkpt lat="37.1979413" lon="9.354077"><ele>52.5</ele><time>2026-05-02T14:45:15.624Z</time></trkpt><trkpt lat="37.1978441" lon="9.3541899"><ele>51.0</ele><time>2026-05-02T14:45:16.628Z</time></trkpt><trkpt lat="37.1977397" lon="9.3543081"><ele>49.5</ele><time>2026-05-02T14:45:17.62Z</time></trkpt><trkpt lat="37.1976312" lon="9.3544285"><ele>48.0</ele><time>2026-05-02T14:45:18.611Z</time></trkpt><trkpt lat="37.1975293" lon="9.3545543"><ele>48.0</ele><time>2026-05-02T14:45:19.64Z</time></trkpt><trkpt lat="37.1974225" lon="9.3546803"><ele>48.0</ele><time>2026-05-02T14:45:20.625Z</time></trkpt><trkpt lat="37.1973081" lon="9.354811"><ele>48.0</ele><time>2026-05-02T14:45:21.613Z</time></trkpt><trkpt lat="37.1971864" lon="9.3549487"><ele>46.0</ele><time>2026-05-02T14:45:22.625Z</time></trkpt><trkpt lat="37.1970602" lon="9.355098"><ele>44.0</ele><time>2026-05-02T14:45:23.624Z</time></trkpt><trkpt lat="37.1969314" lon="9.3552534"><ele>42.0</ele><time>2026-05-02T14:45:24.642Z</time></trkpt><trkpt lat="37.1967968" lon="9.3554143"><ele>42.0</ele><time>2026-05-02T14:45:25.631Z</time></trkpt><trkpt lat="37.196664" lon="9.3555679"><ele>42.0</ele><time>2026-05-02T14:45:26.618Z</time></trkpt><trkpt lat="37.1965341" lon="9.3557221"><ele>42.0</ele><time>2026-05-02T14:45:27.622Z</time></trkpt><trkpt lat="37.1964037" lon="9.3558812"><ele>42.0</ele><time>2026-05-02T14:45:28.623Z</time></trkpt><trkpt lat="37.1962734" lon="9.3560454"><ele>42.0</ele><time>2026-05-02T14:45:29.621Z</time></trkpt><trkpt lat="37.1961502" lon="9.3562145"><ele>42.0</ele><time>2026-05-02T14:45:30.62Z</time></trkpt><trkpt lat="37.1960323" lon="9.356394"><ele>41.333333333333336</ele><time>2026-05-02T14:45:31.625Z</time></trkpt><trkpt lat="37.1959219" lon="9.3565757"><ele>40.66666666666667</ele><time>2026-05-02T14:45:32.625Z</time></trkpt><trkpt lat="37.1958185" lon="9.3567609"><ele>40.0</ele><time>2026-05-02T14:45:33.635Z</time></trkpt><trkpt lat="37.1957178" lon="9.3569592"><ele>41.0</ele><time>2026-05-02T14:45:34.615Z</time></trkpt><trkpt lat="37.1956316" lon="9.3571555"><ele>42.0</ele><time>2026-05-02T14:45:35.621Z</time></trkpt><trkpt lat="37.1955495" lon="9.3573676"><ele>43.0</ele><time>2026-05-02T14:45:36.618Z</time></trkpt><trkpt lat="37.1954733" lon="9.3575828"><ele>43.66666666666667</ele><time>2026-05-02T14:45:37.614Z</time></trkpt><trkpt lat="37.1954055" lon="9.3578113"><ele>44.333333333333336</ele><time>2026-05-02T14:45:38.629Z</time></trkpt><trkpt lat="37.1953479" lon="9.358029"><ele>45.0</ele><time>2026-05-02T14:45:39.619Z</time></trkpt><trkpt lat="37.1952961" lon="9.3582524"><ele>45.666666666666664</ele><time>2026-05-02T14:45:40.621Z</time></trkpt><trkpt lat="37.1952507" lon="9.3584785"><ele>46.33333333333333</ele><time>2026-05-02T14:45:41.623Z</time></trkpt><trkpt lat="37.1952071" lon="9.3587035"><ele>47.0</ele><time>2026-05-02T14:45:42.628Z</time></trkpt><trkpt lat="37.1951695" lon="9.3589294"><ele>47.666666666666664</ele><time>2026-05-02T14:45:43.645Z</time></trkpt><trkpt lat="37.1951279" lon="9.3591509"><ele>48.33333333333333</ele><time>2026-05-02T14:45:44.637Z</time></trkpt><trkpt lat="37.1950902" lon="9.3593674"><ele>49.0</ele><time>2026-05-02T14:45:45.625Z</time></trkpt><trkpt lat="37.1950513" lon="9.3595798"><ele>48.666666666666664</ele><time>2026-05-02T14:45:46.626Z</time></trkpt><trkpt lat="37.1950137" lon="9.3597965"><ele>48.33333333333333</ele><time>2026-05-02T14:45:47.628Z</time></trkpt><trkpt lat="37.1949719" lon="9.36001"><ele>48.0</ele><time>2026-05-02T14:45:48.629Z</time></trkpt><trkpt lat="37.1949281" lon="9.3602186"><ele>48.0</ele><time>2026-05-02T14:45:49.616Z</time></trkpt><trkpt lat="37.1948813" lon="9.3604291"><ele>48.0</ele><time>2026-05-02T14:45:50.62Z</time></trkpt><trkpt lat="37.1948225" lon="9.3606349"><ele>48.0</ele><time>2026-05-02T14:45:51.617Z</time></trkpt><trkpt lat="37.1947561" lon="9.3608554"><ele>53.66666666666667</ele><time>2026-05-02T14:45:52.622Z</time></trkpt><trkpt lat="37.194681" lon="9.3610706"><ele>59.333333333333336</ele><time>2026-05-02T14:45:53.621Z</time></trkpt><trkpt lat="37.1945977" lon="9.3612825"><ele>65.0</ele><time>2026-05-02T14:45:54.615Z</time></trkpt><trkpt lat="37.194517" lon="9.3614845"><ele>65.0</ele><time>2026-05-02T14:45:55.641Z</time></trkpt><trkpt lat="37.1944258" lon="9.3616797"><ele>65.0</ele><time>2026-05-02T14:45:56.608Z</time></trkpt><trkpt lat="37.1943279" lon="9.3618663"><ele>65.0</ele><time>2026-05-02T14:45:57.622Z</time></trkpt><trkpt lat="37.1942286" lon="9.3620443"><ele>64.66666666666667</ele><time>2026-05-02T14:45:58.619Z</time></trkpt><trkpt lat="37.1941292" lon="9.3622208"><ele>64.33333333333333</ele><time>2026-05-02T14:45:59.648Z</time></trkpt><trkpt lat="37.1940315" lon="9.3623895"><ele>64.0</ele><time>2026-05-02T14:46:00.624Z</time></trkpt><trkpt lat="37.1939356" lon="9.3625521"><ele>64.66666666666666</ele><time>2026-05-02T14:46:01.624Z</time></trkpt><trkpt lat="37.1938356" lon="9.3627207"><ele>65.33333333333333</ele><time>2026-05-02T14:46:02.624Z</time></trkpt><trkpt lat="37.193739" lon="9.3628834"><ele>66.0</ele><time>2026-05-02T14:46:03.626Z</time></trkpt><trkpt lat="37.1936295" lon="9.3630339"><ele>66.0</ele><time>2026-05-02T14:46:04.617Z</time></trkpt><trkpt lat="37.193503" lon="9.3631752"><ele>66.0</ele><time>2026-05-02T14:46:05.619Z</time></trkpt><trkpt lat="37.1933593" lon="9.3632989"><ele>66.0</ele><time>2026-05-02T14:46:06.631Z</time></trkpt><trkpt lat="37.1932129" lon="9.3634037"><ele>67.66666666666667</ele><time>2026-05-02T14:46:07.609Z</time></trkpt><trkpt lat="37.1930598" lon="9.363493"><ele>69.33333333333334</ele><time>2026-05-02T14:46:08.623Z</time></trkpt><trkpt lat="37.1929024" lon="9.3635581"><ele>71.0</ele><time>2026-05-02T14:46:09.629Z</time></trkpt><trkpt lat="37.192744" lon="9.3636135"><ele>71.0</ele><time>2026-05-02T14:46:10.616Z</time></trkpt><trkpt lat="37.1925848" lon="9.3636488"><ele>71.0</ele><time>2026-05-02T14:46:11.625Z</time></trkpt><trkpt lat="37.1924189" lon="9.3636527"><ele>71.0</ele><time>2026-05-02T14:46:12.617Z</time></trkpt><trkpt lat="37.1922546" lon="9.3636448"><ele>69.0</ele><time>2026-05-02T14:46:13.624Z</time></trkpt><trkpt lat="37.1920932" lon="9.3636201"><ele>67.0</ele><time>2026-05-02T14:46:14.624Z</time></trkpt><trkpt lat="37.1919373" lon="9.363573"><ele>65.0</ele><time>2026-05-02T14:46:15.618Z</time></trkpt><trkpt lat="37.191786" lon="9.3635313"><ele>65.0</ele><time>2026-05-02T14:46:16.622Z</time></trkpt><trkpt lat="37.1916408" lon="9.363485"><ele>65.0</ele><time>2026-05-02T14:46:17.62Z</time></trkpt><trkpt lat="37.1914899" lon="9.3634457"><ele>65.0</ele><time>2026-05-02T14:46:18.621Z</time></trkpt><trkpt lat="37.1913364" lon="9.3634215"><ele>62.0</ele><time>2026-05-02T14:46:19.65Z</time></trkpt><trkpt lat="37.1911777" lon="9.3634117"><ele>59.0</ele><time>2026-05-02T14:46:20.626Z</time></trkpt><trkpt lat="37.1910259" lon="9.3634161"><ele>56.0</ele><time>2026-05-02T14:46:21.623Z</time></trkpt><trkpt lat="37.1908738" lon="9.36344"><ele>56.0</ele><time>2026-05-02T14:46:22.629Z</time></trkpt><trkpt lat="37.190715" lon="9.3634874"><ele>56.0</ele><time>2026-05-02T14:46:23.624Z</time></trkpt><trkpt lat="37.1905567" lon="9.3635494"><ele>56.0</ele><time>2026-05-02T14:46:24.62Z</time></trkpt><trkpt lat="37.1904107" lon="9.3636348"><ele>54.333333333333336</ele><time>2026-05-02T14:46:25.631Z</time></trkpt><trkpt lat="37.1902683" lon="9.3637456"><ele>52.66666666666667</ele><time>2026-05-02T14:46:26.622Z</time></trkpt><trkpt lat="37.1901306" lon="9.3638632"><ele>51.0</ele><time>2026-05-02T14:46:27.616Z</time></trkpt><trkpt lat="37.1900002" lon="9.3639969"><ele>50.0</ele><time>2026-05-02T14:46:28.613Z</time></trkpt><trkpt lat="37.189884" lon="9.3641616"><ele>49.0</ele><time>2026-05-02T14:46:29.618Z</time></trkpt><trkpt lat="37.1897851" lon="9.364337"><ele>48.0</ele><time>2026-05-02T14:46:30.616Z</time></trkpt><trkpt lat="37.1897006" lon="9.3645177"><ele>47.333333333333336</ele><time>2026-05-02T14:46:31.619Z</time></trkpt><trkpt lat="37.1896219" lon="9.3647205"><ele>46.66666666666667</ele><time>2026-05-02T14:46:32.626Z</time></trkpt><trkpt lat="37.189565" lon="9.3649277"><ele>46.0</ele><time>2026-05-02T14:46:33.639Z</time></trkpt><trkpt lat="37.1895208" lon="9.3651291"><ele>46.0</ele><time>2026-05-02T14:46:34.621Z</time></trkpt><trkpt lat="37.1894861" lon="9.36533"><ele>46.0</ele><time>2026-05-02T14:46:35.621Z</time></trkpt><trkpt lat="37.1894533" lon="9.3655205"><ele>46.0</ele><time>2026-05-02T14:46:36.629Z</time></trkpt><trkpt lat="37.1894178" lon="9.365702"><ele>46.25</ele><time>2026-05-02T14:46:37.62Z</time></trkpt><trkpt lat="37.1893771" lon="9.3658759"><ele>46.5</ele><time>2026-05-02T14:46:38.621Z</time></trkpt><trkpt lat="37.1893305" lon="9.3660444"><ele>46.75</ele><time>2026-05-02T14:46:39.65Z</time></trkpt><trkpt lat="37.1892826" lon="9.3662216"><ele>47.0</ele><time>2026-05-02T14:46:40.621Z</time></trkpt><trkpt lat="37.1892209" lon="9.3663987"><ele>47.0</ele><time>2026-05-02T14:46:41.608Z</time></trkpt><trkpt lat="37.1891612" lon="9.3665764"><ele>47.0</ele><time>2026-05-02T14:46:42.627Z</time></trkpt><trkpt lat="37.1890908" lon="9.3667532"><ele>47.0</ele><time>2026-05-02T14:46:43.64Z</time></trkpt><trkpt lat="37.1890117" lon="9.3669272"><ele>47.0</ele><time>2026-05-02T14:46:44.624Z</time></trkpt><trkpt lat="37.188921" lon="9.3671111"><ele>47.0</ele><time>2026-05-02T14:46:45.618Z</time></trkpt><trkpt lat="37.188823" lon="9.3672894"><ele>47.0</ele><time>2026-05-02T14:46:46.628Z</time></trkpt><trkpt lat="37.1887179" lon="9.3674692"><ele>47.0</ele><time>2026-05-02T14:46:47.624Z</time></trkpt><trkpt lat="37.1886089" lon="9.3676368"><ele>47.0</ele><time>2026-05-02T14:46:48.631Z</time></trkpt><trkpt lat="37.1884908" lon="9.3678008"><ele>47.0</ele><time>2026-05-02T14:46:49.623Z</time></trkpt><trkpt lat="37.1883638" lon="9.3679574"><ele>46.33333333333333</ele><time>2026-05-02T14:46:50.619Z</time></trkpt><trkpt lat="37.1882335" lon="9.3681101"><ele>45.666666666666664</ele><time>2026-05-02T14:46:51.622Z</time></trkpt><trkpt lat="37.1880912" lon="9.3682555"><ele>45.0</ele><time>2026-05-02T14:46:52.621Z</time></trkpt><trkpt lat="37.1879563" lon="9.3684081"><ele>45.0</ele><time>2026-05-02T14:46:53.617Z</time></trkpt><trkpt lat="37.1878279" lon="9.3685541"><ele>45.0</ele><time>2026-05-02T14:46:54.64Z</time></trkpt><trkpt lat="37.187708" lon="9.368702"><ele>45.0</ele><time>2026-05-02T14:46:55.631Z</time></trkpt><trkpt lat="37.1875944" lon="9.3688537"><ele>44.666666666666664</ele><time>2026-05-02T14:46:56.627Z</time></trkpt><trkpt lat="37.1874928" lon="9.369015"><ele>44.33333333333333</ele><time>2026-05-02T14:46:57.615Z</time></trkpt><trkpt lat="37.1874026" lon="9.3691904"><ele>44.0</ele><time>2026-05-02T14:46:58.623Z</time></trkpt><trkpt lat="37.1873231" lon="9.3693755"><ele>44.0</ele><time>2026-05-02T14:46:59.62Z</time></trkpt><trkpt lat="37.1872524" lon="9.3695598"><ele>44.0</ele><time>2026-05-02T14:47:00.62Z</time></trkpt><trkpt lat="37.1871957" lon="9.3697566"><ele>44.0</ele><time>2026-05-02T14:47:01.623Z</time></trkpt><trkpt lat="37.1871436" lon="9.3699654"><ele>45.33333333333333</ele><time>2026-05-02T14:47:02.63Z</time></trkpt><trkpt lat="37.1871042" lon="9.3701728"><ele>46.666666666666664</ele><time>2026-05-02T14:47:03.632Z</time></trkpt><trkpt lat="37.1870774" lon="9.3703861"><ele>48.0</ele><time>2026-05-02T14:47:04.622Z</time></trkpt><trkpt lat="37.1870557" lon="9.370606"><ele>48.33333333333333</ele><time>2026-05-02T14:47:05.641Z</time></trkpt><trkpt lat="37.1870295" lon="9.370816"><ele>48.666666666666664</ele><time>2026-05-02T14:47:06.624Z</time></trkpt><trkpt lat="37.1870013" lon="9.3710157"><ele>49.0</ele><time>2026-05-02T14:47:07.613Z</time></trkpt><trkpt lat="37.1869698" lon="9.3712204"><ele>49.0</ele><time>2026-05-02T14:47:08.625Z</time></trkpt><trkpt lat="37.1869287" lon="9.3714289"><ele>49.0</ele><time>2026-05-02T14:47:09.625Z</time></trkpt><trkpt lat="37.1868907" lon="9.3716283"><ele>49.0</ele><time>2026-05-02T14:47:10.631Z</time></trkpt><trkpt lat="37.1868426" lon="9.3718261"><ele>49.0</ele><time>2026-05-02T14:47:11.636Z</time></trkpt><trkpt lat="37.1867856" lon="9.37202"><ele>49.0</ele><time>2026-05-02T14:47:12.628Z</time></trkpt><trkpt lat="37.1867285" lon="9.3722129"><ele>49.0</ele><time>2026-05-02T14:47:13.618Z</time></trkpt><trkpt lat="37.1866651" lon="9.3724038"><ele>49.33333333333333</ele><time>2026-05-02T14:47:14.641Z</time></trkpt><trkpt lat="37.1866024" lon="9.3725997"><ele>49.66666666666667</ele><time>2026-05-02T14:47:15.629Z</time></trkpt><trkpt lat="37.1865279" lon="9.3727974"><ele>50.0</ele><time>2026-05-02T14:47:16.626Z</time></trkpt><trkpt lat="37.1864476" lon="9.3729982"><ele>49.0</ele><time>2026-05-02T14:47:17.63Z</time></trkpt><trkpt lat="37.1863641" lon="9.3731926"><ele>48.0</ele><time>2026-05-02T14:47:18.625Z</time></trkpt><trkpt lat="37.1862746" lon="9.3733831"><ele>47.0</ele><time>2026-05-02T14:47:19.644Z</time></trkpt><trkpt lat="37.1861915" lon="9.3735776"><ele>47.0</ele><time>2026-05-02T14:47:20.639Z</time></trkpt><trkpt lat="37.1861063" lon="9.3737929"><ele>47.0</ele><time>2026-05-02T14:47:21.628Z</time></trkpt><trkpt lat="37.1860291" lon="9.3740096"><ele>47.0</ele><time>2026-05-02T14:47:22.629Z</time></trkpt><trkpt lat="37.1859608" lon="9.3742312"><ele>45.666666666666664</ele><time>2026-05-02T14:47:23.623Z</time></trkpt><trkpt lat="37.1859038" lon="9.3744569"><ele>44.333333333333336</ele><time>2026-05-02T14:47:24.624Z</time></trkpt><trkpt lat="37.1858522" lon="9.3746877"><ele>43.0</ele><time>2026-05-02T14:47:25.633Z</time></trkpt><trkpt lat="37.1858043" lon="9.3749281"><ele>42.333333333333336</ele><time>2026-05-02T14:47:26.622Z</time></trkpt><trkpt lat="37.1857647" lon="9.3751678"><ele>41.666666666666664</ele><time>2026-05-02T14:47:27.633Z</time></trkpt><trkpt lat="37.1857314" lon="9.3754164"><ele>41.0</ele><time>2026-05-02T14:47:28.627Z</time></trkpt><trkpt lat="37.185709" lon="9.3756696"><ele>41.0</ele><time>2026-05-02T14:47:29.623Z</time></trkpt><trkpt lat="37.18569" lon="9.3759346"><ele>41.0</ele><time>2026-05-02T14:47:30.623Z</time></trkpt><trkpt lat="37.1856865" lon="9.3761985"><ele>41.0</ele><time>2026-05-02T14:47:31.638Z</time></trkpt><trkpt lat="37.1856924" lon="9.3764554"><ele>40.666666666666664</ele><time>2026-05-02T14:47:32.617Z</time></trkpt><trkpt lat="37.1857065" lon="9.3767009"><ele>40.333333333333336</ele><time>2026-05-02T14:47:33.63Z</time></trkpt><trkpt lat="37.185726" lon="9.3769412"><ele>40.0</ele><time>2026-05-02T14:47:34.629Z</time></trkpt><trkpt lat="37.1857516" lon="9.3771851"><ele>40.0</ele><time>2026-05-02T14:47:35.619Z</time></trkpt><trkpt lat="37.1857936" lon="9.3774291"><ele>40.0</ele><time>2026-05-02T14:47:36.628Z</time></trkpt><trkpt lat="37.1858449" lon="9.3776734"><ele>40.0</ele><time>2026-05-02T14:47:37.622Z</time></trkpt><trkpt lat="37.1859014" lon="9.3779226"><ele>41.0</ele><time>2026-05-02T14:47:38.629Z</time></trkpt><trkpt lat="37.1859649" lon="9.378167"><ele>42.0</ele><time>2026-05-02T14:47:39.624Z</time></trkpt><trkpt lat="37.1860309" lon="9.3784136"><ele>43.0</ele><time>2026-05-02T14:47:40.625Z</time></trkpt><trkpt lat="37.1860938" lon="9.3786605"><ele>43.333333333333336</ele><time>2026-05-02T14:47:41.62Z</time></trkpt><trkpt lat="37.1861614" lon="9.3789021"><ele>43.666666666666664</ele><time>2026-05-02T14:47:42.636Z</time></trkpt><trkpt lat="37.1862279" lon="9.3791464"><ele>44.0</ele><time>2026-05-02T14:47:43.646Z</time></trkpt><trkpt lat="37.186292" lon="9.3793854"><ele>44.0</ele><time>2026-05-02T14:47:44.62Z</time></trkpt><trkpt lat="37.1863547" lon="9.3796263"><ele>44.0</ele><time>2026-05-02T14:47:45.618Z</time></trkpt><trkpt lat="37.1864097" lon="9.3798646"><ele>44.0</ele><time>2026-05-02T14:47:46.619Z</time></trkpt><trkpt lat="37.1864593" lon="9.380101"><ele>43.666666666666664</ele><time>2026-05-02T14:47:47.625Z</time></trkpt><trkpt lat="37.186504" lon="9.3803409"><ele>43.333333333333336</ele><time>2026-05-02T14:47:48.627Z</time></trkpt><trkpt lat="37.1865395" lon="9.3805786"><ele>43.0</ele><time>2026-05-02T14:47:49.624Z</time></trkpt><trkpt lat="37.1865693" lon="9.3808212"><ele>42.66666666666667</ele><time>2026-05-02T14:47:50.646Z</time></trkpt><trkpt lat="37.1865931" lon="9.3810641"><ele>42.333333333333336</ele><time>2026-05-02T14:47:51.626Z</time></trkpt><trkpt lat="37.1866078" lon="9.3813081"><ele>42.0</ele><time>2026-05-02T14:47:52.618Z</time></trkpt><trkpt lat="37.1866173" lon="9.3815488"><ele>42.0</ele><time>2026-05-02T14:47:53.62Z</time></trkpt><trkpt lat="37.1866248" lon="9.3817924"><ele>42.0</ele><time>2026-05-02T14:47:54.625Z</time></trkpt><trkpt lat="37.1866301" lon="9.382034"><ele>42.0</ele><time>2026-05-02T14:47:55.624Z</time></trkpt><trkpt lat="37.1866377" lon="9.3822859"><ele>42.0</ele><time>2026-05-02T14:47:56.619Z</time></trkpt><trkpt lat="37.1866468" lon="9.3825453"><ele>42.0</ele><time>2026-05-02T14:47:57.623Z</time></trkpt><trkpt lat="37.1866521" lon="9.382803"><ele>42.0</ele><time>2026-05-02T14:47:58.634Z</time></trkpt><trkpt lat="37.1866618" lon="9.3830587"><ele>41.333333333333336</ele><time>2026-05-02T14:47:59.65Z</time></trkpt><trkpt lat="37.1866732" lon="9.3833179"><ele>40.66666666666667</ele><time>2026-05-02T14:48:00.626Z</time></trkpt><trkpt lat="37.1866929" lon="9.3835752"><ele>40.0</ele><time>2026-05-02T14:48:01.617Z</time></trkpt><trkpt lat="37.1867195" lon="9.3838342"><ele>40.333333333333336</ele><time>2026-05-02T14:48:02.626Z</time></trkpt><trkpt lat="37.1867494" lon="9.3840907"><ele>40.666666666666664</ele><time>2026-05-02T14:48:03.623Z</time></trkpt><trkpt lat="37.1867883" lon="9.3843427"><ele>41.0</ele><time>2026-05-02T14:48:04.624Z</time></trkpt><trkpt lat="37.1868271" lon="9.3845898"><ele>41.666666666666664</ele><time>2026-05-02T14:48:05.621Z</time></trkpt><trkpt lat="37.1868704" lon="9.384838"><ele>42.333333333333336</ele><time>2026-05-02T14:48:06.633Z</time></trkpt><trkpt lat="37.1869205" lon="9.3850845"><ele>43.0</ele><time>2026-05-02T14:48:07.64Z</time></trkpt><trkpt lat="37.1869726" lon="9.3853301"><ele>44.0</ele><time>2026-05-02T14:48:08.623Z</time></trkpt><trkpt lat="37.1870316" lon="9.3855766"><ele>45.0</ele><time>2026-05-02T14:48:09.627Z</time></trkpt><trkpt lat="37.1870962" lon="9.385812"><ele>46.0</ele><time>2026-05-02T14:48:10.622Z</time></trkpt><trkpt lat="37.1871693" lon="9.3860534"><ele>46.0</ele><time>2026-05-02T14:48:11.621Z</time></trkpt><trkpt lat="37.187245" lon="9.3862944"><ele>46.0</ele><time>2026-05-02T14:48:12.626Z</time></trkpt><trkpt lat="37.1873285" lon="9.3865351"><ele>46.0</ele><time>2026-05-02T14:48:13.618Z</time></trkpt><trkpt lat="37.1874139" lon="9.3867745"><ele>46.333333333333336</ele><time>2026-05-02T14:48:14.628Z</time></trkpt><trkpt lat="37.1875059" lon="9.3870137"><ele>46.666666666666664</ele><time>2026-05-02T14:48:15.626Z</time></trkpt><trkpt lat="37.1876086" lon="9.3872495"><ele>47.0</ele><time>2026-05-02T14:48:16.624Z</time></trkpt><trkpt lat="37.1877074" lon="9.3874768"><ele>47.0</ele><time>2026-05-02T14:48:17.617Z</time></trkpt><trkpt lat="37.1878217" lon="9.3877115"><ele>47.0</ele><time>2026-05-02T14:48:18.626Z</time></trkpt><trkpt lat="37.1879399" lon="9.3879491"><ele>47.0</ele><time>2026-05-02T14:48:19.616Z</time></trkpt><trkpt lat="37.1880662" lon="9.3881848"><ele>45.0</ele><time>2026-05-02T14:48:20.618Z</time></trkpt><trkpt lat="37.1881978" lon="9.3884203"><ele>43.0</ele><time>2026-05-02T14:48:21.631Z</time></trkpt><trkpt lat="37.1883322" lon="9.3886417"><ele>43.66666666666667</ele><time>2026-05-02T14:48:22.627Z</time></trkpt><trkpt lat="37.1884731" lon="9.3888592"><ele>44.333333333333336</ele><time>2026-05-02T14:48:23.648Z</time></trkpt><trkpt lat="37.1886168" lon="9.3890719"><ele>45.0</ele><time>2026-05-02T14:48:24.634Z</time></trkpt><trkpt lat="37.188765" lon="9.3892761"><ele>45.0</ele><time>2026-05-02T14:48:25.621Z</time></trkpt><trkpt lat="37.188917" lon="9.3894728"><ele>45.0</ele><time>2026-05-02T14:48:26.613Z</time></trkpt><trkpt lat="37.1890703" lon="9.3896713"><ele>45.0</ele><time>2026-05-02T14:48:27.616Z</time></trkpt><trkpt lat="37.189226" lon="9.3898622"><ele>46.0</ele><time>2026-05-02T14:48:28.629Z</time></trkpt><trkpt lat="37.1893892" lon="9.3900456"><ele>47.0</ele><time>2026-05-02T14:48:29.626Z</time></trkpt><trkpt lat="37.1895584" lon="9.3902235"><ele>48.0</ele><time>2026-05-02T14:48:30.625Z</time></trkpt><trkpt lat="37.1897268" lon="9.3903968"><ele>47.666666666666664</ele><time>2026-05-02T14:48:31.623Z</time></trkpt><trkpt lat="37.1898953" lon="9.3905589"><ele>47.33333333333333</ele><time>2026-05-02T14:48:32.621Z</time></trkpt><trkpt lat="37.190069" lon="9.3907161"><ele>47.0</ele><time>2026-05-02T14:48:33.615Z</time></trkpt><trkpt lat="37.1902447" lon="9.3908693"><ele>47.0</ele><time>2026-05-02T14:48:34.621Z</time></trkpt><trkpt lat="37.1904254" lon="9.3910142"><ele>47.0</ele><time>2026-05-02T14:48:35.625Z</time></trkpt><trkpt lat="37.1906064" lon="9.3911504"><ele>47.0</ele><time>2026-05-02T14:48:36.634Z</time></trkpt><trkpt lat="37.190795" lon="9.3912804"><ele>46.666666666666664</ele><time>2026-05-02T14:48:37.615Z</time></trkpt><trkpt lat="37.1909865" lon="9.3914077"><ele>46.333333333333336</ele><time>2026-05-02T14:48:38.621Z</time></trkpt><trkpt lat="37.1911763" lon="9.3915293"><ele>46.0</ele><time>2026-05-02T14:48:39.635Z</time></trkpt><trkpt lat="37.1913723" lon="9.3916453"><ele>46.333333333333336</ele><time>2026-05-02T14:48:40.624Z</time></trkpt><trkpt lat="37.1915667" lon="9.3917525"><ele>46.666666666666664</ele><time>2026-05-02T14:48:41.635Z</time></trkpt><trkpt lat="37.1917662" lon="9.3918525"><ele>47.0</ele><time>2026-05-02T14:48:42.635Z</time></trkpt><trkpt lat="37.1919665" lon="9.3919471"><ele>47.0</ele><time>2026-05-02T14:48:43.624Z</time></trkpt><trkpt lat="37.1921713" lon="9.392036"><ele>47.0</ele><time>2026-05-02T14:48:44.622Z</time></trkpt><trkpt lat="37.1923769" lon="9.3921191"><ele>47.0</ele><time>2026-05-02T14:48:45.628Z</time></trkpt><trkpt lat="37.1925821" lon="9.3921912"><ele>47.33333333333333</ele><time>2026-05-02T14:48:46.619Z</time></trkpt><trkpt lat="37.1927894" lon="9.3922636"><ele>47.666666666666664</ele><time>2026-05-02T14:48:47.622Z</time></trkpt><trkpt lat="37.1929975" lon="9.3923326"><ele>48.0</ele><time>2026-05-02T14:48:48.612Z</time></trkpt><trkpt lat="37.1932059" lon="9.3924041"><ele>47.0</ele><time>2026-05-02T14:48:49.627Z</time></trkpt><trkpt lat="37.1934132" lon="9.3924732"><ele>46.0</ele><time>2026-05-02T14:48:50.625Z</time></trkpt><trkpt lat="37.1936221" lon="9.3925388"><ele>45.0</ele><time>2026-05-02T14:48:51.62Z</time></trkpt><trkpt lat="37.1938288" lon="9.3926057"><ele>44.333333333333336</ele><time>2026-05-02T14:48:52.646Z</time></trkpt><trkpt lat="37.1940333" lon="9.3926769"><ele>43.66666666666667</ele><time>2026-05-02T14:48:53.628Z</time></trkpt><trkpt lat="37.1942373" lon="9.392743"><ele>43.0</ele><time>2026-05-02T14:48:54.625Z</time></trkpt><trkpt lat="37.1944306" lon="9.3928113"><ele>43.0</ele><time>2026-05-02T14:48:55.625Z</time></trkpt><trkpt lat="37.1946185" lon="9.3928921"><ele>43.0</ele><time>2026-05-02T14:48:56.613Z</time></trkpt><trkpt lat="37.1947951" lon="9.3929801"><ele>43.0</ele><time>2026-05-02T14:48:57.614Z</time></trkpt><trkpt lat="37.1949602" lon="9.3930866"><ele>44.66666666666667</ele><time>2026-05-02T14:48:58.621Z</time></trkpt><trkpt lat="37.1951158" lon="9.3932059"><ele>46.333333333333336</ele><time>2026-05-02T14:48:59.623Z</time></trkpt><trkpt lat="37.195263" lon="9.3933374"><ele>48.0</ele><time>2026-05-02T14:49:00.642Z</time></trkpt><trkpt lat="37.1954057" lon="9.3934924"><ele>48.0</ele><time>2026-05-02T14:49:01.62Z</time></trkpt><trkpt lat="37.1955449" lon="9.3936575"><ele>48.0</ele><time>2026-05-02T14:49:02.62Z</time></trkpt><trkpt lat="37.1956657" lon="9.3938315"><ele>48.0</ele><time>2026-05-02T14:49:03.622Z</time></trkpt><trkpt lat="37.1957782" lon="9.3940249"><ele>49.0</ele><time>2026-05-02T14:49:04.622Z</time></trkpt><trkpt lat="37.1958714" lon="9.394224"><ele>50.0</ele><time>2026-05-02T14:49:05.616Z</time></trkpt><trkpt lat="37.1959525" lon="9.3944452"><ele>51.0</ele><time>2026-05-02T14:49:06.629Z</time></trkpt><trkpt lat="37.1960249" lon="9.3946696"><ele>50.66666666666667</ele><time>2026-05-02T14:49:07.618Z</time></trkpt><trkpt lat="37.1960843" lon="9.394896"><ele>50.333333333333336</ele><time>2026-05-02T14:49:08.637Z</time></trkpt><trkpt lat="37.1961277" lon="9.3951343"><ele>50.0</ele><time>2026-05-02T14:49:09.623Z</time></trkpt><trkpt lat="37.1961626" lon="9.3953818"><ele>50.0</ele><time>2026-05-02T14:49:10.619Z</time></trkpt><trkpt lat="37.1961932" lon="9.3956347"><ele>50.0</ele><time>2026-05-02T14:49:11.626Z</time></trkpt><trkpt lat="37.1962254" lon="9.3958809"><ele>50.0</ele><time>2026-05-02T14:49:12.621Z</time></trkpt><trkpt lat="37.1962502" lon="9.3961335"><ele>50.0</ele><time>2026-05-02T14:49:13.621Z</time></trkpt><trkpt lat="37.1962762" lon="9.396391"><ele>50.0</ele><time>2026-05-02T14:49:14.626Z</time></trkpt><trkpt lat="37.1963034" lon="9.3966488"><ele>50.0</ele><time>2026-05-02T14:49:15.631Z</time></trkpt><trkpt lat="37.1963334" lon="9.3969101"><ele>50.333333333333336</ele><time>2026-05-02T14:49:16.625Z</time></trkpt><trkpt lat="37.1963591" lon="9.3971701"><ele>50.66666666666667</ele><time>2026-05-02T14:49:17.626Z</time></trkpt><trkpt lat="37.1963864" lon="9.3974223"><ele>51.0</ele><time>2026-05-02T14:49:18.621Z</time></trkpt><trkpt lat="37.1964169" lon="9.3976739"><ele>51.0</ele><time>2026-05-02T14:49:19.651Z</time></trkpt><trkpt lat="37.1964454" lon="9.397922"><ele>51.0</ele><time>2026-05-02T14:49:20.614Z</time></trkpt><trkpt lat="37.1964709" lon="9.398155"><ele>51.0</ele><time>2026-05-02T14:49:21.626Z</time></trkpt><trkpt lat="37.1964942" lon="9.3983831"><ele>54.33333333333333</ele><time>2026-05-02T14:49:22.621Z</time></trkpt><trkpt lat="37.1965242" lon="9.3986068"><ele>57.666666666666664</ele><time>2026-05-02T14:49:23.64Z</time></trkpt><trkpt lat="37.1965552" lon="9.3988159"><ele>61.0</ele><time>2026-05-02T14:49:24.625Z</time></trkpt><trkpt lat="37.1965924" lon="9.399026"><ele>61.33333333333333</ele><time>2026-05-02T14:49:25.615Z</time></trkpt><trkpt lat="37.1966365" lon="9.3992318"><ele>61.66666666666667</ele><time>2026-05-02T14:49:26.621Z</time></trkpt><trkpt lat="37.1966851" lon="9.399437"><ele>62.0</ele><time>2026-05-02T14:49:27.629Z</time></trkpt><trkpt lat="37.1967465" lon="9.3996469"><ele>61.66666666666667</ele><time>2026-05-02T14:49:28.625Z</time></trkpt><trkpt lat="37.1968098" lon="9.3998532"><ele>61.33333333333333</ele><time>2026-05-02T14:49:29.616Z</time></trkpt><trkpt lat="37.1968818" lon="9.4000618"><ele>61.0</ele><time>2026-05-02T14:49:30.625Z</time></trkpt><trkpt lat="37.1969564" lon="9.4002735"><ele>61.0</ele><time>2026-05-02T14:49:31.622Z</time></trkpt><trkpt lat="37.1970342" lon="9.4004823"><ele>61.0</ele><time>2026-05-02T14:49:32.617Z</time></trkpt><trkpt lat="37.1971099" lon="9.4006929"><ele>61.0</ele><time>2026-05-02T14:49:33.615Z</time></trkpt><trkpt lat="37.1971933" lon="9.4009102"><ele>61.0</ele><time>2026-05-02T14:49:34.631Z</time></trkpt><trkpt lat="37.1972797" lon="9.4011237"><ele>61.0</ele><time>2026-05-02T14:49:35.623Z</time></trkpt><trkpt lat="37.1973591" lon="9.4013383"><ele>61.0</ele><time>2026-05-02T14:49:36.656Z</time></trkpt><trkpt lat="37.1974357" lon="9.4015531"><ele>61.0</ele><time>2026-05-02T14:49:37.621Z</time></trkpt><trkpt lat="37.1975088" lon="9.4017751"><ele>61.0</ele><time>2026-05-02T14:49:38.624Z</time></trkpt><trkpt lat="37.1975746" lon="9.4020012"><ele>61.0</ele><time>2026-05-02T14:49:39.629Z</time></trkpt><trkpt lat="37.1976311" lon="9.4022431"><ele>61.0</ele><time>2026-05-02T14:49:40.625Z</time></trkpt><trkpt lat="37.19768" lon="9.4024752"><ele>61.0</ele><time>2026-05-02T14:49:41.618Z</time></trkpt><trkpt lat="37.197719" lon="9.4027181"><ele>61.0</ele><time>2026-05-02T14:49:42.623Z</time></trkpt><trkpt lat="37.1977582" lon="9.4029535"><ele>61.33333333333333</ele><time>2026-05-02T14:49:43.623Z</time></trkpt><trkpt lat="37.1977916" lon="9.4031864"><ele>61.66666666666667</ele><time>2026-05-02T14:49:44.621Z</time></trkpt><trkpt lat="37.1978324" lon="9.4034189"><ele>62.0</ele><time>2026-05-02T14:49:45.629Z</time></trkpt><trkpt lat="37.1978799" lon="9.4036462"><ele>62.333333333333336</ele><time>2026-05-02T14:49:46.629Z</time></trkpt><trkpt lat="37.1979345" lon="9.4038676"><ele>62.66666666666667</ele><time>2026-05-02T14:49:47.62Z</time></trkpt><trkpt lat="37.1979979" lon="9.4040877"><ele>63.0</ele><time>2026-05-02T14:49:48.623Z</time></trkpt><trkpt lat="37.1980646" lon="9.4043068"><ele>63.0</ele><time>2026-05-02T14:49:49.629Z</time></trkpt><trkpt lat="37.1981426" lon="9.4045246"><ele>63.0</ele><time>2026-05-02T14:49:50.627Z</time></trkpt><trkpt lat="37.1982388" lon="9.4047352"><ele>63.0</ele><time>2026-05-02T14:49:51.639Z</time></trkpt><trkpt lat="37.198349" lon="9.404938"><ele>65.0</ele><time>2026-05-02T14:49:52.625Z</time></trkpt><trkpt lat="37.1984717" lon="9.4051341"><ele>67.0</ele><time>2026-05-02T14:49:53.626Z</time></trkpt><trkpt lat="37.1986127" lon="9.4053229"><ele>69.0</ele><time>2026-05-02T14:49:54.621Z</time></trkpt><trkpt lat="37.1987602" lon="9.4055046"><ele>69.66666666666667</ele><time>2026-05-02T14:49:55.617Z</time></trkpt><trkpt lat="37.1989123" lon="9.40568"><ele>70.33333333333334</ele><time>2026-05-02T14:49:56.626Z</time></trkpt><trkpt lat="37.1990663" lon="9.4058424"><ele>71.0</ele><time>2026-05-02T14:49:57.629Z</time></trkpt><trkpt lat="37.1992195" lon="9.4060075"><ele>72.0</ele><time>2026-05-02T14:49:58.623Z</time></trkpt><trkpt lat="37.1993675" lon="9.4061748"><ele>73.0</ele><time>2026-05-02T14:49:59.628Z</time></trkpt><trkpt lat="37.1995106" lon="9.4063394"><ele>74.0</ele><time>2026-05-02T14:50:00.641Z</time></trkpt><trkpt lat="37.199643" lon="9.4065073"><ele>74.33333333333334</ele><time>2026-05-02T14:50:01.642Z</time></trkpt><trkpt lat="37.1997625" lon="9.4066818"><ele>74.66666666666667</ele><time>2026-05-02T14:50:02.618Z</time></trkpt><trkpt lat="37.1998748" lon="9.406871"><ele>75.0</ele><time>2026-05-02T14:50:03.617Z</time></trkpt><trkpt lat="37.1999841" lon="9.4070721"><ele>75.66666666666667</ele><time>2026-05-02T14:50:04.608Z</time></trkpt><trkpt lat="37.2000794" lon="9.4072843"><ele>76.33333333333334</ele><time>2026-05-02T14:50:05.626Z</time></trkpt><trkpt lat="37.2001689" lon="9.4075006"><ele>77.0</ele><time>2026-05-02T14:50:06.628Z</time></trkpt><trkpt lat="37.2002472" lon="9.4077252"><ele>77.0</ele><time>2026-05-02T14:50:07.634Z</time></trkpt><trkpt lat="37.2003223" lon="9.407967"><ele>77.0</ele><time>2026-05-02T14:50:08.621Z</time></trkpt><trkpt lat="37.2003928" lon="9.4082075"><ele>77.0</ele><time>2026-05-02T14:50:09.627Z</time></trkpt><trkpt lat="37.2004689" lon="9.4084432"><ele>79.33333333333334</ele><time>2026-05-02T14:50:10.629Z</time></trkpt><trkpt lat="37.2005464" lon="9.4086808"><ele>81.66666666666667</ele><time>2026-05-02T14:50:11.627Z</time></trkpt><trkpt lat="37.2006256" lon="9.4089194"><ele>84.0</ele><time>2026-05-02T14:50:12.632Z</time></trkpt><trkpt lat="37.200701" lon="9.4091536"><ele>84.33333333333333</ele><time>2026-05-02T14:50:13.618Z</time></trkpt><trkpt lat="37.2007788" lon="9.4093858"><ele>84.66666666666666</ele><time>2026-05-02T14:50:14.622Z</time></trkpt><trkpt lat="37.2008557" lon="9.4096184"><ele>85.0</ele><time>2026-05-02T14:50:15.619Z</time></trkpt><trkpt lat="37.2009313" lon="9.4098467"><ele>86.33333333333333</ele><time>2026-05-02T14:50:16.635Z</time></trkpt><trkpt lat="37.2010048" lon="9.410075"><ele>87.66666666666667</ele><time>2026-05-02T14:50:17.643Z</time></trkpt><trkpt lat="37.2010819" lon="9.4102961"><ele>89.0</ele><time>2026-05-02T14:50:18.627Z</time></trkpt><trkpt lat="37.2011589" lon="9.4105158"><ele>90.66666666666667</ele><time>2026-05-02T14:50:19.632Z</time></trkpt><trkpt lat="37.2012336" lon="9.4107356"><ele>92.33333333333333</ele><time>2026-05-02T14:50:20.624Z</time></trkpt><trkpt lat="37.2013093" lon="9.4109536"><ele>94.0</ele><time>2026-05-02T14:50:21.625Z</time></trkpt><trkpt lat="37.2013857" lon="9.4111781"><ele>93.33333333333333</ele><time>2026-05-02T14:50:22.619Z</time></trkpt><trkpt lat="37.2014619" lon="9.4114068"><ele>92.66666666666667</ele><time>2026-05-02T14:50:23.624Z</time></trkpt><trkpt lat="37.2015384" lon="9.4116317"><ele>92.0</ele><time>2026-05-02T14:50:24.631Z</time></trkpt><trkpt lat="37.2016186" lon="9.4118642"><ele>92.0</ele><time>2026-05-02T14:50:25.626Z</time></trkpt><trkpt lat="37.2016995" lon="9.4120976"><ele>92.0</ele><time>2026-05-02T14:50:26.619Z</time></trkpt><trkpt lat="37.2017826" lon="9.4123336"><ele>92.0</ele><time>2026-05-02T14:50:27.629Z</time></trkpt><trkpt lat="37.2018709" lon="9.4125721"><ele>90.66666666666667</ele><time>2026-05-02T14:50:28.626Z</time></trkpt><trkpt lat="37.2019588" lon="9.4128159"><ele>89.33333333333333</ele><time>2026-05-02T14:50:29.619Z</time></trkpt><trkpt lat="37.2020455" lon="9.4130622"><ele>88.0</ele><time>2026-05-02T14:50:30.641Z</time></trkpt><trkpt lat="37.202132" lon="9.4133136"><ele>86.33333333333333</ele><time>2026-05-02T14:50:31.627Z</time></trkpt><trkpt lat="37.2022201" lon="9.4135564"><ele>84.66666666666667</ele><time>2026-05-02T14:50:32.631Z</time></trkpt><trkpt lat="37.2023014" lon="9.413797"><ele>83.0</ele><time>2026-05-02T14:50:33.628Z</time></trkpt><trkpt lat="37.2023774" lon="9.4140327"><ele>79.0</ele><time>2026-05-02T14:50:34.625Z</time></trkpt><trkpt lat="37.2024524" lon="9.4142577"><ele>75.0</ele><time>2026-05-02T14:50:35.631Z</time></trkpt><trkpt lat="37.2025185" lon="9.4144714"><ele>71.0</ele><time>2026-05-02T14:50:36.625Z</time></trkpt><trkpt lat="37.2025847" lon="9.414691"><ele>70.33333333333334</ele><time>2026-05-02T14:50:37.617Z</time></trkpt><trkpt lat="37.2026425" lon="9.4149008"><ele>69.66666666666667</ele><time>2026-05-02T14:50:38.624Z</time></trkpt><trkpt lat="37.2026953" lon="9.4151077"><ele>69.0</ele><time>2026-05-02T14:50:39.639Z</time></trkpt><trkpt lat="37.202739" lon="9.4153196"><ele>69.33333333333333</ele><time>2026-05-02T14:50:40.625Z</time></trkpt><trkpt lat="37.2027734" lon="9.4155283"><ele>69.66666666666666</ele><time>2026-05-02T14:50:41.609Z</time></trkpt><trkpt lat="37.2027995" lon="9.415741"><ele>70.0</ele><time>2026-05-02T14:50:42.615Z</time></trkpt><trkpt lat="37.2028202" lon="9.4159569"><ele>70.0</ele><time>2026-05-02T14:50:43.625Z</time></trkpt><trkpt lat="37.2028466" lon="9.4161719"><ele>70.0</ele><time>2026-05-02T14:50:44.623Z</time></trkpt><trkpt lat="37.2028664" lon="9.4163849"><ele>70.0</ele><time>2026-05-02T14:50:45.633Z</time></trkpt><trkpt lat="37.2028853" lon="9.416606"><ele>69.0</ele><time>2026-05-02T14:50:46.625Z</time></trkpt><trkpt lat="37.2028984" lon="9.4168257"><ele>68.0</ele><time>2026-05-02T14:50:47.619Z</time></trkpt><trkpt lat="37.2029132" lon="9.41705"><ele>67.0</ele><time>2026-05-02T14:50:48.618Z</time></trkpt><trkpt lat="37.2029322" lon="9.4172799"><ele>65.66666666666666</ele><time>2026-05-02T14:50:49.63Z</time></trkpt><trkpt lat="37.2029562" lon="9.4175115"><ele>64.33333333333333</ele><time>2026-05-02T14:50:50.617Z</time></trkpt><trkpt lat="37.2029851" lon="9.4177456"><ele>63.0</ele><time>2026-05-02T14:50:51.624Z</time></trkpt><trkpt lat="37.2030127" lon="9.4179847"><ele>61.66666666666667</ele><time>2026-05-02T14:50:52.614Z</time></trkpt><trkpt lat="37.2030452" lon="9.4182231"><ele>60.333333333333336</ele><time>2026-05-02T14:50:53.623Z</time></trkpt><trkpt lat="37.2030888" lon="9.4184584"><ele>59.0</ele><time>2026-05-02T14:50:54.625Z</time></trkpt><trkpt lat="37.2031496" lon="9.4186839"><ele>57.66666666666667</ele><time>2026-05-02T14:50:55.623Z</time></trkpt><trkpt lat="37.2032265" lon="9.4189071"><ele>56.33333333333333</ele><time>2026-05-02T14:50:56.622Z</time></trkpt><trkpt lat="37.2033209" lon="9.4191151"><ele>55.0</ele><time>2026-05-02T14:50:57.626Z</time></trkpt><trkpt lat="37.2034329" lon="9.419313"><ele>55.0</ele><time>2026-05-02T14:50:58.649Z</time></trkpt><trkpt lat="37.2035614" lon="9.4195013"><ele>55.0</ele><time>2026-05-02T14:50:59.623Z</time></trkpt><trkpt lat="37.2037004" lon="9.4196738"><ele>55.0</ele><time>2026-05-02T14:51:00.624Z</time></trkpt><trkpt lat="37.2038551" lon="9.4198307"><ele>56.0</ele><time>2026-05-02T14:51:01.618Z</time></trkpt><trkpt lat="37.2040113" lon="9.4199727"><ele>57.0</ele><time>2026-05-02T14:51:02.623Z</time></trkpt><trkpt lat="37.2041742" lon="9.4201047"><ele>58.0</ele><time>2026-05-02T14:51:03.623Z</time></trkpt><trkpt lat="37.2043364" lon="9.4202325"><ele>58.0</ele><time>2026-05-02T14:51:04.623Z</time></trkpt><trkpt lat="37.2044986" lon="9.4203628"><ele>58.0</ele><time>2026-05-02T14:51:05.625Z</time></trkpt><trkpt lat="37.2046574" lon="9.4204976"><ele>58.0</ele><time>2026-05-02T14:51:06.627Z</time></trkpt><trkpt lat="37.204813" lon="9.4206394"><ele>57.33333333333333</ele><time>2026-05-02T14:51:07.613Z</time></trkpt><trkpt lat="37.2049606" lon="9.4207897"><ele>56.66666666666667</ele><time>2026-05-02T14:51:08.627Z</time></trkpt><trkpt lat="37.2050926" lon="9.4209586"><ele>56.0</ele><time>2026-05-02T14:51:09.612Z</time></trkpt><trkpt lat="37.2052219" lon="9.421153"><ele>56.66666666666667</ele><time>2026-05-02T14:51:10.631Z</time></trkpt><trkpt lat="37.2053414" lon="9.4213601"><ele>57.33333333333333</ele><time>2026-05-02T14:51:11.62Z</time></trkpt><trkpt lat="37.2054495" lon="9.4215809"><ele>58.0</ele><time>2026-05-02T14:51:12.618Z</time></trkpt><trkpt lat="37.2055469" lon="9.4218133"><ele>58.0</ele><time>2026-05-02T14:51:13.621Z</time></trkpt><trkpt lat="37.20564" lon="9.4220414"><ele>58.0</ele><time>2026-05-02T14:51:14.622Z</time></trkpt><trkpt lat="37.2057394" lon="9.422272"><ele>58.0</ele><time>2026-05-02T14:51:15.619Z</time></trkpt><trkpt lat="37.2058342" lon="9.4224944"><ele>59.33333333333333</ele><time>2026-05-02T14:51:16.626Z</time></trkpt><trkpt lat="37.2059273" lon="9.4227164"><ele>60.66666666666667</ele><time>2026-05-02T14:51:17.624Z</time></trkpt><trkpt lat="37.2060187" lon="9.4229361"><ele>62.0</ele><time>2026-05-02T14:51:18.62Z</time></trkpt><trkpt lat="37.2061127" lon="9.4231502"><ele>62.0</ele><time>2026-05-02T14:51:19.637Z</time></trkpt><trkpt lat="37.2062021" lon="9.4233675"><ele>62.0</ele><time>2026-05-02T14:51:20.616Z</time></trkpt><trkpt lat="37.206293" lon="9.4235877"><ele>62.0</ele><time>2026-05-02T14:51:21.627Z</time></trkpt><trkpt lat="37.2063807" lon="9.423802"><ele>62.0</ele><time>2026-05-02T14:51:22.623Z</time></trkpt><trkpt lat="37.2064704" lon="9.4240189"><ele>62.0</ele><time>2026-05-02T14:51:23.626Z</time></trkpt><trkpt lat="37.2065602" lon="9.4242393"><ele>62.0</ele><time>2026-05-02T14:51:24.626Z</time></trkpt><trkpt lat="37.2066483" lon="9.4244683"><ele>63.333333333333336</ele><time>2026-05-02T14:51:25.613Z</time></trkpt><trkpt lat="37.2067353" lon="9.4246959"><ele>64.66666666666667</ele><time>2026-05-02T14:51:26.616Z</time></trkpt><trkpt lat="37.2068156" lon="9.4249239"><ele>66.0</ele><time>2026-05-02T14:51:27.62Z</time></trkpt><trkpt lat="37.2068856" lon="9.4251499"><ele>66.0</ele><time>2026-05-02T14:51:28.62Z</time></trkpt><trkpt lat="37.2069528" lon="9.4253725"><ele>66.0</ele><time>2026-05-02T14:51:29.624Z</time></trkpt><trkpt lat="37.20701" lon="9.4255976"><ele>66.0</ele><time>2026-05-02T14:51:30.621Z</time></trkpt><trkpt lat="37.2070698" lon="9.4258173"><ele>66.33333333333333</ele><time>2026-05-02T14:51:31.625Z</time></trkpt><trkpt lat="37.2071236" lon="9.4260445"><ele>66.66666666666666</ele><time>2026-05-02T14:51:32.619Z</time></trkpt><trkpt lat="37.2071825" lon="9.4262731"><ele>67.0</ele><time>2026-05-02T14:51:33.636Z</time></trkpt><trkpt lat="37.2072484" lon="9.4265051"><ele>68.33333333333333</ele><time>2026-05-02T14:51:34.621Z</time></trkpt><trkpt lat="37.207309" lon="9.4267501"><ele>69.66666666666667</ele><time>2026-05-02T14:51:35.622Z</time></trkpt><trkpt lat="37.2073662" lon="9.4269961"><ele>71.0</ele><time>2026-05-02T14:51:36.636Z</time></trkpt><trkpt lat="37.2074253" lon="9.4272399"><ele>73.66666666666667</ele><time>2026-05-02T14:51:37.626Z</time></trkpt><trkpt lat="37.207485" lon="9.427478"><ele>76.33333333333333</ele><time>2026-05-02T14:51:38.622Z</time></trkpt><trkpt lat="37.2075432" lon="9.4277096"><ele>79.0</ele><time>2026-05-02T14:51:39.622Z</time></trkpt><trkpt lat="37.207597" lon="9.4279409"><ele>79.33333333333333</ele><time>2026-05-02T14:51:40.641Z</time></trkpt><trkpt lat="37.2076526" lon="9.4281684"><ele>79.66666666666667</ele><time>2026-05-02T14:51:41.623Z</time></trkpt><trkpt lat="37.2077071" lon="9.4283953"><ele>80.0</ele><time>2026-05-02T14:51:42.616Z</time></trkpt><trkpt lat="37.2077615" lon="9.4286204"><ele>80.33333333333334</ele><time>2026-05-02T14:51:43.611Z</time></trkpt><trkpt lat="37.2078195" lon="9.4288485"><ele>80.66666666666667</ele><time>2026-05-02T14:51:44.612Z</time></trkpt><trkpt lat="37.2078775" lon="9.4290813"><ele>81.0</ele><time>2026-05-02T14:51:45.622Z</time></trkpt><trkpt lat="37.2079381" lon="9.4293091"><ele>81.0</ele><time>2026-05-02T14:51:46.614Z</time></trkpt><trkpt lat="37.2080035" lon="9.4295344"><ele>81.0</ele><time>2026-05-02T14:51:47.619Z</time></trkpt><trkpt lat="37.2080816" lon="9.4297582"><ele>81.0</ele><time>2026-05-02T14:51:48.615Z</time></trkpt><trkpt lat="37.2081696" lon="9.4299833"><ele>83.0</ele><time>2026-05-02T14:51:49.634Z</time></trkpt><trkpt lat="37.2082693" lon="9.4301956"><ele>85.0</ele><time>2026-05-02T14:51:50.642Z</time></trkpt><trkpt lat="37.2083844" lon="9.4303949"><ele>87.0</ele><time>2026-05-02T14:51:51.654Z</time></trkpt><trkpt lat="37.2085125" lon="9.4305838"><ele>87.0</ele><time>2026-05-02T14:51:52.65Z</time></trkpt><trkpt lat="37.2086542" lon="9.4307669"><ele>87.0</ele><time>2026-05-02T14:51:53.615Z</time></trkpt><trkpt lat="37.2087944" lon="9.4309446"><ele>87.0</ele><time>2026-05-02T14:51:54.616Z</time></trkpt><trkpt lat="37.2089221" lon="9.4311184"><ele>88.0</ele><time>2026-05-02T14:51:55.627Z</time></trkpt><trkpt lat="37.209035" lon="9.431289"><ele>89.0</ele><time>2026-05-02T14:51:56.62Z</time></trkpt><trkpt lat="37.2091328" lon="9.4314651"><ele>90.0</ele><time>2026-05-02T14:51:57.62Z</time></trkpt><trkpt lat="37.2092137" lon="9.4316372"><ele>90.0</ele><time>2026-05-02T14:51:58.615Z</time></trkpt><trkpt lat="37.2092887" lon="9.4318261"><ele>90.0</ele><time>2026-05-02T14:51:59.618Z</time></trkpt><trkpt lat="37.2093542" lon="9.4320307"><ele>90.0</ele><time>2026-05-02T14:52:00.619Z</time></trkpt><trkpt lat="37.2094165" lon="9.4322338"><ele>90.66666666666667</ele><time>2026-05-02T14:52:01.609Z</time></trkpt><trkpt lat="37.2094756" lon="9.4324514"><ele>91.33333333333334</ele><time>2026-05-02T14:52:02.618Z</time></trkpt><trkpt lat="37.2095371" lon="9.4326664"><ele>92.0</ele><time>2026-05-02T14:52:03.631Z</time></trkpt><trkpt lat="37.2095973" lon="9.4328783"><ele>93.0</ele><time>2026-05-02T14:52:04.623Z</time></trkpt><trkpt lat="37.2096532" lon="9.4330928"><ele>94.0</ele><time>2026-05-02T14:52:05.621Z</time></trkpt><trkpt lat="37.2097084" lon="9.4333157"><ele>95.0</ele><time>2026-05-02T14:52:06.621Z</time></trkpt><trkpt lat="37.2097594" lon="9.4335413"><ele>95.0</ele><time>2026-05-02T14:52:07.61Z</time></trkpt><trkpt lat="37.2098118" lon="9.4337723"><ele>95.0</ele><time>2026-05-02T14:52:08.62Z</time></trkpt><trkpt lat="37.2098629" lon="9.4339944"><ele>95.0</ele><time>2026-05-02T14:52:09.631Z</time></trkpt><trkpt lat="37.2099074" lon="9.4342214"><ele>97.0</ele><time>2026-05-02T14:52:10.628Z</time></trkpt><trkpt lat="37.2099416" lon="9.4344486"><ele>99.0</ele><time>2026-05-02T14:52:11.619Z</time></trkpt><trkpt lat="37.2099708" lon="9.434673"><ele>101.0</ele><time>2026-05-02T14:52:12.624Z</time></trkpt><trkpt lat="37.2100014" lon="9.434896"><ele>102.33333333333333</ele><time>2026-05-02T14:52:13.622Z</time></trkpt><trkpt lat="37.2100302" lon="9.4351214"><ele>103.66666666666666</ele><time>2026-05-02T14:52:14.626Z</time></trkpt><trkpt lat="37.2100556" lon="9.435344"><ele>105.0</ele><time>2026-05-02T14:52:15.618Z</time></trkpt><trkpt lat="37.2100845" lon="9.4355636"><ele>106.66666666666666</ele><time>2026-05-02T14:52:16.629Z</time></trkpt><trkpt lat="37.2101095" lon="9.4357928"><ele>108.33333333333333</ele><time>2026-05-02T14:52:17.618Z</time></trkpt><trkpt lat="37.2101348" lon="9.4360367"><ele>110.0</ele><time>2026-05-02T14:52:18.628Z</time></trkpt><trkpt lat="37.2101572" lon="9.436285"><ele>109.66666666666666</ele><time>2026-05-02T14:52:19.621Z</time></trkpt><trkpt lat="37.2101785" lon="9.4365307"><ele>109.33333333333334</ele><time>2026-05-02T14:52:20.619Z</time></trkpt><trkpt lat="37.210204" lon="9.4367889"><ele>109.0</ele><time>2026-05-02T14:52:21.625Z</time></trkpt><trkpt lat="37.2102296" lon="9.4370512"><ele>111.33333333333334</ele><time>2026-05-02T14:52:22.617Z</time></trkpt><trkpt lat="37.2102586" lon="9.4373083"><ele>113.66666666666666</ele><time>2026-05-02T14:52:23.619Z</time></trkpt><trkpt lat="37.2102866" lon="9.4375548"><ele>116.0</ele><time>2026-05-02T14:52:24.618Z</time></trkpt><trkpt lat="37.2103165" lon="9.4378045"><ele>116.66666666666666</ele><time>2026-05-02T14:52:25.618Z</time></trkpt><trkpt lat="37.2103514" lon="9.4380499"><ele>117.33333333333334</ele><time>2026-05-02T14:52:26.622Z</time></trkpt><trkpt lat="37.2103872" lon="9.4382858"><ele>118.0</ele><time>2026-05-02T14:52:27.637Z</time></trkpt><trkpt lat="37.210422" lon="9.4385122"><ele>118.0</ele><time>2026-05-02T14:52:28.619Z</time></trkpt><trkpt lat="37.2104689" lon="9.4387336"><ele>118.0</ele><time>2026-05-02T14:52:29.622Z</time></trkpt><trkpt lat="37.2105142" lon="9.4389561"><ele>118.0</ele><time>2026-05-02T14:52:30.619Z</time></trkpt><trkpt lat="37.2105677" lon="9.4391752"><ele>119.33333333333334</ele><time>2026-05-02T14:52:31.625Z</time></trkpt><trkpt lat="37.2106304" lon="9.4394067"><ele>120.66666666666666</ele><time>2026-05-02T14:52:32.623Z</time></trkpt><trkpt lat="37.2107017" lon="9.4396476"><ele>122.0</ele><time>2026-05-02T14:52:33.621Z</time></trkpt><trkpt lat="37.2107864" lon="9.4398819"><ele>122.0</ele><time>2026-05-02T14:52:34.617Z</time></trkpt><trkpt lat="37.2108801" lon="9.4401135"><ele>122.0</ele><time>2026-05-02T14:52:35.612Z</time></trkpt><trkpt lat="37.2109774" lon="9.4403374"><ele>122.0</ele><time>2026-05-02T14:52:36.622Z</time></trkpt><trkpt lat="37.21108" lon="9.4405603"><ele>124.66666666666666</ele><time>2026-05-02T14:52:37.619Z</time></trkpt><trkpt lat="37.2111828" lon="9.440783"><ele>127.33333333333334</ele><time>2026-05-02T14:52:38.633Z</time></trkpt><trkpt lat="37.2112795" lon="9.4410037"><ele>130.0</ele><time>2026-05-02T14:52:39.614Z</time></trkpt><trkpt lat="37.2113682" lon="9.4412284"><ele>128.33333333333334</ele><time>2026-05-02T14:52:40.621Z</time></trkpt><trkpt lat="37.2114546" lon="9.4414517"><ele>126.66666666666666</ele><time>2026-05-02T14:52:41.612Z</time></trkpt><trkpt lat="37.2115346" lon="9.4416847"><ele>125.0</ele><time>2026-05-02T14:52:42.612Z</time></trkpt><trkpt lat="37.2116048" lon="9.4419346"><ele>126.66666666666666</ele><time>2026-05-02T14:52:43.632Z</time></trkpt><trkpt lat="37.2116763" lon="9.4421931"><ele>128.33333333333334</ele><time>2026-05-02T14:52:44.61Z</time></trkpt><trkpt lat="37.2117408" lon="9.4424641"><ele>130.0</ele><time>2026-05-02T14:52:45.627Z</time></trkpt><trkpt lat="37.2117979" lon="9.442732"><ele>131.33333333333334</ele><time>2026-05-02T14:52:46.619Z</time></trkpt><trkpt lat="37.2118541" lon="9.4429993"><ele>132.66666666666666</ele><time>2026-05-02T14:52:47.618Z</time></trkpt><trkpt lat="37.2119076" lon="9.4432685"><ele>134.0</ele><time>2026-05-02T14:52:48.619Z</time></trkpt><trkpt lat="37.2119618" lon="9.4435333"><ele>136.0</ele><time>2026-05-02T14:52:49.62Z</time></trkpt><trkpt lat="37.2120138" lon="9.4438017"><ele>138.0</ele><time>2026-05-02T14:52:50.627Z</time></trkpt><trkpt lat="37.2120637" lon="9.4440697"><ele>140.0</ele><time>2026-05-02T14:52:51.626Z</time></trkpt><trkpt lat="37.2121219" lon="9.4443405"><ele>140.0</ele><time>2026-05-02T14:52:52.619Z</time></trkpt><trkpt lat="37.2121768" lon="9.4446173"><ele>140.0</ele><time>2026-05-02T14:52:53.622Z</time></trkpt><trkpt lat="37.2122357" lon="9.4448953"><ele>139.0</ele><time>2026-05-02T14:52:54.621Z</time></trkpt><trkpt lat="37.2122886" lon="9.4451814"><ele>138.0</ele><time>2026-05-02T14:52:55.613Z</time></trkpt><trkpt lat="37.2123445" lon="9.4454664"><ele>138.0</ele><time>2026-05-02T14:52:56.621Z</time></trkpt><trkpt lat="37.2123979" lon="9.445751"><ele>138.0</ele><time>2026-05-02T14:52:57.623Z</time></trkpt><trkpt lat="37.2124537" lon="9.4460347"><ele>140.0</ele><time>2026-05-02T14:52:58.647Z</time></trkpt><trkpt lat="37.2125128" lon="9.4463171"><ele>142.0</ele><time>2026-05-02T14:52:59.617Z</time></trkpt><trkpt lat="37.2125667" lon="9.4465937"><ele>142.0</ele><time>2026-05-02T14:53:00.62Z</time></trkpt><trkpt lat="37.2126225" lon="9.4468738"><ele>142.0</ele><time>2026-05-02T14:53:01.619Z</time></trkpt><trkpt lat="37.2126737" lon="9.447157"><ele>143.0</ele><time>2026-05-02T14:53:02.621Z</time></trkpt><trkpt lat="37.2127144" lon="9.4474434"><ele>144.0</ele><time>2026-05-02T14:53:03.626Z</time></trkpt><trkpt lat="37.2127499" lon="9.4477368"><ele>146.5</ele><time>2026-05-02T14:53:04.628Z</time></trkpt><trkpt lat="37.2127802" lon="9.4480216"><ele>149.0</ele><time>2026-05-02T14:53:05.622Z</time></trkpt><trkpt lat="37.2128053" lon="9.4483048"><ele>149.0</ele><time>2026-05-02T14:53:06.627Z</time></trkpt><trkpt lat="37.2128334" lon="9.4485937"><ele>149.0</ele><time>2026-05-02T14:53:07.62Z</time></trkpt><trkpt lat="37.2128594" lon="9.448882"><ele>152.0</ele><time>2026-05-02T14:53:08.627Z</time></trkpt><trkpt lat="37.2128825" lon="9.4491729"><ele>155.0</ele><time>2026-05-02T14:53:09.621Z</time></trkpt><trkpt lat="37.2129077" lon="9.4494576"><ele>156.0</ele><time>2026-05-02T14:53:10.618Z</time></trkpt><trkpt lat="37.2129342" lon="9.4497494"><ele>157.0</ele><time>2026-05-02T14:53:11.615Z</time></trkpt><trkpt lat="37.2129642" lon="9.4500372"><ele>157.0</ele><time>2026-05-02T14:53:12.627Z</time></trkpt><trkpt lat="37.212991" lon="9.4503232"><ele>157.0</ele><time>2026-05-02T14:53:13.645Z</time></trkpt><trkpt lat="37.2130137" lon="9.4506098"><ele>158.5</ele><time>2026-05-02T14:53:14.617Z</time></trkpt><trkpt lat="37.2130388" lon="9.4508941"><ele>160.0</ele><time>2026-05-02T14:53:15.629Z</time></trkpt><trkpt lat="37.2130652" lon="9.4511759"><ele>162.0</ele><time>2026-05-02T14:53:16.629Z</time></trkpt><trkpt lat="37.2130929" lon="9.451465"><ele>164.0</ele><time>2026-05-02T14:53:17.623Z</time></trkpt><trkpt lat="37.2131215" lon="9.4517485"><ele>164.0</ele><time>2026-05-02T14:53:18.629Z</time></trkpt><trkpt lat="37.2131487" lon="9.4520311"><ele>164.0</ele><time>2026-05-02T14:53:19.617Z</time></trkpt><trkpt lat="37.2131699" lon="9.4523263"><ele>160.0</ele><time>2026-05-02T14:53:20.639Z</time></trkpt><trkpt lat="37.2131861" lon="9.452614"><ele>156.0</ele><time>2026-05-02T14:53:21.617Z</time></trkpt><trkpt lat="37.2131931" lon="9.4529016"><ele>157.33333333333334</ele><time>2026-05-02T14:53:22.62Z</time></trkpt><trkpt lat="37.2131828" lon="9.4531877"><ele>158.66666666666669</ele><time>2026-05-02T14:53:23.622Z</time></trkpt><trkpt lat="37.2131616" lon="9.4534551"><ele>160.0</ele><time>2026-05-02T14:53:24.623Z</time></trkpt><trkpt lat="37.2131325" lon="9.4537036"><ele>165.0</ele><time>2026-05-02T14:53:25.627Z</time></trkpt><trkpt lat="37.2130914" lon="9.453933"><ele>170.0</ele><time>2026-05-02T14:53:26.627Z</time></trkpt><trkpt lat="37.2130489" lon="9.4541503"><ele>175.0</ele><time>2026-05-02T14:53:27.627Z</time></trkpt><trkpt lat="37.2129956" lon="9.4543668"><ele>175.0</ele><time>2026-05-02T14:53:28.628Z</time></trkpt><trkpt lat="37.2129313" lon="9.4545883"><ele>175.0</ele><time>2026-05-02T14:53:29.627Z</time></trkpt><trkpt lat="37.2128564" lon="9.4548089"><ele>175.0</ele><time>2026-05-02T14:53:30.643Z</time></trkpt><trkpt lat="37.2127684" lon="9.4550237"><ele>175.0</ele><time>2026-05-02T14:53:31.624Z</time></trkpt><trkpt lat="37.2126701" lon="9.4552339"><ele>175.0</ele><time>2026-05-02T14:53:32.622Z</time></trkpt><trkpt lat="37.2125687" lon="9.4554502"><ele>175.0</ele><time>2026-05-02T14:53:33.633Z</time></trkpt><trkpt lat="37.2124683" lon="9.4556652"><ele>174.0</ele><time>2026-05-02T14:53:34.632Z</time></trkpt><trkpt lat="37.212371" lon="9.4558719"><ele>173.0</ele><time>2026-05-02T14:53:35.63Z</time></trkpt><trkpt lat="37.2122789" lon="9.4560869"><ele>172.0</ele><time>2026-05-02T14:53:36.631Z</time></trkpt><trkpt lat="37.2121897" lon="9.4562955"><ele>176.66666666666669</ele><time>2026-05-02T14:53:37.628Z</time></trkpt><trkpt lat="37.2120995" lon="9.4565067"><ele>181.33333333333334</ele><time>2026-05-02T14:53:38.626Z</time></trkpt><trkpt lat="37.2120156" lon="9.4567231"><ele>186.0</ele><time>2026-05-02T14:53:39.622Z</time></trkpt><trkpt lat="37.2119457" lon="9.4569601"><ele>186.0</ele><time>2026-05-02T14:53:40.624Z</time></trkpt><trkpt lat="37.2118884" lon="9.4571979"><ele>186.0</ele><time>2026-05-02T14:53:41.62Z</time></trkpt><trkpt lat="37.2118403" lon="9.4574391"><ele>186.0</ele><time>2026-05-02T14:53:42.621Z</time></trkpt><trkpt lat="37.2117965" lon="9.4576895"><ele>186.0</ele><time>2026-05-02T14:53:43.628Z</time></trkpt><trkpt lat="37.2117634" lon="9.4579334"><ele>186.0</ele><time>2026-05-02T14:53:44.623Z</time></trkpt><trkpt lat="37.2117361" lon="9.4581753"><ele>186.0</ele><time>2026-05-02T14:53:45.625Z</time></trkpt><trkpt lat="37.2117188" lon="9.4584245"><ele>185.0</ele><time>2026-05-02T14:53:46.626Z</time></trkpt><trkpt lat="37.2117167" lon="9.4586762"><ele>184.0</ele><time>2026-05-02T14:53:47.634Z</time></trkpt><trkpt lat="37.2117197" lon="9.4589308"><ele>183.0</ele><time>2026-05-02T14:53:48.616Z</time></trkpt><trkpt lat="37.2117341" lon="9.4591786"><ele>182.66666666666666</ele><time>2026-05-02T14:53:49.623Z</time></trkpt><trkpt lat="37.2117651" lon="9.4594334"><ele>182.33333333333331</ele><time>2026-05-02T14:53:50.621Z</time></trkpt><trkpt lat="37.2118027" lon="9.4596823"><ele>182.0</ele><time>2026-05-02T14:53:51.627Z</time></trkpt><trkpt lat="37.2118481" lon="9.4599344"><ele>181.33333333333331</ele><time>2026-05-02T14:53:52.613Z</time></trkpt><trkpt lat="37.2119087" lon="9.4601906"><ele>180.66666666666666</ele><time>2026-05-02T14:53:53.617Z</time></trkpt><trkpt lat="37.2119773" lon="9.4604351"><ele>180.0</ele><time>2026-05-02T14:53:54.622Z</time></trkpt><trkpt lat="37.2120599" lon="9.4606774"><ele>181.66666666666666</ele><time>2026-05-02T14:53:55.624Z</time></trkpt><trkpt lat="37.2121534" lon="9.4609145"><ele>183.33333333333331</ele><time>2026-05-02T14:53:56.627Z</time></trkpt><trkpt lat="37.2122573" lon="9.461145"><ele>185.0</ele><time>2026-05-02T14:53:57.621Z</time></trkpt><trkpt lat="37.2123631" lon="9.4613778"><ele>180.66666666666666</ele><time>2026-05-02T14:53:58.624Z</time></trkpt><trkpt lat="37.2124774" lon="9.4616094"><ele>176.33333333333334</ele><time>2026-05-02T14:53:59.621Z</time></trkpt><trkpt lat="37.2125913" lon="9.4618312"><ele>172.0</ele><time>2026-05-02T14:54:00.627Z</time></trkpt><trkpt lat="37.2127014" lon="9.4620533"><ele>172.33333333333334</ele><time>2026-05-02T14:54:01.624Z</time></trkpt><trkpt lat="37.2128112" lon="9.462273"><ele>172.66666666666666</ele><time>2026-05-02T14:54:02.626Z</time></trkpt><trkpt lat="37.2129221" lon="9.4624933"><ele>173.0</ele><time>2026-05-02T14:54:03.62Z</time></trkpt><trkpt lat="37.2130314" lon="9.4627087"><ele>173.0</ele><time>2026-05-02T14:54:04.627Z</time></trkpt><trkpt lat="37.2131408" lon="9.4629202"><ele>173.0</ele><time>2026-05-02T14:54:05.648Z</time></trkpt><trkpt lat="37.2132467" lon="9.4631352"><ele>173.0</ele><time>2026-05-02T14:54:06.623Z</time></trkpt><trkpt lat="37.2133535" lon="9.4633517"><ele>171.66666666666666</ele><time>2026-05-02T14:54:07.623Z</time></trkpt><trkpt lat="37.2134602" lon="9.4635677"><ele>170.33333333333334</ele><time>2026-05-02T14:54:08.636Z</time></trkpt><trkpt lat="37.2135694" lon="9.4637834"><ele>169.0</ele><time>2026-05-02T14:54:09.664Z</time></trkpt><trkpt lat="37.2136753" lon="9.4639938"><ele>167.66666666666669</ele><time>2026-05-02T14:54:10.622Z</time></trkpt><trkpt lat="37.2137786" lon="9.4641977"><ele>166.33333333333334</ele><time>2026-05-02T14:54:11.623Z</time></trkpt><trkpt lat="37.2138801" lon="9.4644058"><ele>165.0</ele><time>2026-05-02T14:54:12.632Z</time></trkpt><trkpt lat="37.2139822" lon="9.4646099"><ele>163.66666666666666</ele><time>2026-05-02T14:54:13.621Z</time></trkpt><trkpt lat="37.214086" lon="9.4648074"><ele>162.33333333333331</ele><time>2026-05-02T14:54:14.63Z</time></trkpt><trkpt lat="37.2141868" lon="9.4649964"><ele>161.0</ele><time>2026-05-02T14:54:15.629Z</time></trkpt><trkpt lat="37.2142837" lon="9.4651701"><ele>161.0</ele><time>2026-05-02T14:54:16.629Z</time></trkpt><trkpt lat="37.2143764" lon="9.4653433"><ele>161.0</ele><time>2026-05-02T14:54:17.622Z</time></trkpt><trkpt lat="37.2144637" lon="9.465518"><ele>161.0</ele><time>2026-05-02T14:54:18.623Z</time></trkpt><trkpt lat="37.214557" lon="9.4657011"><ele>159.0</ele><time>2026-05-02T14:54:19.617Z</time></trkpt><trkpt lat="37.2146637" lon="9.4658769"><ele>157.0</ele><time>2026-05-02T14:54:20.64Z</time></trkpt><trkpt lat="37.2147812" lon="9.4660401"><ele>155.0</ele><time>2026-05-02T14:54:21.626Z</time></trkpt><trkpt lat="37.2148995" lon="9.4661941"><ele>152.33333333333331</ele><time>2026-05-02T14:54:22.627Z</time></trkpt><trkpt lat="37.2150227" lon="9.4663328"><ele>149.66666666666666</ele><time>2026-05-02T14:54:23.64Z</time></trkpt><trkpt lat="37.2151475" lon="9.4664691"><ele>147.0</ele><time>2026-05-02T14:54:24.617Z</time></trkpt><trkpt lat="37.2152734" lon="9.4665974"><ele>147.0</ele><time>2026-05-02T14:54:25.614Z</time></trkpt><trkpt lat="37.2153987" lon="9.466725"><ele>147.0</ele><time>2026-05-02T14:54:26.615Z</time></trkpt><trkpt lat="37.2155244" lon="9.4668477"><ele>147.0</ele><time>2026-05-02T14:54:27.614Z</time></trkpt><trkpt lat="37.2156416" lon="9.4669663"><ele>148.0</ele><time>2026-05-02T14:54:28.624Z</time></trkpt><trkpt lat="37.2157495" lon="9.4670755"><ele>149.0</ele><time>2026-05-02T14:54:29.611Z</time></trkpt><trkpt lat="37.2158482" lon="9.467176"><ele>150.0</ele><time>2026-05-02T14:54:30.623Z</time></trkpt><trkpt lat="37.2159293" lon="9.4672547"><ele>151.0</ele><time>2026-05-02T14:54:31.616Z</time></trkpt><trkpt lat="37.2159984" lon="9.4673185"><ele>149.85714285714286</ele><time>2026-05-02T14:54:32.623Z</time></trkpt><trkpt lat="37.2160585" lon="9.4673768"><ele>148.71428571428572</ele><time>2026-05-02T14:54:33.614Z</time></trkpt><trkpt lat="37.2161089" lon="9.4674332"><ele>147.57142857142856</ele><time>2026-05-02T14:54:34.626Z</time></trkpt><trkpt lat="37.2161583" lon="9.467498"><ele>146.42857142857144</ele><time>2026-05-02T14:54:35.614Z</time></trkpt><trkpt lat="37.216217" lon="9.4675629"><ele>145.28571428571428</ele><time>2026-05-02T14:54:36.616Z</time></trkpt><trkpt lat="37.2162744" lon="9.4676262"><ele>144.14285714285714</ele><time>2026-05-02T14:54:37.624Z</time></trkpt><trkpt lat="37.2163314" lon="9.4676872"><ele>143.0</ele><time>2026-05-02T14:54:38.621Z</time></trkpt><trkpt lat="37.2163861" lon="9.4677465"><ele>143.0</ele><time>2026-05-02T14:54:39.614Z</time></trkpt><trkpt lat="37.2164454" lon="9.4678106"><ele>143.0</ele><time>2026-05-02T14:54:40.617Z</time></trkpt><trkpt lat="37.2164967" lon="9.4678876"><ele>143.0</ele><time>2026-05-02T14:54:41.611Z</time></trkpt><trkpt lat="37.2165412" lon="9.4679612"><ele>143.0</ele><time>2026-05-02T14:54:42.614Z</time></trkpt><trkpt lat="37.2165846" lon="9.4680359"><ele>143.0</ele><time>2026-05-02T14:54:43.613Z</time></trkpt><trkpt lat="37.2166273" lon="9.468107"><ele>143.0</ele><time>2026-05-02T14:54:44.619Z</time></trkpt><trkpt lat="37.2166677" lon="9.4681842"><ele>142.57142857142856</ele><time>2026-05-02T14:54:45.62Z</time></trkpt><trkpt lat="37.2167047" lon="9.4682694"><ele>142.14285714285714</ele><time>2026-05-02T14:54:46.616Z</time></trkpt><trkpt lat="37.2167357" lon="9.4683499"><ele>141.71428571428572</ele><time>2026-05-02T14:54:47.608Z</time></trkpt><trkpt lat="37.2167647" lon="9.4684285"><ele>141.28571428571428</ele><time>2026-05-02T14:54:48.612Z</time></trkpt><trkpt lat="37.2167947" lon="9.4685093"><ele>140.85714285714286</ele><time>2026-05-02T14:54:49.622Z</time></trkpt><trkpt lat="37.2168242" lon="9.4685902"><ele>140.42857142857142</ele><time>2026-05-02T14:54:50.617Z</time></trkpt><trkpt lat="37.2168559" lon="9.4686735"><ele>140.0</ele><time>2026-05-02T14:54:51.647Z</time></trkpt><trkpt lat="37.2168804" lon="9.4687515"><ele>139.33333333333331</ele><time>2026-05-02T14:54:52.621Z</time></trkpt><trkpt lat="37.2169003" lon="9.4688309"><ele>138.66666666666666</ele><time>2026-05-02T14:54:53.625Z</time></trkpt><trkpt lat="37.2169511" lon="9.4689721"><ele>138.0</ele><time>2026-05-02T14:54:55.624Z</time></trkpt><trkpt lat="37.2169734" lon="9.4690484"><ele>137.33333333333334</ele><time>2026-05-02T14:54:56.614Z</time></trkpt><trkpt lat="37.2170001" lon="9.4691288"><ele>136.66666666666669</ele><time>2026-05-02T14:54:57.622Z</time></trkpt><trkpt lat="37.2170321" lon="9.469208"><ele>136.0</ele><time>2026-05-02T14:54:58.623Z</time></trkpt><trkpt lat="37.2170621" lon="9.4692942"><ele>136.0</ele><time>2026-05-02T14:54:59.623Z</time></trkpt><trkpt lat="37.2171054" lon="9.4693779"><ele>136.0</ele><time>2026-05-02T14:55:00.62Z</time></trkpt><trkpt lat="37.2171608" lon="9.4694884"><ele>136.0</ele><time>2026-05-02T14:55:01.616Z</time></trkpt><trkpt lat="37.217227" lon="9.4696313"><ele>136.0</ele><time>2026-05-02T14:55:02.628Z</time></trkpt><trkpt lat="37.2173" lon="9.4697857"><ele>136.75</ele><time>2026-05-02T14:55:03.624Z</time></trkpt><trkpt lat="37.2173756" lon="9.4699356"><ele>137.5</ele><time>2026-05-02T14:55:04.62Z</time></trkpt><trkpt lat="37.2174581" lon="9.4700915"><ele>138.25</ele><time>2026-05-02T14:55:05.625Z</time></trkpt><trkpt lat="37.2175509" lon="9.4702516"><ele>139.0</ele><time>2026-05-02T14:55:06.619Z</time></trkpt><trkpt lat="37.2176454" lon="9.4704023"><ele>136.33333333333334</ele><time>2026-05-02T14:55:07.608Z</time></trkpt><trkpt lat="37.2177381" lon="9.4705622"><ele>133.66666666666666</ele><time>2026-05-02T14:55:08.632Z</time></trkpt><trkpt lat="37.2178361" lon="9.4707217"><ele>131.0</ele><time>2026-05-02T14:55:09.628Z</time></trkpt><trkpt lat="37.2179286" lon="9.4708858"><ele>131.0</ele><time>2026-05-02T14:55:10.624Z</time></trkpt><trkpt lat="37.2180191" lon="9.4710483"><ele>131.0</ele><time>2026-05-02T14:55:11.613Z</time></trkpt><trkpt lat="37.2181068" lon="9.4712093"><ele>131.0</ele><time>2026-05-02T14:55:12.621Z</time></trkpt><trkpt lat="37.2181897" lon="9.4713697"><ele>131.75</ele><time>2026-05-02T14:55:13.617Z</time></trkpt><trkpt lat="37.2182647" lon="9.4715301"><ele>132.5</ele><time>2026-05-02T14:55:14.616Z</time></trkpt><trkpt lat="37.2183436" lon="9.4716908"><ele>133.25</ele><time>2026-05-02T14:55:15.62Z</time></trkpt><trkpt lat="37.2184232" lon="9.4718485"><ele>134.0</ele><time>2026-05-02T14:55:16.622Z</time></trkpt><trkpt lat="37.2185027" lon="9.4720045"><ele>131.66666666666666</ele><time>2026-05-02T14:55:17.619Z</time></trkpt><trkpt lat="37.2185877" lon="9.4721532"><ele>129.33333333333334</ele><time>2026-05-02T14:55:18.611Z</time></trkpt><trkpt lat="37.2186833" lon="9.4722948"><ele>127.0</ele><time>2026-05-02T14:55:19.642Z</time></trkpt><trkpt lat="37.2187895" lon="9.4724403"><ele>127.0</ele><time>2026-05-02T14:55:20.624Z</time></trkpt><trkpt lat="37.2188979" lon="9.4725834"><ele>127.0</ele><time>2026-05-02T14:55:21.627Z</time></trkpt><trkpt lat="37.2190087" lon="9.4727282"><ele>127.0</ele><time>2026-05-02T14:55:22.625Z</time></trkpt><trkpt lat="37.2191208" lon="9.4728751"><ele>126.33333333333334</ele><time>2026-05-02T14:55:23.62Z</time></trkpt><trkpt lat="37.2192267" lon="9.4730295"><ele>125.66666666666666</ele><time>2026-05-02T14:55:24.624Z</time></trkpt><trkpt lat="37.2193231" lon="9.4731839"><ele>125.0</ele><time>2026-05-02T14:55:25.626Z</time></trkpt><trkpt lat="37.2194193" lon="9.4733465"><ele>125.0</ele><time>2026-05-02T14:55:26.621Z</time></trkpt><trkpt lat="37.2195012" lon="9.4735244"><ele>125.0</ele><time>2026-05-02T14:55:27.623Z</time></trkpt><trkpt lat="37.2195733" lon="9.4737202"><ele>125.0</ele><time>2026-05-02T14:55:28.621Z</time></trkpt><trkpt lat="37.2196266" lon="9.4739152"><ele>123.0</ele><time>2026-05-02T14:55:29.619Z</time></trkpt><trkpt lat="37.2196602" lon="9.4741254"><ele>121.0</ele><time>2026-05-02T14:55:30.635Z</time></trkpt><trkpt lat="37.2196819" lon="9.4743371"><ele>119.0</ele><time>2026-05-02T14:55:31.623Z</time></trkpt><trkpt lat="37.2196942" lon="9.4745631"><ele>117.66666666666666</ele><time>2026-05-02T14:55:32.611Z</time></trkpt><trkpt lat="37.2196991" lon="9.4747827"><ele>116.33333333333334</ele><time>2026-05-02T14:55:33.616Z</time></trkpt><trkpt lat="37.2197019" lon="9.4749922"><ele>115.0</ele><time>2026-05-02T14:55:34.621Z</time></trkpt><trkpt lat="37.2197032" lon="9.4751891"><ele>115.0</ele><time>2026-05-02T14:55:35.621Z</time></trkpt><trkpt lat="37.2197128" lon="9.475369"><ele>115.0</ele><time>2026-05-02T14:55:36.623Z</time></trkpt><trkpt lat="37.219717" lon="9.47555"><ele>115.0</ele><time>2026-05-02T14:55:37.618Z</time></trkpt><trkpt lat="37.2197104" lon="9.4757316"><ele>115.0</ele><time>2026-05-02T14:55:38.652Z</time></trkpt><trkpt lat="37.2196773" lon="9.4759259"><ele>113.66666666666667</ele><time>2026-05-02T14:55:39.638Z</time></trkpt><trkpt lat="37.2196437" lon="9.4761271"><ele>112.33333333333334</ele><time>2026-05-02T14:55:40.626Z</time></trkpt><trkpt lat="37.2196122" lon="9.4763305"><ele>111.0</ele><time>2026-05-02T14:55:41.62Z</time></trkpt><trkpt lat="37.2195755" lon="9.4765374"><ele>110.33333333333334</ele><time>2026-05-02T14:55:42.625Z</time></trkpt><trkpt lat="37.2195367" lon="9.476743"><ele>109.66666666666667</ele><time>2026-05-02T14:55:43.619Z</time></trkpt><trkpt lat="37.2195001" lon="9.476947"><ele>109.0</ele><time>2026-05-02T14:55:44.621Z</time></trkpt><trkpt lat="37.219475" lon="9.4771474"><ele>108.33333333333334</ele><time>2026-05-02T14:55:45.617Z</time></trkpt><trkpt lat="37.2194408" lon="9.4773382"><ele>107.66666666666666</ele><time>2026-05-02T14:55:46.623Z</time></trkpt><trkpt lat="37.2193998" lon="9.4775278"><ele>107.0</ele><time>2026-05-02T14:55:47.624Z</time></trkpt><trkpt lat="37.2193652" lon="9.4777332"><ele>105.33333333333333</ele><time>2026-05-02T14:55:48.614Z</time></trkpt><trkpt lat="37.2193353" lon="9.4779408"><ele>103.66666666666666</ele><time>2026-05-02T14:55:49.618Z</time></trkpt><trkpt lat="37.2193225" lon="9.478157"><ele>102.0</ele><time>2026-05-02T14:55:50.621Z</time></trkpt><trkpt lat="37.2193179" lon="9.4783704"><ele>102.0</ele><time>2026-05-02T14:55:51.641Z</time></trkpt><trkpt lat="37.2193274" lon="9.4785861"><ele>102.0</ele><time>2026-05-02T14:55:52.609Z</time></trkpt><trkpt lat="37.2193499" lon="9.4788067"><ele>102.0</ele><time>2026-05-02T14:55:53.626Z</time></trkpt><trkpt lat="37.2193851" lon="9.479033"><ele>100.0</ele><time>2026-05-02T14:55:54.616Z</time></trkpt><trkpt lat="37.2194291" lon="9.4792558"><ele>98.0</ele><time>2026-05-02T14:55:55.623Z</time></trkpt><trkpt lat="37.2194838" lon="9.4794841"><ele>96.0</ele><time>2026-05-02T14:55:56.616Z</time></trkpt><trkpt lat="37.2195433" lon="9.4797021"><ele>95.66666666666667</ele><time>2026-05-02T14:55:57.619Z</time></trkpt><trkpt lat="37.2196095" lon="9.4799251"><ele>95.33333333333334</ele><time>2026-05-02T14:55:58.62Z</time></trkpt><trkpt lat="37.2196729" lon="9.4801487"><ele>95.0</ele><time>2026-05-02T14:55:59.62Z</time></trkpt><trkpt lat="37.2197367" lon="9.4803742"><ele>94.33333333333334</ele><time>2026-05-02T14:56:00.622Z</time></trkpt><trkpt lat="37.2198042" lon="9.4805997"><ele>93.66666666666667</ele><time>2026-05-02T14:56:01.633Z</time></trkpt><trkpt lat="37.2198689" lon="9.4808249"><ele>93.0</ele><time>2026-05-02T14:56:02.622Z</time></trkpt><trkpt lat="37.2199311" lon="9.481049"><ele>91.0</ele><time>2026-05-02T14:56:03.627Z</time></trkpt><trkpt lat="37.2199931" lon="9.4812795"><ele>89.0</ele><time>2026-05-02T14:56:04.608Z</time></trkpt><trkpt lat="37.2200494" lon="9.4815121"><ele>87.0</ele><time>2026-05-02T14:56:05.618Z</time></trkpt><trkpt lat="37.2200984" lon="9.4817484"><ele>87.0</ele><time>2026-05-02T14:56:06.627Z</time></trkpt><trkpt lat="37.2201395" lon="9.4819863"><ele>87.0</ele><time>2026-05-02T14:56:07.624Z</time></trkpt><trkpt lat="37.2201687" lon="9.482226"><ele>87.0</ele><time>2026-05-02T14:56:08.62Z</time></trkpt><trkpt lat="37.2201822" lon="9.4824606"><ele>86.33333333333333</ele><time>2026-05-02T14:56:09.626Z</time></trkpt><trkpt lat="37.2201879" lon="9.4826993"><ele>85.66666666666666</ele><time>2026-05-02T14:56:10.631Z</time></trkpt><trkpt lat="37.2201765" lon="9.4829278"><ele>85.0</ele><time>2026-05-02T14:56:11.624Z</time></trkpt><trkpt lat="37.2201488" lon="9.4831524"><ele>83.66666666666666</ele><time>2026-05-02T14:56:12.617Z</time></trkpt><trkpt lat="37.2201113" lon="9.4833626"><ele>82.33333333333333</ele><time>2026-05-02T14:56:13.615Z</time></trkpt><trkpt lat="37.220062" lon="9.4835645"><ele>81.0</ele><time>2026-05-02T14:56:14.613Z</time></trkpt><trkpt lat="37.2200009" lon="9.4837542"><ele>80.66666666666667</ele><time>2026-05-02T14:56:15.621Z</time></trkpt><trkpt lat="37.2199225" lon="9.483937"><ele>80.33333333333334</ele><time>2026-05-02T14:56:16.615Z</time></trkpt><trkpt lat="37.2198367" lon="9.4841176"><ele>80.0</ele><time>2026-05-02T14:56:17.615Z</time></trkpt><trkpt lat="37.2197482" lon="9.4842799"><ele>81.0</ele><time>2026-05-02T14:56:18.617Z</time></trkpt><trkpt lat="37.2196646" lon="9.4844565"><ele>82.0</ele><time>2026-05-02T14:56:19.616Z</time></trkpt><trkpt lat="37.2195861" lon="9.4846419"><ele>83.0</ele><time>2026-05-02T14:56:20.618Z</time></trkpt><trkpt lat="37.2195172" lon="9.48484"><ele>81.33333333333334</ele><time>2026-05-02T14:56:21.626Z</time></trkpt><trkpt lat="37.2194588" lon="9.4850548"><ele>79.66666666666667</ele><time>2026-05-02T14:56:22.625Z</time></trkpt><trkpt lat="37.2194124" lon="9.4852791"><ele>78.0</ele><time>2026-05-02T14:56:23.625Z</time></trkpt><trkpt lat="37.2193726" lon="9.4855072"><ele>78.0</ele><time>2026-05-02T14:56:24.626Z</time></trkpt><trkpt lat="37.2193408" lon="9.4857454"><ele>78.0</ele><time>2026-05-02T14:56:25.619Z</time></trkpt><trkpt lat="37.219312" lon="9.4859895"><ele>78.0</ele><time>2026-05-02T14:56:26.654Z</time></trkpt><trkpt lat="37.2192849" lon="9.4862458"><ele>77.33333333333333</ele><time>2026-05-02T14:56:27.631Z</time></trkpt><trkpt lat="37.2192508" lon="9.4865002"><ele>76.66666666666666</ele><time>2026-05-02T14:56:28.612Z</time></trkpt><trkpt lat="37.2192181" lon="9.4867514"><ele>76.0</ele><time>2026-05-02T14:56:29.622Z</time></trkpt><trkpt lat="37.2191888" lon="9.4869981"><ele>76.33333333333333</ele><time>2026-05-02T14:56:30.615Z</time></trkpt><trkpt lat="37.2191585" lon="9.4872511"><ele>76.66666666666667</ele><time>2026-05-02T14:56:31.622Z</time></trkpt><trkpt lat="37.2191247" lon="9.4874941"><ele>77.0</ele><time>2026-05-02T14:56:32.625Z</time></trkpt><trkpt lat="37.2190897" lon="9.4877232"><ele>77.33333333333334</ele><time>2026-05-02T14:56:33.637Z</time></trkpt><trkpt lat="37.2190428" lon="9.4879448"><ele>77.66666666666667</ele><time>2026-05-02T14:56:34.621Z</time></trkpt><trkpt lat="37.2189872" lon="9.4881583"><ele>78.0</ele><time>2026-05-02T14:56:35.618Z</time></trkpt><trkpt lat="37.2189138" lon="9.4883642"><ele>78.0</ele><time>2026-05-02T14:56:36.624Z</time></trkpt><trkpt lat="37.2188345" lon="9.4885682"><ele>78.0</ele><time>2026-05-02T14:56:37.614Z</time></trkpt><trkpt lat="37.2187475" lon="9.4887608"><ele>78.0</ele><time>2026-05-02T14:56:38.613Z</time></trkpt><trkpt lat="37.2186682" lon="9.4889419"><ele>78.0</ele><time>2026-05-02T14:56:39.625Z</time></trkpt><trkpt lat="37.2185917" lon="9.4891212"><ele>78.0</ele><time>2026-05-02T14:56:40.614Z</time></trkpt><trkpt lat="37.2185178" lon="9.489293"><ele>78.0</ele><time>2026-05-02T14:56:41.617Z</time></trkpt><trkpt lat="37.2184488" lon="9.4894548"><ele>79.75</ele><time>2026-05-02T14:56:42.61Z</time></trkpt><trkpt lat="37.2183773" lon="9.4896149"><ele>81.5</ele><time>2026-05-02T14:56:43.612Z</time></trkpt><trkpt lat="37.2183085" lon="9.4897749"><ele>83.25</ele><time>2026-05-02T14:56:44.627Z</time></trkpt><trkpt lat="37.2182406" lon="9.4899344"><ele>85.0</ele><time>2026-05-02T14:56:45.621Z</time></trkpt><trkpt lat="37.2181711" lon="9.4900928"><ele>83.5</ele><time>2026-05-02T14:56:46.619Z</time></trkpt><trkpt lat="37.2181039" lon="9.4902501"><ele>82.0</ele><time>2026-05-02T14:56:47.623Z</time></trkpt><trkpt lat="37.2180351" lon="9.4904123"><ele>80.5</ele><time>2026-05-02T14:56:48.611Z</time></trkpt><trkpt lat="37.2179661" lon="9.4905698"><ele>79.0</ele><time>2026-05-02T14:56:49.619Z</time></trkpt><trkpt lat="37.2178984" lon="9.4907209"><ele>79.0</ele><time>2026-05-02T14:56:50.616Z</time></trkpt><trkpt lat="37.2178291" lon="9.4908747"><ele>79.0</ele><time>2026-05-02T14:56:51.613Z</time></trkpt><trkpt lat="37.2177703" lon="9.4910222"><ele>79.0</ele><time>2026-05-02T14:56:52.616Z</time></trkpt><trkpt lat="37.2177038" lon="9.4911621"><ele>79.0</ele><time>2026-05-02T14:56:53.62Z</time></trkpt><trkpt lat="37.2176391" lon="9.4912889"><ele>81.0</ele><time>2026-05-02T14:56:54.621Z</time></trkpt><trkpt lat="37.2175825" lon="9.4914088"><ele>83.0</ele><time>2026-05-02T14:56:55.618Z</time></trkpt><trkpt lat="37.2175263" lon="9.4915347"><ele>85.0</ele><time>2026-05-02T14:56:56.624Z</time></trkpt><trkpt lat="37.2174622" lon="9.4916715"><ele>87.0</ele><time>2026-05-02T14:56:57.618Z</time></trkpt><trkpt lat="37.2173867" lon="9.4918121"><ele>86.75</ele><time>2026-05-02T14:56:58.611Z</time></trkpt><trkpt lat="37.2173052" lon="9.4919464"><ele>86.5</ele><time>2026-05-02T14:56:59.615Z</time></trkpt><trkpt lat="37.2172201" lon="9.492074"><ele>86.25</ele><time>2026-05-02T14:57:00.632Z</time></trkpt><trkpt lat="37.2171281" lon="9.4922124"><ele>86.0</ele><time>2026-05-02T14:57:01.619Z</time></trkpt><trkpt lat="37.2170286" lon="9.4923511"><ele>86.0</ele><time>2026-05-02T14:57:02.62Z</time></trkpt><trkpt lat="37.2169189" lon="9.4924949"><ele>86.0</ele><time>2026-05-02T14:57:03.614Z</time></trkpt><trkpt lat="37.2168035" lon="9.4926388"><ele>86.0</ele><time>2026-05-02T14:57:04.613Z</time></trkpt><trkpt lat="37.2166837" lon="9.4927738"><ele>86.0</ele><time>2026-05-02T14:57:05.621Z</time></trkpt><trkpt lat="37.2165688" lon="9.4929116"><ele>86.0</ele><time>2026-05-02T14:57:06.626Z</time></trkpt><trkpt lat="37.2164495" lon="9.4930465"><ele>86.0</ele><time>2026-05-02T14:57:07.633Z</time></trkpt><trkpt lat="37.2163255" lon="9.4931851"><ele>82.0</ele><time>2026-05-02T14:57:08.625Z</time></trkpt><trkpt lat="37.2162024" lon="9.4933288"><ele>78.0</ele><time>2026-05-02T14:57:09.624Z</time></trkpt><trkpt lat="37.216079" lon="9.4934706"><ele>74.0</ele><time>2026-05-02T14:57:10.619Z</time></trkpt><trkpt lat="37.2159576" lon="9.4936085"><ele>74.0</ele><time>2026-05-02T14:57:11.612Z</time></trkpt><trkpt lat="37.2158382" lon="9.4937425"><ele>74.0</ele><time>2026-05-02T14:57:12.614Z</time></trkpt><trkpt lat="37.2157261" lon="9.4938749"><ele>74.0</ele><time>2026-05-02T14:57:13.614Z</time></trkpt><trkpt lat="37.2156158" lon="9.4940006"><ele>73.0</ele><time>2026-05-02T14:57:14.618Z</time></trkpt><trkpt lat="37.2155064" lon="9.494126"><ele>72.0</ele><time>2026-05-02T14:57:15.611Z</time></trkpt><trkpt lat="37.2154041" lon="9.4942504"><ele>71.0</ele><time>2026-05-02T14:57:16.631Z</time></trkpt><trkpt lat="37.2152897" lon="9.4943882"><ele>70.0</ele><time>2026-05-02T14:57:17.631Z</time></trkpt><trkpt lat="37.2151665" lon="9.4945263"><ele>69.66666666666666</ele><time>2026-05-02T14:57:18.619Z</time></trkpt><trkpt lat="37.215045" lon="9.4946627"><ele>69.33333333333333</ele><time>2026-05-02T14:57:19.615Z</time></trkpt><trkpt lat="37.2149227" lon="9.4947967"><ele>69.0</ele><time>2026-05-02T14:57:20.62Z</time></trkpt><trkpt lat="37.2147958" lon="9.4949287"><ele>69.0</ele><time>2026-05-02T14:57:21.62Z</time></trkpt><trkpt lat="37.214662" lon="9.4950636"><ele>69.0</ele><time>2026-05-02T14:57:22.607Z</time></trkpt><trkpt lat="37.2145198" lon="9.4951972"><ele>69.0</ele><time>2026-05-02T14:57:23.617Z</time></trkpt><trkpt lat="37.214371" lon="9.4953297"><ele>70.0</ele><time>2026-05-02T14:57:24.62Z</time></trkpt><trkpt lat="37.21422" lon="9.4954572"><ele>71.0</ele><time>2026-05-02T14:57:25.609Z</time></trkpt><trkpt lat="37.2140651" lon="9.4955859"><ele>72.0</ele><time>2026-05-02T14:57:26.613Z</time></trkpt><trkpt lat="37.2139107" lon="9.4957182"><ele>72.0</ele><time>2026-05-02T14:57:27.615Z</time></trkpt><trkpt lat="37.2137569" lon="9.4958444"><ele>72.0</ele><time>2026-05-02T14:57:28.609Z</time></trkpt><trkpt lat="37.2135975" lon="9.4959709"><ele>72.0</ele><time>2026-05-02T14:57:29.605Z</time></trkpt><trkpt lat="37.2134402" lon="9.4960953"><ele>72.0</ele><time>2026-05-02T14:57:30.634Z</time></trkpt><trkpt lat="37.2132813" lon="9.4962134"><ele>72.0</ele><time>2026-05-02T14:57:31.617Z</time></trkpt><trkpt lat="37.2131216" lon="9.496336"><ele>72.0</ele><time>2026-05-02T14:57:32.611Z</time></trkpt><trkpt lat="37.2129626" lon="9.4964557"><ele>71.33333333333333</ele><time>2026-05-02T14:57:33.626Z</time></trkpt><trkpt lat="37.2128076" lon="9.4965732"><ele>70.66666666666666</ele><time>2026-05-02T14:57:34.615Z</time></trkpt><trkpt lat="37.212652" lon="9.4966956"><ele>70.0</ele><time>2026-05-02T14:57:35.621Z</time></trkpt><trkpt lat="37.2124986" lon="9.4968138"><ele>70.0</ele><time>2026-05-02T14:57:36.623Z</time></trkpt><trkpt lat="37.2123443" lon="9.4969263"><ele>70.0</ele><time>2026-05-02T14:57:37.611Z</time></trkpt><trkpt lat="37.2121892" lon="9.4970339"><ele>70.0</ele><time>2026-05-02T14:57:38.615Z</time></trkpt><trkpt lat="37.2120361" lon="9.4971375"><ele>71.66666666666666</ele><time>2026-05-02T14:57:39.619Z</time></trkpt><trkpt lat="37.2118794" lon="9.4972394"><ele>73.33333333333333</ele><time>2026-05-02T14:57:40.64Z</time></trkpt><trkpt lat="37.2117212" lon="9.4973443"><ele>75.0</ele><time>2026-05-02T14:57:41.615Z</time></trkpt><trkpt lat="37.2115621" lon="9.4974561"><ele>71.0</ele><time>2026-05-02T14:57:42.613Z</time></trkpt><trkpt lat="37.2114052" lon="9.497563"><ele>67.0</ele><time>2026-05-02T14:57:43.615Z</time></trkpt><trkpt lat="37.2112487" lon="9.4976758"><ele>63.0</ele><time>2026-05-02T14:57:44.616Z</time></trkpt><trkpt lat="37.2110947" lon="9.4977864"><ele>63.0</ele><time>2026-05-02T14:57:45.616Z</time></trkpt><trkpt lat="37.210945" lon="9.4978873"><ele>63.0</ele><time>2026-05-02T14:57:46.64Z</time></trkpt><trkpt lat="37.2108032" lon="9.4979879"><ele>63.0</ele><time>2026-05-02T14:57:47.62Z</time></trkpt><trkpt lat="37.2106647" lon="9.4981073"><ele>63.0</ele><time>2026-05-02T14:57:48.619Z</time></trkpt><trkpt lat="37.2105328" lon="9.4982291"><ele>63.0</ele><time>2026-05-02T14:57:49.615Z</time></trkpt><trkpt lat="37.2104112" lon="9.4983707"><ele>63.0</ele><time>2026-05-02T14:57:50.624Z</time></trkpt><trkpt lat="37.2102966" lon="9.4985224"><ele>63.0</ele><time>2026-05-02T14:57:51.613Z</time></trkpt><trkpt lat="37.210181" lon="9.4986815"><ele>63.0</ele><time>2026-05-02T14:57:52.615Z</time></trkpt><trkpt lat="37.2100661" lon="9.4988448"><ele>63.0</ele><time>2026-05-02T14:57:53.618Z</time></trkpt><trkpt lat="37.2099563" lon="9.4990099"><ele>61.0</ele><time>2026-05-02T14:57:54.612Z</time></trkpt><trkpt lat="37.2098497" lon="9.4991809"><ele>59.0</ele><time>2026-05-02T14:57:55.617Z</time></trkpt><trkpt lat="37.2097413" lon="9.4993584"><ele>57.0</ele><time>2026-05-02T14:57:56.629Z</time></trkpt><trkpt lat="37.2096316" lon="9.4995317"><ele>59.66666666666667</ele><time>2026-05-02T14:57:57.623Z</time></trkpt><trkpt lat="37.209524" lon="9.4997067"><ele>62.333333333333336</ele><time>2026-05-02T14:57:58.625Z</time></trkpt><trkpt lat="37.2094098" lon="9.4998812"><ele>65.0</ele><time>2026-05-02T14:57:59.619Z</time></trkpt><trkpt lat="37.209298" lon="9.5000543"><ele>65.0</ele><time>2026-05-02T14:58:00.615Z</time></trkpt><trkpt lat="37.2091874" lon="9.5002273"><ele>65.0</ele><time>2026-05-02T14:58:01.629Z</time></trkpt><trkpt lat="37.2090784" lon="9.5003957"><ele>65.0</ele><time>2026-05-02T14:58:02.636Z</time></trkpt><trkpt lat="37.2089713" lon="9.5005595"><ele>63.0</ele><time>2026-05-02T14:58:03.626Z</time></trkpt><trkpt lat="37.2088607" lon="9.5007224"><ele>61.0</ele><time>2026-05-02T14:58:04.616Z</time></trkpt><trkpt lat="37.2087548" lon="9.5008971"><ele>59.0</ele><time>2026-05-02T14:58:05.623Z</time></trkpt><trkpt lat="37.2086437" lon="9.5010711"><ele>61.66666666666667</ele><time>2026-05-02T14:58:06.628Z</time></trkpt><trkpt lat="37.2085298" lon="9.5012513"><ele>64.33333333333333</ele><time>2026-05-02T14:58:07.623Z</time></trkpt><trkpt lat="37.2084188" lon="9.5014229"><ele>67.0</ele><time>2026-05-02T14:58:08.624Z</time></trkpt><trkpt lat="37.2083067" lon="9.5016021"><ele>67.0</ele><time>2026-05-02T14:58:09.619Z</time></trkpt><trkpt lat="37.2081966" lon="9.5017785"><ele>67.0</ele><time>2026-05-02T14:58:10.621Z</time></trkpt><trkpt lat="37.2080811" lon="9.5019592"><ele>67.0</ele><time>2026-05-02T14:58:11.607Z</time></trkpt><trkpt lat="37.2079693" lon="9.5021379"><ele>66.33333333333333</ele><time>2026-05-02T14:58:12.632Z</time></trkpt><trkpt lat="37.2078616" lon="9.5023239"><ele>65.66666666666667</ele><time>2026-05-02T14:58:13.628Z</time></trkpt><trkpt lat="37.2077637" lon="9.5025136"><ele>65.0</ele><time>2026-05-02T14:58:14.615Z</time></trkpt><trkpt lat="37.20767" lon="9.5027168"><ele>65.0</ele><time>2026-05-02T14:58:15.63Z</time></trkpt><trkpt lat="37.2075964" lon="9.5029194"><ele>65.0</ele><time>2026-05-02T14:58:16.624Z</time></trkpt><trkpt lat="37.2075255" lon="9.5031415"><ele>65.0</ele><time>2026-05-02T14:58:17.617Z</time></trkpt><trkpt lat="37.2074718" lon="9.5033596"><ele>65.0</ele><time>2026-05-02T14:58:18.641Z</time></trkpt><trkpt lat="37.207424" lon="9.5035938"><ele>65.0</ele><time>2026-05-02T14:58:19.628Z</time></trkpt><trkpt lat="37.2073806" lon="9.5038368"><ele>65.0</ele><time>2026-05-02T14:58:20.614Z</time></trkpt><trkpt lat="37.2073489" lon="9.5040889"><ele>61.333333333333336</ele><time>2026-05-02T14:58:21.618Z</time></trkpt><trkpt lat="37.2073219" lon="9.5043462"><ele>57.66666666666667</ele><time>2026-05-02T14:58:22.621Z</time></trkpt><trkpt lat="37.2072971" lon="9.5045933"><ele>54.0</ele><time>2026-05-02T14:58:23.623Z</time></trkpt><trkpt lat="37.2072676" lon="9.5048458"><ele>53.66666666666667</ele><time>2026-05-02T14:58:24.613Z</time></trkpt><trkpt lat="37.207237" lon="9.5050928"><ele>53.333333333333336</ele><time>2026-05-02T14:58:25.618Z</time></trkpt><trkpt lat="37.2072012" lon="9.5053338"><ele>53.0</ele><time>2026-05-02T14:58:26.618Z</time></trkpt><trkpt lat="37.2071549" lon="9.5055762"><ele>54.333333333333336</ele><time>2026-05-02T14:58:27.614Z</time></trkpt><trkpt lat="37.2070953" lon="9.5058134"><ele>55.66666666666667</ele><time>2026-05-02T14:58:28.623Z</time></trkpt><trkpt lat="37.2070262" lon="9.5060483"><ele>57.0</ele><time>2026-05-02T14:58:29.624Z</time></trkpt><trkpt lat="37.2069471" lon="9.506274"><ele>58.66666666666667</ele><time>2026-05-02T14:58:30.629Z</time></trkpt><trkpt lat="37.2068554" lon="9.5064922"><ele>60.333333333333336</ele><time>2026-05-02T14:58:31.614Z</time></trkpt><trkpt lat="37.2067626" lon="9.5067071"><ele>62.0</ele><time>2026-05-02T14:58:32.627Z</time></trkpt><trkpt lat="37.206665" lon="9.5069129"><ele>63.333333333333336</ele><time>2026-05-02T14:58:33.622Z</time></trkpt><trkpt lat="37.2065615" lon="9.5071189"><ele>64.66666666666667</ele><time>2026-05-02T14:58:34.616Z</time></trkpt><trkpt lat="37.2064585" lon="9.507332"><ele>66.0</ele><time>2026-05-02T14:58:35.621Z</time></trkpt><trkpt lat="37.2063591" lon="9.5075411"><ele>66.0</ele><time>2026-05-02T14:58:36.626Z</time></trkpt><trkpt lat="37.2062556" lon="9.5077559"><ele>66.0</ele><time>2026-05-02T14:58:37.625Z</time></trkpt><trkpt lat="37.2061545" lon="9.5079683"><ele>66.0</ele><time>2026-05-02T14:58:38.623Z</time></trkpt><trkpt lat="37.2060532" lon="9.508186"><ele>66.0</ele><time>2026-05-02T14:58:39.623Z</time></trkpt><trkpt lat="37.2059542" lon="9.5084025"><ele>66.0</ele><time>2026-05-02T14:58:40.63Z</time></trkpt><trkpt lat="37.2058679" lon="9.5086221"><ele>66.0</ele><time>2026-05-02T14:58:41.631Z</time></trkpt><trkpt lat="37.2057924" lon="9.5088453"><ele>64.66666666666667</ele><time>2026-05-02T14:58:42.615Z</time></trkpt><trkpt lat="37.2057244" lon="9.509071"><ele>63.333333333333336</ele><time>2026-05-02T14:58:43.623Z</time></trkpt><trkpt lat="37.2056661" lon="9.5093009"><ele>62.0</ele><time>2026-05-02T14:58:44.618Z</time></trkpt><trkpt lat="37.2056258" lon="9.5095287"><ele>65.33333333333334</ele><time>2026-05-02T14:58:45.62Z</time></trkpt><trkpt lat="37.2055857" lon="9.5097571"><ele>68.66666666666667</ele><time>2026-05-02T14:58:46.618Z</time></trkpt><trkpt lat="37.2055507" lon="9.5099841"><ele>72.0</ele><time>2026-05-02T14:58:47.622Z</time></trkpt><trkpt lat="37.2055158" lon="9.5101982"><ele>70.0</ele><time>2026-05-02T14:58:48.63Z</time></trkpt><trkpt lat="37.2054809" lon="9.5104202"><ele>68.0</ele><time>2026-05-02T14:58:49.621Z</time></trkpt><trkpt lat="37.205448" lon="9.5106429"><ele>66.0</ele><time>2026-05-02T14:58:50.626Z</time></trkpt><trkpt lat="37.2054113" lon="9.5108631"><ele>66.0</ele><time>2026-05-02T14:58:51.622Z</time></trkpt><trkpt lat="37.2053841" lon="9.5110902"><ele>66.0</ele><time>2026-05-02T14:58:52.625Z</time></trkpt><trkpt lat="37.2053575" lon="9.5113212"><ele>66.0</ele><time>2026-05-02T14:58:53.618Z</time></trkpt><trkpt lat="37.2053335" lon="9.5115608"><ele>62.0</ele><time>2026-05-02T14:58:54.624Z</time></trkpt><trkpt lat="37.2053175" lon="9.5117984"><ele>58.0</ele><time>2026-05-02T14:58:55.614Z</time></trkpt><trkpt lat="37.2053019" lon="9.5120291"><ele>54.0</ele><time>2026-05-02T14:58:56.612Z</time></trkpt><trkpt lat="37.2052912" lon="9.5122653"><ele>50.666666666666664</ele><time>2026-05-02T14:58:57.623Z</time></trkpt><trkpt lat="37.2052865" lon="9.512504"><ele>47.33333333333333</ele><time>2026-05-02T14:58:58.619Z</time></trkpt><trkpt lat="37.2052774" lon="9.5127357"><ele>44.0</ele><time>2026-05-02T14:58:59.617Z</time></trkpt><trkpt lat="37.2052689" lon="9.5129679"><ele>44.0</ele><time>2026-05-02T14:59:00.638Z</time></trkpt><trkpt lat="37.2052584" lon="9.5132"><ele>44.0</ele><time>2026-05-02T14:59:01.612Z</time></trkpt><trkpt lat="37.2052561" lon="9.5134313"><ele>44.0</ele><time>2026-05-02T14:59:02.611Z</time></trkpt><trkpt lat="37.2052504" lon="9.5136642"><ele>44.666666666666664</ele><time>2026-05-02T14:59:03.639Z</time></trkpt><trkpt lat="37.2052428" lon="9.5138997"><ele>45.333333333333336</ele><time>2026-05-02T14:59:04.623Z</time></trkpt><trkpt lat="37.2052368" lon="9.5141457"><ele>46.0</ele><time>2026-05-02T14:59:05.625Z</time></trkpt><trkpt lat="37.2052288" lon="9.5143833"><ele>46.333333333333336</ele><time>2026-05-02T14:59:06.622Z</time></trkpt><trkpt lat="37.2052205" lon="9.5146188"><ele>46.666666666666664</ele><time>2026-05-02T14:59:07.617Z</time></trkpt><trkpt lat="37.2052149" lon="9.514855"><ele>47.0</ele><time>2026-05-02T14:59:08.636Z</time></trkpt><trkpt lat="37.2052128" lon="9.5150908"><ele>47.0</ele><time>2026-05-02T14:59:09.616Z</time></trkpt><trkpt lat="37.2052049" lon="9.5153236"><ele>47.0</ele><time>2026-05-02T14:59:10.616Z</time></trkpt><trkpt lat="37.2051981" lon="9.5155518"><ele>47.0</ele><time>2026-05-02T14:59:11.619Z</time></trkpt><trkpt lat="37.2051909" lon="9.515783"><ele>46.33333333333333</ele><time>2026-05-02T14:59:12.626Z</time></trkpt><trkpt lat="37.2051873" lon="9.5160092"><ele>45.666666666666664</ele><time>2026-05-02T14:59:13.616Z</time></trkpt><trkpt lat="37.2051817" lon="9.516246"><ele>45.0</ele><time>2026-05-02T14:59:14.621Z</time></trkpt><trkpt lat="37.2051805" lon="9.5164763"><ele>43.0</ele><time>2026-05-02T14:59:15.619Z</time></trkpt><trkpt lat="37.205173" lon="9.5167002"><ele>41.0</ele><time>2026-05-02T14:59:16.621Z</time></trkpt><trkpt lat="37.2051691" lon="9.5169243"><ele>39.0</ele><time>2026-05-02T14:59:17.622Z</time></trkpt><trkpt lat="37.205166" lon="9.5171447"><ele>37.0</ele><time>2026-05-02T14:59:18.62Z</time></trkpt><trkpt lat="37.2051644" lon="9.5173589"><ele>35.0</ele><time>2026-05-02T14:59:19.621Z</time></trkpt><trkpt lat="37.2051675" lon="9.5175582"><ele>33.0</ele><time>2026-05-02T14:59:20.627Z</time></trkpt><trkpt lat="37.2051747" lon="9.5177546"><ele>31.75</ele><time>2026-05-02T14:59:21.622Z</time></trkpt><trkpt lat="37.2051867" lon="9.5179264"><ele>30.5</ele><time>2026-05-02T14:59:22.631Z</time></trkpt><trkpt lat="37.2052148" lon="9.5180841"><ele>29.25</ele><time>2026-05-02T14:59:23.621Z</time></trkpt><trkpt lat="37.2052546" lon="9.518247"><ele>28.0</ele><time>2026-05-02T14:59:24.621Z</time></trkpt><trkpt lat="37.2053047" lon="9.5184224"><ele>28.0</ele><time>2026-05-02T14:59:25.614Z</time></trkpt><trkpt lat="37.2053547" lon="9.5186083"><ele>28.0</ele><time>2026-05-02T14:59:26.632Z</time></trkpt><trkpt lat="37.205423" lon="9.5187948"><ele>28.0</ele><time>2026-05-02T14:59:27.617Z</time></trkpt><trkpt lat="37.2055056" lon="9.5189733"><ele>28.333333333333336</ele><time>2026-05-02T14:59:28.621Z</time></trkpt><trkpt lat="37.2056021" lon="9.5191412"><ele>28.666666666666664</ele><time>2026-05-02T14:59:29.619Z</time></trkpt><trkpt lat="37.2057072" lon="9.5192964"><ele>29.0</ele><time>2026-05-02T14:59:30.622Z</time></trkpt><trkpt lat="37.2058201" lon="9.5194552"><ele>27.0</ele><time>2026-05-02T14:59:31.616Z</time></trkpt><trkpt lat="37.2059348" lon="9.5196091"><ele>25.0</ele><time>2026-05-02T14:59:32.617Z</time></trkpt><trkpt lat="37.20605" lon="9.5197568"><ele>23.0</ele><time>2026-05-02T14:59:33.624Z</time></trkpt><trkpt lat="37.2061554" lon="9.519906"><ele>23.0</ele><time>2026-05-02T14:59:34.623Z</time></trkpt><trkpt lat="37.2062495" lon="9.5200671"><ele>23.0</ele><time>2026-05-02T14:59:35.626Z</time></trkpt><trkpt lat="37.2063359" lon="9.5202451"><ele>23.0</ele><time>2026-05-02T14:59:36.609Z</time></trkpt><trkpt lat="37.2064171" lon="9.5204436"><ele>21.333333333333336</ele><time>2026-05-02T14:59:37.621Z</time></trkpt><trkpt lat="37.2064919" lon="9.5206493"><ele>19.666666666666668</ele><time>2026-05-02T14:59:38.625Z</time></trkpt><trkpt lat="37.2065647" lon="9.5208706"><ele>18.0</ele><time>2026-05-02T14:59:39.62Z</time></trkpt><trkpt lat="37.2066402" lon="9.5211057"><ele>20.5</ele><time>2026-05-02T14:59:40.627Z</time></trkpt><trkpt lat="37.2067134" lon="9.5213733"><ele>23.0</ele><time>2026-05-02T14:59:41.627Z</time></trkpt><trkpt lat="37.2067815" lon="9.5216675"><ele>23.0</ele><time>2026-05-02T14:59:42.627Z</time></trkpt><trkpt lat="37.2068517" lon="9.5220029"><ele>23.0</ele><time>2026-05-02T14:59:43.617Z</time></trkpt><trkpt lat="37.20693" lon="9.5223455"><ele>22.0</ele><time>2026-05-02T14:59:44.625Z</time></trkpt><trkpt lat="37.2070052" lon="9.5226819"><ele>21.0</ele><time>2026-05-02T14:59:45.616Z</time></trkpt><trkpt lat="37.2070651" lon="9.5229802"><ele>19.5</ele><time>2026-05-02T14:59:46.613Z</time></trkpt><trkpt lat="37.2071333" lon="9.5232746"><ele>18.0</ele><time>2026-05-02T14:59:47.619Z</time></trkpt><trkpt lat="37.2071894" lon="9.5235627"><ele>17.5</ele><time>2026-05-02T14:59:48.626Z</time></trkpt><trkpt lat="37.2072457" lon="9.5238463"><ele>17.0</ele><time>2026-05-02T14:59:49.621Z</time></trkpt><trkpt lat="37.2073077" lon="9.5241258"><ele>20.0</ele><time>2026-05-02T14:59:50.625Z</time></trkpt><trkpt lat="37.207373" lon="9.5244006"><ele>23.0</ele><time>2026-05-02T14:59:51.618Z</time></trkpt><trkpt lat="37.2074365" lon="9.5246757"><ele>23.0</ele><time>2026-05-02T14:59:52.619Z</time></trkpt><trkpt lat="37.2074903" lon="9.5249527"><ele>23.0</ele><time>2026-05-02T14:59:53.62Z</time></trkpt><trkpt lat="37.2075388" lon="9.5252211"><ele>23.0</ele><time>2026-05-02T14:59:54.625Z</time></trkpt><trkpt lat="37.2075761" lon="9.5254983"><ele>23.0</ele><time>2026-05-02T14:59:55.631Z</time></trkpt><trkpt lat="37.2076014" lon="9.525769"><ele>23.0</ele><time>2026-05-02T14:59:56.623Z</time></trkpt><trkpt lat="37.2076152" lon="9.5260397"><ele>23.0</ele><time>2026-05-02T14:59:57.61Z</time></trkpt><trkpt lat="37.2076189" lon="9.526308"><ele>22.333333333333336</ele><time>2026-05-02T14:59:58.623Z</time></trkpt><trkpt lat="37.2076124" lon="9.5265757"><ele>21.666666666666668</ele><time>2026-05-02T14:59:59.624Z</time></trkpt><trkpt lat="37.207596" lon="9.526844"><ele>21.0</ele><time>2026-05-02T15:00:00.622Z</time></trkpt><trkpt lat="37.2075707" lon="9.5271176"><ele>21.0</ele><time>2026-05-02T15:00:01.625Z</time></trkpt><trkpt lat="37.207535" lon="9.5273943"><ele>21.0</ele><time>2026-05-02T15:00:02.615Z</time></trkpt><trkpt lat="37.2074909" lon="9.5276704"><ele>21.0</ele><time>2026-05-02T15:00:03.62Z</time></trkpt><trkpt lat="37.2074421" lon="9.5279398"><ele>21.0</ele><time>2026-05-02T15:00:04.616Z</time></trkpt><trkpt lat="37.2073905" lon="9.5282021"><ele>21.0</ele><time>2026-05-02T15:00:05.624Z</time></trkpt><trkpt lat="37.2073416" lon="9.52846"><ele>21.0</ele><time>2026-05-02T15:00:06.615Z</time></trkpt><trkpt lat="37.2072945" lon="9.5287234"><ele>21.333333333333332</ele><time>2026-05-02T15:00:07.618Z</time></trkpt><trkpt lat="37.2072453" lon="9.528975"><ele>21.666666666666664</ele><time>2026-05-02T15:00:08.625Z</time></trkpt><trkpt lat="37.2072015" lon="9.5292261"><ele>22.0</ele><time>2026-05-02T15:00:09.623Z</time></trkpt><trkpt lat="37.2071544" lon="9.5294721"><ele>23.0</ele><time>2026-05-02T15:00:10.624Z</time></trkpt><trkpt lat="37.2071079" lon="9.5297095"><ele>24.0</ele><time>2026-05-02T15:00:11.628Z</time></trkpt><trkpt lat="37.2070646" lon="9.5299414"><ele>25.0</ele><time>2026-05-02T15:00:12.631Z</time></trkpt><trkpt lat="37.2070215" lon="9.5301686"><ele>25.0</ele><time>2026-05-02T15:00:13.612Z</time></trkpt><trkpt lat="37.2069819" lon="9.5303902"><ele>25.0</ele><time>2026-05-02T15:00:14.621Z</time></trkpt><trkpt lat="37.2069429" lon="9.5306106"><ele>25.0</ele><time>2026-05-02T15:00:15.619Z</time></trkpt><trkpt lat="37.2069003" lon="9.5308256"><ele>25.333333333333336</ele><time>2026-05-02T15:00:16.617Z</time></trkpt><trkpt lat="37.2068563" lon="9.531039"><ele>25.666666666666664</ele><time>2026-05-02T15:00:17.619Z</time></trkpt><trkpt lat="37.2068127" lon="9.5312505"><ele>26.0</ele><time>2026-05-02T15:00:18.62Z</time></trkpt><trkpt lat="37.2067723" lon="9.5314521"><ele>26.666666666666664</ele><time>2026-05-02T15:00:19.623Z</time></trkpt><trkpt lat="37.2067313" lon="9.5316533"><ele>27.333333333333336</ele><time>2026-05-02T15:00:20.622Z</time></trkpt><trkpt lat="37.206698" lon="9.5318511"><ele>28.0</ele><time>2026-05-02T15:00:21.623Z</time></trkpt><trkpt lat="37.2066625" lon="9.5320524"><ele>28.333333333333336</ele><time>2026-05-02T15:00:22.614Z</time></trkpt><trkpt lat="37.2066325" lon="9.5322718"><ele>28.666666666666664</ele><time>2026-05-02T15:00:23.659Z</time></trkpt><trkpt lat="37.2065985" lon="9.5324923"><ele>29.0</ele><time>2026-05-02T15:00:24.626Z</time></trkpt><trkpt lat="37.2065709" lon="9.5327167"><ele>28.0</ele><time>2026-05-02T15:00:25.614Z</time></trkpt><trkpt lat="37.2065496" lon="9.5329417"><ele>27.0</ele><time>2026-05-02T15:00:26.611Z</time></trkpt><trkpt lat="37.2065332" lon="9.5331679"><ele>26.0</ele><time>2026-05-02T15:00:27.621Z</time></trkpt><trkpt lat="37.206518" lon="9.5333913"><ele>26.0</ele><time>2026-05-02T15:00:28.621Z</time></trkpt><trkpt lat="37.2065011" lon="9.5336129"><ele>26.0</ele><time>2026-05-02T15:00:29.619Z</time></trkpt><trkpt lat="37.2064835" lon="9.5338275"><ele>26.0</ele><time>2026-05-02T15:00:30.624Z</time></trkpt><trkpt lat="37.2064648" lon="9.5340433"><ele>25.0</ele><time>2026-05-02T15:00:31.621Z</time></trkpt><trkpt lat="37.2064532" lon="9.5342614"><ele>24.0</ele><time>2026-05-02T15:00:32.626Z</time></trkpt><trkpt lat="37.2064399" lon="9.5344787"><ele>23.0</ele><time>2026-05-02T15:00:33.624Z</time></trkpt><trkpt lat="37.2064247" lon="9.5346941"><ele>22.666666666666668</ele><time>2026-05-02T15:00:34.62Z</time></trkpt><trkpt lat="37.2064045" lon="9.5349044"><ele>22.333333333333332</ele><time>2026-05-02T15:00:35.639Z</time></trkpt><trkpt lat="37.2063861" lon="9.5351096"><ele>22.0</ele><time>2026-05-02T15:00:36.621Z</time></trkpt><trkpt lat="37.2063674" lon="9.5353179"><ele>22.0</ele><time>2026-05-02T15:00:37.623Z</time></trkpt><trkpt lat="37.2063478" lon="9.5355266"><ele>22.0</ele><time>2026-05-02T15:00:38.626Z</time></trkpt><trkpt lat="37.206327" lon="9.5357373"><ele>22.0</ele><time>2026-05-02T15:00:39.621Z</time></trkpt><trkpt lat="37.2063071" lon="9.5359534"><ele>22.0</ele><time>2026-05-02T15:00:40.624Z</time></trkpt><trkpt lat="37.2062871" lon="9.5361632"><ele>22.0</ele><time>2026-05-02T15:00:41.623Z</time></trkpt><trkpt lat="37.2062593" lon="9.5363738"><ele>22.0</ele><time>2026-05-02T15:00:42.616Z</time></trkpt><trkpt lat="37.2062339" lon="9.5365836"><ele>22.0</ele><time>2026-05-02T15:00:43.613Z</time></trkpt><trkpt lat="37.2062108" lon="9.5367957"><ele>22.0</ele><time>2026-05-02T15:00:44.621Z</time></trkpt><trkpt lat="37.2061869" lon="9.5370064"><ele>22.0</ele><time>2026-05-02T15:00:45.622Z</time></trkpt><trkpt lat="37.206167" lon="9.5372177"><ele>22.0</ele><time>2026-05-02T15:00:46.616Z</time></trkpt><trkpt lat="37.2061479" lon="9.5374208"><ele>22.0</ele><time>2026-05-02T15:00:47.619Z</time></trkpt><trkpt lat="37.2061288" lon="9.5376177"><ele>22.0</ele><time>2026-05-02T15:00:48.619Z</time></trkpt><trkpt lat="37.206108" lon="9.5378007"><ele>22.0</ele><time>2026-05-02T15:00:49.617Z</time></trkpt><trkpt lat="37.2060925" lon="9.5379712"><ele>22.0</ele><time>2026-05-02T15:00:50.633Z</time></trkpt><trkpt lat="37.2060775" lon="9.5381206"><ele>22.0</ele><time>2026-05-02T15:00:51.612Z</time></trkpt><trkpt lat="37.2060685" lon="9.5382637"><ele>22.0</ele><time>2026-05-02T15:00:52.623Z</time></trkpt><trkpt lat="37.2060564" lon="9.5384113"><ele>22.0</ele><time>2026-05-02T15:00:53.63Z</time></trkpt><trkpt lat="37.206041" lon="9.5385487"><ele>22.0</ele><time>2026-05-02T15:00:54.622Z</time></trkpt><trkpt lat="37.2060291" lon="9.5386941"><ele>22.0</ele><time>2026-05-02T15:00:55.622Z</time></trkpt><trkpt lat="37.2060157" lon="9.5388485"><ele>22.0</ele><time>2026-05-02T15:00:56.62Z</time></trkpt><trkpt lat="37.2060041" lon="9.5390014"><ele>21.75</ele><time>2026-05-02T15:00:57.624Z</time></trkpt><trkpt lat="37.2059874" lon="9.5391569"><ele>21.5</ele><time>2026-05-02T15:00:58.618Z</time></trkpt><trkpt lat="37.2059736" lon="9.5393041"><ele>21.25</ele><time>2026-05-02T15:00:59.621Z</time></trkpt><trkpt lat="37.205961" lon="9.539453"><ele>21.0</ele><time>2026-05-02T15:01:00.613Z</time></trkpt><trkpt lat="37.2059559" lon="9.5396186"><ele>20.75</ele><time>2026-05-02T15:01:01.62Z</time></trkpt><trkpt lat="37.2059482" lon="9.5397853"><ele>20.5</ele><time>2026-05-02T15:01:02.63Z</time></trkpt><trkpt lat="37.2059327" lon="9.5399612"><ele>20.25</ele><time>2026-05-02T15:01:03.62Z</time></trkpt><trkpt lat="37.2059134" lon="9.540151"><ele>20.0</ele><time>2026-05-02T15:01:04.622Z</time></trkpt><trkpt lat="37.205894" lon="9.5403504"><ele>20.0</ele><time>2026-05-02T15:01:05.621Z</time></trkpt><trkpt lat="37.205875" lon="9.540558"><ele>20.0</ele><time>2026-05-02T15:01:06.617Z</time></trkpt><trkpt lat="37.2058529" lon="9.5407657"><ele>20.0</ele><time>2026-05-02T15:01:07.617Z</time></trkpt><trkpt lat="37.2058309" lon="9.5409757"><ele>20.0</ele><time>2026-05-02T15:01:08.622Z</time></trkpt><trkpt lat="37.2058175" lon="9.541189"><ele>20.0</ele><time>2026-05-02T15:01:09.616Z</time></trkpt><trkpt lat="37.2057939" lon="9.5414116"><ele>20.0</ele><time>2026-05-02T15:01:10.622Z</time></trkpt><trkpt lat="37.2057661" lon="9.5416268"><ele>20.666666666666668</ele><time>2026-05-02T15:01:11.623Z</time></trkpt><trkpt lat="37.2057438" lon="9.5418474"><ele>21.333333333333332</ele><time>2026-05-02T15:01:12.618Z</time></trkpt><trkpt lat="37.2057177" lon="9.542071"><ele>22.0</ele><time>2026-05-02T15:01:13.621Z</time></trkpt><trkpt lat="37.2056965" lon="9.542294"><ele>22.333333333333332</ele><time>2026-05-02T15:01:14.62Z</time></trkpt><trkpt lat="37.2056741" lon="9.5425124"><ele>22.666666666666668</ele><time>2026-05-02T15:01:15.62Z</time></trkpt><trkpt lat="37.2056566" lon="9.542738"><ele>23.0</ele><time>2026-05-02T15:01:16.619Z</time></trkpt><trkpt lat="37.2056355" lon="9.5429624"><ele>20.0</ele><time>2026-05-02T15:01:17.644Z</time></trkpt><trkpt lat="37.2056142" lon="9.5431854"><ele>17.0</ele><time>2026-05-02T15:01:18.619Z</time></trkpt><trkpt lat="37.2055926" lon="9.5434088"><ele>14.0</ele><time>2026-05-02T15:01:19.606Z</time></trkpt><trkpt lat="37.2055683" lon="9.5436277"><ele>14.0</ele><time>2026-05-02T15:01:20.615Z</time></trkpt><trkpt lat="37.2055477" lon="9.5438488"><ele>14.0</ele><time>2026-05-02T15:01:21.621Z</time></trkpt><trkpt lat="37.2055246" lon="9.5440677"><ele>14.0</ele><time>2026-05-02T15:01:22.615Z</time></trkpt><trkpt lat="37.2055037" lon="9.5442816"><ele>14.0</ele><time>2026-05-02T15:01:23.618Z</time></trkpt><trkpt lat="37.2054823" lon="9.5444978"><ele>14.0</ele><time>2026-05-02T15:01:24.617Z</time></trkpt><trkpt lat="37.2054649" lon="9.5447063"><ele>14.0</ele><time>2026-05-02T15:01:25.611Z</time></trkpt><trkpt lat="37.2054526" lon="9.5449121"><ele>13.333333333333334</ele><time>2026-05-02T15:01:26.609Z</time></trkpt><trkpt lat="37.2054423" lon="9.5451227"><ele>12.666666666666668</ele><time>2026-05-02T15:01:27.62Z</time></trkpt><trkpt lat="37.2054405" lon="9.5453266"><ele>12.0</ele><time>2026-05-02T15:01:28.619Z</time></trkpt><trkpt lat="37.2054496" lon="9.5455204"><ele>11.5</ele><time>2026-05-02T15:01:29.619Z</time></trkpt><trkpt lat="37.2054558" lon="9.5457144"><ele>11.0</ele><time>2026-05-02T15:01:30.623Z</time></trkpt><trkpt lat="37.2054674" lon="9.5458973"><ele>10.5</ele><time>2026-05-02T15:01:31.621Z</time></trkpt><trkpt lat="37.2054819" lon="9.5460808"><ele>10.0</ele><time>2026-05-02T15:01:32.623Z</time></trkpt><trkpt lat="37.2054998" lon="9.54625"><ele>9.666666666666668</ele><time>2026-05-02T15:01:33.617Z</time></trkpt><trkpt lat="37.2055288" lon="9.546425"><ele>9.333333333333334</ele><time>2026-05-02T15:01:34.641Z</time></trkpt><trkpt lat="37.2055618" lon="9.5466194"><ele>9.0</ele><time>2026-05-02T15:01:35.623Z</time></trkpt><trkpt lat="37.205589" lon="9.5468358"><ele>9.333333333333334</ele><time>2026-05-02T15:01:36.622Z</time></trkpt><trkpt lat="37.2056095" lon="9.5470594"><ele>9.666666666666668</ele><time>2026-05-02T15:01:37.623Z</time></trkpt><trkpt lat="37.2056231" lon="9.5472867"><ele>10.0</ele><time>2026-05-02T15:01:38.618Z</time></trkpt><trkpt lat="37.205633" lon="9.5475212"><ele>10.0</ele><time>2026-05-02T15:01:39.621Z</time></trkpt><trkpt lat="37.2056554" lon="9.5477453"><ele>10.0</ele><time>2026-05-02T15:01:40.619Z</time></trkpt><trkpt lat="37.2056774" lon="9.5479681"><ele>10.0</ele><time>2026-05-02T15:01:41.613Z</time></trkpt><trkpt lat="37.2057" lon="9.5481955"><ele>10.0</ele><time>2026-05-02T15:01:42.627Z</time></trkpt><trkpt lat="37.2057212" lon="9.5484173"><ele>10.0</ele><time>2026-05-02T15:01:43.62Z</time></trkpt><trkpt lat="37.205746" lon="9.548638"><ele>10.0</ele><time>2026-05-02T15:01:44.622Z</time></trkpt><trkpt lat="37.2057705" lon="9.5488553"><ele>10.0</ele><time>2026-05-02T15:01:45.615Z</time></trkpt><trkpt lat="37.2057978" lon="9.5490808"><ele>10.0</ele><time>2026-05-02T15:01:46.609Z</time></trkpt><trkpt lat="37.2058226" lon="9.549301"><ele>10.0</ele><time>2026-05-02T15:01:47.627Z</time></trkpt><trkpt lat="37.2058491" lon="9.5495207"><ele>9.666666666666668</ele><time>2026-05-02T15:01:48.651Z</time></trkpt><trkpt lat="37.2058732" lon="9.5497446"><ele>9.333333333333334</ele><time>2026-05-02T15:01:49.621Z</time></trkpt><trkpt lat="37.2058948" lon="9.5499748"><ele>9.0</ele><time>2026-05-02T15:01:50.617Z</time></trkpt><trkpt lat="37.2059168" lon="9.5502046"><ele>8.666666666666666</ele><time>2026-05-02T15:01:51.622Z</time></trkpt><trkpt lat="37.2059378" lon="9.5504306"><ele>8.333333333333332</ele><time>2026-05-02T15:01:52.606Z</time></trkpt><trkpt lat="37.2059601" lon="9.5506633"><ele>8.0</ele><time>2026-05-02T15:01:53.62Z</time></trkpt><trkpt lat="37.2059811" lon="9.5508883"><ele>8.0</ele><time>2026-05-02T15:01:54.615Z</time></trkpt><trkpt lat="37.2060065" lon="9.5511124"><ele>8.0</ele><time>2026-05-02T15:01:55.619Z</time></trkpt><trkpt lat="37.2060294" lon="9.5513396"><ele>8.0</ele><time>2026-05-02T15:01:56.617Z</time></trkpt><trkpt lat="37.2060484" lon="9.5515694"><ele>8.0</ele><time>2026-05-02T15:01:57.612Z</time></trkpt><trkpt lat="37.2060673" lon="9.5517999"><ele>8.0</ele><time>2026-05-02T15:01:58.628Z</time></trkpt><trkpt lat="37.2060909" lon="9.5520237"><ele>8.0</ele><time>2026-05-02T15:01:59.619Z</time></trkpt><trkpt lat="37.206112" lon="9.5522443"><ele>8.0</ele><time>2026-05-02T15:02:00.625Z</time></trkpt><trkpt lat="37.2061376" lon="9.5524635"><ele>8.0</ele><time>2026-05-02T15:02:01.62Z</time></trkpt><trkpt lat="37.2061617" lon="9.5526715"><ele>8.0</ele><time>2026-05-02T15:02:02.621Z</time></trkpt><trkpt lat="37.2061707" lon="9.5528621"><ele>8.0</ele><time>2026-05-02T15:02:03.622Z</time></trkpt><trkpt lat="37.2061897" lon="9.5530338"><ele>8.0</ele><time>2026-05-02T15:02:04.642Z</time></trkpt><trkpt lat="37.2062057" lon="9.5531954"><ele>8.0</ele><time>2026-05-02T15:02:05.625Z</time></trkpt><trkpt lat="37.2062247" lon="9.5533658"><ele>8.0</ele><time>2026-05-02T15:02:06.619Z</time></trkpt><trkpt lat="37.206244" lon="9.5535399"><ele>8.25</ele><time>2026-05-02T15:02:07.616Z</time></trkpt><trkpt lat="37.2062579" lon="9.5537128"><ele>8.5</ele><time>2026-05-02T15:02:08.617Z</time></trkpt><trkpt lat="37.2062689" lon="9.5538887"><ele>8.75</ele><time>2026-05-02T15:02:09.62Z</time></trkpt><trkpt lat="37.2062766" lon="9.5540583"><ele>9.0</ele><time>2026-05-02T15:02:10.619Z</time></trkpt><trkpt lat="37.2062937" lon="9.5542171"><ele>9.0</ele><time>2026-05-02T15:02:11.621Z</time></trkpt><trkpt lat="37.2063155" lon="9.5543775"><ele>9.0</ele><time>2026-05-02T15:02:12.618Z</time></trkpt><trkpt lat="37.2063379" lon="9.5545443"><ele>9.0</ele><time>2026-05-02T15:02:13.613Z</time></trkpt><trkpt lat="37.206359" lon="9.554707"><ele>9.0</ele><time>2026-05-02T15:02:14.624Z</time></trkpt><trkpt lat="37.2063818" lon="9.5548654"><ele>9.0</ele><time>2026-05-02T15:02:15.623Z</time></trkpt><trkpt lat="37.2064035" lon="9.5550276"><ele>9.0</ele><time>2026-05-02T15:02:16.626Z</time></trkpt><trkpt lat="37.2064212" lon="9.5551798"><ele>9.0</ele><time>2026-05-02T15:02:17.623Z</time></trkpt><trkpt lat="37.2064423" lon="9.5553278"><ele>9.0</ele><time>2026-05-02T15:02:18.615Z</time></trkpt><trkpt lat="37.2064569" lon="9.5554776"><ele>9.0</ele><time>2026-05-02T15:02:19.618Z</time></trkpt><trkpt lat="37.2064723" lon="9.5556215"><ele>9.0</ele><time>2026-05-02T15:02:20.613Z</time></trkpt><trkpt lat="37.206478" lon="9.5557649"><ele>9.0</ele><time>2026-05-02T15:02:21.62Z</time></trkpt><trkpt lat="37.2064791" lon="9.5559023"><ele>9.0</ele><time>2026-05-02T15:02:22.612Z</time></trkpt><trkpt lat="37.2064877" lon="9.5560352"><ele>9.0</ele><time>2026-05-02T15:02:23.614Z</time></trkpt><trkpt lat="37.2064982" lon="9.5561655"><ele>9.6</ele><time>2026-05-02T15:02:24.615Z</time></trkpt><trkpt lat="37.2065114" lon="9.5562922"><ele>10.2</ele><time>2026-05-02T15:02:25.613Z</time></trkpt><trkpt lat="37.2065185" lon="9.556422"><ele>10.799999999999999</ele><time>2026-05-02T15:02:26.61Z</time></trkpt><trkpt lat="37.2065369" lon="9.5565516"><ele>11.4</ele><time>2026-05-02T15:02:27.614Z</time></trkpt><trkpt lat="37.206552" lon="9.5566732"><ele>12.0</ele><time>2026-05-02T15:02:28.617Z</time></trkpt><trkpt lat="37.2065656" lon="9.5567948"><ele>12.0</ele><time>2026-05-02T15:02:29.635Z</time></trkpt><trkpt lat="37.2065762" lon="9.5569152"><ele>12.0</ele><time>2026-05-02T15:02:30.616Z</time></trkpt><trkpt lat="37.2065913" lon="9.5570309"><ele>12.0</ele><time>2026-05-02T15:02:31.626Z</time></trkpt><trkpt lat="37.2065987" lon="9.5571374"><ele>12.0</ele><time>2026-05-02T15:02:32.624Z</time></trkpt><trkpt lat="37.2066024" lon="9.5572345"><ele>12.0</ele><time>2026-05-02T15:02:33.611Z</time></trkpt><trkpt lat="37.2066045" lon="9.5573313"><ele>12.0</ele><time>2026-05-02T15:02:34.623Z</time></trkpt><trkpt lat="37.2065951" lon="9.557426"><ele>12.166666666666666</ele><time>2026-05-02T15:02:35.613Z</time></trkpt><trkpt lat="37.206572" lon="9.5575274"><ele>12.333333333333332</ele><time>2026-05-02T15:02:36.617Z</time></trkpt><trkpt lat="37.2065491" lon="9.5576384"><ele>12.5</ele><time>2026-05-02T15:02:37.615Z</time></trkpt><trkpt lat="37.2065349" lon="9.5577459"><ele>12.666666666666666</ele><time>2026-05-02T15:02:38.619Z</time></trkpt><trkpt lat="37.206515" lon="9.5578496"><ele>12.833333333333332</ele><time>2026-05-02T15:02:39.612Z</time></trkpt><trkpt lat="37.2064765" lon="9.5579621"><ele>13.0</ele><time>2026-05-02T15:02:40.619Z</time></trkpt><trkpt lat="37.2064289" lon="9.558085"><ele>12.5</ele><time>2026-05-02T15:02:41.622Z</time></trkpt><trkpt lat="37.2063846" lon="9.5582163"><ele>12.0</ele><time>2026-05-02T15:02:42.631Z</time></trkpt><trkpt lat="37.206327" lon="9.5583503"><ele>11.5</ele><time>2026-05-02T15:02:43.614Z</time></trkpt><trkpt lat="37.2062704" lon="9.5584883"><ele>11.0</ele><time>2026-05-02T15:02:44.609Z</time></trkpt><trkpt lat="37.206211" lon="9.558623"><ele>11.0</ele><time>2026-05-02T15:02:45.617Z</time></trkpt><trkpt lat="37.2061584" lon="9.5587518"><ele>11.0</ele><time>2026-05-02T15:02:46.617Z</time></trkpt><trkpt lat="37.206095" lon="9.5588802"><ele>11.0</ele><time>2026-05-02T15:02:47.624Z</time></trkpt><trkpt lat="37.2060354" lon="9.5590038"><ele>11.0</ele><time>2026-05-02T15:02:48.62Z</time></trkpt><trkpt lat="37.2059733" lon="9.5591254"><ele>11.0</ele><time>2026-05-02T15:02:49.621Z</time></trkpt><trkpt lat="37.2059117" lon="9.5592464"><ele>11.0</ele><time>2026-05-02T15:02:50.621Z</time></trkpt><trkpt lat="37.205846" lon="9.5593826"><ele>11.0</ele><time>2026-05-02T15:02:51.628Z</time></trkpt><trkpt lat="37.2057736" lon="9.5595286"><ele>11.0</ele><time>2026-05-02T15:02:52.619Z</time></trkpt><trkpt lat="37.2056894" lon="9.5596886"><ele>10.666666666666666</ele><time>2026-05-02T15:02:53.612Z</time></trkpt><trkpt lat="37.2056008" lon="9.5598608"><ele>10.333333333333334</ele><time>2026-05-02T15:02:54.621Z</time></trkpt><trkpt lat="37.205513" lon="9.5600382"><ele>10.0</ele><time>2026-05-02T15:02:55.621Z</time></trkpt><trkpt lat="37.2054246" lon="9.5602114"><ele>9.666666666666668</ele><time>2026-05-02T15:02:56.618Z</time></trkpt><trkpt lat="37.2053327" lon="9.5603952"><ele>9.333333333333334</ele><time>2026-05-02T15:02:57.621Z</time></trkpt><trkpt lat="37.2052434" lon="9.5605784"><ele>9.0</ele><time>2026-05-02T15:02:58.634Z</time></trkpt><trkpt lat="37.2051546" lon="9.5607533"><ele>9.0</ele><time>2026-05-02T15:02:59.617Z</time></trkpt><trkpt lat="37.2050694" lon="9.5609244"><ele>9.0</ele><time>2026-05-02T15:03:00.615Z</time></trkpt><trkpt lat="37.2049846" lon="9.5610905"><ele>9.0</ele><time>2026-05-02T15:03:01.617Z</time></trkpt><trkpt lat="37.2048991" lon="9.5612553"><ele>8.666666666666666</ele><time>2026-05-02T15:03:02.615Z</time></trkpt><trkpt lat="37.2048129" lon="9.5614226"><ele>8.333333333333332</ele><time>2026-05-02T15:03:03.623Z</time></trkpt><trkpt lat="37.2047276" lon="9.5615993"><ele>8.0</ele><time>2026-05-02T15:03:04.617Z</time></trkpt><trkpt lat="37.2046447" lon="9.5617774"><ele>8.0</ele><time>2026-05-02T15:03:05.616Z</time></trkpt><trkpt lat="37.2045575" lon="9.5619589"><ele>8.0</ele><time>2026-05-02T15:03:06.614Z</time></trkpt><trkpt lat="37.2044724" lon="9.5621429"><ele>8.0</ele><time>2026-05-02T15:03:07.615Z</time></trkpt><trkpt lat="37.2043838" lon="9.5623166"><ele>7.666666666666666</ele><time>2026-05-02T15:03:08.624Z</time></trkpt><trkpt lat="37.2042984" lon="9.5624894"><ele>7.333333333333334</ele><time>2026-05-02T15:03:09.62Z</time></trkpt><trkpt lat="37.2042118" lon="9.5626552"><ele>7.0</ele><time>2026-05-02T15:03:10.617Z</time></trkpt><trkpt lat="37.2041286" lon="9.5628117"><ele>7.0</ele><time>2026-05-02T15:03:11.637Z</time></trkpt><trkpt lat="37.2040539" lon="9.562967"><ele>7.0</ele><time>2026-05-02T15:03:12.607Z</time></trkpt><trkpt lat="37.2039774" lon="9.563122"><ele>7.0</ele><time>2026-05-02T15:03:13.621Z</time></trkpt><trkpt lat="37.2039033" lon="9.5632782"><ele>7.0</ele><time>2026-05-02T15:03:14.634Z</time></trkpt><trkpt lat="37.2038242" lon="9.5634385"><ele>7.0</ele><time>2026-05-02T15:03:15.623Z</time></trkpt><trkpt lat="37.2037474" lon="9.5635956"><ele>7.0</ele><time>2026-05-02T15:03:16.618Z</time></trkpt><trkpt lat="37.2036664" lon="9.5637579"><ele>7.0</ele><time>2026-05-02T15:03:17.628Z</time></trkpt><trkpt lat="37.2035835" lon="9.5639178"><ele>7.0</ele><time>2026-05-02T15:03:18.613Z</time></trkpt><trkpt lat="37.2035047" lon="9.5640753"><ele>7.0</ele><time>2026-05-02T15:03:19.613Z</time></trkpt><trkpt lat="37.2034257" lon="9.5642336"><ele>7.0</ele><time>2026-05-02T15:03:20.632Z</time></trkpt><trkpt lat="37.2033459" lon="9.5643939"><ele>7.0</ele><time>2026-05-02T15:03:21.625Z</time></trkpt><trkpt lat="37.2032669" lon="9.5645463"><ele>7.0</ele><time>2026-05-02T15:03:22.615Z</time></trkpt><trkpt lat="37.2031929" lon="9.564692"><ele>7.0</ele><time>2026-05-02T15:03:23.613Z</time></trkpt><trkpt lat="37.2031253" lon="9.5648301"><ele>7.0</ele><time>2026-05-02T15:03:24.621Z</time></trkpt><trkpt lat="37.2030545" lon="9.5649671"><ele>7.0</ele><time>2026-05-02T15:03:25.623Z</time></trkpt><trkpt lat="37.2029875" lon="9.5651061"><ele>7.0</ele><time>2026-05-02T15:03:26.617Z</time></trkpt><trkpt lat="37.2029176" lon="9.5652452"><ele>7.0</ele><time>2026-05-02T15:03:27.615Z</time></trkpt><trkpt lat="37.2028494" lon="9.5653835"><ele>7.0</ele><time>2026-05-02T15:03:28.621Z</time></trkpt><trkpt lat="37.2027817" lon="9.5655215"><ele>7.0</ele><time>2026-05-02T15:03:29.621Z</time></trkpt><trkpt lat="37.2027147" lon="9.5656605"><ele>7.0</ele><time>2026-05-02T15:03:30.62Z</time></trkpt><trkpt lat="37.2026455" lon="9.5658012"><ele>7.0</ele><time>2026-05-02T15:03:31.618Z</time></trkpt><trkpt lat="37.202573" lon="9.5659493"><ele>7.0</ele><time>2026-05-02T15:03:32.633Z</time></trkpt><trkpt lat="37.2024944" lon="9.5660901"><ele>7.0</ele><time>2026-05-02T15:03:33.611Z</time></trkpt><trkpt lat="37.2024235" lon="9.566234"><ele>7.0</ele><time>2026-05-02T15:03:34.613Z</time></trkpt><trkpt lat="37.2023535" lon="9.5663719"><ele>7.0</ele><time>2026-05-02T15:03:35.612Z</time></trkpt><trkpt lat="37.2022822" lon="9.5665081"><ele>7.0</ele><time>2026-05-02T15:03:36.622Z</time></trkpt><trkpt lat="37.2022125" lon="9.5666423"><ele>7.0</ele><time>2026-05-02T15:03:37.615Z</time></trkpt><trkpt lat="37.2021421" lon="9.5667774"><ele>6.75</ele><time>2026-05-02T15:03:38.613Z</time></trkpt><trkpt lat="37.2020728" lon="9.5669211"><ele>6.5</ele><time>2026-05-02T15:03:39.624Z</time></trkpt><trkpt lat="37.2019993" lon="9.5670647"><ele>6.25</ele><time>2026-05-02T15:03:40.619Z</time></trkpt><trkpt lat="37.2019309" lon="9.5672091"><ele>6.0</ele><time>2026-05-02T15:03:41.63Z</time></trkpt><trkpt lat="37.2018603" lon="9.5673489"><ele>6.0</ele><time>2026-05-02T15:03:42.62Z</time></trkpt><trkpt lat="37.2017851" lon="9.5674966"><ele>6.0</ele><time>2026-05-02T15:03:43.617Z</time></trkpt><trkpt lat="37.2017071" lon="9.5676442"><ele>6.0</ele><time>2026-05-02T15:03:44.617Z</time></trkpt><trkpt lat="37.2016326" lon="9.567795"><ele>6.0</ele><time>2026-05-02T15:03:45.623Z</time></trkpt><trkpt lat="37.2015542" lon="9.5679454"><ele>5.75</ele><time>2026-05-02T15:03:46.622Z</time></trkpt><trkpt lat="37.2014801" lon="9.5681023"><ele>5.5</ele><time>2026-05-02T15:03:47.628Z</time></trkpt><trkpt lat="37.2014035" lon="9.568257"><ele>5.25</ele><time>2026-05-02T15:03:48.621Z</time></trkpt><trkpt lat="37.2013263" lon="9.5684099"><ele>5.0</ele><time>2026-05-02T15:03:49.62Z</time></trkpt><trkpt lat="37.2012511" lon="9.5685603"><ele>5.25</ele><time>2026-05-02T15:03:50.624Z</time></trkpt><trkpt lat="37.2011772" lon="9.5687132"><ele>5.5</ele><time>2026-05-02T15:03:51.623Z</time></trkpt><trkpt lat="37.201105" lon="9.5688674"><ele>5.75</ele><time>2026-05-02T15:03:52.615Z</time></trkpt><trkpt lat="37.201028" lon="9.5690218"><ele>6.0</ele><time>2026-05-02T15:03:53.62Z</time></trkpt><trkpt lat="37.2009474" lon="9.5691731"><ele>6.0</ele><time>2026-05-02T15:03:54.621Z</time></trkpt><trkpt lat="37.2008725" lon="9.5693304"><ele>6.0</ele><time>2026-05-02T15:03:55.618Z</time></trkpt><trkpt lat="37.2007938" lon="9.5694816"><ele>6.0</ele><time>2026-05-02T15:03:56.627Z</time></trkpt><trkpt lat="37.2007143" lon="9.5696353"><ele>6.0</ele><time>2026-05-02T15:03:57.622Z</time></trkpt><trkpt lat="37.2006388" lon="9.5697892"><ele>6.0</ele><time>2026-05-02T15:03:58.633Z</time></trkpt><trkpt lat="37.2005658" lon="9.5699436"><ele>6.0</ele><time>2026-05-02T15:03:59.626Z</time></trkpt><trkpt lat="37.2004917" lon="9.5700941"><ele>6.0</ele><time>2026-05-02T15:04:00.616Z</time></trkpt><trkpt lat="37.2004175" lon="9.5702422"><ele>6.0</ele><time>2026-05-02T15:04:01.608Z</time></trkpt><trkpt lat="37.2003419" lon="9.5703905"><ele>5.5</ele><time>2026-05-02T15:04:02.624Z</time></trkpt><trkpt lat="37.2002657" lon="9.5705298"><ele>5.0</ele><time>2026-05-02T15:04:03.619Z</time></trkpt><trkpt lat="37.2001931" lon="9.5706752"><ele>4.5</ele><time>2026-05-02T15:04:04.624Z</time></trkpt><trkpt lat="37.2001217" lon="9.5708242"><ele>4.0</ele><time>2026-05-02T15:04:05.616Z</time></trkpt><trkpt lat="37.20005" lon="9.570976"><ele>4.0</ele><time>2026-05-02T15:04:06.611Z</time></trkpt><trkpt lat="37.199978" lon="9.5711237"><ele>4.0</ele><time>2026-05-02T15:04:07.615Z</time></trkpt><trkpt lat="37.1999053" lon="9.5712706"><ele>4.0</ele><time>2026-05-02T15:04:08.62Z</time></trkpt><trkpt lat="37.199833" lon="9.5714189"><ele>4.0</ele><time>2026-05-02T15:04:09.616Z</time></trkpt><trkpt lat="37.1997598" lon="9.5715661"><ele>4.5</ele><time>2026-05-02T15:04:10.618Z</time></trkpt><trkpt lat="37.1996867" lon="9.5717131"><ele>5.0</ele><time>2026-05-02T15:04:11.618Z</time></trkpt><trkpt lat="37.1996128" lon="9.5718562"><ele>5.5</ele><time>2026-05-02T15:04:12.618Z</time></trkpt><trkpt lat="37.199541" lon="9.5719966"><ele>6.0</ele><time>2026-05-02T15:04:13.614Z</time></trkpt><trkpt lat="37.1994637" lon="9.5721416"><ele>6.0</ele><time>2026-05-02T15:04:14.64Z</time></trkpt><trkpt lat="37.1993887" lon="9.5722866"><ele>6.0</ele><time>2026-05-02T15:04:15.619Z</time></trkpt><trkpt lat="37.1993122" lon="9.5724311"><ele>6.0</ele><time>2026-05-02T15:04:16.617Z</time></trkpt><trkpt lat="37.1992376" lon="9.5725881"><ele>6.0</ele><time>2026-05-02T15:04:17.616Z</time></trkpt><trkpt lat="37.1991626" lon="9.5727425"><ele>6.0</ele><time>2026-05-02T15:04:18.621Z</time></trkpt><trkpt lat="37.1990878" lon="9.5728973"><ele>6.0</ele><time>2026-05-02T15:04:19.62Z</time></trkpt><trkpt lat="37.1990054" lon="9.5730555"><ele>6.0</ele><time>2026-05-02T15:04:20.612Z</time></trkpt><trkpt lat="37.1989257" lon="9.5732146"><ele>6.0</ele><time>2026-05-02T15:04:21.621Z</time></trkpt><trkpt lat="37.1988538" lon="9.5733809"><ele>5.666666666666667</ele><time>2026-05-02T15:04:22.618Z</time></trkpt><trkpt lat="37.1987706" lon="9.5735494"><ele>5.333333333333334</ele><time>2026-05-02T15:04:23.62Z</time></trkpt><trkpt lat="37.198688" lon="9.57371"><ele>5.0</ele><time>2026-05-02T15:04:24.619Z</time></trkpt><trkpt lat="37.198612" lon="9.573872"><ele>5.0</ele><time>2026-05-02T15:04:25.62Z</time></trkpt><trkpt lat="37.1985313" lon="9.5740364"><ele>5.0</ele><time>2026-05-02T15:04:26.632Z</time></trkpt><trkpt lat="37.1984497" lon="9.5742007"><ele>5.0</ele><time>2026-05-02T15:04:27.618Z</time></trkpt><trkpt lat="37.1983645" lon="9.574365"><ele>4.666666666666667</ele><time>2026-05-02T15:04:28.613Z</time></trkpt><trkpt lat="37.19828" lon="9.5745239"><ele>4.333333333333333</ele><time>2026-05-02T15:04:29.636Z</time></trkpt><trkpt lat="37.1981955" lon="9.5746876"><ele>4.0</ele><time>2026-05-02T15:04:30.618Z</time></trkpt><trkpt lat="37.198112" lon="9.5748513"><ele>4.0</ele><time>2026-05-02T15:04:31.62Z</time></trkpt><trkpt lat="37.1980287" lon="9.5750128"><ele>4.0</ele><time>2026-05-02T15:04:32.619Z</time></trkpt><trkpt lat="37.1979498" lon="9.5751771"><ele>4.0</ele><time>2026-05-02T15:04:33.622Z</time></trkpt><trkpt lat="37.1978653" lon="9.5753534"><ele>3.6666666666666665</ele><time>2026-05-02T15:04:34.618Z</time></trkpt><trkpt lat="37.1977849" lon="9.5755259"><ele>3.333333333333333</ele><time>2026-05-02T15:04:35.619Z</time></trkpt><trkpt lat="37.1976991" lon="9.5756993"><ele>3.0</ele><time>2026-05-02T15:04:36.62Z</time></trkpt><trkpt lat="37.1976116" lon="9.5758676"><ele>3.0</ele><time>2026-05-02T15:04:37.62Z</time></trkpt><trkpt lat="37.1975279" lon="9.5760391"><ele>3.0</ele><time>2026-05-02T15:04:38.613Z</time></trkpt><trkpt lat="37.1974378" lon="9.5762199"><ele>3.0</ele><time>2026-05-02T15:04:39.611Z</time></trkpt><trkpt lat="37.1973502" lon="9.5763933"><ele>3.333333333333333</ele><time>2026-05-02T15:04:40.649Z</time></trkpt><trkpt lat="37.1972665" lon="9.5765634"><ele>3.6666666666666665</ele><time>2026-05-02T15:04:41.622Z</time></trkpt><trkpt lat="37.1971801" lon="9.5767229"><ele>4.0</ele><time>2026-05-02T15:04:42.618Z</time></trkpt><trkpt lat="37.1970927" lon="9.5768829"><ele>4.333333333333333</ele><time>2026-05-02T15:04:43.609Z</time></trkpt><trkpt lat="37.1970109" lon="9.5770406"><ele>4.666666666666667</ele><time>2026-05-02T15:04:44.608Z</time></trkpt><trkpt lat="37.1969243" lon="9.5772118"><ele>5.0</ele><time>2026-05-02T15:04:45.643Z</time></trkpt><trkpt lat="37.1968402" lon="9.5773779"><ele>5.0</ele><time>2026-05-02T15:04:46.603Z</time></trkpt><trkpt lat="37.1967574" lon="9.5775532"><ele>5.0</ele><time>2026-05-02T15:04:47.609Z</time></trkpt><trkpt lat="37.1966733" lon="9.5777248"><ele>5.0</ele><time>2026-05-02T15:04:48.667Z</time></trkpt><trkpt lat="37.1965908" lon="9.5778978"><ele>4.666666666666667</ele><time>2026-05-02T15:04:49.616Z</time></trkpt><trkpt lat="37.1965038" lon="9.5780739"><ele>4.333333333333333</ele><time>2026-05-02T15:04:50.622Z</time></trkpt><trkpt lat="37.1964195" lon="9.5782461"><ele>4.0</ele><time>2026-05-02T15:04:51.619Z</time></trkpt><trkpt lat="37.1963315" lon="9.5784178"><ele>4.0</ele><time>2026-05-02T15:04:52.607Z</time></trkpt><trkpt lat="37.1962449" lon="9.5785925"><ele>4.0</ele><time>2026-05-02T15:04:53.618Z</time></trkpt><trkpt lat="37.1961584" lon="9.5787625"><ele>4.0</ele><time>2026-05-02T15:04:54.612Z</time></trkpt><trkpt lat="37.1960776" lon="9.5789373"><ele>4.0</ele><time>2026-05-02T15:04:55.62Z</time></trkpt><trkpt lat="37.1959879" lon="9.5791126"><ele>4.0</ele><time>2026-05-02T15:04:56.617Z</time></trkpt><trkpt lat="37.1958936" lon="9.5792856"><ele>4.0</ele><time>2026-05-02T15:04:57.619Z</time></trkpt><trkpt lat="37.1958055" lon="9.5794666"><ele>4.333333333333333</ele><time>2026-05-02T15:04:58.618Z</time></trkpt><trkpt lat="37.1957237" lon="9.5796463"><ele>4.666666666666667</ele><time>2026-05-02T15:04:59.618Z</time></trkpt><trkpt lat="37.1956374" lon="9.579818"><ele>5.0</ele><time>2026-05-02T15:05:00.612Z</time></trkpt><trkpt lat="37.1955511" lon="9.5799885"><ele>5.0</ele><time>2026-05-02T15:05:01.61Z</time></trkpt><trkpt lat="37.1954666" lon="9.5801583"><ele>5.0</ele><time>2026-05-02T15:05:02.617Z</time></trkpt><trkpt lat="37.1953807" lon="9.5803289"><ele>5.0</ele><time>2026-05-02T15:05:03.619Z</time></trkpt><trkpt lat="37.1952961" lon="9.5804945"><ele>5.0</ele><time>2026-05-02T15:05:04.63Z</time></trkpt><trkpt lat="37.1952122" lon="9.5806523"><ele>5.0</ele><time>2026-05-02T15:05:05.619Z</time></trkpt><trkpt lat="37.1951286" lon="9.5808164"><ele>5.0</ele><time>2026-05-02T15:05:06.617Z</time></trkpt><trkpt lat="37.1950507" lon="9.5809803"><ele>5.0</ele><time>2026-05-02T15:05:07.607Z</time></trkpt><trkpt lat="37.1949749" lon="9.5811425"><ele>5.0</ele><time>2026-05-02T15:05:08.615Z</time></trkpt><trkpt lat="37.194896" lon="9.5813032"><ele>5.0</ele><time>2026-05-02T15:05:09.617Z</time></trkpt><trkpt lat="37.194819" lon="9.5814607"><ele>5.0</ele><time>2026-05-02T15:05:10.615Z</time></trkpt><trkpt lat="37.194745" lon="9.5816115"><ele>4.6</ele><time>2026-05-02T15:05:11.613Z</time></trkpt><trkpt lat="37.1946793" lon="9.5817518"><ele>4.2</ele><time>2026-05-02T15:05:12.617Z</time></trkpt><trkpt lat="37.1946241" lon="9.5818755"><ele>3.8</ele><time>2026-05-02T15:05:13.601Z</time></trkpt><trkpt lat="37.1945794" lon="9.5819677"><ele>3.4</ele><time>2026-05-02T15:05:14.611Z</time></trkpt><trkpt lat="37.1945476" lon="9.5820381"><ele>3.0</ele><time>2026-05-02T15:05:15.611Z</time></trkpt><trkpt lat="37.1945099" lon="9.5821039"><ele>2.8</ele><time>2026-05-02T15:05:17.614Z</time></trkpt><trkpt lat="37.1944183" lon="9.5821871"><ele>2.5999999999999996</ele><time>2026-05-02T15:05:31.616Z</time></trkpt><trkpt lat="37.1943586" lon="9.5822847"><ele>2.4000000000000004</ele><time>2026-05-02T15:05:33.632Z</time></trkpt><trkpt lat="37.1943615" lon="9.5824173"><ele>2.2</ele><time>2026-05-02T15:05:35.614Z</time></trkpt><trkpt lat="37.1944111" lon="9.5825099"><ele>2.0</ele><time>2026-05-02T15:05:37.61Z</time></trkpt><trkpt lat="37.1944797" lon="9.5825826"><ele>1.9999999999999998</ele><time>2026-05-02T15:05:39.619Z</time></trkpt><trkpt lat="37.1945201" lon="9.5826908"><ele>2.0</ele><time>2026-05-02T15:05:41.615Z</time></trkpt><trkpt lat="37.1945555" lon="9.5828281"><ele>2.0</ele><time>2026-05-02T15:05:43.614Z</time></trkpt><trkpt lat="37.1945807" lon="9.5829069"><ele>2.0</ele><time>2026-05-02T15:05:44.612Z</time></trkpt><trkpt lat="37.1946131" lon="9.5829875"><ele>1.9999999999999998</ele><time>2026-05-02T15:05:45.617Z</time></trkpt><trkpt lat="37.194652" lon="9.5830814"><ele>2.0</ele><time>2026-05-02T15:05:46.615Z</time></trkpt><trkpt lat="37.1946916" lon="9.583172"><ele>1.9999999999999998</ele><time>2026-05-02T15:05:47.621Z</time></trkpt><trkpt lat="37.1947289" lon="9.5832596"><ele>2.0</ele><time>2026-05-02T15:05:48.623Z</time></trkpt><trkpt lat="37.1947685" lon="9.5833503"><ele>2.0</ele><time>2026-05-02T15:05:49.623Z</time></trkpt><trkpt lat="37.1948097" lon="9.5834368"><ele>2.0</ele><time>2026-05-02T15:05:50.607Z</time></trkpt><trkpt lat="37.1948512" lon="9.5835227"><ele>1.9999999999999998</ele><time>2026-05-02T15:05:51.62Z</time></trkpt><trkpt lat="37.1948892" lon="9.5836073"><ele>2.0</ele><time>2026-05-02T15:05:52.614Z</time></trkpt><trkpt lat="37.1949286" lon="9.5836921"><ele>2.1666666666666665</ele><time>2026-05-02T15:05:53.603Z</time></trkpt><trkpt lat="37.1949704" lon="9.5837812"><ele>2.333333333333333</ele><time>2026-05-02T15:05:54.614Z</time></trkpt><trkpt lat="37.1950084" lon="9.5838565"><ele>2.5</ele><time>2026-05-02T15:05:55.613Z</time></trkpt><trkpt lat="37.1950521" lon="9.5839422"><ele>2.6666666666666665</ele><time>2026-05-02T15:05:56.609Z</time></trkpt><trkpt lat="37.1950922" lon="9.5840227"><ele>2.8333333333333335</ele><time>2026-05-02T15:05:57.607Z</time></trkpt><trkpt lat="37.1951368" lon="9.5841143"><ele>3.0</ele><time>2026-05-02T15:05:58.607Z</time></trkpt><trkpt lat="37.195198" lon="9.5842314"><ele>3.0</ele><time>2026-05-02T15:05:59.615Z</time></trkpt><trkpt lat="37.1952606" lon="9.5843749"><ele>3.0</ele><time>2026-05-02T15:06:00.611Z</time></trkpt><trkpt lat="37.1953161" lon="9.584476"><ele>3.0</ele><time>2026-05-02T15:06:01.632Z</time></trkpt><trkpt lat="37.1953641" lon="9.5845531"><ele>3.0</ele><time>2026-05-02T15:06:02.622Z</time></trkpt><trkpt lat="37.1953943" lon="9.5846357"><ele>3.0</ele><time>2026-05-02T15:06:03.62Z</time></trkpt><trkpt lat="37.1954356" lon="9.5847154"><ele>3.0</ele><time>2026-05-02T15:06:04.615Z</time></trkpt><trkpt lat="37.1954736" lon="9.5847983"><ele>3.0</ele><time>2026-05-02T15:06:05.619Z</time></trkpt><trkpt lat="37.1955099" lon="9.5848829"><ele>3.0</ele><time>2026-05-02T15:06:06.62Z</time></trkpt><trkpt lat="37.1955428" lon="9.5849578"><ele>3.0</ele><time>2026-05-02T15:06:07.615Z</time></trkpt><trkpt lat="37.1955686" lon="9.5850332"><ele>3.0</ele><time>2026-05-02T15:06:08.605Z</time></trkpt><trkpt lat="37.1956105" lon="9.5851669"><ele>3.0</ele><time>2026-05-02T15:06:10.624Z</time></trkpt><trkpt lat="37.1956516" lon="9.5853019"><ele>3.0</ele><time>2026-05-02T15:06:12.621Z</time></trkpt><trkpt lat="37.1956965" lon="9.5854401"><ele>3.0</ele><time>2026-05-02T15:06:14.614Z</time></trkpt><trkpt lat="37.1957222" lon="9.5855177"><ele>3.0</ele><time>2026-05-02T15:06:15.625Z</time></trkpt><trkpt lat="37.1957508" lon="9.5855989"><ele>3.0</ele><time>2026-05-02T15:06:16.612Z</time></trkpt><trkpt lat="37.1957805" lon="9.5856891"><ele>3.0</ele><time>2026-05-02T15:06:17.615Z</time></trkpt><trkpt lat="37.1958111" lon="9.5857828"><ele>3.0</ele><time>2026-05-02T15:06:18.616Z</time></trkpt><trkpt lat="37.1958388" lon="9.5858804"><ele>3.0</ele><time>2026-05-02T15:06:19.619Z</time></trkpt><trkpt lat="37.1958615" lon="9.5859933"><ele>3.0</ele><time>2026-05-02T15:06:20.609Z</time></trkpt><trkpt lat="37.1958814" lon="9.5861216"><ele>3.0</ele><time>2026-05-02T15:06:21.618Z</time></trkpt><trkpt lat="37.1958972" lon="9.58626"><ele>3.0</ele><time>2026-05-02T15:06:22.629Z</time></trkpt><trkpt lat="37.1959087" lon="9.5864007"><ele>3.0</ele><time>2026-05-02T15:06:23.62Z</time></trkpt><trkpt lat="37.1959128" lon="9.5865482"><ele>3.0</ele><time>2026-05-02T15:06:24.624Z</time></trkpt><trkpt lat="37.1959104" lon="9.5866902"><ele>3.0</ele><time>2026-05-02T15:06:25.611Z</time></trkpt><trkpt lat="37.1959091" lon="9.5868308"><ele>3.0</ele><time>2026-05-02T15:06:26.617Z</time></trkpt><trkpt lat="37.1958986" lon="9.5869616"><ele>3.0</ele><time>2026-05-02T15:06:27.627Z</time></trkpt><trkpt lat="37.1958892" lon="9.5870866"><ele>3.0</ele><time>2026-05-02T15:06:28.611Z</time></trkpt><trkpt lat="37.1958753" lon="9.587212"><ele>3.4</ele><time>2026-05-02T15:06:29.616Z</time></trkpt><trkpt lat="37.1958606" lon="9.5873393"><ele>3.8</ele><time>2026-05-02T15:06:30.605Z</time></trkpt><trkpt lat="37.1958403" lon="9.587468"><ele>4.2</ele><time>2026-05-02T15:06:31.618Z</time></trkpt><trkpt lat="37.1958108" lon="9.587601"><ele>4.6</ele><time>2026-05-02T15:06:32.619Z</time></trkpt><trkpt lat="37.1957806" lon="9.5877306"><ele>5.0</ele><time>2026-05-02T15:06:33.609Z</time></trkpt><trkpt lat="37.1957441" lon="9.5878616"><ele>5.0</ele><time>2026-05-02T15:06:34.612Z</time></trkpt><trkpt lat="37.1957024" lon="9.5879957"><ele>5.0</ele><time>2026-05-02T15:06:35.612Z</time></trkpt><trkpt lat="37.1956553" lon="9.5881279"><ele>5.0</ele><time>2026-05-02T15:06:36.617Z</time></trkpt><trkpt lat="37.1956073" lon="9.5882605"><ele>5.0</ele><time>2026-05-02T15:06:37.605Z</time></trkpt><trkpt lat="37.1955625" lon="9.5883905"><ele>4.25</ele><time>2026-05-02T15:06:38.616Z</time></trkpt><trkpt lat="37.1955139" lon="9.5885247"><ele>3.5</ele><time>2026-05-02T15:06:39.615Z</time></trkpt><trkpt lat="37.1954692" lon="9.5886623"><ele>2.75</ele><time>2026-05-02T15:06:40.622Z</time></trkpt><trkpt lat="37.1954243" lon="9.5888023"><ele>2.0</ele><time>2026-05-02T15:06:41.61Z</time></trkpt><trkpt lat="37.1953815" lon="9.5889429"><ele>2.0</ele><time>2026-05-02T15:06:42.622Z</time></trkpt><trkpt lat="37.1953401" lon="9.5890828"><ele>2.0</ele><time>2026-05-02T15:06:43.613Z</time></trkpt><trkpt lat="37.1953048" lon="9.5892296"><ele>2.0</ele><time>2026-05-02T15:06:44.616Z</time></trkpt><trkpt lat="37.1952678" lon="9.589375"><ele>2.0</ele><time>2026-05-02T15:06:45.617Z</time></trkpt><trkpt lat="37.195237" lon="9.5895275"><ele>2.25</ele><time>2026-05-02T15:06:46.624Z</time></trkpt><trkpt lat="37.1952106" lon="9.5896824"><ele>2.5</ele><time>2026-05-02T15:06:47.625Z</time></trkpt><trkpt lat="37.1951835" lon="9.589831"><ele>2.75</ele><time>2026-05-02T15:06:48.612Z</time></trkpt><trkpt lat="37.1951591" lon="9.5899814"><ele>3.0</ele><time>2026-05-02T15:06:49.618Z</time></trkpt><trkpt lat="37.1951394" lon="9.5901332"><ele>3.0</ele><time>2026-05-02T15:06:50.617Z</time></trkpt><trkpt lat="37.1951298" lon="9.5902889"><ele>3.0</ele><time>2026-05-02T15:06:51.614Z</time></trkpt><trkpt lat="37.1951292" lon="9.590446"><ele>3.0</ele><time>2026-05-02T15:06:52.619Z</time></trkpt><trkpt lat="37.195134" lon="9.5906154"><ele>3.0</ele><time>2026-05-02T15:06:53.604Z</time></trkpt><trkpt lat="37.1951408" lon="9.5907821"><ele>2.75</ele><time>2026-05-02T15:06:54.62Z</time></trkpt><trkpt lat="37.1951508" lon="9.590949"><ele>2.5</ele><time>2026-05-02T15:06:55.623Z</time></trkpt><trkpt lat="37.1951641" lon="9.5911166"><ele>2.25</ele><time>2026-05-02T15:06:56.614Z</time></trkpt><trkpt lat="37.1951763" lon="9.5912884"><ele>2.0</ele><time>2026-05-02T15:06:57.614Z</time></trkpt><trkpt lat="37.1951912" lon="9.5914642"><ele>2.0</ele><time>2026-05-02T15:06:58.606Z</time></trkpt><trkpt lat="37.1952083" lon="9.5916408"><ele>2.0</ele><time>2026-05-02T15:06:59.647Z</time></trkpt><trkpt lat="37.1952265" lon="9.5918178"><ele>2.0</ele><time>2026-05-02T15:07:00.613Z</time></trkpt><trkpt lat="37.1952422" lon="9.5919952"><ele>2.0</ele><time>2026-05-02T15:07:01.614Z</time></trkpt><trkpt lat="37.1952613" lon="9.5921749"><ele>1.75</ele><time>2026-05-02T15:07:02.618Z</time></trkpt><trkpt lat="37.1952761" lon="9.5923568"><ele>1.5</ele><time>2026-05-02T15:07:03.613Z</time></trkpt><trkpt lat="37.1952926" lon="9.5925425"><ele>1.25</ele><time>2026-05-02T15:07:04.637Z</time></trkpt><trkpt lat="37.1953072" lon="9.5927264"><ele>1.0</ele><time>2026-05-02T15:07:05.608Z</time></trkpt><trkpt lat="37.1953231" lon="9.5929083"><ele>1.0</ele><time>2026-05-02T15:07:06.613Z</time></trkpt><trkpt lat="37.1953454" lon="9.5930921"><ele>1.0</ele><time>2026-05-02T15:07:07.609Z</time></trkpt><trkpt lat="37.1953702" lon="9.5932761"><ele>1.0</ele><time>2026-05-02T15:07:08.614Z</time></trkpt><trkpt lat="37.1953946" lon="9.59346"><ele>1.0</ele><time>2026-05-02T15:07:09.615Z</time></trkpt><trkpt lat="37.1954173" lon="9.5936545"><ele>1.0</ele><time>2026-05-02T15:07:10.61Z</time></trkpt><trkpt lat="37.1954398" lon="9.5938458"><ele>1.0</ele><time>2026-05-02T15:07:11.618Z</time></trkpt><trkpt lat="37.1954722" lon="9.5940342"><ele>1.0</ele><time>2026-05-02T15:07:12.612Z</time></trkpt><trkpt lat="37.1955052" lon="9.5942216"><ele>1.0</ele><time>2026-05-02T15:07:13.613Z</time></trkpt><trkpt lat="37.1955405" lon="9.5944129"><ele>1.0</ele><time>2026-05-02T15:07:14.618Z</time></trkpt><trkpt lat="37.1955808" lon="9.5946006"><ele>1.0</ele><time>2026-05-02T15:07:15.614Z</time></trkpt><trkpt lat="37.1956235" lon="9.5947923"><ele>1.0</ele><time>2026-05-02T15:07:16.612Z</time></trkpt><trkpt lat="37.1956713" lon="9.5949781"><ele>1.0</ele><time>2026-05-02T15:07:17.619Z</time></trkpt><trkpt lat="37.1957177" lon="9.595165"><ele>1.0</ele><time>2026-05-02T15:07:18.633Z</time></trkpt><trkpt lat="37.1957723" lon="9.5953516"><ele>0.6666666666666666</ele><time>2026-05-02T15:07:19.61Z</time></trkpt><trkpt lat="37.1958284" lon="9.5955373"><ele>0.3333333333333333</ele><time>2026-05-02T15:07:20.623Z</time></trkpt><trkpt lat="37.1958861" lon="9.5957243"><ele>0.0</ele><time>2026-05-02T15:07:21.607Z</time></trkpt><trkpt lat="37.1959523" lon="9.5959079"><ele>0.0</ele><time>2026-05-02T15:07:22.621Z</time></trkpt><trkpt lat="37.1960201" lon="9.5960925"><ele>0.0</ele><time>2026-05-02T15:07:23.643Z</time></trkpt><trkpt lat="37.1960876" lon="9.5962789"><ele>0.0</ele><time>2026-05-02T15:07:24.619Z</time></trkpt><trkpt lat="37.1961592" lon="9.5964694"><ele>0.0</ele><time>2026-05-02T15:07:25.618Z</time></trkpt><trkpt lat="37.1962289" lon="9.5966611"><ele>0.0</ele><time>2026-05-02T15:07:26.617Z</time></trkpt><trkpt lat="37.1962973" lon="9.5968501"><ele>0.0</ele><time>2026-05-02T15:07:27.617Z</time></trkpt><trkpt lat="37.1963647" lon="9.5970439"><ele>0.0</ele><time>2026-05-02T15:07:28.621Z</time></trkpt><trkpt lat="37.1964378" lon="9.5972366"><ele>0.0</ele><time>2026-05-02T15:07:29.618Z</time></trkpt><trkpt lat="37.1965056" lon="9.5974256"><ele>0.0</ele><time>2026-05-02T15:07:30.62Z</time></trkpt><trkpt lat="37.1965769" lon="9.597617"><ele>0.0</ele><time>2026-05-02T15:07:31.622Z</time></trkpt><trkpt lat="37.1966532" lon="9.5978069"><ele>0.0</ele><time>2026-05-02T15:07:32.616Z</time></trkpt><trkpt lat="37.1967235" lon="9.5979965"><ele>0.0</ele><time>2026-05-02T15:07:33.611Z</time></trkpt><trkpt lat="37.1967904" lon="9.598187"><ele>0.0</ele><time>2026-05-02T15:07:34.616Z</time></trkpt><trkpt lat="37.196852" lon="9.5983803"><ele>0.0</ele><time>2026-05-02T15:07:35.614Z</time></trkpt><trkpt lat="37.1969075" lon="9.5985695"><ele>0.0</ele><time>2026-05-02T15:07:36.621Z</time></trkpt><trkpt lat="37.19696" lon="9.598753"><ele>0.3333333333333333</ele><time>2026-05-02T15:07:37.615Z</time></trkpt><trkpt lat="37.1970086" lon="9.598933"><ele>0.6666666666666666</ele><time>2026-05-02T15:07:38.616Z</time></trkpt><trkpt lat="37.1970566" lon="9.59911"><ele>1.0</ele><time>2026-05-02T15:07:39.628Z</time></trkpt><trkpt lat="37.1971015" lon="9.5992903"><ele>1.0</ele><time>2026-05-02T15:07:40.634Z</time></trkpt><trkpt lat="37.1971519" lon="9.5994676"><ele>1.0</ele><time>2026-05-02T15:07:41.616Z</time></trkpt><trkpt lat="37.1971956" lon="9.599637"><ele>1.0</ele><time>2026-05-02T15:07:42.616Z</time></trkpt><trkpt lat="37.1972409" lon="9.5998033"><ele>1.0</ele><time>2026-05-02T15:07:43.621Z</time></trkpt><trkpt lat="37.1972854" lon="9.5999719"><ele>1.5</ele><time>2026-05-02T15:07:44.619Z</time></trkpt><trkpt lat="37.1973319" lon="9.6001378"><ele>2.0</ele><time>2026-05-02T15:07:45.617Z</time></trkpt><trkpt lat="37.1973773" lon="9.6003089"><ele>2.5</ele><time>2026-05-02T15:07:46.619Z</time></trkpt><trkpt lat="37.1974221" lon="9.6004782"><ele>3.0</ele><time>2026-05-02T15:07:47.617Z</time></trkpt><trkpt lat="37.197467" lon="9.6006526"><ele>3.0</ele><time>2026-05-02T15:07:48.623Z</time></trkpt><trkpt lat="37.1975129" lon="9.6008338"><ele>3.0</ele><time>2026-05-02T15:07:49.62Z</time></trkpt><trkpt lat="37.1975631" lon="9.6010082"><ele>3.0</ele><time>2026-05-02T15:07:50.613Z</time></trkpt><trkpt lat="37.1976129" lon="9.6011827"><ele>3.0</ele><time>2026-05-02T15:07:51.621Z</time></trkpt><trkpt lat="37.1976634" lon="9.6013578"><ele>3.0</ele><time>2026-05-02T15:07:52.62Z</time></trkpt><trkpt lat="37.1977114" lon="9.6015296"><ele>3.0</ele><time>2026-05-02T15:07:53.62Z</time></trkpt><trkpt lat="37.1977654" lon="9.601702"><ele>3.0</ele><time>2026-05-02T15:07:54.614Z</time></trkpt><trkpt lat="37.1978121" lon="9.6018801"><ele>3.0</ele><time>2026-05-02T15:07:55.616Z</time></trkpt><trkpt lat="37.1978569" lon="9.6020546"><ele>3.0</ele><time>2026-05-02T15:07:56.619Z</time></trkpt><trkpt lat="37.197907" lon="9.6022352"><ele>3.0</ele><time>2026-05-02T15:07:57.623Z</time></trkpt><trkpt lat="37.197961" lon="9.6024158"><ele>3.0</ele><time>2026-05-02T15:07:58.612Z</time></trkpt><trkpt lat="37.1980109" lon="9.6026006"><ele>3.0</ele><time>2026-05-02T15:07:59.629Z</time></trkpt><trkpt lat="37.1980598" lon="9.6027877"><ele>3.0</ele><time>2026-05-02T15:08:00.615Z</time></trkpt><trkpt lat="37.198108" lon="9.6029747"><ele>3.0</ele><time>2026-05-02T15:08:01.624Z</time></trkpt><trkpt lat="37.1981546" lon="9.6031634"><ele>3.666666666666667</ele><time>2026-05-02T15:08:02.611Z</time></trkpt><trkpt lat="37.1982062" lon="9.6033496"><ele>4.333333333333334</ele><time>2026-05-02T15:08:03.632Z</time></trkpt><trkpt lat="37.1982565" lon="9.6035356"><ele>5.0</ele><time>2026-05-02T15:08:04.621Z</time></trkpt><trkpt lat="37.1983051" lon="9.6037241"><ele>5.333333333333334</ele><time>2026-05-02T15:08:05.618Z</time></trkpt><trkpt lat="37.1983472" lon="9.6039151"><ele>5.666666666666667</ele><time>2026-05-02T15:08:06.619Z</time></trkpt><trkpt lat="37.1983885" lon="9.6041106"><ele>6.0</ele><time>2026-05-02T15:08:07.616Z</time></trkpt><trkpt lat="37.198422" lon="9.6043082"><ele>6.666666666666666</ele><time>2026-05-02T15:08:08.613Z</time></trkpt><trkpt lat="37.1984506" lon="9.6045076"><ele>7.333333333333333</ele><time>2026-05-02T15:08:09.618Z</time></trkpt><trkpt lat="37.198474" lon="9.6047044"><ele>8.0</ele><time>2026-05-02T15:08:10.635Z</time></trkpt><trkpt lat="37.1984983" lon="9.604907"><ele>8.0</ele><time>2026-05-02T15:08:11.617Z</time></trkpt><trkpt lat="37.1985272" lon="9.6051038"><ele>8.0</ele><time>2026-05-02T15:08:12.612Z</time></trkpt><trkpt lat="37.1985448" lon="9.6052996"><ele>8.0</ele><time>2026-05-02T15:08:13.621Z</time></trkpt><trkpt lat="37.1985565" lon="9.6055011"><ele>8.666666666666666</ele><time>2026-05-02T15:08:14.609Z</time></trkpt><trkpt lat="37.1985696" lon="9.6057083"><ele>9.333333333333334</ele><time>2026-05-02T15:08:15.622Z</time></trkpt><trkpt lat="37.1985742" lon="9.6059111"><ele>10.0</ele><time>2026-05-02T15:08:16.618Z</time></trkpt><trkpt lat="37.1985801" lon="9.6061085"><ele>10.333333333333334</ele><time>2026-05-02T15:08:17.616Z</time></trkpt><trkpt lat="37.1985841" lon="9.6063103"><ele>10.666666666666666</ele><time>2026-05-02T15:08:18.611Z</time></trkpt><trkpt lat="37.1985878" lon="9.6065089"><ele>11.0</ele><time>2026-05-02T15:08:19.621Z</time></trkpt><trkpt lat="37.1985921" lon="9.6067063"><ele>11.0</ele><time>2026-05-02T15:08:20.628Z</time></trkpt><trkpt lat="37.1986014" lon="9.6069011"><ele>11.0</ele><time>2026-05-02T15:08:21.623Z</time></trkpt><trkpt lat="37.1986093" lon="9.6070953"><ele>11.0</ele><time>2026-05-02T15:08:22.61Z</time></trkpt><trkpt lat="37.1986171" lon="9.607294"><ele>11.25</ele><time>2026-05-02T15:08:23.62Z</time></trkpt><trkpt lat="37.1986153" lon="9.6074712"><ele>11.5</ele><time>2026-05-02T15:08:24.613Z</time></trkpt><trkpt lat="37.1986113" lon="9.6076261"><ele>11.75</ele><time>2026-05-02T15:08:25.615Z</time></trkpt><trkpt lat="37.1986123" lon="9.6077621"><ele>12.0</ele><time>2026-05-02T15:08:26.605Z</time></trkpt><trkpt lat="37.1986181" lon="9.6079073"><ele>12.0</ele><time>2026-05-02T15:08:27.609Z</time></trkpt><trkpt lat="37.1986163" lon="9.6080536"><ele>12.0</ele><time>2026-05-02T15:08:28.617Z</time></trkpt><trkpt lat="37.1986192" lon="9.6082044"><ele>12.0</ele><time>2026-05-02T15:08:29.616Z</time></trkpt><trkpt lat="37.1986298" lon="9.6083488"><ele>12.0</ele><time>2026-05-02T15:08:30.62Z</time></trkpt><trkpt lat="37.1986376" lon="9.6084926"><ele>12.0</ele><time>2026-05-02T15:08:31.61Z</time></trkpt><trkpt lat="37.1986333" lon="9.6086493"><ele>12.0</ele><time>2026-05-02T15:08:32.621Z</time></trkpt><trkpt lat="37.19863" lon="9.6088265"><ele>12.0</ele><time>2026-05-02T15:08:33.623Z</time></trkpt><trkpt lat="37.1986259" lon="9.6090057"><ele>12.0</ele><time>2026-05-02T15:08:34.628Z</time></trkpt><trkpt lat="37.1986261" lon="9.6092005"><ele>11.0</ele><time>2026-05-02T15:08:35.617Z</time></trkpt><trkpt lat="37.1986234" lon="9.609402"><ele>10.0</ele><time>2026-05-02T15:08:36.614Z</time></trkpt><trkpt lat="37.1986221" lon="9.6095996"><ele>9.0</ele><time>2026-05-02T15:08:37.619Z</time></trkpt><trkpt lat="37.1986245" lon="9.6097986"><ele>8.333333333333334</ele><time>2026-05-02T15:08:38.61Z</time></trkpt><trkpt lat="37.1986237" lon="9.6100028"><ele>7.666666666666667</ele><time>2026-05-02T15:08:39.625Z</time></trkpt><trkpt lat="37.1986235" lon="9.610206"><ele>7.0</ele><time>2026-05-02T15:08:40.621Z</time></trkpt><trkpt lat="37.1986237" lon="9.6104074"><ele>7.0</ele><time>2026-05-02T15:08:41.637Z</time></trkpt><trkpt lat="37.1986266" lon="9.6106072"><ele>7.0</ele><time>2026-05-02T15:08:42.611Z</time></trkpt><trkpt lat="37.1986286" lon="9.6108134"><ele>7.0</ele><time>2026-05-02T15:08:43.615Z</time></trkpt><trkpt lat="37.1986317" lon="9.6110185"><ele>6.666666666666667</ele><time>2026-05-02T15:08:44.619Z</time></trkpt><trkpt lat="37.1986387" lon="9.6112266"><ele>6.333333333333334</ele><time>2026-05-02T15:08:45.616Z</time></trkpt><trkpt lat="37.1986438" lon="9.6114368"><ele>6.0</ele><time>2026-05-02T15:08:46.625Z</time></trkpt><trkpt lat="37.1986487" lon="9.6116504"><ele>6.0</ele><time>2026-05-02T15:08:47.621Z</time></trkpt><trkpt lat="37.1986484" lon="9.6118657"><ele>6.0</ele><time>2026-05-02T15:08:48.617Z</time></trkpt><trkpt lat="37.1986499" lon="9.6120801"><ele>6.0</ele><time>2026-05-02T15:08:49.623Z</time></trkpt><trkpt lat="37.1986522" lon="9.6122941"><ele>6.0</ele><time>2026-05-02T15:08:50.605Z</time></trkpt><trkpt lat="37.1986556" lon="9.6125079"><ele>6.0</ele><time>2026-05-02T15:08:51.619Z</time></trkpt><trkpt lat="37.1986596" lon="9.6127214"><ele>6.0</ele><time>2026-05-02T15:08:52.621Z</time></trkpt><trkpt lat="37.1986677" lon="9.6129271"><ele>6.333333333333334</ele><time>2026-05-02T15:08:53.625Z</time></trkpt><trkpt lat="37.1986701" lon="9.6131279"><ele>6.666666666666667</ele><time>2026-05-02T15:08:54.615Z</time></trkpt><trkpt lat="37.1986712" lon="9.6133341"><ele>7.0</ele><time>2026-05-02T15:08:55.619Z</time></trkpt><trkpt lat="37.1986756" lon="9.6135388"><ele>7.333333333333334</ele><time>2026-05-02T15:08:56.628Z</time></trkpt><trkpt lat="37.1986806" lon="9.6137391"><ele>7.666666666666666</ele><time>2026-05-02T15:08:57.641Z</time></trkpt><trkpt lat="37.1986842" lon="9.6139365"><ele>8.0</ele><time>2026-05-02T15:08:58.614Z</time></trkpt><trkpt lat="37.1986895" lon="9.6141314"><ele>8.0</ele><time>2026-05-02T15:08:59.65Z</time></trkpt><trkpt lat="37.1986901" lon="9.6143273"><ele>8.0</ele><time>2026-05-02T15:09:00.608Z</time></trkpt><trkpt lat="37.1986971" lon="9.6145196"><ele>8.0</ele><time>2026-05-02T15:09:01.617Z</time></trkpt><trkpt lat="37.1987038" lon="9.6147156"><ele>7.666666666666666</ele><time>2026-05-02T15:09:02.607Z</time></trkpt><trkpt lat="37.1987156" lon="9.6149082"><ele>7.333333333333334</ele><time>2026-05-02T15:09:03.627Z</time></trkpt><trkpt lat="37.1987232" lon="9.6151077"><ele>7.0</ele><time>2026-05-02T15:09:04.62Z</time></trkpt><trkpt lat="37.1987243" lon="9.6153094"><ele>7.0</ele><time>2026-05-02T15:09:05.616Z</time></trkpt><trkpt lat="37.1987227" lon="9.615509"><ele>7.0</ele><time>2026-05-02T15:09:06.613Z</time></trkpt><trkpt lat="37.1987257" lon="9.6157137"><ele>7.0</ele><time>2026-05-02T15:09:07.613Z</time></trkpt><trkpt lat="37.1987312" lon="9.6159211"><ele>7.0</ele><time>2026-05-02T15:09:08.611Z</time></trkpt><trkpt lat="37.1987369" lon="9.6161304"><ele>7.0</ele><time>2026-05-02T15:09:09.636Z</time></trkpt><trkpt lat="37.1987442" lon="9.6163296"><ele>7.0</ele><time>2026-05-02T15:09:10.615Z</time></trkpt><trkpt lat="37.1987483" lon="9.6165199"><ele>7.333333333333334</ele><time>2026-05-02T15:09:11.617Z</time></trkpt><trkpt lat="37.1987539" lon="9.6167121"><ele>7.666666666666666</ele><time>2026-05-02T15:09:12.609Z</time></trkpt><trkpt lat="37.1987558" lon="9.616905"><ele>8.0</ele><time>2026-05-02T15:09:13.611Z</time></trkpt><trkpt lat="37.1987585" lon="9.6170917"><ele>8.25</ele><time>2026-05-02T15:09:14.62Z</time></trkpt><trkpt lat="37.1987561" lon="9.6172711"><ele>8.5</ele><time>2026-05-02T15:09:15.611Z</time></trkpt><trkpt lat="37.1987605" lon="9.6174493"><ele>8.75</ele><time>2026-05-02T15:09:16.621Z</time></trkpt><trkpt lat="37.1987652" lon="9.617629"><ele>9.0</ele><time>2026-05-02T15:09:17.614Z</time></trkpt><trkpt lat="37.1987728" lon="9.6178117"><ele>8.666666666666666</ele><time>2026-05-02T15:09:18.619Z</time></trkpt><trkpt lat="37.1987797" lon="9.6179995"><ele>8.333333333333332</ele><time>2026-05-02T15:09:19.621Z</time></trkpt><trkpt lat="37.1987881" lon="9.618187"><ele>8.0</ele><time>2026-05-02T15:09:20.624Z</time></trkpt><trkpt lat="37.1987959" lon="9.6183801"><ele>8.0</ele><time>2026-05-02T15:09:21.63Z</time></trkpt><trkpt lat="37.1988079" lon="9.6185718"><ele>8.0</ele><time>2026-05-02T15:09:22.622Z</time></trkpt><trkpt lat="37.1988263" lon="9.6187632"><ele>8.0</ele><time>2026-05-02T15:09:23.622Z</time></trkpt><trkpt lat="37.1988509" lon="9.6189627"><ele>8.0</ele><time>2026-05-02T15:09:24.622Z</time></trkpt><trkpt lat="37.1988816" lon="9.6191613"><ele>8.0</ele><time>2026-05-02T15:09:25.61Z</time></trkpt><trkpt lat="37.19891" lon="9.6193668"><ele>8.0</ele><time>2026-05-02T15:09:26.619Z</time></trkpt><trkpt lat="37.1989446" lon="9.6195731"><ele>7.333333333333333</ele><time>2026-05-02T15:09:27.617Z</time></trkpt><trkpt lat="37.1989753" lon="9.6197892"><ele>6.666666666666666</ele><time>2026-05-02T15:09:28.609Z</time></trkpt><trkpt lat="37.1990024" lon="9.6200005"><ele>6.0</ele><time>2026-05-02T15:09:29.617Z</time></trkpt><trkpt lat="37.1990309" lon="9.6202079"><ele>6.666666666666666</ele><time>2026-05-02T15:09:30.627Z</time></trkpt><trkpt lat="37.1990715" lon="9.6204151"><ele>7.333333333333333</ele><time>2026-05-02T15:09:31.618Z</time></trkpt><trkpt lat="37.1991243" lon="9.6206195"><ele>8.0</ele><time>2026-05-02T15:09:32.615Z</time></trkpt><trkpt lat="37.1991843" lon="9.6208177"><ele>8.0</ele><time>2026-05-02T15:09:33.615Z</time></trkpt><trkpt lat="37.1992597" lon="9.6210097"><ele>8.0</ele><time>2026-05-02T15:09:34.615Z</time></trkpt><trkpt lat="37.1993433" lon="9.621188"><ele>8.0</ele><time>2026-05-02T15:09:35.614Z</time></trkpt><trkpt lat="37.199443" lon="9.6213588"><ele>7.666666666666666</ele><time>2026-05-02T15:09:36.615Z</time></trkpt><trkpt lat="37.1995439" lon="9.6215318"><ele>7.333333333333334</ele><time>2026-05-02T15:09:37.603Z</time></trkpt><trkpt lat="37.1996495" lon="9.6216954"><ele>7.0</ele><time>2026-05-02T15:09:38.611Z</time></trkpt><trkpt lat="37.199755" lon="9.6218546"><ele>7.666666666666667</ele><time>2026-05-02T15:09:39.64Z</time></trkpt><trkpt lat="37.1998602" lon="9.6220156"><ele>8.333333333333334</ele><time>2026-05-02T15:09:40.629Z</time></trkpt><trkpt lat="37.1999603" lon="9.6221778"><ele>9.0</ele><time>2026-05-02T15:09:41.615Z</time></trkpt><trkpt lat="37.2000548" lon="9.6223381"><ele>9.0</ele><time>2026-05-02T15:09:42.618Z</time></trkpt><trkpt lat="37.2001537" lon="9.6224984"><ele>9.0</ele><time>2026-05-02T15:09:43.61Z</time></trkpt><trkpt lat="37.200258" lon="9.6226498"><ele>9.0</ele><time>2026-05-02T15:09:44.612Z</time></trkpt><trkpt lat="37.2003552" lon="9.6228013"><ele>9.0</ele><time>2026-05-02T15:09:45.607Z</time></trkpt><trkpt lat="37.2004544" lon="9.6229567"><ele>9.0</ele><time>2026-05-02T15:09:46.61Z</time></trkpt><trkpt lat="37.200545" lon="9.6231097"><ele>9.0</ele><time>2026-05-02T15:09:47.613Z</time></trkpt><trkpt lat="37.2006262" lon="9.6232662"><ele>8.75</ele><time>2026-05-02T15:09:48.609Z</time></trkpt><trkpt lat="37.2006929" lon="9.6234234"><ele>8.5</ele><time>2026-05-02T15:09:49.61Z</time></trkpt><trkpt lat="37.2007285" lon="9.6235884"><ele>8.25</ele><time>2026-05-02T15:09:50.614Z</time></trkpt><trkpt lat="37.2007439" lon="9.623756"><ele>8.0</ele><time>2026-05-02T15:09:51.62Z</time></trkpt><trkpt lat="37.2007534" lon="9.62393"><ele>7.75</ele><time>2026-05-02T15:09:52.61Z</time></trkpt><trkpt lat="37.2007462" lon="9.6240993"><ele>7.5</ele><time>2026-05-02T15:09:53.618Z</time></trkpt><trkpt lat="37.2007378" lon="9.6242769"><ele>7.25</ele><time>2026-05-02T15:09:54.62Z</time></trkpt><trkpt lat="37.2007335" lon="9.6244624"><ele>7.0</ele><time>2026-05-02T15:09:55.611Z</time></trkpt><trkpt lat="37.2007317" lon="9.6246594"><ele>7.0</ele><time>2026-05-02T15:09:56.616Z</time></trkpt><trkpt lat="37.2007195" lon="9.6248616"><ele>7.0</ele><time>2026-05-02T15:09:57.614Z</time></trkpt><trkpt lat="37.2007058" lon="9.6250638"><ele>7.0</ele><time>2026-05-02T15:09:58.617Z</time></trkpt><trkpt lat="37.2007051" lon="9.6252673"><ele>7.666666666666667</ele><time>2026-05-02T15:09:59.618Z</time></trkpt><trkpt lat="37.2007043" lon="9.6254684"><ele>8.333333333333334</ele><time>2026-05-02T15:10:00.618Z</time></trkpt><trkpt lat="37.2006997" lon="9.6256757"><ele>9.0</ele><time>2026-05-02T15:10:01.624Z</time></trkpt><trkpt lat="37.2006962" lon="9.6258862"><ele>9.0</ele><time>2026-05-02T15:10:02.622Z</time></trkpt><trkpt lat="37.2006938" lon="9.626098"><ele>9.0</ele><time>2026-05-02T15:10:03.624Z</time></trkpt><trkpt lat="37.2006838" lon="9.626309"><ele>9.0</ele><time>2026-05-02T15:10:04.614Z</time></trkpt><trkpt lat="37.2006671" lon="9.6265281"><ele>9.0</ele><time>2026-05-02T15:10:05.608Z</time></trkpt><trkpt lat="37.2006525" lon="9.6267494"><ele>9.0</ele><time>2026-05-02T15:10:06.617Z</time></trkpt><trkpt lat="37.2006341" lon="9.6269703"><ele>9.0</ele><time>2026-05-02T15:10:07.608Z</time></trkpt><trkpt lat="37.2006145" lon="9.6271935"><ele>9.0</ele><time>2026-05-02T15:10:08.616Z</time></trkpt><trkpt lat="37.2005999" lon="9.6274153"><ele>9.0</ele><time>2026-05-02T15:10:09.613Z</time></trkpt><trkpt lat="37.2005919" lon="9.6276332"><ele>9.0</ele><time>2026-05-02T15:10:10.62Z</time></trkpt><trkpt lat="37.2005722" lon="9.6278507"><ele>9.666666666666666</ele><time>2026-05-02T15:10:11.612Z</time></trkpt><trkpt lat="37.2005531" lon="9.6280637"><ele>10.333333333333332</ele><time>2026-05-02T15:10:12.62Z</time></trkpt><trkpt lat="37.2005367" lon="9.6282774"><ele>11.0</ele><time>2026-05-02T15:10:13.629Z</time></trkpt><trkpt lat="37.2005168" lon="9.6284822"><ele>11.333333333333332</ele><time>2026-05-02T15:10:14.603Z</time></trkpt><trkpt lat="37.2004908" lon="9.6286824"><ele>11.666666666666666</ele><time>2026-05-02T15:10:15.623Z</time></trkpt><trkpt lat="37.2004731" lon="9.6288786"><ele>12.0</ele><time>2026-05-02T15:10:16.621Z</time></trkpt><trkpt lat="37.2004561" lon="9.6290736"><ele>12.0</ele><time>2026-05-02T15:10:17.617Z</time></trkpt><trkpt lat="37.2004374" lon="9.6292684"><ele>12.0</ele><time>2026-05-02T15:10:18.633Z</time></trkpt><trkpt lat="37.2004138" lon="9.629463"><ele>12.0</ele><time>2026-05-02T15:10:19.626Z</time></trkpt><trkpt lat="37.2003843" lon="9.6296584"><ele>11.666666666666666</ele><time>2026-05-02T15:10:20.606Z</time></trkpt><trkpt lat="37.2003483" lon="9.6298574"><ele>11.333333333333332</ele><time>2026-05-02T15:10:21.623Z</time></trkpt><trkpt lat="37.2003047" lon="9.6300554"><ele>11.0</ele><time>2026-05-02T15:10:22.615Z</time></trkpt><trkpt lat="37.2002605" lon="9.6302526"><ele>10.666666666666666</ele><time>2026-05-02T15:10:23.612Z</time></trkpt><trkpt lat="37.2002143" lon="9.6304548"><ele>10.333333333333334</ele><time>2026-05-02T15:10:24.615Z</time></trkpt><trkpt lat="37.2001718" lon="9.6306529"><ele>10.0</ele><time>2026-05-02T15:10:25.622Z</time></trkpt><trkpt lat="37.2001273" lon="9.6308533"><ele>10.0</ele><time>2026-05-02T15:10:26.619Z</time></trkpt><trkpt lat="37.2000816" lon="9.6310579"><ele>10.0</ele><time>2026-05-02T15:10:27.616Z</time></trkpt><trkpt lat="37.2000359" lon="9.6312577"><ele>10.0</ele><time>2026-05-02T15:10:28.695Z</time></trkpt><trkpt lat="37.1999883" lon="9.6314625"><ele>10.333333333333334</ele><time>2026-05-02T15:10:29.609Z</time></trkpt><trkpt lat="37.1999436" lon="9.6316671"><ele>10.666666666666666</ele><time>2026-05-02T15:10:30.64Z</time></trkpt><trkpt lat="37.1998993" lon="9.6318707"><ele>11.0</ele><time>2026-05-02T15:10:31.615Z</time></trkpt><trkpt lat="37.1998538" lon="9.6320709"><ele>10.333333333333332</ele><time>2026-05-02T15:10:32.617Z</time></trkpt><trkpt lat="37.1998106" lon="9.6322703"><ele>9.666666666666666</ele><time>2026-05-02T15:10:33.61Z</time></trkpt><trkpt lat="37.1997642" lon="9.6324685"><ele>9.0</ele><time>2026-05-02T15:10:34.621Z</time></trkpt><trkpt lat="37.1997193" lon="9.6326638"><ele>8.666666666666666</ele><time>2026-05-02T15:10:35.629Z</time></trkpt><trkpt lat="37.1996738" lon="9.6328651"><ele>8.333333333333332</ele><time>2026-05-02T15:10:36.615Z</time></trkpt><trkpt lat="37.1996326" lon="9.6330599"><ele>8.0</ele><time>2026-05-02T15:10:37.628Z</time></trkpt><trkpt lat="37.1995951" lon="9.6332524"><ele>8.0</ele><time>2026-05-02T15:10:38.617Z</time></trkpt><trkpt lat="37.1995536" lon="9.6334469"><ele>8.0</ele><time>2026-05-02T15:10:39.625Z</time></trkpt><trkpt lat="37.1995168" lon="9.6336486"><ele>8.0</ele><time>2026-05-02T15:10:40.618Z</time></trkpt><trkpt lat="37.199487" lon="9.6338427"><ele>7.666666666666666</ele><time>2026-05-02T15:10:41.612Z</time></trkpt><trkpt lat="37.1994677" lon="9.6340438"><ele>7.333333333333334</ele><time>2026-05-02T15:10:42.617Z</time></trkpt><trkpt lat="37.1994566" lon="9.6342533"><ele>7.0</ele><time>2026-05-02T15:10:43.619Z</time></trkpt><trkpt lat="37.1994457" lon="9.634473"><ele>7.0</ele><time>2026-05-02T15:10:44.613Z</time></trkpt><trkpt lat="37.199443" lon="9.6346911"><ele>7.0</ele><time>2026-05-02T15:10:45.613Z</time></trkpt><trkpt lat="37.1994342" lon="9.6349068"><ele>7.0</ele><time>2026-05-02T15:10:46.608Z</time></trkpt><trkpt lat="37.1994259" lon="9.6351239"><ele>6.333333333333334</ele><time>2026-05-02T15:10:47.616Z</time></trkpt><trkpt lat="37.1994162" lon="9.6353423"><ele>5.666666666666667</ele><time>2026-05-02T15:10:48.612Z</time></trkpt><trkpt lat="37.1994083" lon="9.6355538"><ele>5.0</ele><time>2026-05-02T15:10:49.618Z</time></trkpt><trkpt lat="37.1994" lon="9.6357608"><ele>5.0</ele><time>2026-05-02T15:10:50.614Z</time></trkpt><trkpt lat="37.199389" lon="9.6359719"><ele>5.0</ele><time>2026-05-02T15:10:51.618Z</time></trkpt><trkpt lat="37.1993824" lon="9.6361816"><ele>5.0</ele><time>2026-05-02T15:10:52.622Z</time></trkpt><trkpt lat="37.1993805" lon="9.6364002"><ele>5.0</ele><time>2026-05-02T15:10:53.619Z</time></trkpt><trkpt lat="37.1993709" lon="9.6366247"><ele>5.0</ele><time>2026-05-02T15:10:54.616Z</time></trkpt><trkpt lat="37.1993567" lon="9.6368554"><ele>5.0</ele><time>2026-05-02T15:10:55.616Z</time></trkpt><trkpt lat="37.1993512" lon="9.6370859"><ele>4.666666666666667</ele><time>2026-05-02T15:10:56.618Z</time></trkpt><trkpt lat="37.1993477" lon="9.6373159"><ele>4.333333333333333</ele><time>2026-05-02T15:10:57.621Z</time></trkpt><trkpt lat="37.1993414" lon="9.637546"><ele>4.0</ele><time>2026-05-02T15:10:58.616Z</time></trkpt><trkpt lat="37.1993322" lon="9.6377762"><ele>4.666666666666666</ele><time>2026-05-02T15:10:59.631Z</time></trkpt><trkpt lat="37.1993258" lon="9.6380011"><ele>5.333333333333333</ele><time>2026-05-02T15:11:00.622Z</time></trkpt><trkpt lat="37.1993207" lon="9.6382231"><ele>6.0</ele><time>2026-05-02T15:11:01.627Z</time></trkpt><trkpt lat="37.1993236" lon="9.6384431"><ele>6.0</ele><time>2026-05-02T15:11:02.622Z</time></trkpt><trkpt lat="37.1993201" lon="9.6386602"><ele>6.0</ele><time>2026-05-02T15:11:03.617Z</time></trkpt><trkpt lat="37.1993083" lon="9.6388769"><ele>6.0</ele><time>2026-05-02T15:11:04.604Z</time></trkpt><trkpt lat="37.1992961" lon="9.6390916"><ele>6.0</ele><time>2026-05-02T15:11:05.615Z</time></trkpt><trkpt lat="37.1992956" lon="9.6393103"><ele>6.0</ele><time>2026-05-02T15:11:06.612Z</time></trkpt><trkpt lat="37.1993005" lon="9.6395317"><ele>6.0</ele><time>2026-05-02T15:11:07.611Z</time></trkpt><trkpt lat="37.1993163" lon="9.6397511"><ele>6.0</ele><time>2026-05-02T15:11:08.612Z</time></trkpt><trkpt lat="37.1993389" lon="9.6399605"><ele>6.0</ele><time>2026-05-02T15:11:09.621Z</time></trkpt><trkpt lat="37.1993713" lon="9.6401708"><ele>6.0</ele><time>2026-05-02T15:11:10.654Z</time></trkpt><trkpt lat="37.1994044" lon="9.6403848"><ele>6.0</ele><time>2026-05-02T15:11:11.613Z</time></trkpt><trkpt lat="37.1994467" lon="9.6406038"><ele>6.0</ele><time>2026-05-02T15:11:12.609Z</time></trkpt><trkpt lat="37.1994894" lon="9.6408216"><ele>6.0</ele><time>2026-05-02T15:11:13.607Z</time></trkpt><trkpt lat="37.1995282" lon="9.6410368"><ele>5.666666666666667</ele><time>2026-05-02T15:11:14.62Z</time></trkpt><trkpt lat="37.1995658" lon="9.6412533"><ele>5.333333333333334</ele><time>2026-05-02T15:11:15.606Z</time></trkpt><trkpt lat="37.1995987" lon="9.6414685"><ele>5.0</ele><time>2026-05-02T15:11:16.609Z</time></trkpt><trkpt lat="37.1996363" lon="9.6416839"><ele>5.0</ele><time>2026-05-02T15:11:17.6Z</time></trkpt><trkpt lat="37.1996825" lon="9.6418925"><ele>5.0</ele><time>2026-05-02T15:11:18.608Z</time></trkpt><trkpt lat="37.1997267" lon="9.6421077"><ele>5.0</ele><time>2026-05-02T15:11:19.614Z</time></trkpt><trkpt lat="37.1997784" lon="9.6423226"><ele>5.0</ele><time>2026-05-02T15:11:20.618Z</time></trkpt><trkpt lat="37.1998327" lon="9.6425384"><ele>5.0</ele><time>2026-05-02T15:11:21.622Z</time></trkpt><trkpt lat="37.1998905" lon="9.6427576"><ele>5.0</ele><time>2026-05-02T15:11:22.612Z</time></trkpt><trkpt lat="37.1999573" lon="9.642966"><ele>5.0</ele><time>2026-05-02T15:11:23.619Z</time></trkpt><trkpt lat="37.2000286" lon="9.6431819"><ele>5.0</ele><time>2026-05-02T15:11:24.61Z</time></trkpt><trkpt lat="37.2000929" lon="9.6433931"><ele>5.0</ele><time>2026-05-02T15:11:25.615Z</time></trkpt><trkpt lat="37.2001558" lon="9.6436064"><ele>4.0</ele><time>2026-05-02T15:11:26.617Z</time></trkpt><trkpt lat="37.2002216" lon="9.6438212"><ele>3.0</ele><time>2026-05-02T15:11:27.628Z</time></trkpt><trkpt lat="37.2002872" lon="9.644032"><ele>2.0</ele><time>2026-05-02T15:11:28.613Z</time></trkpt><trkpt lat="37.2003569" lon="9.6442471"><ele>2.0</ele><time>2026-05-02T15:11:29.614Z</time></trkpt><trkpt lat="37.2004314" lon="9.6444651"><ele>2.0</ele><time>2026-05-02T15:11:30.619Z</time></trkpt><trkpt lat="37.2004982" lon="9.6446811"><ele>2.0</ele><time>2026-05-02T15:11:31.611Z</time></trkpt><trkpt lat="37.2005689" lon="9.6448975"><ele>2.0</ele><time>2026-05-02T15:11:32.616Z</time></trkpt><trkpt lat="37.2006385" lon="9.6451169"><ele>2.0</ele><time>2026-05-02T15:11:33.625Z</time></trkpt><trkpt lat="37.2007055" lon="9.6453252"><ele>2.0</ele><time>2026-05-02T15:11:34.614Z</time></trkpt><trkpt lat="37.2007651" lon="9.6455255"><ele>2.5</ele><time>2026-05-02T15:11:35.636Z</time></trkpt><trkpt lat="37.2008204" lon="9.6456935"><ele>3.0</ele><time>2026-05-02T15:11:36.612Z</time></trkpt><trkpt lat="37.2008763" lon="9.6458536"><ele>3.5</ele><time>2026-05-02T15:11:37.62Z</time></trkpt><trkpt lat="37.2009215" lon="9.6460088"><ele>4.0</ele><time>2026-05-02T15:11:38.618Z</time></trkpt><trkpt lat="37.2009735" lon="9.6461531"><ele>4.0</ele><time>2026-05-02T15:11:39.647Z</time></trkpt><trkpt lat="37.2010304" lon="9.6463065"><ele>4.0</ele><time>2026-05-02T15:11:40.618Z</time></trkpt><trkpt lat="37.2010913" lon="9.6464677"><ele>4.0</ele><time>2026-05-02T15:11:41.609Z</time></trkpt><trkpt lat="37.2011432" lon="9.6466298"><ele>4.0</ele><time>2026-05-02T15:11:42.609Z</time></trkpt><trkpt lat="37.2011932" lon="9.6468004"><ele>3.6666666666666665</ele><time>2026-05-02T15:11:43.62Z</time></trkpt><trkpt lat="37.2012522" lon="9.6469743"><ele>3.333333333333333</ele><time>2026-05-02T15:11:44.622Z</time></trkpt><trkpt lat="37.2013132" lon="9.6471495"><ele>3.0</ele><time>2026-05-02T15:11:45.616Z</time></trkpt><trkpt lat="37.2013818" lon="9.647339"><ele>3.0</ele><time>2026-05-02T15:11:46.613Z</time></trkpt><trkpt lat="37.2014573" lon="9.6475308"><ele>3.0</ele><time>2026-05-02T15:11:47.613Z</time></trkpt><trkpt lat="37.2015299" lon="9.647726"><ele>3.0</ele><time>2026-05-02T15:11:48.613Z</time></trkpt><trkpt lat="37.2015997" lon="9.6479217"><ele>3.666666666666667</ele><time>2026-05-02T15:11:49.61Z</time></trkpt><trkpt lat="37.2016701" lon="9.6481156"><ele>4.333333333333334</ele><time>2026-05-02T15:11:50.613Z</time></trkpt><trkpt lat="37.2017443" lon="9.6483124"><ele>5.0</ele><time>2026-05-02T15:11:51.614Z</time></trkpt><trkpt lat="37.2018117" lon="9.6485024"><ele>4.333333333333334</ele><time>2026-05-02T15:11:52.624Z</time></trkpt><trkpt lat="37.2018728" lon="9.6486913"><ele>3.666666666666667</ele><time>2026-05-02T15:11:53.641Z</time></trkpt><trkpt lat="37.2019304" lon="9.6488771"><ele>3.0</ele><time>2026-05-02T15:11:54.617Z</time></trkpt><trkpt lat="37.2019945" lon="9.649056"><ele>3.0</ele><time>2026-05-02T15:11:55.622Z</time></trkpt><trkpt lat="37.202064" lon="9.6492423"><ele>3.0</ele><time>2026-05-02T15:11:56.625Z</time></trkpt><trkpt lat="37.2021333" lon="9.6494309"><ele>3.0</ele><time>2026-05-02T15:11:57.613Z</time></trkpt><trkpt lat="37.2022044" lon="9.6496162"><ele>2.6666666666666665</ele><time>2026-05-02T15:11:58.621Z</time></trkpt><trkpt lat="37.2022719" lon="9.6498096"><ele>2.333333333333333</ele><time>2026-05-02T15:11:59.615Z</time></trkpt><trkpt lat="37.2023383" lon="9.6500053"><ele>2.0</ele><time>2026-05-02T15:12:00.611Z</time></trkpt><trkpt lat="37.20241" lon="9.6502001"><ele>2.333333333333333</ele><time>2026-05-02T15:12:01.619Z</time></trkpt><trkpt lat="37.2024824" lon="9.6503951"><ele>2.6666666666666665</ele><time>2026-05-02T15:12:02.624Z</time></trkpt><trkpt lat="37.2025575" lon="9.6505962"><ele>3.0</ele><time>2026-05-02T15:12:03.624Z</time></trkpt><trkpt lat="37.2026324" lon="9.650799"><ele>3.0</ele><time>2026-05-02T15:12:04.617Z</time></trkpt><trkpt lat="37.2027061" lon="9.6509971"><ele>3.0</ele><time>2026-05-02T15:12:05.625Z</time></trkpt><trkpt lat="37.2027788" lon="9.6511967"><ele>3.0</ele><time>2026-05-02T15:12:06.624Z</time></trkpt><trkpt lat="37.2028492" lon="9.6513957"><ele>3.0</ele><time>2026-05-02T15:12:07.613Z</time></trkpt><trkpt lat="37.2029194" lon="9.6515966"><ele>3.0</ele><time>2026-05-02T15:12:08.62Z</time></trkpt><trkpt lat="37.202997" lon="9.6518044"><ele>3.0</ele><time>2026-05-02T15:12:09.669Z</time></trkpt><trkpt lat="37.2030724" lon="9.6520031"><ele>3.333333333333333</ele><time>2026-05-02T15:12:10.619Z</time></trkpt><trkpt lat="37.2031505" lon="9.6521988"><ele>3.6666666666666665</ele><time>2026-05-02T15:12:11.613Z</time></trkpt><trkpt lat="37.2032251" lon="9.6523981"><ele>4.0</ele><time>2026-05-02T15:12:12.611Z</time></trkpt><trkpt lat="37.2032928" lon="9.6526082"><ele>3.6666666666666665</ele><time>2026-05-02T15:12:13.621Z</time></trkpt><trkpt lat="37.203359" lon="9.652816"><ele>3.333333333333333</ele><time>2026-05-02T15:12:14.612Z</time></trkpt><trkpt lat="37.2034363" lon="9.6530211"><ele>3.0</ele><time>2026-05-02T15:12:15.609Z</time></trkpt><trkpt lat="37.2035131" lon="9.6532185"><ele>3.0</ele><time>2026-05-02T15:12:16.614Z</time></trkpt><trkpt lat="37.2035825" lon="9.6534267"><ele>3.0</ele><time>2026-05-02T15:12:17.615Z</time></trkpt><trkpt lat="37.2036552" lon="9.6536357"><ele>3.0</ele><time>2026-05-02T15:12:18.613Z</time></trkpt><trkpt lat="37.2037233" lon="9.6538376"><ele>3.0</ele><time>2026-05-02T15:12:19.629Z</time></trkpt><trkpt lat="37.2037952" lon="9.6540437"><ele>3.0</ele><time>2026-05-02T15:12:20.623Z</time></trkpt><trkpt lat="37.2038625" lon="9.6542462"><ele>3.0</ele><time>2026-05-02T15:12:21.612Z</time></trkpt><trkpt lat="37.2039348" lon="9.6544523"><ele>3.0</ele><time>2026-05-02T15:12:22.621Z</time></trkpt><trkpt lat="37.204001" lon="9.6546609"><ele>3.0</ele><time>2026-05-02T15:12:23.613Z</time></trkpt><trkpt lat="37.2040463" lon="9.6548808"><ele>3.0</ele><time>2026-05-02T15:12:24.62Z</time></trkpt><trkpt lat="37.2040809" lon="9.655093"><ele>2.6666666666666665</ele><time>2026-05-02T15:12:25.619Z</time></trkpt><trkpt lat="37.2041069" lon="9.655316"><ele>2.333333333333333</ele><time>2026-05-02T15:12:26.614Z</time></trkpt><trkpt lat="37.2041291" lon="9.6555353"><ele>2.0</ele><time>2026-05-02T15:12:27.618Z</time></trkpt><trkpt lat="37.2041476" lon="9.6557648"><ele>2.0</ele><time>2026-05-02T15:12:28.622Z</time></trkpt><trkpt lat="37.2041636" lon="9.6560058"><ele>2.0</ele><time>2026-05-02T15:12:29.62Z</time></trkpt><trkpt lat="37.2041844" lon="9.656243"><ele>2.0</ele><time>2026-05-02T15:12:30.613Z</time></trkpt><trkpt lat="37.2041971" lon="9.6564663"><ele>2.0</ele><time>2026-05-02T15:12:31.624Z</time></trkpt><trkpt lat="37.2042171" lon="9.656671"><ele>2.0</ele><time>2026-05-02T15:12:32.62Z</time></trkpt><trkpt lat="37.2042413" lon="9.6568984"><ele>2.0</ele><time>2026-05-02T15:12:33.619Z</time></trkpt><trkpt lat="37.2042644" lon="9.6571879"><ele>3.0</ele><time>2026-05-02T15:12:34.616Z</time></trkpt><trkpt lat="37.2042971" lon="9.657509"><ele>4.0</ele><time>2026-05-02T15:12:35.621Z</time></trkpt><trkpt lat="37.2043278" lon="9.6578769"><ele>4.0</ele><time>2026-05-02T15:12:36.613Z</time></trkpt><trkpt lat="37.2043622" lon="9.6582733"><ele>4.0</ele><time>2026-05-02T15:12:37.614Z</time></trkpt><trkpt lat="37.2043939" lon="9.6586405"><ele>3.0</ele><time>2026-05-02T15:12:38.623Z</time></trkpt><trkpt lat="37.2044157" lon="9.6589692"><ele>2.0</ele><time>2026-05-02T15:12:39.617Z</time></trkpt><trkpt lat="37.2044396" lon="9.6592832"><ele>2.5</ele><time>2026-05-02T15:12:40.616Z</time></trkpt><trkpt lat="37.2044607" lon="9.6595858"><ele>3.0</ele><time>2026-05-02T15:12:41.636Z</time></trkpt><trkpt lat="37.2044834" lon="9.6598748"><ele>3.0</ele><time>2026-05-02T15:12:42.621Z</time></trkpt><trkpt lat="37.2045013" lon="9.6601727"><ele>3.0</ele><time>2026-05-02T15:12:43.624Z</time></trkpt><trkpt lat="37.2045217" lon="9.6604677"><ele>3.5</ele><time>2026-05-02T15:12:44.62Z</time></trkpt><trkpt lat="37.2045275" lon="9.6607737"><ele>4.0</ele><time>2026-05-02T15:12:45.608Z</time></trkpt><trkpt lat="37.2045217" lon="9.6610829"><ele>4.5</ele><time>2026-05-02T15:12:46.61Z</time></trkpt><trkpt lat="37.2044958" lon="9.6614007"><ele>5.0</ele><time>2026-05-02T15:12:47.613Z</time></trkpt><trkpt lat="37.2044527" lon="9.6617298"><ele>5.5</ele><time>2026-05-02T15:12:48.61Z</time></trkpt><trkpt lat="37.2043995" lon="9.6620546"><ele>6.0</ele><time>2026-05-02T15:12:49.616Z</time></trkpt><trkpt lat="37.2043397" lon="9.6623736"><ele>6.0</ele><time>2026-05-02T15:12:50.616Z</time></trkpt><trkpt lat="37.2042748" lon="9.6627024"><ele>6.0</ele><time>2026-05-02T15:12:51.614Z</time></trkpt><trkpt lat="37.2042186" lon="9.6630186"><ele>5.666666666666667</ele><time>2026-05-02T15:12:52.623Z</time></trkpt><trkpt lat="37.2041665" lon="9.6633008"><ele>5.333333333333334</ele><time>2026-05-02T15:12:53.618Z</time></trkpt><trkpt lat="37.204113" lon="9.6635623"><ele>5.0</ele><time>2026-05-02T15:12:54.62Z</time></trkpt><trkpt lat="37.2040661" lon="9.663807"><ele>5.333333333333334</ele><time>2026-05-02T15:12:55.618Z</time></trkpt><trkpt lat="37.2040213" lon="9.6640315"><ele>5.666666666666667</ele><time>2026-05-02T15:12:56.617Z</time></trkpt><trkpt lat="37.2039862" lon="9.66425"><ele>6.0</ele><time>2026-05-02T15:12:57.624Z</time></trkpt><trkpt lat="37.203966" lon="9.6644545"><ele>6.0</ele><time>2026-05-02T15:12:58.617Z</time></trkpt><trkpt lat="37.2039749" lon="9.6646537"><ele>6.0</ele><time>2026-05-02T15:12:59.639Z</time></trkpt><trkpt lat="37.2040054" lon="9.664827"><ele>6.0</ele><time>2026-05-02T15:13:00.627Z</time></trkpt><trkpt lat="37.2040514" lon="9.664994"><ele>6.0</ele><time>2026-05-02T15:13:01.62Z</time></trkpt><trkpt lat="37.2041121" lon="9.6651398"><ele>6.333333333333334</ele><time>2026-05-02T15:13:02.617Z</time></trkpt><trkpt lat="37.2041937" lon="9.6652886"><ele>6.666666666666667</ele><time>2026-05-02T15:13:03.614Z</time></trkpt><trkpt lat="37.2042999" lon="9.6654482"><ele>7.0</ele><time>2026-05-02T15:13:04.611Z</time></trkpt><trkpt lat="37.2044213" lon="9.6656014"><ele>7.0</ele><time>2026-05-02T15:13:05.619Z</time></trkpt><trkpt lat="37.2045574" lon="9.6657475"><ele>7.0</ele><time>2026-05-02T15:13:06.618Z</time></trkpt><trkpt lat="37.2046908" lon="9.6658881"><ele>7.0</ele><time>2026-05-02T15:13:07.61Z</time></trkpt><trkpt lat="37.2048126" lon="9.6660399"><ele>7.666666666666667</ele><time>2026-05-02T15:13:08.614Z</time></trkpt><trkpt lat="37.2049282" lon="9.6662156"><ele>8.333333333333334</ele><time>2026-05-02T15:13:09.62Z</time></trkpt><trkpt lat="37.2050462" lon="9.6664368"><ele>9.0</ele><time>2026-05-02T15:13:10.61Z</time></trkpt><trkpt lat="37.2051741" lon="9.6666976"><ele>8.5</ele><time>2026-05-02T15:13:11.617Z</time></trkpt><trkpt lat="37.2053177" lon="9.6669623"><ele>8.0</ele><time>2026-05-02T15:13:12.625Z</time></trkpt><trkpt lat="37.2054496" lon="9.6672187"><ele>8.0</ele><time>2026-05-02T15:13:13.62Z</time></trkpt><trkpt lat="37.2055535" lon="9.6674244"><ele>8.0</ele><time>2026-05-02T15:13:14.634Z</time></trkpt><trkpt lat="37.2056529" lon="9.6676202"><ele>8.0</ele><time>2026-05-02T15:13:15.61Z</time></trkpt><trkpt lat="37.2057345" lon="9.6678007"><ele>9.0</ele><time>2026-05-02T15:13:16.618Z</time></trkpt><trkpt lat="37.2057955" lon="9.6679932"><ele>10.0</ele><time>2026-05-02T15:13:17.613Z</time></trkpt><trkpt lat="37.2058408" lon="9.668192"><ele>11.0</ele><time>2026-05-02T15:13:18.626Z</time></trkpt><trkpt lat="37.205867" lon="9.6683885"><ele>11.0</ele><time>2026-05-02T15:13:19.614Z</time></trkpt><trkpt lat="37.2058762" lon="9.6685915"><ele>11.0</ele><time>2026-05-02T15:13:20.621Z</time></trkpt><trkpt lat="37.2058725" lon="9.6688383"><ele>11.0</ele><time>2026-05-02T15:13:21.605Z</time></trkpt><trkpt lat="37.2058606" lon="9.6691257"><ele>11.0</ele><time>2026-05-02T15:13:22.616Z</time></trkpt><trkpt lat="37.2058575" lon="9.6694047"><ele>11.0</ele><time>2026-05-02T15:13:23.623Z</time></trkpt><trkpt lat="37.2058713" lon="9.669648"><ele>11.0</ele><time>2026-05-02T15:13:24.611Z</time></trkpt><trkpt lat="37.2059013" lon="9.6698809"><ele>11.0</ele><time>2026-05-02T15:13:25.605Z</time></trkpt><trkpt lat="37.2059355" lon="9.6701033"><ele>11.0</ele><time>2026-05-02T15:13:26.611Z</time></trkpt><trkpt lat="37.2059718" lon="9.6703222"><ele>11.0</ele><time>2026-05-02T15:13:27.618Z</time></trkpt><trkpt lat="37.2060116" lon="9.6705333"><ele>11.0</ele><time>2026-05-02T15:13:28.615Z</time></trkpt><trkpt lat="37.2060644" lon="9.670737"><ele>11.0</ele><time>2026-05-02T15:13:29.608Z</time></trkpt><trkpt lat="37.2061212" lon="9.6709328"><ele>11.0</ele><time>2026-05-02T15:13:30.614Z</time></trkpt><trkpt lat="37.2061833" lon="9.6711175"><ele>10.333333333333332</ele><time>2026-05-02T15:13:31.613Z</time></trkpt><trkpt lat="37.20625" lon="9.6713053"><ele>9.666666666666666</ele><time>2026-05-02T15:13:32.617Z</time></trkpt><trkpt lat="37.2063267" lon="9.6714789"><ele>9.0</ele><time>2026-05-02T15:13:33.66Z</time></trkpt><trkpt lat="37.2064079" lon="9.6716499"><ele>9.0</ele><time>2026-05-02T15:13:34.614Z</time></trkpt><trkpt lat="37.2064828" lon="9.6718193"><ele>9.0</ele><time>2026-05-02T15:13:35.605Z</time></trkpt><trkpt lat="37.2065627" lon="9.6719841"><ele>9.0</ele><time>2026-05-02T15:13:36.615Z</time></trkpt><trkpt lat="37.2066404" lon="9.6721413"><ele>9.5</ele><time>2026-05-02T15:13:37.615Z</time></trkpt><trkpt lat="37.2067156" lon="9.6722972"><ele>10.0</ele><time>2026-05-02T15:13:38.619Z</time></trkpt><trkpt lat="37.2067886" lon="9.6724438"><ele>10.5</ele><time>2026-05-02T15:13:39.612Z</time></trkpt><trkpt lat="37.2068587" lon="9.672585"><ele>11.0</ele><time>2026-05-02T15:13:40.614Z</time></trkpt><trkpt lat="37.2069298" lon="9.6727307"><ele>10.25</ele><time>2026-05-02T15:13:41.619Z</time></trkpt><trkpt lat="37.2070076" lon="9.6728829"><ele>9.5</ele><time>2026-05-02T15:13:42.613Z</time></trkpt><trkpt lat="37.2070887" lon="9.6730306"><ele>8.75</ele><time>2026-05-02T15:13:43.615Z</time></trkpt><trkpt lat="37.2071742" lon="9.6731836"><ele>8.0</ele><time>2026-05-02T15:13:44.613Z</time></trkpt><trkpt lat="37.2072616" lon="9.6733318"><ele>9.0</ele><time>2026-05-02T15:13:45.609Z</time></trkpt><trkpt lat="37.2073535" lon="9.6734741"><ele>10.0</ele><time>2026-05-02T15:13:46.614Z</time></trkpt><trkpt lat="37.2074499" lon="9.67361"><ele>11.0</ele><time>2026-05-02T15:13:47.614Z</time></trkpt><trkpt lat="37.2075411" lon="9.6737356"><ele>12.0</ele><time>2026-05-02T15:13:48.619Z</time></trkpt><trkpt lat="37.2076332" lon="9.6738501"><ele>12.0</ele><time>2026-05-02T15:13:49.63Z</time></trkpt><trkpt lat="37.2077136" lon="9.6739473"><ele>12.0</ele><time>2026-05-02T15:13:50.615Z</time></trkpt><trkpt lat="37.2077989" lon="9.6740413"><ele>12.0</ele><time>2026-05-02T15:13:51.616Z</time></trkpt><trkpt lat="37.2078788" lon="9.6741337"><ele>12.0</ele><time>2026-05-02T15:13:52.609Z</time></trkpt><trkpt lat="37.2079536" lon="9.6742111"><ele>12.0</ele><time>2026-05-02T15:13:53.613Z</time></trkpt><trkpt lat="37.2080288" lon="9.674284"><ele>12.0</ele><time>2026-05-02T15:13:54.618Z</time></trkpt><trkpt lat="37.2081005" lon="9.6743521"><ele>12.0</ele><time>2026-05-02T15:13:55.615Z</time></trkpt><trkpt lat="37.2081698" lon="9.6744191"><ele>12.0</ele><time>2026-05-02T15:13:56.614Z</time></trkpt><trkpt lat="37.2082332" lon="9.6744835"><ele>12.0</ele><time>2026-05-02T15:13:57.613Z</time></trkpt><trkpt lat="37.2082935" lon="9.6745479"><ele>12.0</ele><time>2026-05-02T15:13:58.613Z</time></trkpt><trkpt lat="37.2083516" lon="9.674607"><ele>12.0</ele><time>2026-05-02T15:13:59.613Z</time></trkpt><trkpt lat="37.2084144" lon="9.6746642"><ele>12.0</ele><time>2026-05-02T15:14:00.609Z</time></trkpt><trkpt lat="37.2084858" lon="9.6747303"><ele>12.0</ele><time>2026-05-02T15:14:01.611Z</time></trkpt><trkpt lat="37.2085543" lon="9.674801"><ele>12.0</ele><time>2026-05-02T15:14:02.614Z</time></trkpt><trkpt lat="37.2086218" lon="9.6748693"><ele>12.0</ele><time>2026-05-02T15:14:03.615Z</time></trkpt><trkpt lat="37.2086859" lon="9.6749282"><ele>12.0</ele><time>2026-05-02T15:14:04.619Z</time></trkpt><trkpt lat="37.2087522" lon="9.6749831"><ele>12.0</ele><time>2026-05-02T15:14:05.614Z</time></trkpt><trkpt lat="37.2088156" lon="9.6750324"><ele>12.0</ele><time>2026-05-02T15:14:06.614Z</time></trkpt><trkpt lat="37.2088817" lon="9.6750912"><ele>12.0</ele><time>2026-05-02T15:14:07.608Z</time></trkpt><trkpt lat="37.2089491" lon="9.6751555"><ele>12.0</ele><time>2026-05-02T15:14:08.611Z</time></trkpt><trkpt lat="37.2090228" lon="9.6752178"><ele>12.0</ele><time>2026-05-02T15:14:09.617Z</time></trkpt><trkpt lat="37.2090971" lon="9.6752794"><ele>12.0</ele><time>2026-05-02T15:14:10.612Z</time></trkpt><trkpt lat="37.2091884" lon="9.6753446"><ele>12.0</ele><time>2026-05-02T15:14:11.615Z</time></trkpt><trkpt lat="37.2092862" lon="9.6754167"><ele>11.333333333333334</ele><time>2026-05-02T15:14:12.617Z</time></trkpt><trkpt lat="37.2094104" lon="9.6755094"><ele>10.666666666666668</ele><time>2026-05-02T15:14:13.617Z</time></trkpt><trkpt lat="37.2095522" lon="9.6756141"><ele>10.0</ele><time>2026-05-02T15:14:14.619Z</time></trkpt><trkpt lat="37.2097096" lon="9.6757275"><ele>12.0</ele><time>2026-05-02T15:14:15.62Z</time></trkpt><trkpt lat="37.2098721" lon="9.6758826"><ele>14.0</ele><time>2026-05-02T15:14:16.617Z</time></trkpt><trkpt lat="37.2100641" lon="9.6760862"><ele>12.0</ele><time>2026-05-02T15:14:17.616Z</time></trkpt><trkpt lat="37.2102611" lon="9.676313"><ele>10.0</ele><time>2026-05-02T15:14:18.616Z</time></trkpt><trkpt lat="37.2104616" lon="9.6765802"><ele>11.0</ele><time>2026-05-02T15:14:19.614Z</time></trkpt><trkpt lat="37.2106702" lon="9.6768628"><ele>12.0</ele><time>2026-05-02T15:14:20.625Z</time></trkpt><trkpt lat="37.2108743" lon="9.677136"><ele>12.0</ele><time>2026-05-02T15:14:21.618Z</time></trkpt><trkpt lat="37.2110707" lon="9.6773825"><ele>12.0</ele><time>2026-05-02T15:14:22.608Z</time></trkpt><trkpt lat="37.2112495" lon="9.6776145"><ele>12.5</ele><time>2026-05-02T15:14:23.615Z</time></trkpt><trkpt lat="37.2114179" lon="9.6778413"><ele>13.0</ele><time>2026-05-02T15:14:24.622Z</time></trkpt><trkpt lat="37.2115783" lon="9.6780614"><ele>14.0</ele><time>2026-05-02T15:14:25.632Z</time></trkpt><trkpt lat="37.211733" lon="9.6782758"><ele>15.0</ele><time>2026-05-02T15:14:26.601Z</time></trkpt><trkpt lat="37.2118838" lon="9.678479"><ele>14.333333333333332</ele><time>2026-05-02T15:14:27.602Z</time></trkpt><trkpt lat="37.2120245" lon="9.6786646"><ele>13.666666666666666</ele><time>2026-05-02T15:14:28.613Z</time></trkpt><trkpt lat="37.2121591" lon="9.6788393"><ele>13.0</ele><time>2026-05-02T15:14:29.613Z</time></trkpt><trkpt lat="37.2122753" lon="9.6790008"><ele>13.0</ele><time>2026-05-02T15:14:30.604Z</time></trkpt><trkpt lat="37.2123893" lon="9.679164"><ele>13.0</ele><time>2026-05-02T15:14:31.621Z</time></trkpt><trkpt lat="37.212508" lon="9.6793229"><ele>13.0</ele><time>2026-05-02T15:14:32.618Z</time></trkpt><trkpt lat="37.2126217" lon="9.6794713"><ele>13.0</ele><time>2026-05-02T15:14:33.614Z</time></trkpt><trkpt lat="37.212731" lon="9.679619"><ele>13.0</ele><time>2026-05-02T15:14:34.617Z</time></trkpt><trkpt lat="37.2128335" lon="9.6797551"><ele>13.0</ele><time>2026-05-02T15:14:35.612Z</time></trkpt><trkpt lat="37.2129345" lon="9.6798896"><ele>13.0</ele><time>2026-05-02T15:14:36.621Z</time></trkpt><trkpt lat="37.2130302" lon="9.6800213"><ele>13.0</ele><time>2026-05-02T15:14:37.625Z</time></trkpt><trkpt lat="37.2131286" lon="9.6801566"><ele>13.0</ele><time>2026-05-02T15:14:38.62Z</time></trkpt><trkpt lat="37.2132252" lon="9.6802889"><ele>13.0</ele><time>2026-05-02T15:14:39.62Z</time></trkpt><trkpt lat="37.2133254" lon="9.6804266"><ele>13.5</ele><time>2026-05-02T15:14:40.61Z</time></trkpt><trkpt lat="37.2134282" lon="9.6805609"><ele>14.0</ele><time>2026-05-02T15:14:41.615Z</time></trkpt><trkpt lat="37.2135315" lon="9.6806917"><ele>14.5</ele><time>2026-05-02T15:14:42.612Z</time></trkpt><trkpt lat="37.2136363" lon="9.6808275"><ele>15.0</ele><time>2026-05-02T15:14:43.615Z</time></trkpt><trkpt lat="37.2137357" lon="9.6809608"><ele>15.0</ele><time>2026-05-02T15:14:44.62Z</time></trkpt><trkpt lat="37.2138348" lon="9.6810939"><ele>15.0</ele><time>2026-05-02T15:14:45.617Z</time></trkpt><trkpt lat="37.2139369" lon="9.6812221"><ele>15.0</ele><time>2026-05-02T15:14:46.615Z</time></trkpt><trkpt lat="37.2140374" lon="9.6813476"><ele>15.0</ele><time>2026-05-02T15:14:47.621Z</time></trkpt><trkpt lat="37.2141399" lon="9.6814762"><ele>15.0</ele><time>2026-05-02T15:14:48.618Z</time></trkpt><trkpt lat="37.2142445" lon="9.681597"><ele>15.0</ele><time>2026-05-02T15:14:49.621Z</time></trkpt><trkpt lat="37.2143529" lon="9.6817206"><ele>15.0</ele><time>2026-05-02T15:14:50.627Z</time></trkpt><trkpt lat="37.2144565" lon="9.6818431"><ele>15.0</ele><time>2026-05-02T15:14:51.611Z</time></trkpt><trkpt lat="37.2145638" lon="9.6819587"><ele>14.75</ele><time>2026-05-02T15:14:52.616Z</time></trkpt><trkpt lat="37.214679" lon="9.6820785"><ele>14.5</ele><time>2026-05-02T15:14:53.616Z</time></trkpt><trkpt lat="37.2147948" lon="9.6821977"><ele>14.25</ele><time>2026-05-02T15:14:54.621Z</time></trkpt><trkpt lat="37.2149101" lon="9.6823177"><ele>14.0</ele><time>2026-05-02T15:14:55.603Z</time></trkpt><trkpt lat="37.2150275" lon="9.6824429"><ele>14.666666666666668</ele><time>2026-05-02T15:14:56.618Z</time></trkpt><trkpt lat="37.2151437" lon="9.6825666"><ele>15.333333333333332</ele><time>2026-05-02T15:14:57.602Z</time></trkpt><trkpt lat="37.2152675" lon="9.6826942"><ele>16.0</ele><time>2026-05-02T15:14:58.608Z</time></trkpt><trkpt lat="37.2153928" lon="9.6828176"><ele>16.0</ele><time>2026-05-02T15:14:59.616Z</time></trkpt><trkpt lat="37.2155073" lon="9.6829425"><ele>16.0</ele><time>2026-05-02T15:15:00.636Z</time></trkpt><trkpt lat="37.2156183" lon="9.6830587"><ele>16.0</ele><time>2026-05-02T15:15:01.613Z</time></trkpt><trkpt lat="37.215721" lon="9.6831704"><ele>16.0</ele><time>2026-05-02T15:15:02.609Z</time></trkpt><trkpt lat="37.2158274" lon="9.6832832"><ele>16.5</ele><time>2026-05-02T15:15:03.619Z</time></trkpt><trkpt lat="37.2159253" lon="9.6833884"><ele>17.0</ele><time>2026-05-02T15:15:04.608Z</time></trkpt><trkpt lat="37.2160276" lon="9.683495"><ele>17.5</ele><time>2026-05-02T15:15:05.669Z</time></trkpt><trkpt lat="37.2161246" lon="9.6836017"><ele>18.0</ele><time>2026-05-02T15:15:06.623Z</time></trkpt><trkpt lat="37.2162196" lon="9.6837026"><ele>18.25</ele><time>2026-05-02T15:15:07.613Z</time></trkpt><trkpt lat="37.2163125" lon="9.6838006"><ele>18.5</ele><time>2026-05-02T15:15:08.63Z</time></trkpt><trkpt lat="37.2164093" lon="9.6838971"><ele>18.75</ele><time>2026-05-02T15:15:09.618Z</time></trkpt><trkpt lat="37.2164992" lon="9.6839917"><ele>19.0</ele><time>2026-05-02T15:15:10.613Z</time></trkpt><trkpt lat="37.2165934" lon="9.6840894"><ele>19.0</ele><time>2026-05-02T15:15:11.619Z</time></trkpt><trkpt lat="37.2166978" lon="9.6841913"><ele>19.0</ele><time>2026-05-02T15:15:12.624Z</time></trkpt><trkpt lat="37.2168007" lon="9.6842974"><ele>19.0</ele><time>2026-05-02T15:15:13.613Z</time></trkpt><trkpt lat="37.216901" lon="9.6844024"><ele>19.0</ele><time>2026-05-02T15:15:14.618Z</time></trkpt><trkpt lat="37.2170038" lon="9.684509"><ele>19.0</ele><time>2026-05-02T15:15:15.617Z</time></trkpt><trkpt lat="37.2171126" lon="9.6846186"><ele>19.0</ele><time>2026-05-02T15:15:16.619Z</time></trkpt><trkpt lat="37.2172199" lon="9.6847248"><ele>19.0</ele><time>2026-05-02T15:15:17.63Z</time></trkpt><trkpt lat="37.2173304" lon="9.6848373"><ele>19.0</ele><time>2026-05-02T15:15:18.616Z</time></trkpt><trkpt lat="37.2174316" lon="9.6849414"><ele>19.5</ele><time>2026-05-02T15:15:19.621Z</time></trkpt><trkpt lat="37.2175257" lon="9.6850543"><ele>20.0</ele><time>2026-05-02T15:15:20.616Z</time></trkpt><trkpt lat="37.2176161" lon="9.6851704"><ele>20.5</ele><time>2026-05-02T15:15:21.619Z</time></trkpt><trkpt lat="37.2177043" lon="9.6852813"><ele>21.0</ele><time>2026-05-02T15:15:22.614Z</time></trkpt><trkpt lat="37.2177943" lon="9.6853959"><ele>21.0</ele><time>2026-05-02T15:15:23.62Z</time></trkpt><trkpt lat="37.2178784" lon="9.6855132"><ele>21.0</ele><time>2026-05-02T15:15:24.625Z</time></trkpt><trkpt lat="37.2179562" lon="9.6856364"><ele>21.0</ele><time>2026-05-02T15:15:25.617Z</time></trkpt><trkpt lat="37.2180344" lon="9.6857577"><ele>21.0</ele><time>2026-05-02T15:15:26.611Z</time></trkpt><trkpt lat="37.2181125" lon="9.6858765"><ele>21.6</ele><time>2026-05-02T15:15:27.614Z</time></trkpt><trkpt lat="37.2181878" lon="9.6859791"><ele>22.200000000000003</ele><time>2026-05-02T15:15:28.612Z</time></trkpt><trkpt lat="37.2182676" lon="9.6860727"><ele>22.799999999999997</ele><time>2026-05-02T15:15:29.609Z</time></trkpt><trkpt lat="37.218345" lon="9.6861624"><ele>23.4</ele><time>2026-05-02T15:15:30.613Z</time></trkpt><trkpt lat="37.2184176" lon="9.6862467"><ele>24.0</ele><time>2026-05-02T15:15:31.609Z</time></trkpt><trkpt lat="37.2184933" lon="9.6863219"><ele>24.0</ele><time>2026-05-02T15:15:32.614Z</time></trkpt><trkpt lat="37.2185716" lon="9.6863957"><ele>24.0</ele><time>2026-05-02T15:15:33.62Z</time></trkpt><trkpt lat="37.2186536" lon="9.6864691"><ele>24.0</ele><time>2026-05-02T15:15:34.612Z</time></trkpt><trkpt lat="37.2187332" lon="9.6865377"><ele>24.0</ele><time>2026-05-02T15:15:35.614Z</time></trkpt><trkpt lat="37.2188137" lon="9.6866055"><ele>24.0</ele><time>2026-05-02T15:15:36.612Z</time></trkpt><trkpt lat="37.2188954" lon="9.6866703"><ele>24.0</ele><time>2026-05-02T15:15:37.617Z</time></trkpt><trkpt lat="37.2189824" lon="9.6867375"><ele>24.0</ele><time>2026-05-02T15:15:38.612Z</time></trkpt><trkpt lat="37.2190692" lon="9.6868051"><ele>24.0</ele><time>2026-05-02T15:15:39.639Z</time></trkpt><trkpt lat="37.2191578" lon="9.6868727"><ele>24.0</ele><time>2026-05-02T15:15:40.629Z</time></trkpt><trkpt lat="37.2192464" lon="9.6869396"><ele>24.0</ele><time>2026-05-02T15:15:41.611Z</time></trkpt><trkpt lat="37.21934" lon="9.6870103"><ele>24.25</ele><time>2026-05-02T15:15:42.617Z</time></trkpt><trkpt lat="37.2194426" lon="9.6870875"><ele>24.5</ele><time>2026-05-02T15:15:43.625Z</time></trkpt><trkpt lat="37.2195501" lon="9.6871572"><ele>24.75</ele><time>2026-05-02T15:15:44.618Z</time></trkpt><trkpt lat="37.2196575" lon="9.6872248"><ele>25.0</ele><time>2026-05-02T15:15:45.617Z</time></trkpt><trkpt lat="37.2197644" lon="9.6872916"><ele>26.25</ele><time>2026-05-02T15:15:46.613Z</time></trkpt><trkpt lat="37.2198777" lon="9.687361"><ele>27.5</ele><time>2026-05-02T15:15:47.618Z</time></trkpt><trkpt lat="37.2199942" lon="9.6874238"><ele>28.75</ele><time>2026-05-02T15:15:48.618Z</time></trkpt><trkpt lat="37.2201082" lon="9.6874878"><ele>30.0</ele><time>2026-05-02T15:15:49.616Z</time></trkpt><trkpt lat="37.2202256" lon="9.6875452"><ele>30.0</ele><time>2026-05-02T15:15:50.621Z</time></trkpt><trkpt lat="37.2203443" lon="9.6875989"><ele>30.0</ele><time>2026-05-02T15:15:51.616Z</time></trkpt><trkpt lat="37.2204625" lon="9.6876493"><ele>30.0</ele><time>2026-05-02T15:15:52.614Z</time></trkpt><trkpt lat="37.2205822" lon="9.6876994"><ele>30.0</ele><time>2026-05-02T15:15:53.615Z</time></trkpt><trkpt lat="37.2206935" lon="9.6877368"><ele>29.833333333333332</ele><time>2026-05-02T15:15:54.612Z</time></trkpt><trkpt lat="37.2207919" lon="9.6877702"><ele>29.666666666666664</ele><time>2026-05-02T15:15:55.613Z</time></trkpt><trkpt lat="37.2208801" lon="9.6878022"><ele>29.5</ele><time>2026-05-02T15:15:56.613Z</time></trkpt><trkpt lat="37.2209525" lon="9.6878354"><ele>29.333333333333332</ele><time>2026-05-02T15:15:57.607Z</time></trkpt><trkpt lat="37.2210091" lon="9.6878724"><ele>29.166666666666664</ele><time>2026-05-02T15:15:58.611Z</time></trkpt><trkpt lat="37.2211037" lon="9.6879266"><ele>29.0</ele><time>2026-05-02T15:16:00.61Z</time></trkpt><trkpt lat="37.2211686" lon="9.6879581"><ele>28.999999999999996</ele><time>2026-05-02T15:16:02.617Z</time></trkpt><trkpt lat="37.2211342" lon="9.6878788"><ele>29.0</ele><time>2026-05-02T15:18:23.662Z</time></trkpt><trkpt lat="37.2210491" lon="9.6878396"><ele>29.0</ele><time>2026-05-02T15:18:25.653Z</time></trkpt><trkpt lat="37.2209778" lon="9.6878023"><ele>29.0</ele><time>2026-05-02T15:18:27.655Z</time></trkpt><trkpt lat="37.2209104" lon="9.6878149"><ele>28.999999999999996</ele><time>2026-05-02T15:18:30.672Z</time></trkpt><trkpt lat="37.220942" lon="9.6878899"><ele>29.0</ele><time>2026-05-02T15:18:34.624Z</time></trkpt><trkpt lat="37.2210517" lon="9.6878976"><ele>28.999999999999996</ele><time>2026-05-02T15:34:25.592Z</time></trkpt><trkpt lat="37.221114" lon="9.6879155"><ele>29.0</ele><time>2026-05-02T15:34:26.612Z</time></trkpt><trkpt lat="37.2211907" lon="9.6879379"><ele>29.0</ele><time>2026-05-02T15:34:27.601Z</time></trkpt><trkpt lat="37.2212723" lon="9.687974"><ele>29.0</ele><time>2026-05-02T15:34:28.611Z</time></trkpt><trkpt lat="37.2213647" lon="9.6880142"><ele>28.999999999999996</ele><time>2026-05-02T15:34:29.616Z</time></trkpt><trkpt lat="37.221459" lon="9.6880572"><ele>29.0</ele><time>2026-05-02T15:34:30.635Z</time></trkpt><trkpt lat="37.2215545" lon="9.6881046"><ele>30.0</ele><time>2026-05-02T15:34:31.61Z</time></trkpt><trkpt lat="37.2216514" lon="9.6881559"><ele>31.0</ele><time>2026-05-02T15:34:32.632Z</time></trkpt><trkpt lat="37.2217367" lon="9.6882141"><ele>32.0</ele><time>2026-05-02T15:34:33.617Z</time></trkpt><trkpt lat="37.221819" lon="9.6882789"><ele>33.0</ele><time>2026-05-02T15:34:34.611Z</time></trkpt><trkpt lat="37.2218952" lon="9.6883508"><ele>34.0</ele><time>2026-05-02T15:34:35.606Z</time></trkpt><trkpt lat="37.2219697" lon="9.6884265"><ele>34.0</ele><time>2026-05-02T15:34:36.624Z</time></trkpt><trkpt lat="37.2220375" lon="9.6885239"><ele>34.0</ele><time>2026-05-02T15:34:37.641Z</time></trkpt><trkpt lat="37.2220982" lon="9.6886187"><ele>34.0</ele><time>2026-05-02T15:34:38.623Z</time></trkpt><trkpt lat="37.2221482" lon="9.6887187"><ele>34.0</ele><time>2026-05-02T15:34:39.607Z</time></trkpt><trkpt lat="37.2221978" lon="9.6888295"><ele>34.0</ele><time>2026-05-02T15:34:40.623Z</time></trkpt><trkpt lat="37.2222401" lon="9.6889514"><ele>34.2</ele><time>2026-05-02T15:34:41.632Z</time></trkpt><trkpt lat="37.222272" lon="9.6890735"><ele>34.4</ele><time>2026-05-02T15:34:42.634Z</time></trkpt><trkpt lat="37.2223029" lon="9.6891997"><ele>34.6</ele><time>2026-05-02T15:34:43.623Z</time></trkpt><trkpt lat="37.2223446" lon="9.6893267"><ele>34.8</ele><time>2026-05-02T15:34:44.609Z</time></trkpt><trkpt lat="37.222383" lon="9.6894552"><ele>35.0</ele><time>2026-05-02T15:34:45.639Z</time></trkpt><trkpt lat="37.2224266" lon="9.6895765"><ele>36.8</ele><time>2026-05-02T15:34:46.613Z</time></trkpt><trkpt lat="37.2224792" lon="9.6896875"><ele>38.6</ele><time>2026-05-02T15:34:47.636Z</time></trkpt><trkpt lat="37.2225398" lon="9.6897847"><ele>40.400000000000006</ele><time>2026-05-02T15:34:48.692Z</time></trkpt><trkpt lat="37.2225888" lon="9.689867"><ele>42.2</ele><time>2026-05-02T15:34:49.61Z</time></trkpt><trkpt lat="37.2226457" lon="9.6899493"><ele>44.0</ele><time>2026-05-02T15:34:50.613Z</time></trkpt><trkpt lat="37.2226998" lon="9.6900393"><ele>44.0</ele><time>2026-05-02T15:34:51.635Z</time></trkpt><trkpt lat="37.222746" lon="9.6901271"><ele>44.0</ele><time>2026-05-02T15:34:52.609Z</time></trkpt><trkpt lat="37.222784" lon="9.6902169"><ele>44.0</ele><time>2026-05-02T15:34:53.646Z</time></trkpt><trkpt lat="37.2228301" lon="9.6903319"><ele>44.0</ele><time>2026-05-02T15:34:55.648Z</time></trkpt><trkpt lat="37.2228528" lon="9.6904221"><ele>44.0</ele><time>2026-05-02T15:34:58.684Z</time></trkpt><trkpt lat="37.2228809" lon="9.6904956"><ele>44.0</ele><time>2026-05-02T15:35:03.62Z</time></trkpt><trkpt lat="37.2229539" lon="9.6904958"><ele>44.0</ele><time>2026-05-02T15:35:29.614Z</time></trkpt><trkpt lat="37.223041" lon="9.6905616"><ele>44.0</ele><time>2026-05-02T15:46:17.598Z</time></trkpt><trkpt lat="37.2230277" lon="9.6904736"><ele>44.0</ele><time>2026-05-02T15:46:21.604Z</time></trkpt><trkpt lat="37.2230066" lon="9.6906043"><ele>44.0</ele><time>2026-05-02T15:46:33.591Z</time></trkpt><trkpt lat="37.2230536" lon="9.6907363"><ele>44.0</ele><time>2026-05-02T15:46:35.597Z</time></trkpt><trkpt lat="37.2231429" lon="9.6908575"><ele>43.166666666666664</ele><time>2026-05-02T15:46:37.625Z</time></trkpt><trkpt lat="37.2231948" lon="9.6909233"><ele>42.33333333333333</ele><time>2026-05-02T15:46:38.614Z</time></trkpt><trkpt lat="37.2232546" lon="9.6909813"><ele>41.5</ele><time>2026-05-02T15:46:39.593Z</time></trkpt><trkpt lat="37.2233199" lon="9.6910429"><ele>40.666666666666664</ele><time>2026-05-02T15:46:40.602Z</time></trkpt><trkpt lat="37.2233899" lon="9.6911139"><ele>39.833333333333336</ele><time>2026-05-02T15:46:41.612Z</time></trkpt><trkpt lat="37.223466" lon="9.691186"><ele>39.0</ele><time>2026-05-02T15:46:42.617Z</time></trkpt><trkpt lat="37.2235509" lon="9.6912497"><ele>39.0</ele><time>2026-05-02T15:46:43.634Z</time></trkpt><trkpt lat="37.2236325" lon="9.6913147"><ele>39.0</ele><time>2026-05-02T15:46:44.607Z</time></trkpt><trkpt lat="37.2237172" lon="9.6913864"><ele>39.0</ele><time>2026-05-02T15:46:45.606Z</time></trkpt><trkpt lat="37.2238035" lon="9.6914609"><ele>39.0</ele><time>2026-05-02T15:46:46.602Z</time></trkpt><trkpt lat="37.223893" lon="9.6915366"><ele>39.0</ele><time>2026-05-02T15:46:47.611Z</time></trkpt><trkpt lat="37.2239791" lon="9.6916154"><ele>38.6</ele><time>2026-05-02T15:46:48.6Z</time></trkpt><trkpt lat="37.2240571" lon="9.6916966"><ele>38.2</ele><time>2026-05-02T15:46:49.611Z</time></trkpt><trkpt lat="37.2241418" lon="9.6917878"><ele>37.800000000000004</ele><time>2026-05-02T15:46:50.608Z</time></trkpt><trkpt lat="37.2242215" lon="9.691885"><ele>37.4</ele><time>2026-05-02T15:46:51.62Z</time></trkpt><trkpt lat="37.2242995" lon="9.6920001"><ele>37.0</ele><time>2026-05-02T15:46:52.607Z</time></trkpt><trkpt lat="37.2243684" lon="9.6921201"><ele>36.75</ele><time>2026-05-02T15:46:53.624Z</time></trkpt><trkpt lat="37.2244326" lon="9.6922377"><ele>36.5</ele><time>2026-05-02T15:46:54.617Z</time></trkpt><trkpt lat="37.2244959" lon="9.6923595"><ele>36.25</ele><time>2026-05-02T15:46:55.612Z</time></trkpt><trkpt lat="37.2245538" lon="9.6924915"><ele>36.0</ele><time>2026-05-02T15:46:56.618Z</time></trkpt><trkpt lat="37.2246024" lon="9.6926314"><ele>35.5</ele><time>2026-05-02T15:46:57.629Z</time></trkpt><trkpt lat="37.2246499" lon="9.6927803"><ele>35.0</ele><time>2026-05-02T15:46:58.636Z</time></trkpt><trkpt lat="37.2246881" lon="9.6929399"><ele>34.5</ele><time>2026-05-02T15:46:59.623Z</time></trkpt><trkpt lat="37.2247208" lon="9.6931018"><ele>34.0</ele><time>2026-05-02T15:47:00.653Z</time></trkpt><trkpt lat="37.224746" lon="9.6932697"><ele>34.0</ele><time>2026-05-02T15:47:01.607Z</time></trkpt><trkpt lat="37.2247684" lon="9.6934429"><ele>34.0</ele><time>2026-05-02T15:47:02.618Z</time></trkpt><trkpt lat="37.2247973" lon="9.6936261"><ele>34.0</ele><time>2026-05-02T15:47:03.623Z</time></trkpt><trkpt lat="37.2248231" lon="9.6938228"><ele>34.0</ele><time>2026-05-02T15:47:04.602Z</time></trkpt><trkpt lat="37.224849" lon="9.6940329"><ele>31.666666666666668</ele><time>2026-05-02T15:47:05.611Z</time></trkpt><trkpt lat="37.2248754" lon="9.6942332"><ele>29.333333333333336</ele><time>2026-05-02T15:47:06.617Z</time></trkpt><trkpt lat="37.2249068" lon="9.6944367"><ele>27.0</ele><time>2026-05-02T15:47:07.613Z</time></trkpt><trkpt lat="37.2249355" lon="9.694642"><ele>26.333333333333336</ele><time>2026-05-02T15:47:08.612Z</time></trkpt><trkpt lat="37.2249693" lon="9.6948482"><ele>25.666666666666668</ele><time>2026-05-02T15:47:09.613Z</time></trkpt><trkpt lat="37.2249991" lon="9.6950462"><ele>25.0</ele><time>2026-05-02T15:47:10.615Z</time></trkpt><trkpt lat="37.2250375" lon="9.6952461"><ele>24.0</ele><time>2026-05-02T15:47:11.611Z</time></trkpt><trkpt lat="37.2250892" lon="9.6954329"><ele>23.0</ele><time>2026-05-02T15:47:12.625Z</time></trkpt><trkpt lat="37.2251492" lon="9.6956159"><ele>22.0</ele><time>2026-05-02T15:47:13.613Z</time></trkpt><trkpt lat="37.2252253" lon="9.6957902"><ele>22.0</ele><time>2026-05-02T15:47:14.632Z</time></trkpt><trkpt lat="37.2253149" lon="9.6959674"><ele>22.0</ele><time>2026-05-02T15:47:15.621Z</time></trkpt><trkpt lat="37.2254154" lon="9.6961387"><ele>22.0</ele><time>2026-05-02T15:47:16.595Z</time></trkpt><trkpt lat="37.22553" lon="9.6962923"><ele>20.333333333333332</ele><time>2026-05-02T15:47:17.617Z</time></trkpt><trkpt lat="37.2256525" lon="9.6964415"><ele>18.666666666666668</ele><time>2026-05-02T15:47:18.649Z</time></trkpt><trkpt lat="37.2257755" lon="9.6965893"><ele>17.0</ele><time>2026-05-02T15:47:19.613Z</time></trkpt><trkpt lat="37.2259035" lon="9.6967275"><ele>17.0</ele><time>2026-05-02T15:47:20.611Z</time></trkpt><trkpt lat="37.2260266" lon="9.6968712"><ele>17.0</ele><time>2026-05-02T15:47:21.656Z</time></trkpt><trkpt lat="37.2261561" lon="9.6970059"><ele>17.0</ele><time>2026-05-02T15:47:22.64Z</time></trkpt><trkpt lat="37.2262911" lon="9.6971372"><ele>16.333333333333336</ele><time>2026-05-02T15:47:23.621Z</time></trkpt><trkpt lat="37.2264091" lon="9.6972656"><ele>15.666666666666668</ele><time>2026-05-02T15:47:24.607Z</time></trkpt><trkpt lat="37.2265245" lon="9.697409"><ele>15.0</ele><time>2026-05-02T15:47:25.692Z</time></trkpt><trkpt lat="37.2266219" lon="9.6975685"><ele>15.0</ele><time>2026-05-02T15:47:26.603Z</time></trkpt><trkpt lat="37.2267088" lon="9.6977413"><ele>15.0</ele><time>2026-05-02T15:47:27.622Z</time></trkpt><trkpt lat="37.2267813" lon="9.6979149"><ele>15.0</ele><time>2026-05-02T15:47:28.612Z</time></trkpt><trkpt lat="37.2268444" lon="9.6980964"><ele>15.0</ele><time>2026-05-02T15:47:29.628Z</time></trkpt><trkpt lat="37.2269011" lon="9.698279"><ele>15.0</ele><time>2026-05-02T15:47:30.622Z</time></trkpt><trkpt lat="37.2269466" lon="9.698462"><ele>15.0</ele><time>2026-05-02T15:47:31.616Z</time></trkpt><trkpt lat="37.2269839" lon="9.6986544"><ele>15.0</ele><time>2026-05-02T15:47:32.608Z</time></trkpt><trkpt lat="37.2270214" lon="9.6988427"><ele>15.0</ele><time>2026-05-02T15:47:33.613Z</time></trkpt><trkpt lat="37.2270531" lon="9.6990365"><ele>15.0</ele><time>2026-05-02T15:47:34.626Z</time></trkpt><trkpt lat="37.2270927" lon="9.6992281"><ele>14.666666666666668</ele><time>2026-05-02T15:47:35.588Z</time></trkpt><trkpt lat="37.2271443" lon="9.6994278"><ele>14.333333333333334</ele><time>2026-05-02T15:47:36.63Z</time></trkpt><trkpt lat="37.2272049" lon="9.6996209"><ele>14.0</ele><time>2026-05-02T15:47:37.612Z</time></trkpt><trkpt lat="37.2272767" lon="9.6997997"><ele>14.0</ele><time>2026-05-02T15:47:38.608Z</time></trkpt><trkpt lat="37.2273648" lon="9.6999769"><ele>14.0</ele><time>2026-05-02T15:47:39.62Z</time></trkpt><trkpt lat="37.2274591" lon="9.7001439"><ele>14.0</ele><time>2026-05-02T15:47:40.613Z</time></trkpt><trkpt lat="37.2275601" lon="9.7003034"><ele>14.0</ele><time>2026-05-02T15:47:41.621Z</time></trkpt><trkpt lat="37.227675" lon="9.7004463"><ele>14.0</ele><time>2026-05-02T15:47:42.61Z</time></trkpt><trkpt lat="37.2278101" lon="9.700577"><ele>14.0</ele><time>2026-05-02T15:47:43.624Z</time></trkpt><trkpt lat="37.2279498" lon="9.7006829"><ele>14.0</ele><time>2026-05-02T15:47:44.642Z</time></trkpt><trkpt lat="37.2280934" lon="9.7007818"><ele>14.0</ele><time>2026-05-02T15:47:45.634Z</time></trkpt><trkpt lat="37.2282431" lon="9.7008634"><ele>14.0</ele><time>2026-05-02T15:47:46.613Z</time></trkpt><trkpt lat="37.2283982" lon="9.7009457"><ele>14.666666666666668</ele><time>2026-05-02T15:47:47.615Z</time></trkpt><trkpt lat="37.228559" lon="9.7010121"><ele>15.333333333333332</ele><time>2026-05-02T15:47:48.606Z</time></trkpt><trkpt lat="37.2287236" lon="9.7010747"><ele>16.0</ele><time>2026-05-02T15:47:49.6Z</time></trkpt><trkpt lat="37.2288878" lon="9.7011365"><ele>15.0</ele><time>2026-05-02T15:47:50.613Z</time></trkpt><trkpt lat="37.2290487" lon="9.701203"><ele>14.0</ele><time>2026-05-02T15:47:51.626Z</time></trkpt><trkpt lat="37.2292087" lon="9.7012724"><ele>13.0</ele><time>2026-05-02T15:47:52.614Z</time></trkpt><trkpt lat="37.229369" lon="9.7013481"><ele>13.0</ele><time>2026-05-02T15:47:53.614Z</time></trkpt><trkpt lat="37.2295257" lon="9.7014331"><ele>13.0</ele><time>2026-05-02T15:47:54.611Z</time></trkpt><trkpt lat="37.2296806" lon="9.701527"><ele>13.0</ele><time>2026-05-02T15:47:55.612Z</time></trkpt><trkpt lat="37.2298348" lon="9.7016217"><ele>13.666666666666666</ele><time>2026-05-02T15:47:56.618Z</time></trkpt><trkpt lat="37.2299934" lon="9.7017267"><ele>14.333333333333332</ele><time>2026-05-02T15:47:57.606Z</time></trkpt><trkpt lat="37.2301515" lon="9.7018388"><ele>15.0</ele><time>2026-05-02T15:47:58.618Z</time></trkpt><trkpt lat="37.2303083" lon="9.7019547"><ele>14.333333333333332</ele><time>2026-05-02T15:47:59.622Z</time></trkpt><trkpt lat="37.2304621" lon="9.7020633"><ele>13.666666666666666</ele><time>2026-05-02T15:48:00.617Z</time></trkpt><trkpt lat="37.2306188" lon="9.7021709"><ele>13.0</ele><time>2026-05-02T15:48:01.622Z</time></trkpt><trkpt lat="37.2307795" lon="9.7022786"><ele>13.0</ele><time>2026-05-02T15:48:02.613Z</time></trkpt><trkpt lat="37.2309445" lon="9.702385"><ele>13.0</ele><time>2026-05-02T15:48:03.633Z</time></trkpt><trkpt lat="37.2311147" lon="9.7024827"><ele>13.0</ele><time>2026-05-02T15:48:04.627Z</time></trkpt><trkpt lat="37.2312913" lon="9.7025721"><ele>13.0</ele><time>2026-05-02T15:48:05.609Z</time></trkpt><trkpt lat="37.2314713" lon="9.7026614"><ele>13.0</ele><time>2026-05-02T15:48:06.616Z</time></trkpt><trkpt lat="37.2316531" lon="9.7027528"><ele>13.0</ele><time>2026-05-02T15:48:07.614Z</time></trkpt><trkpt lat="37.2318273" lon="9.702849"><ele>12.666666666666666</ele><time>2026-05-02T15:48:08.618Z</time></trkpt><trkpt lat="37.2320044" lon="9.7029474"><ele>12.333333333333332</ele><time>2026-05-02T15:48:09.622Z</time></trkpt><trkpt lat="37.232174" lon="9.7030563"><ele>12.0</ele><time>2026-05-02T15:48:10.627Z</time></trkpt><trkpt lat="37.2323242" lon="9.7031683"><ele>13.0</ele><time>2026-05-02T15:48:11.619Z</time></trkpt><trkpt lat="37.2324648" lon="9.703281"><ele>14.0</ele><time>2026-05-02T15:48:12.622Z</time></trkpt><trkpt lat="37.2325946" lon="9.7033927"><ele>15.0</ele><time>2026-05-02T15:48:13.602Z</time></trkpt><trkpt lat="37.2327091" lon="9.703511"><ele>14.75</ele><time>2026-05-02T15:48:14.614Z</time></trkpt><trkpt lat="37.2328035" lon="9.7036434"><ele>14.5</ele><time>2026-05-02T15:48:15.616Z</time></trkpt><trkpt lat="37.2328774" lon="9.7038027"><ele>14.25</ele><time>2026-05-02T15:48:16.661Z</time></trkpt><trkpt lat="37.2329382" lon="9.7039829"><ele>14.0</ele><time>2026-05-02T15:48:17.629Z</time></trkpt><trkpt lat="37.2329761" lon="9.7041678"><ele>14.0</ele><time>2026-05-02T15:48:18.59Z</time></trkpt><trkpt lat="37.2329986" lon="9.704361"><ele>14.0</ele><time>2026-05-02T15:48:19.606Z</time></trkpt><trkpt lat="37.2330059" lon="9.7045612"><ele>14.0</ele><time>2026-05-02T15:48:20.619Z</time></trkpt><trkpt lat="37.2329944" lon="9.7047627"><ele>14.333333333333334</ele><time>2026-05-02T15:48:21.614Z</time></trkpt><trkpt lat="37.232955" lon="9.7049685"><ele>14.666666666666668</ele><time>2026-05-02T15:48:22.618Z</time></trkpt><trkpt lat="37.232906" lon="9.7051646"><ele>15.0</ele><time>2026-05-02T15:48:23.623Z</time></trkpt><trkpt lat="37.2328549" lon="9.7053452"><ele>15.666666666666668</ele><time>2026-05-02T15:48:24.613Z</time></trkpt><trkpt lat="37.2328065" lon="9.7055283"><ele>16.333333333333336</ele><time>2026-05-02T15:48:25.615Z</time></trkpt><trkpt lat="37.2327714" lon="9.7057188"><ele>17.0</ele><time>2026-05-02T15:48:26.62Z</time></trkpt><trkpt lat="37.2327581" lon="9.705913"><ele>16.666666666666668</ele><time>2026-05-02T15:48:27.614Z</time></trkpt><trkpt lat="37.2327715" lon="9.706111"><ele>16.333333333333332</ele><time>2026-05-02T15:48:28.609Z</time></trkpt><trkpt lat="37.2328169" lon="9.7063005"><ele>16.0</ele><time>2026-05-02T15:48:29.622Z</time></trkpt><trkpt lat="37.2328872" lon="9.7064908"><ele>16.0</ele><time>2026-05-02T15:48:30.612Z</time></trkpt><trkpt lat="37.2329943" lon="9.7067019"><ele>16.0</ele><time>2026-05-02T15:48:31.641Z</time></trkpt><trkpt lat="37.2331205" lon="9.7068931"><ele>16.0</ele><time>2026-05-02T15:48:32.632Z</time></trkpt><trkpt lat="37.2332662" lon="9.7070913"><ele>16.0</ele><time>2026-05-02T15:48:33.623Z</time></trkpt><trkpt lat="37.2334311" lon="9.7072857"><ele>16.0</ele><time>2026-05-02T15:48:34.617Z</time></trkpt><trkpt lat="37.2335923" lon="9.7074779"><ele>16.0</ele><time>2026-05-02T15:48:35.611Z</time></trkpt><trkpt lat="37.2337469" lon="9.7076622"><ele>15.666666666666666</ele><time>2026-05-02T15:48:36.612Z</time></trkpt><trkpt lat="37.2339022" lon="9.7078443"><ele>15.333333333333332</ele><time>2026-05-02T15:48:37.605Z</time></trkpt><trkpt lat="37.2340507" lon="9.7080213"><ele>15.0</ele><time>2026-05-02T15:48:38.601Z</time></trkpt><trkpt lat="37.2341919" lon="9.7081913"><ele>15.666666666666668</ele><time>2026-05-02T15:48:39.636Z</time></trkpt><trkpt lat="37.23433" lon="9.708359"><ele>16.333333333333336</ele><time>2026-05-02T15:48:40.625Z</time></trkpt><trkpt lat="37.2344703" lon="9.7085246"><ele>17.0</ele><time>2026-05-02T15:48:41.62Z</time></trkpt><trkpt lat="37.2346191" lon="9.7086825"><ele>17.0</ele><time>2026-05-02T15:48:42.625Z</time></trkpt><trkpt lat="37.2347711" lon="9.7088316"><ele>17.0</ele><time>2026-05-02T15:48:43.61Z</time></trkpt><trkpt lat="37.2349225" lon="9.7089673"><ele>17.0</ele><time>2026-05-02T15:48:44.609Z</time></trkpt><trkpt lat="37.235074" lon="9.7090994"><ele>17.333333333333336</ele><time>2026-05-02T15:48:45.62Z</time></trkpt><trkpt lat="37.2352177" lon="9.7092361"><ele>17.666666666666668</ele><time>2026-05-02T15:48:46.613Z</time></trkpt><trkpt lat="37.2353631" lon="9.7093608"><ele>18.0</ele><time>2026-05-02T15:48:47.613Z</time></trkpt><trkpt lat="37.2355082" lon="9.7094866"><ele>17.0</ele><time>2026-05-02T15:48:48.607Z</time></trkpt><trkpt lat="37.2356518" lon="9.7096062"><ele>16.0</ele><time>2026-05-02T15:48:49.612Z</time></trkpt><trkpt lat="37.2357964" lon="9.7097106"><ele>15.0</ele><time>2026-05-02T15:48:50.612Z</time></trkpt><trkpt lat="37.2359509" lon="9.7098118"><ele>15.0</ele><time>2026-05-02T15:48:51.624Z</time></trkpt><trkpt lat="37.2361118" lon="9.709894"><ele>15.0</ele><time>2026-05-02T15:48:52.612Z</time></trkpt><trkpt lat="37.2362765" lon="9.7099649"><ele>15.0</ele><time>2026-05-02T15:48:53.621Z</time></trkpt><trkpt lat="37.236447" lon="9.7100286"><ele>14.666666666666668</ele><time>2026-05-02T15:48:54.615Z</time></trkpt><trkpt lat="37.2366208" lon="9.7100852"><ele>14.333333333333334</ele><time>2026-05-02T15:48:55.611Z</time></trkpt><trkpt lat="37.2367969" lon="9.7101376"><ele>14.0</ele><time>2026-05-02T15:48:56.611Z</time></trkpt><trkpt lat="37.2369714" lon="9.710185"><ele>14.0</ele><time>2026-05-02T15:48:57.613Z</time></trkpt><trkpt lat="37.2371462" lon="9.7102305"><ele>14.0</ele><time>2026-05-02T15:48:58.62Z</time></trkpt><trkpt lat="37.2373139" lon="9.7102797"><ele>14.0</ele><time>2026-05-02T15:48:59.609Z</time></trkpt><trkpt lat="37.237486" lon="9.7103272"><ele>13.333333333333334</ele><time>2026-05-02T15:49:00.619Z</time></trkpt><trkpt lat="37.2376559" lon="9.7103728"><ele>12.666666666666668</ele><time>2026-05-02T15:49:01.621Z</time></trkpt><trkpt lat="37.2378279" lon="9.7104172"><ele>12.0</ele><time>2026-05-02T15:49:02.615Z</time></trkpt><trkpt lat="37.2380016" lon="9.7104647"><ele>11.666666666666666</ele><time>2026-05-02T15:49:03.613Z</time></trkpt><trkpt lat="37.2381781" lon="9.7105159"><ele>11.333333333333332</ele><time>2026-05-02T15:49:04.623Z</time></trkpt><trkpt lat="37.2383531" lon="9.7105615"><ele>11.0</ele><time>2026-05-02T15:49:05.618Z</time></trkpt><trkpt lat="37.2385296" lon="9.7106087"><ele>11.0</ele><time>2026-05-02T15:49:06.613Z</time></trkpt><trkpt lat="37.2387065" lon="9.7106574"><ele>11.0</ele><time>2026-05-02T15:49:07.613Z</time></trkpt><trkpt lat="37.2388841" lon="9.7107083"><ele>11.0</ele><time>2026-05-02T15:49:08.616Z</time></trkpt><trkpt lat="37.2390632" lon="9.7107592"><ele>11.333333333333332</ele><time>2026-05-02T15:49:09.622Z</time></trkpt><trkpt lat="37.2392402" lon="9.7108071"><ele>11.666666666666666</ele><time>2026-05-02T15:49:10.619Z</time></trkpt><trkpt lat="37.239417" lon="9.7108568"><ele>12.0</ele><time>2026-05-02T15:49:11.618Z</time></trkpt><trkpt lat="37.2395995" lon="9.7109054"><ele>12.0</ele><time>2026-05-02T15:49:12.617Z</time></trkpt><trkpt lat="37.2397846" lon="9.7109617"><ele>12.0</ele><time>2026-05-02T15:49:13.621Z</time></trkpt><trkpt lat="37.2399646" lon="9.7110349"><ele>12.0</ele><time>2026-05-02T15:49:14.614Z</time></trkpt><trkpt lat="37.2401389" lon="9.7111169"><ele>12.0</ele><time>2026-05-02T15:49:15.654Z</time></trkpt><trkpt lat="37.2403094" lon="9.7112035"><ele>12.0</ele><time>2026-05-02T15:49:16.621Z</time></trkpt><trkpt lat="37.2404743" lon="9.7112929"><ele>12.0</ele><time>2026-05-02T15:49:17.62Z</time></trkpt><trkpt lat="37.2406405" lon="9.711383"><ele>11.666666666666666</ele><time>2026-05-02T15:49:18.617Z</time></trkpt><trkpt lat="37.2408053" lon="9.7114676"><ele>11.333333333333332</ele><time>2026-05-02T15:49:19.614Z</time></trkpt><trkpt lat="37.2409578" lon="9.7115531"><ele>11.0</ele><time>2026-05-02T15:49:20.619Z</time></trkpt><trkpt lat="37.2411045" lon="9.711631"><ele>11.0</ele><time>2026-05-02T15:49:21.62Z</time></trkpt><trkpt lat="37.2412396" lon="9.7117001"><ele>11.0</ele><time>2026-05-02T15:49:22.605Z</time></trkpt><trkpt lat="37.2413684" lon="9.7117669"><ele>11.0</ele><time>2026-05-02T15:49:23.634Z</time></trkpt><trkpt lat="37.2414863" lon="9.7118376"><ele>11.0</ele><time>2026-05-02T15:49:24.615Z</time></trkpt><trkpt lat="37.2416015" lon="9.7119065"><ele>10.75</ele><time>2026-05-02T15:49:25.61Z</time></trkpt><trkpt lat="37.2417143" lon="9.7119626"><ele>10.5</ele><time>2026-05-02T15:49:26.606Z</time></trkpt><trkpt lat="37.2418279" lon="9.712016"><ele>10.25</ele><time>2026-05-02T15:49:27.607Z</time></trkpt><trkpt lat="37.2419264" lon="9.7120752"><ele>10.0</ele><time>2026-05-02T15:49:28.609Z</time></trkpt><trkpt lat="37.2420133" lon="9.7121631"><ele>10.0</ele><time>2026-05-02T15:49:29.61Z</time></trkpt><trkpt lat="37.2420952" lon="9.7122557"><ele>10.0</ele><time>2026-05-02T15:49:30.623Z</time></trkpt><trkpt lat="37.2421648" lon="9.7123647"><ele>10.0</ele><time>2026-05-02T15:49:31.605Z</time></trkpt><trkpt lat="37.2422151" lon="9.7124987"><ele>10.0</ele><time>2026-05-02T15:49:32.609Z</time></trkpt><trkpt lat="37.2422394" lon="9.7126477"><ele>9.75</ele><time>2026-05-02T15:49:33.618Z</time></trkpt><trkpt lat="37.2422423" lon="9.7127955"><ele>9.5</ele><time>2026-05-02T15:49:34.624Z</time></trkpt><trkpt lat="37.2422156" lon="9.7129551"><ele>9.25</ele><time>2026-05-02T15:49:35.712Z</time></trkpt><trkpt lat="37.2421832" lon="9.7131302"><ele>9.0</ele><time>2026-05-02T15:49:36.623Z</time></trkpt><trkpt lat="37.2421443" lon="9.7133216"><ele>9.0</ele><time>2026-05-02T15:49:37.625Z</time></trkpt><trkpt lat="37.2420983" lon="9.713521"><ele>9.0</ele><time>2026-05-02T15:49:38.613Z</time></trkpt><trkpt lat="37.2420558" lon="9.7137269"><ele>9.0</ele><time>2026-05-02T15:49:39.609Z</time></trkpt><trkpt lat="37.2420107" lon="9.7139347"><ele>9.666666666666666</ele><time>2026-05-02T15:49:40.627Z</time></trkpt><trkpt lat="37.2419709" lon="9.7141396"><ele>10.333333333333332</ele><time>2026-05-02T15:49:41.613Z</time></trkpt><trkpt lat="37.2419346" lon="9.714348"><ele>11.0</ele><time>2026-05-02T15:49:42.616Z</time></trkpt><trkpt lat="37.241905" lon="9.7145501"><ele>11.0</ele><time>2026-05-02T15:49:43.624Z</time></trkpt><trkpt lat="37.2418901" lon="9.7147404"><ele>11.0</ele><time>2026-05-02T15:49:44.619Z</time></trkpt><trkpt lat="37.2418821" lon="9.7149251"><ele>11.0</ele><time>2026-05-02T15:49:45.628Z</time></trkpt><trkpt lat="37.2418921" lon="9.7151022"><ele>11.0</ele><time>2026-05-02T15:49:46.616Z</time></trkpt><trkpt lat="37.2419063" lon="9.7152786"><ele>11.0</ele><time>2026-05-02T15:49:47.618Z</time></trkpt><trkpt lat="37.2419354" lon="9.7154539"><ele>11.0</ele><time>2026-05-02T15:49:48.624Z</time></trkpt><trkpt lat="37.2419896" lon="9.7156354"><ele>11.0</ele><time>2026-05-02T15:49:49.619Z</time></trkpt><trkpt lat="37.2420712" lon="9.7158195"><ele>11.0</ele><time>2026-05-02T15:49:50.617Z</time></trkpt><trkpt lat="37.2421788" lon="9.7160087"><ele>11.0</ele><time>2026-05-02T15:49:51.619Z</time></trkpt><trkpt lat="37.2422868" lon="9.7162292"><ele>11.0</ele><time>2026-05-02T15:49:52.624Z</time></trkpt><trkpt lat="37.2423937" lon="9.7164464"><ele>11.0</ele><time>2026-05-02T15:49:53.622Z</time></trkpt><trkpt lat="37.2424922" lon="9.7166658"><ele>11.0</ele><time>2026-05-02T15:49:54.676Z</time></trkpt><trkpt lat="37.242574" lon="9.7168839"><ele>11.0</ele><time>2026-05-02T15:49:55.615Z</time></trkpt><trkpt lat="37.2426447" lon="9.7171154"><ele>11.0</ele><time>2026-05-02T15:49:56.627Z</time></trkpt><trkpt lat="37.2427007" lon="9.7173584"><ele>11.0</ele><time>2026-05-02T15:49:57.63Z</time></trkpt><trkpt lat="37.2427365" lon="9.7176037"><ele>11.0</ele><time>2026-05-02T15:49:58.617Z</time></trkpt><trkpt lat="37.2427688" lon="9.717846"><ele>11.0</ele><time>2026-05-02T15:49:59.628Z</time></trkpt><trkpt lat="37.2427843" lon="9.7180866"><ele>11.0</ele><time>2026-05-02T15:50:00.628Z</time></trkpt><trkpt lat="37.242779" lon="9.7183238"><ele>11.0</ele><time>2026-05-02T15:50:01.625Z</time></trkpt><trkpt lat="37.2427583" lon="9.7185654"><ele>11.333333333333332</ele><time>2026-05-02T15:50:02.614Z</time></trkpt><trkpt lat="37.2427178" lon="9.7187922"><ele>11.666666666666666</ele><time>2026-05-02T15:50:03.621Z</time></trkpt><trkpt lat="37.2426548" lon="9.7190169"><ele>12.0</ele><time>2026-05-02T15:50:04.623Z</time></trkpt><trkpt lat="37.2425647" lon="9.7192424"><ele>13.0</ele><time>2026-05-02T15:50:05.626Z</time></trkpt><trkpt lat="37.2424727" lon="9.719457"><ele>14.0</ele><time>2026-05-02T15:50:06.602Z</time></trkpt><trkpt lat="37.2423708" lon="9.7196771"><ele>15.0</ele><time>2026-05-02T15:50:07.626Z</time></trkpt><trkpt lat="37.2422592" lon="9.7198983"><ele>14.0</ele><time>2026-05-02T15:50:08.616Z</time></trkpt><trkpt lat="37.2421476" lon="9.7201205"><ele>13.0</ele><time>2026-05-02T15:50:09.619Z</time></trkpt><trkpt lat="37.2420437" lon="9.7203463"><ele>12.0</ele><time>2026-05-02T15:50:10.614Z</time></trkpt><trkpt lat="37.2419549" lon="9.7205648"><ele>12.0</ele><time>2026-05-02T15:50:11.619Z</time></trkpt><trkpt lat="37.2418758" lon="9.720799"><ele>12.0</ele><time>2026-05-02T15:50:12.64Z</time></trkpt><trkpt lat="37.2418121" lon="9.7210314"><ele>12.0</ele><time>2026-05-02T15:50:13.603Z</time></trkpt><trkpt lat="37.2417561" lon="9.7212649"><ele>11.666666666666666</ele><time>2026-05-02T15:50:14.595Z</time></trkpt><trkpt lat="37.2417059" lon="9.721499"><ele>11.333333333333332</ele><time>2026-05-02T15:50:15.597Z</time></trkpt><trkpt lat="37.2416572" lon="9.7217195"><ele>11.0</ele><time>2026-05-02T15:50:16.609Z</time></trkpt><trkpt lat="37.2416145" lon="9.7219292"><ele>11.0</ele><time>2026-05-02T15:50:17.606Z</time></trkpt><trkpt lat="37.2415727" lon="9.7221266"><ele>11.0</ele><time>2026-05-02T15:50:18.615Z</time></trkpt><trkpt lat="37.2415297" lon="9.7223198"><ele>11.0</ele><time>2026-05-02T15:50:19.616Z</time></trkpt><trkpt lat="37.2414898" lon="9.7225185"><ele>10.333333333333332</ele><time>2026-05-02T15:50:20.619Z</time></trkpt><trkpt lat="37.2414491" lon="9.7227155"><ele>9.666666666666666</ele><time>2026-05-02T15:50:21.615Z</time></trkpt><trkpt lat="37.2414087" lon="9.7229073"><ele>9.0</ele><time>2026-05-02T15:50:22.633Z</time></trkpt><trkpt lat="37.2413698" lon="9.7230933"><ele>9.0</ele><time>2026-05-02T15:50:23.618Z</time></trkpt><trkpt lat="37.2413331" lon="9.7232803"><ele>9.0</ele><time>2026-05-02T15:50:24.612Z</time></trkpt><trkpt lat="37.241294" lon="9.7234695"><ele>9.0</ele><time>2026-05-02T15:50:25.619Z</time></trkpt><trkpt lat="37.2412534" lon="9.7236539"><ele>9.666666666666666</ele><time>2026-05-02T15:50:26.618Z</time></trkpt><trkpt lat="37.2412116" lon="9.7238391"><ele>10.333333333333332</ele><time>2026-05-02T15:50:27.618Z</time></trkpt><trkpt lat="37.241171" lon="9.7240311"><ele>11.0</ele><time>2026-05-02T15:50:28.634Z</time></trkpt><trkpt lat="37.2411276" lon="9.7242216"><ele>11.333333333333332</ele><time>2026-05-02T15:50:29.627Z</time></trkpt><trkpt lat="37.2410866" lon="9.7244174"><ele>11.666666666666666</ele><time>2026-05-02T15:50:30.622Z</time></trkpt><trkpt lat="37.2410448" lon="9.7246064"><ele>12.0</ele><time>2026-05-02T15:50:31.618Z</time></trkpt><trkpt lat="37.2410048" lon="9.7248022"><ele>12.0</ele><time>2026-05-02T15:50:32.606Z</time></trkpt><trkpt lat="37.2409657" lon="9.7250004"><ele>12.0</ele><time>2026-05-02T15:50:33.614Z</time></trkpt><trkpt lat="37.2409229" lon="9.7251937"><ele>12.0</ele><time>2026-05-02T15:50:34.621Z</time></trkpt><trkpt lat="37.2408806" lon="9.725383"><ele>12.0</ele><time>2026-05-02T15:50:35.627Z</time></trkpt><trkpt lat="37.2408393" lon="9.7255703"><ele>12.0</ele><time>2026-05-02T15:50:36.63Z</time></trkpt><trkpt lat="37.2408008" lon="9.7257579"><ele>12.0</ele><time>2026-05-02T15:50:37.619Z</time></trkpt><trkpt lat="37.2407646" lon="9.7259421"><ele>13.0</ele><time>2026-05-02T15:50:38.61Z</time></trkpt><trkpt lat="37.2407253" lon="9.7261229"><ele>14.0</ele><time>2026-05-02T15:50:39.616Z</time></trkpt><trkpt lat="37.2406845" lon="9.7263072"><ele>15.0</ele><time>2026-05-02T15:50:40.609Z</time></trkpt><trkpt lat="37.2406425" lon="9.7265004"><ele>13.666666666666666</ele><time>2026-05-02T15:50:41.635Z</time></trkpt><trkpt lat="37.240604" lon="9.7266962"><ele>12.333333333333332</ele><time>2026-05-02T15:50:42.616Z</time></trkpt><trkpt lat="37.2405658" lon="9.7269028"><ele>11.0</ele><time>2026-05-02T15:50:43.618Z</time></trkpt><trkpt lat="37.2405278" lon="9.7271098"><ele>11.0</ele><time>2026-05-02T15:50:44.61Z</time></trkpt><trkpt lat="37.2404945" lon="9.7273142"><ele>11.0</ele><time>2026-05-02T15:50:45.617Z</time></trkpt><trkpt lat="37.240467" lon="9.7275211"><ele>11.0</ele><time>2026-05-02T15:50:46.608Z</time></trkpt><trkpt lat="37.2404453" lon="9.727723"><ele>11.333333333333332</ele><time>2026-05-02T15:50:47.61Z</time></trkpt><trkpt lat="37.2404259" lon="9.7279235"><ele>11.666666666666666</ele><time>2026-05-02T15:50:48.616Z</time></trkpt><trkpt lat="37.2404075" lon="9.7281175"><ele>12.0</ele><time>2026-05-02T15:50:49.627Z</time></trkpt><trkpt lat="37.2403895" lon="9.7283058"><ele>12.0</ele><time>2026-05-02T15:50:50.606Z</time></trkpt><trkpt lat="37.2403778" lon="9.728492"><ele>12.0</ele><time>2026-05-02T15:50:51.617Z</time></trkpt><trkpt lat="37.2403632" lon="9.7286773"><ele>12.0</ele><time>2026-05-02T15:50:52.611Z</time></trkpt><trkpt lat="37.2403476" lon="9.7288605"><ele>12.0</ele><time>2026-05-02T15:50:53.621Z</time></trkpt><trkpt lat="37.2403305" lon="9.7290295"><ele>12.25</ele><time>2026-05-02T15:50:54.622Z</time></trkpt><trkpt lat="37.240317" lon="9.7292013"><ele>12.5</ele><time>2026-05-02T15:50:55.615Z</time></trkpt><trkpt lat="37.2403018" lon="9.7293794"><ele>12.75</ele><time>2026-05-02T15:50:56.615Z</time></trkpt><trkpt lat="37.2402853" lon="9.7295604"><ele>13.0</ele><time>2026-05-02T15:50:57.618Z</time></trkpt><trkpt lat="37.2402706" lon="9.7297436"><ele>13.0</ele><time>2026-05-02T15:50:58.614Z</time></trkpt><trkpt lat="37.2402508" lon="9.7299347"><ele>13.0</ele><time>2026-05-02T15:50:59.617Z</time></trkpt><trkpt lat="37.2402324" lon="9.7301322"><ele>13.0</ele><time>2026-05-02T15:51:00.619Z</time></trkpt><trkpt lat="37.2402174" lon="9.7303315"><ele>13.0</ele><time>2026-05-02T15:51:01.625Z</time></trkpt><trkpt lat="37.2402082" lon="9.7305332"><ele>13.0</ele><time>2026-05-02T15:51:02.616Z</time></trkpt><trkpt lat="37.2402046" lon="9.7307351"><ele>13.0</ele><time>2026-05-02T15:51:03.618Z</time></trkpt><trkpt lat="37.2402091" lon="9.7309404"><ele>13.666666666666666</ele><time>2026-05-02T15:51:04.625Z</time></trkpt><trkpt lat="37.2402192" lon="9.7311499"><ele>14.333333333333332</ele><time>2026-05-02T15:51:05.616Z</time></trkpt><trkpt lat="37.2402442" lon="9.7313582"><ele>15.0</ele><time>2026-05-02T15:51:06.659Z</time></trkpt><trkpt lat="37.2402815" lon="9.7315681"><ele>15.0</ele><time>2026-05-02T15:51:07.623Z</time></trkpt><trkpt lat="37.2403261" lon="9.7317823"><ele>15.0</ele><time>2026-05-02T15:51:08.617Z</time></trkpt><trkpt lat="37.2403762" lon="9.7320046"><ele>15.0</ele><time>2026-05-02T15:51:09.609Z</time></trkpt><trkpt lat="37.2404274" lon="9.732223"><ele>15.0</ele><time>2026-05-02T15:51:10.619Z</time></trkpt><trkpt lat="37.2404813" lon="9.7324434"><ele>15.0</ele><time>2026-05-02T15:51:11.621Z</time></trkpt><trkpt lat="37.2405358" lon="9.7326648"><ele>15.0</ele><time>2026-05-02T15:51:12.607Z</time></trkpt><trkpt lat="37.2405916" lon="9.7328846"><ele>15.0</ele><time>2026-05-02T15:51:13.618Z</time></trkpt><trkpt lat="37.2406426" lon="9.7331041"><ele>15.0</ele><time>2026-05-02T15:51:14.618Z</time></trkpt><trkpt lat="37.2406907" lon="9.7333188"><ele>15.0</ele><time>2026-05-02T15:51:15.611Z</time></trkpt><trkpt lat="37.2407441" lon="9.7335297"><ele>15.0</ele><time>2026-05-02T15:51:16.607Z</time></trkpt><trkpt lat="37.2407953" lon="9.7337347"><ele>15.0</ele><time>2026-05-02T15:51:17.624Z</time></trkpt><trkpt lat="37.2408462" lon="9.7339409"><ele>15.0</ele><time>2026-05-02T15:51:18.606Z</time></trkpt><trkpt lat="37.2408901" lon="9.7341373"><ele>15.0</ele><time>2026-05-02T15:51:19.613Z</time></trkpt><trkpt lat="37.2409357" lon="9.7343204"><ele>15.0</ele><time>2026-05-02T15:51:20.617Z</time></trkpt><trkpt lat="37.2409809" lon="9.7345036"><ele>15.0</ele><time>2026-05-02T15:51:21.616Z</time></trkpt><trkpt lat="37.2410258" lon="9.7346884"><ele>14.666666666666668</ele><time>2026-05-02T15:51:22.611Z</time></trkpt><trkpt lat="37.2410698" lon="9.7348749"><ele>14.333333333333334</ele><time>2026-05-02T15:51:23.619Z</time></trkpt><trkpt lat="37.2411141" lon="9.7350577"><ele>14.0</ele><time>2026-05-02T15:51:24.612Z</time></trkpt><trkpt lat="37.241158" lon="9.7352374"><ele>13.75</ele><time>2026-05-02T15:51:25.614Z</time></trkpt><trkpt lat="37.2412011" lon="9.735423"><ele>13.5</ele><time>2026-05-02T15:51:26.619Z</time></trkpt><trkpt lat="37.2412411" lon="9.7355939"><ele>13.25</ele><time>2026-05-02T15:51:27.619Z</time></trkpt><trkpt lat="37.241283" lon="9.7357739"><ele>13.0</ele><time>2026-05-02T15:51:28.618Z</time></trkpt><trkpt lat="37.2413241" lon="9.7359548"><ele>13.666666666666666</ele><time>2026-05-02T15:51:29.617Z</time></trkpt><trkpt lat="37.2413682" lon="9.7361372"><ele>14.333333333333332</ele><time>2026-05-02T15:51:30.613Z</time></trkpt><trkpt lat="37.2414074" lon="9.736321"><ele>15.0</ele><time>2026-05-02T15:51:31.605Z</time></trkpt><trkpt lat="37.2414505" lon="9.7365082"><ele>15.0</ele><time>2026-05-02T15:51:32.611Z</time></trkpt><trkpt lat="37.241497" lon="9.7366903"><ele>15.0</ele><time>2026-05-02T15:51:33.617Z</time></trkpt><trkpt lat="37.2415467" lon="9.7368806"><ele>15.0</ele><time>2026-05-02T15:51:34.614Z</time></trkpt><trkpt lat="37.2415924" lon="9.7370694"><ele>15.333333333333332</ele><time>2026-05-02T15:51:35.615Z</time></trkpt><trkpt lat="37.2416391" lon="9.737254"><ele>15.666666666666666</ele><time>2026-05-02T15:51:36.609Z</time></trkpt><trkpt lat="37.2416845" lon="9.7374411"><ele>16.0</ele><time>2026-05-02T15:51:37.613Z</time></trkpt><trkpt lat="37.2417308" lon="9.7376267"><ele>16.0</ele><time>2026-05-02T15:51:38.628Z</time></trkpt><trkpt lat="37.2417724" lon="9.7378141"><ele>16.0</ele><time>2026-05-02T15:51:39.616Z</time></trkpt><trkpt lat="37.2418154" lon="9.7379981"><ele>16.0</ele><time>2026-05-02T15:51:40.618Z</time></trkpt><trkpt lat="37.2418591" lon="9.7381825"><ele>16.0</ele><time>2026-05-02T15:51:41.607Z</time></trkpt><trkpt lat="37.2419032" lon="9.7383601"><ele>16.0</ele><time>2026-05-02T15:51:42.62Z</time></trkpt><trkpt lat="37.2419465" lon="9.738536"><ele>16.0</ele><time>2026-05-02T15:51:43.611Z</time></trkpt><trkpt lat="37.2419925" lon="9.7387104"><ele>16.0</ele><time>2026-05-02T15:51:44.605Z</time></trkpt><trkpt lat="37.2420369" lon="9.7388867"><ele>15.666666666666666</ele><time>2026-05-02T15:51:45.623Z</time></trkpt><trkpt lat="37.2420812" lon="9.7390698"><ele>15.333333333333332</ele><time>2026-05-02T15:51:46.616Z</time></trkpt><trkpt lat="37.2421224" lon="9.7392533"><ele>15.0</ele><time>2026-05-02T15:51:47.608Z</time></trkpt><trkpt lat="37.2421619" lon="9.7394345"><ele>14.75</ele><time>2026-05-02T15:51:48.617Z</time></trkpt><trkpt lat="37.2422019" lon="9.7396158"><ele>14.5</ele><time>2026-05-02T15:51:49.618Z</time></trkpt><trkpt lat="37.2422398" lon="9.7397945"><ele>14.25</ele><time>2026-05-02T15:51:50.608Z</time></trkpt><trkpt lat="37.2422816" lon="9.7399744"><ele>14.0</ele><time>2026-05-02T15:51:51.619Z</time></trkpt><trkpt lat="37.2423241" lon="9.7401548"><ele>15.25</ele><time>2026-05-02T15:51:52.609Z</time></trkpt><trkpt lat="37.2423661" lon="9.7403359"><ele>16.5</ele><time>2026-05-02T15:51:53.616Z</time></trkpt><trkpt lat="37.2424039" lon="9.7405147"><ele>17.75</ele><time>2026-05-02T15:51:54.612Z</time></trkpt><trkpt lat="37.2424479" lon="9.7406947"><ele>19.0</ele><time>2026-05-02T15:51:55.626Z</time></trkpt><trkpt lat="37.2424935" lon="9.7408849"><ele>18.333333333333332</ele><time>2026-05-02T15:51:56.608Z</time></trkpt><trkpt lat="37.2425437" lon="9.7410776"><ele>17.666666666666668</ele><time>2026-05-02T15:51:57.616Z</time></trkpt><trkpt lat="37.2425961" lon="9.7412704"><ele>17.0</ele><time>2026-05-02T15:51:58.607Z</time></trkpt><trkpt lat="37.2426516" lon="9.741467"><ele>17.0</ele><time>2026-05-02T15:51:59.613Z</time></trkpt><trkpt lat="37.242717" lon="9.7416627"><ele>17.0</ele><time>2026-05-02T15:52:00.623Z</time></trkpt><trkpt lat="37.2427816" lon="9.7418542"><ele>17.0</ele><time>2026-05-02T15:52:01.63Z</time></trkpt><trkpt lat="37.2428531" lon="9.7420317"><ele>16.333333333333336</ele><time>2026-05-02T15:52:02.612Z</time></trkpt><trkpt lat="37.2429309" lon="9.7422022"><ele>15.666666666666668</ele><time>2026-05-02T15:52:03.615Z</time></trkpt><trkpt lat="37.2430113" lon="9.7423672"><ele>15.0</ele><time>2026-05-02T15:52:04.623Z</time></trkpt><trkpt lat="37.2430979" lon="9.7425296"><ele>15.666666666666668</ele><time>2026-05-02T15:52:05.618Z</time></trkpt><trkpt lat="37.2431834" lon="9.742701"><ele>16.333333333333336</ele><time>2026-05-02T15:52:06.621Z</time></trkpt><trkpt lat="37.2432661" lon="9.7428779"><ele>17.0</ele><time>2026-05-02T15:52:07.612Z</time></trkpt><trkpt lat="37.2433509" lon="9.7430619"><ele>17.0</ele><time>2026-05-02T15:52:08.614Z</time></trkpt><trkpt lat="37.243441" lon="9.7432422"><ele>17.0</ele><time>2026-05-02T15:52:09.619Z</time></trkpt><trkpt lat="37.2435293" lon="9.7434174"><ele>17.0</ele><time>2026-05-02T15:52:10.613Z</time></trkpt><trkpt lat="37.2436112" lon="9.7435978"><ele>17.666666666666668</ele><time>2026-05-02T15:52:11.628Z</time></trkpt><trkpt lat="37.2436855" lon="9.7437774"><ele>18.333333333333332</ele><time>2026-05-02T15:52:12.626Z</time></trkpt><trkpt lat="37.2437593" lon="9.7439644"><ele>19.0</ele><time>2026-05-02T15:52:13.625Z</time></trkpt><trkpt lat="37.243834" lon="9.7441512"><ele>19.0</ele><time>2026-05-02T15:52:14.617Z</time></trkpt><trkpt lat="37.2439083" lon="9.7443394"><ele>19.0</ele><time>2026-05-02T15:52:15.608Z</time></trkpt><trkpt lat="37.2439873" lon="9.7445275"><ele>19.0</ele><time>2026-05-02T15:52:16.626Z</time></trkpt><trkpt lat="37.2440664" lon="9.7447083"><ele>19.0</ele><time>2026-05-02T15:52:17.612Z</time></trkpt><trkpt lat="37.2441498" lon="9.7448826"><ele>19.0</ele><time>2026-05-02T15:52:18.606Z</time></trkpt><trkpt lat="37.2442369" lon="9.7450586"><ele>19.0</ele><time>2026-05-02T15:52:19.617Z</time></trkpt><trkpt lat="37.2443218" lon="9.745233"><ele>20.666666666666664</ele><time>2026-05-02T15:52:20.606Z</time></trkpt><trkpt lat="37.2444047" lon="9.7454094"><ele>22.333333333333332</ele><time>2026-05-02T15:52:21.607Z</time></trkpt><trkpt lat="37.2444832" lon="9.7455863"><ele>24.0</ele><time>2026-05-02T15:52:22.6Z</time></trkpt><trkpt lat="37.2445645" lon="9.745769"><ele>24.0</ele><time>2026-05-02T15:52:23.62Z</time></trkpt><trkpt lat="37.2446464" lon="9.7459485"><ele>24.0</ele><time>2026-05-02T15:52:24.619Z</time></trkpt><trkpt lat="37.2447266" lon="9.7461223"><ele>24.0</ele><time>2026-05-02T15:52:25.608Z</time></trkpt><trkpt lat="37.2448036" lon="9.7462923"><ele>23.0</ele><time>2026-05-02T15:52:26.61Z</time></trkpt><trkpt lat="37.2448758" lon="9.7464699"><ele>22.0</ele><time>2026-05-02T15:52:27.609Z</time></trkpt><trkpt lat="37.2449416" lon="9.7466545"><ele>21.0</ele><time>2026-05-02T15:52:28.635Z</time></trkpt><trkpt lat="37.2450043" lon="9.7468448"><ele>21.333333333333332</ele><time>2026-05-02T15:52:29.652Z</time></trkpt><trkpt lat="37.245069" lon="9.7470318"><ele>21.666666666666664</ele><time>2026-05-02T15:52:30.607Z</time></trkpt><trkpt lat="37.2451321" lon="9.7472234"><ele>22.0</ele><time>2026-05-02T15:52:31.614Z</time></trkpt><trkpt lat="37.2451892" lon="9.7474139"><ele>22.0</ele><time>2026-05-02T15:52:32.612Z</time></trkpt><trkpt lat="37.2452455" lon="9.7476116"><ele>22.0</ele><time>2026-05-02T15:52:33.615Z</time></trkpt><trkpt lat="37.2452923" lon="9.7478132"><ele>22.0</ele><time>2026-05-02T15:52:34.619Z</time></trkpt><trkpt lat="37.2453304" lon="9.7480156"><ele>22.333333333333332</ele><time>2026-05-02T15:52:35.63Z</time></trkpt><trkpt lat="37.2453563" lon="9.7482327"><ele>22.666666666666668</ele><time>2026-05-02T15:52:36.625Z</time></trkpt><trkpt lat="37.2453664" lon="9.7484423"><ele>23.0</ele><time>2026-05-02T15:52:37.624Z</time></trkpt><trkpt lat="37.245364" lon="9.7486564"><ele>23.333333333333336</ele><time>2026-05-02T15:52:38.612Z</time></trkpt><trkpt lat="37.2453524" lon="9.7488726"><ele>23.666666666666668</ele><time>2026-05-02T15:52:39.618Z</time></trkpt><trkpt lat="37.2453328" lon="9.7490885"><ele>24.0</ele><time>2026-05-02T15:52:40.668Z</time></trkpt><trkpt lat="37.2453065" lon="9.7492998"><ele>24.0</ele><time>2026-05-02T15:52:41.612Z</time></trkpt><trkpt lat="37.2452786" lon="9.749518"><ele>24.0</ele><time>2026-05-02T15:52:42.615Z</time></trkpt><trkpt lat="37.245255" lon="9.7497316"><ele>24.0</ele><time>2026-05-02T15:52:43.617Z</time></trkpt><trkpt lat="37.2452315" lon="9.7499526"><ele>24.0</ele><time>2026-05-02T15:52:44.617Z</time></trkpt><trkpt lat="37.2452106" lon="9.7501666"><ele>24.0</ele><time>2026-05-02T15:52:45.618Z</time></trkpt><trkpt lat="37.2451855" lon="9.7503793"><ele>24.0</ele><time>2026-05-02T15:52:46.63Z</time></trkpt><trkpt lat="37.2451624" lon="9.7505888"><ele>24.333333333333336</ele><time>2026-05-02T15:52:47.612Z</time></trkpt><trkpt lat="37.2451411" lon="9.7507963"><ele>24.666666666666668</ele><time>2026-05-02T15:52:48.616Z</time></trkpt><trkpt lat="37.2451192" lon="9.7510008"><ele>25.0</ele><time>2026-05-02T15:52:49.612Z</time></trkpt><trkpt lat="37.2451004" lon="9.7512015"><ele>25.333333333333336</ele><time>2026-05-02T15:52:50.612Z</time></trkpt><trkpt lat="37.2450825" lon="9.7513982"><ele>25.666666666666664</ele><time>2026-05-02T15:52:51.615Z</time></trkpt><trkpt lat="37.2450597" lon="9.7515929"><ele>26.0</ele><time>2026-05-02T15:52:52.615Z</time></trkpt><trkpt lat="37.2450362" lon="9.7517883"><ele>26.0</ele><time>2026-05-02T15:52:53.627Z</time></trkpt><trkpt lat="37.2450179" lon="9.7519852"><ele>26.0</ele><time>2026-05-02T15:52:54.613Z</time></trkpt><trkpt lat="37.2450023" lon="9.7521778"><ele>26.0</ele><time>2026-05-02T15:52:55.616Z</time></trkpt><trkpt lat="37.2449883" lon="9.7523707"><ele>26.0</ele><time>2026-05-02T15:52:56.613Z</time></trkpt><trkpt lat="37.2449699" lon="9.7525567"><ele>26.0</ele><time>2026-05-02T15:52:57.622Z</time></trkpt><trkpt lat="37.244947" lon="9.7527463"><ele>26.0</ele><time>2026-05-02T15:52:58.619Z</time></trkpt><trkpt lat="37.244924" lon="9.7529421"><ele>26.0</ele><time>2026-05-02T15:52:59.607Z</time></trkpt><trkpt lat="37.2449013" lon="9.7531332"><ele>26.0</ele><time>2026-05-02T15:53:00.62Z</time></trkpt><trkpt lat="37.2448821" lon="9.7533268"><ele>26.0</ele><time>2026-05-02T15:53:01.62Z</time></trkpt><trkpt lat="37.2448628" lon="9.7535164"><ele>25.333333333333332</ele><time>2026-05-02T15:53:02.611Z</time></trkpt><trkpt lat="37.2448428" lon="9.7537083"><ele>24.666666666666664</ele><time>2026-05-02T15:53:03.614Z</time></trkpt><trkpt lat="37.2448234" lon="9.7538973"><ele>24.0</ele><time>2026-05-02T15:53:04.617Z</time></trkpt><trkpt lat="37.2448051" lon="9.7540825"><ele>23.75</ele><time>2026-05-02T15:53:05.619Z</time></trkpt><trkpt lat="37.244783" lon="9.754262"><ele>23.5</ele><time>2026-05-02T15:53:06.614Z</time></trkpt><trkpt lat="37.2447645" lon="9.7544421"><ele>23.25</ele><time>2026-05-02T15:53:07.612Z</time></trkpt><trkpt lat="37.2447467" lon="9.7546236"><ele>23.0</ele><time>2026-05-02T15:53:08.61Z</time></trkpt><trkpt lat="37.2447256" lon="9.7548022"><ele>23.0</ele><time>2026-05-02T15:53:09.609Z</time></trkpt><trkpt lat="37.2447044" lon="9.754982"><ele>23.0</ele><time>2026-05-02T15:53:10.609Z</time></trkpt><trkpt lat="37.2446819" lon="9.7551628"><ele>23.0</ele><time>2026-05-02T15:53:11.61Z</time></trkpt><trkpt lat="37.2446642" lon="9.7553447"><ele>23.0</ele><time>2026-05-02T15:53:12.607Z</time></trkpt><trkpt lat="37.2446422" lon="9.7555264"><ele>22.25</ele><time>2026-05-02T15:53:13.608Z</time></trkpt><trkpt lat="37.2446225" lon="9.7557036"><ele>21.5</ele><time>2026-05-02T15:53:14.613Z</time></trkpt><trkpt lat="37.2446076" lon="9.7558851"><ele>20.75</ele><time>2026-05-02T15:53:15.623Z</time></trkpt><trkpt lat="37.2445887" lon="9.7560666"><ele>20.0</ele><time>2026-05-02T15:53:16.616Z</time></trkpt><trkpt lat="37.2445732" lon="9.7562493"><ele>19.75</ele><time>2026-05-02T15:53:17.619Z</time></trkpt><trkpt lat="37.2445549" lon="9.7564299"><ele>19.5</ele><time>2026-05-02T15:53:18.626Z</time></trkpt><trkpt lat="37.2445381" lon="9.7566106"><ele>19.25</ele><time>2026-05-02T15:53:19.627Z</time></trkpt><trkpt lat="37.2445185" lon="9.7567906"><ele>19.0</ele><time>2026-05-02T15:53:20.623Z</time></trkpt><trkpt lat="37.2445" lon="9.75697"><ele>18.5</ele><time>2026-05-02T15:53:21.624Z</time></trkpt><trkpt lat="37.2444809" lon="9.7571485"><ele>18.0</ele><time>2026-05-02T15:53:22.609Z</time></trkpt><trkpt lat="37.2444643" lon="9.7573193"><ele>17.5</ele><time>2026-05-02T15:53:23.619Z</time></trkpt><trkpt lat="37.2444499" lon="9.7574888"><ele>17.0</ele><time>2026-05-02T15:53:24.623Z</time></trkpt><trkpt lat="37.2444316" lon="9.7576468"><ele>17.0</ele><time>2026-05-02T15:53:25.614Z</time></trkpt><trkpt lat="37.2444109" lon="9.757801"><ele>17.0</ele><time>2026-05-02T15:53:26.612Z</time></trkpt><trkpt lat="37.2443961" lon="9.7579516"><ele>17.0</ele><time>2026-05-02T15:53:27.62Z</time></trkpt><trkpt lat="37.2443814" lon="9.7580971"><ele>17.0</ele><time>2026-05-02T15:53:28.618Z</time></trkpt><trkpt lat="37.2443664" lon="9.7582334"><ele>17.0</ele><time>2026-05-02T15:53:29.619Z</time></trkpt><trkpt lat="37.244357" lon="9.7583573"><ele>17.0</ele><time>2026-05-02T15:53:30.62Z</time></trkpt><trkpt lat="37.2443427" lon="9.7584622"><ele>17.0</ele><time>2026-05-02T15:53:31.63Z</time></trkpt><trkpt lat="37.2443335" lon="9.7585596"><ele>17.0</ele><time>2026-05-02T15:53:32.616Z</time></trkpt><trkpt lat="37.2443256" lon="9.7586557"><ele>17.0</ele><time>2026-05-02T15:53:33.635Z</time></trkpt><trkpt lat="37.2443172" lon="9.7587448"><ele>17.0</ele><time>2026-05-02T15:53:34.627Z</time></trkpt><trkpt lat="37.2443115" lon="9.758828"><ele>17.0</ele><time>2026-05-02T15:53:35.629Z</time></trkpt><trkpt lat="37.2443076" lon="9.7589075"><ele>17.0</ele><time>2026-05-02T15:53:36.612Z</time></trkpt><trkpt lat="37.2443051" lon="9.7589909"><ele>17.0</ele><time>2026-05-02T15:53:37.621Z</time></trkpt><trkpt lat="37.2442957" lon="9.7591237"><ele>17.0</ele><time>2026-05-02T15:53:39.614Z</time></trkpt><trkpt lat="37.244288" lon="9.759242"><ele>17.0</ele><time>2026-05-02T15:53:41.636Z</time></trkpt><trkpt lat="37.2442877" lon="9.7593638"><ele>17.0</ele><time>2026-05-02T15:53:43.627Z</time></trkpt><trkpt lat="37.244287" lon="9.7595011"><ele>16.833333333333336</ele><time>2026-05-02T15:53:45.617Z</time></trkpt><trkpt lat="37.2442877" lon="9.759627"><ele>16.666666666666668</ele><time>2026-05-02T15:53:47.625Z</time></trkpt><trkpt lat="37.2442799" lon="9.7597159"><ele>16.5</ele><time>2026-05-02T15:53:49.603Z</time></trkpt><trkpt lat="37.2442864" lon="9.7598232"><ele>16.333333333333332</ele><time>2026-05-02T15:53:52.614Z</time></trkpt><trkpt lat="37.2442763" lon="9.7599057"><ele>16.166666666666664</ele><time>2026-05-02T15:53:55.62Z</time></trkpt><trkpt lat="37.2442415" lon="9.759979"><ele>16.0</ele><time>2026-05-02T15:54:00.615Z</time></trkpt><trkpt lat="37.2441781" lon="9.7600533"><ele>16.0</ele><time>2026-05-02T15:54:13.608Z</time></trkpt><trkpt lat="37.2441267" lon="9.760159"><ele>16.0</ele><time>2026-05-02T15:54:15.61Z</time></trkpt><trkpt lat="37.2441222" lon="9.7603075"><ele>16.0</ele><time>2026-05-02T15:54:17.629Z</time></trkpt><trkpt lat="37.2441998" lon="9.7604407"><ele>16.0</ele><time>2026-05-02T15:54:19.621Z</time></trkpt><trkpt lat="37.2442719" lon="9.7605303"><ele>15.75</ele><time>2026-05-02T15:54:20.644Z</time></trkpt><trkpt lat="37.2443408" lon="9.7606437"><ele>15.5</ele><time>2026-05-02T15:54:21.629Z</time></trkpt><trkpt lat="37.2443964" lon="9.7607785"><ele>15.25</ele><time>2026-05-02T15:54:22.615Z</time></trkpt><trkpt lat="37.2444454" lon="9.7609522"><ele>15.0</ele><time>2026-05-02T15:54:23.629Z</time></trkpt><trkpt lat="37.244496" lon="9.7611655"><ele>14.333333333333332</ele><time>2026-05-02T15:54:24.616Z</time></trkpt><trkpt lat="37.2445463" lon="9.7614188"><ele>13.666666666666666</ele><time>2026-05-02T15:54:25.619Z</time></trkpt><trkpt lat="37.2445973" lon="9.761693"><ele>13.0</ele><time>2026-05-02T15:54:26.616Z</time></trkpt><trkpt lat="37.2446676" lon="9.7619918"><ele>12.5</ele><time>2026-05-02T15:54:27.616Z</time></trkpt><trkpt lat="37.244744" lon="9.7623183"><ele>12.0</ele><time>2026-05-02T15:54:28.621Z</time></trkpt><trkpt lat="37.2448301" lon="9.762667"><ele>14.0</ele><time>2026-05-02T15:54:29.622Z</time></trkpt><trkpt lat="37.2449111" lon="9.7629946"><ele>16.0</ele><time>2026-05-02T15:54:30.602Z</time></trkpt><trkpt lat="37.2449813" lon="9.7632878"><ele>15.0</ele><time>2026-05-02T15:54:31.615Z</time></trkpt><trkpt lat="37.2450543" lon="9.7635683"><ele>14.0</ele><time>2026-05-02T15:54:32.63Z</time></trkpt><trkpt lat="37.2451267" lon="9.7638304"><ele>14.0</ele><time>2026-05-02T15:54:33.62Z</time></trkpt><trkpt lat="37.2451935" lon="9.7640953"><ele>14.0</ele><time>2026-05-02T15:54:34.62Z</time></trkpt><trkpt lat="37.2452627" lon="9.7643498"><ele>14.0</ele><time>2026-05-02T15:54:35.613Z</time></trkpt><trkpt lat="37.2453285" lon="9.7646057"><ele>14.0</ele><time>2026-05-02T15:54:36.615Z</time></trkpt><trkpt lat="37.2453959" lon="9.764863"><ele>14.0</ele><time>2026-05-02T15:54:37.627Z</time></trkpt><trkpt lat="37.2454651" lon="9.7651164"><ele>14.0</ele><time>2026-05-02T15:54:38.618Z</time></trkpt><trkpt lat="37.2455296" lon="9.7653673"><ele>14.0</ele><time>2026-05-02T15:54:39.618Z</time></trkpt><trkpt lat="37.2455967" lon="9.7656218"><ele>14.0</ele><time>2026-05-02T15:54:40.647Z</time></trkpt><trkpt lat="37.2456623" lon="9.7658751"><ele>14.0</ele><time>2026-05-02T15:54:41.601Z</time></trkpt><trkpt lat="37.2457283" lon="9.7661287"><ele>14.333333333333334</ele><time>2026-05-02T15:54:42.605Z</time></trkpt><trkpt lat="37.2458007" lon="9.7663811"><ele>14.666666666666668</ele><time>2026-05-02T15:54:43.615Z</time></trkpt><trkpt lat="37.2458661" lon="9.7666413"><ele>15.0</ele><time>2026-05-02T15:54:44.606Z</time></trkpt><trkpt lat="37.245943" lon="9.7669118"><ele>15.0</ele><time>2026-05-02T15:54:45.622Z</time></trkpt><trkpt lat="37.2460209" lon="9.7671835"><ele>15.0</ele><time>2026-05-02T15:54:46.614Z</time></trkpt><trkpt lat="37.246098" lon="9.7674558"><ele>15.0</ele><time>2026-05-02T15:54:47.619Z</time></trkpt><trkpt lat="37.2461758" lon="9.7677298"><ele>15.0</ele><time>2026-05-02T15:54:48.599Z</time></trkpt><trkpt lat="37.2462503" lon="9.7680157"><ele>15.0</ele><time>2026-05-02T15:54:49.608Z</time></trkpt><trkpt lat="37.2463365" lon="9.7683176"><ele>15.0</ele><time>2026-05-02T15:54:50.621Z</time></trkpt><trkpt lat="37.2464297" lon="9.7686383"><ele>16.0</ele><time>2026-05-02T15:54:51.617Z</time></trkpt><trkpt lat="37.2465218" lon="9.7689688"><ele>17.0</ele><time>2026-05-02T15:54:52.61Z</time></trkpt><trkpt lat="37.2466114" lon="9.7692936"><ele>17.0</ele><time>2026-05-02T15:54:53.626Z</time></trkpt><trkpt lat="37.2466952" lon="9.7696125"><ele>17.0</ele><time>2026-05-02T15:54:54.628Z</time></trkpt><trkpt lat="37.2467736" lon="9.7699211"><ele>16.5</ele><time>2026-05-02T15:54:55.609Z</time></trkpt><trkpt lat="37.2468535" lon="9.7702213"><ele>16.0</ele><time>2026-05-02T15:54:56.628Z</time></trkpt><trkpt lat="37.2469315" lon="9.7705104"><ele>16.0</ele><time>2026-05-02T15:54:57.615Z</time></trkpt><trkpt lat="37.2470079" lon="9.7707996"><ele>16.0</ele><time>2026-05-02T15:54:58.626Z</time></trkpt><trkpt lat="37.2470829" lon="9.7710862"><ele>15.5</ele><time>2026-05-02T15:54:59.624Z</time></trkpt><trkpt lat="37.2471585" lon="9.7713795"><ele>15.0</ele><time>2026-05-02T15:55:00.617Z</time></trkpt><trkpt lat="37.2472373" lon="9.7716667"><ele>17.0</ele><time>2026-05-02T15:55:01.602Z</time></trkpt><trkpt lat="37.2473179" lon="9.7719537"><ele>19.0</ele><time>2026-05-02T15:55:02.616Z</time></trkpt><trkpt lat="37.2473924" lon="9.7722378"><ele>19.0</ele><time>2026-05-02T15:55:03.618Z</time></trkpt><trkpt lat="37.2474576" lon="9.7725246"><ele>19.0</ele><time>2026-05-02T15:55:04.621Z</time></trkpt><trkpt lat="37.2475195" lon="9.7728051"><ele>19.5</ele><time>2026-05-02T15:55:05.619Z</time></trkpt><trkpt lat="37.2475874" lon="9.7730792"><ele>20.0</ele><time>2026-05-02T15:55:06.618Z</time></trkpt><trkpt lat="37.2476577" lon="9.773352"><ele>19.666666666666668</ele><time>2026-05-02T15:55:07.617Z</time></trkpt><trkpt lat="37.2477277" lon="9.7736179"><ele>19.333333333333332</ele><time>2026-05-02T15:55:08.641Z</time></trkpt><trkpt lat="37.2477975" lon="9.7738761"><ele>19.0</ele><time>2026-05-02T15:55:09.611Z</time></trkpt><trkpt lat="37.2478638" lon="9.7741322"><ele>17.666666666666664</ele><time>2026-05-02T15:55:10.617Z</time></trkpt><trkpt lat="37.2479316" lon="9.7743846"><ele>16.333333333333332</ele><time>2026-05-02T15:55:11.626Z</time></trkpt><trkpt lat="37.2479969" lon="9.774633"><ele>15.0</ele><time>2026-05-02T15:55:12.627Z</time></trkpt><trkpt lat="37.2480614" lon="9.7748776"><ele>15.333333333333332</ele><time>2026-05-02T15:55:13.619Z</time></trkpt><trkpt lat="37.2481266" lon="9.7751212"><ele>15.666666666666666</ele><time>2026-05-02T15:55:14.617Z</time></trkpt><trkpt lat="37.2481914" lon="9.7753613"><ele>16.0</ele><time>2026-05-02T15:55:15.624Z</time></trkpt><trkpt lat="37.2482556" lon="9.7755965"><ele>16.0</ele><time>2026-05-02T15:55:16.617Z</time></trkpt><trkpt lat="37.2483186" lon="9.7758295"><ele>16.0</ele><time>2026-05-02T15:55:17.605Z</time></trkpt><trkpt lat="37.2483762" lon="9.7760572"><ele>16.0</ele><time>2026-05-02T15:55:18.624Z</time></trkpt><trkpt lat="37.2484361" lon="9.7762808"><ele>15.666666666666666</ele><time>2026-05-02T15:55:19.62Z</time></trkpt><trkpt lat="37.2484986" lon="9.7765075"><ele>15.333333333333332</ele><time>2026-05-02T15:55:20.608Z</time></trkpt><trkpt lat="37.2485594" lon="9.7767304"><ele>15.0</ele><time>2026-05-02T15:55:21.617Z</time></trkpt><trkpt lat="37.2486174" lon="9.7769555"><ele>14.666666666666668</ele><time>2026-05-02T15:55:22.634Z</time></trkpt><trkpt lat="37.2486751" lon="9.7771839"><ele>14.333333333333334</ele><time>2026-05-02T15:55:23.612Z</time></trkpt><trkpt lat="37.2487345" lon="9.7774121"><ele>14.0</ele><time>2026-05-02T15:55:24.607Z</time></trkpt><trkpt lat="37.2487934" lon="9.7776362"><ele>14.0</ele><time>2026-05-02T15:55:25.624Z</time></trkpt><trkpt lat="37.2488508" lon="9.7778547"><ele>14.0</ele><time>2026-05-02T15:55:26.613Z</time></trkpt><trkpt lat="37.2489109" lon="9.7780625"><ele>14.0</ele><time>2026-05-02T15:55:27.614Z</time></trkpt><trkpt lat="37.2489718" lon="9.7782676"><ele>14.0</ele><time>2026-05-02T15:55:28.619Z</time></trkpt><trkpt lat="37.2490289" lon="9.7784686"><ele>14.0</ele><time>2026-05-02T15:55:29.619Z</time></trkpt><trkpt lat="37.2490829" lon="9.7786645"><ele>14.0</ele><time>2026-05-02T15:55:30.603Z</time></trkpt><trkpt lat="37.2491336" lon="9.7788435"><ele>13.799999999999999</ele><time>2026-05-02T15:55:31.608Z</time></trkpt><trkpt lat="37.249177" lon="9.7790015"><ele>13.599999999999998</ele><time>2026-05-02T15:55:32.609Z</time></trkpt><trkpt lat="37.2492083" lon="9.7791409"><ele>13.4</ele><time>2026-05-02T15:55:33.603Z</time></trkpt><trkpt lat="37.2492413" lon="9.7792628"><ele>13.2</ele><time>2026-05-02T15:55:34.61Z</time></trkpt><trkpt lat="37.249266" lon="9.7793724"><ele>13.0</ele><time>2026-05-02T15:55:35.623Z</time></trkpt><trkpt lat="37.2492887" lon="9.7794699"><ele>12.999999999999998</ele><time>2026-05-02T15:55:36.617Z</time></trkpt><trkpt lat="37.2493095" lon="9.7795462"><ele>13.0</ele><time>2026-05-02T15:55:37.607Z</time></trkpt><trkpt lat="37.2493357" lon="9.7796547"><ele>13.0</ele><time>2026-05-02T15:55:39.623Z</time></trkpt><trkpt lat="37.2493618" lon="9.779754"><ele>13.0</ele><time>2026-05-02T15:55:41.631Z</time></trkpt><trkpt lat="37.2493771" lon="9.7798563"><ele>12.999999999999998</ele><time>2026-05-02T15:55:43.621Z</time></trkpt><trkpt lat="37.2494066" lon="9.7799687"><ele>13.0</ele><time>2026-05-02T15:55:45.613Z</time></trkpt><trkpt lat="37.2494712" lon="9.7800412"><ele>13.0</ele><time>2026-05-02T15:55:47.631Z</time></trkpt><trkpt lat="37.2495695" lon="9.7800141"><ele>13.0</ele><time>2026-05-02T15:55:49.612Z</time></trkpt><trkpt lat="37.2496246" lon="9.7799756"><ele>13.0</ele><time>2026-05-02T15:55:50.615Z</time></trkpt><trkpt lat="37.2496854" lon="9.7799352"><ele>13.0</ele><time>2026-05-02T15:55:51.612Z</time></trkpt><trkpt lat="37.249749" lon="9.7799195"><ele>13.0</ele><time>2026-05-02T15:55:52.62Z</time></trkpt><trkpt lat="37.2498166" lon="9.7799309"><ele>13.0</ele><time>2026-05-02T15:55:53.623Z</time></trkpt><trkpt lat="37.2498817" lon="9.7799646"><ele>13.0</ele><time>2026-05-02T15:55:54.622Z</time></trkpt><trkpt lat="37.2499324" lon="9.7800324"><ele>12.999999999999998</ele><time>2026-05-02T15:55:55.621Z</time></trkpt><trkpt lat="37.2499733" lon="9.7801227"><ele>13.0</ele><time>2026-05-02T15:55:56.621Z</time></trkpt><trkpt lat="37.2499926" lon="9.7802281"><ele>13.0</ele><time>2026-05-02T15:55:57.609Z</time></trkpt><trkpt lat="37.2500003" lon="9.7803364"><ele>13.0</ele><time>2026-05-02T15:55:58.623Z</time></trkpt><trkpt lat="37.250011" lon="9.7804554"><ele>12.999999999999998</ele><time>2026-05-02T15:55:59.615Z</time></trkpt><trkpt lat="37.2500452" lon="9.7805683"><ele>13.0</ele><time>2026-05-02T15:56:00.621Z</time></trkpt><trkpt lat="37.2500944" lon="9.7806609"><ele>12.8</ele><time>2026-05-02T15:56:01.616Z</time></trkpt><trkpt lat="37.2501755" lon="9.7807255"><ele>12.600000000000001</ele><time>2026-05-02T15:56:02.625Z</time></trkpt><trkpt lat="37.2502602" lon="9.7807673"><ele>12.399999999999999</ele><time>2026-05-02T15:56:03.618Z</time></trkpt><trkpt lat="37.2503591" lon="9.7807617"><ele>12.2</ele><time>2026-05-02T15:56:04.628Z</time></trkpt><trkpt lat="37.2504582" lon="9.7807326"><ele>12.0</ele><time>2026-05-02T15:56:05.615Z</time></trkpt><trkpt lat="37.2505695" lon="9.780677"><ele>12.25</ele><time>2026-05-02T15:56:06.612Z</time></trkpt><trkpt lat="37.2506774" lon="9.7806051"><ele>12.5</ele><time>2026-05-02T15:56:07.62Z</time></trkpt><trkpt lat="37.2507883" lon="9.7805359"><ele>12.75</ele><time>2026-05-02T15:56:08.62Z</time></trkpt><trkpt lat="37.2508967" lon="9.7804721"><ele>13.0</ele><time>2026-05-02T15:56:09.616Z</time></trkpt><trkpt lat="37.2510055" lon="9.7804117"><ele>13.0</ele><time>2026-05-02T15:56:10.615Z</time></trkpt><trkpt lat="37.2511144" lon="9.7803525"><ele>13.0</ele><time>2026-05-02T15:56:11.625Z</time></trkpt><trkpt lat="37.2512252" lon="9.7802859"><ele>13.0</ele><time>2026-05-02T15:56:12.622Z</time></trkpt><trkpt lat="37.2513354" lon="9.7802134"><ele>13.0</ele><time>2026-05-02T15:56:13.608Z</time></trkpt><trkpt lat="37.2514535" lon="9.7801425"><ele>14.25</ele><time>2026-05-02T15:56:14.613Z</time></trkpt><trkpt lat="37.2515754" lon="9.7800726"><ele>15.5</ele><time>2026-05-02T15:56:15.609Z</time></trkpt><trkpt lat="37.2516988" lon="9.7800051"><ele>16.75</ele><time>2026-05-02T15:56:16.621Z</time></trkpt><trkpt lat="37.2518223" lon="9.7799338"><ele>18.0</ele><time>2026-05-02T15:56:17.605Z</time></trkpt><trkpt lat="37.2519489" lon="9.7798579"><ele>18.0</ele><time>2026-05-02T15:56:18.602Z</time></trkpt><trkpt lat="37.252084" lon="9.7797714"><ele>18.0</ele><time>2026-05-02T15:56:19.608Z</time></trkpt><trkpt lat="37.2522202" lon="9.7796897"><ele>18.0</ele><time>2026-05-02T15:56:20.615Z</time></trkpt><trkpt lat="37.2523658" lon="9.7795998"><ele>19.0</ele><time>2026-05-02T15:56:21.628Z</time></trkpt><trkpt lat="37.2525163" lon="9.7795137"><ele>20.0</ele><time>2026-05-02T15:56:22.61Z</time></trkpt><trkpt lat="37.2526687" lon="9.7794243"><ele>21.0</ele><time>2026-05-02T15:56:23.619Z</time></trkpt><trkpt lat="37.2528234" lon="9.7793297"><ele>21.333333333333332</ele><time>2026-05-02T15:56:24.635Z</time></trkpt><trkpt lat="37.2529793" lon="9.7792372"><ele>21.666666666666664</ele><time>2026-05-02T15:56:25.617Z</time></trkpt><trkpt lat="37.2531339" lon="9.7791468"><ele>22.0</ele><time>2026-05-02T15:56:26.612Z</time></trkpt><trkpt lat="37.2532856" lon="9.7790643"><ele>22.666666666666664</ele><time>2026-05-02T15:56:27.607Z</time></trkpt><trkpt lat="37.253437" lon="9.7789789"><ele>23.333333333333332</ele><time>2026-05-02T15:56:28.643Z</time></trkpt><trkpt lat="37.2535917" lon="9.7788903"><ele>24.0</ele><time>2026-05-02T15:56:29.623Z</time></trkpt><trkpt lat="37.2537425" lon="9.7788037"><ele>24.0</ele><time>2026-05-02T15:56:30.629Z</time></trkpt><trkpt lat="37.2538907" lon="9.7787107"><ele>24.0</ele><time>2026-05-02T15:56:31.619Z</time></trkpt><trkpt lat="37.2540318" lon="9.7786175"><ele>24.0</ele><time>2026-05-02T15:56:32.623Z</time></trkpt><trkpt lat="37.254161" lon="9.7785186"><ele>25.5</ele><time>2026-05-02T15:56:33.613Z</time></trkpt><trkpt lat="37.2542813" lon="9.7784046"><ele>27.0</ele><time>2026-05-02T15:56:34.617Z</time></trkpt><trkpt lat="37.2543931" lon="9.7782862"><ele>28.5</ele><time>2026-05-02T15:56:35.622Z</time></trkpt><trkpt lat="37.2544986" lon="9.7781646"><ele>30.0</ele><time>2026-05-02T15:56:36.622Z</time></trkpt><trkpt lat="37.2545999" lon="9.7780481"><ele>30.0</ele><time>2026-05-02T15:56:37.637Z</time></trkpt><trkpt lat="37.2547004" lon="9.7779432"><ele>30.0</ele><time>2026-05-02T15:56:38.613Z</time></trkpt><trkpt lat="37.2547936" lon="9.7778418"><ele>30.0</ele><time>2026-05-02T15:56:39.623Z</time></trkpt><trkpt lat="37.2548761" lon="9.777747"><ele>30.0</ele><time>2026-05-02T15:56:40.618Z</time></trkpt><trkpt lat="37.2549596" lon="9.7776467"><ele>31.75</ele><time>2026-05-02T15:56:41.614Z</time></trkpt><trkpt lat="37.2550469" lon="9.7775383"><ele>33.5</ele><time>2026-05-02T15:56:42.616Z</time></trkpt><trkpt lat="37.2551323" lon="9.7774372"><ele>35.25</ele><time>2026-05-02T15:56:43.623Z</time></trkpt><trkpt lat="37.2552242" lon="9.7773291"><ele>37.0</ele><time>2026-05-02T15:56:44.617Z</time></trkpt><trkpt lat="37.2553095" lon="9.777231"><ele>37.0</ele><time>2026-05-02T15:56:45.612Z</time></trkpt><trkpt lat="37.255391" lon="9.7771362"><ele>37.0</ele><time>2026-05-02T15:56:46.619Z</time></trkpt><trkpt lat="37.2554769" lon="9.7770452"><ele>37.0</ele><time>2026-05-02T15:56:47.611Z</time></trkpt><trkpt lat="37.2555711" lon="9.7769559"><ele>37.0</ele><time>2026-05-02T15:56:48.627Z</time></trkpt><trkpt lat="37.2556637" lon="9.7768738"><ele>37.2</ele><time>2026-05-02T15:56:49.617Z</time></trkpt><trkpt lat="37.2557393" lon="9.7767932"><ele>37.400000000000006</ele><time>2026-05-02T15:56:50.619Z</time></trkpt><trkpt lat="37.2558172" lon="9.7767118"><ele>37.599999999999994</ele><time>2026-05-02T15:56:51.619Z</time></trkpt><trkpt lat="37.2558951" lon="9.776628"><ele>37.8</ele><time>2026-05-02T15:56:52.616Z</time></trkpt><trkpt lat="37.2559686" lon="9.7765474"><ele>38.0</ele><time>2026-05-02T15:56:53.623Z</time></trkpt><trkpt lat="37.2560428" lon="9.7764695"><ele>38.0</ele><time>2026-05-02T15:56:54.634Z</time></trkpt><trkpt lat="37.2561178" lon="9.7763876"><ele>38.0</ele><time>2026-05-02T15:56:55.62Z</time></trkpt><trkpt lat="37.2561928" lon="9.7762991"><ele>38.0</ele><time>2026-05-02T15:56:56.609Z</time></trkpt><trkpt lat="37.256271" lon="9.7762069"><ele>38.0</ele><time>2026-05-02T15:56:57.622Z</time></trkpt><trkpt lat="37.2563581" lon="9.7761033"><ele>38.0</ele><time>2026-05-02T15:56:58.612Z</time></trkpt><trkpt lat="37.25646" lon="9.7759926"><ele>40.0</ele><time>2026-05-02T15:56:59.639Z</time></trkpt><trkpt lat="37.2565744" lon="9.7758675"><ele>42.0</ele><time>2026-05-02T15:57:00.638Z</time></trkpt><trkpt lat="37.2566904" lon="9.7757429"><ele>44.0</ele><time>2026-05-02T15:57:01.612Z</time></trkpt><trkpt lat="37.2568059" lon="9.7756278"><ele>44.0</ele><time>2026-05-02T15:57:02.605Z</time></trkpt><trkpt lat="37.256914" lon="9.7755141"><ele>44.0</ele><time>2026-05-02T15:57:03.615Z</time></trkpt><trkpt lat="37.2570223" lon="9.7754087"><ele>44.0</ele><time>2026-05-02T15:57:04.594Z</time></trkpt><trkpt lat="37.2571289" lon="9.7753099"><ele>44.0</ele><time>2026-05-02T15:57:05.606Z</time></trkpt><trkpt lat="37.2572296" lon="9.7752168"><ele>44.0</ele><time>2026-05-02T15:57:06.596Z</time></trkpt><trkpt lat="37.2573222" lon="9.7751316"><ele>44.0</ele><time>2026-05-02T15:57:07.591Z</time></trkpt><trkpt lat="37.2574089" lon="9.7750539"><ele>44.0</ele><time>2026-05-02T15:57:08.607Z</time></trkpt><trkpt lat="37.2574873" lon="9.7749765"><ele>44.0</ele><time>2026-05-02T15:57:09.608Z</time></trkpt><trkpt lat="37.2575633" lon="9.7748974"><ele>44.0</ele><time>2026-05-02T15:57:10.607Z</time></trkpt><trkpt lat="37.2576345" lon="9.7748251"><ele>44.0</ele><time>2026-05-02T15:57:11.62Z</time></trkpt><trkpt lat="37.2576959" lon="9.7747778"><ele>44.0</ele><time>2026-05-02T15:57:12.617Z</time></trkpt><trkpt lat="37.2577588" lon="9.7747042"><ele>44.0</ele><time>2026-05-02T15:57:14.625Z</time></trkpt><trkpt lat="37.2578252" lon="9.7746164"><ele>44.0</ele><time>2026-05-02T15:57:17.609Z</time></trkpt><trkpt lat="37.2579018" lon="9.774533"><ele>44.0</ele><time>2026-05-02T15:57:19.619Z</time></trkpt><trkpt lat="37.2579752" lon="9.7744207"><ele>44.0</ele><time>2026-05-02T15:57:21.616Z</time></trkpt><trkpt lat="37.2580367" lon="9.774331"><ele>44.0</ele><time>2026-05-02T15:57:23.621Z</time></trkpt><trkpt lat="37.2580767" lon="9.7742432"><ele>44.0</ele><time>2026-05-02T15:57:25.627Z</time></trkpt><trkpt lat="37.258107" lon="9.7741176"><ele>44.0</ele><time>2026-05-02T15:57:27.604Z</time></trkpt><trkpt lat="37.2581499" lon="9.7739954"><ele>44.0</ele><time>2026-05-02T15:57:29.619Z</time></trkpt><trkpt lat="37.2581808" lon="9.7739123"><ele>44.0</ele><time>2026-05-02T15:57:30.613Z</time></trkpt><trkpt lat="37.2582161" lon="9.7738154"><ele>44.0</ele><time>2026-05-02T15:57:31.611Z</time></trkpt><trkpt lat="37.2582541" lon="9.7737072"><ele>44.0</ele><time>2026-05-02T15:57:32.596Z</time></trkpt><trkpt lat="37.2582985" lon="9.773578"><ele>44.0</ele><time>2026-05-02T15:57:33.606Z</time></trkpt><trkpt lat="37.2583503" lon="9.7734358"><ele>44.0</ele><time>2026-05-02T15:57:34.611Z</time></trkpt><trkpt lat="37.2584074" lon="9.7732797"><ele>44.5</ele><time>2026-05-02T15:57:35.611Z</time></trkpt><trkpt lat="37.2584669" lon="9.7731195"><ele>45.0</ele><time>2026-05-02T15:57:36.616Z</time></trkpt><trkpt lat="37.2585263" lon="9.7729567"><ele>45.5</ele><time>2026-05-02T15:57:37.621Z</time></trkpt><trkpt lat="37.258588" lon="9.7727887"><ele>46.0</ele><time>2026-05-02T15:57:38.612Z</time></trkpt><trkpt lat="37.2586557" lon="9.7726188"><ele>46.0</ele><time>2026-05-02T15:57:39.621Z</time></trkpt><trkpt lat="37.2587324" lon="9.772449"><ele>46.0</ele><time>2026-05-02T15:57:40.624Z</time></trkpt><trkpt lat="37.2588093" lon="9.7722753"><ele>46.0</ele><time>2026-05-02T15:57:41.631Z</time></trkpt><trkpt lat="37.2588815" lon="9.7721002"><ele>45.66666666666667</ele><time>2026-05-02T15:57:42.619Z</time></trkpt><trkpt lat="37.2589577" lon="9.771927"><ele>45.333333333333336</ele><time>2026-05-02T15:57:43.612Z</time></trkpt><trkpt lat="37.259032" lon="9.771751"><ele>45.0</ele><time>2026-05-02T15:57:44.622Z</time></trkpt><trkpt lat="37.2591061" lon="9.7715827"><ele>45.0</ele><time>2026-05-02T15:57:45.624Z</time></trkpt><trkpt lat="37.2591799" lon="9.7714098"><ele>45.0</ele><time>2026-05-02T15:57:46.631Z</time></trkpt><trkpt lat="37.2592544" lon="9.7712387"><ele>45.0</ele><time>2026-05-02T15:57:47.618Z</time></trkpt><trkpt lat="37.2593266" lon="9.7710739"><ele>45.5</ele><time>2026-05-02T15:57:48.609Z</time></trkpt><trkpt lat="37.259398" lon="9.7709077"><ele>46.0</ele><time>2026-05-02T15:57:49.613Z</time></trkpt><trkpt lat="37.2594657" lon="9.7707378"><ele>46.5</ele><time>2026-05-02T15:57:50.62Z</time></trkpt><trkpt lat="37.2595318" lon="9.770576"><ele>47.0</ele><time>2026-05-02T15:57:51.616Z</time></trkpt><trkpt lat="37.2596008" lon="9.7704156"><ele>47.0</ele><time>2026-05-02T15:57:52.626Z</time></trkpt><trkpt lat="37.2596686" lon="9.7702529"><ele>47.0</ele><time>2026-05-02T15:57:53.62Z</time></trkpt><trkpt lat="37.2597299" lon="9.7700911"><ele>47.0</ele><time>2026-05-02T15:57:54.618Z</time></trkpt><trkpt lat="37.2597949" lon="9.7699263"><ele>47.0</ele><time>2026-05-02T15:57:55.62Z</time></trkpt><trkpt lat="37.2598626" lon="9.7697577"><ele>46.0</ele><time>2026-05-02T15:57:56.621Z</time></trkpt><trkpt lat="37.2599304" lon="9.7695892"><ele>45.0</ele><time>2026-05-02T15:57:57.622Z</time></trkpt><trkpt lat="37.2599947" lon="9.7694226"><ele>44.0</ele><time>2026-05-02T15:57:58.625Z</time></trkpt><trkpt lat="37.2600592" lon="9.7692665"><ele>43.0</ele><time>2026-05-02T15:57:59.628Z</time></trkpt><trkpt lat="37.2601173" lon="9.7691181"><ele>42.75</ele><time>2026-05-02T15:58:00.626Z</time></trkpt><trkpt lat="37.2601792" lon="9.7689701"><ele>42.5</ele><time>2026-05-02T15:58:01.61Z</time></trkpt><trkpt lat="37.2602359" lon="9.7688103"><ele>42.25</ele><time>2026-05-02T15:58:02.614Z</time></trkpt><trkpt lat="37.2602947" lon="9.768653"><ele>42.0</ele><time>2026-05-02T15:58:03.614Z</time></trkpt><trkpt lat="37.2603571" lon="9.7684953"><ele>42.0</ele><time>2026-05-02T15:58:04.612Z</time></trkpt><trkpt lat="37.2604181" lon="9.7683331"><ele>42.0</ele><time>2026-05-02T15:58:05.618Z</time></trkpt><trkpt lat="37.2604775" lon="9.7681693"><ele>42.0</ele><time>2026-05-02T15:58:06.614Z</time></trkpt><trkpt lat="37.2605338" lon="9.7680086"><ele>42.0</ele><time>2026-05-02T15:58:07.609Z</time></trkpt><trkpt lat="37.2605879" lon="9.767864"><ele>41.25</ele><time>2026-05-02T15:58:08.619Z</time></trkpt><trkpt lat="37.2606425" lon="9.7677211"><ele>40.5</ele><time>2026-05-02T15:58:09.619Z</time></trkpt><trkpt lat="37.2607011" lon="9.7675899"><ele>39.75</ele><time>2026-05-02T15:58:10.635Z</time></trkpt><trkpt lat="37.2607654" lon="9.7674631"><ele>39.0</ele><time>2026-05-02T15:58:11.607Z</time></trkpt><trkpt lat="37.26084" lon="9.7673423"><ele>39.0</ele><time>2026-05-02T15:58:12.612Z</time></trkpt><trkpt lat="37.2609275" lon="9.7672223"><ele>39.0</ele><time>2026-05-02T15:58:13.602Z</time></trkpt><trkpt lat="37.2610285" lon="9.7671152"><ele>39.0</ele><time>2026-05-02T15:58:14.604Z</time></trkpt><trkpt lat="37.2611384" lon="9.7670091"><ele>39.0</ele><time>2026-05-02T15:58:15.615Z</time></trkpt><trkpt lat="37.2612503" lon="9.7669074"><ele>38.75</ele><time>2026-05-02T15:58:16.608Z</time></trkpt><trkpt lat="37.2613626" lon="9.7668041"><ele>38.5</ele><time>2026-05-02T15:58:17.611Z</time></trkpt><trkpt lat="37.2614796" lon="9.7666954"><ele>38.25</ele><time>2026-05-02T15:58:18.618Z</time></trkpt><trkpt lat="37.2615947" lon="9.7665802"><ele>38.0</ele><time>2026-05-02T15:58:19.613Z</time></trkpt><trkpt lat="37.2617065" lon="9.7664696"><ele>37.0</ele><time>2026-05-02T15:58:20.621Z</time></trkpt><trkpt lat="37.2618213" lon="9.7663584"><ele>36.0</ele><time>2026-05-02T15:58:21.628Z</time></trkpt><trkpt lat="37.2619254" lon="9.7662566"><ele>35.0</ele><time>2026-05-02T15:58:22.614Z</time></trkpt><trkpt lat="37.2620362" lon="9.7661588"><ele>34.0</ele><time>2026-05-02T15:58:23.606Z</time></trkpt><trkpt lat="37.2621398" lon="9.7660642"><ele>33.75</ele><time>2026-05-02T15:58:24.601Z</time></trkpt><trkpt lat="37.2622421" lon="9.7659689"><ele>33.5</ele><time>2026-05-02T15:58:25.622Z</time></trkpt><trkpt lat="37.2623386" lon="9.7658712"><ele>33.25</ele><time>2026-05-02T15:58:26.599Z</time></trkpt><trkpt lat="37.2624304" lon="9.7657782"><ele>33.0</ele><time>2026-05-02T15:58:27.609Z</time></trkpt><trkpt lat="37.262518" lon="9.7656824"><ele>32.5</ele><time>2026-05-02T15:58:28.603Z</time></trkpt><trkpt lat="37.2626083" lon="9.7655867"><ele>32.0</ele><time>2026-05-02T15:58:29.617Z</time></trkpt><trkpt lat="37.2627034" lon="9.7655008"><ele>31.5</ele><time>2026-05-02T15:58:30.624Z</time></trkpt><trkpt lat="37.2627951" lon="9.7654145"><ele>31.0</ele><time>2026-05-02T15:58:31.622Z</time></trkpt><trkpt lat="37.262885" lon="9.7653329"><ele>31.0</ele><time>2026-05-02T15:58:32.608Z</time></trkpt><trkpt lat="37.2629754" lon="9.7652487"><ele>31.0</ele><time>2026-05-02T15:58:33.618Z</time></trkpt><trkpt lat="37.2630632" lon="9.7651648"><ele>31.0</ele><time>2026-05-02T15:58:34.628Z</time></trkpt><trkpt lat="37.2631446" lon="9.7650834"><ele>31.0</ele><time>2026-05-02T15:58:35.621Z</time></trkpt><trkpt lat="37.2632188" lon="9.765004"><ele>31.0</ele><time>2026-05-02T15:58:36.617Z</time></trkpt><trkpt lat="37.2632975" lon="9.7649208"><ele>31.200000000000003</ele><time>2026-05-02T15:58:37.619Z</time></trkpt><trkpt lat="37.2633828" lon="9.7648408"><ele>31.400000000000002</ele><time>2026-05-02T15:58:38.607Z</time></trkpt><trkpt lat="37.2634672" lon="9.7647603"><ele>31.6</ele><time>2026-05-02T15:58:39.623Z</time></trkpt><trkpt lat="37.2635529" lon="9.7646813"><ele>31.8</ele><time>2026-05-02T15:58:40.619Z</time></trkpt><trkpt lat="37.2636304" lon="9.7646034"><ele>32.0</ele><time>2026-05-02T15:58:41.609Z</time></trkpt><trkpt lat="37.263704" lon="9.7645299"><ele>31.999999999999996</ele><time>2026-05-02T15:58:42.626Z</time></trkpt><trkpt lat="37.2637748" lon="9.7644628"><ele>32.0</ele><time>2026-05-02T15:58:43.61Z</time></trkpt><trkpt lat="37.263845" lon="9.7643963"><ele>32.0</ele><time>2026-05-02T15:58:44.614Z</time></trkpt><trkpt lat="37.2639073" lon="9.7643362"><ele>32.0</ele><time>2026-05-02T15:58:45.623Z</time></trkpt><trkpt lat="37.2639714" lon="9.764273"><ele>31.999999999999996</ele><time>2026-05-02T15:58:46.609Z</time></trkpt><trkpt lat="37.264037" lon="9.7642091"><ele>32.0</ele><time>2026-05-02T15:58:47.615Z</time></trkpt><trkpt lat="37.2641054" lon="9.7641399"><ele>32.166666666666664</ele><time>2026-05-02T15:58:48.612Z</time></trkpt><trkpt lat="37.2641761" lon="9.7640693"><ele>32.33333333333333</ele><time>2026-05-02T15:58:49.611Z</time></trkpt><trkpt lat="37.2642452" lon="9.7639968"><ele>32.5</ele><time>2026-05-02T15:58:50.618Z</time></trkpt><trkpt lat="37.2643116" lon="9.7639242"><ele>32.666666666666664</ele><time>2026-05-02T15:58:51.615Z</time></trkpt><trkpt lat="37.2643772" lon="9.7638529"><ele>32.833333333333336</ele><time>2026-05-02T15:58:52.609Z</time></trkpt><trkpt lat="37.2644442" lon="9.7637819"><ele>33.0</ele><time>2026-05-02T15:58:53.603Z</time></trkpt><trkpt lat="37.26451" lon="9.7637144"><ele>33.0</ele><time>2026-05-02T15:58:54.623Z</time></trkpt><trkpt lat="37.2645754" lon="9.7636484"><ele>33.0</ele><time>2026-05-02T15:58:55.611Z</time></trkpt><trkpt lat="37.2646441" lon="9.7635836"><ele>33.0</ele><time>2026-05-02T15:58:56.627Z</time></trkpt><trkpt lat="37.2647183" lon="9.7635155"><ele>33.0</ele><time>2026-05-02T15:58:57.602Z</time></trkpt><trkpt lat="37.264793" lon="9.763439"><ele>33.0</ele><time>2026-05-02T15:58:58.628Z</time></trkpt><trkpt lat="37.2648694" lon="9.7633546"><ele>33.0</ele><time>2026-05-02T15:58:59.616Z</time></trkpt><trkpt lat="37.2649541" lon="9.7632629"><ele>33.0</ele><time>2026-05-02T15:59:00.615Z</time></trkpt><trkpt lat="37.2650403" lon="9.7631648"><ele>33.0</ele><time>2026-05-02T15:59:01.616Z</time></trkpt><trkpt lat="37.2651342" lon="9.7630717"><ele>33.0</ele><time>2026-05-02T15:59:02.621Z</time></trkpt><trkpt lat="37.2652269" lon="9.7629788"><ele>33.0</ele><time>2026-05-02T15:59:03.623Z</time></trkpt><trkpt lat="37.265326" lon="9.7628861"><ele>33.0</ele><time>2026-05-02T15:59:04.613Z</time></trkpt><trkpt lat="37.2654271" lon="9.7627857"><ele>33.0</ele><time>2026-05-02T15:59:05.622Z</time></trkpt><trkpt lat="37.2655305" lon="9.7626851"><ele>33.0</ele><time>2026-05-02T15:59:06.615Z</time></trkpt><trkpt lat="37.2656388" lon="9.762585"><ele>34.0</ele><time>2026-05-02T15:59:07.612Z</time></trkpt><trkpt lat="37.2657493" lon="9.7624814"><ele>35.0</ele><time>2026-05-02T15:59:08.619Z</time></trkpt><trkpt lat="37.2658638" lon="9.7623684"><ele>36.0</ele><time>2026-05-02T15:59:09.609Z</time></trkpt><trkpt lat="37.2659752" lon="9.7622548"><ele>37.0</ele><time>2026-05-02T15:59:10.62Z</time></trkpt><trkpt lat="37.2660865" lon="9.7621462"><ele>37.0</ele><time>2026-05-02T15:59:11.615Z</time></trkpt><trkpt lat="37.2661995" lon="9.7620337"><ele>37.0</ele><time>2026-05-02T15:59:12.596Z</time></trkpt><trkpt lat="37.2663187" lon="9.7619168"><ele>37.0</ele><time>2026-05-02T15:59:13.609Z</time></trkpt><trkpt lat="37.2664395" lon="9.7618009"><ele>37.0</ele><time>2026-05-02T15:59:14.609Z</time></trkpt><trkpt lat="37.2665571" lon="9.7616949"><ele>37.0</ele><time>2026-05-02T15:59:15.612Z</time></trkpt><trkpt lat="37.2666706" lon="9.7615887"><ele>37.0</ele><time>2026-05-02T15:59:16.617Z</time></trkpt><trkpt lat="37.2667779" lon="9.7614784"><ele>37.0</ele><time>2026-05-02T15:59:17.614Z</time></trkpt><trkpt lat="37.2668867" lon="9.761366"><ele>37.0</ele><time>2026-05-02T15:59:18.61Z</time></trkpt><trkpt lat="37.2669953" lon="9.7612613"><ele>37.0</ele><time>2026-05-02T15:59:19.612Z</time></trkpt><trkpt lat="37.2670957" lon="9.7611629"><ele>37.0</ele><time>2026-05-02T15:59:20.618Z</time></trkpt><trkpt lat="37.2671898" lon="9.7610816"><ele>37.0</ele><time>2026-05-02T15:59:21.613Z</time></trkpt><trkpt lat="37.2672707" lon="9.761006"><ele>37.0</ele><time>2026-05-02T15:59:22.616Z</time></trkpt><trkpt lat="37.2673418" lon="9.7609373"><ele>37.0</ele><time>2026-05-02T15:59:23.609Z</time></trkpt><trkpt lat="37.2674026" lon="9.7608691"><ele>37.16666666666667</ele><time>2026-05-02T15:59:24.62Z</time></trkpt><trkpt lat="37.2674683" lon="9.7608017"><ele>37.333333333333336</ele><time>2026-05-02T15:59:25.606Z</time></trkpt><trkpt lat="37.2675305" lon="9.7607449"><ele>37.5</ele><time>2026-05-02T15:59:26.615Z</time></trkpt><trkpt lat="37.2675942" lon="9.76069"><ele>37.666666666666664</ele><time>2026-05-02T15:59:27.612Z</time></trkpt><trkpt lat="37.2676578" lon="9.760635"><ele>37.83333333333333</ele><time>2026-05-02T15:59:28.61Z</time></trkpt><trkpt lat="37.2677144" lon="9.7605765"><ele>38.0</ele><time>2026-05-02T15:59:29.622Z</time></trkpt><trkpt lat="37.2677724" lon="9.7605072"><ele>38.0</ele><time>2026-05-02T15:59:30.621Z</time></trkpt><trkpt lat="37.2678274" lon="9.7604336"><ele>38.0</ele><time>2026-05-02T15:59:31.615Z</time></trkpt><trkpt lat="37.267894" lon="9.7603638"><ele>38.0</ele><time>2026-05-02T15:59:32.615Z</time></trkpt><trkpt lat="37.2679677" lon="9.7602947"><ele>38.0</ele><time>2026-05-02T15:59:33.613Z</time></trkpt><trkpt lat="37.2680485" lon="9.7602218"><ele>38.0</ele><time>2026-05-02T15:59:34.612Z</time></trkpt><trkpt lat="37.2681341" lon="9.7601382"><ele>37.75</ele><time>2026-05-02T15:59:35.598Z</time></trkpt><trkpt lat="37.2682219" lon="9.7600501"><ele>37.5</ele><time>2026-05-02T15:59:36.611Z</time></trkpt><trkpt lat="37.2683063" lon="9.7599628"><ele>37.25</ele><time>2026-05-02T15:59:37.615Z</time></trkpt><trkpt lat="37.2683996" lon="9.7598729"><ele>37.0</ele><time>2026-05-02T15:59:38.606Z</time></trkpt><trkpt lat="37.2684929" lon="9.7597811"><ele>37.0</ele><time>2026-05-02T15:59:39.602Z</time></trkpt><trkpt lat="37.2685867" lon="9.7596814"><ele>37.0</ele><time>2026-05-02T15:59:40.62Z</time></trkpt><trkpt lat="37.2686856" lon="9.7595758"><ele>37.0</ele><time>2026-05-02T15:59:41.609Z</time></trkpt><trkpt lat="37.2687825" lon="9.7594809"><ele>37.0</ele><time>2026-05-02T15:59:42.615Z</time></trkpt><trkpt lat="37.2688757" lon="9.7593869"><ele>37.2</ele><time>2026-05-02T15:59:43.61Z</time></trkpt><trkpt lat="37.2689651" lon="9.7592996"><ele>37.400000000000006</ele><time>2026-05-02T15:59:44.597Z</time></trkpt><trkpt lat="37.2690522" lon="9.7592147"><ele>37.599999999999994</ele><time>2026-05-02T15:59:45.611Z</time></trkpt><trkpt lat="37.2691386" lon="9.7591312"><ele>37.8</ele><time>2026-05-02T15:59:46.615Z</time></trkpt><trkpt lat="37.2692232" lon="9.759051"><ele>38.0</ele><time>2026-05-02T15:59:47.611Z</time></trkpt><trkpt lat="37.2693054" lon="9.7589741"><ele>38.0</ele><time>2026-05-02T15:59:48.62Z</time></trkpt><trkpt lat="37.269393" lon="9.7588961"><ele>38.0</ele><time>2026-05-02T15:59:49.608Z</time></trkpt><trkpt lat="37.2694817" lon="9.7588074"><ele>38.0</ele><time>2026-05-02T15:59:50.608Z</time></trkpt><trkpt lat="37.2695779" lon="9.7587117"><ele>38.0</ele><time>2026-05-02T15:59:51.597Z</time></trkpt><trkpt lat="37.2696704" lon="9.7586127"><ele>38.75</ele><time>2026-05-02T15:59:52.607Z</time></trkpt><trkpt lat="37.2697636" lon="9.758517"><ele>39.5</ele><time>2026-05-02T15:59:53.612Z</time></trkpt><trkpt lat="37.2698593" lon="9.7584182"><ele>40.25</ele><time>2026-05-02T15:59:54.607Z</time></trkpt><trkpt lat="37.269955" lon="9.7583296"><ele>41.0</ele><time>2026-05-02T15:59:55.621Z</time></trkpt><trkpt lat="37.2700601" lon="9.7582461"><ele>41.0</ele><time>2026-05-02T15:59:56.611Z</time></trkpt><trkpt lat="37.2701711" lon="9.7581664"><ele>41.0</ele><time>2026-05-02T15:59:57.593Z</time></trkpt><trkpt lat="37.2702908" lon="9.7580962"><ele>41.0</ele><time>2026-05-02T15:59:58.61Z</time></trkpt><trkpt lat="37.2704125" lon="9.7580326"><ele>41.0</ele><time>2026-05-02T15:59:59.614Z</time></trkpt><trkpt lat="37.2705388" lon="9.7579718"><ele>40.666666666666664</ele><time>2026-05-02T16:00:00.613Z</time></trkpt><trkpt lat="37.2706778" lon="9.7579059"><ele>40.333333333333336</ele><time>2026-05-02T16:00:01.611Z</time></trkpt><trkpt lat="37.2708325" lon="9.7578339"><ele>40.0</ele><time>2026-05-02T16:00:02.606Z</time></trkpt><trkpt lat="37.2709901" lon="9.7577591"><ele>41.333333333333336</ele><time>2026-05-02T16:00:03.617Z</time></trkpt><trkpt lat="37.2711525" lon="9.7576877"><ele>42.666666666666664</ele><time>2026-05-02T16:00:04.616Z</time></trkpt><trkpt lat="37.2713112" lon="9.7576156"><ele>44.0</ele><time>2026-05-02T16:00:05.622Z</time></trkpt><trkpt lat="37.2714642" lon="9.7575407"><ele>44.0</ele><time>2026-05-02T16:00:06.611Z</time></trkpt><trkpt lat="37.2716152" lon="9.7574596"><ele>44.0</ele><time>2026-05-02T16:00:07.609Z</time></trkpt><trkpt lat="37.2717701" lon="9.757386"><ele>44.0</ele><time>2026-05-02T16:00:08.61Z</time></trkpt><trkpt lat="37.2719267" lon="9.7573109"><ele>44.0</ele><time>2026-05-02T16:00:09.613Z</time></trkpt><trkpt lat="37.272083" lon="9.7572396"><ele>44.0</ele><time>2026-05-02T16:00:10.616Z</time></trkpt><trkpt lat="37.2722388" lon="9.7571702"><ele>44.0</ele><time>2026-05-02T16:00:11.608Z</time></trkpt><trkpt lat="37.2723952" lon="9.7571038"><ele>44.0</ele><time>2026-05-02T16:00:12.618Z</time></trkpt><trkpt lat="37.2725521" lon="9.7570323"><ele>44.0</ele><time>2026-05-02T16:00:13.6Z</time></trkpt><trkpt lat="37.2727045" lon="9.7569541"><ele>44.0</ele><time>2026-05-02T16:00:14.615Z</time></trkpt><trkpt lat="37.2728539" lon="9.7568852"><ele>45.25</ele><time>2026-05-02T16:00:15.615Z</time></trkpt><trkpt lat="37.272987" lon="9.7568177"><ele>46.5</ele><time>2026-05-02T16:00:16.613Z</time></trkpt><trkpt lat="37.2731109" lon="9.7567634"><ele>47.75</ele><time>2026-05-02T16:00:17.617Z</time></trkpt><trkpt lat="37.27322" lon="9.7567106"><ele>49.0</ele><time>2026-05-02T16:00:18.618Z</time></trkpt><trkpt lat="37.2733192" lon="9.7566647"><ele>48.99999999999999</ele><time>2026-05-02T16:00:19.61Z</time></trkpt><trkpt lat="37.2734066" lon="9.7566272"><ele>49.0</ele><time>2026-05-02T16:00:20.612Z</time></trkpt><trkpt lat="37.2734817" lon="9.75659"><ele>49.0</ele><time>2026-05-02T16:00:21.618Z</time></trkpt><trkpt lat="37.2735546" lon="9.7565514"><ele>49.0</ele><time>2026-05-02T16:00:22.621Z</time></trkpt><trkpt lat="37.273621" lon="9.7565147"><ele>48.99999999999999</ele><time>2026-05-02T16:00:23.628Z</time></trkpt><trkpt lat="37.2736777" lon="9.7564754"><ele>49.0</ele><time>2026-05-02T16:00:24.617Z</time></trkpt><trkpt lat="37.273732" lon="9.7564217"><ele>48.99999999999999</ele><time>2026-05-02T16:00:25.62Z</time></trkpt><trkpt lat="37.2737808" lon="9.7563578"><ele>49.0</ele><time>2026-05-02T16:00:26.593Z</time></trkpt><trkpt lat="37.2738209" lon="9.7562771"><ele>49.0</ele><time>2026-05-02T16:00:27.619Z</time></trkpt><trkpt lat="37.2738523" lon="9.7561832"><ele>49.0</ele><time>2026-05-02T16:00:28.604Z</time></trkpt><trkpt lat="37.2738707" lon="9.7560781"><ele>48.99999999999999</ele><time>2026-05-02T16:00:29.609Z</time></trkpt><trkpt lat="37.2738925" lon="9.755965"><ele>49.0</ele><time>2026-05-02T16:00:30.612Z</time></trkpt><trkpt lat="37.2739046" lon="9.7558574"><ele>49.0</ele><time>2026-05-02T16:00:31.614Z</time></trkpt><trkpt lat="37.2739162" lon="9.7557502"><ele>49.0</ele><time>2026-05-02T16:00:32.619Z</time></trkpt><trkpt lat="37.2739385" lon="9.7556252"><ele>49.0</ele><time>2026-05-02T16:00:33.602Z</time></trkpt><trkpt lat="37.2739569" lon="9.7554814"><ele>49.0</ele><time>2026-05-02T16:00:34.609Z</time></trkpt><trkpt lat="37.2739792" lon="9.7553247"><ele>49.0</ele><time>2026-05-02T16:00:35.606Z</time></trkpt><trkpt lat="37.2740099" lon="9.7551322"><ele>49.0</ele><time>2026-05-02T16:00:36.609Z</time></trkpt><trkpt lat="37.2740498" lon="9.7549156"><ele>49.0</ele><time>2026-05-02T16:00:37.613Z</time></trkpt><trkpt lat="37.2740945" lon="9.7547018"><ele>49.0</ele><time>2026-05-02T16:00:38.614Z</time></trkpt><trkpt lat="37.2741371" lon="9.7544806"><ele>50.0</ele><time>2026-05-02T16:00:39.627Z</time></trkpt><trkpt lat="37.2741814" lon="9.7542754"><ele>51.0</ele><time>2026-05-02T16:00:40.605Z</time></trkpt><trkpt lat="37.2742354" lon="9.7540827"><ele>52.0</ele><time>2026-05-02T16:00:41.613Z</time></trkpt><trkpt lat="37.2742978" lon="9.7538973"><ele>52.0</ele><time>2026-05-02T16:00:42.605Z</time></trkpt><trkpt lat="37.2743509" lon="9.7537464"><ele>52.0</ele><time>2026-05-02T16:00:43.599Z</time></trkpt><trkpt lat="37.2744063" lon="9.7536144"><ele>52.0</ele><time>2026-05-02T16:00:44.606Z</time></trkpt><trkpt lat="37.2744516" lon="9.7534858"><ele>52.0</ele><time>2026-05-02T16:00:45.621Z</time></trkpt><trkpt lat="37.2745053" lon="9.7533476"><ele>51.75</ele><time>2026-05-02T16:00:46.605Z</time></trkpt><trkpt lat="37.274571" lon="9.7532067"><ele>51.5</ele><time>2026-05-02T16:00:47.62Z</time></trkpt><trkpt lat="37.2746392" lon="9.7530591"><ele>51.25</ele><time>2026-05-02T16:00:48.601Z</time></trkpt><trkpt lat="37.2747062" lon="9.7529109"><ele>51.0</ele><time>2026-05-02T16:00:49.606Z</time></trkpt><trkpt lat="37.274779" lon="9.752749"><ele>52.66666666666667</ele><time>2026-05-02T16:00:50.613Z</time></trkpt><trkpt lat="37.2748565" lon="9.7525806"><ele>54.333333333333336</ele><time>2026-05-02T16:00:51.618Z</time></trkpt><trkpt lat="37.274932" lon="9.7524054"><ele>56.0</ele><time>2026-05-02T16:00:52.609Z</time></trkpt><trkpt lat="37.2750125" lon="9.7522136"><ele>56.0</ele><time>2026-05-02T16:00:53.616Z</time></trkpt><trkpt lat="37.2750961" lon="9.752021"><ele>56.0</ele><time>2026-05-02T16:00:54.618Z</time></trkpt><trkpt lat="37.2751757" lon="9.7518304"><ele>56.0</ele><time>2026-05-02T16:00:55.609Z</time></trkpt><trkpt lat="37.2752525" lon="9.7516422"><ele>57.66666666666667</ele><time>2026-05-02T16:00:56.609Z</time></trkpt><trkpt lat="37.2753329" lon="9.7514506"><ele>59.33333333333333</ele><time>2026-05-02T16:00:57.627Z</time></trkpt><trkpt lat="37.2754129" lon="9.7512668"><ele>61.0</ele><time>2026-05-02T16:00:58.613Z</time></trkpt><trkpt lat="37.2754851" lon="9.7510886"><ele>60.0</ele><time>2026-05-02T16:00:59.614Z</time></trkpt><trkpt lat="37.2755529" lon="9.7509208"><ele>59.0</ele><time>2026-05-02T16:01:00.611Z</time></trkpt><trkpt lat="37.2756093" lon="9.750774"><ele>58.0</ele><time>2026-05-02T16:01:01.606Z</time></trkpt><trkpt lat="37.2756586" lon="9.7506289"><ele>57.0</ele><time>2026-05-02T16:01:02.608Z</time></trkpt><trkpt lat="37.2756865" lon="9.7504642"><ele>57.0</ele><time>2026-05-02T16:01:03.608Z</time></trkpt><trkpt lat="37.2756902" lon="9.750294"><ele>57.0</ele><time>2026-05-02T16:01:04.62Z</time></trkpt><trkpt lat="37.2756656" lon="9.7501218"><ele>57.0</ele><time>2026-05-02T16:01:05.61Z</time></trkpt><trkpt lat="37.2756301" lon="9.7499237"><ele>57.0</ele><time>2026-05-02T16:01:06.61Z</time></trkpt><trkpt lat="37.2755858" lon="9.7497186"><ele>60.66666666666667</ele><time>2026-05-02T16:01:07.606Z</time></trkpt><trkpt lat="37.2755433" lon="9.7495099"><ele>64.33333333333334</ele><time>2026-05-02T16:01:08.612Z</time></trkpt><trkpt lat="37.275494" lon="9.7493032"><ele>68.0</ele><time>2026-05-02T16:01:09.614Z</time></trkpt><trkpt lat="37.2754572" lon="9.7490998"><ele>68.0</ele><time>2026-05-02T16:01:10.612Z</time></trkpt><trkpt lat="37.2754264" lon="9.748908"><ele>68.0</ele><time>2026-05-02T16:01:11.619Z</time></trkpt><trkpt lat="37.2753896" lon="9.7487153"><ele>68.0</ele><time>2026-05-02T16:01:12.621Z</time></trkpt><trkpt lat="37.2753499" lon="9.7485225"><ele>67.5</ele><time>2026-05-02T16:01:13.617Z</time></trkpt><trkpt lat="37.2753149" lon="9.7483435"><ele>67.0</ele><time>2026-05-02T16:01:14.603Z</time></trkpt><trkpt lat="37.2752785" lon="9.7481727"><ele>66.5</ele><time>2026-05-02T16:01:15.612Z</time></trkpt><trkpt lat="37.2752429" lon="9.748012"><ele>66.0</ele><time>2026-05-02T16:01:16.608Z</time></trkpt><trkpt lat="37.2752129" lon="9.7478673"><ele>66.0</ele><time>2026-05-02T16:01:17.62Z</time></trkpt><trkpt lat="37.2751941" lon="9.7477344"><ele>66.0</ele><time>2026-05-02T16:01:18.61Z</time></trkpt><trkpt lat="37.2752017" lon="9.7476216"><ele>66.0</ele><time>2026-05-02T16:01:19.612Z</time></trkpt><trkpt lat="37.2752209" lon="9.747519"><ele>66.0</ele><time>2026-05-02T16:01:20.612Z</time></trkpt><trkpt lat="37.275273" lon="9.7474315"><ele>66.0</ele><time>2026-05-02T16:01:21.614Z</time></trkpt><trkpt lat="37.2753423" lon="9.7473692"><ele>65.2</ele><time>2026-05-02T16:01:22.602Z</time></trkpt><trkpt lat="37.2754306" lon="9.7473409"><ele>64.39999999999999</ele><time>2026-05-02T16:01:23.615Z</time></trkpt><trkpt lat="37.2755314" lon="9.7473393"><ele>63.6</ele><time>2026-05-02T16:01:24.615Z</time></trkpt><trkpt lat="37.2756338" lon="9.7473583"><ele>62.8</ele><time>2026-05-02T16:01:25.604Z</time></trkpt><trkpt lat="37.2757437" lon="9.7473994"><ele>62.0</ele><time>2026-05-02T16:01:26.614Z</time></trkpt><trkpt lat="37.2758538" lon="9.7474407"><ele>61.0</ele><time>2026-05-02T16:01:27.61Z</time></trkpt><trkpt lat="37.2759745" lon="9.7474798"><ele>60.0</ele><time>2026-05-02T16:01:28.611Z</time></trkpt><trkpt lat="37.2760961" lon="9.7475162"><ele>59.0</ele><time>2026-05-02T16:01:29.6Z</time></trkpt><trkpt lat="37.2762155" lon="9.7475519"><ele>58.0</ele><time>2026-05-02T16:01:30.618Z</time></trkpt><trkpt lat="37.2763376" lon="9.7475961"><ele>58.25</ele><time>2026-05-02T16:01:31.596Z</time></trkpt><trkpt lat="37.2764648" lon="9.747646"><ele>58.5</ele><time>2026-05-02T16:01:32.607Z</time></trkpt><trkpt lat="37.2765916" lon="9.7476974"><ele>58.75</ele><time>2026-05-02T16:01:33.611Z</time></trkpt><trkpt lat="37.2767203" lon="9.7477516"><ele>59.0</ele><time>2026-05-02T16:01:34.617Z</time></trkpt><trkpt lat="37.2768487" lon="9.7477971"><ele>59.75</ele><time>2026-05-02T16:01:35.614Z</time></trkpt><trkpt lat="37.2769842" lon="9.7478426"><ele>60.5</ele><time>2026-05-02T16:01:36.615Z</time></trkpt><trkpt lat="37.2771116" lon="9.7478871"><ele>61.25</ele><time>2026-05-02T16:01:37.611Z</time></trkpt><trkpt lat="37.2772302" lon="9.7479332"><ele>62.0</ele><time>2026-05-02T16:01:38.604Z</time></trkpt><trkpt lat="37.2773338" lon="9.7479877"><ele>62.0</ele><time>2026-05-02T16:01:39.607Z</time></trkpt><trkpt lat="37.2774294" lon="9.7480616"><ele>62.0</ele><time>2026-05-02T16:01:40.612Z</time></trkpt><trkpt lat="37.2775128" lon="9.7481509"><ele>62.0</ele><time>2026-05-02T16:01:41.622Z</time></trkpt><trkpt lat="37.2775863" lon="9.7482541"><ele>62.0</ele><time>2026-05-02T16:01:42.604Z</time></trkpt><trkpt lat="37.2776473" lon="9.7483715"><ele>62.0</ele><time>2026-05-02T16:01:43.609Z</time></trkpt><trkpt lat="37.2777026" lon="9.7484901"><ele>61.400000000000006</ele><time>2026-05-02T16:01:44.614Z</time></trkpt><trkpt lat="37.2777552" lon="9.7486146"><ele>60.800000000000004</ele><time>2026-05-02T16:01:45.605Z</time></trkpt><trkpt lat="37.2778111" lon="9.748728"><ele>60.2</ele><time>2026-05-02T16:01:46.617Z</time></trkpt><trkpt lat="37.2778757" lon="9.7488281"><ele>59.6</ele><time>2026-05-02T16:01:47.612Z</time></trkpt><trkpt lat="37.277948" lon="9.748911"><ele>59.0</ele><time>2026-05-02T16:01:48.61Z</time></trkpt><trkpt lat="37.2780382" lon="9.7489855"><ele>59.2</ele><time>2026-05-02T16:01:49.635Z</time></trkpt><trkpt lat="37.2781367" lon="9.7490393"><ele>59.400000000000006</ele><time>2026-05-02T16:01:50.605Z</time></trkpt><trkpt lat="37.2782485" lon="9.7490839"><ele>59.6</ele><time>2026-05-02T16:01:51.612Z</time></trkpt><trkpt lat="37.278351" lon="9.7491285"><ele>59.8</ele><time>2026-05-02T16:01:52.609Z</time></trkpt><trkpt lat="37.2784341" lon="9.749172"><ele>60.0</ele><time>2026-05-02T16:01:53.611Z</time></trkpt><trkpt lat="37.2785111" lon="9.7492098"><ele>60.0</ele><time>2026-05-02T16:01:54.61Z</time></trkpt><trkpt lat="37.2785763" lon="9.7492414"><ele>60.0</ele><time>2026-05-02T16:01:55.608Z</time></trkpt><trkpt lat="37.2786372" lon="9.7492708"><ele>60.0</ele><time>2026-05-02T16:01:56.607Z</time></trkpt><trkpt lat="37.2787503" lon="9.749324"><ele>60.0</ele><time>2026-05-02T16:01:58.609Z</time></trkpt><trkpt lat="37.2788151" lon="9.7493502"><ele>60.0</ele><time>2026-05-02T16:01:59.612Z</time></trkpt><trkpt lat="37.2788907" lon="9.7493787"><ele>60.0</ele><time>2026-05-02T16:02:00.608Z</time></trkpt><trkpt lat="37.278967" lon="9.7494085"><ele>60.8</ele><time>2026-05-02T16:02:01.61Z</time></trkpt><trkpt lat="37.2790456" lon="9.7494376"><ele>61.6</ele><time>2026-05-02T16:02:02.618Z</time></trkpt><trkpt lat="37.2791304" lon="9.7494683"><ele>62.400000000000006</ele><time>2026-05-02T16:02:03.624Z</time></trkpt><trkpt lat="37.2792143" lon="9.7495107"><ele>63.2</ele><time>2026-05-02T16:02:04.607Z</time></trkpt><trkpt lat="37.2793041" lon="9.7495576"><ele>64.0</ele><time>2026-05-02T16:02:05.607Z</time></trkpt><trkpt lat="37.2793889" lon="9.7496014"><ele>64.0</ele><time>2026-05-02T16:02:06.608Z</time></trkpt><trkpt lat="37.279478" lon="9.7496424"><ele>64.0</ele><time>2026-05-02T16:02:07.605Z</time></trkpt><trkpt lat="37.2795699" lon="9.7496823"><ele>64.0</ele><time>2026-05-02T16:02:08.606Z</time></trkpt><trkpt lat="37.2796702" lon="9.7497164"><ele>64.0</ele><time>2026-05-02T16:02:09.603Z</time></trkpt><trkpt lat="37.2797752" lon="9.7497601"><ele>64.0</ele><time>2026-05-02T16:02:10.62Z</time></trkpt><trkpt lat="37.2798844" lon="9.7498081"><ele>64.75</ele><time>2026-05-02T16:02:11.6Z</time></trkpt><trkpt lat="37.2799969" lon="9.7498604"><ele>65.5</ele><time>2026-05-02T16:02:12.603Z</time></trkpt><trkpt lat="37.280108" lon="9.7499111"><ele>66.25</ele><time>2026-05-02T16:02:13.611Z</time></trkpt><trkpt lat="37.2802177" lon="9.7499552"><ele>67.0</ele><time>2026-05-02T16:02:14.609Z</time></trkpt><trkpt lat="37.2803332" lon="9.7500053"><ele>67.0</ele><time>2026-05-02T16:02:15.62Z</time></trkpt><trkpt lat="37.2804675" lon="9.7500618"><ele>67.0</ele><time>2026-05-02T16:02:16.606Z</time></trkpt><trkpt lat="37.2806405" lon="9.750131"><ele>67.0</ele><time>2026-05-02T16:02:17.603Z</time></trkpt><trkpt lat="37.2808304" lon="9.7502146"><ele>67.66666666666666</ele><time>2026-05-02T16:02:18.606Z</time></trkpt><trkpt lat="37.2810333" lon="9.7503085"><ele>68.33333333333333</ele><time>2026-05-02T16:02:19.627Z</time></trkpt><trkpt lat="37.2812263" lon="9.7503917"><ele>69.0</ele><time>2026-05-02T16:02:20.611Z</time></trkpt><trkpt lat="37.2814002" lon="9.7504801"><ele>70.0</ele><time>2026-05-02T16:02:21.605Z</time></trkpt><trkpt lat="37.2815577" lon="9.7505531"><ele>71.0</ele><time>2026-05-02T16:02:22.611Z</time></trkpt><trkpt lat="37.2817038" lon="9.7506157"><ele>72.0</ele><time>2026-05-02T16:02:23.61Z</time></trkpt><trkpt lat="37.2818431" lon="9.7506669"><ele>72.0</ele><time>2026-05-02T16:02:24.607Z</time></trkpt><trkpt lat="37.2819786" lon="9.7507262"><ele>72.0</ele><time>2026-05-02T16:02:25.621Z</time></trkpt><trkpt lat="37.2821107" lon="9.7507898"><ele>72.0</ele><time>2026-05-02T16:02:26.618Z</time></trkpt><trkpt lat="37.2822459" lon="9.7508546"><ele>72.0</ele><time>2026-05-02T16:02:27.609Z</time></trkpt><trkpt lat="37.2823851" lon="9.7509261"><ele>73.0</ele><time>2026-05-02T16:02:28.625Z</time></trkpt><trkpt lat="37.2825317" lon="9.7509929"><ele>74.0</ele><time>2026-05-02T16:02:29.616Z</time></trkpt><trkpt lat="37.2826818" lon="9.7510601"><ele>75.0</ele><time>2026-05-02T16:02:30.601Z</time></trkpt><trkpt lat="37.2828341" lon="9.7511198"><ele>75.66666666666667</ele><time>2026-05-02T16:02:31.604Z</time></trkpt><trkpt lat="37.2829873" lon="9.751183"><ele>76.33333333333334</ele><time>2026-05-02T16:02:32.608Z</time></trkpt><trkpt lat="37.2831426" lon="9.751248"><ele>77.0</ele><time>2026-05-02T16:02:33.621Z</time></trkpt><trkpt lat="37.2832969" lon="9.7513195"><ele>79.0</ele><time>2026-05-02T16:02:34.61Z</time></trkpt><trkpt lat="37.2834477" lon="9.7513896"><ele>81.0</ele><time>2026-05-02T16:02:35.617Z</time></trkpt><trkpt lat="37.283599" lon="9.7514621"><ele>83.0</ele><time>2026-05-02T16:02:36.608Z</time></trkpt><trkpt lat="37.2837438" lon="9.7515281"><ele>83.0</ele><time>2026-05-02T16:02:37.6Z</time></trkpt><trkpt lat="37.2838857" lon="9.7515833"><ele>83.0</ele><time>2026-05-02T16:02:38.612Z</time></trkpt><trkpt lat="37.2840198" lon="9.7516149"><ele>83.0</ele><time>2026-05-02T16:02:39.614Z</time></trkpt><trkpt lat="37.2841457" lon="9.7516256"><ele>83.0</ele><time>2026-05-02T16:02:40.615Z</time></trkpt><trkpt lat="37.2842811" lon="9.7516083"><ele>84.25</ele><time>2026-05-02T16:02:41.619Z</time></trkpt><trkpt lat="37.2844162" lon="9.7515797"><ele>85.5</ele><time>2026-05-02T16:02:42.615Z</time></trkpt><trkpt lat="37.2845443" lon="9.7515409"><ele>86.75</ele><time>2026-05-02T16:02:43.618Z</time></trkpt><trkpt lat="37.2846634" lon="9.7514981"><ele>88.0</ele><time>2026-05-02T16:02:44.61Z</time></trkpt><trkpt lat="37.2847824" lon="9.7514608"><ele>89.25</ele><time>2026-05-02T16:02:45.605Z</time></trkpt><trkpt lat="37.2849082" lon="9.7514271"><ele>90.5</ele><time>2026-05-02T16:02:46.604Z</time></trkpt><trkpt lat="37.2850439" lon="9.7513908"><ele>91.75</ele><time>2026-05-02T16:02:47.611Z</time></trkpt><trkpt lat="37.2851837" lon="9.7513525"><ele>93.0</ele><time>2026-05-02T16:02:48.618Z</time></trkpt><trkpt lat="37.2853262" lon="9.7513086"><ele>93.0</ele><time>2026-05-02T16:02:49.613Z</time></trkpt><trkpt lat="37.285469" lon="9.7512657"><ele>93.0</ele><time>2026-05-02T16:02:50.613Z</time></trkpt><trkpt lat="37.2856163" lon="9.7512209"><ele>93.0</ele><time>2026-05-02T16:02:51.604Z</time></trkpt><trkpt lat="37.2857632" lon="9.751176"><ele>94.0</ele><time>2026-05-02T16:02:52.612Z</time></trkpt><trkpt lat="37.2859076" lon="9.7511323"><ele>95.0</ele><time>2026-05-02T16:02:53.623Z</time></trkpt><trkpt lat="37.2860475" lon="9.7510852"><ele>96.0</ele><time>2026-05-02T16:02:54.622Z</time></trkpt><trkpt lat="37.2861842" lon="9.7510437"><ele>97.0</ele><time>2026-05-02T16:02:55.621Z</time></trkpt><trkpt lat="37.2863214" lon="9.7510009"><ele>96.75</ele><time>2026-05-02T16:02:56.615Z</time></trkpt><trkpt lat="37.286462" lon="9.7509569"><ele>96.5</ele><time>2026-05-02T16:02:57.62Z</time></trkpt><trkpt lat="37.2866053" lon="9.7509063"><ele>96.25</ele><time>2026-05-02T16:02:58.617Z</time></trkpt><trkpt lat="37.2867526" lon="9.7508596"><ele>96.0</ele><time>2026-05-02T16:02:59.618Z</time></trkpt><trkpt lat="37.2869029" lon="9.7508134"><ele>96.0</ele><time>2026-05-02T16:03:00.614Z</time></trkpt><trkpt lat="37.2870437" lon="9.750773"><ele>96.0</ele><time>2026-05-02T16:03:01.62Z</time></trkpt><trkpt lat="37.2871804" lon="9.7507329"><ele>96.0</ele><time>2026-05-02T16:03:02.638Z</time></trkpt><trkpt lat="37.2873151" lon="9.7506879"><ele>96.0</ele><time>2026-05-02T16:03:03.604Z</time></trkpt><trkpt lat="37.2874524" lon="9.7506497"><ele>97.5</ele><time>2026-05-02T16:03:04.611Z</time></trkpt><trkpt lat="37.2875924" lon="9.7506162"><ele>99.0</ele><time>2026-05-02T16:03:05.604Z</time></trkpt><trkpt lat="37.2877352" lon="9.7505932"><ele>100.5</ele><time>2026-05-02T16:03:06.623Z</time></trkpt><trkpt lat="37.2878779" lon="9.7505792"><ele>102.0</ele><time>2026-05-02T16:03:07.613Z</time></trkpt><trkpt lat="37.2880163" lon="9.7505609"><ele>103.0</ele><time>2026-05-02T16:03:08.612Z</time></trkpt><trkpt lat="37.2881526" lon="9.7505447"><ele>104.0</ele><time>2026-05-02T16:03:09.608Z</time></trkpt><trkpt lat="37.2882862" lon="9.7505262"><ele>105.0</ele><time>2026-05-02T16:03:10.621Z</time></trkpt><trkpt lat="37.28842" lon="9.7505105"><ele>106.0</ele><time>2026-05-02T16:03:11.613Z</time></trkpt><trkpt lat="37.2885502" lon="9.7504951"><ele>106.0</ele><time>2026-05-02T16:03:12.612Z</time></trkpt><trkpt lat="37.2886818" lon="9.7504867"><ele>106.0</ele><time>2026-05-02T16:03:13.611Z</time></trkpt><trkpt lat="37.2888118" lon="9.7504781"><ele>106.0</ele><time>2026-05-02T16:03:14.621Z</time></trkpt><trkpt lat="37.2889434" lon="9.7504712"><ele>106.0</ele><time>2026-05-02T16:03:15.631Z</time></trkpt><trkpt lat="37.2890764" lon="9.7504655"><ele>106.75</ele><time>2026-05-02T16:03:16.61Z</time></trkpt><trkpt lat="37.2892024" lon="9.7504575"><ele>107.5</ele><time>2026-05-02T16:03:17.625Z</time></trkpt><trkpt lat="37.2893295" lon="9.7504439"><ele>108.25</ele><time>2026-05-02T16:03:18.618Z</time></trkpt><trkpt lat="37.2894501" lon="9.7504309"><ele>109.0</ele><time>2026-05-02T16:03:19.618Z</time></trkpt><trkpt lat="37.2895576" lon="9.7504263"><ele>109.0</ele><time>2026-05-02T16:03:20.608Z</time></trkpt><trkpt lat="37.2896587" lon="9.7504335"><ele>109.0</ele><time>2026-05-02T16:03:21.625Z</time></trkpt><trkpt lat="37.2897657" lon="9.7504698"><ele>109.0</ele><time>2026-05-02T16:03:22.618Z</time></trkpt><trkpt lat="37.2898853" lon="9.7505235"><ele>109.0</ele><time>2026-05-02T16:03:23.604Z</time></trkpt><trkpt lat="37.2900146" lon="9.7505863"><ele>108.0</ele><time>2026-05-02T16:03:24.615Z</time></trkpt><trkpt lat="37.290149" lon="9.7506521"><ele>107.0</ele><time>2026-05-02T16:03:25.626Z</time></trkpt><trkpt lat="37.2902933" lon="9.7507236"><ele>106.0</ele><time>2026-05-02T16:03:26.617Z</time></trkpt><trkpt lat="37.2904371" lon="9.7507966"><ele>106.0</ele><time>2026-05-02T16:03:27.625Z</time></trkpt><trkpt lat="37.2905832" lon="9.7508735"><ele>106.0</ele><time>2026-05-02T16:03:28.621Z</time></trkpt><trkpt lat="37.2907291" lon="9.750948"><ele>106.0</ele><time>2026-05-02T16:03:29.646Z</time></trkpt><trkpt lat="37.2908772" lon="9.7510203"><ele>106.33333333333334</ele><time>2026-05-02T16:03:30.611Z</time></trkpt><trkpt lat="37.2910177" lon="9.7510899"><ele>106.66666666666666</ele><time>2026-05-02T16:03:31.609Z</time></trkpt><trkpt lat="37.2911606" lon="9.7511612"><ele>107.0</ele><time>2026-05-02T16:03:32.62Z</time></trkpt><trkpt lat="37.291305" lon="9.7512321"><ele>108.66666666666666</ele><time>2026-05-02T16:03:33.616Z</time></trkpt><trkpt lat="37.2914511" lon="9.7513019"><ele>110.33333333333334</ele><time>2026-05-02T16:03:34.626Z</time></trkpt><trkpt lat="37.2915909" lon="9.7513684"><ele>112.0</ele><time>2026-05-02T16:03:35.616Z</time></trkpt><trkpt lat="37.2917312" lon="9.7514357"><ele>112.0</ele><time>2026-05-02T16:03:36.604Z</time></trkpt><trkpt lat="37.2918659" lon="9.7515052"><ele>112.0</ele><time>2026-05-02T16:03:37.605Z</time></trkpt><trkpt lat="37.2919971" lon="9.7515725"><ele>112.0</ele><time>2026-05-02T16:03:38.604Z</time></trkpt><trkpt lat="37.2921251" lon="9.7516346"><ele>112.0</ele><time>2026-05-02T16:03:39.624Z</time></trkpt><trkpt lat="37.292251" lon="9.7516875"><ele>112.5</ele><time>2026-05-02T16:03:40.602Z</time></trkpt><trkpt lat="37.2923666" lon="9.7517374"><ele>113.0</ele><time>2026-05-02T16:03:41.6Z</time></trkpt><trkpt lat="37.2924797" lon="9.7517874"><ele>113.5</ele><time>2026-05-02T16:03:42.61Z</time></trkpt><trkpt lat="37.2925893" lon="9.7518442"><ele>114.0</ele><time>2026-05-02T16:03:43.621Z</time></trkpt><trkpt lat="37.2926981" lon="9.7519092"><ele>115.2</ele><time>2026-05-02T16:03:44.609Z</time></trkpt><trkpt lat="37.2928034" lon="9.7519714"><ele>116.4</ele><time>2026-05-02T16:03:45.625Z</time></trkpt><trkpt lat="37.2929014" lon="9.7520274"><ele>117.6</ele><time>2026-05-02T16:03:46.602Z</time></trkpt><trkpt lat="37.2929985" lon="9.7520784"><ele>118.8</ele><time>2026-05-02T16:03:47.601Z</time></trkpt><trkpt lat="37.293099" lon="9.7521251"><ele>120.0</ele><time>2026-05-02T16:03:48.617Z</time></trkpt><trkpt lat="37.2931968" lon="9.7521767"><ele>120.0</ele><time>2026-05-02T16:03:49.617Z</time></trkpt><trkpt lat="37.2932817" lon="9.7522397"><ele>120.0</ele><time>2026-05-02T16:03:50.619Z</time></trkpt><trkpt lat="37.2933663" lon="9.7523195"><ele>120.0</ele><time>2026-05-02T16:03:51.608Z</time></trkpt><trkpt lat="37.2934418" lon="9.752418"><ele>120.0</ele><time>2026-05-02T16:03:52.619Z</time></trkpt><trkpt lat="37.2935134" lon="9.7525236"><ele>120.0</ele><time>2026-05-02T16:03:53.611Z</time></trkpt><trkpt lat="37.2935855" lon="9.7526244"><ele>121.2</ele><time>2026-05-02T16:03:54.6Z</time></trkpt><trkpt lat="37.2936581" lon="9.7527209"><ele>122.4</ele><time>2026-05-02T16:03:55.61Z</time></trkpt><trkpt lat="37.2937274" lon="9.7528199"><ele>123.6</ele><time>2026-05-02T16:03:56.599Z</time></trkpt><trkpt lat="37.2937925" lon="9.7529185"><ele>124.8</ele><time>2026-05-02T16:03:57.615Z</time></trkpt><trkpt lat="37.2938429" lon="9.7530294"><ele>126.0</ele><time>2026-05-02T16:03:58.614Z</time></trkpt><trkpt lat="37.2938792" lon="9.7531424"><ele>126.0</ele><time>2026-05-02T16:03:59.62Z</time></trkpt><trkpt lat="37.2938975" lon="9.7532679"><ele>126.0</ele><time>2026-05-02T16:04:00.621Z</time></trkpt><trkpt lat="37.2938981" lon="9.7534034"><ele>126.0</ele><time>2026-05-02T16:04:01.621Z</time></trkpt><trkpt lat="37.2938887" lon="9.7535554"><ele>126.0</ele><time>2026-05-02T16:04:02.601Z</time></trkpt><trkpt lat="37.2938868" lon="9.7537181"><ele>125.75</ele><time>2026-05-02T16:04:03.625Z</time></trkpt><trkpt lat="37.2938963" lon="9.7538862"><ele>125.5</ele><time>2026-05-02T16:04:04.616Z</time></trkpt><trkpt lat="37.2939236" lon="9.7540658"><ele>125.25</ele><time>2026-05-02T16:04:05.606Z</time></trkpt><trkpt lat="37.2939635" lon="9.75425"><ele>125.0</ele><time>2026-05-02T16:04:06.62Z</time></trkpt><trkpt lat="37.2940148" lon="9.7544344"><ele>123.25</ele><time>2026-05-02T16:04:07.599Z</time></trkpt><trkpt lat="37.2940706" lon="9.7546135"><ele>121.5</ele><time>2026-05-02T16:04:08.606Z</time></trkpt><trkpt lat="37.2941266" lon="9.7547842"><ele>119.75</ele><time>2026-05-02T16:04:09.623Z</time></trkpt><trkpt lat="37.2941804" lon="9.7549458"><ele>118.0</ele><time>2026-05-02T16:04:10.624Z</time></trkpt><trkpt lat="37.2942363" lon="9.7551068"><ele>119.0</ele><time>2026-05-02T16:04:11.614Z</time></trkpt><trkpt lat="37.2942966" lon="9.7552682"><ele>120.0</ele><time>2026-05-02T16:04:12.62Z</time></trkpt><trkpt lat="37.294362" lon="9.7554272"><ele>121.0</ele><time>2026-05-02T16:04:13.612Z</time></trkpt><trkpt lat="37.2944313" lon="9.7555861"><ele>122.0</ele><time>2026-05-02T16:04:14.616Z</time></trkpt><trkpt lat="37.2944961" lon="9.7557345"><ele>122.0</ele><time>2026-05-02T16:04:15.604Z</time></trkpt><trkpt lat="37.2945643" lon="9.7558772"><ele>122.0</ele><time>2026-05-02T16:04:16.613Z</time></trkpt><trkpt lat="37.2946299" lon="9.7560103"><ele>122.0</ele><time>2026-05-02T16:04:17.606Z</time></trkpt><trkpt lat="37.2946903" lon="9.7561486"><ele>122.0</ele><time>2026-05-02T16:04:18.631Z</time></trkpt><trkpt lat="37.2947509" lon="9.7562889"><ele>122.25</ele><time>2026-05-02T16:04:19.61Z</time></trkpt><trkpt lat="37.2948155" lon="9.7564304"><ele>122.5</ele><time>2026-05-02T16:04:20.615Z</time></trkpt><trkpt lat="37.2948845" lon="9.7565635"><ele>122.75</ele><time>2026-05-02T16:04:21.599Z</time></trkpt><trkpt lat="37.294963" lon="9.7566926"><ele>123.0</ele><time>2026-05-02T16:04:22.612Z</time></trkpt><trkpt lat="37.2950498" lon="9.7568138"><ele>123.5</ele><time>2026-05-02T16:04:23.615Z</time></trkpt><trkpt lat="37.2951456" lon="9.7569173"><ele>124.0</ele><time>2026-05-02T16:04:24.606Z</time></trkpt><trkpt lat="37.2952462" lon="9.7570095"><ele>124.5</ele><time>2026-05-02T16:04:25.607Z</time></trkpt><trkpt lat="37.2953434" lon="9.7571031"><ele>125.0</ele><time>2026-05-02T16:04:26.622Z</time></trkpt><trkpt lat="37.2954389" lon="9.7572008"><ele>125.0</ele><time>2026-05-02T16:04:27.605Z</time></trkpt><trkpt lat="37.2955354" lon="9.7572975"><ele>125.0</ele><time>2026-05-02T16:04:28.6Z</time></trkpt><trkpt lat="37.2956336" lon="9.7573953"><ele>125.0</ele><time>2026-05-02T16:04:29.608Z</time></trkpt><trkpt lat="37.295726" lon="9.757483"><ele>125.0</ele><time>2026-05-02T16:04:30.629Z</time></trkpt><trkpt lat="37.2958147" lon="9.7575724"><ele>125.2</ele><time>2026-05-02T16:04:31.641Z</time></trkpt><trkpt lat="37.2958967" lon="9.7576731"><ele>125.4</ele><time>2026-05-02T16:04:32.616Z</time></trkpt><trkpt lat="37.2959773" lon="9.7577777"><ele>125.6</ele><time>2026-05-02T16:04:33.618Z</time></trkpt><trkpt lat="37.2960475" lon="9.75788"><ele>125.8</ele><time>2026-05-02T16:04:34.616Z</time></trkpt><trkpt lat="37.2961063" lon="9.7579818"><ele>126.0</ele><time>2026-05-02T16:04:35.614Z</time></trkpt><trkpt lat="37.2961467" lon="9.758073"><ele>126.57142857142857</ele><time>2026-05-02T16:04:36.629Z</time></trkpt><trkpt lat="37.2961783" lon="9.7581535"><ele>127.14285714285714</ele><time>2026-05-02T16:04:37.61Z</time></trkpt><trkpt lat="37.2962059" lon="9.758232"><ele>127.71428571428572</ele><time>2026-05-02T16:04:38.615Z</time></trkpt><trkpt lat="37.2962327" lon="9.7583075"><ele>128.28571428571428</ele><time>2026-05-02T16:04:39.621Z</time></trkpt><trkpt lat="37.2962601" lon="9.7583867"><ele>128.85714285714286</ele><time>2026-05-02T16:04:40.617Z</time></trkpt><trkpt lat="37.2962889" lon="9.758464"><ele>129.42857142857144</ele><time>2026-05-02T16:04:41.607Z</time></trkpt><trkpt lat="37.2963161" lon="9.7585402"><ele>130.0</ele><time>2026-05-02T16:04:42.616Z</time></trkpt><trkpt lat="37.2963405" lon="9.7586155"><ele>130.0</ele><time>2026-05-02T16:04:43.616Z</time></trkpt><trkpt lat="37.2963677" lon="9.7586996"><ele>130.0</ele><time>2026-05-02T16:04:44.616Z</time></trkpt><trkpt lat="37.2964031" lon="9.7587862"><ele>130.0</ele><time>2026-05-02T16:04:45.614Z</time></trkpt><trkpt lat="37.2964345" lon="9.758881"><ele>130.0</ele><time>2026-05-02T16:04:46.608Z</time></trkpt><trkpt lat="37.2964661" lon="9.7589789"><ele>130.0</ele><time>2026-05-02T16:04:47.598Z</time></trkpt><trkpt lat="37.2965013" lon="9.7590719"><ele>130.0</ele><time>2026-05-02T16:04:48.6Z</time></trkpt><trkpt lat="37.2965335" lon="9.7591603"><ele>130.0</ele><time>2026-05-02T16:04:49.628Z</time></trkpt><trkpt lat="37.2965705" lon="9.7592653"><ele>130.0</ele><time>2026-05-02T16:04:50.632Z</time></trkpt><trkpt lat="37.2966223" lon="9.7593944"><ele>130.0</ele><time>2026-05-02T16:04:51.62Z</time></trkpt><trkpt lat="37.2966801" lon="9.7595783"><ele>130.0</ele><time>2026-05-02T16:04:52.615Z</time></trkpt><trkpt lat="37.296738" lon="9.7597548"><ele>131.25</ele><time>2026-05-02T16:04:53.618Z</time></trkpt><trkpt lat="37.2967977" lon="9.7599042"><ele>132.5</ele><time>2026-05-02T16:04:54.612Z</time></trkpt><trkpt lat="37.2968657" lon="9.7600263"><ele>133.75</ele><time>2026-05-02T16:04:55.619Z</time></trkpt><trkpt lat="37.2969595" lon="9.7601429"><ele>135.0</ele><time>2026-05-02T16:04:56.616Z</time></trkpt><trkpt lat="37.2970586" lon="9.7602486"><ele>134.75</ele><time>2026-05-02T16:04:57.625Z</time></trkpt><trkpt lat="37.2971746" lon="9.7603263"><ele>134.5</ele><time>2026-05-02T16:04:58.608Z</time></trkpt><trkpt lat="37.2972851" lon="9.7603965"><ele>134.25</ele><time>2026-05-02T16:04:59.604Z</time></trkpt><trkpt lat="37.2973978" lon="9.7604662"><ele>134.0</ele><time>2026-05-02T16:05:00.612Z</time></trkpt><trkpt lat="37.2975056" lon="9.760527"><ele>134.0</ele><time>2026-05-02T16:05:01.626Z</time></trkpt><trkpt lat="37.2976101" lon="9.7605876"><ele>134.0</ele><time>2026-05-02T16:05:02.618Z</time></trkpt><trkpt lat="37.2977093" lon="9.7606452"><ele>134.0</ele><time>2026-05-02T16:05:03.621Z</time></trkpt><trkpt lat="37.2978068" lon="9.7607015"><ele>134.0</ele><time>2026-05-02T16:05:04.617Z</time></trkpt><trkpt lat="37.2979022" lon="9.7607611"><ele>134.0</ele><time>2026-05-02T16:05:05.616Z</time></trkpt><trkpt lat="37.2980011" lon="9.7608161"><ele>134.75</ele><time>2026-05-02T16:05:06.612Z</time></trkpt><trkpt lat="37.2981032" lon="9.7608663"><ele>135.5</ele><time>2026-05-02T16:05:07.621Z</time></trkpt><trkpt lat="37.2982121" lon="9.7609249"><ele>136.25</ele><time>2026-05-02T16:05:08.623Z</time></trkpt><trkpt lat="37.2983225" lon="9.7609909"><ele>137.0</ele><time>2026-05-02T16:05:09.626Z</time></trkpt><trkpt lat="37.2984244" lon="9.7610591"><ele>138.25</ele><time>2026-05-02T16:05:10.604Z</time></trkpt><trkpt lat="37.2985224" lon="9.7611358"><ele>139.5</ele><time>2026-05-02T16:05:11.623Z</time></trkpt><trkpt lat="37.2986147" lon="9.7612187"><ele>140.75</ele><time>2026-05-02T16:05:12.618Z</time></trkpt><trkpt lat="37.2987028" lon="9.7613059"><ele>142.0</ele><time>2026-05-02T16:05:13.608Z</time></trkpt><trkpt lat="37.2987865" lon="9.7613991"><ele>142.0</ele><time>2026-05-02T16:05:14.614Z</time></trkpt><trkpt lat="37.2988631" lon="9.7614918"><ele>142.0</ele><time>2026-05-02T16:05:15.617Z</time></trkpt><trkpt lat="37.2989364" lon="9.7615778"><ele>142.0</ele><time>2026-05-02T16:05:16.628Z</time></trkpt><trkpt lat="37.2990165" lon="9.7616615"><ele>142.0</ele><time>2026-05-02T16:05:17.61Z</time></trkpt><trkpt lat="37.2991003" lon="9.7617484"><ele>142.0</ele><time>2026-05-02T16:05:18.611Z</time></trkpt><trkpt lat="37.2991822" lon="9.7618349"><ele>141.0</ele><time>2026-05-02T16:05:19.6Z</time></trkpt><trkpt lat="37.2992642" lon="9.7619268"><ele>140.0</ele><time>2026-05-02T16:05:20.622Z</time></trkpt><trkpt lat="37.2993445" lon="9.7620213"><ele>139.0</ele><time>2026-05-02T16:05:21.621Z</time></trkpt><trkpt lat="37.2994304" lon="9.7621174"><ele>138.0</ele><time>2026-05-02T16:05:22.605Z</time></trkpt><trkpt lat="37.2995228" lon="9.7622171"><ele>138.0</ele><time>2026-05-02T16:05:23.619Z</time></trkpt><trkpt lat="37.2996145" lon="9.7623269"><ele>138.0</ele><time>2026-05-02T16:05:24.617Z</time></trkpt><trkpt lat="37.2997062" lon="9.7624274"><ele>138.0</ele><time>2026-05-02T16:05:25.624Z</time></trkpt><trkpt lat="37.2997878" lon="9.7625141"><ele>138.0</ele><time>2026-05-02T16:05:26.626Z</time></trkpt><trkpt lat="37.2998716" lon="9.7626"><ele>137.5</ele><time>2026-05-02T16:05:27.624Z</time></trkpt><trkpt lat="37.2999627" lon="9.762687"><ele>137.0</ele><time>2026-05-02T16:05:28.618Z</time></trkpt><trkpt lat="37.3000693" lon="9.762776"><ele>136.5</ele><time>2026-05-02T16:05:29.62Z</time></trkpt><trkpt lat="37.3001863" lon="9.7628599"><ele>136.0</ele><time>2026-05-02T16:05:30.621Z</time></trkpt><trkpt lat="37.3003165" lon="9.7629371"><ele>136.5</ele><time>2026-05-02T16:05:31.622Z</time></trkpt><trkpt lat="37.3004522" lon="9.7630122"><ele>137.0</ele><time>2026-05-02T16:05:32.619Z</time></trkpt><trkpt lat="37.3005903" lon="9.7630839"><ele>137.5</ele><time>2026-05-02T16:05:33.605Z</time></trkpt><trkpt lat="37.3007313" lon="9.7631525"><ele>138.0</ele><time>2026-05-02T16:05:34.61Z</time></trkpt><trkpt lat="37.3008644" lon="9.7632216"><ele>138.0</ele><time>2026-05-02T16:05:35.615Z</time></trkpt><trkpt lat="37.300989" lon="9.7632915"><ele>138.0</ele><time>2026-05-02T16:05:36.616Z</time></trkpt><trkpt lat="37.3011115" lon="9.7633586"><ele>138.0</ele><time>2026-05-02T16:05:37.622Z</time></trkpt><trkpt lat="37.3012333" lon="9.7634187"><ele>138.0</ele><time>2026-05-02T16:05:38.612Z</time></trkpt><trkpt lat="37.3013527" lon="9.7634788"><ele>137.8</ele><time>2026-05-02T16:05:39.611Z</time></trkpt><trkpt lat="37.3014596" lon="9.763528"><ele>137.60000000000002</ele><time>2026-05-02T16:05:40.625Z</time></trkpt><trkpt lat="37.3015552" lon="9.763572"><ele>137.39999999999998</ele><time>2026-05-02T16:05:41.615Z</time></trkpt><trkpt lat="37.3016411" lon="9.7636141"><ele>137.2</ele><time>2026-05-02T16:05:42.625Z</time></trkpt><trkpt lat="37.3017215" lon="9.7636549"><ele>137.0</ele><time>2026-05-02T16:05:43.6Z</time></trkpt><trkpt lat="37.3017981" lon="9.7636956"><ele>136.66666666666666</ele><time>2026-05-02T16:05:44.613Z</time></trkpt><trkpt lat="37.3018724" lon="9.7637334"><ele>136.33333333333331</ele><time>2026-05-02T16:05:45.618Z</time></trkpt><trkpt lat="37.3019407" lon="9.7637626"><ele>136.0</ele><time>2026-05-02T16:05:46.615Z</time></trkpt><trkpt lat="37.3020014" lon="9.7638005"><ele>135.66666666666666</ele><time>2026-05-02T16:05:47.619Z</time></trkpt><trkpt lat="37.302111" lon="9.7638586"><ele>135.33333333333334</ele><time>2026-05-02T16:05:49.599Z</time></trkpt><trkpt lat="37.3021784" lon="9.7639161"><ele>135.0</ele><time>2026-05-02T16:05:51.627Z</time></trkpt><trkpt lat="37.3022092" lon="9.7640099"><ele>135.0</ele><time>2026-05-02T16:05:53.622Z</time></trkpt><trkpt lat="37.302205" lon="9.7640904"><ele>135.0</ele><time>2026-05-02T16:05:54.621Z</time></trkpt><trkpt lat="37.3021899" lon="9.7642288"><ele>135.0</ele><time>2026-05-02T16:05:56.59Z</time></trkpt><trkpt lat="37.3021702" lon="9.7643761"><ele>135.0</ele><time>2026-05-02T16:05:58.614Z</time></trkpt><trkpt lat="37.3021325" lon="9.7644999"><ele>135.0</ele><time>2026-05-02T16:06:00.613Z</time></trkpt><trkpt lat="37.3020923" lon="9.7646086"><ele>133.6</ele><time>2026-05-02T16:06:02.614Z</time></trkpt><trkpt lat="37.3020441" lon="9.7647687"><ele>132.2</ele><time>2026-05-02T16:06:04.606Z</time></trkpt><trkpt lat="37.3020063" lon="9.7648653"><ele>130.8</ele><time>2026-05-02T16:06:05.621Z</time></trkpt><trkpt lat="37.3019534" lon="9.7649698"><ele>129.4</ele><time>2026-05-02T16:06:06.621Z</time></trkpt><trkpt lat="37.3018926" lon="9.7650751"><ele>128.0</ele><time>2026-05-02T16:06:07.607Z</time></trkpt><trkpt lat="37.3018316" lon="9.7651787"><ele>126.75</ele><time>2026-05-02T16:06:08.618Z</time></trkpt><trkpt lat="37.3017637" lon="9.7652899"><ele>125.5</ele><time>2026-05-02T16:06:09.631Z</time></trkpt><trkpt lat="37.3016992" lon="9.7654111"><ele>124.25</ele><time>2026-05-02T16:06:10.617Z</time></trkpt><trkpt lat="37.3016331" lon="9.7655345"><ele>123.0</ele><time>2026-05-02T16:06:11.618Z</time></trkpt><trkpt lat="37.3015694" lon="9.7656599"><ele>123.0</ele><time>2026-05-02T16:06:12.618Z</time></trkpt><trkpt lat="37.3015026" lon="9.7657727"><ele>123.00000000000001</ele><time>2026-05-02T16:06:13.631Z</time></trkpt><trkpt lat="37.3014255" lon="9.7658672"><ele>123.00000000000001</ele><time>2026-05-02T16:06:14.59Z</time></trkpt><trkpt lat="37.3013378" lon="9.7659418"><ele>123.0</ele><time>2026-05-02T16:06:15.625Z</time></trkpt><trkpt lat="37.3012491" lon="9.7659982"><ele>123.0</ele><time>2026-05-02T16:06:16.607Z</time></trkpt><trkpt lat="37.3011597" lon="9.7660477"><ele>122.0</ele><time>2026-05-02T16:06:17.628Z</time></trkpt><trkpt lat="37.3010684" lon="9.7660928"><ele>121.00000000000001</ele><time>2026-05-02T16:06:18.618Z</time></trkpt><trkpt lat="37.3009826" lon="9.7661467"><ele>120.00000000000001</ele><time>2026-05-02T16:06:19.605Z</time></trkpt><trkpt lat="37.3009007" lon="9.7662215"><ele>119.0</ele><time>2026-05-02T16:06:20.611Z</time></trkpt><trkpt lat="37.3008318" lon="9.7663074"><ele>118.0</ele><time>2026-05-02T16:06:21.598Z</time></trkpt><trkpt lat="37.3007815" lon="9.7664107"><ele>118.0</ele><time>2026-05-02T16:06:22.634Z</time></trkpt><trkpt lat="37.300756" lon="9.7665256"><ele>118.00000000000001</ele><time>2026-05-02T16:06:23.643Z</time></trkpt><trkpt lat="37.3007473" lon="9.7666429"><ele>118.00000000000001</ele><time>2026-05-02T16:06:24.611Z</time></trkpt><trkpt lat="37.3007513" lon="9.7667575"><ele>118.0</ele><time>2026-05-02T16:06:25.609Z</time></trkpt><trkpt lat="37.3007743" lon="9.7668698"><ele>118.0</ele><time>2026-05-02T16:06:26.62Z</time></trkpt><trkpt lat="37.3008134" lon="9.7669618"><ele>116.66666666666667</ele><time>2026-05-02T16:06:27.629Z</time></trkpt><trkpt lat="37.3008707" lon="9.7670437"><ele>115.33333333333334</ele><time>2026-05-02T16:06:28.623Z</time></trkpt><trkpt lat="37.3009377" lon="9.7671112"><ele>114.0</ele><time>2026-05-02T16:06:29.626Z</time></trkpt><trkpt lat="37.3010134" lon="9.7671557"><ele>112.66666666666666</ele><time>2026-05-02T16:06:30.615Z</time></trkpt><trkpt lat="37.3010999" lon="9.7671912"><ele>111.33333333333333</ele><time>2026-05-02T16:06:31.601Z</time></trkpt><trkpt lat="37.3011888" lon="9.7671983"><ele>110.0</ele><time>2026-05-02T16:06:32.624Z</time></trkpt><trkpt lat="37.3012839" lon="9.7671929"><ele>110.0</ele><time>2026-05-02T16:06:33.609Z</time></trkpt><trkpt lat="37.3013773" lon="9.7671761"><ele>110.0</ele><time>2026-05-02T16:06:34.616Z</time></trkpt><trkpt lat="37.3014695" lon="9.767159"><ele>110.0</ele><time>2026-05-02T16:06:35.625Z</time></trkpt><trkpt lat="37.3015553" lon="9.7671476"><ele>110.0</ele><time>2026-05-02T16:06:36.61Z</time></trkpt><trkpt lat="37.3016483" lon="9.7671398"><ele>110.0</ele><time>2026-05-02T16:06:37.617Z</time></trkpt><trkpt lat="37.3017503" lon="9.7671317"><ele>109.6</ele><time>2026-05-02T16:06:38.609Z</time></trkpt><trkpt lat="37.301859" lon="9.7671421"><ele>109.2</ele><time>2026-05-02T16:06:39.627Z</time></trkpt><trkpt lat="37.3019629" lon="9.7671695"><ele>108.80000000000001</ele><time>2026-05-02T16:06:40.608Z</time></trkpt><trkpt lat="37.3020674" lon="9.7672034"><ele>108.4</ele><time>2026-05-02T16:06:41.612Z</time></trkpt><trkpt lat="37.3021689" lon="9.7672361"><ele>108.0</ele><time>2026-05-02T16:06:42.604Z</time></trkpt><trkpt lat="37.3022639" lon="9.7672678"><ele>107.2</ele><time>2026-05-02T16:06:43.599Z</time></trkpt><trkpt lat="37.3023542" lon="9.7673088"><ele>106.4</ele><time>2026-05-02T16:06:44.607Z</time></trkpt><trkpt lat="37.3024416" lon="9.7673572"><ele>105.60000000000001</ele><time>2026-05-02T16:06:45.623Z</time></trkpt><trkpt lat="37.3025138" lon="9.7674247"><ele>104.80000000000001</ele><time>2026-05-02T16:06:46.612Z</time></trkpt><trkpt lat="37.3025762" lon="9.7674986"><ele>104.0</ele><time>2026-05-02T16:06:47.62Z</time></trkpt><trkpt lat="37.3026198" lon="9.7675969"><ele>103.49999999999999</ele><time>2026-05-02T16:06:48.622Z</time></trkpt><trkpt lat="37.3026485" lon="9.7677028"><ele>103.0</ele><time>2026-05-02T16:06:49.617Z</time></trkpt><trkpt lat="37.3026555" lon="9.7677981"><ele>102.5</ele><time>2026-05-02T16:06:50.617Z</time></trkpt><trkpt lat="37.3026589" lon="9.7678912"><ele>102.0</ele><time>2026-05-02T16:06:51.614Z</time></trkpt><trkpt lat="37.3026539" lon="9.7679768"><ele>101.49999999999999</ele><time>2026-05-02T16:06:52.618Z</time></trkpt><trkpt lat="37.3026446" lon="9.7681212"><ele>101.0</ele><time>2026-05-02T16:06:54.621Z</time></trkpt><trkpt lat="37.3026495" lon="9.7682233"><ele>100.99999999999999</ele><time>2026-05-02T16:06:56.61Z</time></trkpt><trkpt lat="37.3026603" lon="9.7683063"><ele>101.0</ele><time>2026-05-02T16:06:58.611Z</time></trkpt><trkpt lat="37.3027028" lon="9.7683656"><ele>101.0</ele><time>2026-05-02T16:07:00.594Z</time></trkpt><trkpt lat="37.3027825" lon="9.7683775"><ele>101.0</ele><time>2026-05-02T16:07:03.625Z</time></trkpt><trkpt lat="37.3028487" lon="9.7683256"><ele>100.99999999999999</ele><time>2026-05-02T16:07:05.605Z</time></trkpt><trkpt lat="37.3029493" lon="9.7681939"><ele>101.0</ele><time>2026-05-02T16:07:07.627Z</time></trkpt><trkpt lat="37.303014" lon="9.7680981"><ele>100.99999999999999</ele><time>2026-05-02T16:07:08.63Z</time></trkpt><trkpt lat="37.3030714" lon="9.7680217"><ele>101.0</ele><time>2026-05-02T16:07:09.645Z</time></trkpt><trkpt lat="37.3031263" lon="9.7679555"><ele>101.0</ele><time>2026-05-02T16:07:10.642Z</time></trkpt><trkpt lat="37.3031921" lon="9.767881"><ele>101.0</ele><time>2026-05-02T16:07:11.648Z</time></trkpt><trkpt lat="37.3032623" lon="9.7678058"><ele>100.99999999999999</ele><time>2026-05-02T16:07:12.641Z</time></trkpt><trkpt lat="37.30333" lon="9.7677313"><ele>101.0</ele><time>2026-05-02T16:07:13.655Z</time></trkpt><trkpt lat="37.3033897" lon="9.7676744"><ele>101.99999999999999</ele><time>2026-05-02T16:07:14.623Z</time></trkpt><trkpt lat="37.3034543" lon="9.7676166"><ele>103.0</ele><time>2026-05-02T16:07:15.604Z</time></trkpt><trkpt lat="37.3035167" lon="9.7675574"><ele>104.0</ele><time>2026-05-02T16:07:16.616Z</time></trkpt><trkpt lat="37.3035786" lon="9.7674998"><ele>105.0</ele><time>2026-05-02T16:07:17.636Z</time></trkpt><trkpt lat="37.3036379" lon="9.7674457"><ele>105.99999999999999</ele><time>2026-05-02T16:07:18.627Z</time></trkpt><trkpt lat="37.3036991" lon="9.7673883"><ele>107.0</ele><time>2026-05-02T16:07:19.642Z</time></trkpt><trkpt lat="37.303772" lon="9.7673358"><ele>107.0</ele><time>2026-05-02T16:07:20.653Z</time></trkpt><trkpt lat="37.3038474" lon="9.7672796"><ele>106.99999999999999</ele><time>2026-05-02T16:07:21.657Z</time></trkpt><trkpt lat="37.3039258" lon="9.7672185"><ele>106.99999999999999</ele><time>2026-05-02T16:07:22.62Z</time></trkpt><trkpt lat="37.3040206" lon="9.7671661"><ele>107.0</ele><time>2026-05-02T16:07:23.644Z</time></trkpt><trkpt lat="37.304127" lon="9.7671249"><ele>107.0</ele><time>2026-05-02T16:07:24.614Z</time></trkpt><trkpt lat="37.3042413" lon="9.7670932"><ele>109.0</ele><time>2026-05-02T16:07:25.619Z</time></trkpt><trkpt lat="37.3043861" lon="9.7670633"><ele>111.0</ele><time>2026-05-02T16:07:26.622Z</time></trkpt><trkpt lat="37.3045564" lon="9.767028"><ele>113.0</ele><time>2026-05-02T16:07:27.655Z</time></trkpt><trkpt lat="37.304749" lon="9.7670051"><ele>117.0</ele><time>2026-05-02T16:07:28.642Z</time></trkpt><trkpt lat="37.3049267" lon="9.7669743"><ele>121.0</ele><time>2026-05-02T16:07:29.657Z</time></trkpt><trkpt lat="37.3050747" lon="9.7669356"><ele>125.0</ele><time>2026-05-02T16:07:30.653Z</time></trkpt><trkpt lat="37.305203" lon="9.7668866"><ele>125.75</ele><time>2026-05-02T16:07:31.633Z</time></trkpt><trkpt lat="37.3053322" lon="9.7668227"><ele>126.5</ele><time>2026-05-02T16:07:32.627Z</time></trkpt><trkpt lat="37.3054664" lon="9.7667318"><ele>127.25</ele><time>2026-05-02T16:07:33.63Z</time></trkpt><trkpt lat="37.3056003" lon="9.7666371"><ele>128.0</ele><time>2026-05-02T16:07:34.616Z</time></trkpt><trkpt lat="37.3057288" lon="9.7665435"><ele>128.0</ele><time>2026-05-02T16:07:35.645Z</time></trkpt><trkpt lat="37.30583" lon="9.7664533"><ele>128.0</ele><time>2026-05-02T16:07:36.646Z</time></trkpt><trkpt lat="37.3059194" lon="9.7663575"><ele>128.0</ele><time>2026-05-02T16:07:37.65Z</time></trkpt><trkpt lat="37.3059963" lon="9.7662608"><ele>128.0</ele><time>2026-05-02T16:07:38.637Z</time></trkpt><trkpt lat="37.3060571" lon="9.7661653"><ele>128.0</ele><time>2026-05-02T16:07:39.607Z</time></trkpt><trkpt lat="37.3061089" lon="9.7660706"><ele>128.33333333333331</ele><time>2026-05-02T16:07:40.611Z</time></trkpt><trkpt lat="37.3061585" lon="9.7659748"><ele>128.66666666666666</ele><time>2026-05-02T16:07:41.649Z</time></trkpt><trkpt lat="37.3062023" lon="9.7658833"><ele>129.0</ele><time>2026-05-02T16:07:42.643Z</time></trkpt><trkpt lat="37.306245" lon="9.7658007"><ele>129.33333333333334</ele><time>2026-05-02T16:07:43.63Z</time></trkpt><trkpt lat="37.3062919" lon="9.7657395"><ele>129.66666666666669</ele><time>2026-05-02T16:07:44.631Z</time></trkpt><trkpt lat="37.3064022" lon="9.7656617"><ele>130.0</ele><time>2026-05-02T16:07:46.642Z</time></trkpt><trkpt lat="37.3065228" lon="9.7656546"><ele>131.33333333333334</ele><time>2026-05-02T16:07:48.619Z</time></trkpt><trkpt lat="37.3066143" lon="9.7657502"><ele>132.66666666666669</ele><time>2026-05-02T16:07:50.614Z</time></trkpt><trkpt lat="37.3066475" lon="9.7658245"><ele>134.0</ele><time>2026-05-02T16:07:51.631Z</time></trkpt><trkpt lat="37.3066767" lon="9.765913"><ele>135.33333333333334</ele><time>2026-05-02T16:07:52.608Z</time></trkpt><trkpt lat="37.3067069" lon="9.766012"><ele>136.66666666666666</ele><time>2026-05-02T16:07:53.633Z</time></trkpt><trkpt lat="37.3067417" lon="9.7660871"><ele>138.0</ele><time>2026-05-02T16:07:54.601Z</time></trkpt><trkpt lat="37.3067888" lon="9.7661475"><ele>138.0</ele><time>2026-05-02T16:07:55.633Z</time></trkpt><trkpt lat="37.306844" lon="9.7662052"><ele>138.0</ele><time>2026-05-02T16:07:56.636Z</time></trkpt><trkpt lat="37.3069575" lon="9.7662596"><ele>138.0</ele><time>2026-05-02T16:07:58.629Z</time></trkpt><trkpt lat="37.307028" lon="9.7662593"><ele>138.0</ele><time>2026-05-02T16:07:59.635Z</time></trkpt><trkpt lat="37.3071009" lon="9.766252"><ele>138.0</ele><time>2026-05-02T16:08:00.654Z</time></trkpt><trkpt lat="37.3071766" lon="9.7662349"><ele>138.0</ele><time>2026-05-02T16:08:01.629Z</time></trkpt><trkpt lat="37.3072496" lon="9.7662119"><ele>139.33333333333334</ele><time>2026-05-02T16:08:02.641Z</time></trkpt><trkpt lat="37.3073618" lon="9.7661752"><ele>140.66666666666666</ele><time>2026-05-02T16:08:04.642Z</time></trkpt><trkpt lat="37.3074263" lon="9.7661525"><ele>142.0</ele><time>2026-05-02T16:08:05.636Z</time></trkpt><trkpt lat="37.3074883" lon="9.7661301"><ele>143.33333333333331</ele><time>2026-05-02T16:08:06.632Z</time></trkpt><trkpt lat="37.3075652" lon="9.7661215"><ele>144.66666666666666</ele><time>2026-05-02T16:08:07.639Z</time></trkpt><trkpt lat="37.3076692" lon="9.7661133"><ele>146.0</ele><time>2026-05-02T16:08:08.647Z</time></trkpt><trkpt lat="37.3078103" lon="9.7661087"><ele>146.0</ele><time>2026-05-02T16:08:09.625Z</time></trkpt><trkpt lat="37.3079617" lon="9.7661095"><ele>146.0</ele><time>2026-05-02T16:08:10.65Z</time></trkpt><trkpt lat="37.308106" lon="9.7661083"><ele>146.0</ele><time>2026-05-02T16:08:11.596Z</time></trkpt><trkpt lat="37.3082338" lon="9.7661052"><ele>146.0</ele><time>2026-05-02T16:08:12.628Z</time></trkpt><trkpt lat="37.3083442" lon="9.7660874"><ele>145.85714285714286</ele><time>2026-05-02T16:08:13.65Z</time></trkpt><trkpt lat="37.3084371" lon="9.7660716"><ele>145.71428571428572</ele><time>2026-05-02T16:08:14.598Z</time></trkpt><trkpt lat="37.3085094" lon="9.7660609"><ele>145.57142857142858</ele><time>2026-05-02T16:08:15.638Z</time></trkpt><trkpt lat="37.3085742" lon="9.7660443"><ele>145.42857142857144</ele><time>2026-05-02T16:08:16.618Z</time></trkpt><trkpt lat="37.3086397" lon="9.7660286"><ele>145.2857142857143</ele><time>2026-05-02T16:08:17.628Z</time></trkpt><trkpt lat="37.3087075" lon="9.7660045"><ele>145.14285714285714</ele><time>2026-05-02T16:08:18.641Z</time></trkpt><trkpt lat="37.3087737" lon="9.7659587"><ele>145.0</ele><time>2026-05-02T16:08:19.613Z</time></trkpt><trkpt lat="37.3088368" lon="9.7658949"><ele>145.0</ele><time>2026-05-02T16:08:20.641Z</time></trkpt><trkpt lat="37.3088827" lon="9.7658172"><ele>145.0</ele><time>2026-05-02T16:08:21.644Z</time></trkpt><trkpt lat="37.3089159" lon="9.7657297"><ele>145.0</ele><time>2026-05-02T16:08:22.625Z</time></trkpt><trkpt lat="37.3089427" lon="9.7656308"><ele>145.0</ele><time>2026-05-02T16:08:23.628Z</time></trkpt><trkpt lat="37.308968" lon="9.7655266"><ele>145.0</ele><time>2026-05-02T16:08:24.607Z</time></trkpt><trkpt lat="37.3089946" lon="9.7654199"><ele>145.0</ele><time>2026-05-02T16:08:25.632Z</time></trkpt><trkpt lat="37.3090174" lon="9.7653116"><ele>145.0</ele><time>2026-05-02T16:08:26.621Z</time></trkpt><trkpt lat="37.3090397" lon="9.7651958"><ele>145.0</ele><time>2026-05-02T16:08:27.623Z</time></trkpt><trkpt lat="37.3090632" lon="9.7650854"><ele>145.0</ele><time>2026-05-02T16:08:28.636Z</time></trkpt><trkpt lat="37.3090832" lon="9.7649731"><ele>145.0</ele><time>2026-05-02T16:08:29.601Z</time></trkpt><trkpt lat="37.3091047" lon="9.764861"><ele>145.0</ele><time>2026-05-02T16:08:30.632Z</time></trkpt><trkpt lat="37.3091259" lon="9.76476"><ele>145.83333333333334</ele><time>2026-05-02T16:08:31.61Z</time></trkpt><trkpt lat="37.3091591" lon="9.7646609"><ele>146.66666666666669</ele><time>2026-05-02T16:08:32.644Z</time></trkpt><trkpt lat="37.3091951" lon="9.7645631"><ele>147.5</ele><time>2026-05-02T16:08:33.639Z</time></trkpt><trkpt lat="37.3092443" lon="9.7644745"><ele>148.33333333333334</ele><time>2026-05-02T16:08:34.593Z</time></trkpt><trkpt lat="37.309292" lon="9.7643898"><ele>149.16666666666666</ele><time>2026-05-02T16:08:35.642Z</time></trkpt><trkpt lat="37.3093493" lon="9.7643074"><ele>150.0</ele><time>2026-05-02T16:08:36.598Z</time></trkpt><trkpt lat="37.309415" lon="9.7642183"><ele>150.6</ele><time>2026-05-02T16:08:37.645Z</time></trkpt><trkpt lat="37.3094846" lon="9.7641266"><ele>151.2</ele><time>2026-05-02T16:08:38.617Z</time></trkpt><trkpt lat="37.3095432" lon="9.7640445"><ele>151.8</ele><time>2026-05-02T16:08:39.646Z</time></trkpt><trkpt lat="37.3096093" lon="9.7639588"><ele>152.4</ele><time>2026-05-02T16:08:40.651Z</time></trkpt><trkpt lat="37.3096743" lon="9.7638764"><ele>153.0</ele><time>2026-05-02T16:08:41.641Z</time></trkpt><trkpt lat="37.309737" lon="9.7637934"><ele>153.5</ele><time>2026-05-02T16:08:42.632Z</time></trkpt><trkpt lat="37.3098053" lon="9.7636903"><ele>154.0</ele><time>2026-05-02T16:08:43.645Z</time></trkpt><trkpt lat="37.3098856" lon="9.7635639"><ele>154.5</ele><time>2026-05-02T16:08:44.62Z</time></trkpt><trkpt lat="37.3099734" lon="9.7634336"><ele>155.0</ele><time>2026-05-02T16:08:45.646Z</time></trkpt><trkpt lat="37.3100502" lon="9.7633003"><ele>155.0</ele><time>2026-05-02T16:08:46.619Z</time></trkpt><trkpt lat="37.3101288" lon="9.7631734"><ele>155.0</ele><time>2026-05-02T16:08:47.641Z</time></trkpt><trkpt lat="37.310202" lon="9.7630495"><ele>155.0</ele><time>2026-05-02T16:08:48.66Z</time></trkpt><trkpt lat="37.3102787" lon="9.7629262"><ele>155.0</ele><time>2026-05-02T16:08:49.629Z</time></trkpt><trkpt lat="37.3103494" lon="9.7628064"><ele>155.75</ele><time>2026-05-02T16:08:50.645Z</time></trkpt><trkpt lat="37.3104202" lon="9.7626846"><ele>156.5</ele><time>2026-05-02T16:08:51.62Z</time></trkpt><trkpt lat="37.3104924" lon="9.7625612"><ele>157.25</ele><time>2026-05-02T16:08:52.636Z</time></trkpt><trkpt lat="37.310567" lon="9.7624434"><ele>158.0</ele><time>2026-05-02T16:08:53.642Z</time></trkpt><trkpt lat="37.3106446" lon="9.7623169"><ele>160.0</ele><time>2026-05-02T16:08:54.593Z</time></trkpt><trkpt lat="37.310741" lon="9.7621554"><ele>162.0</ele><time>2026-05-02T16:08:55.639Z</time></trkpt><trkpt lat="37.3108553" lon="9.7619754"><ele>164.0</ele><time>2026-05-02T16:08:56.616Z</time></trkpt><trkpt lat="37.3109549" lon="9.7618237"><ele>164.0</ele><time>2026-05-02T16:08:57.608Z</time></trkpt><trkpt lat="37.3110331" lon="9.7616831"><ele>164.0</ele><time>2026-05-02T16:08:58.628Z</time></trkpt><trkpt lat="37.3111166" lon="9.7615497"><ele>164.0</ele><time>2026-05-02T16:08:59.603Z</time></trkpt><trkpt lat="37.3112073" lon="9.7614198"><ele>164.0</ele><time>2026-05-02T16:09:00.62Z</time></trkpt><trkpt lat="37.3112954" lon="9.7612967"><ele>164.0</ele><time>2026-05-02T16:09:01.61Z</time></trkpt><trkpt lat="37.3113902" lon="9.7611706"><ele>164.0</ele><time>2026-05-02T16:09:02.634Z</time></trkpt><trkpt lat="37.3114865" lon="9.7610481"><ele>164.0</ele><time>2026-05-02T16:09:03.63Z</time></trkpt><trkpt lat="37.3115895" lon="9.7609307"><ele>164.0</ele><time>2026-05-02T16:09:04.625Z</time></trkpt><trkpt lat="37.3116953" lon="9.7608192"><ele>165.66666666666666</ele><time>2026-05-02T16:09:05.628Z</time></trkpt><trkpt lat="37.3118215" lon="9.7606982"><ele>167.33333333333334</ele><time>2026-05-02T16:09:06.634Z</time></trkpt><trkpt lat="37.311949" lon="9.76058"><ele>169.0</ele><time>2026-05-02T16:09:07.641Z</time></trkpt><trkpt lat="37.3120592" lon="9.7604803"><ele>169.0</ele><time>2026-05-02T16:09:08.635Z</time></trkpt><trkpt lat="37.3121696" lon="9.7603953"><ele>169.0</ele><time>2026-05-02T16:09:09.607Z</time></trkpt><trkpt lat="37.3122855" lon="9.7603189"><ele>169.0</ele><time>2026-05-02T16:09:10.6Z</time></trkpt><trkpt lat="37.3123969" lon="9.7602499"><ele>169.0</ele><time>2026-05-02T16:09:11.605Z</time></trkpt><trkpt lat="37.3125103" lon="9.760203"><ele>170.2</ele><time>2026-05-02T16:09:12.633Z</time></trkpt><trkpt lat="37.3126163" lon="9.7601687"><ele>171.39999999999998</ele><time>2026-05-02T16:09:13.643Z</time></trkpt><trkpt lat="37.3127261" lon="9.7601488"><ele>172.6</ele><time>2026-05-02T16:09:14.599Z</time></trkpt><trkpt lat="37.3128281" lon="9.760139"><ele>173.8</ele><time>2026-05-02T16:09:15.619Z</time></trkpt><trkpt lat="37.312919" lon="9.7601289"><ele>175.0</ele><time>2026-05-02T16:09:16.6Z</time></trkpt><trkpt lat="37.3129976" lon="9.7601255"><ele>175.0</ele><time>2026-05-02T16:09:17.627Z</time></trkpt><trkpt lat="37.3130719" lon="9.7601275"><ele>175.0</ele><time>2026-05-02T16:09:18.653Z</time></trkpt><trkpt lat="37.3131392" lon="9.7601315"><ele>175.0</ele><time>2026-05-02T16:09:19.618Z</time></trkpt><trkpt lat="37.3132458" lon="9.7601374"><ele>175.0</ele><time>2026-05-02T16:09:21.641Z</time></trkpt><trkpt lat="37.3133165" lon="9.7601507"><ele>175.0</ele><time>2026-05-02T16:09:23.644Z</time></trkpt><trkpt lat="37.3134736" lon="9.7601377"><ele>175.2</ele><time>2026-05-02T16:16:19.612Z</time></trkpt><trkpt lat="37.3135778" lon="9.7601407"><ele>175.4</ele><time>2026-05-02T16:16:21.654Z</time></trkpt><trkpt lat="37.3136818" lon="9.7601429"><ele>175.60000000000002</ele><time>2026-05-02T16:16:23.653Z</time></trkpt><trkpt lat="37.3137993" lon="9.760146"><ele>175.8</ele><time>2026-05-02T16:16:25.635Z</time></trkpt><trkpt lat="37.3138655" lon="9.7601502"><ele>176.0</ele><time>2026-05-02T16:16:26.619Z</time></trkpt><trkpt lat="37.3139293" lon="9.7601589"><ele>175.28571428571428</ele><time>2026-05-02T16:16:27.601Z</time></trkpt><trkpt lat="37.3139952" lon="9.7601678"><ele>174.57142857142856</ele><time>2026-05-02T16:16:28.655Z</time></trkpt><trkpt lat="37.3140577" lon="9.7601806"><ele>173.85714285714283</ele><time>2026-05-02T16:16:29.639Z</time></trkpt><trkpt lat="37.3141239" lon="9.760199"><ele>173.14285714285714</ele><time>2026-05-02T16:16:30.651Z</time></trkpt><trkpt lat="37.314192" lon="9.7602157"><ele>172.42857142857142</ele><time>2026-05-02T16:16:31.625Z</time></trkpt><trkpt lat="37.3142577" lon="9.7602255"><ele>171.7142857142857</ele><time>2026-05-02T16:16:32.615Z</time></trkpt><trkpt lat="37.3143309" lon="9.7602333"><ele>171.0</ele><time>2026-05-02T16:16:33.618Z</time></trkpt><trkpt lat="37.3144066" lon="9.7602502"><ele>169.83333333333334</ele><time>2026-05-02T16:16:34.603Z</time></trkpt><trkpt lat="37.3144754" lon="9.7602647"><ele>168.66666666666666</ele><time>2026-05-02T16:16:35.653Z</time></trkpt><trkpt lat="37.3145531" lon="9.7602818"><ele>167.5</ele><time>2026-05-02T16:16:36.636Z</time></trkpt><trkpt lat="37.3146335" lon="9.7602937"><ele>166.33333333333331</ele><time>2026-05-02T16:16:37.662Z</time></trkpt><trkpt lat="37.3147164" lon="9.7602978"><ele>165.16666666666666</ele><time>2026-05-02T16:16:38.655Z</time></trkpt><trkpt lat="37.3148043" lon="9.7603009"><ele>164.0</ele><time>2026-05-02T16:16:39.647Z</time></trkpt><trkpt lat="37.3148932" lon="9.7602998"><ele>162.0</ele><time>2026-05-02T16:16:40.62Z</time></trkpt><trkpt lat="37.3149867" lon="9.760294"><ele>160.0</ele><time>2026-05-02T16:16:41.662Z</time></trkpt><trkpt lat="37.3150788" lon="9.7602826"><ele>158.0</ele><time>2026-05-02T16:16:42.657Z</time></trkpt><trkpt lat="37.3151734" lon="9.7602704"><ele>156.0</ele><time>2026-05-02T16:16:43.662Z</time></trkpt><trkpt lat="37.3152735" lon="9.7602636"><ele>154.0</ele><time>2026-05-02T16:16:44.624Z</time></trkpt><trkpt lat="37.3153786" lon="9.7602595"><ele>154.0</ele><time>2026-05-02T16:16:45.634Z</time></trkpt><trkpt lat="37.315478" lon="9.7602636"><ele>154.0</ele><time>2026-05-02T16:16:46.653Z</time></trkpt><trkpt lat="37.3155789" lon="9.7602705"><ele>154.0</ele><time>2026-05-02T16:16:47.631Z</time></trkpt><trkpt lat="37.3156867" lon="9.7602869"><ele>154.0</ele><time>2026-05-02T16:16:48.63Z</time></trkpt><trkpt lat="37.3157785" lon="9.7603079"><ele>154.0</ele><time>2026-05-02T16:16:49.641Z</time></trkpt><trkpt lat="37.315867" lon="9.7603302"><ele>152.0</ele><time>2026-05-02T16:16:50.632Z</time></trkpt><trkpt lat="37.3159547" lon="9.7603506"><ele>150.0</ele><time>2026-05-02T16:16:51.651Z</time></trkpt><trkpt lat="37.3160503" lon="9.7603703"><ele>148.0</ele><time>2026-05-02T16:16:52.634Z</time></trkpt><trkpt lat="37.3161466" lon="9.7603834"><ele>146.0</ele><time>2026-05-02T16:16:53.643Z</time></trkpt><trkpt lat="37.3162427" lon="9.7603935"><ele>144.0</ele><time>2026-05-02T16:16:54.645Z</time></trkpt><trkpt lat="37.316332" lon="9.760403"><ele>143.16666666666666</ele><time>2026-05-02T16:16:55.654Z</time></trkpt><trkpt lat="37.3164235" lon="9.7604097"><ele>142.33333333333334</ele><time>2026-05-02T16:16:56.626Z</time></trkpt><trkpt lat="37.3165173" lon="9.7604118"><ele>141.5</ele><time>2026-05-02T16:16:57.647Z</time></trkpt><trkpt lat="37.3166061" lon="9.760415"><ele>140.66666666666669</ele><time>2026-05-02T16:16:58.621Z</time></trkpt><trkpt lat="37.3166888" lon="9.7604145"><ele>139.83333333333334</ele><time>2026-05-02T16:16:59.646Z</time></trkpt><trkpt lat="37.3167741" lon="9.7604043"><ele>139.0</ele><time>2026-05-02T16:17:00.611Z</time></trkpt><trkpt lat="37.3168515" lon="9.7603813"><ele>139.0</ele><time>2026-05-02T16:17:01.6Z</time></trkpt><trkpt lat="37.3169255" lon="9.7603564"><ele>139.0</ele><time>2026-05-02T16:17:02.632Z</time></trkpt><trkpt lat="37.3169978" lon="9.760318"><ele>139.0</ele><time>2026-05-02T16:17:03.637Z</time></trkpt><trkpt lat="37.3170638" lon="9.7602753"><ele>139.0</ele><time>2026-05-02T16:17:04.637Z</time></trkpt><trkpt lat="37.3171241" lon="9.7602196"><ele>139.0</ele><time>2026-05-02T16:17:05.629Z</time></trkpt><trkpt lat="37.3171779" lon="9.7601423"><ele>139.0</ele><time>2026-05-02T16:17:06.648Z</time></trkpt><trkpt lat="37.3172256" lon="9.7600606"><ele>138.8</ele><time>2026-05-02T16:17:07.639Z</time></trkpt><trkpt lat="37.317268" lon="9.7599619"><ele>138.60000000000002</ele><time>2026-05-02T16:17:08.646Z</time></trkpt><trkpt lat="37.3173128" lon="9.7598562"><ele>138.4</ele><time>2026-05-02T16:17:09.654Z</time></trkpt><trkpt lat="37.3173477" lon="9.7597534"><ele>138.20000000000002</ele><time>2026-05-02T16:17:10.683Z</time></trkpt><trkpt lat="37.3173809" lon="9.7596464"><ele>138.0</ele><time>2026-05-02T16:17:11.655Z</time></trkpt><trkpt lat="37.3174156" lon="9.7595444"><ele>138.0</ele><time>2026-05-02T16:17:12.642Z</time></trkpt><trkpt lat="37.3174578" lon="9.7594426"><ele>138.0</ele><time>2026-05-02T16:17:13.646Z</time></trkpt><trkpt lat="37.3175097" lon="9.7593589"><ele>138.0</ele><time>2026-05-02T16:17:14.654Z</time></trkpt><trkpt lat="37.3175686" lon="9.7592776"><ele>138.0</ele><time>2026-05-02T16:17:15.631Z</time></trkpt><trkpt lat="37.3176346" lon="9.7592007"><ele>138.0</ele><time>2026-05-02T16:17:16.644Z</time></trkpt><trkpt lat="37.3177077" lon="9.7591406"><ele>138.0</ele><time>2026-05-02T16:17:17.613Z</time></trkpt><trkpt lat="37.3177842" lon="9.7590861"><ele>137.8</ele><time>2026-05-02T16:17:18.623Z</time></trkpt><trkpt lat="37.3178668" lon="9.7590437"><ele>137.60000000000002</ele><time>2026-05-02T16:17:19.667Z</time></trkpt><trkpt lat="37.3179555" lon="9.7590012"><ele>137.39999999999998</ele><time>2026-05-02T16:17:20.644Z</time></trkpt><trkpt lat="37.3180488" lon="9.7589573"><ele>137.2</ele><time>2026-05-02T16:17:21.631Z</time></trkpt><trkpt lat="37.3181424" lon="9.7589249"><ele>137.0</ele><time>2026-05-02T16:17:22.608Z</time></trkpt><trkpt lat="37.3182448" lon="9.7588904"><ele>135.2</ele><time>2026-05-02T16:17:23.639Z</time></trkpt><trkpt lat="37.3183481" lon="9.7588547"><ele>133.39999999999998</ele><time>2026-05-02T16:17:24.657Z</time></trkpt><trkpt lat="37.3184545" lon="9.7588196"><ele>131.60000000000002</ele><time>2026-05-02T16:17:25.659Z</time></trkpt><trkpt lat="37.3185633" lon="9.7587813"><ele>129.8</ele><time>2026-05-02T16:17:26.614Z</time></trkpt><trkpt lat="37.3186773" lon="9.7587407"><ele>128.0</ele><time>2026-05-02T16:17:27.602Z</time></trkpt><trkpt lat="37.3187998" lon="9.7587029"><ele>127.0</ele><time>2026-05-02T16:17:28.628Z</time></trkpt><trkpt lat="37.3189313" lon="9.7586619"><ele>126.0</ele><time>2026-05-02T16:17:29.63Z</time></trkpt><trkpt lat="37.3190627" lon="9.7586192"><ele>125.0</ele><time>2026-05-02T16:17:30.631Z</time></trkpt><trkpt lat="37.3191864" lon="9.7585815"><ele>124.0</ele><time>2026-05-02T16:17:31.63Z</time></trkpt><trkpt lat="37.3193083" lon="9.7585433"><ele>123.5</ele><time>2026-05-02T16:17:32.621Z</time></trkpt><trkpt lat="37.3194286" lon="9.7585098"><ele>123.0</ele><time>2026-05-02T16:17:33.602Z</time></trkpt><trkpt lat="37.3195485" lon="9.758469"><ele>122.5</ele><time>2026-05-02T16:17:34.607Z</time></trkpt><trkpt lat="37.3196681" lon="9.7584306"><ele>122.0</ele><time>2026-05-02T16:17:35.605Z</time></trkpt><trkpt lat="37.3197835" lon="9.7583936"><ele>120.39999999999999</ele><time>2026-05-02T16:17:36.624Z</time></trkpt><trkpt lat="37.3198946" lon="9.7583478"><ele>118.79999999999998</ele><time>2026-05-02T16:17:37.646Z</time></trkpt><trkpt lat="37.3200059" lon="9.7583081"><ele>117.2</ele><time>2026-05-02T16:17:38.622Z</time></trkpt><trkpt lat="37.3201016" lon="9.75827"><ele>115.6</ele><time>2026-05-02T16:17:39.624Z</time></trkpt><trkpt lat="37.3201941" lon="9.7582273"><ele>114.0</ele><time>2026-05-02T16:17:40.634Z</time></trkpt><trkpt lat="37.3202858" lon="9.7581854"><ele>114.0</ele><time>2026-05-02T16:17:41.692Z</time></trkpt><trkpt lat="37.3203694" lon="9.7581214"><ele>114.0</ele><time>2026-05-02T16:17:42.623Z</time></trkpt><trkpt lat="37.3204589" lon="9.7580452"><ele>114.0</ele><time>2026-05-02T16:17:43.61Z</time></trkpt><trkpt lat="37.3205473" lon="9.7579683"><ele>114.0</ele><time>2026-05-02T16:17:44.604Z</time></trkpt><trkpt lat="37.3206412" lon="9.7578937"><ele>114.0</ele><time>2026-05-02T16:17:45.637Z</time></trkpt><trkpt lat="37.3207364" lon="9.7578243"><ele>113.75</ele><time>2026-05-02T16:17:46.645Z</time></trkpt><trkpt lat="37.3208352" lon="9.7577658"><ele>113.5</ele><time>2026-05-02T16:17:47.635Z</time></trkpt><trkpt lat="37.320942" lon="9.7577059"><ele>113.25</ele><time>2026-05-02T16:17:48.647Z</time></trkpt><trkpt lat="37.3210479" lon="9.7576421"><ele>113.0</ele><time>2026-05-02T16:17:49.603Z</time></trkpt><trkpt lat="37.3211532" lon="9.7575772"><ele>112.5</ele><time>2026-05-02T16:17:50.636Z</time></trkpt><trkpt lat="37.3212567" lon="9.7575012"><ele>112.0</ele><time>2026-05-02T16:17:51.634Z</time></trkpt><trkpt lat="37.3213548" lon="9.7574204"><ele>111.5</ele><time>2026-05-02T16:17:52.618Z</time></trkpt><trkpt lat="37.3214481" lon="9.7573453"><ele>111.0</ele><time>2026-05-02T16:17:53.653Z</time></trkpt><trkpt lat="37.3215414" lon="9.7572598"><ele>109.5</ele><time>2026-05-02T16:17:54.624Z</time></trkpt><trkpt lat="37.3216382" lon="9.7571833"><ele>108.0</ele><time>2026-05-02T16:17:55.587Z</time></trkpt><trkpt lat="37.3217421" lon="9.7571172"><ele>106.5</ele><time>2026-05-02T16:17:56.644Z</time></trkpt><trkpt lat="37.3218475" lon="9.7570571"><ele>105.0</ele><time>2026-05-02T16:17:57.646Z</time></trkpt><trkpt lat="37.3219532" lon="9.7569981"><ele>105.0</ele><time>2026-05-02T16:17:58.631Z</time></trkpt><trkpt lat="37.3220586" lon="9.756941"><ele>105.0</ele><time>2026-05-02T16:17:59.643Z</time></trkpt><trkpt lat="37.3221589" lon="9.7568893"><ele>105.0</ele><time>2026-05-02T16:18:00.615Z</time></trkpt><trkpt lat="37.3222492" lon="9.7568396"><ele>105.0</ele><time>2026-05-02T16:18:01.637Z</time></trkpt><trkpt lat="37.3223339" lon="9.7567894"><ele>105.0</ele><time>2026-05-02T16:18:02.617Z</time></trkpt><trkpt lat="37.3224131" lon="9.7567427"><ele>101.6</ele><time>2026-05-02T16:18:03.65Z</time></trkpt><trkpt lat="37.322488" lon="9.7566856"><ele>98.2</ele><time>2026-05-02T16:18:04.631Z</time></trkpt><trkpt lat="37.3225579" lon="9.7566201"><ele>94.80000000000001</ele><time>2026-05-02T16:18:05.61Z</time></trkpt><trkpt lat="37.3226217" lon="9.7565407"><ele>91.4</ele><time>2026-05-02T16:18:06.614Z</time></trkpt><trkpt lat="37.3226732" lon="9.7564492"><ele>88.0</ele><time>2026-05-02T16:18:07.689Z</time></trkpt><trkpt lat="37.3227236" lon="9.7563415"><ele>88.0</ele><time>2026-05-02T16:18:08.63Z</time></trkpt><trkpt lat="37.3227652" lon="9.7562252"><ele>88.0</ele><time>2026-05-02T16:18:09.642Z</time></trkpt><trkpt lat="37.3228043" lon="9.7561076"><ele>88.0</ele><time>2026-05-02T16:18:10.648Z</time></trkpt><trkpt lat="37.3228448" lon="9.7559906"><ele>88.0</ele><time>2026-05-02T16:18:11.639Z</time></trkpt><trkpt lat="37.3228846" lon="9.7558751"><ele>88.0</ele><time>2026-05-02T16:18:12.633Z</time></trkpt><trkpt lat="37.3229242" lon="9.7557592"><ele>88.60000000000001</ele><time>2026-05-02T16:18:13.631Z</time></trkpt><trkpt lat="37.322967" lon="9.7556352"><ele>89.2</ele><time>2026-05-02T16:18:14.633Z</time></trkpt><trkpt lat="37.323008" lon="9.755512"><ele>89.8</ele><time>2026-05-02T16:18:15.634Z</time></trkpt><trkpt lat="37.3230415" lon="9.7553835"><ele>90.4</ele><time>2026-05-02T16:18:16.607Z</time></trkpt><trkpt lat="37.3230726" lon="9.7552432"><ele>91.0</ele><time>2026-05-02T16:18:17.617Z</time></trkpt><trkpt lat="37.3231031" lon="9.7551037"><ele>87.2</ele><time>2026-05-02T16:18:18.606Z</time></trkpt><trkpt lat="37.3231302" lon="9.7549616"><ele>83.39999999999999</ele><time>2026-05-02T16:18:19.628Z</time></trkpt><trkpt lat="37.3231586" lon="9.7548235"><ele>79.6</ele><time>2026-05-02T16:18:20.637Z</time></trkpt><trkpt lat="37.3231829" lon="9.7546912"><ele>75.8</ele><time>2026-05-02T16:18:21.625Z</time></trkpt><trkpt lat="37.3232044" lon="9.7545678"><ele>72.0</ele><time>2026-05-02T16:18:22.634Z</time></trkpt><trkpt lat="37.3232279" lon="9.7544532"><ele>72.66666666666667</ele><time>2026-05-02T16:18:23.625Z</time></trkpt><trkpt lat="37.3232578" lon="9.7543459"><ele>73.33333333333333</ele><time>2026-05-02T16:18:24.637Z</time></trkpt><trkpt lat="37.3232872" lon="9.7542625"><ele>74.0</ele><time>2026-05-02T16:18:25.642Z</time></trkpt><trkpt lat="37.3233595" lon="9.7541524"><ele>74.66666666666666</ele><time>2026-05-02T16:18:27.622Z</time></trkpt><trkpt lat="37.3234105" lon="9.7540986"><ele>75.33333333333333</ele><time>2026-05-02T16:18:28.607Z</time></trkpt><trkpt lat="37.3234662" lon="9.7540596"><ele>76.0</ele><time>2026-05-02T16:18:29.637Z</time></trkpt><trkpt lat="37.3235345" lon="9.7540289"><ele>76.0</ele><time>2026-05-02T16:18:30.678Z</time></trkpt><trkpt lat="37.323605" lon="9.7540104"><ele>76.0</ele><time>2026-05-02T16:18:31.635Z</time></trkpt><trkpt lat="37.3236838" lon="9.7540044"><ele>76.0</ele><time>2026-05-02T16:18:32.644Z</time></trkpt><trkpt lat="37.3237625" lon="9.7540107"><ele>76.0</ele><time>2026-05-02T16:18:33.636Z</time></trkpt><trkpt lat="37.3238447" lon="9.754028"><ele>76.0</ele><time>2026-05-02T16:18:34.641Z</time></trkpt><trkpt lat="37.3239215" lon="9.7540567"><ele>76.0</ele><time>2026-05-02T16:18:35.643Z</time></trkpt><trkpt lat="37.3240192" lon="9.7540978"><ele>73.39999999999999</ele><time>2026-05-02T16:18:36.625Z</time></trkpt><trkpt lat="37.3241265" lon="9.7541354"><ele>70.8</ele><time>2026-05-02T16:18:37.636Z</time></trkpt><trkpt lat="37.3242316" lon="9.7541762"><ele>68.19999999999999</ele><time>2026-05-02T16:18:38.644Z</time></trkpt><trkpt lat="37.3243321" lon="9.7542147"><ele>65.6</ele><time>2026-05-02T16:18:39.644Z</time></trkpt><trkpt lat="37.3244394" lon="9.7542568"><ele>63.0</ele><time>2026-05-02T16:18:40.615Z</time></trkpt><trkpt lat="37.3245515" lon="9.7543045"><ele>63.0</ele><time>2026-05-02T16:18:41.64Z</time></trkpt><trkpt lat="37.324667" lon="9.7543505"><ele>63.0</ele><time>2026-05-02T16:18:42.626Z</time></trkpt><trkpt lat="37.3247773" lon="9.7543994"><ele>63.0</ele><time>2026-05-02T16:18:43.636Z</time></trkpt><trkpt lat="37.324889" lon="9.7544486"><ele>63.0</ele><time>2026-05-02T16:18:44.608Z</time></trkpt><trkpt lat="37.3250115" lon="9.7545032"><ele>59.75</ele><time>2026-05-02T16:18:45.641Z</time></trkpt><trkpt lat="37.3251261" lon="9.7545502"><ele>56.5</ele><time>2026-05-02T16:18:46.622Z</time></trkpt><trkpt lat="37.3252344" lon="9.7546005"><ele>53.25</ele><time>2026-05-02T16:18:47.633Z</time></trkpt><trkpt lat="37.3253394" lon="9.7546427"><ele>50.0</ele><time>2026-05-02T16:18:48.616Z</time></trkpt><trkpt lat="37.325445" lon="9.7546832"><ele>50.0</ele><time>2026-05-02T16:18:49.64Z</time></trkpt><trkpt lat="37.3255471" lon="9.7547223"><ele>50.0</ele><time>2026-05-02T16:18:50.636Z</time></trkpt><trkpt lat="37.3256489" lon="9.754764"><ele>50.0</ele><time>2026-05-02T16:18:51.614Z</time></trkpt><trkpt lat="37.3257534" lon="9.7548042"><ele>50.0</ele><time>2026-05-02T16:18:52.64Z</time></trkpt><trkpt lat="37.3258598" lon="9.7548439"><ele>50.0</ele><time>2026-05-02T16:18:53.644Z</time></trkpt><trkpt lat="37.3259654" lon="9.7548831"><ele>48.6</ele><time>2026-05-02T16:18:54.64Z</time></trkpt><trkpt lat="37.3260672" lon="9.7549212"><ele>47.2</ele><time>2026-05-02T16:18:55.638Z</time></trkpt><trkpt lat="37.3261668" lon="9.7549582"><ele>45.8</ele><time>2026-05-02T16:18:56.64Z</time></trkpt><trkpt lat="37.3262614" lon="9.7549971"><ele>44.4</ele><time>2026-05-02T16:18:57.641Z</time></trkpt><trkpt lat="37.3263567" lon="9.7550278"><ele>43.0</ele><time>2026-05-02T16:18:58.607Z</time></trkpt><trkpt lat="37.3264561" lon="9.7550662"><ele>41.4</ele><time>2026-05-02T16:18:59.627Z</time></trkpt><trkpt lat="37.326555" lon="9.7551089"><ele>39.8</ele><time>2026-05-02T16:19:00.596Z</time></trkpt><trkpt lat="37.3266558" lon="9.7551483"><ele>38.2</ele><time>2026-05-02T16:19:01.64Z</time></trkpt><trkpt lat="37.326762" lon="9.7551916"><ele>36.6</ele><time>2026-05-02T16:19:02.639Z</time></trkpt><trkpt lat="37.326877" lon="9.7552353"><ele>35.0</ele><time>2026-05-02T16:19:03.64Z</time></trkpt><trkpt lat="37.3269944" lon="9.7552823"><ele>35.0</ele><time>2026-05-02T16:19:04.64Z</time></trkpt><trkpt lat="37.3271148" lon="9.755327"><ele>35.0</ele><time>2026-05-02T16:19:05.641Z</time></trkpt><trkpt lat="37.3272315" lon="9.7553689"><ele>35.0</ele><time>2026-05-02T16:19:06.645Z</time></trkpt><trkpt lat="37.3273559" lon="9.7554203"><ele>35.0</ele><time>2026-05-02T16:19:07.645Z</time></trkpt><trkpt lat="37.3274816" lon="9.755471"><ele>33.0</ele><time>2026-05-02T16:19:08.621Z</time></trkpt><trkpt lat="37.327603" lon="9.7555275"><ele>31.0</ele><time>2026-05-02T16:19:09.603Z</time></trkpt><trkpt lat="37.3277255" lon="9.7555736"><ele>29.0</ele><time>2026-05-02T16:19:10.638Z</time></trkpt><trkpt lat="37.3278543" lon="9.7556228"><ele>27.0</ele><time>2026-05-02T16:19:11.656Z</time></trkpt><trkpt lat="37.3279819" lon="9.7556759"><ele>26.0</ele><time>2026-05-02T16:19:12.622Z</time></trkpt><trkpt lat="37.3281097" lon="9.7557259"><ele>25.0</ele><time>2026-05-02T16:19:13.638Z</time></trkpt><trkpt lat="37.3282403" lon="9.7557771"><ele>24.0</ele><time>2026-05-02T16:19:14.637Z</time></trkpt><trkpt lat="37.3283674" lon="9.7558302"><ele>23.0</ele><time>2026-05-02T16:19:15.639Z</time></trkpt><trkpt lat="37.3284943" lon="9.7558879"><ele>23.0</ele><time>2026-05-02T16:19:16.639Z</time></trkpt><trkpt lat="37.3286257" lon="9.7559414"><ele>23.0</ele><time>2026-05-02T16:19:17.64Z</time></trkpt><trkpt lat="37.3287531" lon="9.7559976"><ele>23.0</ele><time>2026-05-02T16:19:18.635Z</time></trkpt><trkpt lat="37.3288845" lon="9.7560488"><ele>23.0</ele><time>2026-05-02T16:19:19.643Z</time></trkpt><trkpt lat="37.3290203" lon="9.7561053"><ele>21.5</ele><time>2026-05-02T16:19:20.623Z</time></trkpt><trkpt lat="37.3291496" lon="9.7561603"><ele>20.0</ele><time>2026-05-02T16:19:21.641Z</time></trkpt><trkpt lat="37.3292818" lon="9.7562104"><ele>18.5</ele><time>2026-05-02T16:19:22.66Z</time></trkpt><trkpt lat="37.3294104" lon="9.7562597"><ele>17.0</ele><time>2026-05-02T16:19:23.641Z</time></trkpt><trkpt lat="37.3295376" lon="9.7563091"><ele>17.0</ele><time>2026-05-02T16:19:24.643Z</time></trkpt><trkpt lat="37.3296567" lon="9.7563609"><ele>17.0</ele><time>2026-05-02T16:19:25.601Z</time></trkpt><trkpt lat="37.3297739" lon="9.7564072"><ele>17.0</ele><time>2026-05-02T16:19:26.646Z</time></trkpt><trkpt lat="37.3298885" lon="9.7564521"><ele>17.0</ele><time>2026-05-02T16:19:27.651Z</time></trkpt><trkpt lat="37.3300009" lon="9.7564957"><ele>16.6</ele><time>2026-05-02T16:19:28.645Z</time></trkpt><trkpt lat="37.3301108" lon="9.7565406"><ele>16.2</ele><time>2026-05-02T16:19:29.656Z</time></trkpt><trkpt lat="37.3302136" lon="9.7565866"><ele>15.8</ele><time>2026-05-02T16:19:30.639Z</time></trkpt><trkpt lat="37.3303098" lon="9.7566329"><ele>15.4</ele><time>2026-05-02T16:19:31.596Z</time></trkpt><trkpt lat="37.3304017" lon="9.7566752"><ele>15.0</ele><time>2026-05-02T16:19:32.626Z</time></trkpt><trkpt lat="37.330494" lon="9.7567141"><ele>14.4</ele><time>2026-05-02T16:19:33.66Z</time></trkpt><trkpt lat="37.3305829" lon="9.756757"><ele>13.8</ele><time>2026-05-02T16:19:34.652Z</time></trkpt><trkpt lat="37.3306736" lon="9.7567926"><ele>13.2</ele><time>2026-05-02T16:19:35.629Z</time></trkpt><trkpt lat="37.3307593" lon="9.7568282"><ele>12.6</ele><time>2026-05-02T16:19:36.652Z</time></trkpt><trkpt lat="37.3308476" lon="9.7568622"><ele>12.0</ele><time>2026-05-02T16:19:37.646Z</time></trkpt><trkpt lat="37.3309374" lon="9.7568909"><ele>11.666666666666666</ele><time>2026-05-02T16:19:38.645Z</time></trkpt><trkpt lat="37.3310246" lon="9.7569076"><ele>11.333333333333334</ele><time>2026-05-02T16:19:39.633Z</time></trkpt><trkpt lat="37.3311095" lon="9.7569162"><ele>11.0</ele><time>2026-05-02T16:19:40.679Z</time></trkpt><trkpt lat="37.3311907" lon="9.7569177"><ele>10.666666666666668</ele><time>2026-05-02T16:19:41.607Z</time></trkpt><trkpt lat="37.3312603" lon="9.7569147"><ele>10.333333333333334</ele><time>2026-05-02T16:19:42.63Z</time></trkpt><trkpt lat="37.3313783" lon="9.7569034"><ele>10.0</ele><time>2026-05-02T16:19:44.625Z</time></trkpt><trkpt lat="37.3314452" lon="9.7568807"><ele>9.8</ele><time>2026-05-02T16:19:46.622Z</time></trkpt><trkpt lat="37.3315084" lon="9.7568303"><ele>9.6</ele><time>2026-05-02T16:19:48.635Z</time></trkpt><trkpt lat="37.331571" lon="9.7567542"><ele>9.4</ele><time>2026-05-02T16:19:50.629Z</time></trkpt><trkpt lat="37.3316249" lon="9.7566259"><ele>9.2</ele><time>2026-05-02T16:19:52.636Z</time></trkpt><trkpt lat="37.3316579" lon="9.7565273"><ele>9.0</ele><time>2026-05-02T16:19:53.641Z</time></trkpt><trkpt lat="37.3316924" lon="9.7564117"><ele>9.0</ele><time>2026-05-02T16:19:54.642Z</time></trkpt><trkpt lat="37.3317256" lon="9.7562974"><ele>9.0</ele><time>2026-05-02T16:19:55.628Z</time></trkpt><trkpt lat="37.3317558" lon="9.7561856"><ele>9.0</ele><time>2026-05-02T16:19:56.619Z</time></trkpt><trkpt lat="37.3317902" lon="9.7560661"><ele>9.0</ele><time>2026-05-02T16:19:57.643Z</time></trkpt><trkpt lat="37.331818" lon="9.7559385"><ele>9.0</ele><time>2026-05-02T16:19:58.646Z</time></trkpt><trkpt lat="37.3318378" lon="9.7558018"><ele>9.75</ele><time>2026-05-02T16:19:59.635Z</time></trkpt><trkpt lat="37.3318433" lon="9.7556549"><ele>10.5</ele><time>2026-05-02T16:20:00.613Z</time></trkpt><trkpt lat="37.331839" lon="9.7554937"><ele>11.25</ele><time>2026-05-02T16:20:01.66Z</time></trkpt><trkpt lat="37.3318436" lon="9.7553144"><ele>12.0</ele><time>2026-05-02T16:20:02.659Z</time></trkpt><trkpt lat="37.3318455" lon="9.7551335"><ele>12.0</ele><time>2026-05-02T16:20:03.709Z</time></trkpt><trkpt lat="37.3318406" lon="9.7549453"><ele>12.0</ele><time>2026-05-02T16:20:04.67Z</time></trkpt><trkpt lat="37.3318367" lon="9.7547634"><ele>12.0</ele><time>2026-05-02T16:20:05.703Z</time></trkpt><trkpt lat="37.3318438" lon="9.7545932"><ele>12.0</ele><time>2026-05-02T16:20:06.722Z</time></trkpt><trkpt lat="37.331849" lon="9.7544332"><ele>12.5</ele><time>2026-05-02T16:20:07.703Z</time></trkpt><trkpt lat="37.3318496" lon="9.7542806"><ele>13.0</ele><time>2026-05-02T16:20:08.71Z</time></trkpt><trkpt lat="37.3318476" lon="9.7541236"><ele>13.5</ele><time>2026-05-02T16:20:09.706Z</time></trkpt><trkpt lat="37.3318386" lon="9.7539757"><ele>14.0</ele><time>2026-05-02T16:20:10.718Z</time></trkpt><trkpt lat="37.3318219" lon="9.7538363"><ele>14.0</ele><time>2026-05-02T16:20:11.714Z</time></trkpt><trkpt lat="37.3318033" lon="9.7537118"><ele>13.999999999999998</ele><time>2026-05-02T16:20:12.709Z</time></trkpt><trkpt lat="37.3317819" lon="9.7535835"><ele>13.999999999999998</ele><time>2026-05-02T16:20:13.709Z</time></trkpt><trkpt lat="37.3317563" lon="9.7534596"><ele>14.0</ele><time>2026-05-02T16:20:14.646Z</time></trkpt><trkpt lat="37.3317323" lon="9.7533394"><ele>14.0</ele><time>2026-05-02T16:20:15.637Z</time></trkpt><trkpt lat="37.3317126" lon="9.753233"><ele>13.799999999999999</ele><time>2026-05-02T16:20:16.662Z</time></trkpt><trkpt lat="37.3316898" lon="9.7531306"><ele>13.599999999999998</ele><time>2026-05-02T16:20:17.656Z</time></trkpt><trkpt lat="37.3316645" lon="9.7530432"><ele>13.4</ele><time>2026-05-02T16:20:18.66Z</time></trkpt><trkpt lat="37.3316443" lon="9.7529642"><ele>13.2</ele><time>2026-05-02T16:20:19.658Z</time></trkpt><trkpt lat="37.331612" lon="9.7528354"><ele>13.0</ele><time>2026-05-02T16:20:21.645Z</time></trkpt><trkpt lat="37.3315795" lon="9.7526914"><ele>12.999999999999998</ele><time>2026-05-02T16:20:23.653Z</time></trkpt><trkpt lat="37.3315575" lon="9.7526035"><ele>13.0</ele><time>2026-05-02T16:20:24.646Z</time></trkpt><trkpt lat="37.3315296" lon="9.7525047"><ele>13.0</ele><time>2026-05-02T16:20:25.655Z</time></trkpt><trkpt lat="37.3315035" lon="9.7523949"><ele>13.0</ele><time>2026-05-02T16:20:26.656Z</time></trkpt><trkpt lat="37.3314775" lon="9.7522839"><ele>12.999999999999998</ele><time>2026-05-02T16:20:27.656Z</time></trkpt><trkpt lat="37.331456" lon="9.7521739"><ele>13.0</ele><time>2026-05-02T16:20:28.656Z</time></trkpt><trkpt lat="37.3314361" lon="9.7520582"><ele>13.0</ele><time>2026-05-02T16:20:29.651Z</time></trkpt><trkpt lat="37.3314159" lon="9.7519433"><ele>13.0</ele><time>2026-05-02T16:20:30.651Z</time></trkpt><trkpt lat="37.3313961" lon="9.7518291"><ele>13.0</ele><time>2026-05-02T16:20:31.659Z</time></trkpt><trkpt lat="37.3313745" lon="9.7517159"><ele>13.0</ele><time>2026-05-02T16:20:32.662Z</time></trkpt><trkpt lat="37.331353" lon="9.7515992"><ele>13.0</ele><time>2026-05-02T16:20:33.66Z</time></trkpt><trkpt lat="37.3313329" lon="9.7514777"><ele>13.2</ele><time>2026-05-02T16:20:34.666Z</time></trkpt><trkpt lat="37.3313148" lon="9.7513489"><ele>13.4</ele><time>2026-05-02T16:20:35.661Z</time></trkpt><trkpt lat="37.3312984" lon="9.7512225"><ele>13.599999999999998</ele><time>2026-05-02T16:20:36.679Z</time></trkpt><trkpt lat="37.3312831" lon="9.7510966"><ele>13.799999999999999</ele><time>2026-05-02T16:20:37.652Z</time></trkpt><trkpt lat="37.3312673" lon="9.7509793"><ele>14.0</ele><time>2026-05-02T16:20:38.676Z</time></trkpt><trkpt lat="37.3312531" lon="9.7508762"><ele>14.000000000000002</ele><time>2026-05-02T16:20:39.648Z</time></trkpt><trkpt lat="37.3312403" lon="9.7507827"><ele>14.0</ele><time>2026-05-02T16:20:40.651Z</time></trkpt><trkpt lat="37.3312277" lon="9.7506943"><ele>14.0</ele><time>2026-05-02T16:20:41.662Z</time></trkpt><trkpt lat="37.3312175" lon="9.7506017"><ele>14.0</ele><time>2026-05-02T16:20:42.653Z</time></trkpt><trkpt lat="37.3312046" lon="9.7504944"><ele>14.000000000000002</ele><time>2026-05-02T16:20:43.653Z</time></trkpt><trkpt lat="37.3311894" lon="9.7503764"><ele>14.0</ele><time>2026-05-02T16:20:44.646Z</time></trkpt><trkpt lat="37.331168" lon="9.7502505"><ele>13.799999999999999</ele><time>2026-05-02T16:20:45.649Z</time></trkpt><trkpt lat="37.3311473" lon="9.7501165"><ele>13.599999999999998</ele><time>2026-05-02T16:20:46.657Z</time></trkpt><trkpt lat="37.331124" lon="9.7499752"><ele>13.4</ele><time>2026-05-02T16:20:47.662Z</time></trkpt><trkpt lat="37.3310999" lon="9.7498372"><ele>13.2</ele><time>2026-05-02T16:20:48.65Z</time></trkpt><trkpt lat="37.3310764" lon="9.7497039"><ele>13.0</ele><time>2026-05-02T16:20:49.666Z</time></trkpt><trkpt lat="37.3310496" lon="9.7495657"><ele>13.0</ele><time>2026-05-02T16:20:50.65Z</time></trkpt><trkpt lat="37.3310252" lon="9.7494263"><ele>13.0</ele><time>2026-05-02T16:20:51.665Z</time></trkpt><trkpt lat="37.3310078" lon="9.7492911"><ele>13.0</ele><time>2026-05-02T16:20:52.659Z</time></trkpt><trkpt lat="37.3309945" lon="9.7491592"><ele>13.0</ele><time>2026-05-02T16:20:53.655Z</time></trkpt><trkpt lat="37.3309875" lon="9.7490327"><ele>13.0</ele><time>2026-05-02T16:20:54.666Z</time></trkpt><trkpt lat="37.3309834" lon="9.7489104"><ele>13.4</ele><time>2026-05-02T16:20:55.649Z</time></trkpt><trkpt lat="37.3309818" lon="9.7487955"><ele>13.8</ele><time>2026-05-02T16:20:56.664Z</time></trkpt><trkpt lat="37.3309782" lon="9.748675"><ele>14.2</ele><time>2026-05-02T16:20:57.664Z</time></trkpt><trkpt lat="37.3309722" lon="9.7485519"><ele>14.6</ele><time>2026-05-02T16:20:58.656Z</time></trkpt><trkpt lat="37.3309678" lon="9.7484541"><ele>15.0</ele><time>2026-05-02T16:20:59.654Z</time></trkpt><trkpt lat="37.3309885" lon="9.7482944"><ele>15.2</ele><time>2026-05-02T16:21:01.667Z</time></trkpt><trkpt lat="37.3310253" lon="9.748208"><ele>15.4</ele><time>2026-05-02T16:21:02.655Z</time></trkpt><trkpt lat="37.3310706" lon="9.7481133"><ele>15.600000000000001</ele><time>2026-05-02T16:21:03.649Z</time></trkpt><trkpt lat="37.3311246" lon="9.7480128"><ele>15.8</ele><time>2026-05-02T16:21:04.656Z</time></trkpt><trkpt lat="37.331187" lon="9.7479096"><ele>16.0</ele><time>2026-05-02T16:21:05.66Z</time></trkpt><trkpt lat="37.331254" lon="9.7478107"><ele>15.999999999999998</ele><time>2026-05-02T16:21:06.663Z</time></trkpt><trkpt lat="37.3313198" lon="9.7477167"><ele>16.0</ele><time>2026-05-02T16:21:07.664Z</time></trkpt><trkpt lat="37.3313831" lon="9.7476314"><ele>16.0</ele><time>2026-05-02T16:21:08.657Z</time></trkpt><trkpt lat="37.3314463" lon="9.7475522"><ele>16.0</ele><time>2026-05-02T16:21:09.666Z</time></trkpt><trkpt lat="37.331506" lon="9.747475"><ele>15.999999999999998</ele><time>2026-05-02T16:21:10.665Z</time></trkpt><trkpt lat="37.3315545" lon="9.7474127"><ele>16.0</ele><time>2026-05-02T16:21:11.656Z</time></trkpt><trkpt lat="37.331613" lon="9.7473403"><ele>15.666666666666666</ele><time>2026-05-02T16:21:13.653Z</time></trkpt><trkpt lat="37.3316746" lon="9.7472801"><ele>15.333333333333332</ele><time>2026-05-02T16:21:48.705Z</time></trkpt><trkpt lat="37.331772" lon="9.7471963"><ele>15.0</ele><time>2026-05-02T16:21:50.697Z</time></trkpt><trkpt lat="37.3318363" lon="9.747138"><ele>14.666666666666668</ele><time>2026-05-02T16:21:51.703Z</time></trkpt><trkpt lat="37.3319088" lon="9.7470851"><ele>14.333333333333334</ele><time>2026-05-02T16:21:52.726Z</time></trkpt><trkpt lat="37.3319872" lon="9.7470323"><ele>14.0</ele><time>2026-05-02T16:21:53.697Z</time></trkpt><trkpt lat="37.3320751" lon="9.7469764"><ele>14.0</ele><time>2026-05-02T16:21:54.697Z</time></trkpt><trkpt lat="37.3321701" lon="9.7469212"><ele>14.0</ele><time>2026-05-02T16:21:55.7Z</time></trkpt><trkpt lat="37.3322719" lon="9.7468636"><ele>14.0</ele><time>2026-05-02T16:21:56.707Z</time></trkpt><trkpt lat="37.3323748" lon="9.7468129"><ele>14.0</ele><time>2026-05-02T16:21:57.722Z</time></trkpt><trkpt lat="37.3324894" lon="9.7467565"><ele>14.75</ele><time>2026-05-02T16:21:58.662Z</time></trkpt><trkpt lat="37.3326164" lon="9.7466931"><ele>15.5</ele><time>2026-05-02T16:21:59.678Z</time></trkpt><trkpt lat="37.3327373" lon="9.7466367"><ele>16.25</ele><time>2026-05-02T16:22:00.672Z</time></trkpt><trkpt lat="37.3328464" lon="9.7465892"><ele>17.0</ele><time>2026-05-02T16:22:01.72Z</time></trkpt><trkpt lat="37.3329528" lon="9.746547"><ele>17.0</ele><time>2026-05-02T16:22:02.723Z</time></trkpt><trkpt lat="37.3330515" lon="9.7465069"><ele>17.0</ele><time>2026-05-02T16:22:03.691Z</time></trkpt><trkpt lat="37.3331489" lon="9.7464775"><ele>17.0</ele><time>2026-05-02T16:22:04.678Z</time></trkpt><trkpt lat="37.3332539" lon="9.746441"><ele>17.0</ele><time>2026-05-02T16:22:05.679Z</time></trkpt><trkpt lat="37.3333608" lon="9.7463999"><ele>17.0</ele><time>2026-05-02T16:22:06.685Z</time></trkpt><trkpt lat="37.3334688" lon="9.7463597"><ele>18.0</ele><time>2026-05-02T16:22:07.654Z</time></trkpt><trkpt lat="37.3335791" lon="9.7463258"><ele>19.0</ele><time>2026-05-02T16:22:08.644Z</time></trkpt><trkpt lat="37.3336892" lon="9.7462967"><ele>20.0</ele><time>2026-05-02T16:22:09.64Z</time></trkpt><trkpt lat="37.3338008" lon="9.7462658"><ele>21.0</ele><time>2026-05-02T16:22:10.649Z</time></trkpt><trkpt lat="37.333912" lon="9.7462327"><ele>21.0</ele><time>2026-05-02T16:22:11.649Z</time></trkpt><trkpt lat="37.3340194" lon="9.7461894"><ele>21.0</ele><time>2026-05-02T16:22:12.648Z</time></trkpt><trkpt lat="37.3341278" lon="9.746139"><ele>21.0</ele><time>2026-05-02T16:22:13.658Z</time></trkpt><trkpt lat="37.3342314" lon="9.7460821"><ele>21.0</ele><time>2026-05-02T16:22:14.666Z</time></trkpt><trkpt lat="37.3343281" lon="9.746022"><ele>21.0</ele><time>2026-05-02T16:22:15.656Z</time></trkpt><trkpt lat="37.3344276" lon="9.7459626"><ele>21.200000000000003</ele><time>2026-05-02T16:22:16.649Z</time></trkpt><trkpt lat="37.3345324" lon="9.7459082"><ele>21.400000000000002</ele><time>2026-05-02T16:22:17.656Z</time></trkpt><trkpt lat="37.3346385" lon="9.7458612"><ele>21.6</ele><time>2026-05-02T16:22:18.659Z</time></trkpt><trkpt lat="37.3347422" lon="9.7458282"><ele>21.8</ele><time>2026-05-02T16:22:19.658Z</time></trkpt><trkpt lat="37.3348392" lon="9.7458085"><ele>22.0</ele><time>2026-05-02T16:22:20.652Z</time></trkpt><trkpt lat="37.3349368" lon="9.7457938"><ele>20.8</ele><time>2026-05-02T16:22:21.637Z</time></trkpt><trkpt lat="37.335042" lon="9.7457842"><ele>19.6</ele><time>2026-05-02T16:22:22.653Z</time></trkpt><trkpt lat="37.3351516" lon="9.7457756"><ele>18.400000000000002</ele><time>2026-05-02T16:22:23.66Z</time></trkpt><trkpt lat="37.3352641" lon="9.7457653"><ele>17.200000000000003</ele><time>2026-05-02T16:22:24.649Z</time></trkpt><trkpt lat="37.3353787" lon="9.7457557"><ele>16.0</ele><time>2026-05-02T16:22:25.664Z</time></trkpt><trkpt lat="37.3354897" lon="9.7457504"><ele>15.75</ele><time>2026-05-02T16:22:26.645Z</time></trkpt><trkpt lat="37.3356003" lon="9.7457448"><ele>15.5</ele><time>2026-05-02T16:22:27.67Z</time></trkpt><trkpt lat="37.3357179" lon="9.7457393"><ele>15.25</ele><time>2026-05-02T16:22:28.645Z</time></trkpt><trkpt lat="37.3358394" lon="9.7457337"><ele>15.0</ele><time>2026-05-02T16:22:29.66Z</time></trkpt><trkpt lat="37.3359673" lon="9.7457289"><ele>15.0</ele><time>2026-05-02T16:22:30.644Z</time></trkpt><trkpt lat="37.3360951" lon="9.7457275"><ele>15.0</ele><time>2026-05-02T16:22:31.657Z</time></trkpt><trkpt lat="37.3362265" lon="9.7457285"><ele>15.0</ele><time>2026-05-02T16:22:32.642Z</time></trkpt><trkpt lat="37.3363639" lon="9.7457298"><ele>15.0</ele><time>2026-05-02T16:22:33.641Z</time></trkpt><trkpt lat="37.3364996" lon="9.7457336"><ele>14.75</ele><time>2026-05-02T16:22:34.641Z</time></trkpt><trkpt lat="37.3366409" lon="9.7457325"><ele>14.5</ele><time>2026-05-02T16:22:35.643Z</time></trkpt><trkpt lat="37.3367798" lon="9.7457272"><ele>14.25</ele><time>2026-05-02T16:22:36.648Z</time></trkpt><trkpt lat="37.3369168" lon="9.7457261"><ele>14.0</ele><time>2026-05-02T16:22:37.646Z</time></trkpt><trkpt lat="37.337051" lon="9.745723"><ele>14.0</ele><time>2026-05-02T16:22:38.651Z</time></trkpt><trkpt lat="37.3371838" lon="9.7457205"><ele>14.0</ele><time>2026-05-02T16:22:39.648Z</time></trkpt><trkpt lat="37.3373181" lon="9.7457226"><ele>14.0</ele><time>2026-05-02T16:22:40.651Z</time></trkpt><trkpt lat="37.3374613" lon="9.7457267"><ele>14.0</ele><time>2026-05-02T16:22:41.664Z</time></trkpt><trkpt lat="37.3375999" lon="9.7457236"><ele>14.0</ele><time>2026-05-02T16:22:42.657Z</time></trkpt><trkpt lat="37.3377395" lon="9.7457169"><ele>14.0</ele><time>2026-05-02T16:22:43.652Z</time></trkpt><trkpt lat="37.3378761" lon="9.745703"><ele>14.0</ele><time>2026-05-02T16:22:44.659Z</time></trkpt><trkpt lat="37.3380136" lon="9.7457024"><ele>14.0</ele><time>2026-05-02T16:22:45.663Z</time></trkpt><trkpt lat="37.3381467" lon="9.7457007"><ele>14.0</ele><time>2026-05-02T16:22:46.648Z</time></trkpt><trkpt lat="37.3382776" lon="9.7457046"><ele>14.0</ele><time>2026-05-02T16:22:47.661Z</time></trkpt><trkpt lat="37.3384087" lon="9.7457055"><ele>14.0</ele><time>2026-05-02T16:22:48.661Z</time></trkpt><trkpt lat="37.3385382" lon="9.7457038"><ele>14.0</ele><time>2026-05-02T16:22:49.649Z</time></trkpt><trkpt lat="37.3386624" lon="9.7457043"><ele>14.0</ele><time>2026-05-02T16:22:50.645Z</time></trkpt><trkpt lat="37.3387786" lon="9.7457041"><ele>13.999999999999998</ele><time>2026-05-02T16:22:51.651Z</time></trkpt><trkpt lat="37.3388856" lon="9.7457014"><ele>13.999999999999998</ele><time>2026-05-02T16:22:52.642Z</time></trkpt><trkpt lat="37.3389813" lon="9.7457013"><ele>14.0</ele><time>2026-05-02T16:22:53.68Z</time></trkpt><trkpt lat="37.3390643" lon="9.7457041"><ele>14.0</ele><time>2026-05-02T16:22:54.651Z</time></trkpt><trkpt lat="37.3391398" lon="9.7457051"><ele>13.857142857142858</ele><time>2026-05-02T16:22:55.65Z</time></trkpt><trkpt lat="37.3392106" lon="9.7457039"><ele>13.714285714285715</ele><time>2026-05-02T16:22:56.668Z</time></trkpt><trkpt lat="37.3392783" lon="9.7457004"><ele>13.571428571428571</ele><time>2026-05-02T16:22:57.65Z</time></trkpt><trkpt lat="37.3393487" lon="9.7456999"><ele>13.428571428571429</ele><time>2026-05-02T16:22:58.648Z</time></trkpt><trkpt lat="37.3394231" lon="9.7457007"><ele>13.285714285714286</ele><time>2026-05-02T16:22:59.651Z</time></trkpt><trkpt lat="37.3394964" lon="9.7457019"><ele>13.142857142857142</ele><time>2026-05-02T16:23:00.676Z</time></trkpt><trkpt lat="37.3395731" lon="9.7457008"><ele>13.0</ele><time>2026-05-02T16:23:01.641Z</time></trkpt><trkpt lat="37.3396511" lon="9.7457006"><ele>13.0</ele><time>2026-05-02T16:23:02.688Z</time></trkpt><trkpt lat="37.3397289" lon="9.7456978"><ele>13.0</ele><time>2026-05-02T16:23:03.677Z</time></trkpt><trkpt lat="37.3398065" lon="9.7456962"><ele>13.0</ele><time>2026-05-02T16:23:04.697Z</time></trkpt><trkpt lat="37.3398828" lon="9.7456953"><ele>13.0</ele><time>2026-05-02T16:23:05.681Z</time></trkpt><trkpt lat="37.3399543" lon="9.7456956"><ele>13.0</ele><time>2026-05-02T16:23:06.652Z</time></trkpt><trkpt lat="37.3400226" lon="9.7456943"><ele>13.0</ele><time>2026-05-02T16:23:07.655Z</time></trkpt><trkpt lat="37.3400954" lon="9.745698"><ele>13.0</ele><time>2026-05-02T16:23:08.682Z</time></trkpt><trkpt lat="37.3401639" lon="9.7457024"><ele>13.0</ele><time>2026-05-02T16:23:09.672Z</time></trkpt><trkpt lat="37.3402359" lon="9.7456998"><ele>13.0</ele><time>2026-05-02T16:23:10.7Z</time></trkpt><trkpt lat="37.340306" lon="9.745694"><ele>13.0</ele><time>2026-05-02T16:23:11.669Z</time></trkpt><trkpt lat="37.3404192" lon="9.7456614"><ele>13.0</ele><time>2026-05-02T16:23:13.654Z</time></trkpt><trkpt lat="37.3405101" lon="9.7455916"><ele>13.0</ele><time>2026-05-02T16:23:15.622Z</time></trkpt><trkpt lat="37.3405927" lon="9.7455297"><ele>12.999999999999998</ele><time>2026-05-02T16:23:17.64Z</time></trkpt><trkpt lat="37.3406689" lon="9.745438"><ele>13.0</ele><time>2026-05-02T16:23:19.636Z</time></trkpt><trkpt lat="37.3407342" lon="9.7453161"><ele>13.0</ele><time>2026-05-02T16:23:21.618Z</time></trkpt><trkpt lat="37.3407584" lon="9.7452429"><ele>13.0</ele><time>2026-05-02T16:23:22.651Z</time></trkpt><trkpt lat="37.3407857" lon="9.7451684"><ele>12.999999999999998</ele><time>2026-05-02T16:23:23.647Z</time></trkpt><trkpt lat="37.3408171" lon="9.7450958"><ele>13.0</ele><time>2026-05-02T16:23:24.634Z</time></trkpt><trkpt lat="37.3408753" lon="9.7449668"><ele>13.0</ele><time>2026-05-02T16:23:26.623Z</time></trkpt><trkpt lat="37.3409448" lon="9.7448344"><ele>13.0</ele><time>2026-05-02T16:23:28.631Z</time></trkpt><trkpt lat="37.3409776" lon="9.7447623"><ele>13.0</ele><time>2026-05-02T16:23:29.636Z</time></trkpt><trkpt lat="37.3410364" lon="9.7446336"><ele>13.0</ele><time>2026-05-02T16:23:31.641Z</time></trkpt><trkpt lat="37.3410727" lon="9.7445035"><ele>13.0</ele><time>2026-05-02T16:23:33.586Z</time></trkpt><trkpt lat="37.3411198" lon="9.7443785"><ele>12.833333333333332</ele><time>2026-05-02T16:23:35.623Z</time></trkpt><trkpt lat="37.3411718" lon="9.744268"><ele>12.666666666666666</ele><time>2026-05-02T16:23:37.633Z</time></trkpt><trkpt lat="37.3412078" lon="9.7441784"><ele>12.5</ele><time>2026-05-02T16:23:39.632Z</time></trkpt><trkpt lat="37.3412524" lon="9.7440956"><ele>12.333333333333332</ele><time>2026-05-02T16:23:41.641Z</time></trkpt><trkpt lat="37.3413029" lon="9.7440195"><ele>12.166666666666666</ele><time>2026-05-02T16:23:43.64Z</time></trkpt><trkpt lat="37.3413599" lon="9.7439435"><ele>12.0</ele><time>2026-05-02T16:23:45.639Z</time></trkpt><trkpt lat="37.3414197" lon="9.7438667"><ele>12.333333333333334</ele><time>2026-05-02T16:23:47.629Z</time></trkpt><trkpt lat="37.3414568" lon="9.7437839"><ele>12.666666666666668</ele><time>2026-05-02T16:23:49.636Z</time></trkpt><trkpt lat="37.3414953" lon="9.7437096"><ele>13.0</ele><time>2026-05-02T16:23:51.616Z</time></trkpt><trkpt lat="37.3415615" lon="9.7436688"><ele>13.333333333333334</ele><time>2026-05-02T16:23:53.646Z</time></trkpt><trkpt lat="37.3416588" lon="9.7436513"><ele>13.666666666666668</ele><time>2026-05-02T16:23:55.632Z</time></trkpt><trkpt lat="37.3417655" lon="9.7436202"><ele>14.0</ele><time>2026-05-02T16:23:57.623Z</time></trkpt><trkpt lat="37.3418613" lon="9.7435665"><ele>13.6</ele><time>2026-05-02T16:23:59.643Z</time></trkpt><trkpt lat="37.3419498" lon="9.7435262"><ele>13.2</ele><time>2026-05-02T16:24:01.611Z</time></trkpt><trkpt lat="37.3420291" lon="9.7434989"><ele>12.799999999999999</ele><time>2026-05-02T16:24:03.642Z</time></trkpt><trkpt lat="37.3421186" lon="9.7434915"><ele>12.399999999999999</ele><time>2026-05-02T16:24:13.639Z</time></trkpt><trkpt lat="37.3422111" lon="9.7435361"><ele>12.0</ele><time>2026-05-02T16:24:15.633Z</time></trkpt><trkpt lat="37.3423036" lon="9.7436091"><ele>12.8</ele><time>2026-05-02T16:24:17.601Z</time></trkpt><trkpt lat="37.3423934" lon="9.7436667"><ele>13.6</ele><time>2026-05-02T16:24:19.638Z</time></trkpt><trkpt lat="37.3424858" lon="9.7437148"><ele>14.400000000000002</ele><time>2026-05-02T16:24:21.63Z</time></trkpt><trkpt lat="37.3425852" lon="9.7437704"><ele>15.200000000000001</ele><time>2026-05-02T16:24:23.637Z</time></trkpt><trkpt lat="37.3426911" lon="9.7438067"><ele>16.0</ele><time>2026-05-02T16:24:25.639Z</time></trkpt><trkpt lat="37.3428063" lon="9.7438282"><ele>16.0</ele><time>2026-05-02T16:24:27.632Z</time></trkpt><trkpt lat="37.3429116" lon="9.7438494"><ele>16.0</ele><time>2026-05-02T16:24:29.651Z</time></trkpt><trkpt lat="37.3429999" lon="9.7439129"><ele>16.0</ele><time>2026-05-02T16:24:31.611Z</time></trkpt><trkpt lat="37.3430569" lon="9.7440279"><ele>16.0</ele><time>2026-05-02T16:24:33.633Z</time></trkpt><trkpt lat="37.3431244" lon="9.744123"><ele>16.0</ele><time>2026-05-02T16:24:35.636Z</time></trkpt><trkpt lat="37.3432205" lon="9.7442177"><ele>16.2</ele><time>2026-05-02T16:24:37.632Z</time></trkpt><trkpt lat="37.3433151" lon="9.7443018"><ele>16.400000000000002</ele><time>2026-05-02T16:24:39.635Z</time></trkpt><trkpt lat="37.3434146" lon="9.7443773"><ele>16.6</ele><time>2026-05-02T16:24:41.639Z</time></trkpt><trkpt lat="37.3435134" lon="9.7444194"><ele>16.8</ele><time>2026-05-02T16:24:43.635Z</time></trkpt><trkpt lat="37.3436249" lon="9.7444123"><ele>17.0</ele><time>2026-05-02T16:24:45.641Z</time></trkpt><trkpt lat="37.3437359" lon="9.7443934"><ele>17.2</ele><time>2026-05-02T16:24:47.617Z</time></trkpt><trkpt lat="37.3438314" lon="9.7443706"><ele>17.4</ele><time>2026-05-02T16:24:49.627Z</time></trkpt><trkpt lat="37.3439243" lon="9.744344"><ele>17.6</ele><time>2026-05-02T16:24:51.623Z</time></trkpt><trkpt lat="37.3440219" lon="9.7443447"><ele>17.8</ele><time>2026-05-02T16:24:53.649Z</time></trkpt><trkpt lat="37.3441153" lon="9.7443471"><ele>18.0</ele><time>2026-05-02T16:24:55.632Z</time></trkpt><trkpt lat="37.3442021" lon="9.7443415"><ele>18.0</ele><time>2026-05-02T16:24:57.594Z</time></trkpt><trkpt lat="37.3442857" lon="9.7443294"><ele>18.0</ele><time>2026-05-02T16:24:59.596Z</time></trkpt><trkpt lat="37.3443495" lon="9.7442951"><ele>18.0</ele><time>2026-05-02T16:25:01.602Z</time></trkpt><trkpt lat="37.3444133" lon="9.7442331"><ele>18.0</ele><time>2026-05-02T16:25:04.627Z</time></trkpt><trkpt lat="37.3444668" lon="9.7441867"><ele>18.0</ele><time>2026-05-02T16:25:07.651Z</time></trkpt><trkpt lat="37.3445292" lon="9.7441276"><ele>18.0</ele><time>2026-05-02T16:25:10.629Z</time></trkpt><trkpt lat="37.3445935" lon="9.7440779"><ele>18.0</ele><time>2026-05-02T16:25:13.608Z</time></trkpt><trkpt lat="37.3446648" lon="9.7440349"><ele>18.0</ele><time>2026-05-02T16:25:16.582Z</time></trkpt><trkpt lat="37.3447179" lon="9.7439906"><ele>18.0</ele><time>2026-05-02T16:25:19.638Z</time></trkpt><trkpt lat="37.3447871" lon="9.7439328"><ele>18.0</ele><time>2026-05-02T16:25:23.61Z</time></trkpt><trkpt lat="37.3448662" lon="9.7438971"><ele>18.0</ele><time>2026-05-02T16:25:31.64Z</time></trkpt><trkpt lat="37.3449614" lon="9.7439183"><ele>18.0</ele><time>2026-05-02T16:25:34.612Z</time></trkpt><trkpt lat="37.3450465" lon="9.7439384"><ele>16.8</ele><time>2026-05-02T16:25:36.634Z</time></trkpt><trkpt lat="37.3451544" lon="9.7439618"><ele>15.600000000000001</ele><time>2026-05-02T16:25:38.606Z</time></trkpt><trkpt lat="37.3452465" lon="9.7439767"><ele>14.399999999999999</ele><time>2026-05-02T16:25:40.616Z</time></trkpt><trkpt lat="37.3453292" lon="9.7439897"><ele>13.2</ele><time>2026-05-02T16:25:42.631Z</time></trkpt><trkpt lat="37.3454113" lon="9.7440275"><ele>12.0</ele><time>2026-05-02T16:25:45.617Z</time></trkpt><trkpt lat="37.3454804" lon="9.7440786"><ele>10.4</ele><time>2026-05-02T16:25:49.642Z</time></trkpt><trkpt lat="37.3455521" lon="9.7441031"><ele>8.799999999999999</ele><time>2026-05-02T16:25:58.627Z</time></trkpt><trkpt lat="37.3456348" lon="9.7440795"><ele>7.2</ele><time>2026-05-02T16:26:02.637Z</time></trkpt><trkpt lat="37.3457089" lon="9.7439766"><ele>5.6</ele><time>2026-05-02T16:26:05.636Z</time></trkpt><trkpt lat="37.3457438" lon="9.7438672"><ele>4.0</ele><time>2026-05-02T16:26:07.629Z</time></trkpt><trkpt lat="37.3457777" lon="9.7437667"><ele>4.0</ele><time>2026-05-02T16:26:09.599Z</time></trkpt><trkpt lat="37.3458148" lon="9.7436932"><ele>3.9999999999999996</ele><time>2026-05-02T16:26:12.637Z</time></trkpt><trkpt lat="37.3458704" lon="9.7436464"><ele>4.0</ele><time>2026-05-02T16:26:27.619Z</time></trkpt><trkpt lat="37.3459302" lon="9.7436"><ele>4.0</ele><time>2026-05-02T16:26:32.651Z</time></trkpt><trkpt lat="37.3459819" lon="9.7435393"><ele>3.9999999999999996</ele><time>2026-05-02T16:26:35.639Z</time></trkpt><trkpt lat="37.3460255" lon="9.7434464"><ele>4.0</ele><time>2026-05-02T16:26:38.621Z</time></trkpt><trkpt lat="37.3460551" lon="9.743355"><ele>4.0</ele><time>2026-05-02T16:26:41.618Z</time></trkpt><trkpt lat="37.3460738" lon="9.7432572"><ele>4.142857142857142</ele><time>2026-05-02T16:26:49.641Z</time></trkpt><trkpt lat="37.3461004" lon="9.7431737"><ele>4.285714285714286</ele><time>2026-05-02T16:26:51.645Z</time></trkpt><trkpt lat="37.3461548" lon="9.7430952"><ele>4.428571428571429</ele><time>2026-05-02T16:26:53.638Z</time></trkpt><trkpt lat="37.3462008" lon="9.7430268"><ele>4.571428571428571</ele><time>2026-05-02T16:26:55.609Z</time></trkpt><trkpt lat="37.3462405" lon="9.742956"><ele>4.714285714285714</ele><time>2026-05-02T16:26:57.639Z</time></trkpt><trkpt lat="37.3462856" lon="9.742897"><ele>4.857142857142857</ele><time>2026-05-02T16:26:59.644Z</time></trkpt><trkpt lat="37.3463475" lon="9.7428541"><ele>5.0</ele><time>2026-05-02T16:27:01.616Z</time></trkpt><trkpt lat="37.3464205" lon="9.7427916"><ele>4.166666666666667</ele><time>2026-05-02T16:27:04.639Z</time></trkpt><trkpt lat="37.3464735" lon="9.7427223"><ele>3.3333333333333335</ele><time>2026-05-02T16:27:07.631Z</time></trkpt><trkpt lat="37.3465025" lon="9.742642"><ele>2.5</ele><time>2026-05-02T16:29:34.64Z</time></trkpt><trkpt lat="37.3465529" lon="9.7425837"><ele>1.6666666666666667</ele><time>2026-05-02T16:29:37.619Z</time></trkpt><trkpt lat="37.3466216" lon="9.742517"><ele>0.8333333333333334</ele><time>2026-05-02T16:29:40.635Z</time></trkpt><trkpt lat="37.3466869" lon="9.7424472"><ele>0.0</ele><time>2026-05-02T16:29:44.621Z</time></trkpt><trkpt lat="37.3467422" lon="9.7424075"><ele>0.0</ele><time>2026-05-02T16:29:47.636Z</time></trkpt><trkpt lat="37.3468183" lon="9.742376"><ele>0.0</ele><time>2026-05-02T16:29:51.613Z</time></trkpt><trkpt lat="37.3468951" lon="9.7424005"><ele>0.0</ele><time>2026-05-02T16:29:55.644Z</time></trkpt><trkpt lat="37.3469594" lon="9.7424041"><ele>0.0</ele><time>2026-05-02T16:30:00.631Z</time></trkpt><trkpt lat="37.3469311" lon="9.7423234"><ele>0.0</ele><time>2026-05-02T16:30:05.636Z</time></trkpt><trkpt lat="37.3468705" lon="9.7423469"><ele>0.0</ele><time>2026-05-02T16:40:50.593Z</time></trkpt><trkpt lat="37.3468046" lon="9.742368"><ele>0.0</ele><time>2026-05-02T16:40:53.599Z</time></trkpt><trkpt lat="37.3467416" lon="9.7423773"><ele>0.0</ele><time>2026-05-02T16:40:55.601Z</time></trkpt><trkpt lat="37.3466919" lon="9.7424383"><ele>0.0</ele><time>2026-05-02T16:40:59.608Z</time></trkpt><trkpt lat="37.3466452" lon="9.7425036"><ele>0.0</ele><time>2026-05-02T16:41:02.613Z</time></trkpt><trkpt lat="37.3465838" lon="9.7425699"><ele>0.0</ele><time>2026-05-02T16:41:05.613Z</time></trkpt><trkpt lat="37.346519" lon="9.7426432"><ele>0.0</ele><time>2026-05-02T16:41:08.609Z</time></trkpt><trkpt lat="37.3464471" lon="9.7427316"><ele>0.0</ele><time>2026-05-02T16:41:11.599Z</time></trkpt><trkpt lat="37.3464169" lon="9.7428021"><ele>0.3333333333333333</ele><time>2026-05-02T16:41:13.609Z</time></trkpt><trkpt lat="37.3463615" lon="9.7428639"><ele>0.6666666666666666</ele><time>2026-05-02T16:41:16.599Z</time></trkpt><trkpt lat="37.3462839" lon="9.7429064"><ele>1.0</ele><time>2026-05-02T16:41:19.601Z</time></trkpt><trkpt lat="37.3462032" lon="9.742887"><ele>1.3333333333333333</ele><time>2026-05-02T16:41:22.594Z</time></trkpt><trkpt lat="37.3461509" lon="9.7428268"><ele>1.6666666666666665</ele><time>2026-05-02T16:41:25.599Z</time></trkpt><trkpt lat="37.3461365" lon="9.742725"><ele>2.0</ele><time>2026-05-02T16:42:53.589Z</time></trkpt><trkpt lat="37.3461514" lon="9.7426217"><ele>2.0</ele><time>2026-05-02T16:42:56.652Z</time></trkpt><trkpt lat="37.3461514" lon="9.7425262"><ele>1.9999999999999998</ele><time>2026-05-02T16:42:59.633Z</time></trkpt><trkpt lat="37.3461427" lon="9.7424122"><ele>2.0</ele><time>2026-05-02T16:43:02.623Z</time></trkpt><trkpt lat="37.3461124" lon="9.7423358"><ele>2.0</ele><time>2026-05-02T16:43:07.584Z</time></trkpt><trkpt lat="37.3460869" lon="9.7422535"><ele>1.9999999999999998</ele><time>2026-05-02T16:43:11.636Z</time></trkpt><trkpt lat="37.3460553" lon="9.7421765"><ele>2.0</ele><time>2026-05-02T16:43:16.627Z</time></trkpt><trkpt lat="37.3460253" lon="9.7420975"><ele>2.0</ele><time>2026-05-02T16:43:22.633Z</time></trkpt><trkpt lat="37.3460046" lon="9.742021"><ele>2.0</ele><time>2026-05-02T16:43:29.639Z</time></trkpt><trkpt lat="37.3459791" lon="9.7419394"><ele>1.9999999999999998</ele><time>2026-05-02T16:43:33.645Z</time></trkpt><trkpt lat="37.3459382" lon="9.7418604"><ele>2.0</ele><time>2026-05-02T16:43:39.659Z</time></trkpt><trkpt lat="37.3458883" lon="9.7418051"><ele>2.0</ele><time>2026-05-02T16:43:43.637Z</time></trkpt><trkpt lat="37.3458492" lon="9.741743"><ele>1.9999999999999998</ele><time>2026-05-02T16:43:48.592Z</time></trkpt><trkpt lat="37.3458036" lon="9.7416837"><ele>2.0</ele><time>2026-05-02T16:43:51.589Z</time></trkpt><trkpt lat="37.3457462" lon="9.7416372"><ele>2.0</ele><time>2026-05-02T16:43:55.631Z</time></trkpt><trkpt lat="37.3456802" lon="9.7415873"><ele>1.6666666666666665</ele><time>2026-05-02T16:44:02.633Z</time></trkpt><trkpt lat="37.3456236" lon="9.7415445"><ele>1.3333333333333333</ele><time>2026-05-02T16:44:06.641Z</time></trkpt><trkpt lat="37.3455651" lon="9.7414948"><ele>1.0</ele><time>2026-05-02T16:44:10.615Z</time></trkpt><trkpt lat="37.3455069" lon="9.7414096"><ele>0.6666666666666666</ele><time>2026-05-02T16:44:13.635Z</time></trkpt><trkpt lat="37.345451" lon="9.7413281"><ele>0.3333333333333333</ele><time>2026-05-02T16:44:16.638Z</time></trkpt><trkpt lat="37.3453873" lon="9.741286"><ele>0.0</ele><time>2026-05-02T16:44:20.63Z</time></trkpt><trkpt lat="37.3454232" lon="9.7413915"><ele>0.0</ele><time>2026-05-02T16:47:27.632Z</time></trkpt><trkpt lat="37.3454854" lon="9.7414438"><ele>0.0</ele><time>2026-05-02T16:47:29.637Z</time></trkpt><trkpt lat="37.345561" lon="9.7414698"><ele>0.0</ele><time>2026-05-02T16:47:31.606Z</time></trkpt><trkpt lat="37.3456339" lon="9.7414999"><ele>0.0</ele><time>2026-05-02T16:47:33.611Z</time></trkpt><trkpt lat="37.3456968" lon="9.7415484"><ele>0.0</ele><time>2026-05-02T16:47:36.632Z</time></trkpt><trkpt lat="37.3457507" lon="9.7415899"><ele>0.0</ele><time>2026-05-02T16:47:38.639Z</time></trkpt><trkpt lat="37.3458211" lon="9.7416409"><ele>0.0</ele><time>2026-05-02T16:47:41.597Z</time></trkpt><trkpt lat="37.3458785" lon="9.7416842"><ele>0.0</ele><time>2026-05-02T16:47:44.643Z</time></trkpt><trkpt lat="37.3459157" lon="9.7417492"><ele>0.0</ele><time>2026-05-02T16:48:32.64Z</time></trkpt><trkpt lat="37.3459427" lon="9.7418261"><ele>0.0</ele><time>2026-05-02T16:48:40.643Z</time></trkpt><trkpt lat="37.3459761" lon="9.7418965"><ele>0.0</ele><time>2026-05-02T16:48:49.622Z</time></trkpt><trkpt lat="37.3459952" lon="9.741973"><ele>0.0</ele><time>2026-05-02T16:48:58.618Z</time></trkpt><trkpt lat="37.3460231" lon="9.7420468"><ele>0.0</ele><time>2026-05-02T16:50:25.632Z</time></trkpt><trkpt lat="37.3460568" lon="9.7421218"><ele>0.0</ele><time>2026-05-02T16:50:30.634Z</time></trkpt><trkpt lat="37.3460919" lon="9.7422072"><ele>0.4</ele><time>2026-05-02T16:50:35.629Z</time></trkpt><trkpt lat="37.3461339" lon="9.7422916"><ele>0.8</ele><time>2026-05-02T16:50:40.631Z</time></trkpt><trkpt lat="37.3461738" lon="9.742365"><ele>1.2000000000000002</ele><time>2026-05-02T16:50:43.64Z</time></trkpt><trkpt lat="37.3461673" lon="9.7424734"><ele>1.6</ele><time>2026-05-02T16:50:46.632Z</time></trkpt><trkpt lat="37.3461388" lon="9.7425704"><ele>2.0</ele><time>2026-05-02T16:56:03.584Z</time></trkpt><trkpt lat="37.3461307" lon="9.7427668"><ele>1.6666666666666665</ele><time>2026-05-02T16:56:08.574Z</time></trkpt><trkpt lat="37.3461518" lon="9.7428424"><ele>1.3333333333333333</ele><time>2026-05-02T16:56:11.576Z</time></trkpt><trkpt lat="37.3461958" lon="9.7429155"><ele>1.0</ele><time>2026-05-02T16:56:14.616Z</time></trkpt><trkpt lat="37.3462713" lon="9.7429139"><ele>0.6666666666666666</ele><time>2026-05-02T16:56:17.612Z</time></trkpt><trkpt lat="37.3463454" lon="9.7428751"><ele>0.3333333333333333</ele><time>2026-05-02T16:56:20.605Z</time></trkpt><trkpt lat="37.3464329" lon="9.7427869"><ele>0.0</ele><time>2026-05-02T16:56:25.63Z</time></trkpt><trkpt lat="37.3464468" lon="9.7426991"><ele>0.0</ele><time>2026-05-02T16:56:29.613Z</time></trkpt></trkseg><trkseg><trkpt lat="37.3464071" lon="9.7427975"><ele>0.8333333333333334</ele><time>2026-05-02T18:18:11.771Z</time></trkpt><trkpt lat="37.3463446" lon="9.7428607"><ele>1.6666666666666667</ele><time>2026-05-02T18:18:14.729Z</time></trkpt><trkpt lat="37.3462836" lon="9.7429092"><ele>2.5</ele><time>2026-05-02T18:18:17.778Z</time></trkpt><trkpt lat="37.3462115" lon="9.7429986"><ele>3.3333333333333335</ele><time>2026-05-02T18:18:20.769Z</time></trkpt><trkpt lat="37.3461644" lon="9.7430773"><ele>4.166666666666667</ele><time>2026-05-02T18:18:22.769Z</time></trkpt><trkpt lat="37.346112" lon="9.7431677"><ele>5.0</ele><time>2026-05-02T18:18:25.746Z</time></trkpt><trkpt lat="37.3460651" lon="9.7432384"><ele>5.0</ele><time>2026-05-02T18:18:27.724Z</time></trkpt><trkpt lat="37.3460184" lon="9.7433129"><ele>5.0</ele><time>2026-05-02T18:18:29.766Z</time></trkpt><trkpt lat="37.3459561" lon="9.7433473"><ele>5.0</ele><time>2026-05-02T18:18:31.731Z</time></trkpt><trkpt lat="37.345885" lon="9.7433728"><ele>5.0</ele><time>2026-05-02T18:18:34.771Z</time></trkpt><trkpt lat="37.3458108" lon="9.7434202"><ele>5.0</ele><time>2026-05-02T18:18:38.756Z</time></trkpt><trkpt lat="37.3458017" lon="9.7435273"><ele>5.0</ele><time>2026-05-02T18:18:41.769Z</time></trkpt><trkpt lat="37.3458094" lon="9.7436289"><ele>4.833333333333334</ele><time>2026-05-02T18:18:45.724Z</time></trkpt><trkpt lat="37.3457995" lon="9.7437243"><ele>4.666666666666667</ele><time>2026-05-02T18:18:49.761Z</time></trkpt><trkpt lat="37.3457571" lon="9.7438399"><ele>4.5</ele><time>2026-05-02T18:18:52.735Z</time></trkpt><trkpt lat="37.3457296" lon="9.7439533"><ele>4.333333333333333</ele><time>2026-05-02T18:18:54.744Z</time></trkpt><trkpt lat="37.3456832" lon="9.7440162"><ele>4.166666666666666</ele><time>2026-05-02T18:18:56.761Z</time></trkpt><trkpt lat="37.3456323" lon="9.7440708"><ele>4.0</ele><time>2026-05-02T18:19:00.763Z</time></trkpt><trkpt lat="37.3455558" lon="9.7441069"><ele>5.333333333333333</ele><time>2026-05-02T18:19:05.762Z</time></trkpt><trkpt lat="37.3454619" lon="9.744099"><ele>6.666666666666666</ele><time>2026-05-02T18:19:08.74Z</time></trkpt><trkpt lat="37.3453982" lon="9.7440708"><ele>8.0</ele><time>2026-05-02T18:19:10.747Z</time></trkpt><trkpt lat="37.3453374" lon="9.7440218"><ele>9.333333333333334</ele><time>2026-05-02T18:19:12.72Z</time></trkpt><trkpt lat="37.3452387" lon="9.7440074"><ele>10.666666666666666</ele><time>2026-05-02T18:19:15.767Z</time></trkpt><trkpt lat="37.3451588" lon="9.7439802"><ele>12.0</ele><time>2026-05-02T18:19:17.746Z</time></trkpt><trkpt lat="37.3450652" lon="9.7439484"><ele>12.0</ele><time>2026-05-02T18:19:19.779Z</time></trkpt><trkpt lat="37.3449631" lon="9.7439264"><ele>12.0</ele><time>2026-05-02T18:19:21.776Z</time></trkpt><trkpt lat="37.3448608" lon="9.7439163"><ele>12.0</ele><time>2026-05-02T18:19:23.752Z</time></trkpt><trkpt lat="37.3447711" lon="9.7439124"><ele>12.0</ele><time>2026-05-02T18:19:25.744Z</time></trkpt><trkpt lat="37.3446891" lon="9.7439513"><ele>12.0</ele><time>2026-05-02T18:19:27.747Z</time></trkpt><trkpt lat="37.344646" lon="9.7440579"><ele>13.0</ele><time>2026-05-02T18:19:29.757Z</time></trkpt><trkpt lat="37.3446043" lon="9.7441427"><ele>14.0</ele><time>2026-05-02T18:19:31.762Z</time></trkpt><trkpt lat="37.3445636" lon="9.7442264"><ele>15.0</ele><time>2026-05-02T18:19:33.775Z</time></trkpt><trkpt lat="37.3445028" lon="9.7442997"><ele>16.0</ele><time>2026-05-02T18:19:36.78Z</time></trkpt><trkpt lat="37.3444332" lon="9.7443407"><ele>17.0</ele><time>2026-05-02T18:20:42.75Z</time></trkpt><trkpt lat="37.3443366" lon="9.7443363"><ele>18.0</ele><time>2026-05-02T18:20:44.753Z</time></trkpt><trkpt lat="37.3442383" lon="9.7443261"><ele>18.0</ele><time>2026-05-02T18:20:46.747Z</time></trkpt><trkpt lat="37.3441357" lon="9.7443167"><ele>18.0</ele><time>2026-05-02T18:20:48.77Z</time></trkpt><trkpt lat="37.344037" lon="9.7443129"><ele>18.0</ele><time>2026-05-02T18:20:50.784Z</time></trkpt><trkpt lat="37.343946" lon="9.7443159"><ele>18.0</ele><time>2026-05-02T18:20:52.766Z</time></trkpt><trkpt lat="37.3438458" lon="9.7443293"><ele>18.0</ele><time>2026-05-02T18:20:54.786Z</time></trkpt><trkpt lat="37.3437469" lon="9.7443415"><ele>18.0</ele><time>2026-05-02T18:20:56.767Z</time></trkpt><trkpt lat="37.3436485" lon="9.7443737"><ele>18.0</ele><time>2026-05-02T18:20:58.744Z</time></trkpt><trkpt lat="37.3435571" lon="9.7443828"><ele>18.0</ele><time>2026-05-02T18:21:00.767Z</time></trkpt><trkpt lat="37.3434791" lon="9.7443757"><ele>18.0</ele><time>2026-05-02T18:21:03.78Z</time></trkpt><trkpt lat="37.3434002" lon="9.7443518"><ele>18.0</ele><time>2026-05-02T18:21:06.761Z</time></trkpt><trkpt lat="37.3433428" lon="9.7443032"><ele>18.0</ele><time>2026-05-02T18:21:08.769Z</time></trkpt><trkpt lat="37.3432571" lon="9.7442452"><ele>18.0</ele><time>2026-05-02T18:21:10.712Z</time></trkpt><trkpt lat="37.3431752" lon="9.7441806"><ele>18.0</ele><time>2026-05-02T18:21:12.749Z</time></trkpt><trkpt lat="37.3430937" lon="9.7441147"><ele>18.0</ele><time>2026-05-02T18:21:14.777Z</time></trkpt><trkpt lat="37.3430349" lon="9.7440243"><ele>18.0</ele><time>2026-05-02T18:21:16.767Z</time></trkpt><trkpt lat="37.3429921" lon="9.7439476"><ele>18.0</ele><time>2026-05-02T18:21:18.731Z</time></trkpt><trkpt lat="37.3429397" lon="9.7438815"><ele>18.0</ele><time>2026-05-02T18:21:20.769Z</time></trkpt><trkpt lat="37.3428512" lon="9.743851"><ele>17.6</ele><time>2026-05-02T18:21:22.756Z</time></trkpt><trkpt lat="37.3427559" lon="9.743837"><ele>17.200000000000003</ele><time>2026-05-02T18:21:24.793Z</time></trkpt><trkpt lat="37.3426611" lon="9.7438189"><ele>16.8</ele><time>2026-05-02T18:21:26.773Z</time></trkpt><trkpt lat="37.3425722" lon="9.7437788"><ele>16.400000000000002</ele><time>2026-05-02T18:21:28.727Z</time></trkpt><trkpt lat="37.3424963" lon="9.7437325"><ele>16.0</ele><time>2026-05-02T18:21:30.753Z</time></trkpt><trkpt lat="37.3424219" lon="9.7436899"><ele>15.999999999999998</ele><time>2026-05-02T18:21:32.77Z</time></trkpt><trkpt lat="37.3423492" lon="9.7436479"><ele>16.0</ele><time>2026-05-02T18:21:34.748Z</time></trkpt><trkpt lat="37.3422874" lon="9.7436128"><ele>16.0</ele><time>2026-05-02T18:21:36.753Z</time></trkpt><trkpt lat="37.3422176" lon="9.7435527"><ele>16.0</ele><time>2026-05-02T18:21:39.752Z</time></trkpt><trkpt lat="37.3421507" lon="9.743474"><ele>15.999999999999998</ele><time>2026-05-02T18:21:41.749Z</time></trkpt><trkpt lat="37.3420657" lon="9.7434395"><ele>16.0</ele><time>2026-05-02T18:21:43.744Z</time></trkpt><trkpt lat="37.3419761" lon="9.7434564"><ele>15.600000000000001</ele><time>2026-05-02T18:21:45.783Z</time></trkpt><trkpt lat="37.3418772" lon="9.7435139"><ele>15.200000000000001</ele><time>2026-05-02T18:21:47.76Z</time></trkpt><trkpt lat="37.3417722" lon="9.7435866"><ele>14.799999999999999</ele><time>2026-05-02T18:21:49.78Z</time></trkpt><trkpt lat="37.3416752" lon="9.7436096"><ele>14.399999999999999</ele><time>2026-05-02T18:21:51.736Z</time></trkpt><trkpt lat="37.341571" lon="9.7436392"><ele>14.0</ele><time>2026-05-02T18:21:53.771Z</time></trkpt><trkpt lat="37.3414772" lon="9.7437075"><ele>14.0</ele><time>2026-05-02T18:21:55.797Z</time></trkpt><trkpt lat="37.3414299" lon="9.7437614"><ele>14.0</ele><time>2026-05-02T18:21:56.828Z</time></trkpt><trkpt lat="37.3413569" lon="9.7438734"><ele>14.0</ele><time>2026-05-02T18:21:58.828Z</time></trkpt><trkpt lat="37.3413162" lon="9.7439366"><ele>14.0</ele><time>2026-05-02T18:21:59.828Z</time></trkpt><trkpt lat="37.3412747" lon="9.7439985"><ele>14.0</ele><time>2026-05-02T18:22:00.809Z</time></trkpt><trkpt lat="37.3412408" lon="9.7440658"><ele>14.0</ele><time>2026-05-02T18:22:01.814Z</time></trkpt><trkpt lat="37.3412102" lon="9.7441392"><ele>14.0</ele><time>2026-05-02T18:22:02.802Z</time></trkpt><trkpt lat="37.3411747" lon="9.7442103"><ele>13.833333333333334</ele><time>2026-05-02T18:22:03.81Z</time></trkpt><trkpt lat="37.3411447" lon="9.7442846"><ele>13.666666666666668</ele><time>2026-05-02T18:22:04.803Z</time></trkpt><trkpt lat="37.3411132" lon="9.7443615"><ele>13.5</ele><time>2026-05-02T18:22:05.8Z</time></trkpt><trkpt lat="37.3410877" lon="9.7444395"><ele>13.333333333333332</ele><time>2026-05-02T18:22:06.808Z</time></trkpt><trkpt lat="37.3410234" lon="9.7445663"><ele>13.166666666666666</ele><time>2026-05-02T18:22:08.83Z</time></trkpt><trkpt lat="37.3409602" lon="9.7447013"><ele>13.0</ele><time>2026-05-02T18:22:10.834Z</time></trkpt><trkpt lat="37.3408935" lon="9.7448444"><ele>12.999999999999998</ele><time>2026-05-02T18:22:12.832Z</time></trkpt><trkpt lat="37.3408514" lon="9.7449209"><ele>13.0</ele><time>2026-05-02T18:22:13.835Z</time></trkpt><trkpt lat="37.340809" lon="9.7449991"><ele>13.0</ele><time>2026-05-02T18:22:14.836Z</time></trkpt><trkpt lat="37.3407774" lon="9.7450695"><ele>13.0</ele><time>2026-05-02T18:22:15.805Z</time></trkpt><trkpt lat="37.3407135" lon="9.7451963"><ele>12.999999999999998</ele><time>2026-05-02T18:22:17.803Z</time></trkpt><trkpt lat="37.3406619" lon="9.7453248"><ele>13.0</ele><time>2026-05-02T18:22:19.835Z</time></trkpt><trkpt lat="37.3406046" lon="9.7454371"><ele>12.999999999999998</ele><time>2026-05-02T18:22:21.823Z</time></trkpt><trkpt lat="37.3405303" lon="9.7455308"><ele>13.0</ele><time>2026-05-02T18:22:23.832Z</time></trkpt><trkpt lat="37.340475" lon="9.7456155"><ele>13.0</ele><time>2026-05-02T18:22:25.798Z</time></trkpt><trkpt lat="37.340407" lon="9.7456782"><ele>13.0</ele><time>2026-05-02T18:22:27.843Z</time></trkpt><trkpt lat="37.3403105" lon="9.7457084"><ele>12.999999999999998</ele><time>2026-05-02T18:22:29.832Z</time></trkpt><trkpt lat="37.3402377" lon="9.7457179"><ele>13.0</ele><time>2026-05-02T18:22:30.787Z</time></trkpt><trkpt lat="37.3401618" lon="9.7457148"><ele>12.999999999999998</ele><time>2026-05-02T18:22:31.847Z</time></trkpt><trkpt lat="37.3400852" lon="9.7457144"><ele>13.0</ele><time>2026-05-02T18:22:32.803Z</time></trkpt><trkpt lat="37.3400187" lon="9.7457008"><ele>13.0</ele><time>2026-05-02T18:22:33.821Z</time></trkpt><trkpt lat="37.3399268" lon="9.7457099"><ele>13.0</ele><time>2026-05-02T18:22:34.833Z</time></trkpt><trkpt lat="37.3398497" lon="9.7457026"><ele>12.999999999999998</ele><time>2026-05-02T18:22:35.818Z</time></trkpt><trkpt lat="37.339782" lon="9.7457036"><ele>13.0</ele><time>2026-05-02T18:22:36.829Z</time></trkpt><trkpt lat="37.339711" lon="9.7456995"><ele>12.999999999999998</ele><time>2026-05-02T18:22:37.838Z</time></trkpt><trkpt lat="37.3396331" lon="9.7456982"><ele>13.0</ele><time>2026-05-02T18:22:38.847Z</time></trkpt><trkpt lat="37.3395533" lon="9.7457029"><ele>13.0</ele><time>2026-05-02T18:22:39.842Z</time></trkpt><trkpt lat="37.3394774" lon="9.7457075"><ele>13.0</ele><time>2026-05-02T18:22:40.85Z</time></trkpt><trkpt lat="37.3393936" lon="9.7457047"><ele>12.999999999999998</ele><time>2026-05-02T18:22:41.851Z</time></trkpt><trkpt lat="37.3393053" lon="9.7457081"><ele>13.0</ele><time>2026-05-02T18:22:42.874Z</time></trkpt><trkpt lat="37.3392161" lon="9.7457125"><ele>13.0</ele><time>2026-05-02T18:22:43.845Z</time></trkpt><trkpt lat="37.339121" lon="9.7457088"><ele>13.0</ele><time>2026-05-02T18:22:44.839Z</time></trkpt><trkpt lat="37.3390244" lon="9.7457065"><ele>13.0</ele><time>2026-05-02T18:22:45.844Z</time></trkpt><trkpt lat="37.3389269" lon="9.745706"><ele>13.0</ele><time>2026-05-02T18:22:46.844Z</time></trkpt><trkpt lat="37.3388327" lon="9.7457073"><ele>13.0</ele><time>2026-05-02T18:22:47.878Z</time></trkpt><trkpt lat="37.3387372" lon="9.74571"><ele>13.166666666666666</ele><time>2026-05-02T18:22:48.854Z</time></trkpt><trkpt lat="37.3386452" lon="9.7457083"><ele>13.333333333333332</ele><time>2026-05-02T18:22:49.821Z</time></trkpt><trkpt lat="37.338552" lon="9.7457091"><ele>13.5</ele><time>2026-05-02T18:22:50.797Z</time></trkpt><trkpt lat="37.3384685" lon="9.7457103"><ele>13.666666666666668</ele><time>2026-05-02T18:22:51.797Z</time></trkpt><trkpt lat="37.33839" lon="9.745712"><ele>13.833333333333334</ele><time>2026-05-02T18:22:52.808Z</time></trkpt><trkpt lat="37.338307" lon="9.7457137"><ele>14.0</ele><time>2026-05-02T18:22:53.806Z</time></trkpt><trkpt lat="37.3382226" lon="9.7457129"><ele>14.000000000000002</ele><time>2026-05-02T18:22:54.785Z</time></trkpt><trkpt lat="37.3381407" lon="9.7457105"><ele>14.0</ele><time>2026-05-02T18:22:55.822Z</time></trkpt><trkpt lat="37.3380519" lon="9.7457068"><ele>14.0</ele><time>2026-05-02T18:22:56.845Z</time></trkpt><trkpt lat="37.3379619" lon="9.7457054"><ele>14.0</ele><time>2026-05-02T18:22:57.83Z</time></trkpt><trkpt lat="37.3378835" lon="9.7457018"><ele>14.000000000000002</ele><time>2026-05-02T18:22:58.832Z</time></trkpt><trkpt lat="37.3377951" lon="9.7457034"><ele>14.0</ele><time>2026-05-02T18:22:59.869Z</time></trkpt><trkpt lat="37.337704" lon="9.7457012"><ele>14.000000000000002</ele><time>2026-05-02T18:23:00.84Z</time></trkpt><trkpt lat="37.3376266" lon="9.7456979"><ele>14.0</ele><time>2026-05-02T18:23:01.823Z</time></trkpt><trkpt lat="37.3375415" lon="9.7457008"><ele>14.0</ele><time>2026-05-02T18:23:02.841Z</time></trkpt><trkpt lat="37.3374577" lon="9.7457065"><ele>14.0</ele><time>2026-05-02T18:23:03.843Z</time></trkpt><trkpt lat="37.3373718" lon="9.7457109"><ele>14.000000000000002</ele><time>2026-05-02T18:23:04.819Z</time></trkpt><trkpt lat="37.3372794" lon="9.7457143"><ele>14.0</ele><time>2026-05-02T18:23:05.842Z</time></trkpt><trkpt lat="37.3371842" lon="9.7457161"><ele>14.0</ele><time>2026-05-02T18:23:06.815Z</time></trkpt><trkpt lat="37.3370958" lon="9.7457203"><ele>13.999999999999998</ele><time>2026-05-02T18:23:07.831Z</time></trkpt><trkpt lat="37.336998" lon="9.7457182"><ele>13.999999999999998</ele><time>2026-05-02T18:23:08.829Z</time></trkpt><trkpt lat="37.3368971" lon="9.745723"><ele>14.0</ele><time>2026-05-02T18:23:09.781Z</time></trkpt><trkpt lat="37.3367935" lon="9.7457297"><ele>14.0</ele><time>2026-05-02T18:23:10.821Z</time></trkpt><trkpt lat="37.3366879" lon="9.7457376"><ele>14.0</ele><time>2026-05-02T18:23:11.835Z</time></trkpt><trkpt lat="37.336569" lon="9.745736"><ele>13.999999999999998</ele><time>2026-05-02T18:23:12.808Z</time></trkpt><trkpt lat="37.3364646" lon="9.7457351"><ele>13.999999999999998</ele><time>2026-05-02T18:23:13.811Z</time></trkpt><trkpt lat="37.3363556" lon="9.7457353"><ele>14.0</ele><time>2026-05-02T18:23:14.807Z</time></trkpt><trkpt lat="37.336257" lon="9.7457349"><ele>14.0</ele><time>2026-05-02T18:23:15.816Z</time></trkpt><trkpt lat="37.3361492" lon="9.7457382"><ele>14.25</ele><time>2026-05-02T18:23:16.823Z</time></trkpt><trkpt lat="37.3360306" lon="9.7457412"><ele>14.5</ele><time>2026-05-02T18:23:17.81Z</time></trkpt><trkpt lat="37.3359061" lon="9.7457405"><ele>14.75</ele><time>2026-05-02T18:23:18.798Z</time></trkpt><trkpt lat="37.3357722" lon="9.7457383"><ele>15.0</ele><time>2026-05-02T18:23:19.816Z</time></trkpt><trkpt lat="37.3356248" lon="9.7457313"><ele>15.333333333333332</ele><time>2026-05-02T18:23:20.818Z</time></trkpt><trkpt lat="37.3354697" lon="9.745735"><ele>15.666666666666666</ele><time>2026-05-02T18:23:21.843Z</time></trkpt><trkpt lat="37.3353072" lon="9.7457454"><ele>16.0</ele><time>2026-05-02T18:23:22.81Z</time></trkpt><trkpt lat="37.3351712" lon="9.7457536"><ele>16.0</ele><time>2026-05-02T18:23:23.827Z</time></trkpt><trkpt lat="37.3350393" lon="9.7457711"><ele>16.0</ele><time>2026-05-02T18:23:24.844Z</time></trkpt><trkpt lat="37.3349005" lon="9.7457901"><ele>16.0</ele><time>2026-05-02T18:23:25.832Z</time></trkpt><trkpt lat="37.334756" lon="9.745821"><ele>16.0</ele><time>2026-05-02T18:23:26.774Z</time></trkpt><trkpt lat="37.3346131" lon="9.7458707"><ele>17.25</ele><time>2026-05-02T18:23:27.765Z</time></trkpt><trkpt lat="37.334489" lon="9.7459344"><ele>18.5</ele><time>2026-05-02T18:23:28.79Z</time></trkpt><trkpt lat="37.3343558" lon="9.7460087"><ele>19.75</ele><time>2026-05-02T18:23:29.782Z</time></trkpt><trkpt lat="37.3342339" lon="9.7460836"><ele>21.0</ele><time>2026-05-02T18:23:30.776Z</time></trkpt><trkpt lat="37.3341154" lon="9.7461514"><ele>21.0</ele><time>2026-05-02T18:23:31.781Z</time></trkpt><trkpt lat="37.3339891" lon="9.746201"><ele>21.0</ele><time>2026-05-02T18:23:32.771Z</time></trkpt><trkpt lat="37.333854" lon="9.7462497"><ele>21.0</ele><time>2026-05-02T18:23:33.785Z</time></trkpt><trkpt lat="37.3337073" lon="9.7462979"><ele>21.0</ele><time>2026-05-02T18:23:34.789Z</time></trkpt><trkpt lat="37.3335686" lon="9.7463437"><ele>21.25</ele><time>2026-05-02T18:23:35.761Z</time></trkpt><trkpt lat="37.3334383" lon="9.7463828"><ele>21.5</ele><time>2026-05-02T18:23:36.774Z</time></trkpt><trkpt lat="37.3333032" lon="9.7464111"><ele>21.75</ele><time>2026-05-02T18:23:37.772Z</time></trkpt><trkpt lat="37.3331595" lon="9.7464576"><ele>22.0</ele><time>2026-05-02T18:23:38.77Z</time></trkpt><trkpt lat="37.3330386" lon="9.7464989"><ele>20.75</ele><time>2026-05-02T18:23:39.784Z</time></trkpt><trkpt lat="37.3329333" lon="9.7465333"><ele>19.5</ele><time>2026-05-02T18:23:40.77Z</time></trkpt><trkpt lat="37.3328013" lon="9.7465875"><ele>18.25</ele><time>2026-05-02T18:23:41.772Z</time></trkpt><trkpt lat="37.3326682" lon="9.7466519"><ele>17.0</ele><time>2026-05-02T18:23:42.773Z</time></trkpt><trkpt lat="37.3325509" lon="9.7467145"><ele>17.0</ele><time>2026-05-02T18:23:43.787Z</time></trkpt><trkpt lat="37.3324369" lon="9.7467743"><ele>17.0</ele><time>2026-05-02T18:23:44.789Z</time></trkpt><trkpt lat="37.3323229" lon="9.7468388"><ele>17.0</ele><time>2026-05-02T18:23:45.779Z</time></trkpt><trkpt lat="37.3322084" lon="9.7469002"><ele>17.0</ele><time>2026-05-02T18:23:46.786Z</time></trkpt><trkpt lat="37.3320975" lon="9.7469589"><ele>16.25</ele><time>2026-05-02T18:23:47.794Z</time></trkpt><trkpt lat="37.3319896" lon="9.7470264"><ele>15.5</ele><time>2026-05-02T18:23:48.791Z</time></trkpt><trkpt lat="37.3318883" lon="9.7470989"><ele>14.75</ele><time>2026-05-02T18:23:49.785Z</time></trkpt><trkpt lat="37.3317932" lon="9.7471761"><ele>14.0</ele><time>2026-05-02T18:23:50.785Z</time></trkpt><trkpt lat="37.3317013" lon="9.7472639"><ele>14.0</ele><time>2026-05-02T18:23:51.786Z</time></trkpt><trkpt lat="37.3316128" lon="9.7473612"><ele>14.0</ele><time>2026-05-02T18:23:52.767Z</time></trkpt><trkpt lat="37.3315313" lon="9.7474691"><ele>14.0</ele><time>2026-05-02T18:23:53.78Z</time></trkpt><trkpt lat="37.3314475" lon="9.7475786"><ele>14.0</ele><time>2026-05-02T18:23:54.774Z</time></trkpt><trkpt lat="37.3313682" lon="9.7476856"><ele>14.399999999999999</ele><time>2026-05-02T18:23:55.779Z</time></trkpt><trkpt lat="37.3312917" lon="9.7477882"><ele>14.799999999999999</ele><time>2026-05-02T18:23:56.78Z</time></trkpt><trkpt lat="37.3312218" lon="9.7478857"><ele>15.200000000000001</ele><time>2026-05-02T18:23:57.782Z</time></trkpt><trkpt lat="37.3311549" lon="9.7479785"><ele>15.600000000000001</ele><time>2026-05-02T18:23:58.789Z</time></trkpt><trkpt lat="37.3311047" lon="9.7480606"><ele>16.0</ele><time>2026-05-02T18:23:59.786Z</time></trkpt><trkpt lat="37.3310688" lon="9.7481355"><ele>15.999999999999998</ele><time>2026-05-02T18:24:00.782Z</time></trkpt><trkpt lat="37.3310391" lon="9.748209"><ele>16.0</ele><time>2026-05-02T18:24:01.788Z</time></trkpt><trkpt lat="37.3310046" lon="9.74829"><ele>16.0</ele><time>2026-05-02T18:24:02.795Z</time></trkpt><trkpt lat="37.3309815" lon="9.7483843"><ele>16.0</ele><time>2026-05-02T18:24:03.798Z</time></trkpt><trkpt lat="37.3309687" lon="9.7484878"><ele>15.999999999999998</ele><time>2026-05-02T18:24:04.782Z</time></trkpt><trkpt lat="37.3309588" lon="9.7485985"><ele>16.0</ele><time>2026-05-02T18:24:05.792Z</time></trkpt><trkpt lat="37.3309569" lon="9.7487218"><ele>15.8</ele><time>2026-05-02T18:24:06.79Z</time></trkpt><trkpt lat="37.330953" lon="9.7488477"><ele>15.600000000000001</ele><time>2026-05-02T18:24:07.778Z</time></trkpt><trkpt lat="37.3309566" lon="9.7489802"><ele>15.4</ele><time>2026-05-02T18:24:08.789Z</time></trkpt><trkpt lat="37.3309656" lon="9.7491145"><ele>15.2</ele><time>2026-05-02T18:24:09.782Z</time></trkpt><trkpt lat="37.3309823" lon="9.7492538"><ele>15.0</ele><time>2026-05-02T18:24:10.797Z</time></trkpt><trkpt lat="37.331002" lon="9.7493974"><ele>14.5</ele><time>2026-05-02T18:24:11.797Z</time></trkpt><trkpt lat="37.3310226" lon="9.7495442"><ele>14.0</ele><time>2026-05-02T18:24:12.773Z</time></trkpt><trkpt lat="37.331046" lon="9.7496894"><ele>13.5</ele><time>2026-05-02T18:24:13.776Z</time></trkpt><trkpt lat="37.3310725" lon="9.7498328"><ele>13.0</ele><time>2026-05-02T18:24:14.817Z</time></trkpt><trkpt lat="37.3310968" lon="9.7499798"><ele>13.0</ele><time>2026-05-02T18:24:15.782Z</time></trkpt><trkpt lat="37.331118" lon="9.7501264"><ele>13.0</ele><time>2026-05-02T18:24:16.773Z</time></trkpt><trkpt lat="37.3311388" lon="9.7502638"><ele>13.0</ele><time>2026-05-02T18:24:17.771Z</time></trkpt><trkpt lat="37.3311572" lon="9.7503996"><ele>13.0</ele><time>2026-05-02T18:24:18.784Z</time></trkpt><trkpt lat="37.3311707" lon="9.7505238"><ele>13.0</ele><time>2026-05-02T18:24:19.778Z</time></trkpt><trkpt lat="37.3311883" lon="9.7506395"><ele>13.166666666666666</ele><time>2026-05-02T18:24:20.776Z</time></trkpt><trkpt lat="37.3312053" lon="9.7507455"><ele>13.333333333333332</ele><time>2026-05-02T18:24:21.784Z</time></trkpt><trkpt lat="37.3312202" lon="9.7508448"><ele>13.5</ele><time>2026-05-02T18:24:22.778Z</time></trkpt><trkpt lat="37.3312374" lon="9.750944"><ele>13.666666666666668</ele><time>2026-05-02T18:24:23.794Z</time></trkpt><trkpt lat="37.3312528" lon="9.7510457"><ele>13.833333333333334</ele><time>2026-05-02T18:24:24.788Z</time></trkpt><trkpt lat="37.3312653" lon="9.7511483"><ele>14.0</ele><time>2026-05-02T18:24:25.792Z</time></trkpt><trkpt lat="37.3312786" lon="9.7512513"><ele>14.0</ele><time>2026-05-02T18:24:26.803Z</time></trkpt><trkpt lat="37.3312902" lon="9.7513672"><ele>13.999999999999998</ele><time>2026-05-02T18:24:27.785Z</time></trkpt><trkpt lat="37.331303" lon="9.7514856"><ele>13.999999999999998</ele><time>2026-05-02T18:24:28.776Z</time></trkpt><trkpt lat="37.3313234" lon="9.7516092"><ele>14.0</ele><time>2026-05-02T18:24:29.772Z</time></trkpt><trkpt lat="37.3313434" lon="9.7517274"><ele>14.0</ele><time>2026-05-02T18:24:30.808Z</time></trkpt><trkpt lat="37.3313703" lon="9.751848"><ele>13.799999999999999</ele><time>2026-05-02T18:24:31.772Z</time></trkpt><trkpt lat="37.3313957" lon="9.7519615"><ele>13.599999999999998</ele><time>2026-05-02T18:24:32.77Z</time></trkpt><trkpt lat="37.331427" lon="9.7520758"><ele>13.4</ele><time>2026-05-02T18:24:33.78Z</time></trkpt><trkpt lat="37.3314555" lon="9.7521905"><ele>13.2</ele><time>2026-05-02T18:24:34.775Z</time></trkpt><trkpt lat="37.3314816" lon="9.7523135"><ele>13.0</ele><time>2026-05-02T18:24:35.788Z</time></trkpt><trkpt lat="37.3315013" lon="9.752438"><ele>13.0</ele><time>2026-05-02T18:24:36.78Z</time></trkpt><trkpt lat="37.3315265" lon="9.7525682"><ele>13.0</ele><time>2026-05-02T18:24:37.772Z</time></trkpt><trkpt lat="37.3315581" lon="9.7527048"><ele>13.0</ele><time>2026-05-02T18:24:38.78Z</time></trkpt><trkpt lat="37.3315928" lon="9.7528468"><ele>13.0</ele><time>2026-05-02T18:24:39.781Z</time></trkpt><trkpt lat="37.3316282" lon="9.7529832"><ele>12.75</ele><time>2026-05-02T18:24:40.778Z</time></trkpt><trkpt lat="37.3316661" lon="9.753126"><ele>12.5</ele><time>2026-05-02T18:24:41.775Z</time></trkpt><trkpt lat="37.3317005" lon="9.7532709"><ele>12.25</ele><time>2026-05-02T18:24:42.776Z</time></trkpt><trkpt lat="37.3317323" lon="9.7534135"><ele>12.0</ele><time>2026-05-02T18:24:43.766Z</time></trkpt><trkpt lat="37.3317576" lon="9.753556"><ele>12.5</ele><time>2026-05-02T18:24:44.788Z</time></trkpt><trkpt lat="37.3317783" lon="9.7537031"><ele>13.0</ele><time>2026-05-02T18:24:45.79Z</time></trkpt><trkpt lat="37.3317972" lon="9.7538416"><ele>13.5</ele><time>2026-05-02T18:24:46.781Z</time></trkpt><trkpt lat="37.3318168" lon="9.7539812"><ele>14.0</ele><time>2026-05-02T18:24:47.781Z</time></trkpt><trkpt lat="37.331834" lon="9.7541142"><ele>14.0</ele><time>2026-05-02T18:24:48.773Z</time></trkpt><trkpt lat="37.3318405" lon="9.7542486"><ele>13.999999999999998</ele><time>2026-05-02T18:24:49.786Z</time></trkpt><trkpt lat="37.3318369" lon="9.7543886"><ele>13.999999999999998</ele><time>2026-05-02T18:24:50.801Z</time></trkpt><trkpt lat="37.331834" lon="9.7545257"><ele>14.0</ele><time>2026-05-02T18:24:51.795Z</time></trkpt><trkpt lat="37.3318332" lon="9.7546666"><ele>14.0</ele><time>2026-05-02T18:24:52.782Z</time></trkpt><trkpt lat="37.3318314" lon="9.7548059"><ele>13.6</ele><time>2026-05-02T18:24:53.778Z</time></trkpt><trkpt lat="37.3318326" lon="9.7549406"><ele>13.2</ele><time>2026-05-02T18:24:54.765Z</time></trkpt><trkpt lat="37.3318341" lon="9.7550758"><ele>12.799999999999999</ele><time>2026-05-02T18:24:55.772Z</time></trkpt><trkpt lat="37.3318337" lon="9.7552154"><ele>12.399999999999999</ele><time>2026-05-02T18:24:56.777Z</time></trkpt><trkpt lat="37.3318316" lon="9.7553561"><ele>12.0</ele><time>2026-05-02T18:24:57.767Z</time></trkpt><trkpt lat="37.3318319" lon="9.7554938"><ele>12.0</ele><time>2026-05-02T18:24:58.783Z</time></trkpt><trkpt lat="37.33183" lon="9.7556261"><ele>12.0</ele><time>2026-05-02T18:24:59.786Z</time></trkpt><trkpt lat="37.3318225" lon="9.755755"><ele>12.0</ele><time>2026-05-02T18:25:00.787Z</time></trkpt><trkpt lat="37.3318086" lon="9.7558839"><ele>12.0</ele><time>2026-05-02T18:25:01.781Z</time></trkpt><trkpt lat="37.3317882" lon="9.7560084"><ele>12.0</ele><time>2026-05-02T18:25:02.786Z</time></trkpt><trkpt lat="37.3317622" lon="9.7561327"><ele>11.4</ele><time>2026-05-02T18:25:03.779Z</time></trkpt><trkpt lat="37.3317335" lon="9.7562593"><ele>10.799999999999999</ele><time>2026-05-02T18:25:04.785Z</time></trkpt><trkpt lat="37.3317026" lon="9.7563758"><ele>10.2</ele><time>2026-05-02T18:25:05.774Z</time></trkpt><trkpt lat="37.3316613" lon="9.7564835"><ele>9.6</ele><time>2026-05-02T18:25:06.79Z</time></trkpt><trkpt lat="37.3316248" lon="9.7565766"><ele>9.0</ele><time>2026-05-02T18:25:07.816Z</time></trkpt><trkpt lat="37.3315905" lon="9.7566574"><ele>9.0</ele><time>2026-05-02T18:25:08.789Z</time></trkpt><trkpt lat="37.3315227" lon="9.7567734"><ele>9.0</ele><time>2026-05-02T18:25:10.76Z</time></trkpt><trkpt lat="37.3314653" lon="9.756835"><ele>9.0</ele><time>2026-05-02T18:25:12.772Z</time></trkpt><trkpt lat="37.331397" lon="9.7568935"><ele>9.0</ele><time>2026-05-02T18:25:14.776Z</time></trkpt><trkpt lat="37.3313303" lon="9.7569157"><ele>9.0</ele><time>2026-05-02T18:25:16.768Z</time></trkpt><trkpt lat="37.3312294" lon="9.7569261"><ele>9.0</ele><time>2026-05-02T18:25:18.785Z</time></trkpt><trkpt lat="37.3311154" lon="9.7569064"><ele>9.166666666666666</ele><time>2026-05-02T18:25:20.773Z</time></trkpt><trkpt lat="37.3310523" lon="9.7568928"><ele>9.333333333333334</ele><time>2026-05-02T18:25:21.788Z</time></trkpt><trkpt lat="37.3309821" lon="9.7568709"><ele>9.5</ele><time>2026-05-02T18:25:22.786Z</time></trkpt><trkpt lat="37.3308958" lon="9.7568495"><ele>9.666666666666668</ele><time>2026-05-02T18:25:23.79Z</time></trkpt><trkpt lat="37.330809" lon="9.7568194"><ele>9.833333333333334</ele><time>2026-05-02T18:25:24.779Z</time></trkpt><trkpt lat="37.3307245" lon="9.7567899"><ele>10.0</ele><time>2026-05-02T18:25:25.786Z</time></trkpt><trkpt lat="37.3306393" lon="9.7567607"><ele>10.833333333333334</ele><time>2026-05-02T18:25:26.791Z</time></trkpt><trkpt lat="37.3305533" lon="9.7567303"><ele>11.666666666666668</ele><time>2026-05-02T18:25:27.78Z</time></trkpt><trkpt lat="37.330474" lon="9.7566916"><ele>12.5</ele><time>2026-05-02T18:25:28.782Z</time></trkpt><trkpt lat="37.3303952" lon="9.7566528"><ele>13.333333333333334</ele><time>2026-05-02T18:25:29.781Z</time></trkpt><trkpt lat="37.3303152" lon="9.7566157"><ele>14.166666666666666</ele><time>2026-05-02T18:25:30.774Z</time></trkpt><trkpt lat="37.3302388" lon="9.756579"><ele>15.0</ele><time>2026-05-02T18:25:31.776Z</time></trkpt><trkpt lat="37.3301629" lon="9.7565394"><ele>15.0</ele><time>2026-05-02T18:25:32.772Z</time></trkpt><trkpt lat="37.3300856" lon="9.7565022"><ele>15.0</ele><time>2026-05-02T18:25:33.773Z</time></trkpt><trkpt lat="37.3300001" lon="9.7564645"><ele>15.0</ele><time>2026-05-02T18:25:34.779Z</time></trkpt><trkpt lat="37.3299207" lon="9.7564236"><ele>15.0</ele><time>2026-05-02T18:25:35.788Z</time></trkpt><trkpt lat="37.3298373" lon="9.7563875"><ele>15.0</ele><time>2026-05-02T18:25:36.769Z</time></trkpt><trkpt lat="37.3297289" lon="9.7563404"><ele>15.5</ele><time>2026-05-02T18:25:37.789Z</time></trkpt><trkpt lat="37.3296119" lon="9.7562931"><ele>16.0</ele><time>2026-05-02T18:25:38.785Z</time></trkpt><trkpt lat="37.3295029" lon="9.7562454"><ele>16.5</ele><time>2026-05-02T18:25:39.78Z</time></trkpt><trkpt lat="37.3293879" lon="9.7561999"><ele>17.0</ele><time>2026-05-02T18:25:40.774Z</time></trkpt><trkpt lat="37.3292752" lon="9.7561541"><ele>17.0</ele><time>2026-05-02T18:25:41.773Z</time></trkpt><trkpt lat="37.3291717" lon="9.7561098"><ele>17.0</ele><time>2026-05-02T18:25:42.78Z</time></trkpt><trkpt lat="37.3290688" lon="9.7560688"><ele>17.0</ele><time>2026-05-02T18:25:43.78Z</time></trkpt><trkpt lat="37.3289632" lon="9.7560301"><ele>17.0</ele><time>2026-05-02T18:25:44.777Z</time></trkpt><trkpt lat="37.3288574" lon="9.755987"><ele>17.0</ele><time>2026-05-02T18:25:45.793Z</time></trkpt><trkpt lat="37.3287538" lon="9.7559465"><ele>18.2</ele><time>2026-05-02T18:25:46.785Z</time></trkpt><trkpt lat="37.3286533" lon="9.7559069"><ele>19.4</ele><time>2026-05-02T18:25:47.787Z</time></trkpt><trkpt lat="37.3285606" lon="9.7558699"><ele>20.599999999999998</ele><time>2026-05-02T18:25:48.786Z</time></trkpt><trkpt lat="37.3284615" lon="9.7558309"><ele>21.799999999999997</ele><time>2026-05-02T18:25:49.782Z</time></trkpt><trkpt lat="37.3283657" lon="9.7557922"><ele>23.0</ele><time>2026-05-02T18:25:50.779Z</time></trkpt><trkpt lat="37.328271" lon="9.7557585"><ele>23.0</ele><time>2026-05-02T18:25:51.781Z</time></trkpt><trkpt lat="37.3281722" lon="9.7557217"><ele>23.0</ele><time>2026-05-02T18:25:52.793Z</time></trkpt><trkpt lat="37.3280745" lon="9.7556841"><ele>23.0</ele><time>2026-05-02T18:25:53.776Z</time></trkpt><trkpt lat="37.3279671" lon="9.7556407"><ele>23.0</ele><time>2026-05-02T18:25:54.779Z</time></trkpt><trkpt lat="37.3278446" lon="9.7555962"><ele>23.0</ele><time>2026-05-02T18:25:55.778Z</time></trkpt><trkpt lat="37.3277163" lon="9.7555493"><ele>24.0</ele><time>2026-05-02T18:25:56.778Z</time></trkpt><trkpt lat="37.3275975" lon="9.7555015"><ele>25.0</ele><time>2026-05-02T18:25:57.777Z</time></trkpt><trkpt lat="37.3274847" lon="9.7554568"><ele>26.0</ele><time>2026-05-02T18:25:58.78Z</time></trkpt><trkpt lat="37.3273792" lon="9.755415"><ele>27.0</ele><time>2026-05-02T18:25:59.778Z</time></trkpt><trkpt lat="37.3272776" lon="9.7553741"><ele>28.6</ele><time>2026-05-02T18:26:00.778Z</time></trkpt><trkpt lat="37.3271845" lon="9.7553334"><ele>30.200000000000003</ele><time>2026-05-02T18:26:01.77Z</time></trkpt><trkpt lat="37.3270833" lon="9.7552994"><ele>31.8</ele><time>2026-05-02T18:26:02.782Z</time></trkpt><trkpt lat="37.3269937" lon="9.7552639"><ele>33.4</ele><time>2026-05-02T18:26:03.832Z</time></trkpt><trkpt lat="37.3268961" lon="9.755231"><ele>35.0</ele><time>2026-05-02T18:26:04.809Z</time></trkpt><trkpt lat="37.3268068" lon="9.7551949"><ele>35.0</ele><time>2026-05-02T18:26:05.823Z</time></trkpt><trkpt lat="37.3267186" lon="9.7551596"><ele>35.0</ele><time>2026-05-02T18:26:06.862Z</time></trkpt><trkpt lat="37.3266303" lon="9.7551286"><ele>35.0</ele><time>2026-05-02T18:26:07.832Z</time></trkpt><trkpt lat="37.3265404" lon="9.7550941"><ele>35.0</ele><time>2026-05-02T18:26:08.803Z</time></trkpt><trkpt lat="37.3264515" lon="9.7550616"><ele>35.0</ele><time>2026-05-02T18:26:09.852Z</time></trkpt><trkpt lat="37.3263742" lon="9.755035"><ele>36.6</ele><time>2026-05-02T18:26:10.815Z</time></trkpt><trkpt lat="37.3262746" lon="9.7549994"><ele>38.2</ele><time>2026-05-02T18:26:11.798Z</time></trkpt><trkpt lat="37.3261791" lon="9.7549588"><ele>39.8</ele><time>2026-05-02T18:26:12.83Z</time></trkpt><trkpt lat="37.3260825" lon="9.7549194"><ele>41.4</ele><time>2026-05-02T18:26:13.784Z</time></trkpt><trkpt lat="37.3259812" lon="9.7548784"><ele>43.0</ele><time>2026-05-02T18:26:14.824Z</time></trkpt><trkpt lat="37.3258804" lon="9.7548367"><ele>43.0</ele><time>2026-05-02T18:26:15.832Z</time></trkpt><trkpt lat="37.3257777" lon="9.754796"><ele>43.0</ele><time>2026-05-02T18:26:16.806Z</time></trkpt><trkpt lat="37.3256761" lon="9.7547568"><ele>43.0</ele><time>2026-05-02T18:26:17.832Z</time></trkpt><trkpt lat="37.3255785" lon="9.7547187"><ele>43.0</ele><time>2026-05-02T18:26:18.819Z</time></trkpt><trkpt lat="37.3254821" lon="9.7546818"><ele>43.0</ele><time>2026-05-02T18:26:19.846Z</time></trkpt><trkpt lat="37.3253855" lon="9.7546442"><ele>44.4</ele><time>2026-05-02T18:26:20.802Z</time></trkpt><trkpt lat="37.3252881" lon="9.754609"><ele>45.8</ele><time>2026-05-02T18:26:21.84Z</time></trkpt><trkpt lat="37.3251878" lon="9.7545669"><ele>47.2</ele><time>2026-05-02T18:26:22.83Z</time></trkpt><trkpt lat="37.3250819" lon="9.7545267"><ele>48.6</ele><time>2026-05-02T18:26:23.812Z</time></trkpt><trkpt lat="37.3249851" lon="9.7544862"><ele>50.0</ele><time>2026-05-02T18:26:24.778Z</time></trkpt><trkpt lat="37.3248838" lon="9.7544435"><ele>50.0</ele><time>2026-05-02T18:26:25.789Z</time></trkpt><trkpt lat="37.3247839" lon="9.7544007"><ele>50.0</ele><time>2026-05-02T18:26:26.823Z</time></trkpt><trkpt lat="37.3246835" lon="9.7543576"><ele>50.0</ele><time>2026-05-02T18:26:27.781Z</time></trkpt><trkpt lat="37.3245826" lon="9.7543148"><ele>50.0</ele><time>2026-05-02T18:26:28.818Z</time></trkpt><trkpt lat="37.324475" lon="9.7542705"><ele>50.0</ele><time>2026-05-02T18:26:29.779Z</time></trkpt><trkpt lat="37.3243709" lon="9.7542262"><ele>52.6</ele><time>2026-05-02T18:26:30.805Z</time></trkpt><trkpt lat="37.3242676" lon="9.7541894"><ele>55.2</ele><time>2026-05-02T18:26:31.776Z</time></trkpt><trkpt lat="37.3241606" lon="9.7541513"><ele>57.8</ele><time>2026-05-02T18:26:32.826Z</time></trkpt><trkpt lat="37.3240632" lon="9.7541095"><ele>60.4</ele><time>2026-05-02T18:26:33.804Z</time></trkpt><trkpt lat="37.3239587" lon="9.7540853"><ele>63.0</ele><time>2026-05-02T18:26:34.842Z</time></trkpt><trkpt lat="37.3238761" lon="9.7540598"><ele>64.85714285714286</ele><time>2026-05-02T18:26:35.813Z</time></trkpt><trkpt lat="37.3237954" lon="9.7540409"><ele>66.71428571428572</ele><time>2026-05-02T18:26:36.84Z</time></trkpt><trkpt lat="37.323717" lon="9.7540251"><ele>68.57142857142857</ele><time>2026-05-02T18:26:37.797Z</time></trkpt><trkpt lat="37.3236394" lon="9.7540145"><ele>70.42857142857143</ele><time>2026-05-02T18:26:38.831Z</time></trkpt><trkpt lat="37.3235702" lon="9.75402"><ele>72.28571428571429</ele><time>2026-05-02T18:26:39.814Z</time></trkpt><trkpt lat="37.323504" lon="9.7540426"><ele>74.14285714285714</ele><time>2026-05-02T18:26:40.835Z</time></trkpt><trkpt lat="37.3234453" lon="9.7540801"><ele>76.0</ele><time>2026-05-02T18:26:41.825Z</time></trkpt><trkpt lat="37.323393" lon="9.7541324"><ele>76.0</ele><time>2026-05-02T18:26:42.825Z</time></trkpt><trkpt lat="37.3233471" lon="9.7541919"><ele>76.0</ele><time>2026-05-02T18:26:43.82Z</time></trkpt><trkpt lat="37.3232965" lon="9.7542905"><ele>76.0</ele><time>2026-05-02T18:26:45.84Z</time></trkpt><trkpt lat="37.3232659" lon="9.7543852"><ele>76.0</ele><time>2026-05-02T18:26:47.833Z</time></trkpt><trkpt lat="37.3232282" lon="9.7545089"><ele>76.0</ele><time>2026-05-02T18:26:49.842Z</time></trkpt><trkpt lat="37.3232" lon="9.754586"><ele>76.0</ele><time>2026-05-02T18:26:50.841Z</time></trkpt><trkpt lat="37.3231745" lon="9.754665"><ele>75.42857142857143</ele><time>2026-05-02T18:26:51.834Z</time></trkpt><trkpt lat="37.3231587" lon="9.7547485"><ele>74.85714285714286</ele><time>2026-05-02T18:26:52.837Z</time></trkpt><trkpt lat="37.3231467" lon="9.7548343"><ele>74.28571428571429</ele><time>2026-05-02T18:26:53.816Z</time></trkpt><trkpt lat="37.3231327" lon="9.7549227"><ele>73.71428571428572</ele><time>2026-05-02T18:26:54.833Z</time></trkpt><trkpt lat="37.3231135" lon="9.7550122"><ele>73.14285714285714</ele><time>2026-05-02T18:26:55.825Z</time></trkpt><trkpt lat="37.3230981" lon="9.7551048"><ele>72.57142857142858</ele><time>2026-05-02T18:26:56.773Z</time></trkpt><trkpt lat="37.3230719" lon="9.7551968"><ele>72.0</ele><time>2026-05-02T18:26:57.79Z</time></trkpt><trkpt lat="37.3230508" lon="9.755293"><ele>75.8</ele><time>2026-05-02T18:26:58.843Z</time></trkpt><trkpt lat="37.3230207" lon="9.7553954"><ele>79.6</ele><time>2026-05-02T18:26:59.83Z</time></trkpt><trkpt lat="37.3229923" lon="9.7554979"><ele>83.39999999999999</ele><time>2026-05-02T18:27:00.807Z</time></trkpt><trkpt lat="37.3229589" lon="9.7556046"><ele>87.2</ele><time>2026-05-02T18:27:01.785Z</time></trkpt><trkpt lat="37.3229229" lon="9.7557166"><ele>91.0</ele><time>2026-05-02T18:27:02.803Z</time></trkpt><trkpt lat="37.322883" lon="9.7558392"><ele>91.0</ele><time>2026-05-02T18:27:03.792Z</time></trkpt><trkpt lat="37.3228377" lon="9.7559662"><ele>91.0</ele><time>2026-05-02T18:27:04.804Z</time></trkpt><trkpt lat="37.3227879" lon="9.7560892"><ele>91.0</ele><time>2026-05-02T18:27:05.803Z</time></trkpt><trkpt lat="37.322743" lon="9.7562068"><ele>91.0</ele><time>2026-05-02T18:27:06.837Z</time></trkpt><trkpt lat="37.3226977" lon="9.7563167"><ele>91.0</ele><time>2026-05-02T18:27:07.841Z</time></trkpt><trkpt lat="37.322652" lon="9.7564155"><ele>90.5</ele><time>2026-05-02T18:27:08.806Z</time></trkpt><trkpt lat="37.3226053" lon="9.7564987"><ele>90.0</ele><time>2026-05-02T18:27:09.838Z</time></trkpt><trkpt lat="37.3225446" lon="9.7565693"><ele>89.5</ele><time>2026-05-02T18:27:10.845Z</time></trkpt><trkpt lat="37.3224814" lon="9.7566386"><ele>89.0</ele><time>2026-05-02T18:27:11.846Z</time></trkpt><trkpt lat="37.3224108" lon="9.756708"><ele>88.5</ele><time>2026-05-02T18:27:12.831Z</time></trkpt><trkpt lat="37.3223437" lon="9.7567596"><ele>88.0</ele><time>2026-05-02T18:27:13.822Z</time></trkpt><trkpt lat="37.3222719" lon="9.7568069"><ele>91.2</ele><time>2026-05-02T18:27:14.846Z</time></trkpt><trkpt lat="37.3221891" lon="9.7568525"><ele>94.4</ele><time>2026-05-02T18:27:15.835Z</time></trkpt><trkpt lat="37.3221104" lon="9.7568997"><ele>97.60000000000001</ele><time>2026-05-02T18:27:16.859Z</time></trkpt><trkpt lat="37.3220233" lon="9.7569458"><ele>100.80000000000001</ele><time>2026-05-02T18:27:17.806Z</time></trkpt><trkpt lat="37.3219395" lon="9.7569916"><ele>104.0</ele><time>2026-05-02T18:27:18.82Z</time></trkpt><trkpt lat="37.3218526" lon="9.7570378"><ele>104.2</ele><time>2026-05-02T18:27:19.841Z</time></trkpt><trkpt lat="37.3217639" lon="9.7570851"><ele>104.4</ele><time>2026-05-02T18:27:20.826Z</time></trkpt><trkpt lat="37.3216755" lon="9.7571347"><ele>104.6</ele><time>2026-05-02T18:27:21.842Z</time></trkpt><trkpt lat="37.3215887" lon="9.7571913"><ele>104.8</ele><time>2026-05-02T18:27:22.796Z</time></trkpt><trkpt lat="37.3215063" lon="9.7572597"><ele>105.0</ele><time>2026-05-02T18:27:23.794Z</time></trkpt><trkpt lat="37.3214298" lon="9.7573306"><ele>106.2</ele><time>2026-05-02T18:27:24.82Z</time></trkpt><trkpt lat="37.3213521" lon="9.7573984"><ele>107.4</ele><time>2026-05-02T18:27:25.765Z</time></trkpt><trkpt lat="37.3212737" lon="9.7574577"><ele>108.6</ele><time>2026-05-02T18:27:26.831Z</time></trkpt><trkpt lat="37.3211916" lon="9.757512"><ele>109.8</ele><time>2026-05-02T18:27:27.76Z</time></trkpt><trkpt lat="37.3211085" lon="9.7575591"><ele>111.0</ele><time>2026-05-02T18:27:28.828Z</time></trkpt><trkpt lat="37.3210241" lon="9.7575993"><ele>111.0</ele><time>2026-05-02T18:27:29.819Z</time></trkpt><trkpt lat="37.3209427" lon="9.7576392"><ele>111.0</ele><time>2026-05-02T18:27:30.833Z</time></trkpt><trkpt lat="37.32086" lon="9.7576847"><ele>111.0</ele><time>2026-05-02T18:27:31.794Z</time></trkpt><trkpt lat="37.3207828" lon="9.7577344"><ele>111.0</ele><time>2026-05-02T18:27:32.839Z</time></trkpt><trkpt lat="37.3206998" lon="9.7577929"><ele>111.0</ele><time>2026-05-02T18:27:33.786Z</time></trkpt><trkpt lat="37.3206195" lon="9.7578522"><ele>111.6</ele><time>2026-05-02T18:27:34.827Z</time></trkpt><trkpt lat="37.3205423" lon="9.7579116"><ele>112.19999999999999</ele><time>2026-05-02T18:27:35.835Z</time></trkpt><trkpt lat="37.3204608" lon="9.7579735"><ele>112.80000000000001</ele><time>2026-05-02T18:27:36.826Z</time></trkpt><trkpt lat="37.320384" lon="9.7580348"><ele>113.4</ele><time>2026-05-02T18:27:37.83Z</time></trkpt><trkpt lat="37.3203071" lon="9.7580975"><ele>114.0</ele><time>2026-05-02T18:27:38.839Z</time></trkpt><trkpt lat="37.3202238" lon="9.7581527"><ele>114.0</ele><time>2026-05-02T18:27:39.83Z</time></trkpt><trkpt lat="37.3201387" lon="9.7581968"><ele>114.0</ele><time>2026-05-02T18:27:40.827Z</time></trkpt><trkpt lat="37.3200482" lon="9.7582335"><ele>114.0</ele><time>2026-05-02T18:27:41.847Z</time></trkpt><trkpt lat="37.3199456" lon="9.7582708"><ele>114.0</ele><time>2026-05-02T18:27:42.838Z</time></trkpt><trkpt lat="37.3198366" lon="9.7583105"><ele>114.0</ele><time>2026-05-02T18:27:43.817Z</time></trkpt><trkpt lat="37.3197295" lon="9.7583501"><ele>115.6</ele><time>2026-05-02T18:27:44.838Z</time></trkpt><trkpt lat="37.3196284" lon="9.758385"><ele>117.2</ele><time>2026-05-02T18:27:45.845Z</time></trkpt><trkpt lat="37.3195288" lon="9.7584231"><ele>118.79999999999998</ele><time>2026-05-02T18:27:46.838Z</time></trkpt><trkpt lat="37.3194252" lon="9.7584635"><ele>120.39999999999999</ele><time>2026-05-02T18:27:47.804Z</time></trkpt><trkpt lat="37.3193172" lon="9.7584998"><ele>122.0</ele><time>2026-05-02T18:27:48.848Z</time></trkpt><trkpt lat="37.3191934" lon="9.7585375"><ele>122.5</ele><time>2026-05-02T18:27:49.827Z</time></trkpt><trkpt lat="37.3190529" lon="9.7585812"><ele>123.0</ele><time>2026-05-02T18:27:50.824Z</time></trkpt><trkpt lat="37.3189193" lon="9.7586199"><ele>123.5</ele><time>2026-05-02T18:27:51.864Z</time></trkpt><trkpt lat="37.3187919" lon="9.7586593"><ele>124.0</ele><time>2026-05-02T18:27:52.84Z</time></trkpt><trkpt lat="37.3186758" lon="9.7586951"><ele>124.80000000000001</ele><time>2026-05-02T18:27:53.86Z</time></trkpt><trkpt lat="37.318568" lon="9.7587338"><ele>125.60000000000001</ele><time>2026-05-02T18:27:54.825Z</time></trkpt><trkpt lat="37.3184603" lon="9.7587739"><ele>126.4</ele><time>2026-05-02T18:27:55.81Z</time></trkpt><trkpt lat="37.3183519" lon="9.7588096"><ele>127.2</ele><time>2026-05-02T18:27:56.836Z</time></trkpt><trkpt lat="37.3182518" lon="9.7588438"><ele>128.0</ele><time>2026-05-02T18:27:57.84Z</time></trkpt><trkpt lat="37.3181555" lon="9.7588741"><ele>129.5</ele><time>2026-05-02T18:27:58.836Z</time></trkpt><trkpt lat="37.3180678" lon="9.7589038"><ele>131.0</ele><time>2026-05-02T18:27:59.833Z</time></trkpt><trkpt lat="37.3179813" lon="9.7589364"><ele>132.5</ele><time>2026-05-02T18:28:00.843Z</time></trkpt><trkpt lat="37.3178955" lon="9.7589728"><ele>134.0</ele><time>2026-05-02T18:28:01.828Z</time></trkpt><trkpt lat="37.3178174" lon="9.7590155"><ele>135.5</ele><time>2026-05-02T18:28:02.829Z</time></trkpt><trkpt lat="37.3177392" lon="9.7590612"><ele>137.0</ele><time>2026-05-02T18:28:03.836Z</time></trkpt><trkpt lat="37.3176609" lon="9.7591103"><ele>137.0</ele><time>2026-05-02T18:28:04.828Z</time></trkpt><trkpt lat="37.3175962" lon="9.7591683"><ele>137.0</ele><time>2026-05-02T18:28:05.838Z</time></trkpt><trkpt lat="37.3175316" lon="9.7592395"><ele>137.0</ele><time>2026-05-02T18:28:06.845Z</time></trkpt><trkpt lat="37.3174749" lon="9.7593193"><ele>137.0</ele><time>2026-05-02T18:28:07.837Z</time></trkpt><trkpt lat="37.3174252" lon="9.7594051"><ele>137.0</ele><time>2026-05-02T18:28:08.836Z</time></trkpt><trkpt lat="37.3173817" lon="9.7595009"><ele>137.0</ele><time>2026-05-02T18:28:09.813Z</time></trkpt><trkpt lat="37.3173501" lon="9.7596024"><ele>137.16666666666666</ele><time>2026-05-02T18:28:10.843Z</time></trkpt><trkpt lat="37.317318" lon="9.7597076"><ele>137.33333333333331</ele><time>2026-05-02T18:28:11.836Z</time></trkpt><trkpt lat="37.3172892" lon="9.7598145"><ele>137.5</ele><time>2026-05-02T18:28:12.832Z</time></trkpt><trkpt lat="37.3172612" lon="9.7599128"><ele>137.66666666666666</ele><time>2026-05-02T18:28:13.821Z</time></trkpt><trkpt lat="37.3172194" lon="9.7600059"><ele>137.83333333333334</ele><time>2026-05-02T18:28:14.843Z</time></trkpt><trkpt lat="37.3171633" lon="9.7600914"><ele>138.0</ele><time>2026-05-02T18:28:15.816Z</time></trkpt><trkpt lat="37.3171052" lon="9.7601632"><ele>138.16666666666666</ele><time>2026-05-02T18:28:16.83Z</time></trkpt><trkpt lat="37.3170553" lon="9.7602204"><ele>138.33333333333334</ele><time>2026-05-02T18:28:17.856Z</time></trkpt><trkpt lat="37.3169952" lon="9.7602712"><ele>138.5</ele><time>2026-05-02T18:28:18.831Z</time></trkpt><trkpt lat="37.3169238" lon="9.7603108"><ele>138.66666666666669</ele><time>2026-05-02T18:28:19.856Z</time></trkpt><trkpt lat="37.3168404" lon="9.7603449"><ele>138.83333333333334</ele><time>2026-05-02T18:28:20.847Z</time></trkpt><trkpt lat="37.3167473" lon="9.7603716"><ele>139.0</ele><time>2026-05-02T18:28:21.789Z</time></trkpt><trkpt lat="37.3166557" lon="9.7603832"><ele>139.0</ele><time>2026-05-02T18:28:22.84Z</time></trkpt><trkpt lat="37.3165649" lon="9.7603847"><ele>139.0</ele><time>2026-05-02T18:28:23.85Z</time></trkpt><trkpt lat="37.3164706" lon="9.7603792"><ele>139.0</ele><time>2026-05-02T18:28:24.77Z</time></trkpt><trkpt lat="37.3163669" lon="9.7603748"><ele>139.0</ele><time>2026-05-02T18:28:25.767Z</time></trkpt><trkpt lat="37.3162639" lon="9.7603678"><ele>139.0</ele><time>2026-05-02T18:28:26.764Z</time></trkpt><trkpt lat="37.3161581" lon="9.7603609"><ele>140.0</ele><time>2026-05-02T18:28:27.801Z</time></trkpt><trkpt lat="37.3160555" lon="9.7603478"><ele>141.0</ele><time>2026-05-02T18:28:28.769Z</time></trkpt><trkpt lat="37.3159587" lon="9.7603289"><ele>142.0</ele><time>2026-05-02T18:28:29.782Z</time></trkpt><trkpt lat="37.3158641" lon="9.7603047"><ele>143.0</ele><time>2026-05-02T18:28:30.779Z</time></trkpt><trkpt lat="37.3157646" lon="9.7602802"><ele>144.0</ele><time>2026-05-02T18:28:31.826Z</time></trkpt><trkpt lat="37.3156573" lon="9.7602563"><ele>146.0</ele><time>2026-05-02T18:28:32.828Z</time></trkpt><trkpt lat="37.3155503" lon="9.7602371"><ele>148.0</ele><time>2026-05-02T18:28:33.845Z</time></trkpt><trkpt lat="37.3154444" lon="9.7602282"><ele>150.0</ele><time>2026-05-02T18:28:34.806Z</time></trkpt><trkpt lat="37.3153373" lon="9.7602286"><ele>152.0</ele><time>2026-05-02T18:28:35.784Z</time></trkpt><trkpt lat="37.3152329" lon="9.7602371"><ele>154.0</ele><time>2026-05-02T18:28:36.834Z</time></trkpt><trkpt lat="37.3151297" lon="9.7602517"><ele>154.0</ele><time>2026-05-02T18:28:37.829Z</time></trkpt><trkpt lat="37.3150252" lon="9.7602638"><ele>154.0</ele><time>2026-05-02T18:28:38.846Z</time></trkpt><trkpt lat="37.3149234" lon="9.7602649"><ele>154.0</ele><time>2026-05-02T18:28:39.828Z</time></trkpt><trkpt lat="37.3147986" lon="9.7602708"><ele>154.0</ele><time>2026-05-02T18:28:40.786Z</time></trkpt><trkpt lat="37.3146588" lon="9.7602595"><ele>156.5</ele><time>2026-05-02T18:28:41.745Z</time></trkpt><trkpt lat="37.3145055" lon="9.7602396"><ele>159.0</ele><time>2026-05-02T18:28:42.739Z</time></trkpt><trkpt lat="37.3143641" lon="9.7602186"><ele>161.5</ele><time>2026-05-02T18:28:43.768Z</time></trkpt><trkpt lat="37.3142365" lon="9.7602011"><ele>164.0</ele><time>2026-05-02T18:28:44.742Z</time></trkpt><trkpt lat="37.3141126" lon="9.7601809"><ele>165.75</ele><time>2026-05-02T18:28:45.77Z</time></trkpt><trkpt lat="37.3139849" lon="9.7601647"><ele>167.5</ele><time>2026-05-02T18:28:46.769Z</time></trkpt><trkpt lat="37.3138589" lon="9.7601531"><ele>169.25</ele><time>2026-05-02T18:28:47.773Z</time></trkpt><trkpt lat="37.3137399" lon="9.7601404"><ele>171.0</ele><time>2026-05-02T18:28:48.765Z</time></trkpt><trkpt lat="37.3136191" lon="9.7601307"><ele>172.25</ele><time>2026-05-02T18:28:49.764Z</time></trkpt><trkpt lat="37.3135031" lon="9.7601212"><ele>173.5</ele><time>2026-05-02T18:28:50.722Z</time></trkpt><trkpt lat="37.313388" lon="9.7601104"><ele>174.75</ele><time>2026-05-02T18:28:51.76Z</time></trkpt><trkpt lat="37.3132742" lon="9.7601039"><ele>176.0</ele><time>2026-05-02T18:28:52.773Z</time></trkpt><trkpt lat="37.313159" lon="9.7600959"><ele>175.8</ele><time>2026-05-02T18:28:53.772Z</time></trkpt><trkpt lat="37.3130509" lon="9.7600887"><ele>175.60000000000002</ele><time>2026-05-02T18:28:54.75Z</time></trkpt><trkpt lat="37.3129383" lon="9.7600858"><ele>175.4</ele><time>2026-05-02T18:28:55.743Z</time></trkpt><trkpt lat="37.3128283" lon="9.7600877"><ele>175.2</ele><time>2026-05-02T18:28:56.76Z</time></trkpt><trkpt lat="37.3127191" lon="9.7600972"><ele>175.0</ele><time>2026-05-02T18:28:57.753Z</time></trkpt><trkpt lat="37.3126128" lon="9.7601212"><ele>175.0</ele><time>2026-05-02T18:28:58.767Z</time></trkpt><trkpt lat="37.312506" lon="9.7601533"><ele>175.0</ele><time>2026-05-02T18:28:59.771Z</time></trkpt><trkpt lat="37.3124017" lon="9.7601933"><ele>175.0</ele><time>2026-05-02T18:29:00.761Z</time></trkpt><trkpt lat="37.3123041" lon="9.7602423"><ele>175.0</ele><time>2026-05-02T18:29:01.754Z</time></trkpt><trkpt lat="37.3122076" lon="9.760311"><ele>175.0</ele><time>2026-05-02T18:29:02.774Z</time></trkpt><trkpt lat="37.312122" lon="9.7603772"><ele>173.8</ele><time>2026-05-02T18:29:03.772Z</time></trkpt><trkpt lat="37.3120278" lon="9.7604501"><ele>172.6</ele><time>2026-05-02T18:29:04.786Z</time></trkpt><trkpt lat="37.3119369" lon="9.7605263"><ele>171.39999999999998</ele><time>2026-05-02T18:29:05.781Z</time></trkpt><trkpt lat="37.3118427" lon="9.7606035"><ele>170.2</ele><time>2026-05-02T18:29:06.767Z</time></trkpt><trkpt lat="37.3117483" lon="9.7606856"><ele>169.0</ele><time>2026-05-02T18:29:07.773Z</time></trkpt><trkpt lat="37.3116611" lon="9.7607709"><ele>169.0</ele><time>2026-05-02T18:29:08.771Z</time></trkpt><trkpt lat="37.3115786" lon="9.7608562"><ele>169.0</ele><time>2026-05-02T18:29:09.77Z</time></trkpt><trkpt lat="37.311499" lon="9.7609484"><ele>169.0</ele><time>2026-05-02T18:29:10.766Z</time></trkpt><trkpt lat="37.3114192" lon="9.7610513"><ele>169.0</ele><time>2026-05-02T18:29:11.758Z</time></trkpt><trkpt lat="37.3113413" lon="9.7611565"><ele>169.0</ele><time>2026-05-02T18:29:12.743Z</time></trkpt><trkpt lat="37.311267" lon="9.761265"><ele>167.75</ele><time>2026-05-02T18:29:13.781Z</time></trkpt><trkpt lat="37.3111927" lon="9.7613768"><ele>166.5</ele><time>2026-05-02T18:29:14.745Z</time></trkpt><trkpt lat="37.3111161" lon="9.7614892"><ele>165.25</ele><time>2026-05-02T18:29:15.766Z</time></trkpt><trkpt lat="37.3110386" lon="9.7615991"><ele>164.0</ele><time>2026-05-02T18:29:16.741Z</time></trkpt><trkpt lat="37.3109658" lon="9.7617135"><ele>164.0</ele><time>2026-05-02T18:29:17.769Z</time></trkpt><trkpt lat="37.3108959" lon="9.7618327"><ele>164.0</ele><time>2026-05-02T18:29:18.774Z</time></trkpt><trkpt lat="37.3108234" lon="9.7619526"><ele>164.0</ele><time>2026-05-02T18:29:19.761Z</time></trkpt><trkpt lat="37.3107488" lon="9.7620701"><ele>164.0</ele><time>2026-05-02T18:29:20.766Z</time></trkpt><trkpt lat="37.3106711" lon="9.7621888"><ele>164.0</ele><time>2026-05-02T18:29:21.779Z</time></trkpt><trkpt lat="37.3106033" lon="9.7623097"><ele>164.0</ele><time>2026-05-02T18:29:22.77Z</time></trkpt><trkpt lat="37.3105308" lon="9.7624335"><ele>164.0</ele><time>2026-05-02T18:29:23.771Z</time></trkpt><trkpt lat="37.3104523" lon="9.7625641"><ele>164.0</ele><time>2026-05-02T18:29:24.721Z</time></trkpt><trkpt lat="37.3103671" lon="9.7627022"><ele>161.75</ele><time>2026-05-02T18:29:25.739Z</time></trkpt><trkpt lat="37.3102847" lon="9.7628387"><ele>159.5</ele><time>2026-05-02T18:29:26.732Z</time></trkpt><trkpt lat="37.3102032" lon="9.7629757"><ele>157.25</ele><time>2026-05-02T18:29:27.766Z</time></trkpt><trkpt lat="37.3101201" lon="9.7631175"><ele>155.0</ele><time>2026-05-02T18:29:28.786Z</time></trkpt><trkpt lat="37.3100356" lon="9.7632468"><ele>155.0</ele><time>2026-05-02T18:29:29.741Z</time></trkpt><trkpt lat="37.3099569" lon="9.7633779"><ele>155.0</ele><time>2026-05-02T18:29:30.738Z</time></trkpt><trkpt lat="37.3098826" lon="9.7635027"><ele>155.0</ele><time>2026-05-02T18:29:31.735Z</time></trkpt><trkpt lat="37.3098037" lon="9.7636219"><ele>155.0</ele><time>2026-05-02T18:29:32.707Z</time></trkpt><trkpt lat="37.3097244" lon="9.763743"><ele>154.6</ele><time>2026-05-02T18:29:33.725Z</time></trkpt><trkpt lat="37.3096479" lon="9.7638509"><ele>154.2</ele><time>2026-05-02T18:29:34.739Z</time></trkpt><trkpt lat="37.3095722" lon="9.7639576"><ele>153.8</ele><time>2026-05-02T18:29:35.771Z</time></trkpt><trkpt lat="37.3095026" lon="9.7640551"><ele>153.4</ele><time>2026-05-02T18:29:36.747Z</time></trkpt><trkpt lat="37.3094352" lon="9.7641465"><ele>153.0</ele><time>2026-05-02T18:29:37.785Z</time></trkpt><trkpt lat="37.3093678" lon="9.7642351"><ele>153.0</ele><time>2026-05-02T18:29:38.722Z</time></trkpt><trkpt lat="37.3093053" lon="9.7643275"><ele>153.0</ele><time>2026-05-02T18:29:39.738Z</time></trkpt><trkpt lat="37.3092487" lon="9.764415"><ele>153.0</ele><time>2026-05-02T18:29:40.761Z</time></trkpt><trkpt lat="37.3091979" lon="9.7645084"><ele>153.0</ele><time>2026-05-02T18:29:41.821Z</time></trkpt><trkpt lat="37.3091596" lon="9.7646102"><ele>153.0</ele><time>2026-05-02T18:29:42.759Z</time></trkpt><trkpt lat="37.3091243" lon="9.7647213"><ele>152.4</ele><time>2026-05-02T18:29:43.779Z</time></trkpt><trkpt lat="37.3091003" lon="9.7648355"><ele>151.8</ele><time>2026-05-02T18:29:44.758Z</time></trkpt><trkpt lat="37.309071" lon="9.7649482"><ele>151.2</ele><time>2026-05-02T18:29:45.785Z</time></trkpt><trkpt lat="37.3090459" lon="9.7650579"><ele>150.6</ele><time>2026-05-02T18:29:46.755Z</time></trkpt><trkpt lat="37.3090276" lon="9.7651672"><ele>150.0</ele><time>2026-05-02T18:29:47.775Z</time></trkpt><trkpt lat="37.3090085" lon="9.7652753"><ele>150.0</ele><time>2026-05-02T18:29:48.773Z</time></trkpt><trkpt lat="37.3089881" lon="9.7653848"><ele>150.0</ele><time>2026-05-02T18:29:49.78Z</time></trkpt><trkpt lat="37.3089615" lon="9.7654905"><ele>150.0</ele><time>2026-05-02T18:29:50.777Z</time></trkpt><trkpt lat="37.308927" lon="9.7655949"><ele>150.0</ele><time>2026-05-02T18:29:51.765Z</time></trkpt><trkpt lat="37.3088921" lon="9.7657009"><ele>150.0</ele><time>2026-05-02T18:29:52.724Z</time></trkpt><trkpt lat="37.308856" lon="9.7657872"><ele>150.0</ele><time>2026-05-02T18:29:53.736Z</time></trkpt><trkpt lat="37.3088085" lon="9.7658561"><ele>150.0</ele><time>2026-05-02T18:29:54.738Z</time></trkpt><trkpt lat="37.3087641" lon="9.7659141"><ele>150.0</ele><time>2026-05-02T18:29:55.747Z</time></trkpt><trkpt lat="37.3087062" lon="9.7659592"><ele>150.0</ele><time>2026-05-02T18:29:56.759Z</time></trkpt><trkpt lat="37.3086336" lon="9.7659946"><ele>150.0</ele><time>2026-05-02T18:29:57.724Z</time></trkpt><trkpt lat="37.3085559" lon="9.7660255"><ele>150.0</ele><time>2026-05-02T18:29:58.731Z</time></trkpt><trkpt lat="37.3084662" lon="9.7660436"><ele>150.0</ele><time>2026-05-02T18:29:59.736Z</time></trkpt><trkpt lat="37.3083717" lon="9.7660619"><ele>149.2</ele><time>2026-05-02T18:30:00.743Z</time></trkpt><trkpt lat="37.3082698" lon="9.7660737"><ele>148.4</ele><time>2026-05-02T18:30:01.724Z</time></trkpt><trkpt lat="37.3081652" lon="9.7660682"><ele>147.6</ele><time>2026-05-02T18:30:02.734Z</time></trkpt><trkpt lat="37.3080573" lon="9.7660647"><ele>146.8</ele><time>2026-05-02T18:30:03.754Z</time></trkpt><trkpt lat="37.3079448" lon="9.7660589"><ele>146.0</ele><time>2026-05-02T18:30:04.779Z</time></trkpt><trkpt lat="37.3078393" lon="9.7660607"><ele>146.0</ele><time>2026-05-02T18:30:05.758Z</time></trkpt><trkpt lat="37.3077367" lon="9.7660591"><ele>146.0</ele><time>2026-05-02T18:30:06.718Z</time></trkpt><trkpt lat="37.3076233" lon="9.7660674"><ele>146.0</ele><time>2026-05-02T18:30:07.771Z</time></trkpt><trkpt lat="37.3075274" lon="9.7660867"><ele>146.0</ele><time>2026-05-02T18:30:08.752Z</time></trkpt><trkpt lat="37.3074328" lon="9.7661156"><ele>146.0</ele><time>2026-05-02T18:30:09.719Z</time></trkpt><trkpt lat="37.3073416" lon="9.7661455"><ele>146.0</ele><time>2026-05-02T18:30:10.744Z</time></trkpt><trkpt lat="37.3072497" lon="9.7661826"><ele>146.0</ele><time>2026-05-02T18:30:11.733Z</time></trkpt><trkpt lat="37.3071675" lon="9.766213"><ele>146.0</ele><time>2026-05-02T18:30:12.755Z</time></trkpt><trkpt lat="37.3070963" lon="9.7662363"><ele>146.0</ele><time>2026-05-02T18:30:13.756Z</time></trkpt><trkpt lat="37.3070249" lon="9.7662491"><ele>146.0</ele><time>2026-05-02T18:30:14.768Z</time></trkpt><trkpt lat="37.3069588" lon="9.766249"><ele>146.0</ele><time>2026-05-02T18:30:15.764Z</time></trkpt><trkpt lat="37.3068961" lon="9.7662247"><ele>144.66666666666666</ele><time>2026-05-02T18:30:16.773Z</time></trkpt><trkpt lat="37.3067993" lon="9.7661346"><ele>143.33333333333331</ele><time>2026-05-02T18:30:18.764Z</time></trkpt><trkpt lat="37.3067561" lon="9.7660745"><ele>142.0</ele><time>2026-05-02T18:30:19.761Z</time></trkpt><trkpt lat="37.306723" lon="9.7659921"><ele>140.66666666666666</ele><time>2026-05-02T18:30:20.771Z</time></trkpt><trkpt lat="37.3066878" lon="9.7659046"><ele>139.33333333333334</ele><time>2026-05-02T18:30:21.77Z</time></trkpt><trkpt lat="37.3066583" lon="9.7658219"><ele>138.0</ele><time>2026-05-02T18:30:22.774Z</time></trkpt><trkpt lat="37.3066232" lon="9.7657551"><ele>138.0</ele><time>2026-05-02T18:30:23.775Z</time></trkpt><trkpt lat="37.3065729" lon="9.7656906"><ele>138.0</ele><time>2026-05-02T18:30:24.771Z</time></trkpt><trkpt lat="37.3065183" lon="9.7656393"><ele>138.0</ele><time>2026-05-02T18:30:25.784Z</time></trkpt><trkpt lat="37.3064007" lon="9.7656264"><ele>138.0</ele><time>2026-05-02T18:30:27.847Z</time></trkpt><trkpt lat="37.3063338" lon="9.7656587"><ele>138.0</ele><time>2026-05-02T18:30:28.812Z</time></trkpt><trkpt lat="37.3062815" lon="9.7657095"><ele>138.0</ele><time>2026-05-02T18:30:29.803Z</time></trkpt><trkpt lat="37.3062344" lon="9.7657721"><ele>136.4</ele><time>2026-05-02T18:30:30.783Z</time></trkpt><trkpt lat="37.3061927" lon="9.7658584"><ele>134.8</ele><time>2026-05-02T18:30:31.824Z</time></trkpt><trkpt lat="37.3061517" lon="9.765956"><ele>133.2</ele><time>2026-05-02T18:30:32.842Z</time></trkpt><trkpt lat="37.3061" lon="9.7660516"><ele>131.6</ele><time>2026-05-02T18:30:33.827Z</time></trkpt><trkpt lat="37.3060367" lon="9.7661528"><ele>130.0</ele><time>2026-05-02T18:30:34.828Z</time></trkpt><trkpt lat="37.3059718" lon="9.7662603"><ele>129.6</ele><time>2026-05-02T18:30:35.819Z</time></trkpt><trkpt lat="37.3058964" lon="9.7663483"><ele>129.2</ele><time>2026-05-02T18:30:36.846Z</time></trkpt><trkpt lat="37.3058152" lon="9.7664314"><ele>128.8</ele><time>2026-05-02T18:30:37.814Z</time></trkpt><trkpt lat="37.305724" lon="9.7664989"><ele>128.4</ele><time>2026-05-02T18:30:38.821Z</time></trkpt><trkpt lat="37.3056296" lon="9.7665688"><ele>128.0</ele><time>2026-05-02T18:30:39.808Z</time></trkpt><trkpt lat="37.3055363" lon="9.7666368"><ele>127.4</ele><time>2026-05-02T18:30:40.792Z</time></trkpt><trkpt lat="37.3054449" lon="9.7667058"><ele>126.80000000000001</ele><time>2026-05-02T18:30:41.875Z</time></trkpt><trkpt lat="37.305349" lon="9.7667699"><ele>126.2</ele><time>2026-05-02T18:30:42.845Z</time></trkpt><trkpt lat="37.3052494" lon="9.7668281"><ele>125.6</ele><time>2026-05-02T18:30:43.817Z</time></trkpt><trkpt lat="37.3051484" lon="9.766875"><ele>125.0</ele><time>2026-05-02T18:30:44.844Z</time></trkpt><trkpt lat="37.30505" lon="9.7669115"><ele>125.0</ele><time>2026-05-02T18:30:45.837Z</time></trkpt><trkpt lat="37.3049507" lon="9.7669322"><ele>125.0</ele><time>2026-05-02T18:30:46.84Z</time></trkpt><trkpt lat="37.3048505" lon="9.7669526"><ele>125.0</ele><time>2026-05-02T18:30:47.842Z</time></trkpt><trkpt lat="37.3047473" lon="9.7669658"><ele>125.0</ele><time>2026-05-02T18:30:48.837Z</time></trkpt><trkpt lat="37.3046435" lon="9.7669781"><ele>125.0</ele><time>2026-05-02T18:30:49.802Z</time></trkpt><trkpt lat="37.3045353" lon="9.766988"><ele>122.6</ele><time>2026-05-02T18:30:50.856Z</time></trkpt><trkpt lat="37.3044306" lon="9.7670055"><ele>120.2</ele><time>2026-05-02T18:30:51.85Z</time></trkpt><trkpt lat="37.3043252" lon="9.7670291"><ele>117.80000000000001</ele><time>2026-05-02T18:30:52.797Z</time></trkpt><trkpt lat="37.3042175" lon="9.767047"><ele>115.4</ele><time>2026-05-02T18:30:53.843Z</time></trkpt><trkpt lat="37.3041159" lon="9.7670798"><ele>113.0</ele><time>2026-05-02T18:30:54.814Z</time></trkpt><trkpt lat="37.3040206" lon="9.767123"><ele>113.0</ele><time>2026-05-02T18:30:55.847Z</time></trkpt><trkpt lat="37.3039457" lon="9.7671699"><ele>113.00000000000001</ele><time>2026-05-02T18:30:56.845Z</time></trkpt><trkpt lat="37.3038516" lon="9.7672294"><ele>113.00000000000001</ele><time>2026-05-02T18:30:57.855Z</time></trkpt><trkpt lat="37.3037642" lon="9.7672982"><ele>113.0</ele><time>2026-05-02T18:30:58.817Z</time></trkpt><trkpt lat="37.3036772" lon="9.7673752"><ele>113.0</ele><time>2026-05-02T18:30:59.842Z</time></trkpt><trkpt lat="37.3035923" lon="9.7674552"><ele>111.80000000000001</ele><time>2026-05-02T18:31:00.821Z</time></trkpt><trkpt lat="37.3035081" lon="9.7675344"><ele>110.60000000000001</ele><time>2026-05-02T18:31:01.799Z</time></trkpt><trkpt lat="37.3034296" lon="9.7676134"><ele>109.39999999999999</ele><time>2026-05-02T18:31:02.768Z</time></trkpt><trkpt lat="37.3033422" lon="9.7676981"><ele>108.19999999999999</ele><time>2026-05-02T18:31:03.828Z</time></trkpt><trkpt lat="37.3032579" lon="9.7677818"><ele>107.0</ele><time>2026-05-02T18:31:04.829Z</time></trkpt><trkpt lat="37.3031719" lon="9.7678659"><ele>106.8</ele><time>2026-05-02T18:31:05.836Z</time></trkpt><trkpt lat="37.3030938" lon="9.7679522"><ele>106.6</ele><time>2026-05-02T18:31:06.81Z</time></trkpt><trkpt lat="37.3030232" lon="9.768037"><ele>106.39999999999999</ele><time>2026-05-02T18:31:07.785Z</time></trkpt><trkpt lat="37.3029532" lon="9.7681232"><ele>106.19999999999999</ele><time>2026-05-02T18:31:08.832Z</time></trkpt><trkpt lat="37.3028912" lon="9.7682064"><ele>106.0</ele><time>2026-05-02T18:31:09.783Z</time></trkpt><trkpt lat="37.3028384" lon="9.7682868"><ele>105.0</ele><time>2026-05-02T18:31:10.789Z</time></trkpt><trkpt lat="37.3027944" lon="9.7683614"><ele>104.0</ele><time>2026-05-02T18:31:11.818Z</time></trkpt><trkpt lat="37.3027598" lon="9.7684358"><ele>103.0</ele><time>2026-05-02T18:31:12.827Z</time></trkpt><trkpt lat="37.3027137" lon="9.7685181"><ele>102.0</ele><time>2026-05-02T18:31:13.835Z</time></trkpt><trkpt lat="37.3026756" lon="9.7686077"><ele>101.0</ele><time>2026-05-02T18:31:14.771Z</time></trkpt><trkpt lat="37.3025963" lon="9.7688151"><ele>100.8</ele><time>2026-05-02T18:31:16.828Z</time></trkpt><trkpt lat="37.302561" lon="9.7689264"><ele>100.6</ele><time>2026-05-02T18:31:17.792Z</time></trkpt><trkpt lat="37.3025275" lon="9.769038"><ele>100.4</ele><time>2026-05-02T18:31:18.786Z</time></trkpt><trkpt lat="37.3025004" lon="9.7691479"><ele>100.2</ele><time>2026-05-02T18:31:19.816Z</time></trkpt><trkpt lat="37.3024688" lon="9.7692658"><ele>100.0</ele><time>2026-05-02T18:31:20.834Z</time></trkpt><trkpt lat="37.3024371" lon="9.7693901"><ele>99.8</ele><time>2026-05-02T18:31:21.852Z</time></trkpt><trkpt lat="37.302404" lon="9.7695207"><ele>99.6</ele><time>2026-05-02T18:31:22.846Z</time></trkpt><trkpt lat="37.3023751" lon="9.7696562"><ele>99.4</ele><time>2026-05-02T18:31:23.816Z</time></trkpt><trkpt lat="37.3023447" lon="9.7697923"><ele>99.2</ele><time>2026-05-02T18:31:24.779Z</time></trkpt><trkpt lat="37.3023185" lon="9.7699276"><ele>99.0</ele><time>2026-05-02T18:31:25.804Z</time></trkpt><trkpt lat="37.3022925" lon="9.7700574"><ele>99.25</ele><time>2026-05-02T18:31:26.839Z</time></trkpt><trkpt lat="37.3022648" lon="9.770196"><ele>99.5</ele><time>2026-05-02T18:31:27.766Z</time></trkpt><trkpt lat="37.3022335" lon="9.7703498"><ele>99.75</ele><time>2026-05-02T18:31:28.783Z</time></trkpt><trkpt lat="37.3021972" lon="9.7705078"><ele>100.0</ele><time>2026-05-02T18:31:29.798Z</time></trkpt><trkpt lat="37.3021465" lon="9.7706724"><ele>97.75</ele><time>2026-05-02T18:31:30.827Z</time></trkpt><trkpt lat="37.3021083" lon="9.7708301"><ele>95.5</ele><time>2026-05-02T18:31:31.806Z</time></trkpt><trkpt lat="37.302077" lon="9.7709938"><ele>93.25</ele><time>2026-05-02T18:31:32.839Z</time></trkpt><trkpt lat="37.3020589" lon="9.7711626"><ele>91.0</ele><time>2026-05-02T18:31:33.835Z</time></trkpt><trkpt lat="37.3020432" lon="9.7713351"><ele>90.75</ele><time>2026-05-02T18:31:34.798Z</time></trkpt><trkpt lat="37.3020419" lon="9.771505"><ele>90.5</ele><time>2026-05-02T18:31:35.796Z</time></trkpt><trkpt lat="37.3020632" lon="9.7716687"><ele>90.25</ele><time>2026-05-02T18:31:36.847Z</time></trkpt><trkpt lat="37.3020791" lon="9.7718423"><ele>90.0</ele><time>2026-05-02T18:31:37.795Z</time></trkpt><trkpt lat="37.3020966" lon="9.7720172"><ele>89.33333333333333</ele><time>2026-05-02T18:31:38.849Z</time></trkpt><trkpt lat="37.3021136" lon="9.7721963"><ele>88.66666666666666</ele><time>2026-05-02T18:31:39.837Z</time></trkpt><trkpt lat="37.3021387" lon="9.772391"><ele>88.0</ele><time>2026-05-02T18:31:40.837Z</time></trkpt><trkpt lat="37.3021668" lon="9.7725929"><ele>87.0</ele><time>2026-05-02T18:31:41.835Z</time></trkpt><trkpt lat="37.3022055" lon="9.7727916"><ele>86.0</ele><time>2026-05-02T18:31:42.823Z</time></trkpt><trkpt lat="37.3022568" lon="9.7729886"><ele>85.0</ele><time>2026-05-02T18:31:43.819Z</time></trkpt><trkpt lat="37.3023193" lon="9.7731775"><ele>86.33333333333333</ele><time>2026-05-02T18:31:44.833Z</time></trkpt><trkpt lat="37.3023848" lon="9.7733633"><ele>87.66666666666667</ele><time>2026-05-02T18:31:45.846Z</time></trkpt><trkpt lat="37.3024454" lon="9.7735418"><ele>89.0</ele><time>2026-05-02T18:31:46.849Z</time></trkpt><trkpt lat="37.3025002" lon="9.773721"><ele>89.0</ele><time>2026-05-02T18:31:47.802Z</time></trkpt><trkpt lat="37.3025363" lon="9.7738944"><ele>89.0</ele><time>2026-05-02T18:31:48.832Z</time></trkpt><trkpt lat="37.3025578" lon="9.7740681"><ele>89.0</ele><time>2026-05-02T18:31:49.823Z</time></trkpt><trkpt lat="37.3025684" lon="9.7742426"><ele>89.0</ele><time>2026-05-02T18:31:50.848Z</time></trkpt><trkpt lat="37.3025728" lon="9.7744255"><ele>89.25</ele><time>2026-05-02T18:31:51.834Z</time></trkpt><trkpt lat="37.302571" lon="9.7746087"><ele>89.5</ele><time>2026-05-02T18:31:52.842Z</time></trkpt><trkpt lat="37.3025668" lon="9.7747927"><ele>89.75</ele><time>2026-05-02T18:31:53.843Z</time></trkpt><trkpt lat="37.302557" lon="9.77498"><ele>90.0</ele><time>2026-05-02T18:31:54.844Z</time></trkpt><trkpt lat="37.3025429" lon="9.7751724"><ele>90.33333333333333</ele><time>2026-05-02T18:31:55.802Z</time></trkpt><trkpt lat="37.3025195" lon="9.7753679"><ele>90.66666666666666</ele><time>2026-05-02T18:31:56.828Z</time></trkpt><trkpt lat="37.3024842" lon="9.7755692"><ele>91.0</ele><time>2026-05-02T18:31:57.834Z</time></trkpt><trkpt lat="37.3024363" lon="9.7757767"><ele>91.0</ele><time>2026-05-02T18:31:58.84Z</time></trkpt><trkpt lat="37.3023794" lon="9.7760025"><ele>91.0</ele><time>2026-05-02T18:31:59.817Z</time></trkpt><trkpt lat="37.3023192" lon="9.7762356"><ele>91.0</ele><time>2026-05-02T18:32:00.838Z</time></trkpt><trkpt lat="37.3022564" lon="9.7764719"><ele>88.0</ele><time>2026-05-02T18:32:01.847Z</time></trkpt><trkpt lat="37.3021968" lon="9.7767028"><ele>85.0</ele><time>2026-05-02T18:32:02.835Z</time></trkpt><trkpt lat="37.3021342" lon="9.776929"><ele>82.0</ele><time>2026-05-02T18:32:03.811Z</time></trkpt><trkpt lat="37.3020714" lon="9.777153"><ele>82.0</ele><time>2026-05-02T18:32:04.807Z</time></trkpt><trkpt lat="37.3020126" lon="9.7773701"><ele>82.0</ele><time>2026-05-02T18:32:05.796Z</time></trkpt><trkpt lat="37.3019576" lon="9.7775744"><ele>82.0</ele><time>2026-05-02T18:32:06.814Z</time></trkpt><trkpt lat="37.3019053" lon="9.7777705"><ele>82.0</ele><time>2026-05-02T18:32:07.833Z</time></trkpt><trkpt lat="37.3018559" lon="9.7779629"><ele>82.0</ele><time>2026-05-02T18:32:08.844Z</time></trkpt><trkpt lat="37.3018108" lon="9.7781464"><ele>82.0</ele><time>2026-05-02T18:32:09.809Z</time></trkpt><trkpt lat="37.3017653" lon="9.7783233"><ele>82.0</ele><time>2026-05-02T18:32:10.815Z</time></trkpt><trkpt lat="37.3017215" lon="9.778494"><ele>82.0</ele><time>2026-05-02T18:32:11.805Z</time></trkpt><trkpt lat="37.3016805" lon="9.7786584"><ele>82.0</ele><time>2026-05-02T18:32:12.83Z</time></trkpt><trkpt lat="37.3016418" lon="9.7788143"><ele>82.0</ele><time>2026-05-02T18:32:13.843Z</time></trkpt><trkpt lat="37.3016049" lon="9.7789662"><ele>82.75</ele><time>2026-05-02T18:32:14.84Z</time></trkpt><trkpt lat="37.3015669" lon="9.7791168"><ele>83.5</ele><time>2026-05-02T18:32:15.804Z</time></trkpt><trkpt lat="37.3015295" lon="9.7792787"><ele>84.25</ele><time>2026-05-02T18:32:16.781Z</time></trkpt><trkpt lat="37.301491" lon="9.779456"><ele>85.0</ele><time>2026-05-02T18:32:17.766Z</time></trkpt><trkpt lat="37.3014444" lon="9.7796416"><ele>82.33333333333333</ele><time>2026-05-02T18:32:18.775Z</time></trkpt><trkpt lat="37.3013916" lon="9.7798366"><ele>79.66666666666667</ele><time>2026-05-02T18:32:19.765Z</time></trkpt><trkpt lat="37.3013402" lon="9.7800454"><ele>77.0</ele><time>2026-05-02T18:32:20.761Z</time></trkpt><trkpt lat="37.3012972" lon="9.7802592"><ele>76.66666666666667</ele><time>2026-05-02T18:32:21.8Z</time></trkpt><trkpt lat="37.3012437" lon="9.7804906"><ele>76.33333333333333</ele><time>2026-05-02T18:32:22.814Z</time></trkpt><trkpt lat="37.3011848" lon="9.7807277"><ele>76.0</ele><time>2026-05-02T18:32:23.812Z</time></trkpt><trkpt lat="37.3011211" lon="9.7809707"><ele>76.33333333333333</ele><time>2026-05-02T18:32:24.828Z</time></trkpt><trkpt lat="37.301053" lon="9.7812134"><ele>76.66666666666667</ele><time>2026-05-02T18:32:25.791Z</time></trkpt><trkpt lat="37.300987" lon="9.7814558"><ele>77.0</ele><time>2026-05-02T18:32:26.826Z</time></trkpt><trkpt lat="37.3009227" lon="9.7816903"><ele>77.0</ele><time>2026-05-02T18:32:27.768Z</time></trkpt><trkpt lat="37.3008636" lon="9.7819144"><ele>77.0</ele><time>2026-05-02T18:32:28.839Z</time></trkpt><trkpt lat="37.300806" lon="9.7821363"><ele>77.0</ele><time>2026-05-02T18:32:29.818Z</time></trkpt><trkpt lat="37.3007481" lon="9.7823557"><ele>77.0</ele><time>2026-05-02T18:32:30.847Z</time></trkpt><trkpt lat="37.3006972" lon="9.7825699"><ele>77.0</ele><time>2026-05-02T18:32:31.824Z</time></trkpt><trkpt lat="37.3006456" lon="9.7827816"><ele>77.0</ele><time>2026-05-02T18:32:32.774Z</time></trkpt><trkpt lat="37.3005951" lon="9.7829924"><ele>74.66666666666667</ele><time>2026-05-02T18:32:33.83Z</time></trkpt><trkpt lat="37.3005419" lon="9.7831989"><ele>72.33333333333333</ele><time>2026-05-02T18:32:34.797Z</time></trkpt><trkpt lat="37.3004894" lon="9.7834048"><ele>70.0</ele><time>2026-05-02T18:32:35.809Z</time></trkpt><trkpt lat="37.3004375" lon="9.783604"><ele>69.66666666666666</ele><time>2026-05-02T18:32:36.825Z</time></trkpt><trkpt lat="37.3003877" lon="9.783803"><ele>69.33333333333333</ele><time>2026-05-02T18:32:37.804Z</time></trkpt><trkpt lat="37.3003388" lon="9.7839991"><ele>69.0</ele><time>2026-05-02T18:32:38.835Z</time></trkpt><trkpt lat="37.3002908" lon="9.7841858"><ele>69.33333333333333</ele><time>2026-05-02T18:32:39.847Z</time></trkpt><trkpt lat="37.3002436" lon="9.7843671"><ele>69.66666666666666</ele><time>2026-05-02T18:32:40.816Z</time></trkpt><trkpt lat="37.3001958" lon="9.7845564"><ele>70.0</ele><time>2026-05-02T18:32:41.83Z</time></trkpt><trkpt lat="37.3001499" lon="9.784751"><ele>70.0</ele><time>2026-05-02T18:32:42.815Z</time></trkpt><trkpt lat="37.3000952" lon="9.7849471"><ele>70.0</ele><time>2026-05-02T18:32:43.836Z</time></trkpt><trkpt lat="37.3000351" lon="9.7851453"><ele>70.0</ele><time>2026-05-02T18:32:44.823Z</time></trkpt><trkpt lat="37.299978" lon="9.7853436"><ele>69.33333333333333</ele><time>2026-05-02T18:32:45.794Z</time></trkpt><trkpt lat="37.299924" lon="9.7855449"><ele>68.66666666666667</ele><time>2026-05-02T18:32:46.822Z</time></trkpt><trkpt lat="37.299874" lon="9.7857408"><ele>68.0</ele><time>2026-05-02T18:32:47.802Z</time></trkpt><trkpt lat="37.2998232" lon="9.7859389"><ele>67.0</ele><time>2026-05-02T18:32:48.819Z</time></trkpt><trkpt lat="37.2997745" lon="9.7861352"><ele>66.0</ele><time>2026-05-02T18:32:49.831Z</time></trkpt><trkpt lat="37.2997256" lon="9.7863356"><ele>65.0</ele><time>2026-05-02T18:32:50.822Z</time></trkpt><trkpt lat="37.299679" lon="9.7865352"><ele>64.25</ele><time>2026-05-02T18:32:51.803Z</time></trkpt><trkpt lat="37.2996388" lon="9.786711"><ele>63.5</ele><time>2026-05-02T18:32:52.832Z</time></trkpt><trkpt lat="37.2996064" lon="9.7868788"><ele>62.75</ele><time>2026-05-02T18:32:53.837Z</time></trkpt><trkpt lat="37.2995789" lon="9.7870458"><ele>62.0</ele><time>2026-05-02T18:32:54.856Z</time></trkpt><trkpt lat="37.2995585" lon="9.7872193"><ele>61.66666666666667</ele><time>2026-05-02T18:32:55.83Z</time></trkpt><trkpt lat="37.2995422" lon="9.7874021"><ele>61.33333333333333</ele><time>2026-05-02T18:32:56.844Z</time></trkpt><trkpt lat="37.2995266" lon="9.7875901"><ele>61.0</ele><time>2026-05-02T18:32:57.801Z</time></trkpt><trkpt lat="37.2995032" lon="9.7877827"><ele>60.666666666666664</ele><time>2026-05-02T18:32:58.837Z</time></trkpt><trkpt lat="37.2994876" lon="9.7879687"><ele>60.33333333333333</ele><time>2026-05-02T18:32:59.839Z</time></trkpt><trkpt lat="37.2994757" lon="9.7881555"><ele>60.0</ele><time>2026-05-02T18:33:00.808Z</time></trkpt><trkpt lat="37.2994635" lon="9.7883465"><ele>60.0</ele><time>2026-05-02T18:33:01.841Z</time></trkpt><trkpt lat="37.2994493" lon="9.7885419"><ele>60.0</ele><time>2026-05-02T18:33:02.828Z</time></trkpt><trkpt lat="37.2994358" lon="9.788731"><ele>60.0</ele><time>2026-05-02T18:33:03.81Z</time></trkpt><trkpt lat="37.2994196" lon="9.7889253"><ele>60.0</ele><time>2026-05-02T18:33:04.821Z</time></trkpt><trkpt lat="37.2994028" lon="9.7891135"><ele>60.0</ele><time>2026-05-02T18:33:05.85Z</time></trkpt><trkpt lat="37.2993863" lon="9.7893038"><ele>60.0</ele><time>2026-05-02T18:33:06.835Z</time></trkpt><trkpt lat="37.2993691" lon="9.789491"><ele>59.33333333333333</ele><time>2026-05-02T18:33:07.801Z</time></trkpt><trkpt lat="37.2993536" lon="9.7896801"><ele>58.666666666666664</ele><time>2026-05-02T18:33:08.831Z</time></trkpt><trkpt lat="37.2993391" lon="9.7898672"><ele>58.0</ele><time>2026-05-02T18:33:09.849Z</time></trkpt><trkpt lat="37.2993296" lon="9.790057"><ele>58.0</ele><time>2026-05-02T18:33:10.836Z</time></trkpt><trkpt lat="37.299319" lon="9.7902466"><ele>58.0</ele><time>2026-05-02T18:33:11.854Z</time></trkpt><trkpt lat="37.2993078" lon="9.7904381"><ele>58.0</ele><time>2026-05-02T18:33:12.823Z</time></trkpt><trkpt lat="37.2992916" lon="9.7906278"><ele>58.0</ele><time>2026-05-02T18:33:13.839Z</time></trkpt><trkpt lat="37.2992758" lon="9.7908178"><ele>58.0</ele><time>2026-05-02T18:33:14.847Z</time></trkpt><trkpt lat="37.2992576" lon="9.7910106"><ele>58.0</ele><time>2026-05-02T18:33:15.808Z</time></trkpt><trkpt lat="37.2992423" lon="9.791202"><ele>58.33333333333333</ele><time>2026-05-02T18:33:16.829Z</time></trkpt><trkpt lat="37.2992297" lon="9.7913927"><ele>58.66666666666667</ele><time>2026-05-02T18:33:17.834Z</time></trkpt><trkpt lat="37.2992203" lon="9.7915841"><ele>59.0</ele><time>2026-05-02T18:33:18.831Z</time></trkpt><trkpt lat="37.2992091" lon="9.7917736"><ele>59.66666666666667</ele><time>2026-05-02T18:33:19.836Z</time></trkpt><trkpt lat="37.299197" lon="9.7919624"><ele>60.33333333333333</ele><time>2026-05-02T18:33:20.827Z</time></trkpt><trkpt lat="37.2991827" lon="9.7921513"><ele>61.0</ele><time>2026-05-02T18:33:21.812Z</time></trkpt><trkpt lat="37.2991695" lon="9.792343"><ele>61.0</ele><time>2026-05-02T18:33:22.838Z</time></trkpt><trkpt lat="37.2991574" lon="9.7925343"><ele>61.0</ele><time>2026-05-02T18:33:23.847Z</time></trkpt><trkpt lat="37.2991415" lon="9.7927263"><ele>61.0</ele><time>2026-05-02T18:33:24.841Z</time></trkpt><trkpt lat="37.2991265" lon="9.7929159"><ele>61.33333333333333</ele><time>2026-05-02T18:33:25.798Z</time></trkpt><trkpt lat="37.2991142" lon="9.793106"><ele>61.66666666666667</ele><time>2026-05-02T18:33:26.813Z</time></trkpt><trkpt lat="37.2990992" lon="9.7932966"><ele>62.0</ele><time>2026-05-02T18:33:27.813Z</time></trkpt><trkpt lat="37.2990847" lon="9.7934867"><ele>62.333333333333336</ele><time>2026-05-02T18:33:28.84Z</time></trkpt><trkpt lat="37.2990686" lon="9.7936824"><ele>62.66666666666667</ele><time>2026-05-02T18:33:29.839Z</time></trkpt><trkpt lat="37.2990532" lon="9.7938748"><ele>63.0</ele><time>2026-05-02T18:33:30.829Z</time></trkpt><trkpt lat="37.299038" lon="9.7940647"><ele>63.0</ele><time>2026-05-02T18:33:31.806Z</time></trkpt><trkpt lat="37.299019" lon="9.7942547"><ele>63.0</ele><time>2026-05-02T18:33:32.809Z</time></trkpt><trkpt lat="37.2989966" lon="9.7944453"><ele>63.0</ele><time>2026-05-02T18:33:33.77Z</time></trkpt><trkpt lat="37.2989702" lon="9.7946341"><ele>63.33333333333333</ele><time>2026-05-02T18:33:34.803Z</time></trkpt><trkpt lat="37.2989414" lon="9.7948237"><ele>63.666666666666664</ele><time>2026-05-02T18:33:35.789Z</time></trkpt><trkpt lat="37.2989138" lon="9.7950113"><ele>64.0</ele><time>2026-05-02T18:33:36.805Z</time></trkpt><trkpt lat="37.2988875" lon="9.7951977"><ele>64.0</ele><time>2026-05-02T18:33:37.799Z</time></trkpt><trkpt lat="37.2988612" lon="9.7953841"><ele>64.0</ele><time>2026-05-02T18:33:38.794Z</time></trkpt><trkpt lat="37.2988377" lon="9.7955701"><ele>64.0</ele><time>2026-05-02T18:33:39.835Z</time></trkpt><trkpt lat="37.2988133" lon="9.7957602"><ele>64.0</ele><time>2026-05-02T18:33:40.825Z</time></trkpt><trkpt lat="37.2987851" lon="9.7959473"><ele>64.0</ele><time>2026-05-02T18:33:41.815Z</time></trkpt><trkpt lat="37.2987543" lon="9.7961344"><ele>64.0</ele><time>2026-05-02T18:33:42.82Z</time></trkpt><trkpt lat="37.2987247" lon="9.7963193"><ele>64.66666666666666</ele><time>2026-05-02T18:33:43.837Z</time></trkpt><trkpt lat="37.2986969" lon="9.7965079"><ele>65.33333333333333</ele><time>2026-05-02T18:33:44.797Z</time></trkpt><trkpt lat="37.2986699" lon="9.7966947"><ele>66.0</ele><time>2026-05-02T18:33:45.833Z</time></trkpt><trkpt lat="37.2986432" lon="9.7968825"><ele>66.66666666666667</ele><time>2026-05-02T18:33:46.788Z</time></trkpt><trkpt lat="37.2986183" lon="9.7970692"><ele>67.33333333333334</ele><time>2026-05-02T18:33:47.842Z</time></trkpt><trkpt lat="37.2985924" lon="9.7972568"><ele>68.0</ele><time>2026-05-02T18:33:48.838Z</time></trkpt><trkpt lat="37.2985678" lon="9.7974442"><ele>68.0</ele><time>2026-05-02T18:33:49.843Z</time></trkpt><trkpt lat="37.2985428" lon="9.79763"><ele>68.0</ele><time>2026-05-02T18:33:50.84Z</time></trkpt><trkpt lat="37.2985174" lon="9.7978169"><ele>68.0</ele><time>2026-05-02T18:33:51.83Z</time></trkpt><trkpt lat="37.2984909" lon="9.7980044"><ele>68.0</ele><time>2026-05-02T18:33:52.816Z</time></trkpt><trkpt lat="37.2984624" lon="9.7981905"><ele>68.0</ele><time>2026-05-02T18:33:53.834Z</time></trkpt><trkpt lat="37.2984376" lon="9.7983785"><ele>68.0</ele><time>2026-05-02T18:33:54.824Z</time></trkpt><trkpt lat="37.2984087" lon="9.7985699"><ele>67.33333333333334</ele><time>2026-05-02T18:33:55.842Z</time></trkpt><trkpt lat="37.2983754" lon="9.7987571"><ele>66.66666666666667</ele><time>2026-05-02T18:33:56.808Z</time></trkpt><trkpt lat="37.2983328" lon="9.798946"><ele>66.0</ele><time>2026-05-02T18:33:57.834Z</time></trkpt><trkpt lat="37.2982796" lon="9.7991361"><ele>66.0</ele><time>2026-05-02T18:33:58.834Z</time></trkpt><trkpt lat="37.2982172" lon="9.7993288"><ele>66.0</ele><time>2026-05-02T18:33:59.838Z</time></trkpt><trkpt lat="37.2981496" lon="9.7995228"><ele>66.0</ele><time>2026-05-02T18:34:00.842Z</time></trkpt><trkpt lat="37.2980797" lon="9.7997175"><ele>67.0</ele><time>2026-05-02T18:34:01.827Z</time></trkpt><trkpt lat="37.2980108" lon="9.7999121"><ele>68.0</ele><time>2026-05-02T18:34:02.853Z</time></trkpt><trkpt lat="37.2979396" lon="9.8000988"><ele>69.0</ele><time>2026-05-02T18:34:03.824Z</time></trkpt><trkpt lat="37.2978589" lon="9.8002835"><ele>69.0</ele><time>2026-05-02T18:34:04.826Z</time></trkpt><trkpt lat="37.2977734" lon="9.8004567"><ele>69.0</ele><time>2026-05-02T18:34:05.84Z</time></trkpt><trkpt lat="37.2976864" lon="9.800623"><ele>69.0</ele><time>2026-05-02T18:34:06.8Z</time></trkpt><trkpt lat="37.2975954" lon="9.8007792"><ele>69.0</ele><time>2026-05-02T18:34:07.828Z</time></trkpt><trkpt lat="37.2975075" lon="9.8009327"><ele>69.0</ele><time>2026-05-02T18:34:08.842Z</time></trkpt><trkpt lat="37.2974243" lon="9.801074"><ele>69.0</ele><time>2026-05-02T18:34:09.843Z</time></trkpt><trkpt lat="37.297339" lon="9.8012026"><ele>69.0</ele><time>2026-05-02T18:34:10.806Z</time></trkpt><trkpt lat="37.2972451" lon="9.8013298"><ele>68.33333333333333</ele><time>2026-05-02T18:34:11.835Z</time></trkpt><trkpt lat="37.2971395" lon="9.8014466"><ele>67.66666666666666</ele><time>2026-05-02T18:34:12.843Z</time></trkpt><trkpt lat="37.2970147" lon="9.8015642"><ele>67.0</ele><time>2026-05-02T18:34:13.812Z</time></trkpt><trkpt lat="37.296869" lon="9.8016759"><ele>67.0</ele><time>2026-05-02T18:34:14.827Z</time></trkpt><trkpt lat="37.2967131" lon="9.8017915"><ele>67.0</ele><time>2026-05-02T18:34:15.836Z</time></trkpt><trkpt lat="37.2965191" lon="9.8019292"><ele>67.0</ele><time>2026-05-02T18:34:16.803Z</time></trkpt><trkpt lat="37.2963501" lon="9.8020479"><ele>67.66666666666666</ele><time>2026-05-02T18:34:17.816Z</time></trkpt><trkpt lat="37.2961808" lon="9.8021613"><ele>68.33333333333333</ele><time>2026-05-02T18:34:18.782Z</time></trkpt><trkpt lat="37.2960318" lon="9.8022623"><ele>69.0</ele><time>2026-05-02T18:34:19.842Z</time></trkpt><trkpt lat="37.2958955" lon="9.8023504"><ele>69.0</ele><time>2026-05-02T18:34:20.831Z</time></trkpt><trkpt lat="37.2957729" lon="9.8024235"><ele>69.0</ele><time>2026-05-02T18:34:21.835Z</time></trkpt><trkpt lat="37.295651" lon="9.8024799"><ele>69.0</ele><time>2026-05-02T18:34:22.79Z</time></trkpt><trkpt lat="37.2955276" lon="9.8025144"><ele>69.0</ele><time>2026-05-02T18:34:23.831Z</time></trkpt><trkpt lat="37.2953969" lon="9.8025321"><ele>70.25</ele><time>2026-05-02T18:34:24.838Z</time></trkpt><trkpt lat="37.2952662" lon="9.8025305"><ele>71.5</ele><time>2026-05-02T18:34:25.844Z</time></trkpt><trkpt lat="37.2951376" lon="9.8025172"><ele>72.75</ele><time>2026-05-02T18:34:26.84Z</time></trkpt><trkpt lat="37.2949886" lon="9.8024959"><ele>74.0</ele><time>2026-05-02T18:34:27.835Z</time></trkpt><trkpt lat="37.2948417" lon="9.8024773"><ele>74.5</ele><time>2026-05-02T18:34:28.856Z</time></trkpt><trkpt lat="37.2947007" lon="9.8024592"><ele>75.0</ele><time>2026-05-02T18:34:29.837Z</time></trkpt><trkpt lat="37.2945597" lon="9.8024399"><ele>75.5</ele><time>2026-05-02T18:34:30.826Z</time></trkpt><trkpt lat="37.2944224" lon="9.8024205"><ele>76.0</ele><time>2026-05-02T18:34:31.84Z</time></trkpt><trkpt lat="37.2942867" lon="9.8024009"><ele>76.0</ele><time>2026-05-02T18:34:32.851Z</time></trkpt><trkpt lat="37.294153" lon="9.8023801"><ele>76.0</ele><time>2026-05-02T18:34:33.83Z</time></trkpt><trkpt lat="37.2940205" lon="9.8023618"><ele>76.0</ele><time>2026-05-02T18:34:34.828Z</time></trkpt><trkpt lat="37.2938954" lon="9.8023426"><ele>76.0</ele><time>2026-05-02T18:34:35.823Z</time></trkpt><trkpt lat="37.2937806" lon="9.8023119"><ele>77.0</ele><time>2026-05-02T18:34:36.792Z</time></trkpt><trkpt lat="37.2936768" lon="9.8022671"><ele>78.0</ele><time>2026-05-02T18:34:37.843Z</time></trkpt><trkpt lat="37.2935809" lon="9.8022043"><ele>79.0</ele><time>2026-05-02T18:34:38.836Z</time></trkpt><trkpt lat="37.2934877" lon="9.8021205"><ele>80.0</ele><time>2026-05-02T18:34:39.797Z</time></trkpt><trkpt lat="37.293401" lon="9.8020266"><ele>81.0</ele><time>2026-05-02T18:34:40.794Z</time></trkpt><trkpt lat="37.2932993" lon="9.8019225"><ele>81.75</ele><time>2026-05-02T18:34:41.817Z</time></trkpt><trkpt lat="37.2931971" lon="9.8018181"><ele>82.5</ele><time>2026-05-02T18:34:42.829Z</time></trkpt><trkpt lat="37.2930958" lon="9.80171"><ele>83.25</ele><time>2026-05-02T18:34:43.774Z</time></trkpt><trkpt lat="37.2930032" lon="9.801605"><ele>84.0</ele><time>2026-05-02T18:34:44.854Z</time></trkpt><trkpt lat="37.2929206" lon="9.8015139"><ele>84.4</ele><time>2026-05-02T18:34:45.834Z</time></trkpt><trkpt lat="37.2928363" lon="9.8014336"><ele>84.80000000000001</ele><time>2026-05-02T18:34:46.813Z</time></trkpt><trkpt lat="37.2927505" lon="9.8013576"><ele>85.19999999999999</ele><time>2026-05-02T18:34:47.761Z</time></trkpt><trkpt lat="37.2926594" lon="9.8012981"><ele>85.6</ele><time>2026-05-02T18:34:48.78Z</time></trkpt><trkpt lat="37.2925644" lon="9.8012584"><ele>86.0</ele><time>2026-05-02T18:34:49.782Z</time></trkpt><trkpt lat="37.2924626" lon="9.8012425"><ele>86.0</ele><time>2026-05-02T18:34:50.784Z</time></trkpt><trkpt lat="37.2923585" lon="9.8012517"><ele>86.0</ele><time>2026-05-02T18:34:51.804Z</time></trkpt><trkpt lat="37.2922615" lon="9.8012789"><ele>86.0</ele><time>2026-05-02T18:34:52.773Z</time></trkpt><trkpt lat="37.2921712" lon="9.8013137"><ele>86.0</ele><time>2026-05-02T18:34:53.78Z</time></trkpt><trkpt lat="37.2920774" lon="9.8013596"><ele>86.0</ele><time>2026-05-02T18:34:54.768Z</time></trkpt><trkpt lat="37.2919968" lon="9.8014278"><ele>87.25</ele><time>2026-05-02T18:34:55.763Z</time></trkpt><trkpt lat="37.2919274" lon="9.8015146"><ele>88.5</ele><time>2026-05-02T18:34:56.765Z</time></trkpt><trkpt lat="37.291873" lon="9.8016143"><ele>89.75</ele><time>2026-05-02T18:34:57.777Z</time></trkpt><trkpt lat="37.291829" lon="9.8017242"><ele>91.0</ele><time>2026-05-02T18:34:58.78Z</time></trkpt><trkpt lat="37.2917606" lon="9.8023833"><ele>96.0</ele><time>2026-05-02T18:35:03.798Z</time></trkpt><trkpt lat="37.2917265" lon="9.803007"><ele>96.0</ele><time>2026-05-02T18:35:07.758Z</time></trkpt><trkpt lat="37.2917241" lon="9.8031634"><ele>96.0</ele><time>2026-05-02T18:35:08.764Z</time></trkpt><trkpt lat="37.2917205" lon="9.8033158"><ele>96.0</ele><time>2026-05-02T18:35:09.781Z</time></trkpt><trkpt lat="37.2917274" lon="9.8034601"><ele>96.0</ele><time>2026-05-02T18:35:10.806Z</time></trkpt><trkpt lat="37.2917359" lon="9.8036037"><ele>97.33333333333334</ele><time>2026-05-02T18:35:11.766Z</time></trkpt><trkpt lat="37.2917544" lon="9.8037395"><ele>98.66666666666667</ele><time>2026-05-02T18:35:12.774Z</time></trkpt><trkpt lat="37.2918195" lon="9.8040191"><ele>100.0</ele><time>2026-05-02T18:35:14.769Z</time></trkpt><trkpt lat="37.2919041" lon="9.8043111"><ele>101.75</ele><time>2026-05-02T18:35:16.765Z</time></trkpt><trkpt lat="37.2919648" lon="9.804458"><ele>103.5</ele><time>2026-05-02T18:35:17.792Z</time></trkpt><trkpt lat="37.2920335" lon="9.8046025"><ele>105.25</ele><time>2026-05-02T18:35:18.771Z</time></trkpt><trkpt lat="37.2921035" lon="9.8047357"><ele>107.0</ele><time>2026-05-02T18:35:19.823Z</time></trkpt><trkpt lat="37.2921672" lon="9.8048578"><ele>107.0</ele><time>2026-05-02T18:35:20.799Z</time></trkpt><trkpt lat="37.2922388" lon="9.8049834"><ele>107.0</ele><time>2026-05-02T18:35:21.768Z</time></trkpt><trkpt lat="37.2923095" lon="9.8051077"><ele>107.0</ele><time>2026-05-02T18:35:22.773Z</time></trkpt><trkpt lat="37.2923773" lon="9.8052294"><ele>107.0</ele><time>2026-05-02T18:35:23.809Z</time></trkpt><trkpt lat="37.2924386" lon="9.8053492"><ele>106.8</ele><time>2026-05-02T18:35:24.803Z</time></trkpt><trkpt lat="37.2924928" lon="9.8054566"><ele>106.6</ele><time>2026-05-02T18:35:25.787Z</time></trkpt><trkpt lat="37.2925305" lon="9.8055662"><ele>106.39999999999999</ele><time>2026-05-02T18:35:26.777Z</time></trkpt><trkpt lat="37.2925536" lon="9.8056783"><ele>106.19999999999999</ele><time>2026-05-02T18:35:27.801Z</time></trkpt><trkpt lat="37.2925664" lon="9.8057991"><ele>106.0</ele><time>2026-05-02T18:35:28.82Z</time></trkpt><trkpt lat="37.2925714" lon="9.8059361"><ele>107.0</ele><time>2026-05-02T18:35:29.786Z</time></trkpt><trkpt lat="37.2925688" lon="9.8060671"><ele>108.0</ele><time>2026-05-02T18:35:30.752Z</time></trkpt><trkpt lat="37.2925633" lon="9.8062059"><ele>109.0</ele><time>2026-05-02T18:35:31.805Z</time></trkpt><trkpt lat="37.2925561" lon="9.8063385"><ele>110.0</ele><time>2026-05-02T18:35:32.774Z</time></trkpt><trkpt lat="37.2925507" lon="9.8064649"><ele>111.0</ele><time>2026-05-02T18:35:33.773Z</time></trkpt><trkpt lat="37.2925443" lon="9.8065776"><ele>111.0</ele><time>2026-05-02T18:35:34.792Z</time></trkpt><trkpt lat="37.2925472" lon="9.8066963"><ele>111.0</ele><time>2026-05-02T18:35:35.77Z</time></trkpt><trkpt lat="37.2925507" lon="9.8068099"><ele>111.0</ele><time>2026-05-02T18:35:36.773Z</time></trkpt><trkpt lat="37.2925597" lon="9.8069178"><ele>111.0</ele><time>2026-05-02T18:35:37.817Z</time></trkpt><trkpt lat="37.2925845" lon="9.8070235"><ele>111.0</ele><time>2026-05-02T18:35:38.81Z</time></trkpt><trkpt lat="37.2926262" lon="9.8071105"><ele>111.0</ele><time>2026-05-02T18:35:39.791Z</time></trkpt><trkpt lat="37.292671" lon="9.8071907"><ele>112.0</ele><time>2026-05-02T18:35:40.767Z</time></trkpt><trkpt lat="37.2927187" lon="9.8072635"><ele>113.0</ele><time>2026-05-02T18:35:41.793Z</time></trkpt><trkpt lat="37.2927664" lon="9.8073362"><ele>114.0</ele><time>2026-05-02T18:35:42.823Z</time></trkpt><trkpt lat="37.2927995" lon="9.8074139"><ele>115.0</ele><time>2026-05-02T18:35:43.783Z</time></trkpt><trkpt lat="37.292825" lon="9.8074947"><ele>116.0</ele><time>2026-05-02T18:35:44.785Z</time></trkpt><trkpt lat="37.2928298" lon="9.8075786"><ele>117.0</ele><time>2026-05-02T18:35:45.789Z</time></trkpt><trkpt lat="37.29284" lon="9.8077356"><ele>117.6</ele><time>2026-05-02T18:35:47.816Z</time></trkpt><trkpt lat="37.292844" lon="9.8078313"><ele>118.19999999999999</ele><time>2026-05-02T18:35:48.785Z</time></trkpt><trkpt lat="37.2928371" lon="9.8079327"><ele>118.8</ele><time>2026-05-02T18:35:49.777Z</time></trkpt><trkpt lat="37.2928236" lon="9.8080463"><ele>119.4</ele><time>2026-05-02T18:35:50.796Z</time></trkpt><trkpt lat="37.2928003" lon="9.8081786"><ele>120.0</ele><time>2026-05-02T18:35:51.82Z</time></trkpt><trkpt lat="37.2927639" lon="9.80833"><ele>120.0</ele><time>2026-05-02T18:35:52.769Z</time></trkpt><trkpt lat="37.2927296" lon="9.808487"><ele>120.0</ele><time>2026-05-02T18:35:53.823Z</time></trkpt><trkpt lat="37.2927039" lon="9.8086421"><ele>120.0</ele><time>2026-05-02T18:35:54.806Z</time></trkpt><trkpt lat="37.2926879" lon="9.8087836"><ele>120.0</ele><time>2026-05-02T18:35:55.802Z</time></trkpt><trkpt lat="37.2926824" lon="9.8089277"><ele>120.75</ele><time>2026-05-02T18:35:56.792Z</time></trkpt><trkpt lat="37.2926873" lon="9.8090735"><ele>121.5</ele><time>2026-05-02T18:35:57.808Z</time></trkpt><trkpt lat="37.2927042" lon="9.8092169"><ele>122.25</ele><time>2026-05-02T18:35:58.819Z</time></trkpt><trkpt lat="37.2927259" lon="9.8093673"><ele>123.0</ele><time>2026-05-02T18:35:59.803Z</time></trkpt><trkpt lat="37.2927615" lon="9.8095097"><ele>124.25</ele><time>2026-05-02T18:36:00.808Z</time></trkpt><trkpt lat="37.2928096" lon="9.8096532"><ele>125.5</ele><time>2026-05-02T18:36:01.806Z</time></trkpt><trkpt lat="37.2928661" lon="9.80981"><ele>126.75</ele><time>2026-05-02T18:36:02.801Z</time></trkpt><trkpt lat="37.2929227" lon="9.8099674"><ele>128.0</ele><time>2026-05-02T18:36:03.82Z</time></trkpt><trkpt lat="37.2929735" lon="9.8101154"><ele>130.25</ele><time>2026-05-02T18:36:04.832Z</time></trkpt><trkpt lat="37.29301" lon="9.8102589"><ele>132.5</ele><time>2026-05-02T18:36:05.794Z</time></trkpt><trkpt lat="37.2930406" lon="9.8104179"><ele>134.75</ele><time>2026-05-02T18:36:06.768Z</time></trkpt><trkpt lat="37.2930591" lon="9.8105797"><ele>137.0</ele><time>2026-05-02T18:36:07.808Z</time></trkpt><trkpt lat="37.293063" lon="9.8107405"><ele>137.0</ele><time>2026-05-02T18:36:08.816Z</time></trkpt><trkpt lat="37.293055" lon="9.8109078"><ele>137.0</ele><time>2026-05-02T18:36:09.812Z</time></trkpt><trkpt lat="37.2930378" lon="9.8110742"><ele>137.0</ele><time>2026-05-02T18:36:10.804Z</time></trkpt><trkpt lat="37.2930216" lon="9.8112461"><ele>137.0</ele><time>2026-05-02T18:36:11.784Z</time></trkpt><trkpt lat="37.2930216" lon="9.8114168"><ele>136.25</ele><time>2026-05-02T18:36:12.819Z</time></trkpt><trkpt lat="37.2930465" lon="9.8115908"><ele>135.5</ele><time>2026-05-02T18:36:13.784Z</time></trkpt><trkpt lat="37.2930909" lon="9.8117685"><ele>134.75</ele><time>2026-05-02T18:36:14.796Z</time></trkpt><trkpt lat="37.2931418" lon="9.8119447"><ele>134.0</ele><time>2026-05-02T18:36:15.817Z</time></trkpt><trkpt lat="37.2931915" lon="9.8121181"><ele>134.0</ele><time>2026-05-02T18:36:16.816Z</time></trkpt><trkpt lat="37.2932302" lon="9.812278"><ele>134.0</ele><time>2026-05-02T18:36:17.829Z</time></trkpt><trkpt lat="37.2932554" lon="9.8124393"><ele>134.0</ele><time>2026-05-02T18:36:18.834Z</time></trkpt><trkpt lat="37.2932645" lon="9.8126153"><ele>134.0</ele><time>2026-05-02T18:36:19.793Z</time></trkpt><trkpt lat="37.2932609" lon="9.8128001"><ele>135.5</ele><time>2026-05-02T18:36:20.765Z</time></trkpt><trkpt lat="37.2932579" lon="9.8129853"><ele>137.0</ele><time>2026-05-02T18:36:21.785Z</time></trkpt><trkpt lat="37.2932622" lon="9.8131662"><ele>138.5</ele><time>2026-05-02T18:36:22.84Z</time></trkpt><trkpt lat="37.2932813" lon="9.8133419"><ele>140.0</ele><time>2026-05-02T18:36:23.841Z</time></trkpt><trkpt lat="37.2933168" lon="9.8135165"><ele>141.25</ele><time>2026-05-02T18:36:24.838Z</time></trkpt><trkpt lat="37.2933554" lon="9.8136903"><ele>142.5</ele><time>2026-05-02T18:36:25.826Z</time></trkpt><trkpt lat="37.2933945" lon="9.8138618"><ele>143.75</ele><time>2026-05-02T18:36:26.825Z</time></trkpt><trkpt lat="37.2934356" lon="9.8140492"><ele>145.0</ele><time>2026-05-02T18:36:27.828Z</time></trkpt><trkpt lat="37.2934642" lon="9.8142267"><ele>147.0</ele><time>2026-05-02T18:36:28.83Z</time></trkpt><trkpt lat="37.293485" lon="9.8144185"><ele>149.0</ele><time>2026-05-02T18:36:29.811Z</time></trkpt><trkpt lat="37.2935036" lon="9.8146191"><ele>151.0</ele><time>2026-05-02T18:36:30.791Z</time></trkpt><trkpt lat="37.2935154" lon="9.8148349"><ele>151.0</ele><time>2026-05-02T18:36:31.793Z</time></trkpt><trkpt lat="37.293517" lon="9.8150136"><ele>151.0</ele><time>2026-05-02T18:36:32.787Z</time></trkpt><trkpt lat="37.2935118" lon="9.8151956"><ele>151.0</ele><time>2026-05-02T18:36:33.821Z</time></trkpt><trkpt lat="37.2934956" lon="9.8153729"><ele>151.0</ele><time>2026-05-02T18:36:34.8Z</time></trkpt><trkpt lat="37.2934691" lon="9.8155638"><ele>150.33333333333334</ele><time>2026-05-02T18:36:35.827Z</time></trkpt><trkpt lat="37.2934307" lon="9.8157594"><ele>149.66666666666666</ele><time>2026-05-02T18:36:36.805Z</time></trkpt><trkpt lat="37.2933807" lon="9.8159655"><ele>149.0</ele><time>2026-05-02T18:36:37.771Z</time></trkpt><trkpt lat="37.2933291" lon="9.8161828"><ele>147.0</ele><time>2026-05-02T18:36:38.816Z</time></trkpt><trkpt lat="37.2932784" lon="9.8163967"><ele>145.0</ele><time>2026-05-02T18:36:39.826Z</time></trkpt><trkpt lat="37.2932231" lon="9.8166077"><ele>143.0</ele><time>2026-05-02T18:36:40.827Z</time></trkpt><trkpt lat="37.2931668" lon="9.8168171"><ele>141.66666666666666</ele><time>2026-05-02T18:36:41.823Z</time></trkpt><trkpt lat="37.2931115" lon="9.8170232"><ele>140.33333333333334</ele><time>2026-05-02T18:36:42.841Z</time></trkpt><trkpt lat="37.2930583" lon="9.8172245"><ele>139.0</ele><time>2026-05-02T18:36:43.826Z</time></trkpt><trkpt lat="37.2930036" lon="9.8174255"><ele>148.33333333333334</ele><time>2026-05-02T18:36:44.788Z</time></trkpt><trkpt lat="37.292952" lon="9.8176173"><ele>157.66666666666666</ele><time>2026-05-02T18:36:45.799Z</time></trkpt><trkpt lat="37.2928984" lon="9.8178026"><ele>167.0</ele><time>2026-05-02T18:36:46.83Z</time></trkpt><trkpt lat="37.2928508" lon="9.8179866"><ele>167.0</ele><time>2026-05-02T18:36:47.8Z</time></trkpt><trkpt lat="37.2928088" lon="9.8181779"><ele>167.0</ele><time>2026-05-02T18:36:48.831Z</time></trkpt><trkpt lat="37.2927735" lon="9.8183665"><ele>167.0</ele><time>2026-05-02T18:36:49.777Z</time></trkpt><trkpt lat="37.2927591" lon="9.8185522"><ele>166.0</ele><time>2026-05-02T18:36:50.803Z</time></trkpt><trkpt lat="37.2927483" lon="9.8187399"><ele>165.0</ele><time>2026-05-02T18:36:51.833Z</time></trkpt><trkpt lat="37.2927339" lon="9.8189308"><ele>164.0</ele><time>2026-05-02T18:36:52.8Z</time></trkpt><trkpt lat="37.2927195" lon="9.8191171"><ele>164.0</ele><time>2026-05-02T18:36:53.809Z</time></trkpt><trkpt lat="37.2926961" lon="9.8192993"><ele>164.0</ele><time>2026-05-02T18:36:54.829Z</time></trkpt><trkpt lat="37.2926656" lon="9.8194702"><ele>164.0</ele><time>2026-05-02T18:36:55.78Z</time></trkpt><trkpt lat="37.2926255" lon="9.8196381"><ele>164.0</ele><time>2026-05-02T18:36:56.831Z</time></trkpt><trkpt lat="37.2925759" lon="9.8198033"><ele>163.75</ele><time>2026-05-02T18:36:57.797Z</time></trkpt><trkpt lat="37.2925177" lon="9.8199613"><ele>163.5</ele><time>2026-05-02T18:36:58.811Z</time></trkpt><trkpt lat="37.2924524" lon="9.8201141"><ele>163.25</ele><time>2026-05-02T18:36:59.832Z</time></trkpt><trkpt lat="37.2923792" lon="9.8202568"><ele>163.0</ele><time>2026-05-02T18:37:00.83Z</time></trkpt><trkpt lat="37.2923033" lon="9.8203986"><ele>164.5</ele><time>2026-05-02T18:37:01.791Z</time></trkpt><trkpt lat="37.2922235" lon="9.8205387"><ele>166.0</ele><time>2026-05-02T18:37:02.826Z</time></trkpt><trkpt lat="37.2921436" lon="9.8206766"><ele>167.5</ele><time>2026-05-02T18:37:03.822Z</time></trkpt><trkpt lat="37.2920653" lon="9.8208118"><ele>169.0</ele><time>2026-05-02T18:37:04.793Z</time></trkpt><trkpt lat="37.2919842" lon="9.8209346"><ele>168.5</ele><time>2026-05-02T18:37:05.792Z</time></trkpt><trkpt lat="37.2919078" lon="9.8210464"><ele>168.0</ele><time>2026-05-02T18:37:06.791Z</time></trkpt><trkpt lat="37.2918205" lon="9.8211484"><ele>167.5</ele><time>2026-05-02T18:37:07.801Z</time></trkpt><trkpt lat="37.2917259" lon="9.8212464"><ele>167.0</ele><time>2026-05-02T18:37:08.772Z</time></trkpt><trkpt lat="37.2916255" lon="9.8213501"><ele>167.0</ele><time>2026-05-02T18:37:09.819Z</time></trkpt><trkpt lat="37.2915299" lon="9.8214574"><ele>167.0</ele><time>2026-05-02T18:37:10.83Z</time></trkpt><trkpt lat="37.2914341" lon="9.8215729"><ele>167.0</ele><time>2026-05-02T18:37:11.823Z</time></trkpt><trkpt lat="37.2913407" lon="9.8216896"><ele>167.0</ele><time>2026-05-02T18:37:12.798Z</time></trkpt><trkpt lat="37.2912526" lon="9.8218073"><ele>165.2</ele><time>2026-05-02T18:37:13.832Z</time></trkpt><trkpt lat="37.291182" lon="9.8219207"><ele>163.39999999999998</ele><time>2026-05-02T18:37:14.837Z</time></trkpt><trkpt lat="37.2911192" lon="9.82204"><ele>161.60000000000002</ele><time>2026-05-02T18:37:15.819Z</time></trkpt><trkpt lat="37.2910671" lon="9.8221618"><ele>159.8</ele><time>2026-05-02T18:37:16.818Z</time></trkpt><trkpt lat="37.2910244" lon="9.822286"><ele>158.0</ele><time>2026-05-02T18:37:17.796Z</time></trkpt><trkpt lat="37.290992" lon="9.822409"><ele>158.0</ele><time>2026-05-02T18:37:18.751Z</time></trkpt><trkpt lat="37.2909681" lon="9.8225372"><ele>158.0</ele><time>2026-05-02T18:37:19.755Z</time></trkpt><trkpt lat="37.2909468" lon="9.8226698"><ele>158.0</ele><time>2026-05-02T18:37:20.772Z</time></trkpt><trkpt lat="37.2909307" lon="9.8227996"><ele>158.0</ele><time>2026-05-02T18:37:21.775Z</time></trkpt><trkpt lat="37.2909229" lon="9.8229267"><ele>158.0</ele><time>2026-05-02T18:37:22.761Z</time></trkpt><trkpt lat="37.2909073" lon="9.8230609"><ele>157.8</ele><time>2026-05-02T18:37:23.773Z</time></trkpt><trkpt lat="37.2908967" lon="9.8231901"><ele>157.60000000000002</ele><time>2026-05-02T18:37:24.774Z</time></trkpt><trkpt lat="37.290894" lon="9.8233162"><ele>157.39999999999998</ele><time>2026-05-02T18:37:25.773Z</time></trkpt><trkpt lat="37.2908819" lon="9.8234419"><ele>157.2</ele><time>2026-05-02T18:37:26.775Z</time></trkpt><trkpt lat="37.2908867" lon="9.8235662"><ele>157.0</ele><time>2026-05-02T18:37:27.764Z</time></trkpt><trkpt lat="37.2908865" lon="9.8236866"><ele>156.0</ele><time>2026-05-02T18:37:28.768Z</time></trkpt><trkpt lat="37.2908935" lon="9.8238032"><ele>155.0</ele><time>2026-05-02T18:37:29.763Z</time></trkpt><trkpt lat="37.2909132" lon="9.8239171"><ele>154.0</ele><time>2026-05-02T18:37:30.767Z</time></trkpt><trkpt lat="37.2909318" lon="9.824035"><ele>153.0</ele><time>2026-05-02T18:37:31.774Z</time></trkpt><trkpt lat="37.2909519" lon="9.8241422"><ele>152.0</ele><time>2026-05-02T18:37:32.767Z</time></trkpt><trkpt lat="37.2909759" lon="9.8242543"><ele>152.5</ele><time>2026-05-02T18:37:33.77Z</time></trkpt><trkpt lat="37.2909989" lon="9.8243581"><ele>153.0</ele><time>2026-05-02T18:37:34.782Z</time></trkpt><trkpt lat="37.2910118" lon="9.8244586"><ele>153.5</ele><time>2026-05-02T18:37:35.763Z</time></trkpt><trkpt lat="37.2910197" lon="9.8245664"><ele>154.0</ele><time>2026-05-02T18:37:36.791Z</time></trkpt><trkpt lat="37.2910114" lon="9.8246652"><ele>154.5</ele><time>2026-05-02T18:37:37.769Z</time></trkpt><trkpt lat="37.2909851" lon="9.8247547"><ele>155.0</ele><time>2026-05-02T18:37:38.783Z</time></trkpt><trkpt lat="37.2909421" lon="9.8248296"><ele>155.0</ele><time>2026-05-02T18:37:39.78Z</time></trkpt><trkpt lat="37.2908757" lon="9.8248899"><ele>155.0</ele><time>2026-05-02T18:37:40.77Z</time></trkpt><trkpt lat="37.2907999" lon="9.8249271"><ele>155.0</ele><time>2026-05-02T18:37:41.789Z</time></trkpt><trkpt lat="37.2907129" lon="9.8249433"><ele>155.0</ele><time>2026-05-02T18:37:42.789Z</time></trkpt><trkpt lat="37.2906213" lon="9.8249341"><ele>155.0</ele><time>2026-05-02T18:37:43.778Z</time></trkpt><trkpt lat="37.2905312" lon="9.8249377"><ele>155.0</ele><time>2026-05-02T18:37:44.769Z</time></trkpt><trkpt lat="37.2904387" lon="9.8249533"><ele>152.6</ele><time>2026-05-02T18:37:45.775Z</time></trkpt><trkpt lat="37.290342" lon="9.8249824"><ele>150.2</ele><time>2026-05-02T18:37:46.783Z</time></trkpt><trkpt lat="37.2902445" lon="9.8250144"><ele>147.8</ele><time>2026-05-02T18:37:47.769Z</time></trkpt><trkpt lat="37.2901558" lon="9.825049"><ele>145.4</ele><time>2026-05-02T18:37:48.79Z</time></trkpt><trkpt lat="37.2900578" lon="9.8250925"><ele>143.0</ele><time>2026-05-02T18:37:49.756Z</time></trkpt><trkpt lat="37.2899642" lon="9.8251371"><ele>143.0</ele><time>2026-05-02T18:37:50.756Z</time></trkpt><trkpt lat="37.2898698" lon="9.8251868"><ele>143.0</ele><time>2026-05-02T18:37:51.765Z</time></trkpt><trkpt lat="37.2897714" lon="9.8252433"><ele>143.0</ele><time>2026-05-02T18:37:52.764Z</time></trkpt><trkpt lat="37.2896796" lon="9.8252972"><ele>143.0</ele><time>2026-05-02T18:37:53.769Z</time></trkpt><trkpt lat="37.2895849" lon="9.8253527"><ele>143.0</ele><time>2026-05-02T18:37:54.767Z</time></trkpt><trkpt lat="37.2894929" lon="9.8254109"><ele>143.0</ele><time>2026-05-02T18:37:55.777Z</time></trkpt><trkpt lat="37.2893989" lon="9.8254734"><ele>143.0</ele><time>2026-05-02T18:37:56.764Z</time></trkpt><trkpt lat="37.289304" lon="9.8255367"><ele>143.0</ele><time>2026-05-02T18:37:57.768Z</time></trkpt><trkpt lat="37.2892082" lon="9.8256081"><ele>143.0</ele><time>2026-05-02T18:37:58.767Z</time></trkpt><trkpt lat="37.2891136" lon="9.8256833"><ele>143.0</ele><time>2026-05-02T18:37:59.769Z</time></trkpt><trkpt lat="37.2890169" lon="9.8257543"><ele>142.0</ele><time>2026-05-02T18:38:00.767Z</time></trkpt><trkpt lat="37.2889205" lon="9.8258302"><ele>141.0</ele><time>2026-05-02T18:38:01.771Z</time></trkpt><trkpt lat="37.2888186" lon="9.8259119"><ele>140.0</ele><time>2026-05-02T18:38:02.776Z</time></trkpt><trkpt lat="37.288716" lon="9.825997"><ele>139.0</ele><time>2026-05-02T18:38:03.765Z</time></trkpt><trkpt lat="37.2886158" lon="9.8260837"><ele>139.0</ele><time>2026-05-02T18:38:04.764Z</time></trkpt><trkpt lat="37.2885178" lon="9.8261664"><ele>139.0</ele><time>2026-05-02T18:38:05.783Z</time></trkpt><trkpt lat="37.2884197" lon="9.8262462"><ele>139.0</ele><time>2026-05-02T18:38:06.762Z</time></trkpt><trkpt lat="37.2883242" lon="9.8263187"><ele>139.0</ele><time>2026-05-02T18:38:07.763Z</time></trkpt><trkpt lat="37.2882253" lon="9.8263885"><ele>139.0</ele><time>2026-05-02T18:38:08.761Z</time></trkpt><trkpt lat="37.2881214" lon="9.8264572"><ele>139.0</ele><time>2026-05-02T18:38:09.76Z</time></trkpt><trkpt lat="37.288017" lon="9.8265234"><ele>139.0</ele><time>2026-05-02T18:38:10.761Z</time></trkpt><trkpt lat="37.2879123" lon="9.8265896"><ele>139.0</ele><time>2026-05-02T18:38:11.772Z</time></trkpt><trkpt lat="37.287807" lon="9.8266573"><ele>138.2</ele><time>2026-05-02T18:38:12.763Z</time></trkpt><trkpt lat="37.2877083" lon="9.8267274"><ele>137.4</ele><time>2026-05-02T18:38:13.783Z</time></trkpt><trkpt lat="37.2876065" lon="9.8268038"><ele>136.6</ele><time>2026-05-02T18:38:14.757Z</time></trkpt><trkpt lat="37.2875131" lon="9.8268821"><ele>135.8</ele><time>2026-05-02T18:38:15.77Z</time></trkpt><trkpt lat="37.2874313" lon="9.8269593"><ele>135.0</ele><time>2026-05-02T18:38:16.759Z</time></trkpt><trkpt lat="37.2873514" lon="9.8270444"><ele>135.0</ele><time>2026-05-02T18:38:17.765Z</time></trkpt><trkpt lat="37.2872882" lon="9.8271251"><ele>135.0</ele><time>2026-05-02T18:38:18.764Z</time></trkpt><trkpt lat="37.2872203" lon="9.8272128"><ele>135.0</ele><time>2026-05-02T18:38:19.769Z</time></trkpt><trkpt lat="37.287153" lon="9.8273028"><ele>135.0</ele><time>2026-05-02T18:38:20.765Z</time></trkpt><trkpt lat="37.2870908" lon="9.8273998"><ele>135.0</ele><time>2026-05-02T18:38:21.762Z</time></trkpt><trkpt lat="37.2870297" lon="9.8275119"><ele>131.25</ele><time>2026-05-02T18:38:22.767Z</time></trkpt><trkpt lat="37.286965" lon="9.8276323"><ele>127.5</ele><time>2026-05-02T18:38:23.763Z</time></trkpt><trkpt lat="37.2869178" lon="9.8277531"><ele>123.75</ele><time>2026-05-02T18:38:24.759Z</time></trkpt><trkpt lat="37.2868614" lon="9.8278866"><ele>120.0</ele><time>2026-05-02T18:38:25.772Z</time></trkpt><trkpt lat="37.2868113" lon="9.8280257"><ele>120.0</ele><time>2026-05-02T18:38:26.757Z</time></trkpt><trkpt lat="37.2867595" lon="9.8281732"><ele>120.0</ele><time>2026-05-02T18:38:27.761Z</time></trkpt><trkpt lat="37.2867245" lon="9.8283156"><ele>120.0</ele><time>2026-05-02T18:38:28.769Z</time></trkpt><trkpt lat="37.2866814" lon="9.8284671"><ele>120.0</ele><time>2026-05-02T18:38:29.766Z</time></trkpt><trkpt lat="37.286641" lon="9.8286048"><ele>120.5</ele><time>2026-05-02T18:38:30.755Z</time></trkpt><trkpt lat="37.2865899" lon="9.8287535"><ele>121.0</ele><time>2026-05-02T18:38:31.757Z</time></trkpt><trkpt lat="37.2865309" lon="9.8289044"><ele>121.5</ele><time>2026-05-02T18:38:32.774Z</time></trkpt><trkpt lat="37.2864795" lon="9.8290513"><ele>122.0</ele><time>2026-05-02T18:38:33.766Z</time></trkpt><trkpt lat="37.2864275" lon="9.8291958"><ele>118.5</ele><time>2026-05-02T18:38:34.764Z</time></trkpt><trkpt lat="37.2863762" lon="9.8293451"><ele>115.0</ele><time>2026-05-02T18:38:35.767Z</time></trkpt><trkpt lat="37.2863279" lon="9.8294879"><ele>111.5</ele><time>2026-05-02T18:38:36.759Z</time></trkpt><trkpt lat="37.2862789" lon="9.8296341"><ele>108.0</ele><time>2026-05-02T18:38:37.764Z</time></trkpt><trkpt lat="37.2862343" lon="9.8297816"><ele>108.0</ele><time>2026-05-02T18:38:38.769Z</time></trkpt><trkpt lat="37.2861925" lon="9.8299308"><ele>108.0</ele><time>2026-05-02T18:38:39.767Z</time></trkpt><trkpt lat="37.2861533" lon="9.8300834"><ele>108.0</ele><time>2026-05-02T18:38:40.768Z</time></trkpt><trkpt lat="37.2861134" lon="9.8302412"><ele>108.0</ele><time>2026-05-02T18:38:41.753Z</time></trkpt><trkpt lat="37.2860758" lon="9.8304006"><ele>107.75</ele><time>2026-05-02T18:38:42.77Z</time></trkpt><trkpt lat="37.2860317" lon="9.8305605"><ele>107.5</ele><time>2026-05-02T18:38:43.768Z</time></trkpt><trkpt lat="37.2859908" lon="9.8307193"><ele>107.25</ele><time>2026-05-02T18:38:44.763Z</time></trkpt><trkpt lat="37.285953" lon="9.8308791"><ele>107.0</ele><time>2026-05-02T18:38:45.771Z</time></trkpt><trkpt lat="37.2859139" lon="9.83104"><ele>107.0</ele><time>2026-05-02T18:38:46.768Z</time></trkpt><trkpt lat="37.2858776" lon="9.8312018"><ele>107.0</ele><time>2026-05-02T18:38:47.761Z</time></trkpt><trkpt lat="37.2858429" lon="9.8313613"><ele>107.0</ele><time>2026-05-02T18:38:48.77Z</time></trkpt><trkpt lat="37.2858064" lon="9.8315192"><ele>107.0</ele><time>2026-05-02T18:38:49.776Z</time></trkpt><trkpt lat="37.2857708" lon="9.8316754"><ele>106.5</ele><time>2026-05-02T18:38:50.764Z</time></trkpt><trkpt lat="37.2857352" lon="9.8318275"><ele>106.0</ele><time>2026-05-02T18:38:51.775Z</time></trkpt><trkpt lat="37.2856994" lon="9.8319762"><ele>105.5</ele><time>2026-05-02T18:38:52.769Z</time></trkpt><trkpt lat="37.2856687" lon="9.8321227"><ele>105.0</ele><time>2026-05-02T18:38:53.759Z</time></trkpt><trkpt lat="37.285645" lon="9.8322647"><ele>105.0</ele><time>2026-05-02T18:38:54.773Z</time></trkpt><trkpt lat="37.2856271" lon="9.8324085"><ele>105.0</ele><time>2026-05-02T18:38:55.768Z</time></trkpt><trkpt lat="37.285615" lon="9.8325568"><ele>105.0</ele><time>2026-05-02T18:38:56.773Z</time></trkpt><trkpt lat="37.2856065" lon="9.8327071"><ele>105.0</ele><time>2026-05-02T18:38:57.771Z</time></trkpt><trkpt lat="37.2856066" lon="9.8328598"><ele>104.25</ele><time>2026-05-02T18:38:58.781Z</time></trkpt><trkpt lat="37.2856132" lon="9.8330072"><ele>103.5</ele><time>2026-05-02T18:38:59.778Z</time></trkpt><trkpt lat="37.2856254" lon="9.8331589"><ele>102.75</ele><time>2026-05-02T18:39:00.766Z</time></trkpt><trkpt lat="37.2856435" lon="9.8333056"><ele>102.0</ele><time>2026-05-02T18:39:01.77Z</time></trkpt><trkpt lat="37.2856626" lon="9.8334486"><ele>100.5</ele><time>2026-05-02T18:39:02.763Z</time></trkpt><trkpt lat="37.285681" lon="9.8335963"><ele>99.0</ele><time>2026-05-02T18:39:03.766Z</time></trkpt><trkpt lat="37.2856916" lon="9.8337408"><ele>97.5</ele><time>2026-05-02T18:39:04.787Z</time></trkpt><trkpt lat="37.2856986" lon="9.8338847"><ele>96.0</ele><time>2026-05-02T18:39:05.77Z</time></trkpt><trkpt lat="37.2856971" lon="9.8340274"><ele>96.0</ele><time>2026-05-02T18:39:06.776Z</time></trkpt><trkpt lat="37.2856816" lon="9.8341666"><ele>96.0</ele><time>2026-05-02T18:39:07.771Z</time></trkpt><trkpt lat="37.285656" lon="9.8343046"><ele>96.0</ele><time>2026-05-02T18:39:08.771Z</time></trkpt><trkpt lat="37.2856232" lon="9.8344313"><ele>96.0</ele><time>2026-05-02T18:39:09.779Z</time></trkpt><trkpt lat="37.2855893" lon="9.8345565"><ele>96.0</ele><time>2026-05-02T18:39:10.765Z</time></trkpt><trkpt lat="37.2855562" lon="9.8346875"><ele>93.8</ele><time>2026-05-02T18:39:11.781Z</time></trkpt><trkpt lat="37.2855241" lon="9.8348165"><ele>91.6</ele><time>2026-05-02T18:39:12.767Z</time></trkpt><trkpt lat="37.2854955" lon="9.834946"><ele>89.4</ele><time>2026-05-02T18:39:13.785Z</time></trkpt><trkpt lat="37.2854719" lon="9.8350757"><ele>87.2</ele><time>2026-05-02T18:39:14.781Z</time></trkpt><trkpt lat="37.2854578" lon="9.8352038"><ele>85.0</ele><time>2026-05-02T18:39:15.766Z</time></trkpt><trkpt lat="37.2854531" lon="9.8353317"><ele>84.6</ele><time>2026-05-02T18:39:16.777Z</time></trkpt><trkpt lat="37.2854626" lon="9.8354627"><ele>84.2</ele><time>2026-05-02T18:39:17.781Z</time></trkpt><trkpt lat="37.2854877" lon="9.8355936"><ele>83.80000000000001</ele><time>2026-05-02T18:39:18.782Z</time></trkpt><trkpt lat="37.2855158" lon="9.8357298"><ele>83.4</ele><time>2026-05-02T18:39:19.78Z</time></trkpt><trkpt lat="37.2855504" lon="9.8358603"><ele>83.0</ele><time>2026-05-02T18:39:20.782Z</time></trkpt><trkpt lat="37.2855864" lon="9.835991"><ele>83.60000000000001</ele><time>2026-05-02T18:39:21.77Z</time></trkpt><trkpt lat="37.285625" lon="9.8361167"><ele>84.2</ele><time>2026-05-02T18:39:22.796Z</time></trkpt><trkpt lat="37.2856602" lon="9.8362448"><ele>84.8</ele><time>2026-05-02T18:39:23.781Z</time></trkpt><trkpt lat="37.2856884" lon="9.8363689"><ele>85.4</ele><time>2026-05-02T18:39:24.763Z</time></trkpt><trkpt lat="37.2857065" lon="9.8364936"><ele>86.0</ele><time>2026-05-02T18:39:25.763Z</time></trkpt><trkpt lat="37.285715" lon="9.8366221"><ele>86.0</ele><time>2026-05-02T18:39:26.777Z</time></trkpt><trkpt lat="37.2857154" lon="9.8367437"><ele>86.0</ele><time>2026-05-02T18:39:27.767Z</time></trkpt><trkpt lat="37.2857072" lon="9.8368528"><ele>86.0</ele><time>2026-05-02T18:39:28.775Z</time></trkpt><trkpt lat="37.2856704" lon="9.8369493"><ele>86.0</ele><time>2026-05-02T18:39:29.768Z</time></trkpt><trkpt lat="37.2856184" lon="9.8370445"><ele>86.0</ele><time>2026-05-02T18:39:30.771Z</time></trkpt><trkpt lat="37.2855532" lon="9.8371172"><ele>86.0</ele><time>2026-05-02T18:39:31.785Z</time></trkpt><trkpt lat="37.2854786" lon="9.8371746"><ele>85.5</ele><time>2026-05-02T18:39:32.769Z</time></trkpt><trkpt lat="37.285403" lon="9.8372213"><ele>85.0</ele><time>2026-05-02T18:39:33.774Z</time></trkpt><trkpt lat="37.285327" lon="9.8372506"><ele>84.5</ele><time>2026-05-02T18:39:34.768Z</time></trkpt><trkpt lat="37.2852638" lon="9.8372617"><ele>84.0</ele><time>2026-05-02T18:39:35.765Z</time></trkpt><trkpt lat="37.2852002" lon="9.8372663"><ele>83.5</ele><time>2026-05-02T18:39:36.777Z</time></trkpt><trkpt lat="37.2851369" lon="9.8372653"><ele>83.0</ele><time>2026-05-02T18:39:37.76Z</time></trkpt><trkpt lat="37.2850369" lon="9.8372246"><ele>83.0</ele><time>2026-05-02T18:39:39.771Z</time></trkpt><trkpt lat="37.284951" lon="9.8371962"><ele>83.0</ele><time>2026-05-02T18:39:41.771Z</time></trkpt><trkpt lat="37.2848808" lon="9.8371783"><ele>83.0</ele><time>2026-05-02T18:39:43.776Z</time></trkpt><trkpt lat="37.2847962" lon="9.8371441"><ele>83.0</ele><time>2026-05-02T18:39:45.777Z</time></trkpt><trkpt lat="37.2846834" lon="9.8370948"><ele>83.0</ele><time>2026-05-02T18:39:47.771Z</time></trkpt><trkpt lat="37.2846061" lon="9.8370728"><ele>83.0</ele><time>2026-05-02T18:39:48.777Z</time></trkpt><trkpt lat="37.2845291" lon="9.8370472"><ele>82.57142857142857</ele><time>2026-05-02T18:39:49.781Z</time></trkpt><trkpt lat="37.2844535" lon="9.8370202"><ele>82.14285714285715</ele><time>2026-05-02T18:39:50.768Z</time></trkpt><trkpt lat="37.2843881" lon="9.8369893"><ele>81.71428571428572</ele><time>2026-05-02T18:39:51.775Z</time></trkpt><trkpt lat="37.2843148" lon="9.8369638"><ele>81.28571428571428</ele><time>2026-05-02T18:39:52.772Z</time></trkpt><trkpt lat="37.2842505" lon="9.8369401"><ele>80.85714285714286</ele><time>2026-05-02T18:39:53.768Z</time></trkpt><trkpt lat="37.2841869" lon="9.8369244"><ele>80.42857142857143</ele><time>2026-05-02T18:39:54.777Z</time></trkpt><trkpt lat="37.2841236" lon="9.8369065"><ele>80.0</ele><time>2026-05-02T18:39:55.776Z</time></trkpt><trkpt lat="37.2840135" lon="9.8368649"><ele>80.0</ele><time>2026-05-02T18:39:57.773Z</time></trkpt><trkpt lat="37.2839532" lon="9.8368408"><ele>80.0</ele><time>2026-05-02T18:39:58.765Z</time></trkpt><trkpt lat="37.2838844" lon="9.8368097"><ele>80.0</ele><time>2026-05-02T18:39:59.767Z</time></trkpt><trkpt lat="37.2838123" lon="9.8367797"><ele>80.0</ele><time>2026-05-02T18:40:00.778Z</time></trkpt><trkpt lat="37.2837485" lon="9.8367547"><ele>80.0</ele><time>2026-05-02T18:40:01.774Z</time></trkpt><trkpt lat="37.2836794" lon="9.8367306"><ele>80.0</ele><time>2026-05-02T18:40:02.775Z</time></trkpt><trkpt lat="37.2836161" lon="9.8367107"><ele>80.0</ele><time>2026-05-02T18:40:03.78Z</time></trkpt><trkpt lat="37.2834895" lon="9.8366818"><ele>78.83333333333334</ele><time>2026-05-02T18:40:05.76Z</time></trkpt><trkpt lat="37.2834132" lon="9.8366665"><ele>77.66666666666667</ele><time>2026-05-02T18:40:06.776Z</time></trkpt><trkpt lat="37.2833317" lon="9.8366591"><ele>76.5</ele><time>2026-05-02T18:40:07.77Z</time></trkpt><trkpt lat="37.2832377" lon="9.8366713"><ele>75.33333333333333</ele><time>2026-05-02T18:40:08.774Z</time></trkpt><trkpt lat="37.2831449" lon="9.8366879"><ele>74.16666666666666</ele><time>2026-05-02T18:40:09.778Z</time></trkpt><trkpt lat="37.2830549" lon="9.8367219"><ele>73.0</ele><time>2026-05-02T18:40:10.776Z</time></trkpt><trkpt lat="37.2829642" lon="9.836759"><ele>72.4</ele><time>2026-05-02T18:40:11.769Z</time></trkpt><trkpt lat="37.2828763" lon="9.8367975"><ele>71.8</ele><time>2026-05-02T18:40:12.772Z</time></trkpt><trkpt lat="37.2827897" lon="9.836842"><ele>71.2</ele><time>2026-05-02T18:40:13.768Z</time></trkpt><trkpt lat="37.2827009" lon="9.8368904"><ele>70.6</ele><time>2026-05-02T18:40:14.771Z</time></trkpt><trkpt lat="37.282619" lon="9.8369385"><ele>70.0</ele><time>2026-05-02T18:40:15.759Z</time></trkpt><trkpt lat="37.2825386" lon="9.8369863"><ele>70.0</ele><time>2026-05-02T18:40:16.764Z</time></trkpt><trkpt lat="37.2824594" lon="9.8370348"><ele>70.0</ele><time>2026-05-02T18:40:17.774Z</time></trkpt><trkpt lat="37.2823888" lon="9.8370806"><ele>70.0</ele><time>2026-05-02T18:40:18.763Z</time></trkpt><trkpt lat="37.2823203" lon="9.8371281"><ele>70.0</ele><time>2026-05-02T18:40:19.772Z</time></trkpt><trkpt lat="37.2822392" lon="9.8371855"><ele>70.0</ele><time>2026-05-02T18:40:20.768Z</time></trkpt><trkpt lat="37.2821561" lon="9.8372332"><ele>70.0</ele><time>2026-05-02T18:40:21.772Z</time></trkpt><trkpt lat="37.2820718" lon="9.8372812"><ele>68.4</ele><time>2026-05-02T18:40:22.778Z</time></trkpt><trkpt lat="37.2819776" lon="9.8373284"><ele>66.8</ele><time>2026-05-02T18:40:23.778Z</time></trkpt><trkpt lat="37.2818983" lon="9.8373643"><ele>65.2</ele><time>2026-05-02T18:40:24.793Z</time></trkpt><trkpt lat="37.2818032" lon="9.8374104"><ele>63.6</ele><time>2026-05-02T18:40:25.756Z</time></trkpt><trkpt lat="37.2817133" lon="9.8374491"><ele>62.0</ele><time>2026-05-02T18:40:26.777Z</time></trkpt><trkpt lat="37.2816114" lon="9.8375037"><ele>62.0</ele><time>2026-05-02T18:40:27.775Z</time></trkpt><trkpt lat="37.2814922" lon="9.8375699"><ele>62.0</ele><time>2026-05-02T18:40:28.777Z</time></trkpt><trkpt lat="37.2813815" lon="9.8376247"><ele>62.0</ele><time>2026-05-02T18:40:29.779Z</time></trkpt><trkpt lat="37.2812712" lon="9.8376734"><ele>62.0</ele><time>2026-05-02T18:40:30.784Z</time></trkpt><trkpt lat="37.2811634" lon="9.8377177"><ele>61.0</ele><time>2026-05-02T18:40:31.773Z</time></trkpt><trkpt lat="37.281056" lon="9.8377652"><ele>60.0</ele><time>2026-05-02T18:40:32.766Z</time></trkpt><trkpt lat="37.2809534" lon="9.8378049"><ele>59.0</ele><time>2026-05-02T18:40:33.762Z</time></trkpt><trkpt lat="37.2808464" lon="9.8378535"><ele>58.0</ele><time>2026-05-02T18:40:34.772Z</time></trkpt><trkpt lat="37.2807396" lon="9.8379047"><ele>57.0</ele><time>2026-05-02T18:40:35.757Z</time></trkpt><trkpt lat="37.280618" lon="9.8379634"><ele>56.2</ele><time>2026-05-02T18:40:36.771Z</time></trkpt><trkpt lat="37.2805124" lon="9.8380134"><ele>55.400000000000006</ele><time>2026-05-02T18:40:37.766Z</time></trkpt><trkpt lat="37.2804127" lon="9.8380573"><ele>54.599999999999994</ele><time>2026-05-02T18:40:38.784Z</time></trkpt><trkpt lat="37.2803127" lon="9.8381004"><ele>53.8</ele><time>2026-05-02T18:40:39.78Z</time></trkpt><trkpt lat="37.2802175" lon="9.8381448"><ele>53.0</ele><time>2026-05-02T18:40:40.774Z</time></trkpt><trkpt lat="37.2801367" lon="9.8381783"><ele>53.00000000000001</ele><time>2026-05-02T18:40:41.773Z</time></trkpt><trkpt lat="37.2800551" lon="9.8382145"><ele>53.0</ele><time>2026-05-02T18:40:42.774Z</time></trkpt><trkpt lat="37.279981" lon="9.838251"><ele>53.0</ele><time>2026-05-02T18:40:43.772Z</time></trkpt><trkpt lat="37.2799063" lon="9.8382865"><ele>53.0</ele><time>2026-05-02T18:40:44.77Z</time></trkpt><trkpt lat="37.2798405" lon="9.8383163"><ele>53.00000000000001</ele><time>2026-05-02T18:40:45.779Z</time></trkpt><trkpt lat="37.2797437" lon="9.8383566"><ele>53.0</ele><time>2026-05-02T18:40:47.78Z</time></trkpt><trkpt lat="37.2796447" lon="9.8383935"><ele>53.00000000000001</ele><time>2026-05-02T18:40:51.721Z</time></trkpt><trkpt lat="37.2795891" lon="9.8384476"><ele>53.0</ele><time>2026-05-02T18:40:53.717Z</time></trkpt><trkpt lat="37.279552" lon="9.8385229"><ele>53.0</ele><time>2026-05-02T18:40:54.719Z</time></trkpt><trkpt lat="37.2795224" lon="9.8386166"><ele>53.0</ele><time>2026-05-02T18:40:55.718Z</time></trkpt><trkpt lat="37.2794929" lon="9.8387099"><ele>53.00000000000001</ele><time>2026-05-02T18:40:56.714Z</time></trkpt><trkpt lat="37.2794566" lon="9.8388043"><ele>53.0</ele><time>2026-05-02T18:40:57.715Z</time></trkpt><trkpt lat="37.2794145" lon="9.8388953"><ele>52.833333333333336</ele><time>2026-05-02T18:40:58.713Z</time></trkpt><trkpt lat="37.2793723" lon="9.8389819"><ele>52.66666666666667</ele><time>2026-05-02T18:40:59.722Z</time></trkpt><trkpt lat="37.2793297" lon="9.8390611"><ele>52.5</ele><time>2026-05-02T18:41:00.723Z</time></trkpt><trkpt lat="37.2792882" lon="9.8391422"><ele>52.33333333333333</ele><time>2026-05-02T18:41:01.708Z</time></trkpt><trkpt lat="37.2792572" lon="9.8392185"><ele>52.166666666666664</ele><time>2026-05-02T18:41:02.715Z</time></trkpt><trkpt lat="37.2792201" lon="9.8393301"><ele>52.0</ele><time>2026-05-02T18:41:04.712Z</time></trkpt><trkpt lat="37.2791984" lon="9.8394233"><ele>51.33333333333333</ele><time>2026-05-02T18:41:06.703Z</time></trkpt><trkpt lat="37.2792055" lon="9.839522"><ele>50.666666666666664</ele><time>2026-05-02T18:41:08.717Z</time></trkpt><trkpt lat="37.2792391" lon="9.8396275"><ele>50.0</ele><time>2026-05-02T18:41:10.712Z</time></trkpt><trkpt lat="37.2792685" lon="9.8397247"><ele>49.33333333333333</ele><time>2026-05-02T18:41:12.711Z</time></trkpt><trkpt lat="37.2792972" lon="9.839832"><ele>48.666666666666664</ele><time>2026-05-02T18:41:14.716Z</time></trkpt><trkpt lat="37.2793092" lon="9.8399572"><ele>48.0</ele><time>2026-05-02T18:41:16.718Z</time></trkpt><trkpt lat="37.2793195" lon="9.8400884"><ele>47.8</ele><time>2026-05-02T18:41:18.716Z</time></trkpt><trkpt lat="37.279317" lon="9.8402248"><ele>47.599999999999994</ele><time>2026-05-02T18:41:20.715Z</time></trkpt><trkpt lat="37.2793125" lon="9.8403585"><ele>47.400000000000006</ele><time>2026-05-02T18:41:22.704Z</time></trkpt><trkpt lat="37.2793064" lon="9.8404939"><ele>47.2</ele><time>2026-05-02T18:41:24.714Z</time></trkpt><trkpt lat="37.2793029" lon="9.8406458"><ele>47.0</ele><time>2026-05-02T18:41:26.707Z</time></trkpt><trkpt lat="37.2793085" lon="9.8407972"><ele>47.0</ele><time>2026-05-02T18:41:28.712Z</time></trkpt><trkpt lat="37.2793061" lon="9.8409466"><ele>47.0</ele><time>2026-05-02T18:41:30.704Z</time></trkpt><trkpt lat="37.2793003" lon="9.8410792"><ele>47.0</ele><time>2026-05-02T18:41:32.727Z</time></trkpt><trkpt lat="37.2793009" lon="9.8411822"><ele>47.0</ele><time>2026-05-02T18:41:34.709Z</time></trkpt><trkpt lat="37.2792902" lon="9.8413502"><ele>47.0</ele><time>2026-05-02T18:41:36.705Z</time></trkpt><trkpt lat="37.2792883" lon="9.8414593"><ele>47.0</ele><time>2026-05-02T18:41:37.709Z</time></trkpt><trkpt lat="37.2792745" lon="9.8415716"><ele>47.0</ele><time>2026-05-02T18:41:38.704Z</time></trkpt><trkpt lat="37.2792698" lon="9.8416842"><ele>47.0</ele><time>2026-05-02T18:41:39.705Z</time></trkpt><trkpt lat="37.2792744" lon="9.8418084"><ele>47.0</ele><time>2026-05-02T18:41:40.713Z</time></trkpt><trkpt lat="37.2792798" lon="9.8419312"><ele>47.0</ele><time>2026-05-02T18:41:41.702Z</time></trkpt><trkpt lat="37.2792827" lon="9.8420536"><ele>47.0</ele><time>2026-05-02T18:41:42.706Z</time></trkpt><trkpt lat="37.2792912" lon="9.8421664"><ele>47.0</ele><time>2026-05-02T18:41:43.709Z</time></trkpt><trkpt lat="37.2792934" lon="9.8422801"><ele>47.0</ele><time>2026-05-02T18:41:44.717Z</time></trkpt><trkpt lat="37.2792986" lon="9.8423915"><ele>47.0</ele><time>2026-05-02T18:41:45.708Z</time></trkpt><trkpt lat="37.2793036" lon="9.8425031"><ele>47.0</ele><time>2026-05-02T18:41:46.71Z</time></trkpt><trkpt lat="37.2793111" lon="9.8426163"><ele>47.0</ele><time>2026-05-02T18:41:47.711Z</time></trkpt><trkpt lat="37.279316" lon="9.842729"><ele>47.33333333333333</ele><time>2026-05-02T18:41:48.707Z</time></trkpt><trkpt lat="37.2793178" lon="9.8428398"><ele>47.666666666666664</ele><time>2026-05-02T18:41:49.714Z</time></trkpt><trkpt lat="37.2793207" lon="9.8429459"><ele>48.0</ele><time>2026-05-02T18:41:50.712Z</time></trkpt><trkpt lat="37.2793214" lon="9.8430535"><ele>48.33333333333333</ele><time>2026-05-02T18:41:51.71Z</time></trkpt><trkpt lat="37.2793202" lon="9.8431611"><ele>48.666666666666664</ele><time>2026-05-02T18:41:52.714Z</time></trkpt><trkpt lat="37.2793176" lon="9.843268"><ele>49.0</ele><time>2026-05-02T18:41:53.71Z</time></trkpt><trkpt lat="37.279314" lon="9.843382"><ele>48.666666666666664</ele><time>2026-05-02T18:41:54.744Z</time></trkpt><trkpt lat="37.2793109" lon="9.843497"><ele>48.33333333333333</ele><time>2026-05-02T18:41:55.702Z</time></trkpt><trkpt lat="37.279301" lon="9.8436038"><ele>48.0</ele><time>2026-05-02T18:41:56.71Z</time></trkpt><trkpt lat="37.2792994" lon="9.8437062"><ele>47.666666666666664</ele><time>2026-05-02T18:41:57.705Z</time></trkpt><trkpt lat="37.2792822" lon="9.8438083"><ele>47.33333333333333</ele><time>2026-05-02T18:41:58.708Z</time></trkpt><trkpt lat="37.2792761" lon="9.8439066"><ele>47.0</ele><time>2026-05-02T18:41:59.713Z</time></trkpt><trkpt lat="37.2792629" lon="9.8440096"><ele>47.0</ele><time>2026-05-02T18:42:00.707Z</time></trkpt><trkpt lat="37.2792531" lon="9.8441071"><ele>47.0</ele><time>2026-05-02T18:42:01.709Z</time></trkpt><trkpt lat="37.2792307" lon="9.8442219"><ele>47.0</ele><time>2026-05-02T18:42:02.711Z</time></trkpt><trkpt lat="37.2792099" lon="9.8443344"><ele>47.0</ele><time>2026-05-02T18:42:03.723Z</time></trkpt><trkpt lat="37.2791897" lon="9.8444514"><ele>47.0</ele><time>2026-05-02T18:42:04.706Z</time></trkpt><trkpt lat="37.2791706" lon="9.8445645"><ele>47.0</ele><time>2026-05-02T18:42:05.71Z</time></trkpt><trkpt lat="37.2791479" lon="9.8446782"><ele>47.0</ele><time>2026-05-02T18:42:06.703Z</time></trkpt><trkpt lat="37.2791257" lon="9.8447972"><ele>47.0</ele><time>2026-05-02T18:42:07.709Z</time></trkpt><trkpt lat="37.2791021" lon="9.8449106"><ele>47.0</ele><time>2026-05-02T18:42:08.744Z</time></trkpt><trkpt lat="37.2790777" lon="9.8450236"><ele>47.0</ele><time>2026-05-02T18:42:09.712Z</time></trkpt><trkpt lat="37.2790522" lon="9.8451413"><ele>46.83333333333333</ele><time>2026-05-02T18:42:10.719Z</time></trkpt><trkpt lat="37.2790327" lon="9.8452471"><ele>46.666666666666664</ele><time>2026-05-02T18:42:11.71Z</time></trkpt><trkpt lat="37.2790137" lon="9.8453509"><ele>46.5</ele><time>2026-05-02T18:42:12.715Z</time></trkpt><trkpt lat="37.2789987" lon="9.8454528"><ele>46.333333333333336</ele><time>2026-05-02T18:42:13.708Z</time></trkpt><trkpt lat="37.2789822" lon="9.8455516"><ele>46.16666666666667</ele><time>2026-05-02T18:42:14.711Z</time></trkpt><trkpt lat="37.2789684" lon="9.8456472"><ele>46.0</ele><time>2026-05-02T18:42:15.726Z</time></trkpt><trkpt lat="37.2789515" lon="9.845741"><ele>44.8</ele><time>2026-05-02T18:42:16.73Z</time></trkpt><trkpt lat="37.2789327" lon="9.8458304"><ele>43.599999999999994</ele><time>2026-05-02T18:42:17.739Z</time></trkpt><trkpt lat="37.2789027" lon="9.8459804"><ele>42.4</ele><time>2026-05-02T18:42:19.718Z</time></trkpt><trkpt lat="37.2788775" lon="9.8461131"><ele>41.2</ele><time>2026-05-02T18:42:21.709Z</time></trkpt><trkpt lat="37.2788617" lon="9.8462345"><ele>40.0</ele><time>2026-05-02T18:42:23.706Z</time></trkpt><trkpt lat="37.2788425" lon="9.84635"><ele>39.8</ele><time>2026-05-02T18:42:25.733Z</time></trkpt><trkpt lat="37.2788233" lon="9.8464832"><ele>39.6</ele><time>2026-05-02T18:42:27.72Z</time></trkpt><trkpt lat="37.2787895" lon="9.846639"><ele>39.4</ele><time>2026-05-02T18:42:29.716Z</time></trkpt><trkpt lat="37.278776" lon="9.8467305"><ele>39.2</ele><time>2026-05-02T18:42:30.709Z</time></trkpt><trkpt lat="37.2787601" lon="9.8468216"><ele>39.0</ele><time>2026-05-02T18:42:31.703Z</time></trkpt><trkpt lat="37.2787431" lon="9.846912"><ele>38.85714285714286</ele><time>2026-05-02T18:42:32.712Z</time></trkpt><trkpt lat="37.2787222" lon="9.8470017"><ele>38.71428571428571</ele><time>2026-05-02T18:42:33.712Z</time></trkpt><trkpt lat="37.2787043" lon="9.8470845"><ele>38.57142857142857</ele><time>2026-05-02T18:42:34.713Z</time></trkpt><trkpt lat="37.2786895" lon="9.8471717"><ele>38.42857142857143</ele><time>2026-05-02T18:42:35.716Z</time></trkpt><trkpt lat="37.2786842" lon="9.8472603"><ele>38.28571428571429</ele><time>2026-05-02T18:42:36.716Z</time></trkpt><trkpt lat="37.2786694" lon="9.8473553"><ele>38.14285714285714</ele><time>2026-05-02T18:42:37.718Z</time></trkpt><trkpt lat="37.2786542" lon="9.8474499"><ele>38.0</ele><time>2026-05-02T18:42:38.708Z</time></trkpt><trkpt lat="37.2786397" lon="9.8475391"><ele>37.714285714285715</ele><time>2026-05-02T18:42:39.713Z</time></trkpt><trkpt lat="37.2786178" lon="9.847629"><ele>37.42857142857143</ele><time>2026-05-02T18:42:40.71Z</time></trkpt><trkpt lat="37.2785928" lon="9.8477234"><ele>37.142857142857146</ele><time>2026-05-02T18:42:41.715Z</time></trkpt><trkpt lat="37.2785802" lon="9.8478139"><ele>36.85714285714286</ele><time>2026-05-02T18:42:42.708Z</time></trkpt><trkpt lat="37.2785636" lon="9.847904"><ele>36.57142857142857</ele><time>2026-05-02T18:42:43.711Z</time></trkpt><trkpt lat="37.2785506" lon="9.847986"><ele>36.28571428571429</ele><time>2026-05-02T18:42:44.709Z</time></trkpt><trkpt lat="37.2785345" lon="9.8480652"><ele>36.0</ele><time>2026-05-02T18:42:45.725Z</time></trkpt><trkpt lat="37.2785229" lon="9.8481455"><ele>36.0</ele><time>2026-05-02T18:42:46.712Z</time></trkpt><trkpt lat="37.2785064" lon="9.8482243"><ele>36.0</ele><time>2026-05-02T18:42:47.701Z</time></trkpt><trkpt lat="37.27849" lon="9.8483763"><ele>36.0</ele><time>2026-05-02T18:42:49.706Z</time></trkpt><trkpt lat="37.2784662" lon="9.8485173"><ele>36.0</ele><time>2026-05-02T18:42:51.71Z</time></trkpt><trkpt lat="37.2784377" lon="9.8486667"><ele>36.0</ele><time>2026-05-02T18:42:53.717Z</time></trkpt><trkpt lat="37.2784235" lon="9.8487581"><ele>35.333333333333336</ele><time>2026-05-02T18:42:54.705Z</time></trkpt><trkpt lat="37.2784169" lon="9.8488529"><ele>34.666666666666664</ele><time>2026-05-02T18:42:55.708Z</time></trkpt><trkpt lat="37.2784055" lon="9.848935"><ele>34.0</ele><time>2026-05-02T18:42:56.721Z</time></trkpt><trkpt lat="37.2783921" lon="9.8490137"><ele>33.33333333333333</ele><time>2026-05-02T18:42:57.717Z</time></trkpt><trkpt lat="37.2783886" lon="9.8491503"><ele>32.666666666666664</ele><time>2026-05-02T18:42:59.704Z</time></trkpt><trkpt lat="37.2783783" lon="9.8492628"><ele>32.0</ele><time>2026-05-02T18:43:01.711Z</time></trkpt><trkpt lat="37.278388" lon="9.8493566"><ele>31.8</ele><time>2026-05-02T18:43:03.71Z</time></trkpt><trkpt lat="37.2783787" lon="9.8494637"><ele>31.6</ele><time>2026-05-02T18:43:05.75Z</time></trkpt><trkpt lat="37.2783661" lon="9.8495763"><ele>31.400000000000002</ele><time>2026-05-02T18:43:07.709Z</time></trkpt><trkpt lat="37.2783428" lon="9.8496918"><ele>31.200000000000003</ele><time>2026-05-02T18:43:09.716Z</time></trkpt><trkpt lat="37.2783272" lon="9.8498341"><ele>31.0</ele><time>2026-05-02T18:43:11.717Z</time></trkpt><trkpt lat="37.2783039" lon="9.8499844"><ele>30.8</ele><time>2026-05-02T18:43:13.717Z</time></trkpt><trkpt lat="37.2782903" lon="9.8501351"><ele>30.6</ele><time>2026-05-02T18:43:15.701Z</time></trkpt><trkpt lat="37.2782804" lon="9.8502697"><ele>30.4</ele><time>2026-05-02T18:43:17.713Z</time></trkpt><trkpt lat="37.2782705" lon="9.8504028"><ele>30.2</ele><time>2026-05-02T18:43:19.716Z</time></trkpt><trkpt lat="37.2782659" lon="9.8505225"><ele>30.0</ele><time>2026-05-02T18:43:21.712Z</time></trkpt><trkpt lat="37.2782548" lon="9.8506272"><ele>30.0</ele><time>2026-05-02T18:43:24.711Z</time></trkpt><trkpt lat="37.2782461" lon="9.8507315"><ele>30.0</ele><time>2026-05-02T18:43:27.718Z</time></trkpt><trkpt lat="37.2782408" lon="9.8508458"><ele>30.0</ele><time>2026-05-02T18:43:29.714Z</time></trkpt><trkpt lat="37.2782383" lon="9.8509966"><ele>30.0</ele><time>2026-05-02T18:43:31.72Z</time></trkpt><trkpt lat="37.2782317" lon="9.8510816"><ele>30.0</ele><time>2026-05-02T18:43:32.72Z</time></trkpt><trkpt lat="37.2782209" lon="9.8511642"><ele>30.0</ele><time>2026-05-02T18:43:33.719Z</time></trkpt><trkpt lat="37.278213" lon="9.8512522"><ele>29.4</ele><time>2026-05-02T18:43:34.721Z</time></trkpt><trkpt lat="37.2781993" lon="9.8514085"><ele>28.8</ele><time>2026-05-02T18:43:36.716Z</time></trkpt><trkpt lat="37.2781955" lon="9.8514959"><ele>28.200000000000003</ele><time>2026-05-02T18:43:37.718Z</time></trkpt><trkpt lat="37.2781883" lon="9.8515782"><ele>27.6</ele><time>2026-05-02T18:43:38.703Z</time></trkpt><trkpt lat="37.2781789" lon="9.8517349"><ele>27.0</ele><time>2026-05-02T18:43:40.712Z</time></trkpt><trkpt lat="37.278165" lon="9.8518157"><ele>26.833333333333332</ele><time>2026-05-02T18:43:41.707Z</time></trkpt><trkpt lat="37.2781577" lon="9.8519001"><ele>26.666666666666664</ele><time>2026-05-02T18:43:42.709Z</time></trkpt><trkpt lat="37.2781435" lon="9.8519812"><ele>26.5</ele><time>2026-05-02T18:43:43.71Z</time></trkpt><trkpt lat="37.2781369" lon="9.8520633"><ele>26.333333333333332</ele><time>2026-05-02T18:43:44.709Z</time></trkpt><trkpt lat="37.2781285" lon="9.8521426"><ele>26.166666666666664</ele><time>2026-05-02T18:43:45.717Z</time></trkpt><trkpt lat="37.2781194" lon="9.8522267"><ele>26.0</ele><time>2026-05-02T18:43:46.727Z</time></trkpt><trkpt lat="37.278112" lon="9.8523861"><ele>25.999999999999996</ele><time>2026-05-02T18:43:48.713Z</time></trkpt><trkpt lat="37.2781083" lon="9.8525417"><ele>26.0</ele><time>2026-05-02T18:43:50.709Z</time></trkpt><trkpt lat="37.2781054" lon="9.85263"><ele>26.0</ele><time>2026-05-02T18:43:51.708Z</time></trkpt><trkpt lat="37.2781002" lon="9.8527176"><ele>26.0</ele><time>2026-05-02T18:43:52.726Z</time></trkpt><trkpt lat="37.2780969" lon="9.8528105"><ele>25.999999999999996</ele><time>2026-05-02T18:43:53.709Z</time></trkpt><trkpt lat="37.2780999" lon="9.8528996"><ele>26.0</ele><time>2026-05-02T18:43:54.715Z</time></trkpt><trkpt lat="37.2781005" lon="9.8529864"><ele>25.57142857142857</ele><time>2026-05-02T18:43:55.707Z</time></trkpt><trkpt lat="37.2781061" lon="9.8530725"><ele>25.142857142857146</ele><time>2026-05-02T18:43:56.708Z</time></trkpt><trkpt lat="37.2781111" lon="9.8531646"><ele>24.714285714285715</ele><time>2026-05-02T18:43:57.713Z</time></trkpt><trkpt lat="37.2781103" lon="9.8532497"><ele>24.285714285714285</ele><time>2026-05-02T18:43:58.703Z</time></trkpt><trkpt lat="37.2781087" lon="9.8533331"><ele>23.857142857142854</ele><time>2026-05-02T18:43:59.711Z</time></trkpt><trkpt lat="37.2781141" lon="9.8534149"><ele>23.42857142857143</ele><time>2026-05-02T18:44:00.713Z</time></trkpt><trkpt lat="37.278126" lon="9.8535002"><ele>23.0</ele><time>2026-05-02T18:44:01.706Z</time></trkpt><trkpt lat="37.2781304" lon="9.8535912"><ele>22.714285714285715</ele><time>2026-05-02T18:44:02.7Z</time></trkpt><trkpt lat="37.2781423" lon="9.8536767"><ele>22.428571428571427</ele><time>2026-05-02T18:44:03.732Z</time></trkpt><trkpt lat="37.2781564" lon="9.8537706"><ele>22.142857142857142</ele><time>2026-05-02T18:44:04.719Z</time></trkpt><trkpt lat="37.2781665" lon="9.853862"><ele>21.857142857142858</ele><time>2026-05-02T18:44:05.705Z</time></trkpt><trkpt lat="37.2781736" lon="9.8539442"><ele>21.57142857142857</ele><time>2026-05-02T18:44:06.708Z</time></trkpt><trkpt lat="37.278181" lon="9.8540363"><ele>21.285714285714285</ele><time>2026-05-02T18:44:07.708Z</time></trkpt><trkpt lat="37.2781882" lon="9.8541292"><ele>21.0</ele><time>2026-05-02T18:44:08.733Z</time></trkpt><trkpt lat="37.278195" lon="9.8542111"><ele>21.4</ele><time>2026-05-02T18:44:09.696Z</time></trkpt><trkpt lat="37.2782042" lon="9.8543593"><ele>21.8</ele><time>2026-05-02T18:44:11.712Z</time></trkpt><trkpt lat="37.2782133" lon="9.8544865"><ele>22.2</ele><time>2026-05-02T18:44:13.718Z</time></trkpt><trkpt lat="37.2782138" lon="9.8546095"><ele>22.599999999999998</ele><time>2026-05-02T18:44:15.71Z</time></trkpt><trkpt lat="37.2782099" lon="9.8546985"><ele>23.0</ele><time>2026-05-02T18:44:17.704Z</time></trkpt><trkpt lat="37.2782103" lon="9.8547885"><ele>23.0</ele><time>2026-05-02T18:44:19.709Z</time></trkpt><trkpt lat="37.2782094" lon="9.8548836"><ele>23.0</ele><time>2026-05-02T18:44:21.704Z</time></trkpt><trkpt lat="37.2782213" lon="9.854962"><ele>23.0</ele><time>2026-05-02T18:44:23.715Z</time></trkpt><trkpt lat="37.2782224" lon="9.8550517"><ele>23.0</ele><time>2026-05-02T18:44:26.704Z</time></trkpt><trkpt lat="37.2782202" lon="9.8551444"><ele>23.0</ele><time>2026-05-02T18:44:29.707Z</time></trkpt><trkpt lat="37.2782061" lon="9.8552406"><ele>23.0</ele><time>2026-05-02T18:44:33.707Z</time></trkpt><trkpt lat="37.2781637" lon="9.855342"><ele>22.599999999999998</ele><time>2026-05-02T18:44:38.71Z</time></trkpt><trkpt lat="37.2781298" lon="9.8554231"><ele>22.2</ele><time>2026-05-02T18:44:41.704Z</time></trkpt><trkpt lat="37.2781389" lon="9.8555025"><ele>21.8</ele><time>2026-05-02T18:44:44.71Z</time></trkpt><trkpt lat="37.2782259" lon="9.8555136"><ele>21.4</ele><time>2026-05-02T18:44:46.71Z</time></trkpt><trkpt lat="37.2783402" lon="9.8555224"><ele>21.0</ele><time>2026-05-02T18:44:48.711Z</time></trkpt><trkpt lat="37.2784515" lon="9.8555215"><ele>21.0</ele><time>2026-05-02T18:44:50.699Z</time></trkpt><trkpt lat="37.2785482" lon="9.8555438"><ele>21.0</ele><time>2026-05-02T18:44:52.701Z</time></trkpt><trkpt lat="37.2786339" lon="9.8555651"><ele>21.0</ele><time>2026-05-02T18:44:54.723Z</time></trkpt><trkpt lat="37.2787296" lon="9.8555943"><ele>21.0</ele><time>2026-05-02T18:44:56.702Z</time></trkpt><trkpt lat="37.2788081" lon="9.8556365"><ele>21.0</ele><time>2026-05-02T18:44:58.706Z</time></trkpt><trkpt lat="37.2788699" lon="9.8556831"><ele>21.0</ele><time>2026-05-02T18:45:01.705Z</time></trkpt><trkpt lat="37.2789464" lon="9.8557018"><ele>21.333333333333332</ele><time>2026-05-02T18:45:03.702Z</time></trkpt><trkpt lat="37.279008" lon="9.8557249"><ele>21.666666666666668</ele><time>2026-05-02T18:45:05.696Z</time></trkpt><trkpt lat="37.2790705" lon="9.8557508"><ele>22.0</ele><time>2026-05-02T18:45:07.711Z</time></trkpt><trkpt lat="37.2791425" lon="9.8557712"><ele>22.333333333333336</ele><time>2026-05-02T18:45:09.701Z</time></trkpt><trkpt lat="37.2792269" lon="9.8558147"><ele>22.666666666666668</ele><time>2026-05-02T18:45:12.711Z</time></trkpt><trkpt lat="37.2793162" lon="9.8558499"><ele>23.0</ele><time>2026-05-02T18:45:15.71Z</time></trkpt><trkpt lat="37.2794003" lon="9.8558988"><ele>23.0</ele><time>2026-05-02T18:45:18.704Z</time></trkpt><trkpt lat="37.2794846" lon="9.8559321"><ele>23.0</ele><time>2026-05-02T18:45:21.712Z</time></trkpt><trkpt lat="37.2795574" lon="9.8559775"><ele>23.0</ele><time>2026-05-02T18:45:24.705Z</time></trkpt><trkpt lat="37.2796284" lon="9.8560349"><ele>23.0</ele><time>2026-05-02T18:45:27.708Z</time></trkpt><trkpt lat="37.279683" lon="9.856086"><ele>23.0</ele><time>2026-05-02T18:45:30.716Z</time></trkpt><trkpt lat="37.2797515" lon="9.8561121"><ele>23.0</ele><time>2026-05-02T18:45:32.715Z</time></trkpt><trkpt lat="37.2798134" lon="9.8561481"><ele>23.166666666666668</ele><time>2026-05-02T18:45:34.717Z</time></trkpt><trkpt lat="37.2798943" lon="9.8561715"><ele>23.333333333333336</ele><time>2026-05-02T18:45:37.714Z</time></trkpt><trkpt lat="37.2799732" lon="9.8561664"><ele>23.5</ele><time>2026-05-02T18:45:39.71Z</time></trkpt><trkpt lat="37.2800582" lon="9.8561828"><ele>23.666666666666668</ele><time>2026-05-02T18:45:41.707Z</time></trkpt><trkpt lat="37.2801445" lon="9.8562231"><ele>23.833333333333332</ele><time>2026-05-02T18:45:43.705Z</time></trkpt><trkpt lat="37.2802175" lon="9.8562778"><ele>24.0</ele><time>2026-05-02T18:45:45.7Z</time></trkpt><trkpt lat="37.2803309" lon="9.8563426"><ele>24.0</ele><time>2026-05-02T18:45:47.699Z</time></trkpt><trkpt lat="37.2804447" lon="9.8564023"><ele>24.0</ele><time>2026-05-02T18:45:49.709Z</time></trkpt><trkpt lat="37.2805028" lon="9.8564328"><ele>24.0</ele><time>2026-05-02T18:45:50.698Z</time></trkpt><trkpt lat="37.2806036" lon="9.8565027"><ele>24.0</ele><time>2026-05-02T18:45:52.698Z</time></trkpt><trkpt lat="37.2807153" lon="9.8565644"><ele>24.0</ele><time>2026-05-02T18:45:54.701Z</time></trkpt><trkpt lat="37.2808259" lon="9.8566337"><ele>24.4</ele><time>2026-05-02T18:45:56.705Z</time></trkpt><trkpt lat="37.2809246" lon="9.8566909"><ele>24.799999999999997</ele><time>2026-05-02T18:45:58.712Z</time></trkpt><trkpt lat="37.2809985" lon="9.8567413"><ele>25.200000000000003</ele><time>2026-05-02T18:46:00.71Z</time></trkpt><trkpt lat="37.2810584" lon="9.8567895"><ele>25.6</ele><time>2026-05-02T18:46:02.712Z</time></trkpt><trkpt lat="37.281134" lon="9.8568355"><ele>26.0</ele><time>2026-05-02T18:46:04.71Z</time></trkpt><trkpt lat="37.2812327" lon="9.856902"><ele>26.0</ele><time>2026-05-02T18:46:06.717Z</time></trkpt><trkpt lat="37.281329" lon="9.856988"><ele>26.0</ele><time>2026-05-02T18:46:08.698Z</time></trkpt><trkpt lat="37.2813829" lon="9.8570459"><ele>26.0</ele><time>2026-05-02T18:46:09.703Z</time></trkpt><trkpt lat="37.2814461" lon="9.8571248"><ele>26.0</ele><time>2026-05-02T18:46:10.698Z</time></trkpt><trkpt lat="37.2815196" lon="9.8572065"><ele>26.0</ele><time>2026-05-02T18:46:11.702Z</time></trkpt><trkpt lat="37.2815934" lon="9.8573049"><ele>26.0</ele><time>2026-05-02T18:46:12.707Z</time></trkpt><trkpt lat="37.281667" lon="9.8573975"><ele>26.0</ele><time>2026-05-02T18:46:13.719Z</time></trkpt><trkpt lat="37.2817347" lon="9.857479"><ele>26.0</ele><time>2026-05-02T18:46:14.703Z</time></trkpt><trkpt lat="37.2817963" lon="9.8575594"><ele>26.0</ele><time>2026-05-02T18:46:15.703Z</time></trkpt><trkpt lat="37.2818576" lon="9.8576338"><ele>26.0</ele><time>2026-05-02T18:46:16.701Z</time></trkpt><trkpt lat="37.2819168" lon="9.8577065"><ele>26.333333333333332</ele><time>2026-05-02T18:46:17.699Z</time></trkpt><trkpt lat="37.281971" lon="9.8577804"><ele>26.666666666666664</ele><time>2026-05-02T18:46:18.694Z</time></trkpt><trkpt lat="37.2820185" lon="9.8578581"><ele>27.0</ele><time>2026-05-02T18:46:19.729Z</time></trkpt><trkpt lat="37.2820659" lon="9.8579256"><ele>27.333333333333336</ele><time>2026-05-02T18:46:20.704Z</time></trkpt><trkpt lat="37.282119" lon="9.8580054"><ele>27.666666666666668</ele><time>2026-05-02T18:46:21.707Z</time></trkpt><trkpt lat="37.2821643" lon="9.8580829"><ele>28.0</ele><time>2026-05-02T18:46:22.713Z</time></trkpt><trkpt lat="37.2822144" lon="9.8581578"><ele>28.000000000000004</ele><time>2026-05-02T18:46:23.708Z</time></trkpt><trkpt lat="37.2822566" lon="9.8582293"><ele>28.0</ele><time>2026-05-02T18:46:24.707Z</time></trkpt><trkpt lat="37.2823021" lon="9.8582996"><ele>28.0</ele><time>2026-05-02T18:46:25.705Z</time></trkpt><trkpt lat="37.2823416" lon="9.8583695"><ele>28.0</ele><time>2026-05-02T18:46:26.743Z</time></trkpt><trkpt lat="37.2823749" lon="9.8584391"><ele>28.000000000000004</ele><time>2026-05-02T18:46:27.722Z</time></trkpt><trkpt lat="37.2824595" lon="9.8585637"><ele>28.0</ele><time>2026-05-02T18:46:29.72Z</time></trkpt><trkpt lat="37.2825328" lon="9.8586726"><ele>27.599999999999998</ele><time>2026-05-02T18:46:31.707Z</time></trkpt><trkpt lat="37.282585" lon="9.8587767"><ele>27.199999999999996</ele><time>2026-05-02T18:46:33.705Z</time></trkpt><trkpt lat="37.2826388" lon="9.8588745"><ele>26.8</ele><time>2026-05-02T18:46:35.7Z</time></trkpt><trkpt lat="37.2827067" lon="9.8589624"><ele>26.4</ele><time>2026-05-02T18:46:37.706Z</time></trkpt><trkpt lat="37.2827648" lon="9.85905"><ele>26.0</ele><time>2026-05-02T18:46:39.713Z</time></trkpt><trkpt lat="37.2828265" lon="9.8591548"><ele>26.0</ele><time>2026-05-02T18:46:41.727Z</time></trkpt><trkpt lat="37.2829021" lon="9.8592774"><ele>26.0</ele><time>2026-05-02T18:46:43.703Z</time></trkpt><trkpt lat="37.2829748" lon="9.8593911"><ele>26.0</ele><time>2026-05-02T18:46:45.735Z</time></trkpt><trkpt lat="37.2830471" lon="9.859501"><ele>26.0</ele><time>2026-05-02T18:46:47.703Z</time></trkpt><trkpt lat="37.2831287" lon="9.8596349"><ele>25.833333333333332</ele><time>2026-05-02T18:46:49.721Z</time></trkpt><trkpt lat="37.2831741" lon="9.8596973"><ele>25.666666666666664</ele><time>2026-05-02T18:46:50.706Z</time></trkpt><trkpt lat="37.2832116" lon="9.8597657"><ele>25.5</ele><time>2026-05-02T18:46:51.704Z</time></trkpt><trkpt lat="37.2832525" lon="9.8598302"><ele>25.333333333333336</ele><time>2026-05-02T18:46:52.721Z</time></trkpt><trkpt lat="37.2832882" lon="9.8599035"><ele>25.166666666666668</ele><time>2026-05-02T18:46:53.701Z</time></trkpt><trkpt lat="37.2833658" lon="9.8600296"><ele>25.0</ele><time>2026-05-02T18:46:55.699Z</time></trkpt><trkpt lat="37.2834403" lon="9.8601385"><ele>25.000000000000004</ele><time>2026-05-02T18:46:57.698Z</time></trkpt><trkpt lat="37.2835274" lon="9.8602573"><ele>25.0</ele><time>2026-05-02T18:46:59.707Z</time></trkpt><trkpt lat="37.2835713" lon="9.8603235"><ele>25.0</ele><time>2026-05-02T18:47:00.702Z</time></trkpt><trkpt lat="37.2836093" lon="9.8603931"><ele>25.0</ele><time>2026-05-02T18:47:01.708Z</time></trkpt><trkpt lat="37.2836555" lon="9.86047"><ele>25.000000000000004</ele><time>2026-05-02T18:47:02.715Z</time></trkpt><trkpt lat="37.2837001" lon="9.8605609"><ele>25.0</ele><time>2026-05-02T18:47:03.712Z</time></trkpt><trkpt lat="37.2837483" lon="9.8606443"><ele>25.000000000000004</ele><time>2026-05-02T18:47:04.713Z</time></trkpt><trkpt lat="37.2837961" lon="9.8607296"><ele>25.0</ele><time>2026-05-02T18:47:05.703Z</time></trkpt><trkpt lat="37.283849" lon="9.8608069"><ele>25.0</ele><time>2026-05-02T18:47:06.717Z</time></trkpt><trkpt lat="37.2839026" lon="9.8608948"><ele>25.0</ele><time>2026-05-02T18:47:07.712Z</time></trkpt><trkpt lat="37.2839609" lon="9.8609873"><ele>25.000000000000004</ele><time>2026-05-02T18:47:08.734Z</time></trkpt><trkpt lat="37.2840124" lon="9.861076"><ele>25.0</ele><time>2026-05-02T18:47:09.706Z</time></trkpt><trkpt lat="37.2840689" lon="9.8611605"><ele>25.0</ele><time>2026-05-02T18:47:10.703Z</time></trkpt><trkpt lat="37.2841379" lon="9.8612689"><ele>25.0</ele><time>2026-05-02T18:47:11.738Z</time></trkpt><trkpt lat="37.2842124" lon="9.8613815"><ele>25.0</ele><time>2026-05-02T18:47:12.704Z</time></trkpt><trkpt lat="37.2842858" lon="9.8614875"><ele>25.0</ele><time>2026-05-02T18:47:13.701Z</time></trkpt><trkpt lat="37.2843486" lon="9.8615882"><ele>25.0</ele><time>2026-05-02T18:47:14.701Z</time></trkpt><trkpt lat="37.2844043" lon="9.8616807"><ele>25.0</ele><time>2026-05-02T18:47:15.709Z</time></trkpt><trkpt lat="37.2844571" lon="9.8617684"><ele>25.0</ele><time>2026-05-02T18:47:16.708Z</time></trkpt><trkpt lat="37.2845031" lon="9.8618483"><ele>25.0</ele><time>2026-05-02T18:47:17.71Z</time></trkpt><trkpt lat="37.2845482" lon="9.8619201"><ele>25.0</ele><time>2026-05-02T18:47:18.712Z</time></trkpt><trkpt lat="37.2846289" lon="9.8620311"><ele>25.0</ele><time>2026-05-02T18:47:20.714Z</time></trkpt><trkpt lat="37.2847041" lon="9.8621374"><ele>24.8</ele><time>2026-05-02T18:47:22.706Z</time></trkpt><trkpt lat="37.2847823" lon="9.8622352"><ele>24.6</ele><time>2026-05-02T18:47:24.711Z</time></trkpt><trkpt lat="37.2848652" lon="9.8623675"><ele>24.4</ele><time>2026-05-02T18:47:26.709Z</time></trkpt><trkpt lat="37.2849126" lon="9.8624436"><ele>24.2</ele><time>2026-05-02T18:47:27.703Z</time></trkpt><trkpt lat="37.2849677" lon="9.8625207"><ele>24.0</ele><time>2026-05-02T18:47:28.722Z</time></trkpt><trkpt lat="37.2850199" lon="9.8626097"><ele>24.0</ele><time>2026-05-02T18:47:29.724Z</time></trkpt><trkpt lat="37.2850736" lon="9.8626925"><ele>24.0</ele><time>2026-05-02T18:47:30.719Z</time></trkpt><trkpt lat="37.2851188" lon="9.8627866"><ele>24.0</ele><time>2026-05-02T18:47:31.705Z</time></trkpt><trkpt lat="37.2851706" lon="9.8628764"><ele>24.0</ele><time>2026-05-02T18:47:32.732Z</time></trkpt><trkpt lat="37.2852217" lon="9.8629602"><ele>24.0</ele><time>2026-05-02T18:47:33.713Z</time></trkpt><trkpt lat="37.2852764" lon="9.8630499"><ele>24.0</ele><time>2026-05-02T18:47:34.71Z</time></trkpt><trkpt lat="37.2853259" lon="9.8631366"><ele>24.0</ele><time>2026-05-02T18:47:35.711Z</time></trkpt><trkpt lat="37.2853779" lon="9.8632119"><ele>24.0</ele><time>2026-05-02T18:47:36.706Z</time></trkpt><trkpt lat="37.2854315" lon="9.8632865"><ele>24.0</ele><time>2026-05-02T18:47:37.7Z</time></trkpt><trkpt lat="37.2854855" lon="9.8633627"><ele>24.0</ele><time>2026-05-02T18:47:38.705Z</time></trkpt><trkpt lat="37.2855388" lon="9.8634403"><ele>24.0</ele><time>2026-05-02T18:47:39.714Z</time></trkpt><trkpt lat="37.2855925" lon="9.8635165"><ele>24.0</ele><time>2026-05-02T18:47:40.701Z</time></trkpt><trkpt lat="37.2856422" lon="9.8636024"><ele>23.0</ele><time>2026-05-02T18:47:41.718Z</time></trkpt><trkpt lat="37.2856928" lon="9.8636872"><ele>22.0</ele><time>2026-05-02T18:47:42.7Z</time></trkpt><trkpt lat="37.2857426" lon="9.8637669"><ele>21.0</ele><time>2026-05-02T18:47:43.707Z</time></trkpt><trkpt lat="37.2857906" lon="9.8638444"><ele>20.0</ele><time>2026-05-02T18:47:44.693Z</time></trkpt><trkpt lat="37.2858408" lon="9.8639219"><ele>19.0</ele><time>2026-05-02T18:47:45.693Z</time></trkpt><trkpt lat="37.2858863" lon="9.8639972"><ele>18.0</ele><time>2026-05-02T18:47:46.711Z</time></trkpt><trkpt lat="37.2859335" lon="9.864064"><ele>18.0</ele><time>2026-05-02T18:47:47.707Z</time></trkpt><trkpt lat="37.2859869" lon="9.8641416"><ele>18.0</ele><time>2026-05-02T18:47:48.709Z</time></trkpt><trkpt lat="37.2860346" lon="9.8642251"><ele>18.0</ele><time>2026-05-02T18:47:49.708Z</time></trkpt><trkpt lat="37.2860864" lon="9.8643052"><ele>18.0</ele><time>2026-05-02T18:47:50.701Z</time></trkpt><trkpt lat="37.2861315" lon="9.8643797"><ele>18.0</ele><time>2026-05-02T18:47:51.722Z</time></trkpt><trkpt lat="37.2861826" lon="9.8644553"><ele>18.0</ele><time>2026-05-02T18:47:52.702Z</time></trkpt><trkpt lat="37.2862263" lon="9.864532"><ele>17.857142857142858</ele><time>2026-05-02T18:47:53.703Z</time></trkpt><trkpt lat="37.2862641" lon="9.8645996"><ele>17.714285714285715</ele><time>2026-05-02T18:47:54.713Z</time></trkpt><trkpt lat="37.2863065" lon="9.864671"><ele>17.57142857142857</ele><time>2026-05-02T18:47:55.727Z</time></trkpt><trkpt lat="37.2863513" lon="9.8647475"><ele>17.42857142857143</ele><time>2026-05-02T18:47:56.709Z</time></trkpt><trkpt lat="37.2864016" lon="9.8648231"><ele>17.285714285714285</ele><time>2026-05-02T18:47:57.711Z</time></trkpt><trkpt lat="37.2864539" lon="9.8648963"><ele>17.142857142857142</ele><time>2026-05-02T18:47:58.7Z</time></trkpt><trkpt lat="37.2864935" lon="9.8649681"><ele>17.0</ele><time>2026-05-02T18:47:59.713Z</time></trkpt><trkpt lat="37.2865345" lon="9.8650378"><ele>16.57142857142857</ele><time>2026-05-02T18:48:00.711Z</time></trkpt><trkpt lat="37.2865834" lon="9.8651008"><ele>16.142857142857142</ele><time>2026-05-02T18:48:01.702Z</time></trkpt><trkpt lat="37.2866252" lon="9.8651689"><ele>15.714285714285714</ele><time>2026-05-02T18:48:02.711Z</time></trkpt><trkpt lat="37.2866654" lon="9.865239"><ele>15.285714285714285</ele><time>2026-05-02T18:48:03.704Z</time></trkpt><trkpt lat="37.2867" lon="9.8653114"><ele>14.857142857142858</ele><time>2026-05-02T18:48:04.72Z</time></trkpt><trkpt lat="37.2867399" lon="9.8653792"><ele>14.428571428571429</ele><time>2026-05-02T18:48:05.707Z</time></trkpt><trkpt lat="37.28678" lon="9.8654605"><ele>14.0</ele><time>2026-05-02T18:48:06.714Z</time></trkpt><trkpt lat="37.2868216" lon="9.8655293"><ele>14.0</ele><time>2026-05-02T18:48:07.712Z</time></trkpt><trkpt lat="37.2868958" lon="9.8656507"><ele>13.999999999999998</ele><time>2026-05-02T18:48:09.711Z</time></trkpt><trkpt lat="37.2869717" lon="9.8657665"><ele>13.999999999999998</ele><time>2026-05-02T18:48:11.699Z</time></trkpt><trkpt lat="37.2870305" lon="9.8658569"><ele>14.0</ele><time>2026-05-02T18:48:13.719Z</time></trkpt><trkpt lat="37.2870794" lon="9.865924"><ele>14.0</ele><time>2026-05-02T18:48:15.708Z</time></trkpt><trkpt lat="37.2871345" lon="9.865986"><ele>14.0</ele><time>2026-05-02T18:48:17.712Z</time></trkpt><trkpt lat="37.2871886" lon="9.8660557"><ele>13.999999999999998</ele><time>2026-05-02T18:48:20.714Z</time></trkpt><trkpt lat="37.2872265" lon="9.8661257"><ele>13.999999999999998</ele><time>2026-05-02T18:48:22.716Z</time></trkpt><trkpt lat="37.2872867" lon="9.8662381"><ele>14.0</ele><time>2026-05-02T18:48:24.707Z</time></trkpt><trkpt lat="37.2873465" lon="9.8663548"><ele>14.0</ele><time>2026-05-02T18:48:26.718Z</time></trkpt><trkpt lat="37.2874099" lon="9.8664565"><ele>14.000000000000002</ele><time>2026-05-02T18:48:28.715Z</time></trkpt><trkpt lat="37.2874695" lon="9.8665422"><ele>14.0</ele><time>2026-05-02T18:48:30.701Z</time></trkpt><trkpt lat="37.2875229" lon="9.8666295"><ele>14.0</ele><time>2026-05-02T18:48:32.716Z</time></trkpt><trkpt lat="37.2875736" lon="9.8667161"><ele>14.0</ele><time>2026-05-02T18:48:34.707Z</time></trkpt><trkpt lat="37.2876238" lon="9.8668038"><ele>14.000000000000002</ele><time>2026-05-02T18:48:36.71Z</time></trkpt><trkpt lat="37.2876557" lon="9.8668886"><ele>14.0</ele><time>2026-05-02T18:48:38.705Z</time></trkpt><trkpt lat="37.2877201" lon="9.8669996"><ele>13.799999999999999</ele><time>2026-05-02T18:48:40.699Z</time></trkpt><trkpt lat="37.2878033" lon="9.8671109"><ele>13.599999999999998</ele><time>2026-05-02T18:48:42.698Z</time></trkpt><trkpt lat="37.2878853" lon="9.8672348"><ele>13.4</ele><time>2026-05-02T18:48:44.709Z</time></trkpt><trkpt lat="37.2879247" lon="9.867299"><ele>13.2</ele><time>2026-05-02T18:48:45.707Z</time></trkpt><trkpt lat="37.2879893" lon="9.8674107"><ele>13.0</ele><time>2026-05-02T18:48:47.708Z</time></trkpt><trkpt lat="37.288049" lon="9.8675241"><ele>12.499999999999998</ele><time>2026-05-02T18:48:49.71Z</time></trkpt><trkpt lat="37.2881026" lon="9.8676284"><ele>12.0</ele><time>2026-05-02T18:48:51.695Z</time></trkpt><trkpt lat="37.2881413" lon="9.8677086"><ele>11.5</ele><time>2026-05-02T18:48:53.708Z</time></trkpt><trkpt lat="37.2881694" lon="9.8677828"><ele>11.0</ele><time>2026-05-02T18:48:58.709Z</time></trkpt><trkpt lat="37.2882019" lon="9.86787"><ele>10.5</ele><time>2026-05-02T18:49:01.725Z</time></trkpt><trkpt lat="37.2883084" lon="9.8679391"><ele>10.0</ele><time>2026-05-02T18:49:03.701Z</time></trkpt><trkpt lat="37.2884094" lon="9.8680583"><ele>10.0</ele><time>2026-05-02T18:49:05.705Z</time></trkpt><trkpt lat="37.2884688" lon="9.868148"><ele>10.0</ele><time>2026-05-02T18:49:06.711Z</time></trkpt><trkpt lat="37.2885239" lon="9.8682292"><ele>10.0</ele><time>2026-05-02T18:49:07.7Z</time></trkpt><trkpt lat="37.2885735" lon="9.8683045"><ele>10.0</ele><time>2026-05-02T18:49:08.711Z</time></trkpt><trkpt lat="37.2886197" lon="9.8683802"><ele>10.0</ele><time>2026-05-02T18:49:09.726Z</time></trkpt><trkpt lat="37.2886624" lon="9.8684579"><ele>10.0</ele><time>2026-05-02T18:49:10.708Z</time></trkpt><trkpt lat="37.2887066" lon="9.8685355"><ele>10.0</ele><time>2026-05-02T18:49:11.701Z</time></trkpt><trkpt lat="37.2887479" lon="9.8686049"><ele>10.0</ele><time>2026-05-02T18:49:12.706Z</time></trkpt><trkpt lat="37.2887858" lon="9.8686744"><ele>10.0</ele><time>2026-05-02T18:49:13.703Z</time></trkpt><trkpt lat="37.2888306" lon="9.8687455"><ele>10.0</ele><time>2026-05-02T18:49:14.703Z</time></trkpt><trkpt lat="37.2889076" lon="9.868859"><ele>10.0</ele><time>2026-05-02T18:49:16.705Z</time></trkpt><trkpt lat="37.2889646" lon="9.8689494"><ele>10.0</ele><time>2026-05-02T18:49:18.708Z</time></trkpt><trkpt lat="37.2890043" lon="9.8690478"><ele>9.666666666666668</ele><time>2026-05-02T18:49:21.702Z</time></trkpt><trkpt lat="37.2890322" lon="9.8691286"><ele>9.333333333333334</ele><time>2026-05-02T18:49:24.705Z</time></trkpt><trkpt lat="37.2890664" lon="9.8692059"><ele>9.0</ele><time>2026-05-02T18:49:27.712Z</time></trkpt><trkpt lat="37.2890947" lon="9.8692814"><ele>8.666666666666666</ele><time>2026-05-02T18:49:29.741Z</time></trkpt><trkpt lat="37.2891348" lon="9.869402"><ele>8.333333333333332</ele><time>2026-05-02T18:49:31.697Z</time></trkpt><trkpt lat="37.2891398" lon="9.8695427"><ele>8.0</ele><time>2026-05-02T18:49:33.704Z</time></trkpt><trkpt lat="37.2891195" lon="9.8696596"><ele>8.0</ele><time>2026-05-02T18:49:35.705Z</time></trkpt><trkpt lat="37.2890957" lon="9.8697496"><ele>8.0</ele><time>2026-05-02T18:49:37.709Z</time></trkpt><trkpt lat="37.289018" lon="9.8698603"><ele>8.0</ele><time>2026-05-02T18:49:39.727Z</time></trkpt><trkpt lat="37.2889663" lon="9.8699169"><ele>8.0</ele><time>2026-05-02T18:49:40.717Z</time></trkpt><trkpt lat="37.2888961" lon="9.8699773"><ele>8.0</ele><time>2026-05-02T18:49:41.714Z</time></trkpt><trkpt lat="37.2888054" lon="9.8700657"><ele>7.2</ele><time>2026-05-02T18:49:42.718Z</time></trkpt><trkpt lat="37.2887125" lon="9.870163"><ele>6.4</ele><time>2026-05-02T18:49:43.711Z</time></trkpt><trkpt lat="37.2886193" lon="9.870247"><ele>5.6000000000000005</ele><time>2026-05-02T18:49:44.711Z</time></trkpt><trkpt lat="37.2885339" lon="9.8703147"><ele>4.800000000000001</ele><time>2026-05-02T18:49:45.715Z</time></trkpt><trkpt lat="37.2884537" lon="9.8703762"><ele>4.0</ele><time>2026-05-02T18:49:46.712Z</time></trkpt><trkpt lat="37.2883809" lon="9.8704401"><ele>3.9999999999999996</ele><time>2026-05-02T18:49:47.703Z</time></trkpt><trkpt lat="37.2883122" lon="9.8704925"><ele>4.0</ele><time>2026-05-02T18:49:48.714Z</time></trkpt><trkpt lat="37.2882431" lon="9.8705433"><ele>4.0</ele><time>2026-05-02T18:49:49.711Z</time></trkpt><trkpt lat="37.2881758" lon="9.8705865"><ele>4.0</ele><time>2026-05-02T18:49:50.708Z</time></trkpt><trkpt lat="37.2881034" lon="9.8706279"><ele>3.9999999999999996</ele><time>2026-05-02T18:49:51.703Z</time></trkpt><trkpt lat="37.288034" lon="9.8706645"><ele>4.0</ele><time>2026-05-02T18:49:52.699Z</time></trkpt><trkpt lat="37.2879626" lon="9.8707059"><ele>4.5</ele><time>2026-05-02T18:49:53.702Z</time></trkpt><trkpt lat="37.2878873" lon="9.8707469"><ele>5.0</ele><time>2026-05-02T18:49:54.707Z</time></trkpt><trkpt lat="37.2878127" lon="9.8707908"><ele>5.5</ele><time>2026-05-02T18:49:55.708Z</time></trkpt><trkpt lat="37.2877308" lon="9.870827"><ele>6.0</ele><time>2026-05-02T18:49:56.713Z</time></trkpt><trkpt lat="37.2876567" lon="9.870863"><ele>6.500000000000001</ele><time>2026-05-02T18:49:57.715Z</time></trkpt><trkpt lat="37.2875821" lon="9.870894"><ele>7.0</ele><time>2026-05-02T18:49:58.707Z</time></trkpt><trkpt lat="37.2875028" lon="9.8709272"><ele>7.166666666666667</ele><time>2026-05-02T18:49:59.709Z</time></trkpt><trkpt lat="37.2874217" lon="9.8709623"><ele>7.333333333333334</ele><time>2026-05-02T18:50:00.714Z</time></trkpt><trkpt lat="37.2873358" lon="9.8709869"><ele>7.5</ele><time>2026-05-02T18:50:01.71Z</time></trkpt><trkpt lat="37.2872467" lon="9.8710061"><ele>7.666666666666666</ele><time>2026-05-02T18:50:02.712Z</time></trkpt><trkpt lat="37.2871641" lon="9.8710313"><ele>7.833333333333333</ele><time>2026-05-02T18:50:03.707Z</time></trkpt><trkpt lat="37.287088" lon="9.8710572"><ele>8.0</ele><time>2026-05-02T18:50:04.714Z</time></trkpt><trkpt lat="37.2869815" lon="9.871097"><ele>8.0</ele><time>2026-05-02T18:50:06.711Z</time></trkpt><trkpt lat="37.2869162" lon="9.8711353"><ele>8.0</ele><time>2026-05-02T18:50:08.713Z</time></trkpt><trkpt lat="37.2868455" lon="9.87116"><ele>8.0</ele><time>2026-05-02T18:50:11.703Z</time></trkpt><trkpt lat="37.286749" lon="9.8712069"><ele>8.0</ele><time>2026-05-02T18:50:27.704Z</time></trkpt><trkpt lat="37.2866543" lon="9.8712302"><ele>8.0</ele><time>2026-05-02T18:50:29.703Z</time></trkpt><trkpt lat="37.2865429" lon="9.871257"><ele>8.0</ele><time>2026-05-02T18:50:31.713Z</time></trkpt><trkpt lat="37.2864783" lon="9.8712759"><ele>7.999999999999999</ele><time>2026-05-02T18:50:32.707Z</time></trkpt><trkpt lat="37.2864065" lon="9.8712985"><ele>8.0</ele><time>2026-05-02T18:50:33.712Z</time></trkpt><trkpt lat="37.2863274" lon="9.8713272"><ele>8.0</ele><time>2026-05-02T18:50:34.707Z</time></trkpt><trkpt lat="37.2862556" lon="9.8713657"><ele>7.999999999999999</ele><time>2026-05-02T18:50:35.706Z</time></trkpt><trkpt lat="37.2861929" lon="9.8714142"><ele>8.0</ele><time>2026-05-02T18:50:36.706Z</time></trkpt><trkpt lat="37.2861378" lon="9.8714589"><ele>8.0</ele><time>2026-05-02T18:50:37.703Z</time></trkpt><trkpt lat="37.2860895" lon="9.8715129"><ele>7.999999999999999</ele><time>2026-05-02T18:50:38.718Z</time></trkpt><trkpt lat="37.2860307" lon="9.8715983"><ele>8.0</ele><time>2026-05-02T18:50:40.712Z</time></trkpt><trkpt lat="37.285982" lon="9.8716653"><ele>8.0</ele><time>2026-05-02T18:50:42.711Z</time></trkpt><trkpt lat="37.2859381" lon="9.8717422"><ele>8.0</ele><time>2026-05-02T18:50:44.705Z</time></trkpt><trkpt lat="37.2859224" lon="9.8718425"><ele>7.999999999999999</ele><time>2026-05-02T18:50:46.718Z</time></trkpt><trkpt lat="37.2859464" lon="9.8719468"><ele>8.0</ele><time>2026-05-02T18:50:48.703Z</time></trkpt><trkpt lat="37.2860101" lon="9.8720341"><ele>7.999999999999999</ele><time>2026-05-02T18:50:50.708Z</time></trkpt><trkpt lat="37.2861051" lon="9.8721198"><ele>8.0</ele><time>2026-05-02T18:50:52.713Z</time></trkpt><trkpt lat="37.2861558" lon="9.8721684"><ele>8.0</ele><time>2026-05-02T18:50:53.72Z</time></trkpt><trkpt lat="37.286212" lon="9.8722217"><ele>8.0</ele><time>2026-05-02T18:50:54.712Z</time></trkpt><trkpt lat="37.2862692" lon="9.8722714"><ele>7.999999999999999</ele><time>2026-05-02T18:50:55.709Z</time></trkpt><trkpt lat="37.2863323" lon="9.8723125"><ele>8.0</ele><time>2026-05-02T18:50:56.703Z</time></trkpt><trkpt lat="37.2863956" lon="9.8723426"><ele>7.666666666666666</ele><time>2026-05-02T18:50:57.715Z</time></trkpt><trkpt lat="37.2864601" lon="9.8723735"><ele>7.333333333333333</ele><time>2026-05-02T18:50:58.71Z</time></trkpt><trkpt lat="37.2865197" lon="9.8724076"><ele>7.0</ele><time>2026-05-02T18:50:59.706Z</time></trkpt><trkpt lat="37.2865811" lon="9.872435"><ele>6.666666666666666</ele><time>2026-05-02T18:51:00.712Z</time></trkpt><trkpt lat="37.2866953" lon="9.8724945"><ele>6.333333333333333</ele><time>2026-05-02T18:51:02.702Z</time></trkpt><trkpt lat="37.2868002" lon="9.87252"><ele>6.0</ele><time>2026-05-02T18:51:04.708Z</time></trkpt><trkpt lat="37.2868895" lon="9.8725287"><ele>6.0</ele><time>2026-05-02T18:51:06.747Z</time></trkpt><trkpt lat="37.286966" lon="9.8725304"><ele>6.0</ele><time>2026-05-02T18:51:09.731Z</time></trkpt><trkpt lat="37.2870194" lon="9.8726081"><ele>6.0</ele><time>2026-05-02T18:51:13.699Z</time></trkpt><trkpt lat="37.2870047" lon="9.8727013"><ele>6.0</ele><time>2026-05-02T18:51:17.709Z</time></trkpt><trkpt lat="37.2869981" lon="9.8727944"><ele>6.0</ele><time>2026-05-02T18:51:22.711Z</time></trkpt><trkpt lat="37.2869885" lon="9.8728749"><ele>6.0</ele><time>2026-05-02T18:51:27.698Z</time></trkpt><trkpt lat="37.2869689" lon="9.8729684"><ele>4.0</ele><time>2026-05-02T18:51:32.697Z</time></trkpt><trkpt lat="37.2869528" lon="9.8730569"><ele>4.0</ele><time>2026-05-02T18:51:37.699Z</time></trkpt><trkpt lat="37.2870048" lon="9.8731054"><ele>4.0</ele><time>2026-05-02T18:51:56.692Z</time></trkpt><trkpt lat="37.2870578" lon="9.8730419"><ele>4.0</ele><time>2026-05-02T18:52:07.7Z</time></trkpt></trkseg></trk></gpx>